<?xml version="1.0" encoding="UTF-8" standalone="no" ?>
<gpx xmlns="http://www.topografix.com/GPX/1/1" xmlns:xsi="http://www.w3.org/2001/XMLSchema-instance" xsi:schemaLocation="http://www.topografix.com/GPX/1/1 http://www.topografix.com/GPX/1/1/gpx.xsd" version="1.1" creator="VisuGPX - https://www.visugpx.com">
  <metadata>
    <name>Boucle Sarlat 2016</name>
  </metadata>
  <trk>
    <name><![CDATA[Jour 1 (3 juin 2016)]]></name>
    <trkseg>
      <trkpt lat="44.85732" lon="1.23705">
        <ele>144</ele>
        <time>2019-02-01T19:24:28.000Z</time>
      </trkpt>
      <trkpt lat="44.85732" lon="1.23705">
        <ele>144</ele>
        <time>2019-02-01T19:24:28.000Z</time>
      </trkpt>
      <trkpt lat="44.85732" lon="1.23705">
        <ele>144</ele>
        <time>2019-02-01T19:24:28.000Z</time>
      </trkpt>
      <trkpt lat="44.85774" lon="1.2374">
        <ele>141</ele>
        <time>2019-02-01T19:25:28.000Z</time>
      </trkpt>
      <trkpt lat="44.85811" lon="1.23835">
        <ele>136</ele>
        <time>2019-02-01T19:26:28.000Z</time>
      </trkpt>
      <trkpt lat="44.85896" lon="1.23818">
        <ele>136</ele>
        <time>2019-02-01T19:27:28.000Z</time>
      </trkpt>
      <trkpt lat="44.85986" lon="1.23793">
        <ele>135</ele>
        <time>2019-02-01T19:28:28.000Z</time>
      </trkpt>
      <trkpt lat="44.86074" lon="1.23808">
        <ele>135</ele>
        <time>2019-02-01T19:29:28.000Z</time>
      </trkpt>
      <trkpt lat="44.86122" lon="1.2383">
        <ele>133</ele>
        <time>2019-02-01T19:30:28.000Z</time>
      </trkpt>
      <trkpt lat="44.86119" lon="1.23809">
        <ele>134</ele>
        <time>2019-02-01T19:31:28.000Z</time>
      </trkpt>
      <trkpt lat="44.8605" lon="1.23793">
        <ele>135</ele>
        <time>2019-02-01T19:32:28.000Z</time>
      </trkpt>
      <trkpt lat="44.85943" lon="1.23807">
        <ele>135</ele>
        <time>2019-02-01T19:33:28.000Z</time>
      </trkpt>
      <trkpt lat="44.85869" lon="1.23828">
        <ele>136</ele>
        <time>2019-02-01T19:34:28.000Z</time>
      </trkpt>
      <trkpt lat="44.85809" lon="1.23819">
        <ele>137</ele>
        <time>2019-02-01T19:35:28.000Z</time>
      </trkpt>
      <trkpt lat="44.85853" lon="1.23847">
        <ele>136</ele>
        <time>2019-02-01T19:36:28.000Z</time>
      </trkpt>
      <trkpt lat="44.85922" lon="1.23816">
        <ele>135</ele>
        <time>2019-02-01T19:37:28.000Z</time>
      </trkpt>
      <trkpt lat="44.85991" lon="1.23785">
        <ele>135</ele>
        <time>2019-02-01T19:38:28.000Z</time>
      </trkpt>
      <trkpt lat="44.86068" lon="1.23807">
        <ele>135</ele>
        <time>2019-02-01T19:39:28.000Z</time>
      </trkpt>
      <trkpt lat="44.86127" lon="1.23844">
        <ele>133</ele>
        <time>2019-02-01T19:40:28.000Z</time>
      </trkpt>
      <trkpt lat="44.86192" lon="1.23976">
        <ele>129</ele>
        <time>2019-02-01T19:41:28.000Z</time>
      </trkpt>
      <trkpt lat="44.86232" lon="1.24058">
        <ele>129</ele>
        <time>2019-02-01T19:42:28.000Z</time>
      </trkpt>
      <trkpt lat="44.86271" lon="1.2416">
        <ele>130</ele>
        <time>2019-02-01T19:43:28.000Z</time>
      </trkpt>
      <trkpt lat="44.8631" lon="1.2424">
        <ele>135</ele>
        <time>2019-02-01T19:44:28.000Z</time>
      </trkpt>
      <trkpt lat="44.86341" lon="1.24285">
        <ele>138</ele>
        <time>2019-02-01T19:45:28.000Z</time>
      </trkpt>
      <trkpt lat="44.86367" lon="1.24333">
        <ele>142</ele>
        <time>2019-02-01T19:46:28.000Z</time>
      </trkpt>
      <trkpt lat="44.86385" lon="1.24397">
        <ele>147</ele>
        <time>2019-02-01T19:47:28.000Z</time>
      </trkpt>
      <trkpt lat="44.86399" lon="1.24448">
        <ele>148</ele>
        <time>2019-02-01T19:48:28.000Z</time>
      </trkpt>
      <trkpt lat="44.86429" lon="1.2456">
        <ele>144</ele>
        <time>2019-02-01T19:49:28.000Z</time>
      </trkpt>
      <trkpt lat="44.8648" lon="1.24782">
        <ele>136</ele>
        <time>2019-02-01T19:50:28.000Z</time>
      </trkpt>
      <trkpt lat="44.86451" lon="1.24875">
        <ele>133</ele>
        <time>2019-02-01T19:51:28.000Z</time>
      </trkpt>
      <trkpt lat="44.86437" lon="1.24932">
        <ele>130</ele>
        <time>2019-02-01T19:52:28.000Z</time>
      </trkpt>
      <trkpt lat="44.8642" lon="1.24939">
        <ele>129</ele>
        <time>2019-02-01T19:53:28.000Z</time>
      </trkpt>
      <trkpt lat="44.86325" lon="1.24987">
        <ele>128</ele>
        <time>2019-02-01T19:54:28.000Z</time>
      </trkpt>
      <trkpt lat="44.86234" lon="1.25035">
        <ele>134</ele>
        <time>2019-02-01T19:55:28.000Z</time>
      </trkpt>
      <trkpt lat="44.86114" lon="1.25085">
        <ele>129</ele>
        <time>2019-02-01T19:56:28.000Z</time>
      </trkpt>
      <trkpt lat="44.85997" lon="1.25154">
        <ele>121</ele>
        <time>2019-02-01T19:57:28.000Z</time>
      </trkpt>
      <trkpt lat="44.85884" lon="1.25249">
        <ele>125</ele>
        <time>2019-02-01T19:58:28.000Z</time>
      </trkpt>
      <trkpt lat="44.85788" lon="1.25399">
        <ele>125</ele>
        <time>2019-02-01T19:59:28.000Z</time>
      </trkpt>
      <trkpt lat="44.85707" lon="1.2553">
        <ele>124</ele>
        <time>2019-02-01T20:00:28.000Z</time>
      </trkpt>
      <trkpt lat="44.85612" lon="1.25651">
        <ele>120</ele>
        <time>2019-02-01T20:01:28.000Z</time>
      </trkpt>
      <trkpt lat="44.85511" lon="1.25783">
        <ele>110</ele>
        <time>2019-02-01T20:02:28.000Z</time>
      </trkpt>
      <trkpt lat="44.8544" lon="1.2591">
        <ele>116</ele>
        <time>2019-02-01T20:03:28.000Z</time>
      </trkpt>
      <trkpt lat="44.85355" lon="1.26038">
        <ele>119</ele>
        <time>2019-02-01T20:04:28.000Z</time>
      </trkpt>
      <trkpt lat="44.8529" lon="1.26242">
        <ele>123</ele>
        <time>2019-02-01T20:05:28.000Z</time>
      </trkpt>
      <trkpt lat="44.85293" lon="1.26445">
        <ele>113</ele>
        <time>2019-02-01T20:06:28.000Z</time>
      </trkpt>
      <trkpt lat="44.85296" lon="1.26605">
        <ele>111</ele>
        <time>2019-02-01T20:07:28.000Z</time>
      </trkpt>
      <trkpt lat="44.85318" lon="1.26799">
        <ele>107</ele>
        <time>2019-02-01T20:08:28.000Z</time>
      </trkpt>
      <trkpt lat="44.85295" lon="1.2696">
        <ele>109</ele>
        <time>2019-02-01T20:09:28.000Z</time>
      </trkpt>
      <trkpt lat="44.85199" lon="1.27131">
        <ele>103</ele>
        <time>2019-02-01T20:10:28.000Z</time>
      </trkpt>
      <trkpt lat="44.85088" lon="1.27218">
        <ele>101</ele>
        <time>2019-02-01T20:11:28.000Z</time>
      </trkpt>
      <trkpt lat="44.84954" lon="1.27276">
        <ele>90</ele>
        <time>2019-02-01T20:12:28.000Z</time>
      </trkpt>
      <trkpt lat="44.84864" lon="1.27333">
        <ele>86</ele>
        <time>2019-02-01T20:13:28.000Z</time>
      </trkpt>
      <trkpt lat="44.84765" lon="1.27375">
        <ele>94</ele>
        <time>2019-02-01T20:14:28.000Z</time>
      </trkpt>
      <trkpt lat="44.84674" lon="1.27456">
        <ele>102</ele>
        <time>2019-02-01T20:15:28.000Z</time>
      </trkpt>
      <trkpt lat="44.8459" lon="1.27501">
        <ele>98</ele>
        <time>2019-02-01T20:16:28.000Z</time>
      </trkpt>
      <trkpt lat="44.84494" lon="1.27535">
        <ele>100</ele>
        <time>2019-02-01T20:17:28.000Z</time>
      </trkpt>
      <trkpt lat="44.84395" lon="1.27532">
        <ele>99</ele>
        <time>2019-02-01T20:18:28.000Z</time>
      </trkpt>
      <trkpt lat="44.84306" lon="1.27542">
        <ele>100</ele>
        <time>2019-02-01T20:19:28.000Z</time>
      </trkpt>
      <trkpt lat="44.842" lon="1.2758">
        <ele>104</ele>
        <time>2019-02-01T20:20:28.000Z</time>
      </trkpt>
      <trkpt lat="44.84119" lon="1.27582">
        <ele>97</ele>
        <time>2019-02-01T20:21:28.000Z</time>
      </trkpt>
      <trkpt lat="44.84036" lon="1.27611">
        <ele>97</ele>
        <time>2019-02-01T20:22:28.000Z</time>
      </trkpt>
      <trkpt lat="44.83942" lon="1.27588">
        <ele>91</ele>
        <time>2019-02-01T20:23:28.000Z</time>
      </trkpt>
      <trkpt lat="44.8386" lon="1.27565">
        <ele>92</ele>
        <time>2019-02-01T20:24:28.000Z</time>
      </trkpt>
      <trkpt lat="44.83782" lon="1.27523">
        <ele>95</ele>
        <time>2019-02-01T20:25:28.000Z</time>
      </trkpt>
      <trkpt lat="44.83723" lon="1.27502">
        <ele>100</ele>
        <time>2019-02-01T20:26:28.000Z</time>
      </trkpt>
      <trkpt lat="44.83633" lon="1.27463">
        <ele>106</ele>
        <time>2019-02-01T20:27:28.000Z</time>
      </trkpt>
      <trkpt lat="44.83544" lon="1.27427">
        <ele>103</ele>
        <time>2019-02-01T20:28:28.000Z</time>
      </trkpt>
      <trkpt lat="44.83467" lon="1.27388">
        <ele>98</ele>
        <time>2019-02-01T20:29:28.000Z</time>
      </trkpt>
      <trkpt lat="44.83377" lon="1.2735">
        <ele>99</ele>
        <time>2019-02-01T20:30:28.000Z</time>
      </trkpt>
      <trkpt lat="44.83286" lon="1.27327">
        <ele>99</ele>
        <time>2019-02-01T20:31:28.000Z</time>
      </trkpt>
      <trkpt lat="44.83221" lon="1.27324">
        <ele>98</ele>
        <time>2019-02-01T20:32:28.000Z</time>
      </trkpt>
      <trkpt lat="44.83135" lon="1.27364">
        <ele>98</ele>
        <time>2019-02-01T20:33:28.000Z</time>
      </trkpt>
      <trkpt lat="44.83041" lon="1.27452">
        <ele>99</ele>
        <time>2019-02-01T20:34:28.000Z</time>
      </trkpt>
      <trkpt lat="44.82977" lon="1.27574">
        <ele>102</ele>
        <time>2019-02-01T20:35:28.000Z</time>
      </trkpt>
      <trkpt lat="44.8292" lon="1.27706">
        <ele>104</ele>
        <time>2019-02-01T20:36:28.000Z</time>
      </trkpt>
      <trkpt lat="44.82855" lon="1.27828">
        <ele>102</ele>
        <time>2019-02-01T20:37:28.000Z</time>
      </trkpt>
      <trkpt lat="44.82813" lon="1.27972">
        <ele>101</ele>
        <time>2019-02-01T20:38:28.000Z</time>
      </trkpt>
      <trkpt lat="44.82741" lon="1.28087">
        <ele>89</ele>
        <time>2019-02-01T20:39:28.000Z</time>
      </trkpt>
      <trkpt lat="44.8269" lon="1.28167">
        <ele>83</ele>
        <time>2019-02-01T20:40:28.000Z</time>
      </trkpt>
      <trkpt lat="44.82667" lon="1.28192">
        <ele>81</ele>
        <time>2019-02-01T20:41:28.000Z</time>
      </trkpt>
      <trkpt lat="44.82676" lon="1.2818">
        <ele>81</ele>
        <time>2019-02-01T20:42:28.000Z</time>
      </trkpt>
      <trkpt lat="44.82685" lon="1.28178">
        <ele>82</ele>
        <time>2019-02-01T20:43:28.000Z</time>
      </trkpt>
      <trkpt lat="44.82708" lon="1.28147">
        <ele>84</ele>
        <time>2019-02-01T20:44:28.000Z</time>
      </trkpt>
      <trkpt lat="44.82724" lon="1.28124">
        <ele>86</ele>
        <time>2019-02-01T20:45:28.000Z</time>
      </trkpt>
      <trkpt lat="44.8274" lon="1.28097">
        <ele>89</ele>
        <time>2019-02-01T20:46:28.000Z</time>
      </trkpt>
      <trkpt lat="44.82756" lon="1.28078">
        <ele>92</ele>
        <time>2019-02-01T20:47:28.000Z</time>
      </trkpt>
      <trkpt lat="44.82763" lon="1.28063">
        <ele>93</ele>
        <time>2019-02-01T20:48:28.000Z</time>
      </trkpt>
      <trkpt lat="44.82774" lon="1.28066">
        <ele>95</ele>
        <time>2019-02-01T20:49:28.000Z</time>
      </trkpt>
      <trkpt lat="44.82785" lon="1.28075">
        <ele>98</ele>
        <time>2019-02-01T20:50:28.000Z</time>
      </trkpt>
      <trkpt lat="44.82797" lon="1.28089">
        <ele>100</ele>
        <time>2019-02-01T20:51:28.000Z</time>
      </trkpt>
      <trkpt lat="44.82809" lon="1.28109">
        <ele>103</ele>
        <time>2019-02-01T20:52:28.000Z</time>
      </trkpt>
      <trkpt lat="44.82804" lon="1.28141">
        <ele>103</ele>
        <time>2019-02-01T20:53:28.000Z</time>
      </trkpt>
      <trkpt lat="44.828" lon="1.28175">
        <ele>102</ele>
        <time>2019-02-01T20:54:28.000Z</time>
      </trkpt>
      <trkpt lat="44.82801" lon="1.28206">
        <ele>101</ele>
        <time>2019-02-01T20:55:28.000Z</time>
      </trkpt>
      <trkpt lat="44.82805" lon="1.28247">
        <ele>101</ele>
        <time>2019-02-01T20:56:28.000Z</time>
      </trkpt>
      <trkpt lat="44.82807" lon="1.28281">
        <ele>99</ele>
        <time>2019-02-01T20:57:28.000Z</time>
      </trkpt>
      <trkpt lat="44.82814" lon="1.28315">
        <ele>99</ele>
        <time>2019-02-01T20:58:28.000Z</time>
      </trkpt>
      <trkpt lat="44.82818" lon="1.28339">
        <ele>98</ele>
        <time>2019-02-01T20:59:28.000Z</time>
      </trkpt>
      <trkpt lat="44.8282" lon="1.28352">
        <ele>97</ele>
        <time>2019-02-01T21:00:28.000Z</time>
      </trkpt>
      <trkpt lat="44.82832" lon="1.28406">
        <ele>93</ele>
        <time>2019-02-01T21:01:28.000Z</time>
      </trkpt>
      <trkpt lat="44.82844" lon="1.28447">
        <ele>91</ele>
        <time>2019-02-01T21:02:28.000Z</time>
      </trkpt>
      <trkpt lat="44.82858" lon="1.28485">
        <ele>89</ele>
        <time>2019-02-01T21:03:28.000Z</time>
      </trkpt>
      <trkpt lat="44.82869" lon="1.28521">
        <ele>88</ele>
        <time>2019-02-01T21:04:28.000Z</time>
      </trkpt>
      <trkpt lat="44.8288" lon="1.28549">
        <ele>88</ele>
        <time>2019-02-01T21:05:28.000Z</time>
      </trkpt>
      <trkpt lat="44.82897" lon="1.28579">
        <ele>88</ele>
        <time>2019-02-01T21:06:28.000Z</time>
      </trkpt>
      <trkpt lat="44.82916" lon="1.28619">
        <ele>89</ele>
        <time>2019-02-01T21:07:28.000Z</time>
      </trkpt>
      <trkpt lat="44.82938" lon="1.28652">
        <ele>90</ele>
        <time>2019-02-01T21:08:28.000Z</time>
      </trkpt>
      <trkpt lat="44.82964" lon="1.28685">
        <ele>90</ele>
        <time>2019-02-01T21:09:28.000Z</time>
      </trkpt>
      <trkpt lat="44.82977" lon="1.28711">
        <ele>91</ele>
        <time>2019-02-01T21:10:28.000Z</time>
      </trkpt>
      <trkpt lat="44.83014" lon="1.28775">
        <ele>93</ele>
        <time>2019-02-01T21:11:28.000Z</time>
      </trkpt>
      <trkpt lat="44.83036" lon="1.2881">
        <ele>94</ele>
        <time>2019-02-01T21:12:28.000Z</time>
      </trkpt>
      <trkpt lat="44.83062" lon="1.28844">
        <ele>95</ele>
        <time>2019-02-01T21:13:28.000Z</time>
      </trkpt>
      <trkpt lat="44.83076" lon="1.2887">
        <ele>95</ele>
        <time>2019-02-01T21:14:28.000Z</time>
      </trkpt>
      <trkpt lat="44.831" lon="1.28903">
        <ele>96</ele>
        <time>2019-02-01T21:15:28.000Z</time>
      </trkpt>
      <trkpt lat="44.83122" lon="1.28938">
        <ele>96</ele>
        <time>2019-02-01T21:16:28.000Z</time>
      </trkpt>
      <trkpt lat="44.83139" lon="1.28962">
        <ele>96</ele>
        <time>2019-02-01T21:17:28.000Z</time>
      </trkpt>
      <trkpt lat="44.83155" lon="1.28991">
        <ele>97</ele>
        <time>2019-02-01T21:18:28.000Z</time>
      </trkpt>
      <trkpt lat="44.83171" lon="1.29015">
        <ele>98</ele>
        <time>2019-02-01T21:19:28.000Z</time>
      </trkpt>
      <trkpt lat="44.83183" lon="1.29033">
        <ele>98</ele>
        <time>2019-02-01T21:20:28.000Z</time>
      </trkpt>
      <trkpt lat="44.83198" lon="1.29059">
        <ele>97</ele>
        <time>2019-02-01T21:21:28.000Z</time>
      </trkpt>
      <trkpt lat="44.83215" lon="1.29085">
        <ele>97</ele>
        <time>2019-02-01T21:22:28.000Z</time>
      </trkpt>
      <trkpt lat="44.83231" lon="1.29107">
        <ele>97</ele>
        <time>2019-02-01T21:23:28.000Z</time>
      </trkpt>
      <trkpt lat="44.8325" lon="1.29137">
        <ele>98</ele>
        <time>2019-02-01T21:24:28.000Z</time>
      </trkpt>
      <trkpt lat="44.8327" lon="1.29172">
        <ele>98</ele>
        <time>2019-02-01T21:25:28.000Z</time>
      </trkpt>
      <trkpt lat="44.83312" lon="1.29238">
        <ele>99</ele>
        <time>2019-02-01T21:26:28.000Z</time>
      </trkpt>
      <trkpt lat="44.8333" lon="1.29263">
        <ele>100</ele>
        <time>2019-02-01T21:27:28.000Z</time>
      </trkpt>
      <trkpt lat="44.83348" lon="1.29288">
        <ele>100</ele>
        <time>2019-02-01T21:28:28.000Z</time>
      </trkpt>
      <trkpt lat="44.83363" lon="1.29309">
        <ele>100</ele>
        <time>2019-02-01T21:29:28.000Z</time>
      </trkpt>
      <trkpt lat="44.83376" lon="1.29329">
        <ele>100</ele>
        <time>2019-02-01T21:30:28.000Z</time>
      </trkpt>
      <trkpt lat="44.83393" lon="1.29358">
        <ele>100</ele>
        <time>2019-02-01T21:31:28.000Z</time>
      </trkpt>
      <trkpt lat="44.83408" lon="1.2938">
        <ele>100</ele>
        <time>2019-02-01T21:32:28.000Z</time>
      </trkpt>
      <trkpt lat="44.83445" lon="1.29442">
        <ele>99</ele>
        <time>2019-02-01T21:33:28.000Z</time>
      </trkpt>
      <trkpt lat="44.83481" lon="1.295">
        <ele>97</ele>
        <time>2019-02-01T21:34:28.000Z</time>
      </trkpt>
      <trkpt lat="44.8352" lon="1.29551">
        <ele>98</ele>
        <time>2019-02-01T21:35:28.000Z</time>
      </trkpt>
      <trkpt lat="44.83535" lon="1.29581">
        <ele>100</ele>
        <time>2019-02-01T21:36:28.000Z</time>
      </trkpt>
      <trkpt lat="44.83557" lon="1.29618">
        <ele>101</ele>
        <time>2019-02-01T21:37:28.000Z</time>
      </trkpt>
      <trkpt lat="44.83576" lon="1.29648">
        <ele>103</ele>
        <time>2019-02-01T21:38:28.000Z</time>
      </trkpt>
      <trkpt lat="44.83592" lon="1.29674">
        <ele>105</ele>
        <time>2019-02-01T21:39:28.000Z</time>
      </trkpt>
      <trkpt lat="44.8361" lon="1.29698">
        <ele>106</ele>
        <time>2019-02-01T21:40:28.000Z</time>
      </trkpt>
      <trkpt lat="44.83628" lon="1.29731">
        <ele>106</ele>
        <time>2019-02-01T21:41:28.000Z</time>
      </trkpt>
      <trkpt lat="44.83656" lon="1.29757">
        <ele>107</ele>
        <time>2019-02-01T21:42:28.000Z</time>
      </trkpt>
      <trkpt lat="44.83678" lon="1.29791">
        <ele>106</ele>
        <time>2019-02-01T21:43:28.000Z</time>
      </trkpt>
      <trkpt lat="44.83697" lon="1.29812">
        <ele>106</ele>
        <time>2019-02-01T21:44:28.000Z</time>
      </trkpt>
      <trkpt lat="44.83714" lon="1.2983">
        <ele>105</ele>
        <time>2019-02-01T21:45:28.000Z</time>
      </trkpt>
      <trkpt lat="44.83744" lon="1.2986">
        <ele>102</ele>
        <time>2019-02-01T21:46:28.000Z</time>
      </trkpt>
      <trkpt lat="44.83763" lon="1.29881">
        <ele>102</ele>
        <time>2019-02-01T21:47:28.000Z</time>
      </trkpt>
      <trkpt lat="44.83793" lon="1.29908">
        <ele>101</ele>
        <time>2019-02-01T21:48:28.000Z</time>
      </trkpt>
      <trkpt lat="44.83827" lon="1.29944">
        <ele>97</ele>
        <time>2019-02-01T21:49:28.000Z</time>
      </trkpt>
      <trkpt lat="44.83855" lon="1.29972">
        <ele>96</ele>
        <time>2019-02-01T21:50:28.000Z</time>
      </trkpt>
      <trkpt lat="44.83884" lon="1.30004">
        <ele>97</ele>
        <time>2019-02-01T21:51:28.000Z</time>
      </trkpt>
      <trkpt lat="44.83914" lon="1.30026">
        <ele>98</ele>
        <time>2019-02-01T21:52:28.000Z</time>
      </trkpt>
      <trkpt lat="44.8394" lon="1.3005">
        <ele>98</ele>
        <time>2019-02-01T21:53:28.000Z</time>
      </trkpt>
      <trkpt lat="44.83977" lon="1.30085">
        <ele>98</ele>
        <time>2019-02-01T21:54:28.000Z</time>
      </trkpt>
      <trkpt lat="44.84004" lon="1.30115">
        <ele>96</ele>
        <time>2019-02-01T21:55:28.000Z</time>
      </trkpt>
      <trkpt lat="44.84062" lon="1.30175">
        <ele>92</ele>
        <time>2019-02-01T21:56:28.000Z</time>
      </trkpt>
      <trkpt lat="44.8409" lon="1.30208">
        <ele>89</ele>
        <time>2019-02-01T21:57:28.000Z</time>
      </trkpt>
      <trkpt lat="44.84114" lon="1.30237">
        <ele>87</ele>
        <time>2019-02-01T21:58:28.000Z</time>
      </trkpt>
      <trkpt lat="44.84144" lon="1.30272">
        <ele>87</ele>
        <time>2019-02-01T21:59:28.000Z</time>
      </trkpt>
      <trkpt lat="44.84166" lon="1.303">
        <ele>88</ele>
        <time>2019-02-01T22:00:28.000Z</time>
      </trkpt>
      <trkpt lat="44.84193" lon="1.30327">
        <ele>90</ele>
        <time>2019-02-01T22:01:28.000Z</time>
      </trkpt>
      <trkpt lat="44.84219" lon="1.30365">
        <ele>91</ele>
        <time>2019-02-01T22:02:28.000Z</time>
      </trkpt>
      <trkpt lat="44.84241" lon="1.30408">
        <ele>90</ele>
        <time>2019-02-01T22:03:28.000Z</time>
      </trkpt>
      <trkpt lat="44.84262" lon="1.30436">
        <ele>92</ele>
        <time>2019-02-01T22:04:28.000Z</time>
      </trkpt>
      <trkpt lat="44.84272" lon="1.30462">
        <ele>94</ele>
        <time>2019-02-01T22:05:28.000Z</time>
      </trkpt>
      <trkpt lat="44.84279" lon="1.30476">
        <ele>96</ele>
        <time>2019-02-01T22:06:28.000Z</time>
      </trkpt>
      <trkpt lat="44.84291" lon="1.30507">
        <ele>98</ele>
        <time>2019-02-01T22:07:28.000Z</time>
      </trkpt>
      <trkpt lat="44.84296" lon="1.30519">
        <ele>98</ele>
        <time>2019-02-01T22:08:28.000Z</time>
      </trkpt>
      <trkpt lat="44.84305" lon="1.30549">
        <ele>97</ele>
        <time>2019-02-01T22:09:28.000Z</time>
      </trkpt>
      <trkpt lat="44.84323" lon="1.30595">
        <ele>95</ele>
        <time>2019-02-01T22:10:28.000Z</time>
      </trkpt>
      <trkpt lat="44.84338" lon="1.3064">
        <ele>92</ele>
        <time>2019-02-01T22:11:28.000Z</time>
      </trkpt>
      <trkpt lat="44.8435" lon="1.30682">
        <ele>91</ele>
        <time>2019-02-01T22:12:28.000Z</time>
      </trkpt>
      <trkpt lat="44.84366" lon="1.30713">
        <ele>93</ele>
        <time>2019-02-01T22:13:28.000Z</time>
      </trkpt>
      <trkpt lat="44.84369" lon="1.3073">
        <ele>91</ele>
        <time>2019-02-01T22:14:28.000Z</time>
      </trkpt>
      <trkpt lat="44.84369" lon="1.30743">
        <ele>89</ele>
        <time>2019-02-01T22:15:28.000Z</time>
      </trkpt>
      <trkpt lat="44.84373" lon="1.30769">
        <ele>88</ele>
        <time>2019-02-01T22:16:28.000Z</time>
      </trkpt>
      <trkpt lat="44.84384" lon="1.30794">
        <ele>87</ele>
        <time>2019-02-01T22:17:28.000Z</time>
      </trkpt>
      <trkpt lat="44.84403" lon="1.30839">
        <ele>85</ele>
        <time>2019-02-01T22:18:28.000Z</time>
      </trkpt>
      <trkpt lat="44.84418" lon="1.30866">
        <ele>86</ele>
        <time>2019-02-01T22:19:28.000Z</time>
      </trkpt>
      <trkpt lat="44.84432" lon="1.30891">
        <ele>88</ele>
        <time>2019-02-01T22:20:28.000Z</time>
      </trkpt>
      <trkpt lat="44.84454" lon="1.30915">
        <ele>88</ele>
        <time>2019-02-01T22:21:28.000Z</time>
      </trkpt>
      <trkpt lat="44.84476" lon="1.30936">
        <ele>87</ele>
        <time>2019-02-01T22:22:28.000Z</time>
      </trkpt>
      <trkpt lat="44.84497" lon="1.30954">
        <ele>86</ele>
        <time>2019-02-01T22:23:28.000Z</time>
      </trkpt>
      <trkpt lat="44.84521" lon="1.30976">
        <ele>83</ele>
        <time>2019-02-01T22:24:28.000Z</time>
      </trkpt>
      <trkpt lat="44.84542" lon="1.30993">
        <ele>80</ele>
        <time>2019-02-01T22:25:28.000Z</time>
      </trkpt>
      <trkpt lat="44.84571" lon="1.31011">
        <ele>79</ele>
        <time>2019-02-01T22:26:28.000Z</time>
      </trkpt>
      <trkpt lat="44.84593" lon="1.31026">
        <ele>78</ele>
        <time>2019-02-01T22:27:28.000Z</time>
      </trkpt>
      <trkpt lat="44.8462" lon="1.31045">
        <ele>78</ele>
        <time>2019-02-01T22:28:28.000Z</time>
      </trkpt>
      <trkpt lat="44.84642" lon="1.31064">
        <ele>79</ele>
        <time>2019-02-01T22:29:28.000Z</time>
      </trkpt>
      <trkpt lat="44.84652" lon="1.31093">
        <ele>78</ele>
        <time>2019-02-01T22:30:28.000Z</time>
      </trkpt>
      <trkpt lat="44.8466" lon="1.31131">
        <ele>78</ele>
        <time>2019-02-01T22:31:28.000Z</time>
      </trkpt>
      <trkpt lat="44.84668" lon="1.3117">
        <ele>78</ele>
        <time>2019-02-01T22:32:28.000Z</time>
      </trkpt>
      <trkpt lat="44.84677" lon="1.312">
        <ele>78</ele>
        <time>2019-02-01T22:33:28.000Z</time>
      </trkpt>
      <trkpt lat="44.8469" lon="1.31229">
        <ele>79</ele>
        <time>2019-02-01T22:34:28.000Z</time>
      </trkpt>
      <trkpt lat="44.84704" lon="1.31252">
        <ele>79</ele>
        <time>2019-02-01T22:35:28.000Z</time>
      </trkpt>
      <trkpt lat="44.84723" lon="1.31279">
        <ele>79</ele>
        <time>2019-02-01T22:36:28.000Z</time>
      </trkpt>
      <trkpt lat="44.84744" lon="1.31306">
        <ele>80</ele>
        <time>2019-02-01T22:37:28.000Z</time>
      </trkpt>
      <trkpt lat="44.84758" lon="1.31328">
        <ele>80</ele>
        <time>2019-02-01T22:38:28.000Z</time>
      </trkpt>
      <trkpt lat="44.84778" lon="1.31323">
        <ele>81</ele>
        <time>2019-02-01T22:39:28.000Z</time>
      </trkpt>
      <trkpt lat="44.84795" lon="1.31305">
        <ele>82</ele>
        <time>2019-02-01T22:40:28.000Z</time>
      </trkpt>
      <trkpt lat="44.84812" lon="1.31267">
        <ele>83</ele>
        <time>2019-02-01T22:41:28.000Z</time>
      </trkpt>
      <trkpt lat="44.84809" lon="1.31236">
        <ele>84</ele>
        <time>2019-02-01T22:42:28.000Z</time>
      </trkpt>
      <trkpt lat="44.84798" lon="1.31203">
        <ele>85</ele>
        <time>2019-02-01T22:43:28.000Z</time>
      </trkpt>
      <trkpt lat="44.84786" lon="1.31177">
        <ele>84</ele>
        <time>2019-02-01T22:44:28.000Z</time>
      </trkpt>
      <trkpt lat="44.84779" lon="1.31152">
        <ele>83</ele>
        <time>2019-02-01T22:45:28.000Z</time>
      </trkpt>
      <trkpt lat="44.84788" lon="1.31145">
        <ele>84</ele>
        <time>2019-02-01T22:46:28.000Z</time>
      </trkpt>
      <trkpt lat="44.84805" lon="1.31155">
        <ele>86</ele>
        <time>2019-02-01T22:47:28.000Z</time>
      </trkpt>
      <trkpt lat="44.84816" lon="1.31163">
        <ele>88</ele>
        <time>2019-02-01T22:48:28.000Z</time>
      </trkpt>
      <trkpt lat="44.84827" lon="1.31163">
        <ele>89</ele>
        <time>2019-02-01T22:49:28.000Z</time>
      </trkpt>
      <trkpt lat="44.84845" lon="1.31181">
        <ele>94</ele>
        <time>2019-02-01T22:50:28.000Z</time>
      </trkpt>
      <trkpt lat="44.84852" lon="1.31207">
        <ele>95</ele>
        <time>2019-02-01T22:51:28.000Z</time>
      </trkpt>
      <trkpt lat="44.84868" lon="1.31241">
        <ele>99</ele>
        <time>2019-02-01T22:52:28.000Z</time>
      </trkpt>
      <trkpt lat="44.84882" lon="1.31269">
        <ele>101</ele>
        <time>2019-02-01T22:53:28.000Z</time>
      </trkpt>
      <trkpt lat="44.84914" lon="1.31341">
        <ele>99</ele>
        <time>2019-02-01T22:54:28.000Z</time>
      </trkpt>
      <trkpt lat="44.84924" lon="1.31384">
        <ele>97</ele>
        <time>2019-02-01T22:55:28.000Z</time>
      </trkpt>
      <trkpt lat="44.84932" lon="1.31421">
        <ele>96</ele>
        <time>2019-02-01T22:56:28.000Z</time>
      </trkpt>
      <trkpt lat="44.84943" lon="1.31465">
        <ele>96</ele>
        <time>2019-02-01T22:57:28.000Z</time>
      </trkpt>
      <trkpt lat="44.84958" lon="1.31491">
        <ele>101</ele>
        <time>2019-02-01T22:58:28.000Z</time>
      </trkpt>
      <trkpt lat="44.84968" lon="1.31534">
        <ele>98</ele>
        <time>2019-02-01T22:59:28.000Z</time>
      </trkpt>
      <trkpt lat="44.84987" lon="1.31567">
        <ele>98</ele>
        <time>2019-02-01T23:00:28.000Z</time>
      </trkpt>
      <trkpt lat="44.85028" lon="1.31632">
        <ele>97</ele>
        <time>2019-02-01T23:01:28.000Z</time>
      </trkpt>
      <trkpt lat="44.85049" lon="1.31663">
        <ele>95</ele>
        <time>2019-02-01T23:02:28.000Z</time>
      </trkpt>
      <trkpt lat="44.85061" lon="1.31693">
        <ele>93</ele>
        <time>2019-02-01T23:03:28.000Z</time>
      </trkpt>
      <trkpt lat="44.8507" lon="1.31728">
        <ele>90</ele>
        <time>2019-02-01T23:04:28.000Z</time>
      </trkpt>
      <trkpt lat="44.85082" lon="1.31767">
        <ele>87</ele>
        <time>2019-02-01T23:05:28.000Z</time>
      </trkpt>
      <trkpt lat="44.85093" lon="1.31802">
        <ele>88</ele>
        <time>2019-02-01T23:06:28.000Z</time>
      </trkpt>
      <trkpt lat="44.8511" lon="1.31834">
        <ele>89</ele>
        <time>2019-02-01T23:07:28.000Z</time>
      </trkpt>
      <trkpt lat="44.85136" lon="1.31872">
        <ele>91</ele>
        <time>2019-02-01T23:08:28.000Z</time>
      </trkpt>
      <trkpt lat="44.85158" lon="1.31905">
        <ele>90</ele>
        <time>2019-02-01T23:09:28.000Z</time>
      </trkpt>
      <trkpt lat="44.85177" lon="1.31938">
        <ele>90</ele>
        <time>2019-02-01T23:10:28.000Z</time>
      </trkpt>
      <trkpt lat="44.85195" lon="1.31977">
        <ele>89</ele>
        <time>2019-02-01T23:11:28.000Z</time>
      </trkpt>
      <trkpt lat="44.85209" lon="1.32009">
        <ele>87</ele>
        <time>2019-02-01T23:12:28.000Z</time>
      </trkpt>
      <trkpt lat="44.85221" lon="1.32046">
        <ele>88</ele>
        <time>2019-02-01T23:13:28.000Z</time>
      </trkpt>
      <trkpt lat="44.85227" lon="1.32076">
        <ele>88</ele>
        <time>2019-02-01T23:14:28.000Z</time>
      </trkpt>
      <trkpt lat="44.85237" lon="1.3211">
        <ele>89</ele>
        <time>2019-02-01T23:15:28.000Z</time>
      </trkpt>
      <trkpt lat="44.85244" lon="1.32152">
        <ele>89</ele>
        <time>2019-02-01T23:16:28.000Z</time>
      </trkpt>
      <trkpt lat="44.85249" lon="1.32191">
        <ele>89</ele>
        <time>2019-02-01T23:17:28.000Z</time>
      </trkpt>
      <trkpt lat="44.8525" lon="1.32232">
        <ele>88</ele>
        <time>2019-02-01T23:18:28.000Z</time>
      </trkpt>
      <trkpt lat="44.85249" lon="1.32262">
        <ele>88</ele>
        <time>2019-02-01T23:19:28.000Z</time>
      </trkpt>
      <trkpt lat="44.85254" lon="1.32306">
        <ele>88</ele>
        <time>2019-02-01T23:20:28.000Z</time>
      </trkpt>
      <trkpt lat="44.85261" lon="1.32348">
        <ele>89</ele>
        <time>2019-02-01T23:21:28.000Z</time>
      </trkpt>
      <trkpt lat="44.85264" lon="1.32386">
        <ele>89</ele>
        <time>2019-02-01T23:22:28.000Z</time>
      </trkpt>
      <trkpt lat="44.85253" lon="1.3242">
        <ele>87</ele>
        <time>2019-02-01T23:23:28.000Z</time>
      </trkpt>
      <trkpt lat="44.85237" lon="1.32453">
        <ele>87</ele>
        <time>2019-02-01T23:24:28.000Z</time>
      </trkpt>
      <trkpt lat="44.8522" lon="1.32489">
        <ele>87</ele>
        <time>2019-02-01T23:25:28.000Z</time>
      </trkpt>
      <trkpt lat="44.85213" lon="1.32521">
        <ele>87</ele>
        <time>2019-02-01T23:26:28.000Z</time>
      </trkpt>
      <trkpt lat="44.8522" lon="1.32511">
        <ele>88</ele>
        <time>2019-02-01T23:27:28.000Z</time>
      </trkpt>
      <trkpt lat="44.85226" lon="1.32489">
        <ele>88</ele>
        <time>2019-02-01T23:28:28.000Z</time>
      </trkpt>
      <trkpt lat="44.85239" lon="1.32462">
        <ele>88</ele>
        <time>2019-02-01T23:29:28.000Z</time>
      </trkpt>
      <trkpt lat="44.85256" lon="1.32432">
        <ele>88</ele>
        <time>2019-02-01T23:30:28.000Z</time>
      </trkpt>
      <trkpt lat="44.85266" lon="1.32427">
        <ele>89</ele>
        <time>2019-02-01T23:31:28.000Z</time>
      </trkpt>
      <trkpt lat="44.85276" lon="1.32426">
        <ele>89</ele>
        <time>2019-02-01T23:32:28.000Z</time>
      </trkpt>
      <trkpt lat="44.85266" lon="1.32426">
        <ele>89</ele>
        <time>2019-02-01T23:33:28.000Z</time>
      </trkpt>
      <trkpt lat="44.85257" lon="1.32433">
        <ele>88</ele>
        <time>2019-02-01T23:34:28.000Z</time>
      </trkpt>
      <trkpt lat="44.8525" lon="1.32445">
        <ele>88</ele>
        <time>2019-02-01T23:35:28.000Z</time>
      </trkpt>
      <trkpt lat="44.8525" lon="1.32477">
        <ele>89</ele>
        <time>2019-02-01T23:36:28.000Z</time>
      </trkpt>
      <trkpt lat="44.85251" lon="1.32511">
        <ele>90</ele>
        <time>2019-02-01T23:37:28.000Z</time>
      </trkpt>
      <trkpt lat="44.85252" lon="1.32548">
        <ele>91</ele>
        <time>2019-02-01T23:38:28.000Z</time>
      </trkpt>
      <trkpt lat="44.85251" lon="1.32577">
        <ele>91</ele>
        <time>2019-02-01T23:39:28.000Z</time>
      </trkpt>
      <trkpt lat="44.85251" lon="1.32604">
        <ele>91</ele>
        <time>2019-02-01T23:40:28.000Z</time>
      </trkpt>
      <trkpt lat="44.85258" lon="1.32713">
        <ele>92</ele>
        <time>2019-02-01T23:41:28.000Z</time>
      </trkpt>
      <trkpt lat="44.8526" lon="1.32751">
        <ele>92</ele>
        <time>2019-02-01T23:42:28.000Z</time>
      </trkpt>
      <trkpt lat="44.8526" lon="1.32784">
        <ele>93</ele>
        <time>2019-02-01T23:43:28.000Z</time>
      </trkpt>
      <trkpt lat="44.85262" lon="1.3282">
        <ele>94</ele>
        <time>2019-02-01T23:44:28.000Z</time>
      </trkpt>
      <trkpt lat="44.8526" lon="1.32851">
        <ele>93</ele>
        <time>2019-02-01T23:45:28.000Z</time>
      </trkpt>
      <trkpt lat="44.85263" lon="1.32885">
        <ele>93</ele>
        <time>2019-02-01T23:46:28.000Z</time>
      </trkpt>
      <trkpt lat="44.85266" lon="1.32927">
        <ele>92</ele>
        <time>2019-02-01T23:47:28.000Z</time>
      </trkpt>
      <trkpt lat="44.8527" lon="1.32964">
        <ele>93</ele>
        <time>2019-02-01T23:48:28.000Z</time>
      </trkpt>
      <trkpt lat="44.85269" lon="1.33003">
        <ele>94</ele>
        <time>2019-02-01T23:49:28.000Z</time>
      </trkpt>
      <trkpt lat="44.85273" lon="1.33047">
        <ele>94</ele>
        <time>2019-02-01T23:50:28.000Z</time>
      </trkpt>
      <trkpt lat="44.85273" lon="1.33084">
        <ele>94</ele>
        <time>2019-02-01T23:51:28.000Z</time>
      </trkpt>
      <trkpt lat="44.85274" lon="1.33119">
        <ele>94</ele>
        <time>2019-02-01T23:52:28.000Z</time>
      </trkpt>
      <trkpt lat="44.85277" lon="1.33158">
        <ele>94</ele>
        <time>2019-02-01T23:53:28.000Z</time>
      </trkpt>
      <trkpt lat="44.85281" lon="1.33189">
        <ele>94</ele>
        <time>2019-02-01T23:54:28.000Z</time>
      </trkpt>
      <trkpt lat="44.85281" lon="1.33236">
        <ele>93</ele>
        <time>2019-02-01T23:55:28.000Z</time>
      </trkpt>
      <trkpt lat="44.85283" lon="1.33268">
        <ele>93</ele>
        <time>2019-02-01T23:56:28.000Z</time>
      </trkpt>
      <trkpt lat="44.85282" lon="1.33292">
        <ele>92</ele>
        <time>2019-02-01T23:57:28.000Z</time>
      </trkpt>
      <trkpt lat="44.85278" lon="1.33277">
        <ele>92</ele>
        <time>2019-02-01T23:58:28.000Z</time>
      </trkpt>
      <trkpt lat="44.85278" lon="1.33258">
        <ele>93</ele>
        <time>2019-02-01T23:59:28.000Z</time>
      </trkpt>
      <trkpt lat="44.85277" lon="1.33222">
        <ele>93</ele>
        <time>2019-02-02T00:00:28.000Z</time>
      </trkpt>
      <trkpt lat="44.85277" lon="1.33184">
        <ele>93</ele>
        <time>2019-02-02T00:01:28.000Z</time>
      </trkpt>
      <trkpt lat="44.85277" lon="1.33155">
        <ele>94</ele>
        <time>2019-02-02T00:02:28.000Z</time>
      </trkpt>
      <trkpt lat="44.85274" lon="1.33123">
        <ele>94</ele>
        <time>2019-02-02T00:03:28.000Z</time>
      </trkpt>
      <trkpt lat="44.8527" lon="1.33094">
        <ele>94</ele>
        <time>2019-02-02T00:04:28.000Z</time>
      </trkpt>
      <trkpt lat="44.85273" lon="1.33038">
        <ele>94</ele>
        <time>2019-02-02T00:05:28.000Z</time>
      </trkpt>
      <trkpt lat="44.85271" lon="1.32995">
        <ele>94</ele>
        <time>2019-02-02T00:06:28.000Z</time>
      </trkpt>
      <trkpt lat="44.85269" lon="1.32952">
        <ele>93</ele>
        <time>2019-02-02T00:07:28.000Z</time>
      </trkpt>
      <trkpt lat="44.85271" lon="1.32908">
        <ele>92</ele>
        <time>2019-02-02T00:08:28.000Z</time>
      </trkpt>
      <trkpt lat="44.85269" lon="1.3287">
        <ele>93</ele>
        <time>2019-02-02T00:09:28.000Z</time>
      </trkpt>
      <trkpt lat="44.85267" lon="1.32839">
        <ele>94</ele>
        <time>2019-02-02T00:10:28.000Z</time>
      </trkpt>
      <trkpt lat="44.85262" lon="1.32768">
        <ele>93</ele>
        <time>2019-02-02T00:11:28.000Z</time>
      </trkpt>
      <trkpt lat="44.85261" lon="1.32719">
        <ele>92</ele>
        <time>2019-02-02T00:12:28.000Z</time>
      </trkpt>
      <trkpt lat="44.85259" lon="1.32679">
        <ele>92</ele>
        <time>2019-02-02T00:13:28.000Z</time>
      </trkpt>
      <trkpt lat="44.85259" lon="1.32637">
        <ele>92</ele>
        <time>2019-02-02T00:14:28.000Z</time>
      </trkpt>
      <trkpt lat="44.85257" lon="1.32605">
        <ele>92</ele>
        <time>2019-02-02T00:15:28.000Z</time>
      </trkpt>
      <trkpt lat="44.85253" lon="1.32563">
        <ele>91</ele>
        <time>2019-02-02T00:16:28.000Z</time>
      </trkpt>
      <trkpt lat="44.85248" lon="1.32529">
        <ele>90</ele>
        <time>2019-02-02T00:17:28.000Z</time>
      </trkpt>
      <trkpt lat="44.85245" lon="1.32496">
        <ele>89</ele>
        <time>2019-02-02T00:18:28.000Z</time>
      </trkpt>
      <trkpt lat="44.85245" lon="1.32461">
        <ele>88</ele>
        <time>2019-02-02T00:19:28.000Z</time>
      </trkpt>
      <trkpt lat="44.85247" lon="1.32444">
        <ele>88</ele>
        <time>2019-02-02T00:20:28.000Z</time>
      </trkpt>
      <trkpt lat="44.85254" lon="1.32435">
        <ele>88</ele>
        <time>2019-02-02T00:21:28.000Z</time>
      </trkpt>
      <trkpt lat="44.85245" lon="1.32441">
        <ele>88</ele>
        <time>2019-02-02T00:22:28.000Z</time>
      </trkpt>
      <trkpt lat="44.85229" lon="1.32466">
        <ele>87</ele>
        <time>2019-02-02T00:23:28.000Z</time>
      </trkpt>
      <trkpt lat="44.85218" lon="1.32489">
        <ele>87</ele>
        <time>2019-02-02T00:24:28.000Z</time>
      </trkpt>
      <trkpt lat="44.85211" lon="1.32523">
        <ele>87</ele>
        <time>2019-02-02T00:25:28.000Z</time>
      </trkpt>
      <trkpt lat="44.85208" lon="1.32557">
        <ele>87</ele>
        <time>2019-02-02T00:26:28.000Z</time>
      </trkpt>
      <trkpt lat="44.85204" lon="1.32587">
        <ele>87</ele>
        <time>2019-02-02T00:27:28.000Z</time>
      </trkpt>
      <trkpt lat="44.85191" lon="1.32601">
        <ele>85</ele>
        <time>2019-02-02T00:28:28.000Z</time>
      </trkpt>
      <trkpt lat="44.85187" lon="1.32633">
        <ele>85</ele>
        <time>2019-02-02T00:29:28.000Z</time>
      </trkpt>
      <trkpt lat="44.85192" lon="1.32678">
        <ele>86</ele>
        <time>2019-02-02T00:30:28.000Z</time>
      </trkpt>
      <trkpt lat="44.8519" lon="1.32716">
        <ele>86</ele>
        <time>2019-02-02T00:31:28.000Z</time>
      </trkpt>
      <trkpt lat="44.85184" lon="1.32759">
        <ele>85</ele>
        <time>2019-02-02T00:32:28.000Z</time>
      </trkpt>
      <trkpt lat="44.85177" lon="1.32799">
        <ele>84</ele>
        <time>2019-02-02T00:33:28.000Z</time>
      </trkpt>
      <trkpt lat="44.8517" lon="1.32835">
        <ele>83</ele>
        <time>2019-02-02T00:34:28.000Z</time>
      </trkpt>
      <trkpt lat="44.85162" lon="1.32888">
        <ele>83</ele>
        <time>2019-02-02T00:35:28.000Z</time>
      </trkpt>
      <trkpt lat="44.85154" lon="1.32936">
        <ele>84</ele>
        <time>2019-02-02T00:36:28.000Z</time>
      </trkpt>
      <trkpt lat="44.85144" lon="1.32987">
        <ele>84</ele>
        <time>2019-02-02T00:37:28.000Z</time>
      </trkpt>
      <trkpt lat="44.85141" lon="1.3305">
        <ele>84</ele>
        <time>2019-02-02T00:38:28.000Z</time>
      </trkpt>
      <trkpt lat="44.85146" lon="1.3311">
        <ele>85</ele>
        <time>2019-02-02T00:39:28.000Z</time>
      </trkpt>
      <trkpt lat="44.85157" lon="1.33163">
        <ele>85</ele>
        <time>2019-02-02T00:40:28.000Z</time>
      </trkpt>
      <trkpt lat="44.8519" lon="1.33279">
        <ele>86</ele>
        <time>2019-02-02T00:41:28.000Z</time>
      </trkpt>
      <trkpt lat="44.85209" lon="1.33337">
        <ele>87</ele>
        <time>2019-02-02T00:42:28.000Z</time>
      </trkpt>
      <trkpt lat="44.85232" lon="1.33392">
        <ele>86</ele>
        <time>2019-02-02T00:43:28.000Z</time>
      </trkpt>
      <trkpt lat="44.8526" lon="1.33442">
        <ele>87</ele>
        <time>2019-02-02T00:44:28.000Z</time>
      </trkpt>
      <trkpt lat="44.85282" lon="1.33477">
        <ele>87</ele>
        <time>2019-02-02T00:45:28.000Z</time>
      </trkpt>
      <trkpt lat="44.85298" lon="1.33507">
        <ele>88</ele>
        <time>2019-02-02T00:46:28.000Z</time>
      </trkpt>
      <trkpt lat="44.85311" lon="1.33525">
        <ele>88</ele>
        <time>2019-02-02T00:47:28.000Z</time>
      </trkpt>
      <trkpt lat="44.8532" lon="1.33545">
        <ele>87</ele>
        <time>2019-02-02T00:48:28.000Z</time>
      </trkpt>
      <trkpt lat="44.85329" lon="1.3358">
        <ele>86</ele>
        <time>2019-02-02T00:49:28.000Z</time>
      </trkpt>
      <trkpt lat="44.85344" lon="1.33609">
        <ele>86</ele>
        <time>2019-02-02T00:50:28.000Z</time>
      </trkpt>
      <trkpt lat="44.8536" lon="1.33643">
        <ele>87</ele>
        <time>2019-02-02T00:51:28.000Z</time>
      </trkpt>
      <trkpt lat="44.85374" lon="1.33676">
        <ele>88</ele>
        <time>2019-02-02T00:52:28.000Z</time>
      </trkpt>
      <trkpt lat="44.85392" lon="1.33709">
        <ele>89</ele>
        <time>2019-02-02T00:53:28.000Z</time>
      </trkpt>
      <trkpt lat="44.85412" lon="1.33742">
        <ele>91</ele>
        <time>2019-02-02T00:54:28.000Z</time>
      </trkpt>
      <trkpt lat="44.85427" lon="1.33774">
        <ele>90</ele>
        <time>2019-02-02T00:55:28.000Z</time>
      </trkpt>
      <trkpt lat="44.85446" lon="1.33806">
        <ele>90</ele>
        <time>2019-02-02T00:56:28.000Z</time>
      </trkpt>
      <trkpt lat="44.85463" lon="1.33836">
        <ele>89</ele>
        <time>2019-02-02T00:57:28.000Z</time>
      </trkpt>
      <trkpt lat="44.8548" lon="1.33865">
        <ele>88</ele>
        <time>2019-02-02T00:58:28.000Z</time>
      </trkpt>
      <trkpt lat="44.85495" lon="1.33902">
        <ele>86</ele>
        <time>2019-02-02T00:59:28.000Z</time>
      </trkpt>
      <trkpt lat="44.85516" lon="1.33943">
        <ele>86</ele>
        <time>2019-02-02T01:00:28.000Z</time>
      </trkpt>
      <trkpt lat="44.85534" lon="1.33975">
        <ele>87</ele>
        <time>2019-02-02T01:01:28.000Z</time>
      </trkpt>
      <trkpt lat="44.85551" lon="1.34008">
        <ele>88</ele>
        <time>2019-02-02T01:02:28.000Z</time>
      </trkpt>
      <trkpt lat="44.85571" lon="1.34043">
        <ele>89</ele>
        <time>2019-02-02T01:03:28.000Z</time>
      </trkpt>
      <trkpt lat="44.85603" lon="1.34102">
        <ele>89</ele>
        <time>2019-02-02T01:04:28.000Z</time>
      </trkpt>
      <trkpt lat="44.8562" lon="1.34134">
        <ele>89</ele>
        <time>2019-02-02T01:05:28.000Z</time>
      </trkpt>
      <trkpt lat="44.85634" lon="1.34165">
        <ele>90</ele>
        <time>2019-02-02T01:06:28.000Z</time>
      </trkpt>
      <trkpt lat="44.85649" lon="1.34196">
        <ele>90</ele>
        <time>2019-02-02T01:07:28.000Z</time>
      </trkpt>
      <trkpt lat="44.85662" lon="1.34223">
        <ele>90</ele>
        <time>2019-02-02T01:08:28.000Z</time>
      </trkpt>
      <trkpt lat="44.85676" lon="1.34258">
        <ele>90</ele>
        <time>2019-02-02T01:09:28.000Z</time>
      </trkpt>
      <trkpt lat="44.85685" lon="1.34292">
        <ele>90</ele>
        <time>2019-02-02T01:10:28.000Z</time>
      </trkpt>
      <trkpt lat="44.85696" lon="1.34326">
        <ele>91</ele>
        <time>2019-02-02T01:11:28.000Z</time>
      </trkpt>
      <trkpt lat="44.85703" lon="1.34355">
        <ele>90</ele>
        <time>2019-02-02T01:12:28.000Z</time>
      </trkpt>
      <trkpt lat="44.85718" lon="1.34396">
        <ele>89</ele>
        <time>2019-02-02T01:13:28.000Z</time>
      </trkpt>
      <trkpt lat="44.85732" lon="1.34447">
        <ele>88</ele>
        <time>2019-02-02T01:14:28.000Z</time>
      </trkpt>
      <trkpt lat="44.85744" lon="1.34478">
        <ele>88</ele>
        <time>2019-02-02T01:15:28.000Z</time>
      </trkpt>
      <trkpt lat="44.85759" lon="1.34521">
        <ele>87</ele>
        <time>2019-02-02T01:16:28.000Z</time>
      </trkpt>
      <trkpt lat="44.85779" lon="1.34557">
        <ele>87</ele>
        <time>2019-02-02T01:17:28.000Z</time>
      </trkpt>
      <trkpt lat="44.85796" lon="1.34585">
        <ele>87</ele>
        <time>2019-02-02T01:18:28.000Z</time>
      </trkpt>
      <trkpt lat="44.85817" lon="1.34618">
        <ele>90</ele>
        <time>2019-02-02T01:19:28.000Z</time>
      </trkpt>
      <trkpt lat="44.85839" lon="1.34643">
        <ele>93</ele>
        <time>2019-02-02T01:20:28.000Z</time>
      </trkpt>
      <trkpt lat="44.85858" lon="1.34655">
        <ele>97</ele>
        <time>2019-02-02T01:21:28.000Z</time>
      </trkpt>
      <trkpt lat="44.86221" lon="1.3503">
        <ele>105</ele>
        <time>2019-02-02T01:22:28.000Z</time>
      </trkpt>
      <trkpt lat="44.86238" lon="1.3506">
        <ele>100</ele>
        <time>2019-02-02T01:23:28.000Z</time>
      </trkpt>
      <trkpt lat="44.86263" lon="1.35087">
        <ele>99</ele>
        <time>2019-02-02T01:24:28.000Z</time>
      </trkpt>
      <trkpt lat="44.86283" lon="1.35122">
        <ele>103</ele>
        <time>2019-02-02T01:25:28.000Z</time>
      </trkpt>
      <trkpt lat="44.863" lon="1.35156">
        <ele>103</ele>
        <time>2019-02-02T01:26:28.000Z</time>
      </trkpt>
      <trkpt lat="44.86317" lon="1.35187">
        <ele>103</ele>
        <time>2019-02-02T01:27:28.000Z</time>
      </trkpt>
      <trkpt lat="44.86351" lon="1.35258">
        <ele>102</ele>
        <time>2019-02-02T01:28:28.000Z</time>
      </trkpt>
      <trkpt lat="44.86368" lon="1.35291">
        <ele>103</ele>
        <time>2019-02-02T01:29:28.000Z</time>
      </trkpt>
      <trkpt lat="44.8638" lon="1.35316">
        <ele>102</ele>
        <time>2019-02-02T01:30:28.000Z</time>
      </trkpt>
      <trkpt lat="44.86415" lon="1.35386">
        <ele>98</ele>
        <time>2019-02-02T01:31:28.000Z</time>
      </trkpt>
      <trkpt lat="44.86437" lon="1.35419">
        <ele>99</ele>
        <time>2019-02-02T01:32:28.000Z</time>
      </trkpt>
      <trkpt lat="44.86451" lon="1.35447">
        <ele>99</ele>
        <time>2019-02-02T01:33:28.000Z</time>
      </trkpt>
      <trkpt lat="44.86476" lon="1.35475">
        <ele>99</ele>
        <time>2019-02-02T01:34:28.000Z</time>
      </trkpt>
      <trkpt lat="44.86499" lon="1.35498">
        <ele>96</ele>
        <time>2019-02-02T01:35:28.000Z</time>
      </trkpt>
      <trkpt lat="44.86524" lon="1.35521">
        <ele>98</ele>
        <time>2019-02-02T01:36:28.000Z</time>
      </trkpt>
      <trkpt lat="44.86541" lon="1.35536">
        <ele>99</ele>
        <time>2019-02-02T01:37:28.000Z</time>
      </trkpt>
      <trkpt lat="44.86558" lon="1.35556">
        <ele>97</ele>
        <time>2019-02-02T01:38:28.000Z</time>
      </trkpt>
      <trkpt lat="44.86578" lon="1.35573">
        <ele>95</ele>
        <time>2019-02-02T01:39:28.000Z</time>
      </trkpt>
      <trkpt lat="44.86603" lon="1.35595">
        <ele>94</ele>
        <time>2019-02-02T01:40:28.000Z</time>
      </trkpt>
      <trkpt lat="44.86631" lon="1.35619">
        <ele>94</ele>
        <time>2019-02-02T01:41:28.000Z</time>
      </trkpt>
      <trkpt lat="44.8665" lon="1.3564">
        <ele>92</ele>
        <time>2019-02-02T01:42:28.000Z</time>
      </trkpt>
      <trkpt lat="44.86665" lon="1.3566">
        <ele>88</ele>
        <time>2019-02-02T01:43:28.000Z</time>
      </trkpt>
      <trkpt lat="44.86665" lon="1.35674">
        <ele>86</ele>
        <time>2019-02-02T01:44:28.000Z</time>
      </trkpt>
      <trkpt lat="44.86671" lon="1.35685">
        <ele>86</ele>
        <time>2019-02-02T01:45:28.000Z</time>
      </trkpt>
      <trkpt lat="44.86679" lon="1.35691">
        <ele>86</ele>
        <time>2019-02-02T01:46:28.000Z</time>
      </trkpt>
      <trkpt lat="44.86685" lon="1.35709">
        <ele>87</ele>
        <time>2019-02-02T01:47:28.000Z</time>
      </trkpt>
      <trkpt lat="44.86692" lon="1.35724">
        <ele>87</ele>
        <time>2019-02-02T01:48:28.000Z</time>
      </trkpt>
      <trkpt lat="44.86666" lon="1.35731">
        <ele>84</ele>
        <time>2019-02-02T01:49:28.000Z</time>
      </trkpt>
      <trkpt lat="44.86686" lon="1.35731">
        <ele>86</ele>
        <time>2019-02-02T01:50:28.000Z</time>
      </trkpt>
      <trkpt lat="44.86696" lon="1.35731">
        <ele>87</ele>
        <time>2019-02-02T01:51:28.000Z</time>
      </trkpt>
      <trkpt lat="44.86723" lon="1.35784">
        <ele>92</ele>
        <time>2019-02-02T01:52:28.000Z</time>
      </trkpt>
      <trkpt lat="44.86759" lon="1.35861">
        <ele>98</ele>
        <time>2019-02-02T01:53:28.000Z</time>
      </trkpt>
      <trkpt lat="44.86791" lon="1.35948">
        <ele>103</ele>
        <time>2019-02-02T01:54:28.000Z</time>
      </trkpt>
      <trkpt lat="44.86819" lon="1.36031">
        <ele>98</ele>
        <time>2019-02-02T01:55:28.000Z</time>
      </trkpt>
      <trkpt lat="44.86867" lon="1.36126">
        <ele>94</ele>
        <time>2019-02-02T01:56:28.000Z</time>
      </trkpt>
      <trkpt lat="44.86913" lon="1.36208">
        <ele>92</ele>
        <time>2019-02-02T01:57:28.000Z</time>
      </trkpt>
      <trkpt lat="44.86969" lon="1.36272">
        <ele>89</ele>
        <time>2019-02-02T01:58:28.000Z</time>
      </trkpt>
      <trkpt lat="44.87018" lon="1.36363">
        <ele>89</ele>
        <time>2019-02-02T01:59:28.000Z</time>
      </trkpt>
      <trkpt lat="44.87083" lon="1.36429">
        <ele>87</ele>
        <time>2019-02-02T02:00:28.000Z</time>
      </trkpt>
      <trkpt lat="44.87123" lon="1.36505">
        <ele>87</ele>
        <time>2019-02-02T02:01:28.000Z</time>
      </trkpt>
      <trkpt lat="44.87187" lon="1.3659">
        <ele>86</ele>
        <time>2019-02-02T02:02:28.000Z</time>
      </trkpt>
      <trkpt lat="44.87245" lon="1.36701">
        <ele>85</ele>
        <time>2019-02-02T02:03:28.000Z</time>
      </trkpt>
      <trkpt lat="44.87311" lon="1.36774">
        <ele>85</ele>
        <time>2019-02-02T02:04:28.000Z</time>
      </trkpt>
      <trkpt lat="44.87371" lon="1.36865">
        <ele>85</ele>
        <time>2019-02-02T02:05:28.000Z</time>
      </trkpt>
      <trkpt lat="44.87447" lon="1.36956">
        <ele>86</ele>
        <time>2019-02-02T02:06:28.000Z</time>
      </trkpt>
      <trkpt lat="44.87502" lon="1.37023">
        <ele>85</ele>
        <time>2019-02-02T02:07:28.000Z</time>
      </trkpt>
      <trkpt lat="44.87557" lon="1.3711">
        <ele>84</ele>
        <time>2019-02-02T02:08:28.000Z</time>
      </trkpt>
      <trkpt lat="44.87615" lon="1.37187">
        <ele>83</ele>
        <time>2019-02-02T02:09:28.000Z</time>
      </trkpt>
      <trkpt lat="44.87662" lon="1.37262">
        <ele>83</ele>
        <time>2019-02-02T02:10:28.000Z</time>
      </trkpt>
      <trkpt lat="44.87716" lon="1.37331">
        <ele>82</ele>
        <time>2019-02-02T02:11:28.000Z</time>
      </trkpt>
      <trkpt lat="44.8778" lon="1.37436">
        <ele>83</ele>
        <time>2019-02-02T02:12:28.000Z</time>
      </trkpt>
      <trkpt lat="44.87852" lon="1.3753">
        <ele>84</ele>
        <time>2019-02-02T02:13:28.000Z</time>
      </trkpt>
      <trkpt lat="44.87896" lon="1.37583">
        <ele>86</ele>
        <time>2019-02-02T02:14:28.000Z</time>
      </trkpt>
      <trkpt lat="44.8795" lon="1.37666">
        <ele>90</ele>
        <time>2019-02-02T02:15:28.000Z</time>
      </trkpt>
      <trkpt lat="44.88002" lon="1.37738">
        <ele>95</ele>
        <time>2019-02-02T02:16:28.000Z</time>
      </trkpt>
      <trkpt lat="44.88051" lon="1.37828">
        <ele>94</ele>
        <time>2019-02-02T02:17:28.000Z</time>
      </trkpt>
      <trkpt lat="44.88124" lon="1.37893">
        <ele>94</ele>
        <time>2019-02-02T02:18:28.000Z</time>
      </trkpt>
      <trkpt lat="44.88186" lon="1.37971">
        <ele>87</ele>
        <time>2019-02-02T02:19:28.000Z</time>
      </trkpt>
      <trkpt lat="44.88249" lon="1.38021">
        <ele>85</ele>
        <time>2019-02-02T02:20:28.000Z</time>
      </trkpt>
      <trkpt lat="44.88298" lon="1.38072">
        <ele>86</ele>
        <time>2019-02-02T02:21:28.000Z</time>
      </trkpt>
      <trkpt lat="44.88365" lon="1.38125">
        <ele>87</ele>
        <time>2019-02-02T02:22:28.000Z</time>
      </trkpt>
      <trkpt lat="44.88443" lon="1.38193">
        <ele>84</ele>
        <time>2019-02-02T02:23:28.000Z</time>
      </trkpt>
      <trkpt lat="44.88501" lon="1.38246">
        <ele>83</ele>
        <time>2019-02-02T02:24:28.000Z</time>
      </trkpt>
      <trkpt lat="44.88563" lon="1.38288">
        <ele>85</ele>
        <time>2019-02-02T02:25:28.000Z</time>
      </trkpt>
      <trkpt lat="44.88627" lon="1.38362">
        <ele>86</ele>
        <time>2019-02-02T02:26:28.000Z</time>
      </trkpt>
      <trkpt lat="44.88683" lon="1.38424">
        <ele>88</ele>
        <time>2019-02-02T02:27:28.000Z</time>
      </trkpt>
      <trkpt lat="44.88714" lon="1.38505">
        <ele>89</ele>
        <time>2019-02-02T02:28:28.000Z</time>
      </trkpt>
      <trkpt lat="44.88744" lon="1.38588">
        <ele>89</ele>
        <time>2019-02-02T02:29:28.000Z</time>
      </trkpt>
      <trkpt lat="44.88762" lon="1.38671">
        <ele>92</ele>
        <time>2019-02-02T02:30:28.000Z</time>
      </trkpt>
      <trkpt lat="44.88774" lon="1.38771">
        <ele>91</ele>
        <time>2019-02-02T02:31:28.000Z</time>
      </trkpt>
      <trkpt lat="44.8878" lon="1.38885">
        <ele>91</ele>
        <time>2019-02-02T02:32:28.000Z</time>
      </trkpt>
      <trkpt lat="44.88789" lon="1.38985">
        <ele>90</ele>
        <time>2019-02-02T02:33:28.000Z</time>
      </trkpt>
      <trkpt lat="44.88803" lon="1.39112">
        <ele>90</ele>
        <time>2019-02-02T02:34:28.000Z</time>
      </trkpt>
      <trkpt lat="44.88809" lon="1.39231">
        <ele>87</ele>
        <time>2019-02-02T02:35:28.000Z</time>
      </trkpt>
      <trkpt lat="44.8882" lon="1.39308">
        <ele>87</ele>
        <time>2019-02-02T02:36:28.000Z</time>
      </trkpt>
      <trkpt lat="44.88833" lon="1.39438">
        <ele>86</ele>
        <time>2019-02-02T02:37:28.000Z</time>
      </trkpt>
      <trkpt lat="44.88832" lon="1.39548">
        <ele>86</ele>
        <time>2019-02-02T02:38:28.000Z</time>
      </trkpt>
      <trkpt lat="44.88843" lon="1.39661">
        <ele>85</ele>
        <time>2019-02-02T02:39:28.000Z</time>
      </trkpt>
      <trkpt lat="44.88839" lon="1.39794">
        <ele>86</ele>
        <time>2019-02-02T02:40:28.000Z</time>
      </trkpt>
      <trkpt lat="44.88846" lon="1.39896">
        <ele>85</ele>
        <time>2019-02-02T02:41:28.000Z</time>
      </trkpt>
      <trkpt lat="44.88862" lon="1.40027">
        <ele>86</ele>
        <time>2019-02-02T02:42:28.000Z</time>
      </trkpt>
      <trkpt lat="44.88873" lon="1.40141">
        <ele>90</ele>
        <time>2019-02-02T02:43:28.000Z</time>
      </trkpt>
      <trkpt lat="44.88865" lon="1.40252">
        <ele>96</ele>
        <time>2019-02-02T02:44:28.000Z</time>
      </trkpt>
      <trkpt lat="44.88846" lon="1.40345">
        <ele>92</ele>
        <time>2019-02-02T02:45:28.000Z</time>
      </trkpt>
      <trkpt lat="44.88805" lon="1.40441">
        <ele>90</ele>
        <time>2019-02-02T02:46:28.000Z</time>
      </trkpt>
      <trkpt lat="44.88745" lon="1.40525">
        <ele>87</ele>
        <time>2019-02-02T02:47:28.000Z</time>
      </trkpt>
      <trkpt lat="44.88678" lon="1.40609">
        <ele>85</ele>
        <time>2019-02-02T02:48:28.000Z</time>
      </trkpt>
      <trkpt lat="44.88629" lon="1.40689">
        <ele>86</ele>
        <time>2019-02-02T02:49:28.000Z</time>
      </trkpt>
      <trkpt lat="44.88601" lon="1.40741">
        <ele>88</ele>
        <time>2019-02-02T02:50:28.000Z</time>
      </trkpt>
      <trkpt lat="44.88597" lon="1.40729">
        <ele>87</ele>
        <time>2019-02-02T02:51:28.000Z</time>
      </trkpt>
      <trkpt lat="44.8859" lon="1.4074">
        <ele>88</ele>
        <time>2019-02-02T02:52:28.000Z</time>
      </trkpt>
      <trkpt lat="44.88587" lon="1.40796">
        <ele>88</ele>
        <time>2019-02-02T02:53:28.000Z</time>
      </trkpt>
      <trkpt lat="44.88537" lon="1.40855">
        <ele>86</ele>
        <time>2019-02-02T02:54:28.000Z</time>
      </trkpt>
      <trkpt lat="44.8851" lon="1.40881">
        <ele>85</ele>
        <time>2019-02-02T02:55:28.000Z</time>
      </trkpt>
      <trkpt lat="44.88517" lon="1.40873">
        <ele>85</ele>
        <time>2019-02-02T02:56:28.000Z</time>
      </trkpt>
      <trkpt lat="44.88532" lon="1.40865">
        <ele>86</ele>
        <time>2019-02-02T02:57:28.000Z</time>
      </trkpt>
      <trkpt lat="44.88547" lon="1.40877">
        <ele>87</ele>
        <time>2019-02-02T02:58:28.000Z</time>
      </trkpt>
      <trkpt lat="44.88556" lon="1.40887">
        <ele>87</ele>
        <time>2019-02-02T02:59:28.000Z</time>
      </trkpt>
      <trkpt lat="44.88582" lon="1.40897">
        <ele>88</ele>
        <time>2019-02-02T03:00:28.000Z</time>
      </trkpt>
      <trkpt lat="44.88584" lon="1.40929">
        <ele>88</ele>
        <time>2019-02-02T03:01:28.000Z</time>
      </trkpt>
      <trkpt lat="44.88579" lon="1.40968">
        <ele>89</ele>
        <time>2019-02-02T03:02:28.000Z</time>
      </trkpt>
      <trkpt lat="44.88576" lon="1.41001">
        <ele>90</ele>
        <time>2019-02-02T03:03:28.000Z</time>
      </trkpt>
      <trkpt lat="44.8857" lon="1.41036">
        <ele>91</ele>
        <time>2019-02-02T03:04:28.000Z</time>
      </trkpt>
      <trkpt lat="44.88567" lon="1.41072">
        <ele>92</ele>
        <time>2019-02-02T03:05:28.000Z</time>
      </trkpt>
      <trkpt lat="44.88563" lon="1.41096">
        <ele>95</ele>
        <time>2019-02-02T03:06:28.000Z</time>
      </trkpt>
      <trkpt lat="44.88555" lon="1.41128">
        <ele>99</ele>
        <time>2019-02-02T03:07:28.000Z</time>
      </trkpt>
      <trkpt lat="44.88547" lon="1.41154">
        <ele>100</ele>
        <time>2019-02-02T03:08:28.000Z</time>
      </trkpt>
      <trkpt lat="44.88539" lon="1.41175">
        <ele>101</ele>
        <time>2019-02-02T03:09:28.000Z</time>
      </trkpt>
      <trkpt lat="44.88522" lon="1.41223">
        <ele>103</ele>
        <time>2019-02-02T03:10:28.000Z</time>
      </trkpt>
      <trkpt lat="44.88511" lon="1.41248">
        <ele>102</ele>
        <time>2019-02-02T03:11:28.000Z</time>
      </trkpt>
      <trkpt lat="44.88491" lon="1.41301">
        <ele>104</ele>
        <time>2019-02-02T03:12:28.000Z</time>
      </trkpt>
      <trkpt lat="44.88469" lon="1.41353">
        <ele>107</ele>
        <time>2019-02-02T03:13:28.000Z</time>
      </trkpt>
      <trkpt lat="44.88457" lon="1.4138">
        <ele>106</ele>
        <time>2019-02-02T03:14:28.000Z</time>
      </trkpt>
      <trkpt lat="44.88448" lon="1.41409">
        <ele>106</ele>
        <time>2019-02-02T03:15:28.000Z</time>
      </trkpt>
      <trkpt lat="44.88428" lon="1.41463">
        <ele>106</ele>
        <time>2019-02-02T03:16:28.000Z</time>
      </trkpt>
      <trkpt lat="44.88416" lon="1.41492">
        <ele>105</ele>
        <time>2019-02-02T03:17:28.000Z</time>
      </trkpt>
      <trkpt lat="44.88404" lon="1.41515">
        <ele>107</ele>
        <time>2019-02-02T03:18:28.000Z</time>
      </trkpt>
      <trkpt lat="44.88391" lon="1.41537">
        <ele>107</ele>
        <time>2019-02-02T03:19:28.000Z</time>
      </trkpt>
      <trkpt lat="44.88377" lon="1.41566">
        <ele>108</ele>
        <time>2019-02-02T03:20:28.000Z</time>
      </trkpt>
      <trkpt lat="44.88363" lon="1.41595">
        <ele>107</ele>
        <time>2019-02-02T03:21:28.000Z</time>
      </trkpt>
      <trkpt lat="44.8835" lon="1.41624">
        <ele>106</ele>
        <time>2019-02-02T03:22:28.000Z</time>
      </trkpt>
      <trkpt lat="44.88339" lon="1.41653">
        <ele>105</ele>
        <time>2019-02-02T03:23:28.000Z</time>
      </trkpt>
      <trkpt lat="44.88324" lon="1.41684">
        <ele>105</ele>
        <time>2019-02-02T03:24:28.000Z</time>
      </trkpt>
      <trkpt lat="44.88299" lon="1.41737">
        <ele>105</ele>
        <time>2019-02-02T03:25:28.000Z</time>
      </trkpt>
      <trkpt lat="44.88301" lon="1.41766">
        <ele>107</ele>
        <time>2019-02-02T03:26:28.000Z</time>
      </trkpt>
      <trkpt lat="44.88308" lon="1.41799">
        <ele>108</ele>
        <time>2019-02-02T03:27:28.000Z</time>
      </trkpt>
      <trkpt lat="44.88313" lon="1.41834">
        <ele>109</ele>
        <time>2019-02-02T03:28:28.000Z</time>
      </trkpt>
      <trkpt lat="44.8831" lon="1.41864">
        <ele>110</ele>
        <time>2019-02-02T03:29:28.000Z</time>
      </trkpt>
      <trkpt lat="44.88302" lon="1.41887">
        <ele>111</ele>
        <time>2019-02-02T03:30:28.000Z</time>
      </trkpt>
      <trkpt lat="44.88287" lon="1.41907">
        <ele>111</ele>
        <time>2019-02-02T03:31:28.000Z</time>
      </trkpt>
      <trkpt lat="44.88272" lon="1.41922">
        <ele>111</ele>
        <time>2019-02-02T03:32:28.000Z</time>
      </trkpt>
      <trkpt lat="44.88263" lon="1.41929">
        <ele>111</ele>
        <time>2019-02-02T03:33:28.000Z</time>
      </trkpt>
      <trkpt lat="44.88249" lon="1.41939">
        <ele>111</ele>
        <time>2019-02-02T03:34:28.000Z</time>
      </trkpt>
      <trkpt lat="44.88237" lon="1.41942">
        <ele>111</ele>
        <time>2019-02-02T03:35:28.000Z</time>
      </trkpt>
      <trkpt lat="44.8823" lon="1.41966">
        <ele>112</ele>
        <time>2019-02-02T03:36:28.000Z</time>
      </trkpt>
      <trkpt lat="44.88223" lon="1.41992">
        <ele>112</ele>
        <time>2019-02-02T03:37:28.000Z</time>
      </trkpt>
      <trkpt lat="44.88216" lon="1.42027">
        <ele>112</ele>
        <time>2019-02-02T03:38:28.000Z</time>
      </trkpt>
      <trkpt lat="44.8821" lon="1.42054">
        <ele>112</ele>
        <time>2019-02-02T03:39:28.000Z</time>
      </trkpt>
      <trkpt lat="44.88205" lon="1.42091">
        <ele>111</ele>
        <time>2019-02-02T03:40:28.000Z</time>
      </trkpt>
      <trkpt lat="44.88205" lon="1.4213">
        <ele>111</ele>
        <time>2019-02-02T03:41:28.000Z</time>
      </trkpt>
      <trkpt lat="44.88207" lon="1.42166">
        <ele>111</ele>
        <time>2019-02-02T03:42:28.000Z</time>
      </trkpt>
      <trkpt lat="44.88208" lon="1.42209">
        <ele>111</ele>
        <time>2019-02-02T03:43:28.000Z</time>
      </trkpt>
      <trkpt lat="44.88209" lon="1.42248">
        <ele>111</ele>
        <time>2019-02-02T03:44:28.000Z</time>
      </trkpt>
      <trkpt lat="44.88211" lon="1.42295">
        <ele>111</ele>
        <time>2019-02-02T03:45:28.000Z</time>
      </trkpt>
      <trkpt lat="44.88211" lon="1.42332">
        <ele>111</ele>
        <time>2019-02-02T03:46:28.000Z</time>
      </trkpt>
      <trkpt lat="44.88215" lon="1.42421">
        <ele>112</ele>
        <time>2019-02-02T03:47:28.000Z</time>
      </trkpt>
      <trkpt lat="44.88219" lon="1.42467">
        <ele>112</ele>
        <time>2019-02-02T03:48:28.000Z</time>
      </trkpt>
      <trkpt lat="44.88216" lon="1.42504">
        <ele>112</ele>
        <time>2019-02-02T03:49:28.000Z</time>
      </trkpt>
      <trkpt lat="44.88218" lon="1.4255">
        <ele>113</ele>
        <time>2019-02-02T03:50:28.000Z</time>
      </trkpt>
      <trkpt lat="44.88218" lon="1.42631">
        <ele>114</ele>
        <time>2019-02-02T03:51:28.000Z</time>
      </trkpt>
      <trkpt lat="44.88221" lon="1.42667">
        <ele>115</ele>
        <time>2019-02-02T03:52:28.000Z</time>
      </trkpt>
      <trkpt lat="44.88224" lon="1.42714">
        <ele>114</ele>
        <time>2019-02-02T03:53:28.000Z</time>
      </trkpt>
      <trkpt lat="44.88223" lon="1.42747">
        <ele>114</ele>
        <time>2019-02-02T03:54:28.000Z</time>
      </trkpt>
      <trkpt lat="44.88224" lon="1.42792">
        <ele>114</ele>
        <time>2019-02-02T03:55:28.000Z</time>
      </trkpt>
      <trkpt lat="44.88231" lon="1.42926">
        <ele>114</ele>
        <time>2019-02-02T03:56:28.000Z</time>
      </trkpt>
      <trkpt lat="44.88232" lon="1.42968">
        <ele>114</ele>
        <time>2019-02-02T03:57:28.000Z</time>
      </trkpt>
      <trkpt lat="44.88234" lon="1.43017">
        <ele>113</ele>
        <time>2019-02-02T03:58:28.000Z</time>
      </trkpt>
      <trkpt lat="44.88237" lon="1.43067">
        <ele>113</ele>
        <time>2019-02-02T03:59:28.000Z</time>
      </trkpt>
      <trkpt lat="44.88237" lon="1.43115">
        <ele>113</ele>
        <time>2019-02-02T04:00:28.000Z</time>
      </trkpt>
      <trkpt lat="44.88236" lon="1.43208">
        <ele>115</ele>
        <time>2019-02-02T04:01:28.000Z</time>
      </trkpt>
      <trkpt lat="44.8824" lon="1.43252">
        <ele>116</ele>
        <time>2019-02-02T04:02:28.000Z</time>
      </trkpt>
      <trkpt lat="44.8824" lon="1.43289">
        <ele>117</ele>
        <time>2019-02-02T04:03:28.000Z</time>
      </trkpt>
      <trkpt lat="44.88241" lon="1.43328">
        <ele>117</ele>
        <time>2019-02-02T04:04:28.000Z</time>
      </trkpt>
      <trkpt lat="44.88242" lon="1.43363">
        <ele>118</ele>
        <time>2019-02-02T04:05:28.000Z</time>
      </trkpt>
      <trkpt lat="44.88245" lon="1.434">
        <ele>118</ele>
        <time>2019-02-02T04:06:28.000Z</time>
      </trkpt>
      <trkpt lat="44.88246" lon="1.43447">
        <ele>117</ele>
        <time>2019-02-02T04:07:28.000Z</time>
      </trkpt>
      <trkpt lat="44.8825" lon="1.43496">
        <ele>116</ele>
        <time>2019-02-02T04:08:28.000Z</time>
      </trkpt>
      <trkpt lat="44.88254" lon="1.43536">
        <ele>115</ele>
        <time>2019-02-02T04:09:28.000Z</time>
      </trkpt>
      <trkpt lat="44.8826" lon="1.43579">
        <ele>115</ele>
        <time>2019-02-02T04:10:28.000Z</time>
      </trkpt>
      <trkpt lat="44.88271" lon="1.43627">
        <ele>115</ele>
        <time>2019-02-02T04:11:28.000Z</time>
      </trkpt>
      <trkpt lat="44.88286" lon="1.43672">
        <ele>116</ele>
        <time>2019-02-02T04:12:28.000Z</time>
      </trkpt>
      <trkpt lat="44.88299" lon="1.43711">
        <ele>115</ele>
        <time>2019-02-02T04:13:28.000Z</time>
      </trkpt>
      <trkpt lat="44.88316" lon="1.4376">
        <ele>114</ele>
        <time>2019-02-02T04:14:28.000Z</time>
      </trkpt>
      <trkpt lat="44.88333" lon="1.43796">
        <ele>114</ele>
        <time>2019-02-02T04:15:28.000Z</time>
      </trkpt>
      <trkpt lat="44.88379" lon="1.43874">
        <ele>111</ele>
        <time>2019-02-02T04:16:28.000Z</time>
      </trkpt>
      <trkpt lat="44.88404" lon="1.43915">
        <ele>109</ele>
        <time>2019-02-02T04:17:28.000Z</time>
      </trkpt>
      <trkpt lat="44.88428" lon="1.43949">
        <ele>106</ele>
        <time>2019-02-02T04:18:28.000Z</time>
      </trkpt>
      <trkpt lat="44.88456" lon="1.43974">
        <ele>104</ele>
        <time>2019-02-02T04:19:28.000Z</time>
      </trkpt>
      <trkpt lat="44.88487" lon="1.43988">
        <ele>104</ele>
        <time>2019-02-02T04:20:28.000Z</time>
      </trkpt>
      <trkpt lat="44.88528" lon="1.43986">
        <ele>105</ele>
        <time>2019-02-02T04:21:28.000Z</time>
      </trkpt>
      <trkpt lat="44.8856" lon="1.43969">
        <ele>108</ele>
        <time>2019-02-02T04:22:28.000Z</time>
      </trkpt>
      <trkpt lat="44.88595" lon="1.43946">
        <ele>112</ele>
        <time>2019-02-02T04:23:28.000Z</time>
      </trkpt>
      <trkpt lat="44.88639" lon="1.43922">
        <ele>113</ele>
        <time>2019-02-02T04:24:28.000Z</time>
      </trkpt>
      <trkpt lat="44.88684" lon="1.43902">
        <ele>115</ele>
        <time>2019-02-02T04:25:28.000Z</time>
      </trkpt>
      <trkpt lat="44.8872" lon="1.43886">
        <ele>120</ele>
        <time>2019-02-02T04:26:28.000Z</time>
      </trkpt>
      <trkpt lat="44.88771" lon="1.43878">
        <ele>123</ele>
        <time>2019-02-02T04:27:28.000Z</time>
      </trkpt>
      <trkpt lat="44.88824" lon="1.43883">
        <ele>121</ele>
        <time>2019-02-02T04:28:28.000Z</time>
      </trkpt>
      <trkpt lat="44.88875" lon="1.43892">
        <ele>117</ele>
        <time>2019-02-02T04:29:28.000Z</time>
      </trkpt>
      <trkpt lat="44.88919" lon="1.43894">
        <ele>118</ele>
        <time>2019-02-02T04:30:28.000Z</time>
      </trkpt>
      <trkpt lat="44.88971" lon="1.43897">
        <ele>119</ele>
        <time>2019-02-02T04:31:28.000Z</time>
      </trkpt>
      <trkpt lat="44.89023" lon="1.43915">
        <ele>112</ele>
        <time>2019-02-02T04:32:28.000Z</time>
      </trkpt>
      <trkpt lat="44.89068" lon="1.43933">
        <ele>111</ele>
        <time>2019-02-02T04:33:28.000Z</time>
      </trkpt>
      <trkpt lat="44.89112" lon="1.43957">
        <ele>107</ele>
        <time>2019-02-02T04:34:28.000Z</time>
      </trkpt>
      <trkpt lat="44.89151" lon="1.44017">
        <ele>94</ele>
        <time>2019-02-02T04:35:28.000Z</time>
      </trkpt>
      <trkpt lat="44.89171" lon="1.44074">
        <ele>91</ele>
        <time>2019-02-02T04:36:28.000Z</time>
      </trkpt>
      <trkpt lat="44.89195" lon="1.44138">
        <ele>89</ele>
        <time>2019-02-02T04:37:28.000Z</time>
      </trkpt>
      <trkpt lat="44.89214" lon="1.44188">
        <ele>88</ele>
        <time>2019-02-02T04:38:28.000Z</time>
      </trkpt>
      <trkpt lat="44.89231" lon="1.44235">
        <ele>88</ele>
        <time>2019-02-02T04:39:28.000Z</time>
      </trkpt>
      <trkpt lat="44.89249" lon="1.44283">
        <ele>89</ele>
        <time>2019-02-02T04:40:28.000Z</time>
      </trkpt>
      <trkpt lat="44.8927" lon="1.44342">
        <ele>89</ele>
        <time>2019-02-02T04:41:28.000Z</time>
      </trkpt>
      <trkpt lat="44.89293" lon="1.444">
        <ele>89</ele>
        <time>2019-02-02T04:42:28.000Z</time>
      </trkpt>
      <trkpt lat="44.8931" lon="1.44448">
        <ele>88</ele>
        <time>2019-02-02T04:43:28.000Z</time>
      </trkpt>
      <trkpt lat="44.8933" lon="1.44506">
        <ele>87</ele>
        <time>2019-02-02T04:44:28.000Z</time>
      </trkpt>
      <trkpt lat="44.89347" lon="1.44555">
        <ele>88</ele>
        <time>2019-02-02T04:45:28.000Z</time>
      </trkpt>
      <trkpt lat="44.89364" lon="1.44609">
        <ele>88</ele>
        <time>2019-02-02T04:46:28.000Z</time>
      </trkpt>
      <trkpt lat="44.89383" lon="1.44649">
        <ele>88</ele>
        <time>2019-02-02T04:47:28.000Z</time>
      </trkpt>
      <trkpt lat="44.89403" lon="1.44697">
        <ele>90</ele>
        <time>2019-02-02T04:48:28.000Z</time>
      </trkpt>
      <trkpt lat="44.89419" lon="1.44741">
        <ele>91</ele>
        <time>2019-02-02T04:49:28.000Z</time>
      </trkpt>
      <trkpt lat="44.89435" lon="1.44785">
        <ele>90</ele>
        <time>2019-02-02T04:50:28.000Z</time>
      </trkpt>
      <trkpt lat="44.89455" lon="1.44836">
        <ele>89</ele>
        <time>2019-02-02T04:51:28.000Z</time>
      </trkpt>
      <trkpt lat="44.89475" lon="1.44885">
        <ele>89</ele>
        <time>2019-02-02T04:52:28.000Z</time>
      </trkpt>
      <trkpt lat="44.89494" lon="1.44934">
        <ele>89</ele>
        <time>2019-02-02T04:53:28.000Z</time>
      </trkpt>
      <trkpt lat="44.89511" lon="1.4498">
        <ele>90</ele>
        <time>2019-02-02T04:54:28.000Z</time>
      </trkpt>
      <trkpt lat="44.89532" lon="1.45032">
        <ele>91</ele>
        <time>2019-02-02T04:55:28.000Z</time>
      </trkpt>
      <trkpt lat="44.89547" lon="1.45075">
        <ele>90</ele>
        <time>2019-02-02T04:56:28.000Z</time>
      </trkpt>
      <trkpt lat="44.89565" lon="1.45125">
        <ele>91</ele>
        <time>2019-02-02T04:57:28.000Z</time>
      </trkpt>
      <trkpt lat="44.89578" lon="1.45184">
        <ele>92</ele>
        <time>2019-02-02T04:58:28.000Z</time>
      </trkpt>
      <trkpt lat="44.89594" lon="1.45235">
        <ele>91</ele>
        <time>2019-02-02T04:59:28.000Z</time>
      </trkpt>
      <trkpt lat="44.89604" lon="1.45279">
        <ele>91</ele>
        <time>2019-02-02T05:00:28.000Z</time>
      </trkpt>
      <trkpt lat="44.89619" lon="1.45325">
        <ele>90</ele>
        <time>2019-02-02T05:01:28.000Z</time>
      </trkpt>
      <trkpt lat="44.89633" lon="1.4538">
        <ele>91</ele>
        <time>2019-02-02T05:02:28.000Z</time>
      </trkpt>
      <trkpt lat="44.89661" lon="1.45476">
        <ele>93</ele>
        <time>2019-02-02T05:03:28.000Z</time>
      </trkpt>
      <trkpt lat="44.89672" lon="1.4552">
        <ele>93</ele>
        <time>2019-02-02T05:04:28.000Z</time>
      </trkpt>
      <trkpt lat="44.89689" lon="1.45573">
        <ele>92</ele>
        <time>2019-02-02T05:05:28.000Z</time>
      </trkpt>
      <trkpt lat="44.89703" lon="1.45626">
        <ele>92</ele>
        <time>2019-02-02T05:06:28.000Z</time>
      </trkpt>
      <trkpt lat="44.89717" lon="1.45678">
        <ele>92</ele>
        <time>2019-02-02T05:07:28.000Z</time>
      </trkpt>
      <trkpt lat="44.89731" lon="1.45731">
        <ele>91</ele>
        <time>2019-02-02T05:08:28.000Z</time>
      </trkpt>
      <trkpt lat="44.89744" lon="1.45782">
        <ele>91</ele>
        <time>2019-02-02T05:09:28.000Z</time>
      </trkpt>
      <trkpt lat="44.8976" lon="1.45832">
        <ele>90</ele>
        <time>2019-02-02T05:10:28.000Z</time>
      </trkpt>
      <trkpt lat="44.8977" lon="1.45864">
        <ele>90</ele>
        <time>2019-02-02T05:11:28.000Z</time>
      </trkpt>
      <trkpt lat="44.89777" lon="1.45887">
        <ele>91</ele>
        <time>2019-02-02T05:12:28.000Z</time>
      </trkpt>
      <trkpt lat="44.89781" lon="1.45908">
        <ele>91</ele>
        <time>2019-02-02T05:13:28.000Z</time>
      </trkpt>
      <trkpt lat="44.89787" lon="1.45896">
        <ele>91</ele>
        <time>2019-02-02T05:14:28.000Z</time>
      </trkpt>
      <trkpt lat="44.89768" lon="1.45829">
        <ele>90</ele>
        <time>2019-02-02T05:15:28.000Z</time>
      </trkpt>
      <trkpt lat="44.89758" lon="1.45799">
        <ele>90</ele>
        <time>2019-02-02T05:16:28.000Z</time>
      </trkpt>
      <trkpt lat="44.89747" lon="1.45766">
        <ele>91</ele>
        <time>2019-02-02T05:17:28.000Z</time>
      </trkpt>
      <trkpt lat="44.89732" lon="1.45771">
        <ele>91</ele>
        <time>2019-02-02T05:18:28.000Z</time>
      </trkpt>
      <trkpt lat="44.89705" lon="1.45778">
        <ele>90</ele>
        <time>2019-02-02T05:19:28.000Z</time>
      </trkpt>
      <trkpt lat="44.89677" lon="1.45792">
        <ele>90</ele>
        <time>2019-02-02T05:20:28.000Z</time>
      </trkpt>
      <trkpt lat="44.89659" lon="1.458">
        <ele>90</ele>
        <time>2019-02-02T05:21:28.000Z</time>
      </trkpt>
      <trkpt lat="44.89638" lon="1.45812">
        <ele>90</ele>
        <time>2019-02-02T05:22:28.000Z</time>
      </trkpt>
      <trkpt lat="44.89609" lon="1.45825">
        <ele>89</ele>
        <time>2019-02-02T05:23:28.000Z</time>
      </trkpt>
      <trkpt lat="44.89587" lon="1.45835">
        <ele>89</ele>
        <time>2019-02-02T05:24:28.000Z</time>
      </trkpt>
      <trkpt lat="44.89566" lon="1.45844">
        <ele>88</ele>
        <time>2019-02-02T05:25:28.000Z</time>
      </trkpt>
      <trkpt lat="44.89547" lon="1.45855">
        <ele>88</ele>
        <time>2019-02-02T05:26:28.000Z</time>
      </trkpt>
      <trkpt lat="44.89526" lon="1.45867">
        <ele>87</ele>
        <time>2019-02-02T05:27:28.000Z</time>
      </trkpt>
      <trkpt lat="44.89513" lon="1.45897">
        <ele>87</ele>
        <time>2019-02-02T05:28:28.000Z</time>
      </trkpt>
      <trkpt lat="44.89512" lon="1.4597">
        <ele>88</ele>
        <time>2019-02-02T05:29:28.000Z</time>
      </trkpt>
      <trkpt lat="44.89509" lon="1.46014">
        <ele>88</ele>
        <time>2019-02-02T05:30:28.000Z</time>
      </trkpt>
      <trkpt lat="44.89501" lon="1.46052">
        <ele>89</ele>
        <time>2019-02-02T05:31:28.000Z</time>
      </trkpt>
      <trkpt lat="44.89497" lon="1.4609">
        <ele>89</ele>
        <time>2019-02-02T05:32:28.000Z</time>
      </trkpt>
      <trkpt lat="44.89486" lon="1.46134">
        <ele>90</ele>
        <time>2019-02-02T05:33:28.000Z</time>
      </trkpt>
      <trkpt lat="44.89476" lon="1.46178">
        <ele>91</ele>
        <time>2019-02-02T05:34:28.000Z</time>
      </trkpt>
      <trkpt lat="44.89464" lon="1.46213">
        <ele>91</ele>
        <time>2019-02-02T05:35:28.000Z</time>
      </trkpt>
      <trkpt lat="44.89451" lon="1.46243">
        <ele>91</ele>
        <time>2019-02-02T05:36:28.000Z</time>
      </trkpt>
      <trkpt lat="44.89437" lon="1.4627">
        <ele>91</ele>
        <time>2019-02-02T05:37:28.000Z</time>
      </trkpt>
      <trkpt lat="44.89409" lon="1.46301">
        <ele>90</ele>
        <time>2019-02-02T05:38:28.000Z</time>
      </trkpt>
      <trkpt lat="44.8939" lon="1.46325">
        <ele>89</ele>
        <time>2019-02-02T05:39:28.000Z</time>
      </trkpt>
      <trkpt lat="44.89363" lon="1.46356">
        <ele>89</ele>
        <time>2019-02-02T05:40:28.000Z</time>
      </trkpt>
      <trkpt lat="44.89343" lon="1.46375">
        <ele>89</ele>
        <time>2019-02-02T05:41:28.000Z</time>
      </trkpt>
      <trkpt lat="44.89329" lon="1.46402">
        <ele>89</ele>
        <time>2019-02-02T05:42:28.000Z</time>
      </trkpt>
      <trkpt lat="44.89306" lon="1.46434">
        <ele>89</ele>
        <time>2019-02-02T05:43:28.000Z</time>
      </trkpt>
      <trkpt lat="44.89289" lon="1.46461">
        <ele>88</ele>
        <time>2019-02-02T05:44:28.000Z</time>
      </trkpt>
      <trkpt lat="44.8927" lon="1.46499">
        <ele>88</ele>
        <time>2019-02-02T05:45:28.000Z</time>
      </trkpt>
      <trkpt lat="44.8926" lon="1.46542">
        <ele>89</ele>
        <time>2019-02-02T05:46:28.000Z</time>
      </trkpt>
      <trkpt lat="44.89244" lon="1.46626">
        <ele>90</ele>
        <time>2019-02-02T05:47:28.000Z</time>
      </trkpt>
      <trkpt lat="44.89225" lon="1.46695">
        <ele>91</ele>
        <time>2019-02-02T05:48:28.000Z</time>
      </trkpt>
      <trkpt lat="44.89206" lon="1.46729">
        <ele>90</ele>
        <time>2019-02-02T05:49:28.000Z</time>
      </trkpt>
      <trkpt lat="44.8918" lon="1.46749">
        <ele>90</ele>
        <time>2019-02-02T05:50:28.000Z</time>
      </trkpt>
      <trkpt lat="44.89152" lon="1.46766">
        <ele>89</ele>
        <time>2019-02-02T05:51:28.000Z</time>
      </trkpt>
      <trkpt lat="44.8912" lon="1.46791">
        <ele>88</ele>
        <time>2019-02-02T05:52:28.000Z</time>
      </trkpt>
      <trkpt lat="44.89103" lon="1.46818">
        <ele>88</ele>
        <time>2019-02-02T05:53:28.000Z</time>
      </trkpt>
      <trkpt lat="44.89094" lon="1.46833">
        <ele>87</ele>
        <time>2019-02-02T05:54:28.000Z</time>
      </trkpt>
      <trkpt lat="44.8909" lon="1.46856">
        <ele>87</ele>
        <time>2019-02-02T05:55:28.000Z</time>
      </trkpt>
      <trkpt lat="44.89087" lon="1.46896">
        <ele>87</ele>
        <time>2019-02-02T05:56:28.000Z</time>
      </trkpt>
      <trkpt lat="44.89088" lon="1.4693">
        <ele>87</ele>
        <time>2019-02-02T05:57:28.000Z</time>
      </trkpt>
      <trkpt lat="44.89086" lon="1.46969">
        <ele>88</ele>
        <time>2019-02-02T05:58:28.000Z</time>
      </trkpt>
      <trkpt lat="44.89089" lon="1.47006">
        <ele>89</ele>
        <time>2019-02-02T05:59:28.000Z</time>
      </trkpt>
      <trkpt lat="44.89089" lon="1.47048">
        <ele>88</ele>
        <time>2019-02-02T06:00:28.000Z</time>
      </trkpt>
      <trkpt lat="44.89089" lon="1.47081">
        <ele>88</ele>
        <time>2019-02-02T06:01:28.000Z</time>
      </trkpt>
      <trkpt lat="44.89091" lon="1.47122">
        <ele>88</ele>
        <time>2019-02-02T06:02:28.000Z</time>
      </trkpt>
      <trkpt lat="44.89092" lon="1.47152">
        <ele>88</ele>
        <time>2019-02-02T06:03:28.000Z</time>
      </trkpt>
      <trkpt lat="44.89093" lon="1.47191">
        <ele>89</ele>
        <time>2019-02-02T06:04:28.000Z</time>
      </trkpt>
      <trkpt lat="44.89105" lon="1.47222">
        <ele>90</ele>
        <time>2019-02-02T06:05:28.000Z</time>
      </trkpt>
      <trkpt lat="44.89119" lon="1.4725">
        <ele>90</ele>
        <time>2019-02-02T06:06:28.000Z</time>
      </trkpt>
      <trkpt lat="44.89142" lon="1.47313">
        <ele>91</ele>
        <time>2019-02-02T06:07:28.000Z</time>
      </trkpt>
      <trkpt lat="44.89154" lon="1.4734">
        <ele>91</ele>
        <time>2019-02-02T06:08:28.000Z</time>
      </trkpt>
      <trkpt lat="44.89159" lon="1.47368">
        <ele>91</ele>
        <time>2019-02-02T06:09:28.000Z</time>
      </trkpt>
      <trkpt lat="44.89167" lon="1.47407">
        <ele>92</ele>
        <time>2019-02-02T06:10:28.000Z</time>
      </trkpt>
      <trkpt lat="44.89175" lon="1.47441">
        <ele>92</ele>
        <time>2019-02-02T06:11:28.000Z</time>
      </trkpt>
      <trkpt lat="44.89182" lon="1.47478">
        <ele>91</ele>
        <time>2019-02-02T06:12:28.000Z</time>
      </trkpt>
      <trkpt lat="44.89188" lon="1.47507">
        <ele>91</ele>
        <time>2019-02-02T06:13:28.000Z</time>
      </trkpt>
      <trkpt lat="44.89196" lon="1.47547">
        <ele>90</ele>
        <time>2019-02-02T06:14:28.000Z</time>
      </trkpt>
      <trkpt lat="44.8921" lon="1.47579">
        <ele>90</ele>
        <time>2019-02-02T06:15:28.000Z</time>
      </trkpt>
      <trkpt lat="44.89224" lon="1.47595">
        <ele>91</ele>
        <time>2019-02-02T06:16:28.000Z</time>
      </trkpt>
      <trkpt lat="44.89241" lon="1.47606">
        <ele>92</ele>
        <time>2019-02-02T06:17:28.000Z</time>
      </trkpt>
      <trkpt lat="44.89248" lon="1.47613">
        <ele>92</ele>
        <time>2019-02-02T06:18:28.000Z</time>
      </trkpt>
      <trkpt lat="44.89246" lon="1.47636">
        <ele>93</ele>
        <time>2019-02-02T06:19:28.000Z</time>
      </trkpt>
      <trkpt lat="44.8925" lon="1.47663">
        <ele>93</ele>
        <time>2019-02-02T06:20:28.000Z</time>
      </trkpt>
      <trkpt lat="44.89262" lon="1.47692">
        <ele>94</ele>
        <time>2019-02-02T06:21:28.000Z</time>
      </trkpt>
      <trkpt lat="44.89275" lon="1.47715">
        <ele>94</ele>
        <time>2019-02-02T06:22:28.000Z</time>
      </trkpt>
      <trkpt lat="44.89269" lon="1.47725">
        <ele>94</ele>
        <time>2019-02-02T06:23:28.000Z</time>
      </trkpt>
      <trkpt lat="44.89259" lon="1.47733">
        <ele>93</ele>
        <time>2019-02-02T06:24:28.000Z</time>
      </trkpt>
      <trkpt lat="44.89241" lon="1.47751">
        <ele>93</ele>
        <time>2019-02-02T06:25:28.000Z</time>
      </trkpt>
      <trkpt lat="44.89228" lon="1.47768">
        <ele>93</ele>
        <time>2019-02-02T06:26:28.000Z</time>
      </trkpt>
      <trkpt lat="44.89218" lon="1.47781">
        <ele>93</ele>
        <time>2019-02-02T06:27:28.000Z</time>
      </trkpt>
      <trkpt lat="44.89206" lon="1.47791">
        <ele>93</ele>
        <time>2019-02-02T06:28:28.000Z</time>
      </trkpt>
      <trkpt lat="44.89186" lon="1.47809">
        <ele>93</ele>
        <time>2019-02-02T06:29:28.000Z</time>
      </trkpt>
      <trkpt lat="44.89166" lon="1.47825">
        <ele>94</ele>
        <time>2019-02-02T06:30:28.000Z</time>
      </trkpt>
      <trkpt lat="44.89141" lon="1.4784">
        <ele>93</ele>
        <time>2019-02-02T06:31:28.000Z</time>
      </trkpt>
      <trkpt lat="44.89116" lon="1.47854">
        <ele>93</ele>
        <time>2019-02-02T06:32:28.000Z</time>
      </trkpt>
      <trkpt lat="44.89095" lon="1.47864">
        <ele>93</ele>
        <time>2019-02-02T06:33:28.000Z</time>
      </trkpt>
      <trkpt lat="44.89071" lon="1.47884">
        <ele>92</ele>
        <time>2019-02-02T06:34:28.000Z</time>
      </trkpt>
      <trkpt lat="44.89047" lon="1.47903">
        <ele>92</ele>
        <time>2019-02-02T06:35:28.000Z</time>
      </trkpt>
      <trkpt lat="44.89027" lon="1.47916">
        <ele>91</ele>
        <time>2019-02-02T06:36:28.000Z</time>
      </trkpt>
      <trkpt lat="44.89007" lon="1.4793">
        <ele>90</ele>
        <time>2019-02-02T06:37:28.000Z</time>
      </trkpt>
      <trkpt lat="44.88984" lon="1.47948">
        <ele>90</ele>
        <time>2019-02-02T06:38:28.000Z</time>
      </trkpt>
      <trkpt lat="44.88962" lon="1.47968">
        <ele>91</ele>
        <time>2019-02-02T06:39:28.000Z</time>
      </trkpt>
      <trkpt lat="44.8894" lon="1.47987">
        <ele>91</ele>
        <time>2019-02-02T06:40:28.000Z</time>
      </trkpt>
      <trkpt lat="44.8892" lon="1.48004">
        <ele>92</ele>
        <time>2019-02-02T06:41:28.000Z</time>
      </trkpt>
      <trkpt lat="44.889" lon="1.48024">
        <ele>93</ele>
        <time>2019-02-02T06:42:28.000Z</time>
      </trkpt>
      <trkpt lat="44.88878" lon="1.4805">
        <ele>93</ele>
        <time>2019-02-02T06:43:28.000Z</time>
      </trkpt>
      <trkpt lat="44.88857" lon="1.48071">
        <ele>93</ele>
        <time>2019-02-02T06:44:28.000Z</time>
      </trkpt>
      <trkpt lat="44.88837" lon="1.4809">
        <ele>93</ele>
        <time>2019-02-02T06:45:28.000Z</time>
      </trkpt>
      <trkpt lat="44.8879" lon="1.48138">
        <ele>92</ele>
        <time>2019-02-02T06:46:28.000Z</time>
      </trkpt>
      <trkpt lat="44.88761" lon="1.48133">
        <ele>92</ele>
        <time>2019-02-02T06:47:28.000Z</time>
      </trkpt>
      <trkpt lat="44.88737" lon="1.48107">
        <ele>90</ele>
        <time>2019-02-02T06:48:28.000Z</time>
      </trkpt>
      <trkpt lat="44.8872" lon="1.48108">
        <ele>90</ele>
        <time>2019-02-02T06:49:28.000Z</time>
      </trkpt>
      <trkpt lat="44.88707" lon="1.48135">
        <ele>91</ele>
        <time>2019-02-02T06:50:28.000Z</time>
      </trkpt>
      <trkpt lat="44.88694" lon="1.48158">
        <ele>91</ele>
        <time>2019-02-02T06:51:28.000Z</time>
      </trkpt>
      <trkpt lat="44.88683" lon="1.48179">
        <ele>91</ele>
        <time>2019-02-02T06:52:28.000Z</time>
      </trkpt>
      <trkpt lat="44.88666" lon="1.4821">
        <ele>91</ele>
        <time>2019-02-02T06:53:28.000Z</time>
      </trkpt>
      <trkpt lat="44.88653" lon="1.48235">
        <ele>92</ele>
        <time>2019-02-02T06:54:28.000Z</time>
      </trkpt>
      <trkpt lat="44.88636" lon="1.48268">
        <ele>92</ele>
        <time>2019-02-02T06:55:28.000Z</time>
      </trkpt>
      <trkpt lat="44.88621" lon="1.48291">
        <ele>92</ele>
        <time>2019-02-02T06:56:28.000Z</time>
      </trkpt>
      <trkpt lat="44.88607" lon="1.48314">
        <ele>92</ele>
        <time>2019-02-02T06:57:28.000Z</time>
      </trkpt>
      <trkpt lat="44.8859" lon="1.4835">
        <ele>92</ele>
        <time>2019-02-02T06:58:28.000Z</time>
      </trkpt>
      <trkpt lat="44.88571" lon="1.48377">
        <ele>92</ele>
        <time>2019-02-02T06:59:28.000Z</time>
      </trkpt>
      <trkpt lat="44.88553" lon="1.48407">
        <ele>92</ele>
        <time>2019-02-02T07:00:28.000Z</time>
      </trkpt>
      <trkpt lat="44.88531" lon="1.48431">
        <ele>93</ele>
        <time>2019-02-02T07:01:28.000Z</time>
      </trkpt>
      <trkpt lat="44.88505" lon="1.48456">
        <ele>92</ele>
        <time>2019-02-02T07:02:28.000Z</time>
      </trkpt>
      <trkpt lat="44.8849" lon="1.48477">
        <ele>93</ele>
        <time>2019-02-02T07:03:28.000Z</time>
      </trkpt>
      <trkpt lat="44.88486" lon="1.48501">
        <ele>93</ele>
        <time>2019-02-02T07:04:28.000Z</time>
      </trkpt>
      <trkpt lat="44.88493" lon="1.48523">
        <ele>95</ele>
        <time>2019-02-02T07:05:28.000Z</time>
      </trkpt>
      <trkpt lat="44.88493" lon="1.48538">
        <ele>97</ele>
        <time>2019-02-02T07:06:28.000Z</time>
      </trkpt>
      <trkpt lat="44.8849" lon="1.48551">
        <ele>98</ele>
        <time>2019-02-02T07:07:28.000Z</time>
      </trkpt>
      <trkpt lat="44.88481" lon="1.48561">
        <ele>98</ele>
        <time>2019-02-02T07:08:28.000Z</time>
      </trkpt>
      <trkpt lat="44.8847" lon="1.48573">
        <ele>99</ele>
        <time>2019-02-02T07:09:28.000Z</time>
      </trkpt>
      <trkpt lat="44.88459" lon="1.48584">
        <ele>99</ele>
        <time>2019-02-02T07:10:28.000Z</time>
      </trkpt>
      <trkpt lat="44.88445" lon="1.48597">
        <ele>100</ele>
        <time>2019-02-02T07:11:28.000Z</time>
      </trkpt>
      <trkpt lat="44.88425" lon="1.48613">
        <ele>101</ele>
        <time>2019-02-02T07:12:28.000Z</time>
      </trkpt>
      <trkpt lat="44.88405" lon="1.48629">
        <ele>102</ele>
        <time>2019-02-02T07:13:28.000Z</time>
      </trkpt>
      <trkpt lat="44.88383" lon="1.48647">
        <ele>103</ele>
        <time>2019-02-02T07:14:28.000Z</time>
      </trkpt>
      <trkpt lat="44.88362" lon="1.4865">
        <ele>103</ele>
        <time>2019-02-02T07:15:28.000Z</time>
      </trkpt>
      <trkpt lat="44.88345" lon="1.48664">
        <ele>104</ele>
        <time>2019-02-02T07:16:28.000Z</time>
      </trkpt>
      <trkpt lat="44.88323" lon="1.4868">
        <ele>106</ele>
        <time>2019-02-02T07:17:28.000Z</time>
      </trkpt>
      <trkpt lat="44.88303" lon="1.48691">
        <ele>106</ele>
        <time>2019-02-02T07:18:28.000Z</time>
      </trkpt>
      <trkpt lat="44.88273" lon="1.4871">
        <ele>106</ele>
        <time>2019-02-02T07:19:28.000Z</time>
      </trkpt>
      <trkpt lat="44.8825" lon="1.48732">
        <ele>107</ele>
        <time>2019-02-02T07:20:28.000Z</time>
      </trkpt>
      <trkpt lat="44.88233" lon="1.48754">
        <ele>107</ele>
        <time>2019-02-02T07:21:28.000Z</time>
      </trkpt>
      <trkpt lat="44.88212" lon="1.48774">
        <ele>107</ele>
        <time>2019-02-02T07:22:28.000Z</time>
      </trkpt>
      <trkpt lat="44.88188" lon="1.48799">
        <ele>108</ele>
        <time>2019-02-02T07:23:28.000Z</time>
      </trkpt>
      <trkpt lat="44.88165" lon="1.4883">
        <ele>111</ele>
        <time>2019-02-02T07:24:28.000Z</time>
      </trkpt>
      <trkpt lat="44.88141" lon="1.48857">
        <ele>115</ele>
        <time>2019-02-02T07:25:28.000Z</time>
      </trkpt>
      <trkpt lat="44.88113" lon="1.48888">
        <ele>117</ele>
        <time>2019-02-02T07:26:28.000Z</time>
      </trkpt>
      <trkpt lat="44.88091" lon="1.48913">
        <ele>117</ele>
        <time>2019-02-02T07:27:28.000Z</time>
      </trkpt>
      <trkpt lat="44.88068" lon="1.48935">
        <ele>117</ele>
        <time>2019-02-02T07:28:28.000Z</time>
      </trkpt>
      <trkpt lat="44.88041" lon="1.48957">
        <ele>115</ele>
        <time>2019-02-02T07:29:28.000Z</time>
      </trkpt>
      <trkpt lat="44.88014" lon="1.48984">
        <ele>112</ele>
        <time>2019-02-02T07:30:28.000Z</time>
      </trkpt>
      <trkpt lat="44.88" lon="1.49019">
        <ele>115</ele>
        <time>2019-02-02T07:31:28.000Z</time>
      </trkpt>
      <trkpt lat="44.87978" lon="1.49059">
        <ele>119</ele>
        <time>2019-02-02T07:32:28.000Z</time>
      </trkpt>
      <trkpt lat="44.8796" lon="1.49091">
        <ele>118</ele>
        <time>2019-02-02T07:33:28.000Z</time>
      </trkpt>
      <trkpt lat="44.87936" lon="1.49118">
        <ele>111</ele>
        <time>2019-02-02T07:34:28.000Z</time>
      </trkpt>
      <trkpt lat="44.87904" lon="1.49141">
        <ele>104</ele>
        <time>2019-02-02T07:35:28.000Z</time>
      </trkpt>
      <trkpt lat="44.87871" lon="1.49159">
        <ele>104</ele>
        <time>2019-02-02T07:36:28.000Z</time>
      </trkpt>
      <trkpt lat="44.87842" lon="1.49183">
        <ele>108</ele>
        <time>2019-02-02T07:37:28.000Z</time>
      </trkpt>
      <trkpt lat="44.8781" lon="1.49204">
        <ele>111</ele>
        <time>2019-02-02T07:38:28.000Z</time>
      </trkpt>
      <trkpt lat="44.87781" lon="1.49232">
        <ele>112</ele>
        <time>2019-02-02T07:39:28.000Z</time>
      </trkpt>
      <trkpt lat="44.87754" lon="1.49261">
        <ele>114</ele>
        <time>2019-02-02T07:40:28.000Z</time>
      </trkpt>
      <trkpt lat="44.87723" lon="1.49285">
        <ele>115</ele>
        <time>2019-02-02T07:41:28.000Z</time>
      </trkpt>
      <trkpt lat="44.87692" lon="1.49301">
        <ele>110</ele>
        <time>2019-02-02T07:42:28.000Z</time>
      </trkpt>
      <trkpt lat="44.87666" lon="1.49338">
        <ele>108</ele>
        <time>2019-02-02T07:43:28.000Z</time>
      </trkpt>
      <trkpt lat="44.87649" lon="1.49383">
        <ele>118</ele>
        <time>2019-02-02T07:44:28.000Z</time>
      </trkpt>
      <trkpt lat="44.87625" lon="1.49417">
        <ele>116</ele>
        <time>2019-02-02T07:45:28.000Z</time>
      </trkpt>
      <trkpt lat="44.876" lon="1.49454">
        <ele>114</ele>
        <time>2019-02-02T07:46:28.000Z</time>
      </trkpt>
      <trkpt lat="44.87579" lon="1.495">
        <ele>116</ele>
        <time>2019-02-02T07:47:28.000Z</time>
      </trkpt>
      <trkpt lat="44.87562" lon="1.49551">
        <ele>125</ele>
        <time>2019-02-02T07:48:28.000Z</time>
      </trkpt>
      <trkpt lat="44.87537" lon="1.49587">
        <ele>121</ele>
        <time>2019-02-02T07:49:28.000Z</time>
      </trkpt>
      <trkpt lat="44.87511" lon="1.49614">
        <ele>118</ele>
        <time>2019-02-02T07:50:28.000Z</time>
      </trkpt>
      <trkpt lat="44.8745" lon="1.49664">
        <ele>117</ele>
        <time>2019-02-02T07:51:28.000Z</time>
      </trkpt>
      <trkpt lat="44.87423" lon="1.49684">
        <ele>118</ele>
        <time>2019-02-02T07:52:28.000Z</time>
      </trkpt>
      <trkpt lat="44.87387" lon="1.49696">
        <ele>117</ele>
        <time>2019-02-02T07:53:28.000Z</time>
      </trkpt>
      <trkpt lat="44.87325" lon="1.49714">
        <ele>111</ele>
        <time>2019-02-02T07:54:28.000Z</time>
      </trkpt>
      <trkpt lat="44.87297" lon="1.4973">
        <ele>111</ele>
        <time>2019-02-02T07:55:28.000Z</time>
      </trkpt>
      <trkpt lat="44.87269" lon="1.49746">
        <ele>109</ele>
        <time>2019-02-02T07:56:28.000Z</time>
      </trkpt>
      <trkpt lat="44.87234" lon="1.49765">
        <ele>112</ele>
        <time>2019-02-02T07:57:28.000Z</time>
      </trkpt>
      <trkpt lat="44.87204" lon="1.49768">
        <ele>113</ele>
        <time>2019-02-02T07:58:28.000Z</time>
      </trkpt>
      <trkpt lat="44.87165" lon="1.49769">
        <ele>113</ele>
        <time>2019-02-02T07:59:28.000Z</time>
      </trkpt>
      <trkpt lat="44.87121" lon="1.49763">
        <ele>109</ele>
        <time>2019-02-02T08:00:28.000Z</time>
      </trkpt>
      <trkpt lat="44.87086" lon="1.49766">
        <ele>108</ele>
        <time>2019-02-02T08:01:28.000Z</time>
      </trkpt>
      <trkpt lat="44.87046" lon="1.49782">
        <ele>110</ele>
        <time>2019-02-02T08:02:28.000Z</time>
      </trkpt>
      <trkpt lat="44.87007" lon="1.49805">
        <ele>110</ele>
        <time>2019-02-02T08:03:28.000Z</time>
      </trkpt>
      <trkpt lat="44.86974" lon="1.49829">
        <ele>108</ele>
        <time>2019-02-02T08:04:28.000Z</time>
      </trkpt>
      <trkpt lat="44.86862" lon="1.49871">
        <ele>111</ele>
        <time>2019-02-02T08:05:28.000Z</time>
      </trkpt>
      <trkpt lat="44.86823" lon="1.49876">
        <ele>112</ele>
        <time>2019-02-02T08:06:28.000Z</time>
      </trkpt>
      <trkpt lat="44.86743" lon="1.49856">
        <ele>106</ele>
        <time>2019-02-02T08:07:28.000Z</time>
      </trkpt>
      <trkpt lat="44.8671" lon="1.49854">
        <ele>106</ele>
        <time>2019-02-02T08:08:28.000Z</time>
      </trkpt>
      <trkpt lat="44.86674" lon="1.49853">
        <ele>106</ele>
        <time>2019-02-02T08:09:28.000Z</time>
      </trkpt>
      <trkpt lat="44.86634" lon="1.49853">
        <ele>103</ele>
        <time>2019-02-02T08:10:28.000Z</time>
      </trkpt>
      <trkpt lat="44.86602" lon="1.49856">
        <ele>100</ele>
        <time>2019-02-02T08:11:28.000Z</time>
      </trkpt>
      <trkpt lat="44.86569" lon="1.49865">
        <ele>99</ele>
        <time>2019-02-02T08:12:28.000Z</time>
      </trkpt>
      <trkpt lat="44.86531" lon="1.49873">
        <ele>102</ele>
        <time>2019-02-02T08:13:28.000Z</time>
      </trkpt>
      <trkpt lat="44.86494" lon="1.49873">
        <ele>103</ele>
        <time>2019-02-02T08:14:28.000Z</time>
      </trkpt>
      <trkpt lat="44.86458" lon="1.49867">
        <ele>104</ele>
        <time>2019-02-02T08:15:28.000Z</time>
      </trkpt>
      <trkpt lat="44.86428" lon="1.49867">
        <ele>106</ele>
        <time>2019-02-02T08:16:28.000Z</time>
      </trkpt>
      <trkpt lat="44.86396" lon="1.49867">
        <ele>105</ele>
        <time>2019-02-02T08:17:28.000Z</time>
      </trkpt>
      <trkpt lat="44.86371" lon="1.49874">
        <ele>105</ele>
        <time>2019-02-02T08:18:28.000Z</time>
      </trkpt>
      <trkpt lat="44.86349" lon="1.49894">
        <ele>106</ele>
        <time>2019-02-02T08:19:28.000Z</time>
      </trkpt>
      <trkpt lat="44.86329" lon="1.49915">
        <ele>107</ele>
        <time>2019-02-02T08:20:28.000Z</time>
      </trkpt>
      <trkpt lat="44.86311" lon="1.49936">
        <ele>108</ele>
        <time>2019-02-02T08:21:28.000Z</time>
      </trkpt>
      <trkpt lat="44.86293" lon="1.49949">
        <ele>108</ele>
        <time>2019-02-02T08:22:28.000Z</time>
      </trkpt>
      <trkpt lat="44.86274" lon="1.49956">
        <ele>108</ele>
        <time>2019-02-02T08:23:28.000Z</time>
      </trkpt>
      <trkpt lat="44.86254" lon="1.49957">
        <ele>108</ele>
        <time>2019-02-02T08:24:28.000Z</time>
      </trkpt>
      <trkpt lat="44.86231" lon="1.4996">
        <ele>108</ele>
        <time>2019-02-02T08:25:28.000Z</time>
      </trkpt>
      <trkpt lat="44.86208" lon="1.49963">
        <ele>109</ele>
        <time>2019-02-02T08:26:28.000Z</time>
      </trkpt>
      <trkpt lat="44.86183" lon="1.49966">
        <ele>110</ele>
        <time>2019-02-02T08:27:28.000Z</time>
      </trkpt>
      <trkpt lat="44.8612" lon="1.49976">
        <ele>112</ele>
        <time>2019-02-02T08:28:28.000Z</time>
      </trkpt>
      <trkpt lat="44.86096" lon="1.4998">
        <ele>113</ele>
        <time>2019-02-02T08:29:28.000Z</time>
      </trkpt>
      <trkpt lat="44.86072" lon="1.49987">
        <ele>114</ele>
        <time>2019-02-02T08:30:28.000Z</time>
      </trkpt>
      <trkpt lat="44.8605" lon="1.50001">
        <ele>114</ele>
        <time>2019-02-02T08:31:28.000Z</time>
      </trkpt>
      <trkpt lat="44.86033" lon="1.50018">
        <ele>114</ele>
        <time>2019-02-02T08:32:28.000Z</time>
      </trkpt>
      <trkpt lat="44.86001" lon="1.50061">
        <ele>114</ele>
        <time>2019-02-02T08:33:28.000Z</time>
      </trkpt>
      <trkpt lat="44.85984" lon="1.50085">
        <ele>113</ele>
        <time>2019-02-02T08:34:28.000Z</time>
      </trkpt>
      <trkpt lat="44.85969" lon="1.50107">
        <ele>112</ele>
        <time>2019-02-02T08:35:28.000Z</time>
      </trkpt>
      <trkpt lat="44.85954" lon="1.50132">
        <ele>112</ele>
        <time>2019-02-02T08:36:28.000Z</time>
      </trkpt>
      <trkpt lat="44.85936" lon="1.50159">
        <ele>112</ele>
        <time>2019-02-02T08:37:28.000Z</time>
      </trkpt>
      <trkpt lat="44.85901" lon="1.50209">
        <ele>114</ele>
        <time>2019-02-02T08:38:28.000Z</time>
      </trkpt>
      <trkpt lat="44.85889" lon="1.50237">
        <ele>115</ele>
        <time>2019-02-02T08:39:28.000Z</time>
      </trkpt>
      <trkpt lat="44.85871" lon="1.50269">
        <ele>116</ele>
        <time>2019-02-02T08:40:28.000Z</time>
      </trkpt>
      <trkpt lat="44.85835" lon="1.50339">
        <ele>117</ele>
        <time>2019-02-02T08:41:28.000Z</time>
      </trkpt>
      <trkpt lat="44.85807" lon="1.50415">
        <ele>118</ele>
        <time>2019-02-02T08:42:28.000Z</time>
      </trkpt>
      <trkpt lat="44.85794" lon="1.50454">
        <ele>118</ele>
        <time>2019-02-02T08:43:28.000Z</time>
      </trkpt>
      <trkpt lat="44.85774" lon="1.50523">
        <ele>117</ele>
        <time>2019-02-02T08:44:28.000Z</time>
      </trkpt>
      <trkpt lat="44.85759" lon="1.50564">
        <ele>117</ele>
        <time>2019-02-02T08:45:28.000Z</time>
      </trkpt>
      <trkpt lat="44.85744" lon="1.50603">
        <ele>118</ele>
        <time>2019-02-02T08:46:28.000Z</time>
      </trkpt>
      <trkpt lat="44.85732" lon="1.50633">
        <ele>118</ele>
        <time>2019-02-02T08:47:28.000Z</time>
      </trkpt>
      <trkpt lat="44.85719" lon="1.50665">
        <ele>119</ele>
        <time>2019-02-02T08:48:28.000Z</time>
      </trkpt>
      <trkpt lat="44.85704" lon="1.50702">
        <ele>121</ele>
        <time>2019-02-02T08:49:28.000Z</time>
      </trkpt>
      <trkpt lat="44.85693" lon="1.50733">
        <ele>122</ele>
        <time>2019-02-02T08:50:28.000Z</time>
      </trkpt>
      <trkpt lat="44.85683" lon="1.5077">
        <ele>124</ele>
        <time>2019-02-02T08:51:28.000Z</time>
      </trkpt>
      <trkpt lat="44.85673" lon="1.50805">
        <ele>124</ele>
        <time>2019-02-02T08:52:28.000Z</time>
      </trkpt>
      <trkpt lat="44.85666" lon="1.50838">
        <ele>125</ele>
        <time>2019-02-02T08:53:28.000Z</time>
      </trkpt>
      <trkpt lat="44.85658" lon="1.50879">
        <ele>125</ele>
        <time>2019-02-02T08:54:28.000Z</time>
      </trkpt>
      <trkpt lat="44.85647" lon="1.50911">
        <ele>125</ele>
        <time>2019-02-02T08:55:28.000Z</time>
      </trkpt>
      <trkpt lat="44.85639" lon="1.50952">
        <ele>125</ele>
        <time>2019-02-02T08:56:28.000Z</time>
      </trkpt>
      <trkpt lat="44.85626" lon="1.50997">
        <ele>124</ele>
        <time>2019-02-02T08:57:28.000Z</time>
      </trkpt>
      <trkpt lat="44.85612" lon="1.51039">
        <ele>124</ele>
        <time>2019-02-02T08:58:28.000Z</time>
      </trkpt>
      <trkpt lat="44.85595" lon="1.51076">
        <ele>124</ele>
        <time>2019-02-02T08:59:28.000Z</time>
      </trkpt>
      <trkpt lat="44.8558" lon="1.51106">
        <ele>125</ele>
        <time>2019-02-02T09:00:28.000Z</time>
      </trkpt>
      <trkpt lat="44.85552" lon="1.51187">
        <ele>128</ele>
        <time>2019-02-02T09:01:28.000Z</time>
      </trkpt>
      <trkpt lat="44.85539" lon="1.51223">
        <ele>129</ele>
        <time>2019-02-02T09:02:28.000Z</time>
      </trkpt>
      <trkpt lat="44.85523" lon="1.51257">
        <ele>129</ele>
        <time>2019-02-02T09:03:28.000Z</time>
      </trkpt>
      <trkpt lat="44.85507" lon="1.51295">
        <ele>130</ele>
        <time>2019-02-02T09:04:28.000Z</time>
      </trkpt>
      <trkpt lat="44.8549" lon="1.51325">
        <ele>130</ele>
        <time>2019-02-02T09:05:28.000Z</time>
      </trkpt>
      <trkpt lat="44.85481" lon="1.51359">
        <ele>130</ele>
        <time>2019-02-02T09:06:28.000Z</time>
      </trkpt>
      <trkpt lat="44.85465" lon="1.51395">
        <ele>130</ele>
        <time>2019-02-02T09:07:28.000Z</time>
      </trkpt>
      <trkpt lat="44.8545" lon="1.51436">
        <ele>129</ele>
        <time>2019-02-02T09:08:28.000Z</time>
      </trkpt>
      <trkpt lat="44.8543" lon="1.51476">
        <ele>128</ele>
        <time>2019-02-02T09:09:28.000Z</time>
      </trkpt>
      <trkpt lat="44.85394" lon="1.5157">
        <ele>124</ele>
        <time>2019-02-02T09:10:28.000Z</time>
      </trkpt>
      <trkpt lat="44.85377" lon="1.5162">
        <ele>123</ele>
        <time>2019-02-02T09:11:28.000Z</time>
      </trkpt>
      <trkpt lat="44.85359" lon="1.51673">
        <ele>122</ele>
        <time>2019-02-02T09:12:28.000Z</time>
      </trkpt>
      <trkpt lat="44.85339" lon="1.51739">
        <ele>122</ele>
        <time>2019-02-02T09:13:28.000Z</time>
      </trkpt>
      <trkpt lat="44.85323" lon="1.51792">
        <ele>121</ele>
        <time>2019-02-02T09:14:28.000Z</time>
      </trkpt>
      <trkpt lat="44.85306" lon="1.51858">
        <ele>119</ele>
        <time>2019-02-02T09:15:28.000Z</time>
      </trkpt>
      <trkpt lat="44.85296" lon="1.51933">
        <ele>116</ele>
        <time>2019-02-02T09:16:28.000Z</time>
      </trkpt>
      <trkpt lat="44.85293" lon="1.52007">
        <ele>112</ele>
        <time>2019-02-02T09:17:28.000Z</time>
      </trkpt>
      <trkpt lat="44.85314" lon="1.52087">
        <ele>109</ele>
        <time>2019-02-02T09:18:28.000Z</time>
      </trkpt>
      <trkpt lat="44.85362" lon="1.52129">
        <ele>107</ele>
        <time>2019-02-02T09:19:28.000Z</time>
      </trkpt>
      <trkpt lat="44.85377" lon="1.52199">
        <ele>101</ele>
        <time>2019-02-02T09:20:28.000Z</time>
      </trkpt>
      <trkpt lat="44.85357" lon="1.52262">
        <ele>100</ele>
        <time>2019-02-02T09:21:28.000Z</time>
      </trkpt>
      <trkpt lat="44.8533" lon="1.52323">
        <ele>101</ele>
        <time>2019-02-02T09:22:28.000Z</time>
      </trkpt>
      <trkpt lat="44.85307" lon="1.52365">
        <ele>100</ele>
        <time>2019-02-02T09:23:28.000Z</time>
      </trkpt>
      <trkpt lat="44.85285" lon="1.52406">
        <ele>100</ele>
        <time>2019-02-02T09:24:28.000Z</time>
      </trkpt>
      <trkpt lat="44.85263" lon="1.52455">
        <ele>98</ele>
        <time>2019-02-02T09:25:28.000Z</time>
      </trkpt>
      <trkpt lat="44.85242" lon="1.52492">
        <ele>96</ele>
        <time>2019-02-02T09:26:28.000Z</time>
      </trkpt>
      <trkpt lat="44.85224" lon="1.52526">
        <ele>96</ele>
        <time>2019-02-02T09:27:28.000Z</time>
      </trkpt>
      <trkpt lat="44.85211" lon="1.52557">
        <ele>96</ele>
        <time>2019-02-02T09:28:28.000Z</time>
      </trkpt>
      <trkpt lat="44.85198" lon="1.52582">
        <ele>96</ele>
        <time>2019-02-02T09:29:28.000Z</time>
      </trkpt>
      <trkpt lat="44.85186" lon="1.52605">
        <ele>97</ele>
        <time>2019-02-02T09:30:28.000Z</time>
      </trkpt>
      <trkpt lat="44.85176" lon="1.52626">
        <ele>99</ele>
        <time>2019-02-02T09:31:28.000Z</time>
      </trkpt>
      <trkpt lat="44.85159" lon="1.52667">
        <ele>102</ele>
        <time>2019-02-02T09:32:28.000Z</time>
      </trkpt>
      <trkpt lat="44.8514" lon="1.52697">
        <ele>107</ele>
        <time>2019-02-02T09:33:28.000Z</time>
      </trkpt>
      <trkpt lat="44.85116" lon="1.52747">
        <ele>111</ele>
        <time>2019-02-02T09:34:28.000Z</time>
      </trkpt>
      <trkpt lat="44.85101" lon="1.52768">
        <ele>111</ele>
        <time>2019-02-02T09:35:28.000Z</time>
      </trkpt>
      <trkpt lat="44.8509" lon="1.52785">
        <ele>112</ele>
        <time>2019-02-02T09:36:28.000Z</time>
      </trkpt>
      <trkpt lat="44.85077" lon="1.52805">
        <ele>112</ele>
        <time>2019-02-02T09:37:28.000Z</time>
      </trkpt>
      <trkpt lat="44.85054" lon="1.52848">
        <ele>113</ele>
        <time>2019-02-02T09:38:28.000Z</time>
      </trkpt>
      <trkpt lat="44.85023" lon="1.52898">
        <ele>115</ele>
        <time>2019-02-02T09:39:28.000Z</time>
      </trkpt>
      <trkpt lat="44.85011" lon="1.52919">
        <ele>116</ele>
        <time>2019-02-02T09:40:28.000Z</time>
      </trkpt>
      <trkpt lat="44.85" lon="1.52936">
        <ele>117</ele>
        <time>2019-02-02T09:41:28.000Z</time>
      </trkpt>
      <trkpt lat="44.84991" lon="1.5295">
        <ele>117</ele>
        <time>2019-02-02T09:42:28.000Z</time>
      </trkpt>
      <trkpt lat="44.84978" lon="1.52968">
        <ele>118</ele>
        <time>2019-02-02T09:43:28.000Z</time>
      </trkpt>
      <trkpt lat="44.84963" lon="1.52984">
        <ele>118</ele>
        <time>2019-02-02T09:44:28.000Z</time>
      </trkpt>
      <trkpt lat="44.84938" lon="1.53015">
        <ele>119</ele>
        <time>2019-02-02T09:45:28.000Z</time>
      </trkpt>
      <trkpt lat="44.84925" lon="1.53034">
        <ele>119</ele>
        <time>2019-02-02T09:46:28.000Z</time>
      </trkpt>
      <trkpt lat="44.84912" lon="1.53049">
        <ele>119</ele>
        <time>2019-02-02T09:47:28.000Z</time>
      </trkpt>
      <trkpt lat="44.84899" lon="1.53065">
        <ele>120</ele>
        <time>2019-02-02T09:48:28.000Z</time>
      </trkpt>
      <trkpt lat="44.84882" lon="1.53087">
        <ele>121</ele>
        <time>2019-02-02T09:49:28.000Z</time>
      </trkpt>
      <trkpt lat="44.84866" lon="1.53107">
        <ele>123</ele>
        <time>2019-02-02T09:50:28.000Z</time>
      </trkpt>
      <trkpt lat="44.84854" lon="1.53128">
        <ele>124</ele>
        <time>2019-02-02T09:51:28.000Z</time>
      </trkpt>
      <trkpt lat="44.84847" lon="1.5315">
        <ele>125</ele>
        <time>2019-02-02T09:52:28.000Z</time>
      </trkpt>
      <trkpt lat="44.84843" lon="1.53177">
        <ele>127</ele>
        <time>2019-02-02T09:53:28.000Z</time>
      </trkpt>
      <trkpt lat="44.8484" lon="1.53204">
        <ele>128</ele>
        <time>2019-02-02T09:54:28.000Z</time>
      </trkpt>
      <trkpt lat="44.84836" lon="1.5325">
        <ele>131</ele>
        <time>2019-02-02T09:55:28.000Z</time>
      </trkpt>
      <trkpt lat="44.84836" lon="1.53276">
        <ele>131</ele>
        <time>2019-02-02T09:56:28.000Z</time>
      </trkpt>
      <trkpt lat="44.8484" lon="1.53299">
        <ele>132</ele>
        <time>2019-02-02T09:57:28.000Z</time>
      </trkpt>
      <trkpt lat="44.84846" lon="1.53321">
        <ele>132</ele>
        <time>2019-02-02T09:58:28.000Z</time>
      </trkpt>
      <trkpt lat="44.84858" lon="1.53345">
        <ele>131</ele>
        <time>2019-02-02T09:59:28.000Z</time>
      </trkpt>
      <trkpt lat="44.84869" lon="1.53362">
        <ele>130</ele>
        <time>2019-02-02T10:00:28.000Z</time>
      </trkpt>
      <trkpt lat="44.84886" lon="1.53387">
        <ele>129</ele>
        <time>2019-02-02T10:01:28.000Z</time>
      </trkpt>
      <trkpt lat="44.84908" lon="1.53415">
        <ele>127</ele>
        <time>2019-02-02T10:02:28.000Z</time>
      </trkpt>
      <trkpt lat="44.84938" lon="1.53459">
        <ele>123</ele>
        <time>2019-02-02T10:03:28.000Z</time>
      </trkpt>
      <trkpt lat="44.84975" lon="1.53513">
        <ele>119</ele>
        <time>2019-02-02T10:04:28.000Z</time>
      </trkpt>
      <trkpt lat="44.85002" lon="1.53571">
        <ele>118</ele>
        <time>2019-02-02T10:05:28.000Z</time>
      </trkpt>
      <trkpt lat="44.85011" lon="1.5364">
        <ele>119</ele>
        <time>2019-02-02T10:06:28.000Z</time>
      </trkpt>
      <trkpt lat="44.85002" lon="1.53689">
        <ele>121</ele>
        <time>2019-02-02T10:07:28.000Z</time>
      </trkpt>
      <trkpt lat="44.84992" lon="1.53725">
        <ele>123</ele>
        <time>2019-02-02T10:08:28.000Z</time>
      </trkpt>
      <trkpt lat="44.84982" lon="1.53801">
        <ele>127</ele>
        <time>2019-02-02T10:09:28.000Z</time>
      </trkpt>
      <trkpt lat="44.84977" lon="1.53847">
        <ele>130</ele>
        <time>2019-02-02T10:10:28.000Z</time>
      </trkpt>
      <trkpt lat="44.84973" lon="1.5387">
        <ele>131</ele>
        <time>2019-02-02T10:11:28.000Z</time>
      </trkpt>
      <trkpt lat="44.8497" lon="1.53892">
        <ele>132</ele>
        <time>2019-02-02T10:12:28.000Z</time>
      </trkpt>
      <trkpt lat="44.84968" lon="1.53913">
        <ele>133</ele>
        <time>2019-02-02T10:13:28.000Z</time>
      </trkpt>
      <trkpt lat="44.84963" lon="1.53937">
        <ele>135</ele>
        <time>2019-02-02T10:14:28.000Z</time>
      </trkpt>
      <trkpt lat="44.84954" lon="1.53959">
        <ele>135</ele>
        <time>2019-02-02T10:15:28.000Z</time>
      </trkpt>
      <trkpt lat="44.84948" lon="1.53973">
        <ele>136</ele>
        <time>2019-02-02T10:16:28.000Z</time>
      </trkpt>
      <trkpt lat="44.84941" lon="1.53989">
        <ele>136</ele>
        <time>2019-02-02T10:17:28.000Z</time>
      </trkpt>
      <trkpt lat="44.84932" lon="1.54007">
        <ele>136</ele>
        <time>2019-02-02T10:18:28.000Z</time>
      </trkpt>
      <trkpt lat="44.84917" lon="1.54043">
        <ele>138</ele>
        <time>2019-02-02T10:19:28.000Z</time>
      </trkpt>
      <trkpt lat="44.84909" lon="1.54059">
        <ele>139</ele>
        <time>2019-02-02T10:20:28.000Z</time>
      </trkpt>
      <trkpt lat="44.84898" lon="1.54076">
        <ele>140</ele>
        <time>2019-02-02T10:21:28.000Z</time>
      </trkpt>
      <trkpt lat="44.84889" lon="1.5409">
        <ele>140</ele>
        <time>2019-02-02T10:22:28.000Z</time>
      </trkpt>
      <trkpt lat="44.84876" lon="1.54102">
        <ele>141</ele>
        <time>2019-02-02T10:23:28.000Z</time>
      </trkpt>
      <trkpt lat="44.84866" lon="1.5411">
        <ele>142</ele>
        <time>2019-02-02T10:24:28.000Z</time>
      </trkpt>
      <trkpt lat="44.84853" lon="1.54121">
        <ele>142</ele>
        <time>2019-02-02T10:25:28.000Z</time>
      </trkpt>
      <trkpt lat="44.84843" lon="1.5413">
        <ele>143</ele>
        <time>2019-02-02T10:26:28.000Z</time>
      </trkpt>
      <trkpt lat="44.84829" lon="1.54142">
        <ele>145</ele>
        <time>2019-02-02T10:27:28.000Z</time>
      </trkpt>
      <trkpt lat="44.84815" lon="1.54153">
        <ele>146</ele>
        <time>2019-02-02T10:28:28.000Z</time>
      </trkpt>
      <trkpt lat="44.84799" lon="1.54166">
        <ele>147</ele>
        <time>2019-02-02T10:29:28.000Z</time>
      </trkpt>
      <trkpt lat="44.84787" lon="1.54174">
        <ele>147</ele>
        <time>2019-02-02T10:30:28.000Z</time>
      </trkpt>
      <trkpt lat="44.84776" lon="1.54184">
        <ele>148</ele>
        <time>2019-02-02T10:31:28.000Z</time>
      </trkpt>
      <trkpt lat="44.84747" lon="1.54206">
        <ele>148</ele>
        <time>2019-02-02T10:32:28.000Z</time>
      </trkpt>
      <trkpt lat="44.84735" lon="1.54213">
        <ele>149</ele>
        <time>2019-02-02T10:33:28.000Z</time>
      </trkpt>
      <trkpt lat="44.8472" lon="1.54222">
        <ele>150</ele>
        <time>2019-02-02T10:34:28.000Z</time>
      </trkpt>
      <trkpt lat="44.84709" lon="1.54229">
        <ele>151</ele>
        <time>2019-02-02T10:35:28.000Z</time>
      </trkpt>
      <trkpt lat="44.84699" lon="1.5424">
        <ele>152</ele>
        <time>2019-02-02T10:36:28.000Z</time>
      </trkpt>
      <trkpt lat="44.84689" lon="1.54247">
        <ele>152</ele>
        <time>2019-02-02T10:37:28.000Z</time>
      </trkpt>
      <trkpt lat="44.84676" lon="1.54258">
        <ele>153</ele>
        <time>2019-02-02T10:38:28.000Z</time>
      </trkpt>
      <trkpt lat="44.84667" lon="1.5427">
        <ele>154</ele>
        <time>2019-02-02T10:39:28.000Z</time>
      </trkpt>
      <trkpt lat="44.84657" lon="1.54283">
        <ele>156</ele>
        <time>2019-02-02T10:40:28.000Z</time>
      </trkpt>
      <trkpt lat="44.84647" lon="1.54298">
        <ele>157</ele>
        <time>2019-02-02T10:41:28.000Z</time>
      </trkpt>
      <trkpt lat="44.84638" lon="1.54314">
        <ele>159</ele>
        <time>2019-02-02T10:42:28.000Z</time>
      </trkpt>
      <trkpt lat="44.8463" lon="1.5433">
        <ele>160</ele>
        <time>2019-02-02T10:43:28.000Z</time>
      </trkpt>
      <trkpt lat="44.84624" lon="1.54345">
        <ele>161</ele>
        <time>2019-02-02T10:44:28.000Z</time>
      </trkpt>
      <trkpt lat="44.84618" lon="1.54358">
        <ele>162</ele>
        <time>2019-02-02T10:45:28.000Z</time>
      </trkpt>
      <trkpt lat="44.84601" lon="1.54388">
        <ele>164</ele>
        <time>2019-02-02T10:46:28.000Z</time>
      </trkpt>
      <trkpt lat="44.84593" lon="1.54406">
        <ele>164</ele>
        <time>2019-02-02T10:47:28.000Z</time>
      </trkpt>
      <trkpt lat="44.84585" lon="1.54423">
        <ele>165</ele>
        <time>2019-02-02T10:48:28.000Z</time>
      </trkpt>
      <trkpt lat="44.84577" lon="1.54439">
        <ele>164</ele>
        <time>2019-02-02T10:49:28.000Z</time>
      </trkpt>
      <trkpt lat="44.84567" lon="1.54458">
        <ele>164</ele>
        <time>2019-02-02T10:50:28.000Z</time>
      </trkpt>
      <trkpt lat="44.84557" lon="1.54483">
        <ele>163</ele>
        <time>2019-02-02T10:51:28.000Z</time>
      </trkpt>
      <trkpt lat="44.84542" lon="1.54515">
        <ele>162</ele>
        <time>2019-02-02T10:52:28.000Z</time>
      </trkpt>
      <trkpt lat="44.84522" lon="1.54554">
        <ele>160</ele>
        <time>2019-02-02T10:53:28.000Z</time>
      </trkpt>
      <trkpt lat="44.84502" lon="1.54591">
        <ele>158</ele>
        <time>2019-02-02T10:54:28.000Z</time>
      </trkpt>
      <trkpt lat="44.84479" lon="1.54641">
        <ele>158</ele>
        <time>2019-02-02T10:55:28.000Z</time>
      </trkpt>
      <trkpt lat="44.84462" lon="1.54696">
        <ele>160</ele>
        <time>2019-02-02T10:56:28.000Z</time>
      </trkpt>
      <trkpt lat="44.84447" lon="1.54741">
        <ele>161</ele>
        <time>2019-02-02T10:57:28.000Z</time>
      </trkpt>
      <trkpt lat="44.84419" lon="1.54785">
        <ele>157</ele>
        <time>2019-02-02T10:58:28.000Z</time>
      </trkpt>
      <trkpt lat="44.84383" lon="1.54817">
        <ele>155</ele>
        <time>2019-02-02T10:59:28.000Z</time>
      </trkpt>
      <trkpt lat="44.84326" lon="1.54863">
        <ele>153</ele>
        <time>2019-02-02T11:00:28.000Z</time>
      </trkpt>
      <trkpt lat="44.84287" lon="1.54894">
        <ele>151</ele>
        <time>2019-02-02T11:01:28.000Z</time>
      </trkpt>
      <trkpt lat="44.84244" lon="1.54948">
        <ele>147</ele>
        <time>2019-02-02T11:02:28.000Z</time>
      </trkpt>
      <trkpt lat="44.84216" lon="1.55028">
        <ele>139</ele>
        <time>2019-02-02T11:03:28.000Z</time>
      </trkpt>
      <trkpt lat="44.84168" lon="1.5507">
        <ele>137</ele>
        <time>2019-02-02T11:04:28.000Z</time>
      </trkpt>
      <trkpt lat="44.84123" lon="1.55092">
        <ele>134</ele>
        <time>2019-02-02T11:05:28.000Z</time>
      </trkpt>
      <trkpt lat="44.84077" lon="1.55086">
        <ele>139</ele>
        <time>2019-02-02T11:06:28.000Z</time>
      </trkpt>
      <trkpt lat="44.84017" lon="1.55108">
        <ele>138</ele>
        <time>2019-02-02T11:07:28.000Z</time>
      </trkpt>
      <trkpt lat="44.83955" lon="1.55148">
        <ele>124</ele>
        <time>2019-02-02T11:08:28.000Z</time>
      </trkpt>
      <trkpt lat="44.83901" lon="1.55148">
        <ele>120</ele>
        <time>2019-02-02T11:09:28.000Z</time>
      </trkpt>
      <trkpt lat="44.83895" lon="1.5508">
        <ele>129</ele>
        <time>2019-02-02T11:10:28.000Z</time>
      </trkpt>
      <trkpt lat="44.83873" lon="1.55017">
        <ele>127</ele>
        <time>2019-02-02T11:11:28.000Z</time>
      </trkpt>
      <trkpt lat="44.83835" lon="1.54945">
        <ele>121</ele>
        <time>2019-02-02T11:12:28.000Z</time>
      </trkpt>
      <trkpt lat="44.83782" lon="1.54886">
        <ele>118</ele>
        <time>2019-02-02T11:13:28.000Z</time>
      </trkpt>
      <trkpt lat="44.83757" lon="1.54828">
        <ele>120</ele>
        <time>2019-02-02T11:14:28.000Z</time>
      </trkpt>
      <trkpt lat="44.83726" lon="1.54828">
        <ele>115</ele>
        <time>2019-02-02T11:15:28.000Z</time>
      </trkpt>
      <trkpt lat="44.83742" lon="1.54875">
        <ele>110</ele>
        <time>2019-02-02T11:16:28.000Z</time>
      </trkpt>
      <trkpt lat="44.83767" lon="1.54903">
        <ele>111</ele>
        <time>2019-02-02T11:17:28.000Z</time>
      </trkpt>
      <trkpt lat="44.83793" lon="1.54935">
        <ele>113</ele>
        <time>2019-02-02T11:18:28.000Z</time>
      </trkpt>
      <trkpt lat="44.8382" lon="1.54971">
        <ele>114</ele>
        <time>2019-02-02T11:19:28.000Z</time>
      </trkpt>
      <trkpt lat="44.8384" lon="1.55009">
        <ele>115</ele>
        <time>2019-02-02T11:20:28.000Z</time>
      </trkpt>
      <trkpt lat="44.83856" lon="1.55049">
        <ele>117</ele>
        <time>2019-02-02T11:21:28.000Z</time>
      </trkpt>
      <trkpt lat="44.83866" lon="1.55103">
        <ele>116</ele>
        <time>2019-02-02T11:22:28.000Z</time>
      </trkpt>
      <trkpt lat="44.83867" lon="1.55154">
        <ele>111</ele>
        <time>2019-02-02T11:23:28.000Z</time>
      </trkpt>
      <trkpt lat="44.83867" lon="1.55209">
        <ele>105</ele>
        <time>2019-02-02T11:24:28.000Z</time>
      </trkpt>
      <trkpt lat="44.83883" lon="1.55241">
        <ele>102</ele>
        <time>2019-02-02T11:25:28.000Z</time>
      </trkpt>
      <trkpt lat="44.83917" lon="1.55236">
        <ele>105</ele>
        <time>2019-02-02T11:26:28.000Z</time>
      </trkpt>
      <trkpt lat="44.83948" lon="1.55223">
        <ele>107</ele>
        <time>2019-02-02T11:27:28.000Z</time>
      </trkpt>
      <trkpt lat="44.83973" lon="1.55201">
        <ele>111</ele>
        <time>2019-02-02T11:28:28.000Z</time>
      </trkpt>
      <trkpt lat="44.84003" lon="1.55178">
        <ele>114</ele>
        <time>2019-02-02T11:29:28.000Z</time>
      </trkpt>
      <trkpt lat="44.84024" lon="1.55163">
        <ele>116</ele>
        <time>2019-02-02T11:30:28.000Z</time>
      </trkpt>
      <trkpt lat="44.8405" lon="1.55147">
        <ele>120</ele>
        <time>2019-02-02T11:31:28.000Z</time>
      </trkpt>
      <trkpt lat="44.84074" lon="1.55141">
        <ele>120</ele>
        <time>2019-02-02T11:32:28.000Z</time>
      </trkpt>
      <trkpt lat="44.84137" lon="1.55139">
        <ele>116</ele>
        <time>2019-02-02T11:33:28.000Z</time>
      </trkpt>
      <trkpt lat="44.84173" lon="1.55133">
        <ele>116</ele>
        <time>2019-02-02T11:34:28.000Z</time>
      </trkpt>
      <trkpt lat="44.84208" lon="1.55138">
        <ele>111</ele>
        <time>2019-02-02T11:35:28.000Z</time>
      </trkpt>
      <trkpt lat="44.84231" lon="1.5515">
        <ele>106</ele>
        <time>2019-02-02T11:36:28.000Z</time>
      </trkpt>
      <trkpt lat="44.84253" lon="1.55161">
        <ele>103</ele>
        <time>2019-02-02T11:37:28.000Z</time>
      </trkpt>
      <trkpt lat="44.84281" lon="1.55178">
        <ele>102</ele>
        <time>2019-02-02T11:38:28.000Z</time>
      </trkpt>
      <trkpt lat="44.84304" lon="1.55193">
        <ele>104</ele>
        <time>2019-02-02T11:39:28.000Z</time>
      </trkpt>
      <trkpt lat="44.84299" lon="1.55231">
        <ele>108</ele>
        <time>2019-02-02T11:40:28.000Z</time>
      </trkpt>
      <trkpt lat="44.84275" lon="1.5525">
        <ele>108</ele>
        <time>2019-02-02T11:41:28.000Z</time>
      </trkpt>
      <trkpt lat="44.84252" lon="1.55265">
        <ele>109</ele>
        <time>2019-02-02T11:42:28.000Z</time>
      </trkpt>
      <trkpt lat="44.84233" lon="1.55276">
        <ele>109</ele>
        <time>2019-02-02T11:43:28.000Z</time>
      </trkpt>
      <trkpt lat="44.84212" lon="1.55292">
        <ele>109</ele>
        <time>2019-02-02T11:44:28.000Z</time>
      </trkpt>
      <trkpt lat="44.84202" lon="1.55308">
        <ele>110</ele>
        <time>2019-02-02T11:45:28.000Z</time>
      </trkpt>
      <trkpt lat="44.84194" lon="1.55351">
        <ele>114</ele>
        <time>2019-02-02T11:46:28.000Z</time>
      </trkpt>
      <trkpt lat="44.84191" lon="1.55365">
        <ele>115</ele>
        <time>2019-02-02T11:47:28.000Z</time>
      </trkpt>
      <trkpt lat="44.84185" lon="1.55375">
        <ele>115</ele>
        <time>2019-02-02T11:48:28.000Z</time>
      </trkpt>
      <trkpt lat="44.84177" lon="1.55385">
        <ele>115</ele>
        <time>2019-02-02T11:49:28.000Z</time>
      </trkpt>
      <trkpt lat="44.84173" lon="1.55399">
        <ele>116</ele>
        <time>2019-02-02T11:50:28.000Z</time>
      </trkpt>
      <trkpt lat="44.84173" lon="1.55412">
        <ele>117</ele>
        <time>2019-02-02T11:51:28.000Z</time>
      </trkpt>
      <trkpt lat="44.8418" lon="1.55422">
        <ele>120</ele>
        <time>2019-02-02T11:52:28.000Z</time>
      </trkpt>
      <trkpt lat="44.84189" lon="1.55426">
        <ele>121</ele>
        <time>2019-02-02T11:53:28.000Z</time>
      </trkpt>
      <trkpt lat="44.84198" lon="1.55419">
        <ele>122</ele>
        <time>2019-02-02T11:54:28.000Z</time>
      </trkpt>
      <trkpt lat="44.84206" lon="1.55412">
        <ele>122</ele>
        <time>2019-02-02T11:55:28.000Z</time>
      </trkpt>
      <trkpt lat="44.8422" lon="1.55391">
        <ele>122</ele>
        <time>2019-02-02T11:56:28.000Z</time>
      </trkpt>
      <trkpt lat="44.84227" lon="1.55382">
        <ele>122</ele>
        <time>2019-02-02T11:57:28.000Z</time>
      </trkpt>
      <trkpt lat="44.84236" lon="1.55375">
        <ele>122</ele>
        <time>2019-02-02T11:58:28.000Z</time>
      </trkpt>
      <trkpt lat="44.84239" lon="1.55361">
        <ele>121</ele>
        <time>2019-02-02T11:59:28.000Z</time>
      </trkpt>
      <trkpt lat="44.84251" lon="1.5532">
        <ele>118</ele>
        <time>2019-02-02T12:00:28.000Z</time>
      </trkpt>
      <trkpt lat="44.84269" lon="1.55285">
        <ele>113</ele>
        <time>2019-02-02T12:01:28.000Z</time>
      </trkpt>
      <trkpt lat="44.84278" lon="1.55276">
        <ele>112</ele>
        <time>2019-02-02T12:02:28.000Z</time>
      </trkpt>
      <trkpt lat="44.84291" lon="1.5527">
        <ele>112</ele>
        <time>2019-02-02T12:03:28.000Z</time>
      </trkpt>
      <trkpt lat="44.84315" lon="1.55265">
        <ele>113</ele>
        <time>2019-02-02T12:04:28.000Z</time>
      </trkpt>
      <trkpt lat="44.84328" lon="1.55264">
        <ele>114</ele>
        <time>2019-02-02T12:05:28.000Z</time>
      </trkpt>
      <trkpt lat="44.84324" lon="1.55276">
        <ele>116</ele>
        <time>2019-02-02T12:06:28.000Z</time>
      </trkpt>
      <trkpt lat="44.84312" lon="1.55279">
        <ele>115</ele>
        <time>2019-02-02T12:07:28.000Z</time>
      </trkpt>
      <trkpt lat="44.84303" lon="1.55287">
        <ele>116</ele>
        <time>2019-02-02T12:08:28.000Z</time>
      </trkpt>
      <trkpt lat="44.84292" lon="1.55301">
        <ele>118</ele>
        <time>2019-02-02T12:09:28.000Z</time>
      </trkpt>
      <trkpt lat="44.84283" lon="1.55318">
        <ele>120</ele>
        <time>2019-02-02T12:10:28.000Z</time>
      </trkpt>
      <trkpt lat="44.84278" lon="1.55334">
        <ele>122</ele>
        <time>2019-02-02T12:11:28.000Z</time>
      </trkpt>
      <trkpt lat="44.84273" lon="1.55353">
        <ele>123</ele>
        <time>2019-02-02T12:12:28.000Z</time>
      </trkpt>
      <trkpt lat="44.84265" lon="1.554">
        <ele>127</ele>
        <time>2019-02-02T12:13:28.000Z</time>
      </trkpt>
      <trkpt lat="44.84259" lon="1.5543">
        <ele>130</ele>
        <time>2019-02-02T12:14:28.000Z</time>
      </trkpt>
      <trkpt lat="44.84256" lon="1.55442">
        <ele>131</ele>
        <time>2019-02-02T12:15:28.000Z</time>
      </trkpt>
      <trkpt lat="44.84254" lon="1.55455">
        <ele>133</ele>
        <time>2019-02-02T12:16:28.000Z</time>
      </trkpt>
      <trkpt lat="44.84251" lon="1.5547">
        <ele>135</ele>
        <time>2019-02-02T12:17:28.000Z</time>
      </trkpt>
      <trkpt lat="44.84248" lon="1.55485">
        <ele>136</ele>
        <time>2019-02-02T12:18:28.000Z</time>
      </trkpt>
      <trkpt lat="44.84245" lon="1.55499">
        <ele>137</ele>
        <time>2019-02-02T12:19:28.000Z</time>
      </trkpt>
      <trkpt lat="44.84244" lon="1.55514">
        <ele>139</ele>
        <time>2019-02-02T12:20:28.000Z</time>
      </trkpt>
      <trkpt lat="44.84245" lon="1.55528">
        <ele>141</ele>
        <time>2019-02-02T12:21:28.000Z</time>
      </trkpt>
      <trkpt lat="44.84246" lon="1.55542">
        <ele>143</ele>
        <time>2019-02-02T12:22:28.000Z</time>
      </trkpt>
      <trkpt lat="44.84247" lon="1.55556">
        <ele>145</ele>
        <time>2019-02-02T12:23:28.000Z</time>
      </trkpt>
      <trkpt lat="44.8425" lon="1.55569">
        <ele>146</ele>
        <time>2019-02-02T12:24:28.000Z</time>
      </trkpt>
      <trkpt lat="44.84254" lon="1.55583">
        <ele>147</ele>
        <time>2019-02-02T12:25:28.000Z</time>
      </trkpt>
      <trkpt lat="44.84256" lon="1.55597">
        <ele>148</ele>
        <time>2019-02-02T12:26:28.000Z</time>
      </trkpt>
      <trkpt lat="44.8426" lon="1.5561">
        <ele>148</ele>
        <time>2019-02-02T12:27:28.000Z</time>
      </trkpt>
      <trkpt lat="44.84266" lon="1.55623">
        <ele>148</ele>
        <time>2019-02-02T12:28:28.000Z</time>
      </trkpt>
      <trkpt lat="44.8427" lon="1.55634">
        <ele>148</ele>
        <time>2019-02-02T12:29:28.000Z</time>
      </trkpt>
      <trkpt lat="44.84274" lon="1.55647">
        <ele>148</ele>
        <time>2019-02-02T12:30:28.000Z</time>
      </trkpt>
      <trkpt lat="44.84276" lon="1.5566">
        <ele>149</ele>
        <time>2019-02-02T12:31:28.000Z</time>
      </trkpt>
      <trkpt lat="44.84275" lon="1.55674">
        <ele>150</ele>
        <time>2019-02-02T12:32:28.000Z</time>
      </trkpt>
      <trkpt lat="44.84272" lon="1.55687">
        <ele>150</ele>
        <time>2019-02-02T12:33:28.000Z</time>
      </trkpt>
      <trkpt lat="44.84267" lon="1.55699">
        <ele>152</ele>
        <time>2019-02-02T12:34:28.000Z</time>
      </trkpt>
      <trkpt lat="44.84254" lon="1.55722">
        <ele>156</ele>
        <time>2019-02-02T12:35:28.000Z</time>
      </trkpt>
      <trkpt lat="44.84249" lon="1.55733">
        <ele>158</ele>
        <time>2019-02-02T12:36:28.000Z</time>
      </trkpt>
      <trkpt lat="44.84244" lon="1.55745">
        <ele>159</ele>
        <time>2019-02-02T12:37:28.000Z</time>
      </trkpt>
      <trkpt lat="44.84238" lon="1.55758">
        <ele>158</ele>
        <time>2019-02-02T12:38:28.000Z</time>
      </trkpt>
      <trkpt lat="44.84232" lon="1.55766">
        <ele>157</ele>
        <time>2019-02-02T12:39:28.000Z</time>
      </trkpt>
      <trkpt lat="44.84222" lon="1.5577">
        <ele>158</ele>
        <time>2019-02-02T12:40:28.000Z</time>
      </trkpt>
      <trkpt lat="44.84212" lon="1.55773">
        <ele>160</ele>
        <time>2019-02-02T12:41:28.000Z</time>
      </trkpt>
      <trkpt lat="44.84202" lon="1.55771">
        <ele>162</ele>
        <time>2019-02-02T12:42:28.000Z</time>
      </trkpt>
      <trkpt lat="44.8418" lon="1.55766">
        <ele>166</ele>
        <time>2019-02-02T12:43:28.000Z</time>
      </trkpt>
      <trkpt lat="44.84149" lon="1.55763">
        <ele>171</ele>
        <time>2019-02-02T12:44:28.000Z</time>
      </trkpt>
      <trkpt lat="44.84139" lon="1.55766">
        <ele>172</ele>
        <time>2019-02-02T12:45:28.000Z</time>
      </trkpt>
      <trkpt lat="44.8413" lon="1.5577">
        <ele>173</ele>
        <time>2019-02-02T12:46:28.000Z</time>
      </trkpt>
      <trkpt lat="44.8412" lon="1.55772">
        <ele>174</ele>
        <time>2019-02-02T12:47:28.000Z</time>
      </trkpt>
      <trkpt lat="44.84111" lon="1.55776">
        <ele>175</ele>
        <time>2019-02-02T12:48:28.000Z</time>
      </trkpt>
      <trkpt lat="44.84102" lon="1.55782">
        <ele>176</ele>
        <time>2019-02-02T12:49:28.000Z</time>
      </trkpt>
      <trkpt lat="44.84093" lon="1.55788">
        <ele>177</ele>
        <time>2019-02-02T12:50:28.000Z</time>
      </trkpt>
      <trkpt lat="44.84085" lon="1.55796">
        <ele>179</ele>
        <time>2019-02-02T12:51:28.000Z</time>
      </trkpt>
      <trkpt lat="44.84077" lon="1.55802">
        <ele>180</ele>
        <time>2019-02-02T12:52:28.000Z</time>
      </trkpt>
      <trkpt lat="44.84069" lon="1.55809">
        <ele>181</ele>
        <time>2019-02-02T12:53:28.000Z</time>
      </trkpt>
      <trkpt lat="44.84061" lon="1.55817">
        <ele>181</ele>
        <time>2019-02-02T12:54:28.000Z</time>
      </trkpt>
      <trkpt lat="44.84055" lon="1.55826">
        <ele>182</ele>
        <time>2019-02-02T12:55:28.000Z</time>
      </trkpt>
      <trkpt lat="44.84048" lon="1.55834">
        <ele>183</ele>
        <time>2019-02-02T12:56:28.000Z</time>
      </trkpt>
      <trkpt lat="44.8404" lon="1.55842">
        <ele>184</ele>
        <time>2019-02-02T12:57:28.000Z</time>
      </trkpt>
      <trkpt lat="44.84033" lon="1.5585">
        <ele>184</ele>
        <time>2019-02-02T12:58:28.000Z</time>
      </trkpt>
      <trkpt lat="44.84026" lon="1.55858">
        <ele>185</ele>
        <time>2019-02-02T12:59:28.000Z</time>
      </trkpt>
      <trkpt lat="44.84018" lon="1.55867">
        <ele>186</ele>
        <time>2019-02-02T13:00:28.000Z</time>
      </trkpt>
      <trkpt lat="44.8401" lon="1.55874">
        <ele>187</ele>
        <time>2019-02-02T13:01:28.000Z</time>
      </trkpt>
      <trkpt lat="44.84001" lon="1.55881">
        <ele>188</ele>
        <time>2019-02-02T13:02:28.000Z</time>
      </trkpt>
      <trkpt lat="44.83993" lon="1.55889">
        <ele>190</ele>
        <time>2019-02-02T13:03:28.000Z</time>
      </trkpt>
      <trkpt lat="44.83985" lon="1.55897">
        <ele>191</ele>
        <time>2019-02-02T13:04:28.000Z</time>
      </trkpt>
      <trkpt lat="44.83977" lon="1.55904">
        <ele>191</ele>
        <time>2019-02-02T13:05:28.000Z</time>
      </trkpt>
      <trkpt lat="44.83968" lon="1.5591">
        <ele>192</ele>
        <time>2019-02-02T13:06:28.000Z</time>
      </trkpt>
      <trkpt lat="44.83958" lon="1.55915">
        <ele>194</ele>
        <time>2019-02-02T13:07:28.000Z</time>
      </trkpt>
      <trkpt lat="44.83938" lon="1.55922">
        <ele>195</ele>
        <time>2019-02-02T13:08:28.000Z</time>
      </trkpt>
      <trkpt lat="44.83928" lon="1.55924">
        <ele>196</ele>
        <time>2019-02-02T13:09:28.000Z</time>
      </trkpt>
      <trkpt lat="44.83918" lon="1.55926">
        <ele>196</ele>
        <time>2019-02-02T13:10:28.000Z</time>
      </trkpt>
      <trkpt lat="44.83908" lon="1.55926">
        <ele>197</ele>
        <time>2019-02-02T13:11:28.000Z</time>
      </trkpt>
      <trkpt lat="44.83899" lon="1.55924">
        <ele>197</ele>
        <time>2019-02-02T13:12:28.000Z</time>
      </trkpt>
      <trkpt lat="44.83889" lon="1.55923">
        <ele>198</ele>
        <time>2019-02-02T13:13:28.000Z</time>
      </trkpt>
      <trkpt lat="44.83879" lon="1.55919">
        <ele>199</ele>
        <time>2019-02-02T13:14:28.000Z</time>
      </trkpt>
      <trkpt lat="44.8387" lon="1.55918">
        <ele>199</ele>
        <time>2019-02-02T13:15:28.000Z</time>
      </trkpt>
      <trkpt lat="44.8385" lon="1.5591">
        <ele>201</ele>
        <time>2019-02-02T13:16:28.000Z</time>
      </trkpt>
      <trkpt lat="44.83841" lon="1.55905">
        <ele>202</ele>
        <time>2019-02-02T13:17:28.000Z</time>
      </trkpt>
      <trkpt lat="44.83832" lon="1.55902">
        <ele>203</ele>
        <time>2019-02-02T13:18:28.000Z</time>
      </trkpt>
      <trkpt lat="44.83821" lon="1.55902">
        <ele>203</ele>
        <time>2019-02-02T13:19:28.000Z</time>
      </trkpt>
      <trkpt lat="44.83811" lon="1.55901">
        <ele>203</ele>
        <time>2019-02-02T13:20:28.000Z</time>
      </trkpt>
      <trkpt lat="44.83803" lon="1.55897">
        <ele>204</ele>
        <time>2019-02-02T13:21:28.000Z</time>
      </trkpt>
      <trkpt lat="44.83783" lon="1.55894">
        <ele>205</ele>
        <time>2019-02-02T13:22:28.000Z</time>
      </trkpt>
      <trkpt lat="44.83759" lon="1.55887">
        <ele>206</ele>
        <time>2019-02-02T13:23:28.000Z</time>
      </trkpt>
      <trkpt lat="44.83736" lon="1.55885">
        <ele>207</ele>
        <time>2019-02-02T13:24:28.000Z</time>
      </trkpt>
      <trkpt lat="44.83719" lon="1.55887">
        <ele>207</ele>
        <time>2019-02-02T13:25:28.000Z</time>
      </trkpt>
      <trkpt lat="44.83705" lon="1.55891">
        <ele>207</ele>
        <time>2019-02-02T13:26:28.000Z</time>
      </trkpt>
      <trkpt lat="44.8369" lon="1.55895">
        <ele>207</ele>
        <time>2019-02-02T13:27:28.000Z</time>
      </trkpt>
      <trkpt lat="44.83676" lon="1.55901">
        <ele>208</ele>
        <time>2019-02-02T13:28:28.000Z</time>
      </trkpt>
      <trkpt lat="44.83657" lon="1.55911">
        <ele>207</ele>
        <time>2019-02-02T13:29:28.000Z</time>
      </trkpt>
      <trkpt lat="44.83603" lon="1.55943">
        <ele>207</ele>
        <time>2019-02-02T13:30:28.000Z</time>
      </trkpt>
      <trkpt lat="44.83583" lon="1.55953">
        <ele>208</ele>
        <time>2019-02-02T13:31:28.000Z</time>
      </trkpt>
      <trkpt lat="44.83557" lon="1.55968">
        <ele>208</ele>
        <time>2019-02-02T13:32:28.000Z</time>
      </trkpt>
      <trkpt lat="44.83535" lon="1.55981">
        <ele>209</ele>
        <time>2019-02-02T13:33:28.000Z</time>
      </trkpt>
      <trkpt lat="44.8352" lon="1.55996">
        <ele>210</ele>
        <time>2019-02-02T13:34:28.000Z</time>
      </trkpt>
      <trkpt lat="44.83506" lon="1.56014">
        <ele>211</ele>
        <time>2019-02-02T13:35:28.000Z</time>
      </trkpt>
      <trkpt lat="44.83495" lon="1.56032">
        <ele>212</ele>
        <time>2019-02-02T13:36:28.000Z</time>
      </trkpt>
      <trkpt lat="44.83488" lon="1.56046">
        <ele>213</ele>
        <time>2019-02-02T13:37:28.000Z</time>
      </trkpt>
      <trkpt lat="44.8347" lon="1.56073">
        <ele>215</ele>
        <time>2019-02-02T13:38:28.000Z</time>
      </trkpt>
      <trkpt lat="44.83461" lon="1.56087">
        <ele>217</ele>
        <time>2019-02-02T13:39:28.000Z</time>
      </trkpt>
      <trkpt lat="44.83455" lon="1.56098">
        <ele>217</ele>
        <time>2019-02-02T13:40:28.000Z</time>
      </trkpt>
      <trkpt lat="44.83447" lon="1.56111">
        <ele>218</ele>
        <time>2019-02-02T13:41:28.000Z</time>
      </trkpt>
      <trkpt lat="44.83431" lon="1.5614">
        <ele>221</ele>
        <time>2019-02-02T13:42:28.000Z</time>
      </trkpt>
      <trkpt lat="44.83416" lon="1.56163">
        <ele>224</ele>
        <time>2019-02-02T13:43:28.000Z</time>
      </trkpt>
      <trkpt lat="44.83408" lon="1.56175">
        <ele>225</ele>
        <time>2019-02-02T13:44:28.000Z</time>
      </trkpt>
      <trkpt lat="44.8339" lon="1.56206">
        <ele>226</ele>
        <time>2019-02-02T13:45:28.000Z</time>
      </trkpt>
      <trkpt lat="44.83383" lon="1.56216">
        <ele>227</ele>
        <time>2019-02-02T13:46:28.000Z</time>
      </trkpt>
      <trkpt lat="44.83377" lon="1.56231">
        <ele>227</ele>
        <time>2019-02-02T13:47:28.000Z</time>
      </trkpt>
      <trkpt lat="44.8337" lon="1.56244">
        <ele>228</ele>
        <time>2019-02-02T13:48:28.000Z</time>
      </trkpt>
      <trkpt lat="44.83363" lon="1.56255">
        <ele>229</ele>
        <time>2019-02-02T13:49:28.000Z</time>
      </trkpt>
      <trkpt lat="44.83357" lon="1.56266">
        <ele>229</ele>
        <time>2019-02-02T13:50:28.000Z</time>
      </trkpt>
      <trkpt lat="44.8335" lon="1.5628">
        <ele>230</ele>
        <time>2019-02-02T13:51:28.000Z</time>
      </trkpt>
      <trkpt lat="44.83344" lon="1.56293">
        <ele>231</ele>
        <time>2019-02-02T13:52:28.000Z</time>
      </trkpt>
      <trkpt lat="44.83335" lon="1.56308">
        <ele>233</ele>
        <time>2019-02-02T13:53:28.000Z</time>
      </trkpt>
      <trkpt lat="44.83328" lon="1.56321">
        <ele>234</ele>
        <time>2019-02-02T13:54:28.000Z</time>
      </trkpt>
      <trkpt lat="44.83313" lon="1.56345">
        <ele>235</ele>
        <time>2019-02-02T13:55:28.000Z</time>
      </trkpt>
      <trkpt lat="44.83297" lon="1.56367">
        <ele>236</ele>
        <time>2019-02-02T13:56:28.000Z</time>
      </trkpt>
      <trkpt lat="44.83289" lon="1.56377">
        <ele>236</ele>
        <time>2019-02-02T13:57:28.000Z</time>
      </trkpt>
      <trkpt lat="44.83282" lon="1.56389">
        <ele>237</ele>
        <time>2019-02-02T13:58:28.000Z</time>
      </trkpt>
      <trkpt lat="44.83272" lon="1.56403">
        <ele>238</ele>
        <time>2019-02-02T13:59:28.000Z</time>
      </trkpt>
      <trkpt lat="44.83262" lon="1.56415">
        <ele>239</ele>
        <time>2019-02-02T14:00:28.000Z</time>
      </trkpt>
      <trkpt lat="44.83242" lon="1.56447">
        <ele>239</ele>
        <time>2019-02-02T14:01:28.000Z</time>
      </trkpt>
      <trkpt lat="44.8323" lon="1.56463">
        <ele>238</ele>
        <time>2019-02-02T14:02:28.000Z</time>
      </trkpt>
      <trkpt lat="44.83218" lon="1.56474">
        <ele>239</ele>
        <time>2019-02-02T14:03:28.000Z</time>
      </trkpt>
      <trkpt lat="44.83192" lon="1.56509">
        <ele>239</ele>
        <time>2019-02-02T14:04:28.000Z</time>
      </trkpt>
      <trkpt lat="44.83178" lon="1.56526">
        <ele>240</ele>
        <time>2019-02-02T14:05:28.000Z</time>
      </trkpt>
      <trkpt lat="44.83163" lon="1.56541">
        <ele>241</ele>
        <time>2019-02-02T14:06:28.000Z</time>
      </trkpt>
      <trkpt lat="44.83125" lon="1.56577">
        <ele>240</ele>
        <time>2019-02-02T14:07:28.000Z</time>
      </trkpt>
      <trkpt lat="44.831" lon="1.56597">
        <ele>241</ele>
        <time>2019-02-02T14:08:28.000Z</time>
      </trkpt>
      <trkpt lat="44.83081" lon="1.56611">
        <ele>242</ele>
        <time>2019-02-02T14:09:28.000Z</time>
      </trkpt>
      <trkpt lat="44.83043" lon="1.56641">
        <ele>241</ele>
        <time>2019-02-02T14:10:28.000Z</time>
      </trkpt>
      <trkpt lat="44.83032" lon="1.56658">
        <ele>241</ele>
        <time>2019-02-02T14:11:28.000Z</time>
      </trkpt>
      <trkpt lat="44.82972" lon="1.56687">
        <ele>242</ele>
        <time>2019-02-02T14:12:28.000Z</time>
      </trkpt>
      <trkpt lat="44.82914" lon="1.5673">
        <ele>243</ele>
        <time>2019-02-02T14:13:28.000Z</time>
      </trkpt>
      <trkpt lat="44.82862" lon="1.56778">
        <ele>245</ele>
        <time>2019-02-02T14:14:28.000Z</time>
      </trkpt>
      <trkpt lat="44.8281" lon="1.5682">
        <ele>248</ele>
        <time>2019-02-02T14:15:28.000Z</time>
      </trkpt>
      <trkpt lat="44.82776" lon="1.5685">
        <ele>249</ele>
        <time>2019-02-02T14:16:28.000Z</time>
      </trkpt>
      <trkpt lat="44.82733" lon="1.56872">
        <ele>252</ele>
        <time>2019-02-02T14:17:28.000Z</time>
      </trkpt>
      <trkpt lat="44.82679" lon="1.56922">
        <ele>255</ele>
        <time>2019-02-02T14:18:28.000Z</time>
      </trkpt>
      <trkpt lat="44.82641" lon="1.5695">
        <ele>257</ele>
        <time>2019-02-02T14:19:28.000Z</time>
      </trkpt>
      <trkpt lat="44.82598" lon="1.56987">
        <ele>260</ele>
        <time>2019-02-02T14:20:28.000Z</time>
      </trkpt>
      <trkpt lat="44.8256" lon="1.57053">
        <ele>260</ele>
        <time>2019-02-02T14:21:28.000Z</time>
      </trkpt>
      <trkpt lat="44.82521" lon="1.57097">
        <ele>261</ele>
        <time>2019-02-02T14:22:28.000Z</time>
      </trkpt>
      <trkpt lat="44.8247" lon="1.57165">
        <ele>259</ele>
        <time>2019-02-02T14:23:28.000Z</time>
      </trkpt>
      <trkpt lat="44.82431" lon="1.5722">
        <ele>261</ele>
        <time>2019-02-02T14:24:28.000Z</time>
      </trkpt>
      <trkpt lat="44.82389" lon="1.57281">
        <ele>264</ele>
        <time>2019-02-02T14:25:28.000Z</time>
      </trkpt>
      <trkpt lat="44.82366" lon="1.57334">
        <ele>266</ele>
        <time>2019-02-02T14:26:28.000Z</time>
      </trkpt>
      <trkpt lat="44.8235" lon="1.57388">
        <ele>267</ele>
        <time>2019-02-02T14:27:28.000Z</time>
      </trkpt>
      <trkpt lat="44.8234" lon="1.57452">
        <ele>270</ele>
        <time>2019-02-02T14:28:28.000Z</time>
      </trkpt>
      <trkpt lat="44.82326" lon="1.57516">
        <ele>274</ele>
        <time>2019-02-02T14:29:28.000Z</time>
      </trkpt>
      <trkpt lat="44.82303" lon="1.57568">
        <ele>273</ele>
        <time>2019-02-02T14:30:28.000Z</time>
      </trkpt>
      <trkpt lat="44.82281" lon="1.57623">
        <ele>274</ele>
        <time>2019-02-02T14:31:28.000Z</time>
      </trkpt>
      <trkpt lat="44.82255" lon="1.57689">
        <ele>275</ele>
        <time>2019-02-02T14:32:28.000Z</time>
      </trkpt>
      <trkpt lat="44.82225" lon="1.57761">
        <ele>275</ele>
        <time>2019-02-02T14:33:28.000Z</time>
      </trkpt>
      <trkpt lat="44.82195" lon="1.57836">
        <ele>276</ele>
        <time>2019-02-02T14:34:28.000Z</time>
      </trkpt>
      <trkpt lat="44.82171" lon="1.57942">
        <ele>277</ele>
        <time>2019-02-02T14:35:28.000Z</time>
      </trkpt>
      <trkpt lat="44.82161" lon="1.58056">
        <ele>278</ele>
        <time>2019-02-02T14:36:28.000Z</time>
      </trkpt>
      <trkpt lat="44.82162" lon="1.58149">
        <ele>282</ele>
        <time>2019-02-02T14:37:28.000Z</time>
      </trkpt>
      <trkpt lat="44.8215" lon="1.58213">
        <ele>285</ele>
        <time>2019-02-02T14:38:28.000Z</time>
      </trkpt>
      <trkpt lat="44.82147" lon="1.5828">
        <ele>287</ele>
        <time>2019-02-02T14:39:28.000Z</time>
      </trkpt>
      <trkpt lat="44.82161" lon="1.58339">
        <ele>289</ele>
        <time>2019-02-02T14:40:28.000Z</time>
      </trkpt>
      <trkpt lat="44.82178" lon="1.58381">
        <ele>290</ele>
        <time>2019-02-02T14:41:28.000Z</time>
      </trkpt>
      <trkpt lat="44.82203" lon="1.58414">
        <ele>292</ele>
        <time>2019-02-02T14:42:28.000Z</time>
      </trkpt>
      <trkpt lat="44.82227" lon="1.58441">
        <ele>293</ele>
        <time>2019-02-02T14:43:28.000Z</time>
      </trkpt>
      <trkpt lat="44.82246" lon="1.58474">
        <ele>295</ele>
        <time>2019-02-02T14:44:28.000Z</time>
      </trkpt>
      <trkpt lat="44.8227" lon="1.58498">
        <ele>297</ele>
        <time>2019-02-02T14:45:28.000Z</time>
      </trkpt>
      <trkpt lat="44.823" lon="1.58535">
        <ele>300</ele>
        <time>2019-02-02T14:46:28.000Z</time>
      </trkpt>
      <trkpt lat="44.82325" lon="1.58564">
        <ele>302</ele>
        <time>2019-02-02T14:47:28.000Z</time>
      </trkpt>
      <trkpt lat="44.82348" lon="1.58586">
        <ele>304</ele>
        <time>2019-02-02T14:48:28.000Z</time>
      </trkpt>
      <trkpt lat="44.82365" lon="1.58621">
        <ele>306</ele>
        <time>2019-02-02T14:49:28.000Z</time>
      </trkpt>
      <trkpt lat="44.82379" lon="1.58658">
        <ele>308</ele>
        <time>2019-02-02T14:50:28.000Z</time>
      </trkpt>
      <trkpt lat="44.82405" lon="1.58704">
        <ele>311</ele>
        <time>2019-02-02T14:51:28.000Z</time>
      </trkpt>
      <trkpt lat="44.82429" lon="1.58762">
        <ele>311</ele>
        <time>2019-02-02T14:52:28.000Z</time>
      </trkpt>
      <trkpt lat="44.82442" lon="1.5886">
        <ele>312</ele>
        <time>2019-02-02T14:53:28.000Z</time>
      </trkpt>
      <trkpt lat="44.8247" lon="1.59011">
        <ele>308</ele>
        <time>2019-02-02T14:54:28.000Z</time>
      </trkpt>
      <trkpt lat="44.82516" lon="1.59102">
        <ele>306</ele>
        <time>2019-02-02T14:55:28.000Z</time>
      </trkpt>
      <trkpt lat="44.82548" lon="1.59182">
        <ele>307</ele>
        <time>2019-02-02T14:56:28.000Z</time>
      </trkpt>
      <trkpt lat="44.82576" lon="1.5925">
        <ele>311</ele>
        <time>2019-02-02T14:57:28.000Z</time>
      </trkpt>
      <trkpt lat="44.82595" lon="1.59298">
        <ele>312</ele>
        <time>2019-02-02T14:58:28.000Z</time>
      </trkpt>
      <trkpt lat="44.82627" lon="1.59338">
        <ele>314</ele>
        <time>2019-02-02T14:59:28.000Z</time>
      </trkpt>
      <trkpt lat="44.82653" lon="1.59376">
        <ele>316</ele>
        <time>2019-02-02T15:00:28.000Z</time>
      </trkpt>
      <trkpt lat="44.82665" lon="1.59463">
        <ele>317</ele>
        <time>2019-02-02T15:01:28.000Z</time>
      </trkpt>
      <trkpt lat="44.82654" lon="1.59548">
        <ele>317</ele>
        <time>2019-02-02T15:02:28.000Z</time>
      </trkpt>
      <trkpt lat="44.82625" lon="1.59607">
        <ele>317</ele>
        <time>2019-02-02T15:03:28.000Z</time>
      </trkpt>
      <trkpt lat="44.82574" lon="1.59712">
        <ele>316</ele>
        <time>2019-02-02T15:04:28.000Z</time>
      </trkpt>
      <trkpt lat="44.82528" lon="1.59829">
        <ele>313</ele>
        <time>2019-02-02T15:05:28.000Z</time>
      </trkpt>
      <trkpt lat="44.82487" lon="1.59976">
        <ele>313</ele>
        <time>2019-02-02T15:06:28.000Z</time>
      </trkpt>
      <trkpt lat="44.8239" lon="1.60016">
        <ele>309</ele>
        <time>2019-02-02T15:07:28.000Z</time>
      </trkpt>
      <trkpt lat="44.82259" lon="1.60078">
        <ele>304</ele>
        <time>2019-02-02T15:08:28.000Z</time>
      </trkpt>
      <trkpt lat="44.82148" lon="1.60288">
        <ele>296</ele>
        <time>2019-02-02T15:09:28.000Z</time>
      </trkpt>
      <trkpt lat="44.82053" lon="1.60412">
        <ele>292</ele>
        <time>2019-02-02T15:10:28.000Z</time>
      </trkpt>
      <trkpt lat="44.81976" lon="1.60369">
        <ele>294</ele>
        <time>2019-02-02T15:11:28.000Z</time>
      </trkpt>
      <trkpt lat="44.81915" lon="1.60326">
        <ele>295</ele>
        <time>2019-02-02T15:12:28.000Z</time>
      </trkpt>
      <trkpt lat="44.81844" lon="1.60275">
        <ele>295</ele>
        <time>2019-02-02T15:13:28.000Z</time>
      </trkpt>
      <trkpt lat="44.81816" lon="1.60256">
        <ele>296</ele>
        <time>2019-02-02T15:14:28.000Z</time>
      </trkpt>
      <trkpt lat="44.81797" lon="1.60265">
        <ele>296</ele>
        <time>2019-02-02T15:15:28.000Z</time>
      </trkpt>
      <trkpt lat="44.81798" lon="1.6028">
        <ele>296</ele>
        <time>2019-02-02T15:16:28.000Z</time>
      </trkpt>
      <trkpt lat="44.81779" lon="1.60294">
        <ele>295</ele>
        <time>2019-02-02T15:17:28.000Z</time>
      </trkpt>
      <trkpt lat="44.81773" lon="1.60305">
        <ele>295</ele>
        <time>2019-02-02T15:18:28.000Z</time>
      </trkpt>
      <trkpt lat="44.81776" lon="1.60281">
        <ele>296</ele>
        <time>2019-02-02T15:19:28.000Z</time>
      </trkpt>
      <trkpt lat="44.81769" lon="1.60271">
        <ele>297</ele>
        <time>2019-02-02T15:20:28.000Z</time>
      </trkpt>
      <trkpt lat="44.81774" lon="1.60283">
        <ele>296</ele>
        <time>2019-02-02T15:21:28.000Z</time>
      </trkpt>
      <trkpt lat="44.81763" lon="1.60284">
        <ele>296</ele>
        <time>2019-02-02T15:22:28.000Z</time>
      </trkpt>
      <trkpt lat="44.81775" lon="1.60301">
        <ele>295</ele>
        <time>2019-02-02T15:23:28.000Z</time>
      </trkpt>
      <trkpt lat="44.81784" lon="1.6029">
        <ele>295</ele>
        <time>2019-02-02T15:24:28.000Z</time>
      </trkpt>
      <trkpt lat="44.81776" lon="1.60249">
        <ele>297</ele>
        <time>2019-02-02T15:25:28.000Z</time>
      </trkpt>
      <trkpt lat="44.8172" lon="1.60246">
        <ele>297</ele>
        <time>2019-02-02T15:26:28.000Z</time>
      </trkpt>
      <trkpt lat="44.81631" lon="1.60229">
        <ele>293</ele>
        <time>2019-02-02T15:27:28.000Z</time>
      </trkpt>
      <trkpt lat="44.81557" lon="1.60235">
        <ele>290</ele>
        <time>2019-02-02T15:28:28.000Z</time>
      </trkpt>
      <trkpt lat="44.81427" lon="1.60272">
        <ele>282</ele>
        <time>2019-02-02T15:29:28.000Z</time>
      </trkpt>
      <trkpt lat="44.81305" lon="1.60373">
        <ele>277</ele>
        <time>2019-02-02T15:30:28.000Z</time>
      </trkpt>
      <trkpt lat="44.81197" lon="1.60502">
        <ele>269</ele>
        <time>2019-02-02T15:31:28.000Z</time>
      </trkpt>
      <trkpt lat="44.81154" lon="1.60706">
        <ele>263</ele>
        <time>2019-02-02T15:32:28.000Z</time>
      </trkpt>
      <trkpt lat="44.81099" lon="1.60849">
        <ele>259</ele>
        <time>2019-02-02T15:33:28.000Z</time>
      </trkpt>
      <trkpt lat="44.81081" lon="1.60994">
        <ele>261</ele>
        <time>2019-02-02T15:34:28.000Z</time>
      </trkpt>
      <trkpt lat="44.8104" lon="1.6111">
        <ele>257</ele>
        <time>2019-02-02T15:35:28.000Z</time>
      </trkpt>
      <trkpt lat="44.81003" lon="1.61257">
        <ele>253</ele>
        <time>2019-02-02T15:36:28.000Z</time>
      </trkpt>
      <trkpt lat="44.80972" lon="1.61396">
        <ele>256</ele>
        <time>2019-02-02T15:37:28.000Z</time>
      </trkpt>
      <trkpt lat="44.8095" lon="1.61507">
        <ele>257</ele>
        <time>2019-02-02T15:38:28.000Z</time>
      </trkpt>
      <trkpt lat="44.80929" lon="1.6163">
        <ele>258</ele>
        <time>2019-02-02T15:39:28.000Z</time>
      </trkpt>
      <trkpt lat="44.80925" lon="1.6174">
        <ele>257</ele>
        <time>2019-02-02T15:40:28.000Z</time>
      </trkpt>
      <trkpt lat="44.80888" lon="1.61853">
        <ele>255</ele>
        <time>2019-02-02T15:41:28.000Z</time>
      </trkpt>
      <trkpt lat="44.8088" lon="1.61873">
        <ele>255</ele>
        <time>2019-02-02T15:42:28.000Z</time>
      </trkpt>
      <trkpt lat="44.8091" lon="1.61808">
        <ele>257</ele>
        <time>2019-02-02T15:43:28.000Z</time>
      </trkpt>
      <trkpt lat="44.80925" lon="1.61863">
        <ele>256</ele>
        <time>2019-02-02T15:44:28.000Z</time>
      </trkpt>
      <trkpt lat="44.80935" lon="1.61865">
        <ele>256</ele>
        <time>2019-02-02T15:45:28.000Z</time>
      </trkpt>
      <trkpt lat="44.80938" lon="1.61879">
        <ele>256</ele>
        <time>2019-02-02T15:46:28.000Z</time>
      </trkpt>
      <trkpt lat="44.80944" lon="1.61905">
        <ele>255</ele>
        <time>2019-02-02T15:47:28.000Z</time>
      </trkpt>
      <trkpt lat="44.8095" lon="1.61931">
        <ele>255</ele>
        <time>2019-02-02T15:48:28.000Z</time>
      </trkpt>
      <trkpt lat="44.80955" lon="1.61962">
        <ele>254</ele>
        <time>2019-02-02T15:49:28.000Z</time>
      </trkpt>
      <trkpt lat="44.8096" lon="1.61999">
        <ele>254</ele>
        <time>2019-02-02T15:50:28.000Z</time>
      </trkpt>
      <trkpt lat="44.80968" lon="1.62035">
        <ele>254</ele>
        <time>2019-02-02T15:51:28.000Z</time>
      </trkpt>
      <trkpt lat="44.80975" lon="1.62064">
        <ele>254</ele>
        <time>2019-02-02T15:52:28.000Z</time>
      </trkpt>
      <trkpt lat="44.80983" lon="1.62095">
        <ele>254</ele>
        <time>2019-02-02T15:53:28.000Z</time>
      </trkpt>
      <trkpt lat="44.80991" lon="1.62125">
        <ele>255</ele>
        <time>2019-02-02T15:54:28.000Z</time>
      </trkpt>
      <trkpt lat="44.81" lon="1.6216">
        <ele>256</ele>
        <time>2019-02-02T15:55:28.000Z</time>
      </trkpt>
      <trkpt lat="44.81005" lon="1.62186">
        <ele>256</ele>
        <time>2019-02-02T15:56:28.000Z</time>
      </trkpt>
      <trkpt lat="44.81007" lon="1.62222">
        <ele>255</ele>
        <time>2019-02-02T15:57:28.000Z</time>
      </trkpt>
      <trkpt lat="44.81007" lon="1.62283">
        <ele>252</ele>
        <time>2019-02-02T15:58:28.000Z</time>
      </trkpt>
      <trkpt lat="44.81008" lon="1.62309">
        <ele>251</ele>
        <time>2019-02-02T15:59:28.000Z</time>
      </trkpt>
      <trkpt lat="44.81012" lon="1.62348">
        <ele>250</ele>
        <time>2019-02-02T16:00:28.000Z</time>
      </trkpt>
      <trkpt lat="44.81017" lon="1.62388">
        <ele>249</ele>
        <time>2019-02-02T16:01:28.000Z</time>
      </trkpt>
      <trkpt lat="44.81018" lon="1.62419">
        <ele>249</ele>
        <time>2019-02-02T16:02:28.000Z</time>
      </trkpt>
      <trkpt lat="44.81008" lon="1.62439">
        <ele>249</ele>
        <time>2019-02-02T16:03:28.000Z</time>
      </trkpt>
      <trkpt lat="44.80984" lon="1.62441">
        <ele>249</ele>
        <time>2019-02-02T16:04:28.000Z</time>
      </trkpt>
      <trkpt lat="44.80961" lon="1.62445">
        <ele>249</ele>
        <time>2019-02-02T16:05:28.000Z</time>
      </trkpt>
      <trkpt lat="44.80939" lon="1.62447">
        <ele>249</ele>
        <time>2019-02-02T16:06:28.000Z</time>
      </trkpt>
      <trkpt lat="44.80913" lon="1.62453">
        <ele>250</ele>
        <time>2019-02-02T16:07:28.000Z</time>
      </trkpt>
      <trkpt lat="44.80888" lon="1.62466">
        <ele>252</ele>
        <time>2019-02-02T16:08:28.000Z</time>
      </trkpt>
      <trkpt lat="44.80863" lon="1.62479">
        <ele>253</ele>
        <time>2019-02-02T16:09:28.000Z</time>
      </trkpt>
      <trkpt lat="44.80828" lon="1.625">
        <ele>256</ele>
        <time>2019-02-02T16:10:28.000Z</time>
      </trkpt>
      <trkpt lat="44.80812" lon="1.62511">
        <ele>257</ele>
        <time>2019-02-02T16:11:28.000Z</time>
      </trkpt>
      <trkpt lat="44.80799" lon="1.62518">
        <ele>258</ele>
        <time>2019-02-02T16:12:28.000Z</time>
      </trkpt>
      <trkpt lat="44.80786" lon="1.62527">
        <ele>258</ele>
        <time>2019-02-02T16:13:28.000Z</time>
      </trkpt>
      <trkpt lat="44.80773" lon="1.62534">
        <ele>259</ele>
        <time>2019-02-02T16:14:28.000Z</time>
      </trkpt>
      <trkpt lat="44.80759" lon="1.62543">
        <ele>260</ele>
        <time>2019-02-02T16:15:28.000Z</time>
      </trkpt>
      <trkpt lat="44.80745" lon="1.62553">
        <ele>260</ele>
        <time>2019-02-02T16:16:28.000Z</time>
      </trkpt>
      <trkpt lat="44.8073" lon="1.6256">
        <ele>260</ele>
        <time>2019-02-02T16:17:28.000Z</time>
      </trkpt>
      <trkpt lat="44.80716" lon="1.62564">
        <ele>261</ele>
        <time>2019-02-02T16:18:28.000Z</time>
      </trkpt>
      <trkpt lat="44.807" lon="1.62567">
        <ele>262</ele>
        <time>2019-02-02T16:19:28.000Z</time>
      </trkpt>
      <trkpt lat="44.8068" lon="1.62573">
        <ele>263</ele>
        <time>2019-02-02T16:20:28.000Z</time>
      </trkpt>
      <trkpt lat="44.8066" lon="1.6258">
        <ele>263</ele>
        <time>2019-02-02T16:21:28.000Z</time>
      </trkpt>
      <trkpt lat="44.80641" lon="1.62591">
        <ele>262</ele>
        <time>2019-02-02T16:22:28.000Z</time>
      </trkpt>
      <trkpt lat="44.80618" lon="1.62608">
        <ele>261</ele>
        <time>2019-02-02T16:23:28.000Z</time>
      </trkpt>
      <trkpt lat="44.80588" lon="1.62625">
        <ele>260</ele>
        <time>2019-02-02T16:24:28.000Z</time>
      </trkpt>
      <trkpt lat="44.80562" lon="1.6264">
        <ele>259</ele>
        <time>2019-02-02T16:25:28.000Z</time>
      </trkpt>
      <trkpt lat="44.80536" lon="1.62651">
        <ele>258</ele>
        <time>2019-02-02T16:26:28.000Z</time>
      </trkpt>
      <trkpt lat="44.80512" lon="1.62662">
        <ele>259</ele>
        <time>2019-02-02T16:27:28.000Z</time>
      </trkpt>
      <trkpt lat="44.80472" lon="1.62686">
        <ele>258</ele>
        <time>2019-02-02T16:28:28.000Z</time>
      </trkpt>
      <trkpt lat="44.80445" lon="1.62701">
        <ele>257</ele>
        <time>2019-02-02T16:29:28.000Z</time>
      </trkpt>
      <trkpt lat="44.80412" lon="1.62703">
        <ele>256</ele>
        <time>2019-02-02T16:30:28.000Z</time>
      </trkpt>
      <trkpt lat="44.80392" lon="1.62707">
        <ele>255</ele>
        <time>2019-02-02T16:31:28.000Z</time>
      </trkpt>
      <trkpt lat="44.80381" lon="1.62703">
        <ele>253</ele>
        <time>2019-02-02T16:32:28.000Z</time>
      </trkpt>
      <trkpt lat="44.80373" lon="1.62699">
        <ele>252</ele>
        <time>2019-02-02T16:33:28.000Z</time>
      </trkpt>
      <trkpt lat="44.80364" lon="1.62698">
        <ele>251</ele>
        <time>2019-02-02T16:34:28.000Z</time>
      </trkpt>
      <trkpt lat="44.80354" lon="1.62697">
        <ele>249</ele>
        <time>2019-02-02T16:35:28.000Z</time>
      </trkpt>
      <trkpt lat="44.80401" lon="1.62705">
        <ele>255</ele>
        <time>2019-02-02T16:36:28.000Z</time>
      </trkpt>
      <trkpt lat="44.80398" lon="1.62692">
        <ele>254</ele>
        <time>2019-02-02T16:37:28.000Z</time>
      </trkpt>
      <trkpt lat="44.80399" lon="1.6264">
        <ele>250</ele>
        <time>2019-02-02T16:38:28.000Z</time>
      </trkpt>
      <trkpt lat="44.80406" lon="1.62629">
        <ele>250</ele>
        <time>2019-02-02T16:39:28.000Z</time>
      </trkpt>
      <trkpt lat="44.80422" lon="1.62592">
        <ele>250</ele>
        <time>2019-02-02T16:40:28.000Z</time>
      </trkpt>
      <trkpt lat="44.80411" lon="1.6256">
        <ele>244</ele>
        <time>2019-02-02T16:41:28.000Z</time>
      </trkpt>
      <trkpt lat="44.80414" lon="1.62529">
        <ele>241</ele>
        <time>2019-02-02T16:42:28.000Z</time>
      </trkpt>
      <trkpt lat="44.80409" lon="1.6249">
        <ele>234</ele>
        <time>2019-02-02T16:43:28.000Z</time>
      </trkpt>
      <trkpt lat="44.80411" lon="1.62474">
        <ele>234</ele>
        <time>2019-02-02T16:44:28.000Z</time>
      </trkpt>
      <trkpt lat="44.8041" lon="1.62456">
        <ele>232</ele>
        <time>2019-02-02T16:45:28.000Z</time>
      </trkpt>
      <trkpt lat="44.80403" lon="1.62428">
        <ele>227</ele>
        <time>2019-02-02T16:46:28.000Z</time>
      </trkpt>
      <trkpt lat="44.80403" lon="1.62412">
        <ele>226</ele>
        <time>2019-02-02T16:47:28.000Z</time>
      </trkpt>
      <trkpt lat="44.80392" lon="1.6237">
        <ele>220</ele>
        <time>2019-02-02T16:48:28.000Z</time>
      </trkpt>
      <trkpt lat="44.80396" lon="1.62346">
        <ele>222</ele>
        <time>2019-02-02T16:49:28.000Z</time>
      </trkpt>
      <trkpt lat="44.80401" lon="1.62317">
        <ele>227</ele>
        <time>2019-02-02T16:50:28.000Z</time>
      </trkpt>
      <trkpt lat="44.80378" lon="1.62306">
        <ele>217</ele>
        <time>2019-02-02T16:51:28.000Z</time>
      </trkpt>
      <trkpt lat="44.80366" lon="1.62278">
        <ele>215</ele>
        <time>2019-02-02T16:52:28.000Z</time>
      </trkpt>
      <trkpt lat="44.80364" lon="1.62257">
        <ele>217</ele>
        <time>2019-02-02T16:53:28.000Z</time>
      </trkpt>
      <trkpt lat="44.80354" lon="1.62241">
        <ele>215</ele>
        <time>2019-02-02T16:54:28.000Z</time>
      </trkpt>
      <trkpt lat="44.80313" lon="1.62237">
        <ele>194</ele>
        <time>2019-02-02T16:55:28.000Z</time>
      </trkpt>
      <trkpt lat="44.80309" lon="1.62211">
        <ele>198</ele>
        <time>2019-02-02T16:56:28.000Z</time>
      </trkpt>
      <trkpt lat="44.80302" lon="1.62185">
        <ele>200</ele>
        <time>2019-02-02T16:57:28.000Z</time>
      </trkpt>
      <trkpt lat="44.8029" lon="1.62175">
        <ele>196</ele>
        <time>2019-02-02T16:58:28.000Z</time>
      </trkpt>
      <trkpt lat="44.80282" lon="1.62149">
        <ele>198</ele>
        <time>2019-02-02T16:59:28.000Z</time>
      </trkpt>
      <trkpt lat="44.80265" lon="1.62092">
        <ele>205</ele>
        <time>2019-02-02T17:00:28.000Z</time>
      </trkpt>
      <trkpt lat="44.8018" lon="1.62009">
        <ele>187</ele>
        <time>2019-02-02T17:01:28.000Z</time>
      </trkpt>
      <trkpt lat="44.80146" lon="1.6195">
        <ele>188</ele>
        <time>2019-02-02T17:02:28.000Z</time>
      </trkpt>
      <trkpt lat="44.80134" lon="1.61975">
        <ele>177</ele>
        <time>2019-02-02T17:03:28.000Z</time>
      </trkpt>
      <trkpt lat="44.80157" lon="1.61959">
        <ele>190</ele>
        <time>2019-02-02T17:04:28.000Z</time>
      </trkpt>
      <trkpt lat="44.80134" lon="1.6195">
        <ele>184</ele>
        <time>2019-02-02T17:05:28.000Z</time>
      </trkpt>
      <trkpt lat="44.80105" lon="1.6191">
        <ele>184</ele>
        <time>2019-02-02T17:06:28.000Z</time>
      </trkpt>
      <trkpt lat="44.80076" lon="1.61878">
        <ele>183</ele>
        <time>2019-02-02T17:07:28.000Z</time>
      </trkpt>
      <trkpt lat="44.80027" lon="1.61835">
        <ele>183</ele>
        <time>2019-02-02T17:08:28.000Z</time>
      </trkpt>
      <trkpt lat="44.79986" lon="1.61818">
        <ele>184</ele>
        <time>2019-02-02T17:09:28.000Z</time>
      </trkpt>
      <trkpt lat="44.79971" lon="1.61817">
        <ele>182</ele>
        <time>2019-02-02T17:10:28.000Z</time>
      </trkpt>
      <trkpt lat="44.79941" lon="1.61832">
        <ele>168</ele>
        <time>2019-02-02T17:11:28.000Z</time>
      </trkpt>
      <trkpt lat="44.7993" lon="1.61821">
        <ele>173</ele>
        <time>2019-02-02T17:12:28.000Z</time>
      </trkpt>
      <trkpt lat="44.79917" lon="1.61795">
        <ele>188</ele>
        <time>2019-02-02T17:13:28.000Z</time>
      </trkpt>
      <trkpt lat="44.79898" lon="1.61793">
        <ele>182</ele>
        <time>2019-02-02T17:14:28.000Z</time>
      </trkpt>
      <trkpt lat="44.79894" lon="1.61775">
        <ele>190</ele>
        <time>2019-02-02T17:15:28.000Z</time>
      </trkpt>
      <trkpt lat="44.79884" lon="1.61763">
        <ele>191</ele>
        <time>2019-02-02T17:16:28.000Z</time>
      </trkpt>
      <trkpt lat="44.79889" lon="1.61744">
        <ele>203</ele>
        <time>2019-02-02T17:17:28.000Z</time>
      </trkpt>
      <trkpt lat="44.79894" lon="1.61777">
        <ele>189</ele>
        <time>2019-02-02T17:18:28.000Z</time>
      </trkpt>
      <trkpt lat="44.79921" lon="1.61754">
        <ele>216</ele>
        <time>2019-02-02T17:19:28.000Z</time>
      </trkpt>
      <trkpt lat="44.79916" lon="1.61794">
        <ele>189</ele>
        <time>2019-02-02T17:20:28.000Z</time>
      </trkpt>
      <trkpt lat="44.7991" lon="1.61807">
        <ele>178</ele>
        <time>2019-02-02T17:21:28.000Z</time>
      </trkpt>
      <trkpt lat="44.79917" lon="1.61788">
        <ele>193</ele>
        <time>2019-02-02T17:22:28.000Z</time>
      </trkpt>
      <trkpt lat="44.79921" lon="1.61775">
        <ele>202</ele>
        <time>2019-02-02T17:23:28.000Z</time>
      </trkpt>
      <trkpt lat="44.79942" lon="1.61724">
        <ele>233</ele>
        <time>2019-02-02T17:24:28.000Z</time>
      </trkpt>
      <trkpt lat="44.79944" lon="1.61744">
        <ele>224</ele>
        <time>2019-02-02T17:25:28.000Z</time>
      </trkpt>
      <trkpt lat="44.79925" lon="1.61739">
        <ele>224</ele>
        <time>2019-02-02T17:26:28.000Z</time>
      </trkpt>
      <trkpt lat="44.79897" lon="1.61746">
        <ele>207</ele>
        <time>2019-02-02T17:27:28.000Z</time>
      </trkpt>
      <trkpt lat="44.79905" lon="1.61738">
        <ele>217</ele>
        <time>2019-02-02T17:28:28.000Z</time>
      </trkpt>
      <trkpt lat="44.79972" lon="1.61707">
        <ele>243</ele>
        <time>2019-02-02T17:29:28.000Z</time>
      </trkpt>
      <trkpt lat="44.79945" lon="1.61737">
        <ele>227</ele>
        <time>2019-02-02T17:30:28.000Z</time>
      </trkpt>
      <trkpt lat="44.7994" lon="1.61748">
        <ele>221</ele>
        <time>2019-02-02T17:31:28.000Z</time>
      </trkpt>
      <trkpt lat="44.8002" lon="1.61826">
        <ele>186</ele>
        <time>2019-02-02T17:32:28.000Z</time>
      </trkpt>
      <trkpt lat="44.80004" lon="1.61797">
        <ele>200</ele>
        <time>2019-02-02T17:33:28.000Z</time>
      </trkpt>
      <trkpt lat="44.79999" lon="1.61777">
        <ele>211</ele>
        <time>2019-02-02T17:34:28.000Z</time>
      </trkpt>
      <trkpt lat="44.80004" lon="1.6176">
        <ele>222</ele>
        <time>2019-02-02T17:35:28.000Z</time>
      </trkpt>
      <trkpt lat="44.80004" lon="1.61741">
        <ele>231</ele>
        <time>2019-02-02T17:36:28.000Z</time>
      </trkpt>
      <trkpt lat="44.80004" lon="1.61722">
        <ele>239</ele>
        <time>2019-02-02T17:37:28.000Z</time>
      </trkpt>
      <trkpt lat="44.80021" lon="1.61717">
        <ele>243</ele>
        <time>2019-02-02T17:38:28.000Z</time>
      </trkpt>
      <trkpt lat="44.80023" lon="1.61703">
        <ele>248</ele>
        <time>2019-02-02T17:39:28.000Z</time>
      </trkpt>
      <trkpt lat="44.80031" lon="1.6169">
        <ele>254</ele>
        <time>2019-02-02T17:40:28.000Z</time>
      </trkpt>
      <trkpt lat="44.80044" lon="1.61686">
        <ele>256</ele>
        <time>2019-02-02T17:41:28.000Z</time>
      </trkpt>
      <trkpt lat="44.80032" lon="1.6168">
        <ele>257</ele>
        <time>2019-02-02T17:42:28.000Z</time>
      </trkpt>
      <trkpt lat="44.80043" lon="1.61667">
        <ele>261</ele>
        <time>2019-02-02T17:43:28.000Z</time>
      </trkpt>
      <trkpt lat="44.80024" lon="1.61659">
        <ele>261</ele>
        <time>2019-02-02T17:44:28.000Z</time>
      </trkpt>
      <trkpt lat="44.80014" lon="1.61661">
        <ele>261</ele>
        <time>2019-02-02T17:45:28.000Z</time>
      </trkpt>
      <trkpt lat="44.80004" lon="1.61664">
        <ele>260</ele>
        <time>2019-02-02T17:46:28.000Z</time>
      </trkpt>
      <trkpt lat="44.79996" lon="1.61673">
        <ele>257</ele>
        <time>2019-02-02T17:47:28.000Z</time>
      </trkpt>
      <trkpt lat="44.79983" lon="1.61691">
        <ele>250</ele>
        <time>2019-02-02T17:48:28.000Z</time>
      </trkpt>
      <trkpt lat="44.79975" lon="1.61699">
        <ele>246</ele>
        <time>2019-02-02T17:49:28.000Z</time>
      </trkpt>
      <trkpt lat="44.79993" lon="1.61684">
        <ele>253</ele>
        <time>2019-02-02T17:50:28.000Z</time>
      </trkpt>
      <trkpt lat="44.80033" lon="1.61661">
        <ele>261</ele>
        <time>2019-02-02T17:51:28.000Z</time>
      </trkpt>
      <trkpt lat="44.80049" lon="1.61693">
        <ele>254</ele>
        <time>2019-02-02T17:52:28.000Z</time>
      </trkpt>
      <trkpt lat="44.80036" lon="1.61685">
        <ele>256</ele>
        <time>2019-02-02T17:53:28.000Z</time>
      </trkpt>
      <trkpt lat="44.80022" lon="1.61679">
        <ele>257</ele>
        <time>2019-02-02T17:54:28.000Z</time>
      </trkpt>
      <trkpt lat="44.80029" lon="1.61697">
        <ele>251</ele>
        <time>2019-02-02T17:55:28.000Z</time>
      </trkpt>
      <trkpt lat="44.80045" lon="1.6172">
        <ele>246</ele>
        <time>2019-02-02T17:56:28.000Z</time>
      </trkpt>
      <trkpt lat="44.80024" lon="1.61699">
        <ele>250</ele>
        <time>2019-02-02T17:57:28.000Z</time>
      </trkpt>
      <trkpt lat="44.80013" lon="1.61699">
        <ele>249</ele>
        <time>2019-02-02T17:58:28.000Z</time>
      </trkpt>
      <trkpt lat="44.79997" lon="1.61729">
        <ele>235</ele>
        <time>2019-02-02T17:59:28.000Z</time>
      </trkpt>
      <trkpt lat="44.80003" lon="1.6174">
        <ele>232</ele>
        <time>2019-02-02T18:00:28.000Z</time>
      </trkpt>
      <trkpt lat="44.79977" lon="1.61771">
        <ele>212</ele>
        <time>2019-02-02T18:01:28.000Z</time>
      </trkpt>
      <trkpt lat="44.79941" lon="1.6177">
        <ele>208</ele>
        <time>2019-02-02T18:02:28.000Z</time>
      </trkpt>
      <trkpt lat="44.79914" lon="1.6177">
        <ele>203</ele>
        <time>2019-02-02T18:03:28.000Z</time>
      </trkpt>
      <trkpt lat="44.79902" lon="1.61759">
        <ele>203</ele>
        <time>2019-02-02T18:04:28.000Z</time>
      </trkpt>
      <trkpt lat="44.79901" lon="1.61773">
        <ele>195</ele>
        <time>2019-02-02T18:05:28.000Z</time>
      </trkpt>
      <trkpt lat="44.79893" lon="1.61765">
        <ele>195</ele>
        <time>2019-02-02T18:06:28.000Z</time>
      </trkpt>
      <trkpt lat="44.79881" lon="1.61763">
        <ele>189</ele>
        <time>2019-02-02T18:07:28.000Z</time>
      </trkpt>
      <trkpt lat="44.79841" lon="1.61773">
        <ele>163</ele>
        <time>2019-02-02T18:08:28.000Z</time>
      </trkpt>
      <trkpt lat="44.79835" lon="1.61744">
        <ele>169</ele>
        <time>2019-02-02T18:09:28.000Z</time>
      </trkpt>
      <trkpt lat="44.79826" lon="1.61725">
        <ele>176</ele>
        <time>2019-02-02T18:10:28.000Z</time>
      </trkpt>
      <trkpt lat="44.79818" lon="1.6171">
        <ele>180</ele>
        <time>2019-02-02T18:11:28.000Z</time>
      </trkpt>
      <trkpt lat="44.7978" lon="1.61677">
        <ele>174</ele>
        <time>2019-02-02T18:12:28.000Z</time>
      </trkpt>
      <trkpt lat="44.79765" lon="1.61654">
        <ele>171</ele>
        <time>2019-02-02T18:13:28.000Z</time>
      </trkpt>
      <trkpt lat="44.79749" lon="1.61663">
        <ele>158</ele>
        <time>2019-02-02T18:14:28.000Z</time>
      </trkpt>
      <trkpt lat="44.79747" lon="1.61699">
        <ele>151</ele>
        <time>2019-02-02T18:15:28.000Z</time>
      </trkpt>
      <trkpt lat="44.79749" lon="1.61714">
        <ele>148</ele>
        <time>2019-02-02T18:16:28.000Z</time>
      </trkpt>
      <trkpt lat="44.79769" lon="1.61739">
        <ele>150</ele>
        <time>2019-02-02T18:17:28.000Z</time>
      </trkpt>
      <trkpt lat="44.79785" lon="1.61771">
        <ele>150</ele>
        <time>2019-02-02T18:18:28.000Z</time>
      </trkpt>
      <trkpt lat="44.79826" lon="1.6183">
        <ele>147</ele>
        <time>2019-02-02T18:19:28.000Z</time>
      </trkpt>
      <trkpt lat="44.79876" lon="1.61866">
        <ele>153</ele>
        <time>2019-02-02T18:20:28.000Z</time>
      </trkpt>
      <trkpt lat="44.79932" lon="1.61888">
        <ele>154</ele>
        <time>2019-02-02T18:21:28.000Z</time>
      </trkpt>
      <trkpt lat="44.79975" lon="1.61914">
        <ele>152</ele>
        <time>2019-02-02T18:22:28.000Z</time>
      </trkpt>
      <trkpt lat="44.80032" lon="1.61936">
        <ele>158</ele>
        <time>2019-02-02T18:23:28.000Z</time>
      </trkpt>
      <trkpt lat="44.80077" lon="1.61996">
        <ele>152</ele>
        <time>2019-02-02T18:24:28.000Z</time>
      </trkpt>
      <trkpt lat="44.8013" lon="1.62074">
        <ele>156</ele>
        <time>2019-02-02T18:25:28.000Z</time>
      </trkpt>
      <trkpt lat="44.80176" lon="1.62133">
        <ele>157</ele>
        <time>2019-02-02T18:26:28.000Z</time>
      </trkpt>
      <trkpt lat="44.80204" lon="1.62225">
        <ele>152</ele>
        <time>2019-02-02T18:27:28.000Z</time>
      </trkpt>
      <trkpt lat="44.80189" lon="1.62261">
        <ele>146</ele>
        <time>2019-02-02T18:28:28.000Z</time>
      </trkpt>
      <trkpt lat="44.80112" lon="1.62236">
        <ele>153</ele>
        <time>2019-02-02T18:29:28.000Z</time>
      </trkpt>
      <trkpt lat="44.80137" lon="1.62213">
        <ele>148</ele>
        <time>2019-02-02T18:30:28.000Z</time>
      </trkpt>
      <trkpt lat="44.80129" lon="1.6222">
        <ele>149</ele>
        <time>2019-02-02T18:31:28.000Z</time>
      </trkpt>
      <trkpt lat="44.80142" lon="1.62221">
        <ele>148</ele>
        <time>2019-02-02T18:32:28.000Z</time>
      </trkpt>
      <trkpt lat="44.80119" lon="1.62216">
        <ele>150</ele>
        <time>2019-02-02T18:33:28.000Z</time>
      </trkpt>
      <trkpt lat="44.80078" lon="1.6217">
        <ele>148</ele>
        <time>2019-02-02T18:34:28.000Z</time>
      </trkpt>
      <trkpt lat="44.80029" lon="1.62137">
        <ele>156</ele>
        <time>2019-02-02T18:35:28.000Z</time>
      </trkpt>
      <trkpt lat="44.79979" lon="1.62112">
        <ele>169</ele>
        <time>2019-02-02T18:36:28.000Z</time>
      </trkpt>
      <trkpt lat="44.79945" lon="1.62014">
        <ele>158</ele>
        <time>2019-02-02T18:37:28.000Z</time>
      </trkpt>
      <trkpt lat="44.79916" lon="1.61993">
        <ele>159</ele>
        <time>2019-02-02T18:38:28.000Z</time>
      </trkpt>
      <trkpt lat="44.79873" lon="1.61955">
        <ele>162</ele>
        <time>2019-02-02T18:39:28.000Z</time>
      </trkpt>
      <trkpt lat="44.79843" lon="1.61936">
        <ele>161</ele>
        <time>2019-02-02T18:40:28.000Z</time>
      </trkpt>
      <trkpt lat="44.79811" lon="1.61917">
        <ele>162</ele>
        <time>2019-02-02T18:41:28.000Z</time>
      </trkpt>
      <trkpt lat="44.79775" lon="1.61905">
        <ele>172</ele>
        <time>2019-02-02T18:42:28.000Z</time>
      </trkpt>
      <trkpt lat="44.79745" lon="1.61877">
        <ele>168</ele>
        <time>2019-02-02T18:43:28.000Z</time>
      </trkpt>
      <trkpt lat="44.797" lon="1.61864">
        <ele>176</ele>
        <time>2019-02-02T18:44:28.000Z</time>
      </trkpt>
      <trkpt lat="44.79674" lon="1.61876">
        <ele>190</ele>
        <time>2019-02-02T18:45:28.000Z</time>
      </trkpt>
      <trkpt lat="44.79652" lon="1.61806">
        <ele>177</ele>
        <time>2019-02-02T18:46:28.000Z</time>
      </trkpt>
      <trkpt lat="44.79654" lon="1.61783">
        <ele>170</ele>
        <time>2019-02-02T18:47:28.000Z</time>
      </trkpt>
      <trkpt lat="44.79641" lon="1.61734">
        <ele>166</ele>
        <time>2019-02-02T18:48:28.000Z</time>
      </trkpt>
      <trkpt lat="44.79596" lon="1.61714">
        <ele>187</ele>
        <time>2019-02-02T18:49:28.000Z</time>
      </trkpt>
      <trkpt lat="44.79576" lon="1.61677">
        <ele>184</ele>
        <time>2019-02-02T18:50:28.000Z</time>
      </trkpt>
      <trkpt lat="44.79535" lon="1.61697">
        <ele>211</ele>
        <time>2019-02-02T18:51:28.000Z</time>
      </trkpt>
      <trkpt lat="44.79531" lon="1.61659">
        <ele>203</ele>
        <time>2019-02-02T18:52:28.000Z</time>
      </trkpt>
      <trkpt lat="44.79517" lon="1.61622">
        <ele>200</ele>
        <time>2019-02-02T18:53:28.000Z</time>
      </trkpt>
      <trkpt lat="44.7952" lon="1.6159">
        <ele>188</ele>
        <time>2019-02-02T18:54:28.000Z</time>
      </trkpt>
      <trkpt lat="44.79498" lon="1.61567">
        <ele>195</ele>
        <time>2019-02-02T18:55:28.000Z</time>
      </trkpt>
      <trkpt lat="44.79488" lon="1.61542">
        <ele>197</ele>
        <time>2019-02-02T18:56:28.000Z</time>
      </trkpt>
      <trkpt lat="44.79485" lon="1.61499">
        <ele>191</ele>
        <time>2019-02-02T18:57:28.000Z</time>
      </trkpt>
      <trkpt lat="44.79471" lon="1.61477">
        <ele>198</ele>
        <time>2019-02-02T18:58:28.000Z</time>
      </trkpt>
      <trkpt lat="44.79461" lon="1.61439">
        <ele>200</ele>
        <time>2019-02-02T18:59:28.000Z</time>
      </trkpt>
      <trkpt lat="44.79457" lon="1.61397">
        <ele>201</ele>
        <time>2019-02-02T19:00:28.000Z</time>
      </trkpt>
      <trkpt lat="44.7947" lon="1.61358">
        <ele>195</ele>
        <time>2019-02-02T19:01:28.000Z</time>
      </trkpt>
      <trkpt lat="44.79465" lon="1.61328">
        <ele>201</ele>
        <time>2019-02-02T19:02:28.000Z</time>
      </trkpt>
      <trkpt lat="44.79464" lon="1.613">
        <ele>207</ele>
        <time>2019-02-02T19:03:28.000Z</time>
      </trkpt>
      <trkpt lat="44.79474" lon="1.61268">
        <ele>209</ele>
        <time>2019-02-02T19:04:28.000Z</time>
      </trkpt>
      <trkpt lat="44.79487" lon="1.61229">
        <ele>211</ele>
        <time>2019-02-02T19:05:28.000Z</time>
      </trkpt>
      <trkpt lat="44.79517" lon="1.61185">
        <ele>205</ele>
        <time>2019-02-02T19:06:28.000Z</time>
      </trkpt>
      <trkpt lat="44.7953" lon="1.61144">
        <ele>203</ele>
        <time>2019-02-02T19:07:28.000Z</time>
      </trkpt>
      <trkpt lat="44.79514" lon="1.6109">
        <ele>215</ele>
        <time>2019-02-02T19:08:28.000Z</time>
      </trkpt>
      <trkpt lat="44.79486" lon="1.61057">
        <ele>220</ele>
        <time>2019-02-02T19:09:28.000Z</time>
      </trkpt>
      <trkpt lat="44.79459" lon="1.61031">
        <ele>223</ele>
        <time>2019-02-02T19:10:28.000Z</time>
      </trkpt>
      <trkpt lat="44.79438" lon="1.60999">
        <ele>225</ele>
        <time>2019-02-02T19:11:28.000Z</time>
      </trkpt>
      <trkpt lat="44.79405" lon="1.60984">
        <ele>230</ele>
        <time>2019-02-02T19:12:28.000Z</time>
      </trkpt>
      <trkpt lat="44.79377" lon="1.60955">
        <ele>231</ele>
        <time>2019-02-02T19:13:28.000Z</time>
      </trkpt>
      <trkpt lat="44.79365" lon="1.60927">
        <ele>229</ele>
        <time>2019-02-02T19:14:28.000Z</time>
      </trkpt>
      <trkpt lat="44.79347" lon="1.60898">
        <ele>230</ele>
        <time>2019-02-02T19:15:28.000Z</time>
      </trkpt>
      <trkpt lat="44.79337" lon="1.60864">
        <ele>230</ele>
        <time>2019-02-02T19:16:28.000Z</time>
      </trkpt>
      <trkpt lat="44.79311" lon="1.60828">
        <ele>232</ele>
        <time>2019-02-02T19:17:28.000Z</time>
      </trkpt>
      <trkpt lat="44.7928" lon="1.60823">
        <ele>236</ele>
        <time>2019-02-02T19:18:28.000Z</time>
      </trkpt>
      <trkpt lat="44.79249" lon="1.60837">
        <ele>243</ele>
        <time>2019-02-02T19:19:28.000Z</time>
      </trkpt>
      <trkpt lat="44.79227" lon="1.60853">
        <ele>246</ele>
        <time>2019-02-02T19:20:28.000Z</time>
      </trkpt>
      <trkpt lat="44.7918" lon="1.60857">
        <ele>249</ele>
        <time>2019-02-02T19:21:28.000Z</time>
      </trkpt>
      <trkpt lat="44.79156" lon="1.60857">
        <ele>251</ele>
        <time>2019-02-02T19:22:28.000Z</time>
      </trkpt>
      <trkpt lat="44.79125" lon="1.60869">
        <ele>254</ele>
        <time>2019-02-02T19:23:28.000Z</time>
      </trkpt>
      <trkpt lat="44.791" lon="1.60848">
        <ele>254</ele>
        <time>2019-02-02T19:24:28.000Z</time>
      </trkpt>
      <trkpt lat="44.79072" lon="1.60854">
        <ele>255</ele>
        <time>2019-02-02T19:25:28.000Z</time>
      </trkpt>
      <trkpt lat="44.79047" lon="1.60851">
        <ele>256</ele>
        <time>2019-02-02T19:26:28.000Z</time>
      </trkpt>
      <trkpt lat="44.79031" lon="1.60855">
        <ele>257</ele>
        <time>2019-02-02T19:27:28.000Z</time>
      </trkpt>
      <trkpt lat="44.79001" lon="1.60843">
        <ele>258</ele>
        <time>2019-02-02T19:28:28.000Z</time>
      </trkpt>
      <trkpt lat="44.78968" lon="1.60842">
        <ele>259</ele>
        <time>2019-02-02T19:29:28.000Z</time>
      </trkpt>
      <trkpt lat="44.7893" lon="1.60843">
        <ele>259</ele>
        <time>2019-02-02T19:30:28.000Z</time>
      </trkpt>
      <trkpt lat="44.7886" lon="1.60835">
        <ele>258</ele>
        <time>2019-02-02T19:31:28.000Z</time>
      </trkpt>
      <trkpt lat="44.78785" lon="1.60825">
        <ele>256</ele>
        <time>2019-02-02T19:32:28.000Z</time>
      </trkpt>
      <trkpt lat="44.787" lon="1.6082">
        <ele>252</ele>
        <time>2019-02-02T19:33:28.000Z</time>
      </trkpt>
      <trkpt lat="44.78598" lon="1.60822">
        <ele>251</ele>
        <time>2019-02-02T19:34:28.000Z</time>
      </trkpt>
      <trkpt lat="44.78551" lon="1.60904">
        <ele>244</ele>
        <time>2019-02-02T19:35:28.000Z</time>
      </trkpt>
      <trkpt lat="44.7849" lon="1.61033">
        <ele>238</ele>
        <time>2019-02-02T19:36:28.000Z</time>
      </trkpt>
      <trkpt lat="44.78417" lon="1.61158">
        <ele>236</ele>
        <time>2019-02-02T19:37:28.000Z</time>
      </trkpt>
      <trkpt lat="44.78517" lon="1.61367">
        <ele>236</ele>
        <time>2019-02-02T19:38:28.000Z</time>
      </trkpt>
      <trkpt lat="44.78382" lon="1.6138">
        <ele>217</ele>
        <time>2019-02-02T19:39:28.000Z</time>
      </trkpt>
      <trkpt lat="44.78279" lon="1.61556">
        <ele>207</ele>
        <time>2019-02-02T19:40:28.000Z</time>
      </trkpt>
      <trkpt lat="44.78143" lon="1.61758">
        <ele>197</ele>
        <time>2019-02-02T19:41:28.000Z</time>
      </trkpt>
      <trkpt lat="44.77973" lon="1.61763">
        <ele>204</ele>
        <time>2019-02-02T19:42:28.000Z</time>
      </trkpt>
      <trkpt lat="44.77931" lon="1.61709">
        <ele>210</ele>
        <time>2019-02-02T19:43:28.000Z</time>
      </trkpt>
      <trkpt lat="44.77888" lon="1.61704">
        <ele>213</ele>
        <time>2019-02-02T19:44:28.000Z</time>
      </trkpt>
      <trkpt lat="44.77861" lon="1.61706">
        <ele>213</ele>
        <time>2019-02-02T19:45:28.000Z</time>
      </trkpt>
      <trkpt lat="44.77841" lon="1.61696">
        <ele>216</ele>
        <time>2019-02-02T19:46:28.000Z</time>
      </trkpt>
      <trkpt lat="44.77808" lon="1.61703">
        <ele>217</ele>
        <time>2019-02-02T19:47:28.000Z</time>
      </trkpt>
      <trkpt lat="44.77784" lon="1.61709">
        <ele>218</ele>
        <time>2019-02-02T19:48:28.000Z</time>
      </trkpt>
      <trkpt lat="44.77761" lon="1.61717">
        <ele>217</ele>
        <time>2019-02-02T19:49:28.000Z</time>
      </trkpt>
      <trkpt lat="44.7774" lon="1.61724">
        <ele>218</ele>
        <time>2019-02-02T19:50:28.000Z</time>
      </trkpt>
      <trkpt lat="44.7772" lon="1.61732">
        <ele>219</ele>
        <time>2019-02-02T19:51:28.000Z</time>
      </trkpt>
      <trkpt lat="44.77697" lon="1.61744">
        <ele>220</ele>
        <time>2019-02-02T19:52:28.000Z</time>
      </trkpt>
      <trkpt lat="44.77657" lon="1.61765">
        <ele>224</ele>
        <time>2019-02-02T19:53:28.000Z</time>
      </trkpt>
      <trkpt lat="44.77637" lon="1.61776">
        <ele>226</ele>
        <time>2019-02-02T19:54:28.000Z</time>
      </trkpt>
      <trkpt lat="44.77615" lon="1.61793">
        <ele>227</ele>
        <time>2019-02-02T19:55:28.000Z</time>
      </trkpt>
      <trkpt lat="44.77594" lon="1.61811">
        <ele>228</ele>
        <time>2019-02-02T19:56:28.000Z</time>
      </trkpt>
      <trkpt lat="44.77573" lon="1.6183">
        <ele>227</ele>
        <time>2019-02-02T19:57:28.000Z</time>
      </trkpt>
      <trkpt lat="44.77555" lon="1.61849">
        <ele>229</ele>
        <time>2019-02-02T19:58:28.000Z</time>
      </trkpt>
      <trkpt lat="44.77539" lon="1.61871">
        <ele>229</ele>
        <time>2019-02-02T19:59:28.000Z</time>
      </trkpt>
      <trkpt lat="44.77524" lon="1.6189">
        <ele>228</ele>
        <time>2019-02-02T20:00:28.000Z</time>
      </trkpt>
      <trkpt lat="44.77501" lon="1.61908">
        <ele>229</ele>
        <time>2019-02-02T20:01:28.000Z</time>
      </trkpt>
      <trkpt lat="44.77481" lon="1.61912">
        <ele>231</ele>
        <time>2019-02-02T20:02:28.000Z</time>
      </trkpt>
      <trkpt lat="44.77458" lon="1.61912">
        <ele>234</ele>
        <time>2019-02-02T20:03:28.000Z</time>
      </trkpt>
      <trkpt lat="44.77436" lon="1.61918">
        <ele>235</ele>
        <time>2019-02-02T20:04:28.000Z</time>
      </trkpt>
      <trkpt lat="44.77415" lon="1.61922">
        <ele>237</ele>
        <time>2019-02-02T20:05:28.000Z</time>
      </trkpt>
      <trkpt lat="44.77394" lon="1.61927">
        <ele>237</ele>
        <time>2019-02-02T20:06:28.000Z</time>
      </trkpt>
      <trkpt lat="44.77372" lon="1.61928">
        <ele>239</ele>
        <time>2019-02-02T20:07:28.000Z</time>
      </trkpt>
      <trkpt lat="44.7735" lon="1.61922">
        <ele>243</ele>
        <time>2019-02-02T20:08:28.000Z</time>
      </trkpt>
      <trkpt lat="44.77329" lon="1.61917">
        <ele>246</ele>
        <time>2019-02-02T20:09:28.000Z</time>
      </trkpt>
      <trkpt lat="44.7731" lon="1.61913">
        <ele>246</ele>
        <time>2019-02-02T20:10:28.000Z</time>
      </trkpt>
      <trkpt lat="44.7729" lon="1.61907">
        <ele>246</ele>
        <time>2019-02-02T20:11:28.000Z</time>
      </trkpt>
      <trkpt lat="44.77268" lon="1.61898">
        <ele>248</ele>
        <time>2019-02-02T20:12:28.000Z</time>
      </trkpt>
      <trkpt lat="44.77247" lon="1.61888">
        <ele>250</ele>
        <time>2019-02-02T20:13:28.000Z</time>
      </trkpt>
      <trkpt lat="44.77229" lon="1.61876">
        <ele>250</ele>
        <time>2019-02-02T20:14:28.000Z</time>
      </trkpt>
      <trkpt lat="44.77211" lon="1.61862">
        <ele>251</ele>
        <time>2019-02-02T20:15:28.000Z</time>
      </trkpt>
      <trkpt lat="44.77197" lon="1.6184">
        <ele>255</ele>
        <time>2019-02-02T20:16:28.000Z</time>
      </trkpt>
      <trkpt lat="44.77171" lon="1.61809">
        <ele>257</ele>
        <time>2019-02-02T20:17:28.000Z</time>
      </trkpt>
      <trkpt lat="44.77154" lon="1.61799">
        <ele>256</ele>
        <time>2019-02-02T20:18:28.000Z</time>
      </trkpt>
      <trkpt lat="44.77135" lon="1.61774">
        <ele>258</ele>
        <time>2019-02-02T20:19:28.000Z</time>
      </trkpt>
      <trkpt lat="44.7712" lon="1.61759">
        <ele>259</ele>
        <time>2019-02-02T20:20:28.000Z</time>
      </trkpt>
      <trkpt lat="44.77102" lon="1.61732">
        <ele>261</ele>
        <time>2019-02-02T20:21:28.000Z</time>
      </trkpt>
      <trkpt lat="44.77081" lon="1.61716">
        <ele>261</ele>
        <time>2019-02-02T20:22:28.000Z</time>
      </trkpt>
      <trkpt lat="44.77076" lon="1.61685">
        <ele>267</ele>
        <time>2019-02-02T20:23:28.000Z</time>
      </trkpt>
      <trkpt lat="44.77065" lon="1.61654">
        <ele>272</ele>
        <time>2019-02-02T20:24:28.000Z</time>
      </trkpt>
      <trkpt lat="44.77036" lon="1.61649">
        <ele>272</ele>
        <time>2019-02-02T20:25:28.000Z</time>
      </trkpt>
      <trkpt lat="44.77016" lon="1.61679">
        <ele>268</ele>
        <time>2019-02-02T20:26:28.000Z</time>
      </trkpt>
      <trkpt lat="44.76986" lon="1.61673">
        <ele>271</ele>
        <time>2019-02-02T20:27:28.000Z</time>
      </trkpt>
      <trkpt lat="44.76952" lon="1.61667">
        <ele>276</ele>
        <time>2019-02-02T20:28:28.000Z</time>
      </trkpt>
      <trkpt lat="44.76926" lon="1.61644">
        <ele>280</ele>
        <time>2019-02-02T20:29:28.000Z</time>
      </trkpt>
      <trkpt lat="44.76903" lon="1.61629">
        <ele>282</ele>
        <time>2019-02-02T20:30:28.000Z</time>
      </trkpt>
      <trkpt lat="44.76883" lon="1.61601">
        <ele>284</ele>
        <time>2019-02-02T20:31:28.000Z</time>
      </trkpt>
      <trkpt lat="44.76865" lon="1.61567">
        <ele>287</ele>
        <time>2019-02-02T20:32:28.000Z</time>
      </trkpt>
      <trkpt lat="44.76857" lon="1.6154">
        <ele>288</ele>
        <time>2019-02-02T20:33:28.000Z</time>
      </trkpt>
      <trkpt lat="44.76842" lon="1.61519">
        <ele>290</ele>
        <time>2019-02-02T20:34:28.000Z</time>
      </trkpt>
      <trkpt lat="44.76808" lon="1.615">
        <ele>292</ele>
        <time>2019-02-02T20:35:28.000Z</time>
      </trkpt>
      <trkpt lat="44.76772" lon="1.61493">
        <ele>293</ele>
        <time>2019-02-02T20:36:28.000Z</time>
      </trkpt>
      <trkpt lat="44.76741" lon="1.61491">
        <ele>294</ele>
        <time>2019-02-02T20:37:28.000Z</time>
      </trkpt>
      <trkpt lat="44.76699" lon="1.61481">
        <ele>295</ele>
        <time>2019-02-02T20:38:28.000Z</time>
      </trkpt>
      <trkpt lat="44.76662" lon="1.61515">
        <ele>294</ele>
        <time>2019-02-02T20:39:28.000Z</time>
      </trkpt>
      <trkpt lat="44.76638" lon="1.61521">
        <ele>294</ele>
        <time>2019-02-02T20:40:28.000Z</time>
      </trkpt>
      <trkpt lat="44.76645" lon="1.61512">
        <ele>295</ele>
        <time>2019-02-02T20:41:28.000Z</time>
      </trkpt>
      <trkpt lat="44.76638" lon="1.61526">
        <ele>294</ele>
        <time>2019-02-02T20:42:28.000Z</time>
      </trkpt>
      <trkpt lat="44.76612" lon="1.61568">
        <ele>295</ele>
        <time>2019-02-02T20:43:28.000Z</time>
      </trkpt>
      <trkpt lat="44.76599" lon="1.61568">
        <ele>296</ele>
        <time>2019-02-02T20:44:28.000Z</time>
      </trkpt>
      <trkpt lat="44.76594" lon="1.61545">
        <ele>295</ele>
        <time>2019-02-02T20:45:28.000Z</time>
      </trkpt>
      <trkpt lat="44.76586" lon="1.61513">
        <ele>294</ele>
        <time>2019-02-02T20:46:28.000Z</time>
      </trkpt>
      <trkpt lat="44.76576" lon="1.61474">
        <ele>293</ele>
        <time>2019-02-02T20:47:28.000Z</time>
      </trkpt>
      <trkpt lat="44.76565" lon="1.61432">
        <ele>292</ele>
        <time>2019-02-02T20:48:28.000Z</time>
      </trkpt>
      <trkpt lat="44.76551" lon="1.61383">
        <ele>291</ele>
        <time>2019-02-02T20:49:28.000Z</time>
      </trkpt>
      <trkpt lat="44.76537" lon="1.61332">
        <ele>290</ele>
        <time>2019-02-02T20:50:28.000Z</time>
      </trkpt>
      <trkpt lat="44.76528" lon="1.61286">
        <ele>290</ele>
        <time>2019-02-02T20:51:28.000Z</time>
      </trkpt>
      <trkpt lat="44.76517" lon="1.61243">
        <ele>290</ele>
        <time>2019-02-02T20:52:28.000Z</time>
      </trkpt>
      <trkpt lat="44.76507" lon="1.61197">
        <ele>289</ele>
        <time>2019-02-02T20:53:28.000Z</time>
      </trkpt>
      <trkpt lat="44.76497" lon="1.61161">
        <ele>289</ele>
        <time>2019-02-02T20:54:28.000Z</time>
      </trkpt>
      <trkpt lat="44.76488" lon="1.61111">
        <ele>289</ele>
        <time>2019-02-02T20:55:28.000Z</time>
      </trkpt>
      <trkpt lat="44.76483" lon="1.61055">
        <ele>288</ele>
        <time>2019-02-02T20:56:28.000Z</time>
      </trkpt>
      <trkpt lat="44.76479" lon="1.60998">
        <ele>286</ele>
        <time>2019-02-02T20:57:28.000Z</time>
      </trkpt>
      <trkpt lat="44.76477" lon="1.60943">
        <ele>282</ele>
        <time>2019-02-02T20:58:28.000Z</time>
      </trkpt>
      <trkpt lat="44.76472" lon="1.60878">
        <ele>279</ele>
        <time>2019-02-02T20:59:28.000Z</time>
      </trkpt>
      <trkpt lat="44.76466" lon="1.60809">
        <ele>279</ele>
        <time>2019-02-02T21:00:28.000Z</time>
      </trkpt>
      <trkpt lat="44.76462" lon="1.60739">
        <ele>278</ele>
        <time>2019-02-02T21:01:28.000Z</time>
      </trkpt>
      <trkpt lat="44.76457" lon="1.60633">
        <ele>277</ele>
        <time>2019-02-02T21:02:28.000Z</time>
      </trkpt>
      <trkpt lat="44.76457" lon="1.60593">
        <ele>278</ele>
        <time>2019-02-02T21:03:28.000Z</time>
      </trkpt>
      <trkpt lat="44.76455" lon="1.60554">
        <ele>278</ele>
        <time>2019-02-02T21:04:28.000Z</time>
      </trkpt>
      <trkpt lat="44.76452" lon="1.60503">
        <ele>279</ele>
        <time>2019-02-02T21:05:28.000Z</time>
      </trkpt>
      <trkpt lat="44.76452" lon="1.60463">
        <ele>279</ele>
        <time>2019-02-02T21:06:28.000Z</time>
      </trkpt>
      <trkpt lat="44.76447" lon="1.60427">
        <ele>278</ele>
        <time>2019-02-02T21:07:28.000Z</time>
      </trkpt>
      <trkpt lat="44.76445" lon="1.60381">
        <ele>277</ele>
        <time>2019-02-02T21:08:28.000Z</time>
      </trkpt>
      <trkpt lat="44.76441" lon="1.60324">
        <ele>274</ele>
        <time>2019-02-02T21:09:28.000Z</time>
      </trkpt>
      <trkpt lat="44.76438" lon="1.60261">
        <ele>270</ele>
        <time>2019-02-02T21:10:28.000Z</time>
      </trkpt>
      <trkpt lat="44.76427" lon="1.60177">
        <ele>266</ele>
        <time>2019-02-02T21:11:28.000Z</time>
      </trkpt>
      <trkpt lat="44.76396" lon="1.60119">
        <ele>265</ele>
        <time>2019-02-02T21:12:28.000Z</time>
      </trkpt>
      <trkpt lat="44.76349" lon="1.6009">
        <ele>261</ele>
        <time>2019-02-02T21:13:28.000Z</time>
      </trkpt>
      <trkpt lat="44.7629" lon="1.60082">
        <ele>254</ele>
        <time>2019-02-02T21:14:28.000Z</time>
      </trkpt>
      <trkpt lat="44.76243" lon="1.60041">
        <ele>249</ele>
        <time>2019-02-02T21:15:28.000Z</time>
      </trkpt>
      <trkpt lat="44.76236" lon="1.5997">
        <ele>249</ele>
        <time>2019-02-02T21:16:28.000Z</time>
      </trkpt>
      <trkpt lat="44.7623" lon="1.59893">
        <ele>246</ele>
        <time>2019-02-02T21:17:28.000Z</time>
      </trkpt>
      <trkpt lat="44.76228" lon="1.59815">
        <ele>243</ele>
        <time>2019-02-02T21:18:28.000Z</time>
      </trkpt>
      <trkpt lat="44.76226" lon="1.59734">
        <ele>238</ele>
        <time>2019-02-02T21:19:28.000Z</time>
      </trkpt>
      <trkpt lat="44.76229" lon="1.59635">
        <ele>234</ele>
        <time>2019-02-02T21:20:28.000Z</time>
      </trkpt>
      <trkpt lat="44.76236" lon="1.59556">
        <ele>231</ele>
        <time>2019-02-02T21:21:28.000Z</time>
      </trkpt>
      <trkpt lat="44.76247" lon="1.59461">
        <ele>230</ele>
        <time>2019-02-02T21:22:28.000Z</time>
      </trkpt>
      <trkpt lat="44.76247" lon="1.59362">
        <ele>225</ele>
        <time>2019-02-02T21:23:28.000Z</time>
      </trkpt>
      <trkpt lat="44.76244" lon="1.59263">
        <ele>219</ele>
        <time>2019-02-02T21:24:28.000Z</time>
      </trkpt>
      <trkpt lat="44.76246" lon="1.59159">
        <ele>215</ele>
        <time>2019-02-02T21:25:28.000Z</time>
      </trkpt>
      <trkpt lat="44.76253" lon="1.59072">
        <ele>209</ele>
        <time>2019-02-02T21:26:28.000Z</time>
      </trkpt>
      <trkpt lat="44.76267" lon="1.58989">
        <ele>207</ele>
        <time>2019-02-02T21:27:28.000Z</time>
      </trkpt>
      <trkpt lat="44.76283" lon="1.58906">
        <ele>205</ele>
        <time>2019-02-02T21:28:28.000Z</time>
      </trkpt>
      <trkpt lat="44.76295" lon="1.58805">
        <ele>203</ele>
        <time>2019-02-02T21:29:28.000Z</time>
      </trkpt>
      <trkpt lat="44.76294" lon="1.58722">
        <ele>197</ele>
        <time>2019-02-02T21:30:28.000Z</time>
      </trkpt>
      <trkpt lat="44.76303" lon="1.58628">
        <ele>190</ele>
        <time>2019-02-02T21:31:28.000Z</time>
      </trkpt>
      <trkpt lat="44.76339" lon="1.58551">
        <ele>185</ele>
        <time>2019-02-02T21:32:28.000Z</time>
      </trkpt>
      <trkpt lat="44.764" lon="1.58508">
        <ele>180</ele>
        <time>2019-02-02T21:33:28.000Z</time>
      </trkpt>
      <trkpt lat="44.76453" lon="1.5847">
        <ele>177</ele>
        <time>2019-02-02T21:34:28.000Z</time>
      </trkpt>
      <trkpt lat="44.76512" lon="1.5843">
        <ele>173</ele>
        <time>2019-02-02T21:35:28.000Z</time>
      </trkpt>
      <trkpt lat="44.76551" lon="1.58399">
        <ele>174</ele>
        <time>2019-02-02T21:36:28.000Z</time>
      </trkpt>
      <trkpt lat="44.76586" lon="1.58361">
        <ele>175</ele>
        <time>2019-02-02T21:37:28.000Z</time>
      </trkpt>
      <trkpt lat="44.76594" lon="1.58325">
        <ele>177</ele>
        <time>2019-02-02T21:38:28.000Z</time>
      </trkpt>
      <trkpt lat="44.76589" lon="1.58289">
        <ele>180</ele>
        <time>2019-02-02T21:39:28.000Z</time>
      </trkpt>
      <trkpt lat="44.7658" lon="1.58263">
        <ele>181</ele>
        <time>2019-02-02T21:40:28.000Z</time>
      </trkpt>
      <trkpt lat="44.76565" lon="1.58238">
        <ele>185</ele>
        <time>2019-02-02T21:41:28.000Z</time>
      </trkpt>
      <trkpt lat="44.76552" lon="1.58219">
        <ele>187</ele>
        <time>2019-02-02T21:42:28.000Z</time>
      </trkpt>
      <trkpt lat="44.76541" lon="1.58199">
        <ele>189</ele>
        <time>2019-02-02T21:43:28.000Z</time>
      </trkpt>
      <trkpt lat="44.76525" lon="1.58181">
        <ele>190</ele>
        <time>2019-02-02T21:44:28.000Z</time>
      </trkpt>
      <trkpt lat="44.76512" lon="1.58164">
        <ele>190</ele>
        <time>2019-02-02T21:45:28.000Z</time>
      </trkpt>
      <trkpt lat="44.76498" lon="1.58154">
        <ele>192</ele>
        <time>2019-02-02T21:46:28.000Z</time>
      </trkpt>
      <trkpt lat="44.76488" lon="1.5814">
        <ele>195</ele>
        <time>2019-02-02T21:47:28.000Z</time>
      </trkpt>
      <trkpt lat="44.76481" lon="1.58123">
        <ele>197</ele>
        <time>2019-02-02T21:48:28.000Z</time>
      </trkpt>
      <trkpt lat="44.7647" lon="1.58107">
        <ele>198</ele>
        <time>2019-02-02T21:49:28.000Z</time>
      </trkpt>
      <trkpt lat="44.76458" lon="1.58091">
        <ele>198</ele>
        <time>2019-02-02T21:50:28.000Z</time>
      </trkpt>
      <trkpt lat="44.76432" lon="1.58056">
        <ele>201</ele>
        <time>2019-02-02T21:51:28.000Z</time>
      </trkpt>
      <trkpt lat="44.76416" lon="1.58041">
        <ele>202</ele>
        <time>2019-02-02T21:52:28.000Z</time>
      </trkpt>
      <trkpt lat="44.76402" lon="1.5803">
        <ele>203</ele>
        <time>2019-02-02T21:53:28.000Z</time>
      </trkpt>
      <trkpt lat="44.76393" lon="1.58018">
        <ele>204</ele>
        <time>2019-02-02T21:54:28.000Z</time>
      </trkpt>
      <trkpt lat="44.76385" lon="1.58008">
        <ele>204</ele>
        <time>2019-02-02T21:55:28.000Z</time>
      </trkpt>
      <trkpt lat="44.76375" lon="1.57994">
        <ele>204</ele>
        <time>2019-02-02T21:56:28.000Z</time>
      </trkpt>
      <trkpt lat="44.76363" lon="1.57983">
        <ele>205</ele>
        <time>2019-02-02T21:57:28.000Z</time>
      </trkpt>
      <trkpt lat="44.76353" lon="1.57973">
        <ele>205</ele>
        <time>2019-02-02T21:58:28.000Z</time>
      </trkpt>
      <trkpt lat="44.7634" lon="1.57961">
        <ele>205</ele>
        <time>2019-02-02T21:59:28.000Z</time>
      </trkpt>
      <trkpt lat="44.76327" lon="1.57947">
        <ele>205</ele>
        <time>2019-02-02T22:00:28.000Z</time>
      </trkpt>
      <trkpt lat="44.76314" lon="1.57935">
        <ele>206</ele>
        <time>2019-02-02T22:01:28.000Z</time>
      </trkpt>
      <trkpt lat="44.763" lon="1.57926">
        <ele>206</ele>
        <time>2019-02-02T22:02:28.000Z</time>
      </trkpt>
      <trkpt lat="44.76288" lon="1.57915">
        <ele>205</ele>
        <time>2019-02-02T22:03:28.000Z</time>
      </trkpt>
      <trkpt lat="44.76279" lon="1.57904">
        <ele>207</ele>
        <time>2019-02-02T22:04:28.000Z</time>
      </trkpt>
      <trkpt lat="44.76263" lon="1.57889">
        <ele>208</ele>
        <time>2019-02-02T22:05:28.000Z</time>
      </trkpt>
      <trkpt lat="44.76252" lon="1.57879">
        <ele>209</ele>
        <time>2019-02-02T22:06:28.000Z</time>
      </trkpt>
      <trkpt lat="44.76243" lon="1.57872">
        <ele>209</ele>
        <time>2019-02-02T22:07:28.000Z</time>
      </trkpt>
      <trkpt lat="44.76224" lon="1.5786">
        <ele>210</ele>
        <time>2019-02-02T22:08:28.000Z</time>
      </trkpt>
      <trkpt lat="44.76214" lon="1.57851">
        <ele>210</ele>
        <time>2019-02-02T22:09:28.000Z</time>
      </trkpt>
      <trkpt lat="44.76202" lon="1.57838">
        <ele>209</ele>
        <time>2019-02-02T22:10:28.000Z</time>
      </trkpt>
      <trkpt lat="44.76171" lon="1.57809">
        <ele>208</ele>
        <time>2019-02-02T22:11:28.000Z</time>
      </trkpt>
      <trkpt lat="44.76146" lon="1.57786">
        <ele>209</ele>
        <time>2019-02-02T22:12:28.000Z</time>
      </trkpt>
      <trkpt lat="44.76137" lon="1.57774">
        <ele>210</ele>
        <time>2019-02-02T22:13:28.000Z</time>
      </trkpt>
      <trkpt lat="44.76135" lon="1.57757">
        <ele>210</ele>
        <time>2019-02-02T22:14:28.000Z</time>
      </trkpt>
      <trkpt lat="44.76138" lon="1.57737">
        <ele>212</ele>
        <time>2019-02-02T22:15:28.000Z</time>
      </trkpt>
      <trkpt lat="44.7614" lon="1.57722">
        <ele>213</ele>
        <time>2019-02-02T22:16:28.000Z</time>
      </trkpt>
      <trkpt lat="44.76142" lon="1.57705">
        <ele>215</ele>
        <time>2019-02-02T22:17:28.000Z</time>
      </trkpt>
      <trkpt lat="44.76142" lon="1.57692">
        <ele>215</ele>
        <time>2019-02-02T22:18:28.000Z</time>
      </trkpt>
      <trkpt lat="44.7614" lon="1.57658">
        <ele>217</ele>
        <time>2019-02-02T22:19:28.000Z</time>
      </trkpt>
      <trkpt lat="44.76138" lon="1.57642">
        <ele>218</ele>
        <time>2019-02-02T22:20:28.000Z</time>
      </trkpt>
      <trkpt lat="44.76137" lon="1.57628">
        <ele>219</ele>
        <time>2019-02-02T22:21:28.000Z</time>
      </trkpt>
      <trkpt lat="44.76134" lon="1.57612">
        <ele>220</ele>
        <time>2019-02-02T22:22:28.000Z</time>
      </trkpt>
      <trkpt lat="44.76131" lon="1.57596">
        <ele>220</ele>
        <time>2019-02-02T22:23:28.000Z</time>
      </trkpt>
      <trkpt lat="44.76129" lon="1.5758">
        <ele>221</ele>
        <time>2019-02-02T22:24:28.000Z</time>
      </trkpt>
      <trkpt lat="44.76123" lon="1.57548">
        <ele>223</ele>
        <time>2019-02-02T22:25:28.000Z</time>
      </trkpt>
      <trkpt lat="44.76119" lon="1.57532">
        <ele>224</ele>
        <time>2019-02-02T22:26:28.000Z</time>
      </trkpt>
      <trkpt lat="44.76107" lon="1.57501">
        <ele>224</ele>
        <time>2019-02-02T22:27:28.000Z</time>
      </trkpt>
      <trkpt lat="44.76099" lon="1.57489">
        <ele>223</ele>
        <time>2019-02-02T22:28:28.000Z</time>
      </trkpt>
      <trkpt lat="44.7609" lon="1.57482">
        <ele>222</ele>
        <time>2019-02-02T22:29:28.000Z</time>
      </trkpt>
      <trkpt lat="44.76082" lon="1.57475">
        <ele>221</ele>
        <time>2019-02-02T22:30:28.000Z</time>
      </trkpt>
      <trkpt lat="44.76073" lon="1.57464">
        <ele>223</ele>
        <time>2019-02-02T22:31:28.000Z</time>
      </trkpt>
      <trkpt lat="44.76062" lon="1.57453">
        <ele>223</ele>
        <time>2019-02-02T22:32:28.000Z</time>
      </trkpt>
      <trkpt lat="44.76052" lon="1.5744">
        <ele>224</ele>
        <time>2019-02-02T22:33:28.000Z</time>
      </trkpt>
      <trkpt lat="44.76047" lon="1.57427">
        <ele>224</ele>
        <time>2019-02-02T22:34:28.000Z</time>
      </trkpt>
      <trkpt lat="44.76038" lon="1.57403">
        <ele>225</ele>
        <time>2019-02-02T22:35:28.000Z</time>
      </trkpt>
      <trkpt lat="44.76034" lon="1.57388">
        <ele>225</ele>
        <time>2019-02-02T22:36:28.000Z</time>
      </trkpt>
      <trkpt lat="44.7603" lon="1.57376">
        <ele>225</ele>
        <time>2019-02-02T22:37:28.000Z</time>
      </trkpt>
      <trkpt lat="44.76023" lon="1.57346">
        <ele>226</ele>
        <time>2019-02-02T22:38:28.000Z</time>
      </trkpt>
      <trkpt lat="44.7602" lon="1.57334">
        <ele>226</ele>
        <time>2019-02-02T22:39:28.000Z</time>
      </trkpt>
      <trkpt lat="44.76016" lon="1.57318">
        <ele>227</ele>
        <time>2019-02-02T22:40:28.000Z</time>
      </trkpt>
      <trkpt lat="44.76015" lon="1.57305">
        <ele>228</ele>
        <time>2019-02-02T22:41:28.000Z</time>
      </trkpt>
      <trkpt lat="44.76015" lon="1.57291">
        <ele>230</ele>
        <time>2019-02-02T22:42:28.000Z</time>
      </trkpt>
      <trkpt lat="44.76013" lon="1.57277">
        <ele>231</ele>
        <time>2019-02-02T22:43:28.000Z</time>
      </trkpt>
      <trkpt lat="44.76006" lon="1.57267">
        <ele>230</ele>
        <time>2019-02-02T22:44:28.000Z</time>
      </trkpt>
      <trkpt lat="44.75997" lon="1.57262">
        <ele>229</ele>
        <time>2019-02-02T22:45:28.000Z</time>
      </trkpt>
      <trkpt lat="44.75984" lon="1.57262">
        <ele>228</ele>
        <time>2019-02-02T22:46:28.000Z</time>
      </trkpt>
      <trkpt lat="44.75971" lon="1.57257">
        <ele>228</ele>
        <time>2019-02-02T22:47:28.000Z</time>
      </trkpt>
      <trkpt lat="44.75966" lon="1.57243">
        <ele>230</ele>
        <time>2019-02-02T22:48:28.000Z</time>
      </trkpt>
      <trkpt lat="44.75965" lon="1.572">
        <ele>239</ele>
        <time>2019-02-02T22:49:28.000Z</time>
      </trkpt>
      <trkpt lat="44.75965" lon="1.57187">
        <ele>242</ele>
        <time>2019-02-02T22:50:28.000Z</time>
      </trkpt>
      <trkpt lat="44.75962" lon="1.57174">
        <ele>244</ele>
        <time>2019-02-02T22:51:28.000Z</time>
      </trkpt>
      <trkpt lat="44.75956" lon="1.57164">
        <ele>246</ele>
        <time>2019-02-02T22:52:28.000Z</time>
      </trkpt>
      <trkpt lat="44.75946" lon="1.57162">
        <ele>245</ele>
        <time>2019-02-02T22:53:28.000Z</time>
      </trkpt>
      <trkpt lat="44.75937" lon="1.57168">
        <ele>244</ele>
        <time>2019-02-02T22:54:28.000Z</time>
      </trkpt>
      <trkpt lat="44.7593" lon="1.57177">
        <ele>241</ele>
        <time>2019-02-02T22:55:28.000Z</time>
      </trkpt>
      <trkpt lat="44.75924" lon="1.57189">
        <ele>238</ele>
        <time>2019-02-02T22:56:28.000Z</time>
      </trkpt>
      <trkpt lat="44.75916" lon="1.57196">
        <ele>236</ele>
        <time>2019-02-02T22:57:28.000Z</time>
      </trkpt>
      <trkpt lat="44.75906" lon="1.57203">
        <ele>234</ele>
        <time>2019-02-02T22:58:28.000Z</time>
      </trkpt>
      <trkpt lat="44.75892" lon="1.57204">
        <ele>233</ele>
        <time>2019-02-02T22:59:28.000Z</time>
      </trkpt>
      <trkpt lat="44.75879" lon="1.57202">
        <ele>233</ele>
        <time>2019-02-02T23:00:28.000Z</time>
      </trkpt>
      <trkpt lat="44.7587" lon="1.57198">
        <ele>233</ele>
        <time>2019-02-02T23:01:28.000Z</time>
      </trkpt>
      <trkpt lat="44.75859" lon="1.57192">
        <ele>233</ele>
        <time>2019-02-02T23:02:28.000Z</time>
      </trkpt>
      <trkpt lat="44.75851" lon="1.57185">
        <ele>234</ele>
        <time>2019-02-02T23:03:28.000Z</time>
      </trkpt>
      <trkpt lat="44.75841" lon="1.57178">
        <ele>235</ele>
        <time>2019-02-02T23:04:28.000Z</time>
      </trkpt>
      <trkpt lat="44.75833" lon="1.57169">
        <ele>236</ele>
        <time>2019-02-02T23:05:28.000Z</time>
      </trkpt>
      <trkpt lat="44.75827" lon="1.57159">
        <ele>236</ele>
        <time>2019-02-02T23:06:28.000Z</time>
      </trkpt>
      <trkpt lat="44.75823" lon="1.57147">
        <ele>236</ele>
        <time>2019-02-02T23:07:28.000Z</time>
      </trkpt>
      <trkpt lat="44.7582" lon="1.57132">
        <ele>237</ele>
        <time>2019-02-02T23:08:28.000Z</time>
      </trkpt>
      <trkpt lat="44.75819" lon="1.57118">
        <ele>238</ele>
        <time>2019-02-02T23:09:28.000Z</time>
      </trkpt>
      <trkpt lat="44.7582" lon="1.57106">
        <ele>239</ele>
        <time>2019-02-02T23:10:28.000Z</time>
      </trkpt>
      <trkpt lat="44.75821" lon="1.57091">
        <ele>240</ele>
        <time>2019-02-02T23:11:28.000Z</time>
      </trkpt>
      <trkpt lat="44.75823" lon="1.57077">
        <ele>241</ele>
        <time>2019-02-02T23:12:28.000Z</time>
      </trkpt>
      <trkpt lat="44.75826" lon="1.57049">
        <ele>240</ele>
        <time>2019-02-02T23:13:28.000Z</time>
      </trkpt>
      <trkpt lat="44.75826" lon="1.57034">
        <ele>240</ele>
        <time>2019-02-02T23:14:28.000Z</time>
      </trkpt>
      <trkpt lat="44.7583" lon="1.57021">
        <ele>240</ele>
        <time>2019-02-02T23:15:28.000Z</time>
      </trkpt>
      <trkpt lat="44.75837" lon="1.57009">
        <ele>241</ele>
        <time>2019-02-02T23:16:28.000Z</time>
      </trkpt>
      <trkpt lat="44.75846" lon="1.56997">
        <ele>243</ele>
        <time>2019-02-02T23:17:28.000Z</time>
      </trkpt>
      <trkpt lat="44.75852" lon="1.56987">
        <ele>243</ele>
        <time>2019-02-02T23:18:28.000Z</time>
      </trkpt>
      <trkpt lat="44.75859" lon="1.56976">
        <ele>244</ele>
        <time>2019-02-02T23:19:28.000Z</time>
      </trkpt>
      <trkpt lat="44.7587" lon="1.56961">
        <ele>246</ele>
        <time>2019-02-02T23:20:28.000Z</time>
      </trkpt>
      <trkpt lat="44.75889" lon="1.56937">
        <ele>249</ele>
        <time>2019-02-02T23:21:28.000Z</time>
      </trkpt>
      <trkpt lat="44.75899" lon="1.56928">
        <ele>251</ele>
        <time>2019-02-02T23:22:28.000Z</time>
      </trkpt>
      <trkpt lat="44.75906" lon="1.56916">
        <ele>252</ele>
        <time>2019-02-02T23:23:28.000Z</time>
      </trkpt>
      <trkpt lat="44.75919" lon="1.56888">
        <ele>254</ele>
        <time>2019-02-02T23:24:28.000Z</time>
      </trkpt>
      <trkpt lat="44.75924" lon="1.56878">
        <ele>254</ele>
        <time>2019-02-02T23:25:28.000Z</time>
      </trkpt>
      <trkpt lat="44.75938" lon="1.56858">
        <ele>256</ele>
        <time>2019-02-02T23:26:28.000Z</time>
      </trkpt>
      <trkpt lat="44.75953" lon="1.56839">
        <ele>258</ele>
        <time>2019-02-02T23:27:28.000Z</time>
      </trkpt>
      <trkpt lat="44.7596" lon="1.5683">
        <ele>259</ele>
        <time>2019-02-02T23:28:28.000Z</time>
      </trkpt>
      <trkpt lat="44.75966" lon="1.56819">
        <ele>260</ele>
        <time>2019-02-02T23:29:28.000Z</time>
      </trkpt>
      <trkpt lat="44.75967" lon="1.56802">
        <ele>260</ele>
        <time>2019-02-02T23:30:28.000Z</time>
      </trkpt>
      <trkpt lat="44.7596" lon="1.5677">
        <ele>259</ele>
        <time>2019-02-02T23:31:28.000Z</time>
      </trkpt>
      <trkpt lat="44.7596" lon="1.56754">
        <ele>259</ele>
        <time>2019-02-02T23:32:28.000Z</time>
      </trkpt>
      <trkpt lat="44.75964" lon="1.56735">
        <ele>259</ele>
        <time>2019-02-02T23:33:28.000Z</time>
      </trkpt>
      <trkpt lat="44.75972" lon="1.56717">
        <ele>259</ele>
        <time>2019-02-02T23:34:28.000Z</time>
      </trkpt>
      <trkpt lat="44.75979" lon="1.56698">
        <ele>260</ele>
        <time>2019-02-02T23:35:28.000Z</time>
      </trkpt>
      <trkpt lat="44.75986" lon="1.56682">
        <ele>260</ele>
        <time>2019-02-02T23:36:28.000Z</time>
      </trkpt>
      <trkpt lat="44.75992" lon="1.56663">
        <ele>260</ele>
        <time>2019-02-02T23:37:28.000Z</time>
      </trkpt>
      <trkpt lat="44.75998" lon="1.56644">
        <ele>260</ele>
        <time>2019-02-02T23:38:28.000Z</time>
      </trkpt>
      <trkpt lat="44.76004" lon="1.56621">
        <ele>260</ele>
        <time>2019-02-02T23:39:28.000Z</time>
      </trkpt>
      <trkpt lat="44.76009" lon="1.56601">
        <ele>259</ele>
        <time>2019-02-02T23:40:28.000Z</time>
      </trkpt>
      <trkpt lat="44.76019" lon="1.5658">
        <ele>260</ele>
        <time>2019-02-02T23:41:28.000Z</time>
      </trkpt>
      <trkpt lat="44.76034" lon="1.5656">
        <ele>262</ele>
        <time>2019-02-02T23:42:28.000Z</time>
      </trkpt>
      <trkpt lat="44.76048" lon="1.5654">
        <ele>264</ele>
        <time>2019-02-02T23:43:28.000Z</time>
      </trkpt>
      <trkpt lat="44.76062" lon="1.56523">
        <ele>265</ele>
        <time>2019-02-02T23:44:28.000Z</time>
      </trkpt>
      <trkpt lat="44.76077" lon="1.565">
        <ele>265</ele>
        <time>2019-02-02T23:45:28.000Z</time>
      </trkpt>
      <trkpt lat="44.76088" lon="1.56483">
        <ele>267</ele>
        <time>2019-02-02T23:46:28.000Z</time>
      </trkpt>
      <trkpt lat="44.76094" lon="1.56471">
        <ele>267</ele>
        <time>2019-02-02T23:47:28.000Z</time>
      </trkpt>
      <trkpt lat="44.76092" lon="1.56454">
        <ele>268</ele>
        <time>2019-02-02T23:48:28.000Z</time>
      </trkpt>
      <trkpt lat="44.76079" lon="1.56441">
        <ele>267</ele>
        <time>2019-02-02T23:49:28.000Z</time>
      </trkpt>
      <trkpt lat="44.76062" lon="1.56428">
        <ele>267</ele>
        <time>2019-02-02T23:50:28.000Z</time>
      </trkpt>
      <trkpt lat="44.76045" lon="1.56413">
        <ele>266</ele>
        <time>2019-02-02T23:51:28.000Z</time>
      </trkpt>
      <trkpt lat="44.76026" lon="1.56393">
        <ele>266</ele>
        <time>2019-02-02T23:52:28.000Z</time>
      </trkpt>
      <trkpt lat="44.76015" lon="1.56365">
        <ele>267</ele>
        <time>2019-02-02T23:53:28.000Z</time>
      </trkpt>
      <trkpt lat="44.76008" lon="1.56334">
        <ele>268</ele>
        <time>2019-02-02T23:54:28.000Z</time>
      </trkpt>
      <trkpt lat="44.75993" lon="1.56312">
        <ele>268</ele>
        <time>2019-02-02T23:55:28.000Z</time>
      </trkpt>
      <trkpt lat="44.75975" lon="1.56299">
        <ele>268</ele>
        <time>2019-02-02T23:56:28.000Z</time>
      </trkpt>
      <trkpt lat="44.75952" lon="1.56288">
        <ele>268</ele>
        <time>2019-02-02T23:57:28.000Z</time>
      </trkpt>
      <trkpt lat="44.7593" lon="1.56278">
        <ele>268</ele>
        <time>2019-02-02T23:58:28.000Z</time>
      </trkpt>
      <trkpt lat="44.75909" lon="1.56267">
        <ele>269</ele>
        <time>2019-02-02T23:59:28.000Z</time>
      </trkpt>
      <trkpt lat="44.75871" lon="1.56251">
        <ele>270</ele>
        <time>2019-02-03T00:00:28.000Z</time>
      </trkpt>
      <trkpt lat="44.75852" lon="1.56241">
        <ele>271</ele>
        <time>2019-02-03T00:01:28.000Z</time>
      </trkpt>
      <trkpt lat="44.75835" lon="1.56233">
        <ele>271</ele>
        <time>2019-02-03T00:02:28.000Z</time>
      </trkpt>
      <trkpt lat="44.7582" lon="1.56224">
        <ele>271</ele>
        <time>2019-02-03T00:03:28.000Z</time>
      </trkpt>
      <trkpt lat="44.75801" lon="1.5621">
        <ele>271</ele>
        <time>2019-02-03T00:04:28.000Z</time>
      </trkpt>
      <trkpt lat="44.75785" lon="1.56191">
        <ele>271</ele>
        <time>2019-02-03T00:05:28.000Z</time>
      </trkpt>
      <trkpt lat="44.75773" lon="1.56171">
        <ele>271</ele>
        <time>2019-02-03T00:06:28.000Z</time>
      </trkpt>
      <trkpt lat="44.75765" lon="1.56148">
        <ele>271</ele>
        <time>2019-02-03T00:07:28.000Z</time>
      </trkpt>
      <trkpt lat="44.75762" lon="1.56126">
        <ele>271</ele>
        <time>2019-02-03T00:08:28.000Z</time>
      </trkpt>
      <trkpt lat="44.75763" lon="1.56103">
        <ele>271</ele>
        <time>2019-02-03T00:09:28.000Z</time>
      </trkpt>
      <trkpt lat="44.75766" lon="1.56073">
        <ele>271</ele>
        <time>2019-02-03T00:10:28.000Z</time>
      </trkpt>
      <trkpt lat="44.75769" lon="1.5603">
        <ele>269</ele>
        <time>2019-02-03T00:11:28.000Z</time>
      </trkpt>
      <trkpt lat="44.75775" lon="1.55976">
        <ele>268</ele>
        <time>2019-02-03T00:12:28.000Z</time>
      </trkpt>
      <trkpt lat="44.75782" lon="1.55918">
        <ele>267</ele>
        <time>2019-02-03T00:13:28.000Z</time>
      </trkpt>
      <trkpt lat="44.75792" lon="1.55864">
        <ele>264</ele>
        <time>2019-02-03T00:14:28.000Z</time>
      </trkpt>
      <trkpt lat="44.75805" lon="1.55797">
        <ele>262</ele>
        <time>2019-02-03T00:15:28.000Z</time>
      </trkpt>
      <trkpt lat="44.75825" lon="1.5575">
        <ele>263</ele>
        <time>2019-02-03T00:16:28.000Z</time>
      </trkpt>
      <trkpt lat="44.75851" lon="1.55684">
        <ele>265</ele>
        <time>2019-02-03T00:17:28.000Z</time>
      </trkpt>
      <trkpt lat="44.75818" lon="1.55631">
        <ele>255</ele>
        <time>2019-02-03T00:18:28.000Z</time>
      </trkpt>
      <trkpt lat="44.75811" lon="1.5555">
        <ele>252</ele>
        <time>2019-02-03T00:19:28.000Z</time>
      </trkpt>
      <trkpt lat="44.75818" lon="1.55466">
        <ele>249</ele>
        <time>2019-02-03T00:20:28.000Z</time>
      </trkpt>
      <trkpt lat="44.75832" lon="1.55397">
        <ele>247</ele>
        <time>2019-02-03T00:21:28.000Z</time>
      </trkpt>
      <trkpt lat="44.75864" lon="1.55327">
        <ele>245</ele>
        <time>2019-02-03T00:22:28.000Z</time>
      </trkpt>
      <trkpt lat="44.75894" lon="1.55254">
        <ele>240</ele>
        <time>2019-02-03T00:23:28.000Z</time>
      </trkpt>
      <trkpt lat="44.75924" lon="1.55181">
        <ele>237</ele>
        <time>2019-02-03T00:24:28.000Z</time>
      </trkpt>
      <trkpt lat="44.75965" lon="1.55118">
        <ele>232</ele>
        <time>2019-02-03T00:25:28.000Z</time>
      </trkpt>
      <trkpt lat="44.76021" lon="1.55099">
        <ele>231</ele>
        <time>2019-02-03T00:26:28.000Z</time>
      </trkpt>
      <trkpt lat="44.76067" lon="1.55134">
        <ele>233</ele>
        <time>2019-02-03T00:27:28.000Z</time>
      </trkpt>
      <trkpt lat="44.76122" lon="1.55169">
        <ele>238</ele>
        <time>2019-02-03T00:28:28.000Z</time>
      </trkpt>
      <trkpt lat="44.76143" lon="1.55136">
        <ele>238</ele>
        <time>2019-02-03T00:29:28.000Z</time>
      </trkpt>
      <trkpt lat="44.76114" lon="1.55082">
        <ele>231</ele>
        <time>2019-02-03T00:30:28.000Z</time>
      </trkpt>
      <trkpt lat="44.76089" lon="1.55032">
        <ele>225</ele>
        <time>2019-02-03T00:31:28.000Z</time>
      </trkpt>
      <trkpt lat="44.76065" lon="1.54967">
        <ele>221</ele>
        <time>2019-02-03T00:32:28.000Z</time>
      </trkpt>
      <trkpt lat="44.76051" lon="1.54908">
        <ele>216</ele>
        <time>2019-02-03T00:33:28.000Z</time>
      </trkpt>
      <trkpt lat="44.76059" lon="1.54835">
        <ele>211</ele>
        <time>2019-02-03T00:34:28.000Z</time>
      </trkpt>
      <trkpt lat="44.76095" lon="1.54799">
        <ele>212</ele>
        <time>2019-02-03T00:35:28.000Z</time>
      </trkpt>
      <trkpt lat="44.76141" lon="1.54762">
        <ele>214</ele>
        <time>2019-02-03T00:36:28.000Z</time>
      </trkpt>
      <trkpt lat="44.76178" lon="1.54705">
        <ele>213</ele>
        <time>2019-02-03T00:37:28.000Z</time>
      </trkpt>
      <trkpt lat="44.76212" lon="1.54663">
        <ele>213</ele>
        <time>2019-02-03T00:38:28.000Z</time>
      </trkpt>
      <trkpt lat="44.76257" lon="1.54615">
        <ele>211</ele>
        <time>2019-02-03T00:39:28.000Z</time>
      </trkpt>
      <trkpt lat="44.76291" lon="1.54565">
        <ele>210</ele>
        <time>2019-02-03T00:40:28.000Z</time>
      </trkpt>
      <trkpt lat="44.76322" lon="1.54498">
        <ele>204</ele>
        <time>2019-02-03T00:41:28.000Z</time>
      </trkpt>
      <trkpt lat="44.76369" lon="1.54459">
        <ele>204</ele>
        <time>2019-02-03T00:42:28.000Z</time>
      </trkpt>
      <trkpt lat="44.7641" lon="1.54433">
        <ele>202</ele>
        <time>2019-02-03T00:43:28.000Z</time>
      </trkpt>
      <trkpt lat="44.7645" lon="1.54399">
        <ele>202</ele>
        <time>2019-02-03T00:44:28.000Z</time>
      </trkpt>
      <trkpt lat="44.76478" lon="1.54352">
        <ele>201</ele>
        <time>2019-02-03T00:45:28.000Z</time>
      </trkpt>
      <trkpt lat="44.76485" lon="1.54288">
        <ele>195</ele>
        <time>2019-02-03T00:46:28.000Z</time>
      </trkpt>
      <trkpt lat="44.76473" lon="1.54251">
        <ele>192</ele>
        <time>2019-02-03T00:47:28.000Z</time>
      </trkpt>
      <trkpt lat="44.76478" lon="1.54264">
        <ele>193</ele>
        <time>2019-02-03T00:48:28.000Z</time>
      </trkpt>
      <trkpt lat="44.76485" lon="1.54289">
        <ele>195</ele>
        <time>2019-02-03T00:49:28.000Z</time>
      </trkpt>
      <trkpt lat="44.76494" lon="1.54296">
        <ele>196</ele>
        <time>2019-02-03T00:50:28.000Z</time>
      </trkpt>
      <trkpt lat="44.76502" lon="1.54287">
        <ele>196</ele>
        <time>2019-02-03T00:51:28.000Z</time>
      </trkpt>
      <trkpt lat="44.76522" lon="1.54269">
        <ele>196</ele>
        <time>2019-02-03T00:52:28.000Z</time>
      </trkpt>
      <trkpt lat="44.76571" lon="1.54223">
        <ele>195</ele>
        <time>2019-02-03T00:53:28.000Z</time>
      </trkpt>
      <trkpt lat="44.76596" lon="1.54203">
        <ele>194</ele>
        <time>2019-02-03T00:54:28.000Z</time>
      </trkpt>
      <trkpt lat="44.76621" lon="1.54194">
        <ele>193</ele>
        <time>2019-02-03T00:55:28.000Z</time>
      </trkpt>
      <trkpt lat="44.76645" lon="1.54191">
        <ele>194</ele>
        <time>2019-02-03T00:56:28.000Z</time>
      </trkpt>
      <trkpt lat="44.76673" lon="1.54195">
        <ele>195</ele>
        <time>2019-02-03T00:57:28.000Z</time>
      </trkpt>
      <trkpt lat="44.76702" lon="1.54191">
        <ele>194</ele>
        <time>2019-02-03T00:58:28.000Z</time>
      </trkpt>
      <trkpt lat="44.76739" lon="1.54183">
        <ele>192</ele>
        <time>2019-02-03T00:59:28.000Z</time>
      </trkpt>
      <trkpt lat="44.7677" lon="1.54172">
        <ele>191</ele>
        <time>2019-02-03T01:00:28.000Z</time>
      </trkpt>
      <trkpt lat="44.76801" lon="1.54137">
        <ele>188</ele>
        <time>2019-02-03T01:01:28.000Z</time>
      </trkpt>
      <trkpt lat="44.76826" lon="1.54103">
        <ele>185</ele>
        <time>2019-02-03T01:02:28.000Z</time>
      </trkpt>
      <trkpt lat="44.76857" lon="1.54086">
        <ele>183</ele>
        <time>2019-02-03T01:03:28.000Z</time>
      </trkpt>
      <trkpt lat="44.76885" lon="1.54072">
        <ele>183</ele>
        <time>2019-02-03T01:04:28.000Z</time>
      </trkpt>
      <trkpt lat="44.76904" lon="1.54058">
        <ele>183</ele>
        <time>2019-02-03T01:05:28.000Z</time>
      </trkpt>
      <trkpt lat="44.76921" lon="1.54026">
        <ele>183</ele>
        <time>2019-02-03T01:06:28.000Z</time>
      </trkpt>
      <trkpt lat="44.76932" lon="1.53994">
        <ele>184</ele>
        <time>2019-02-03T01:07:28.000Z</time>
      </trkpt>
      <trkpt lat="44.76942" lon="1.53964">
        <ele>187</ele>
        <time>2019-02-03T01:08:28.000Z</time>
      </trkpt>
      <trkpt lat="44.76922" lon="1.5388">
        <ele>190</ele>
        <time>2019-02-03T01:09:28.000Z</time>
      </trkpt>
      <trkpt lat="44.76911" lon="1.5385">
        <ele>190</ele>
        <time>2019-02-03T01:10:28.000Z</time>
      </trkpt>
      <trkpt lat="44.76894" lon="1.53827">
        <ele>193</ele>
        <time>2019-02-03T01:11:28.000Z</time>
      </trkpt>
      <trkpt lat="44.76881" lon="1.53805">
        <ele>194</ele>
        <time>2019-02-03T01:12:28.000Z</time>
      </trkpt>
      <trkpt lat="44.76833" lon="1.53729">
        <ele>195</ele>
        <time>2019-02-03T01:13:28.000Z</time>
      </trkpt>
      <trkpt lat="44.76822" lon="1.53708">
        <ele>195</ele>
        <time>2019-02-03T01:14:28.000Z</time>
      </trkpt>
      <trkpt lat="44.76809" lon="1.53683">
        <ele>194</ele>
        <time>2019-02-03T01:15:28.000Z</time>
      </trkpt>
      <trkpt lat="44.76793" lon="1.53663">
        <ele>193</ele>
        <time>2019-02-03T01:16:28.000Z</time>
      </trkpt>
      <trkpt lat="44.76775" lon="1.53645">
        <ele>193</ele>
        <time>2019-02-03T01:17:28.000Z</time>
      </trkpt>
      <trkpt lat="44.76758" lon="1.53626">
        <ele>193</ele>
        <time>2019-02-03T01:18:28.000Z</time>
      </trkpt>
      <trkpt lat="44.76742" lon="1.53607">
        <ele>193</ele>
        <time>2019-02-03T01:19:28.000Z</time>
      </trkpt>
      <trkpt lat="44.76729" lon="1.53592">
        <ele>193</ele>
        <time>2019-02-03T01:20:28.000Z</time>
      </trkpt>
      <trkpt lat="44.76714" lon="1.53573">
        <ele>193</ele>
        <time>2019-02-03T01:21:28.000Z</time>
      </trkpt>
      <trkpt lat="44.76697" lon="1.53555">
        <ele>194</ele>
        <time>2019-02-03T01:22:28.000Z</time>
      </trkpt>
      <trkpt lat="44.76664" lon="1.5352">
        <ele>194</ele>
        <time>2019-02-03T01:23:28.000Z</time>
      </trkpt>
      <trkpt lat="44.76649" lon="1.53505">
        <ele>195</ele>
        <time>2019-02-03T01:24:28.000Z</time>
      </trkpt>
      <trkpt lat="44.76635" lon="1.53488">
        <ele>196</ele>
        <time>2019-02-03T01:25:28.000Z</time>
      </trkpt>
      <trkpt lat="44.76619" lon="1.53468">
        <ele>198</ele>
        <time>2019-02-03T01:26:28.000Z</time>
      </trkpt>
      <trkpt lat="44.76603" lon="1.53447">
        <ele>198</ele>
        <time>2019-02-03T01:27:28.000Z</time>
      </trkpt>
      <trkpt lat="44.76589" lon="1.53425">
        <ele>198</ele>
        <time>2019-02-03T01:28:28.000Z</time>
      </trkpt>
      <trkpt lat="44.76578" lon="1.53402">
        <ele>199</ele>
        <time>2019-02-03T01:29:28.000Z</time>
      </trkpt>
      <trkpt lat="44.76569" lon="1.53374">
        <ele>201</ele>
        <time>2019-02-03T01:30:28.000Z</time>
      </trkpt>
      <trkpt lat="44.76563" lon="1.53351">
        <ele>202</ele>
        <time>2019-02-03T01:31:28.000Z</time>
      </trkpt>
      <trkpt lat="44.76557" lon="1.53322">
        <ele>204</ele>
        <time>2019-02-03T01:32:28.000Z</time>
      </trkpt>
      <trkpt lat="44.76552" lon="1.53297">
        <ele>205</ele>
        <time>2019-02-03T01:33:28.000Z</time>
      </trkpt>
      <trkpt lat="44.76549" lon="1.53267">
        <ele>205</ele>
        <time>2019-02-03T01:34:28.000Z</time>
      </trkpt>
      <trkpt lat="44.76546" lon="1.53247">
        <ele>206</ele>
        <time>2019-02-03T01:35:28.000Z</time>
      </trkpt>
      <trkpt lat="44.7654" lon="1.53201">
        <ele>207</ele>
        <time>2019-02-03T01:36:28.000Z</time>
      </trkpt>
      <trkpt lat="44.76535" lon="1.53176">
        <ele>207</ele>
        <time>2019-02-03T01:37:28.000Z</time>
      </trkpt>
      <trkpt lat="44.76533" lon="1.5315">
        <ele>209</ele>
        <time>2019-02-03T01:38:28.000Z</time>
      </trkpt>
      <trkpt lat="44.76531" lon="1.53131">
        <ele>210</ele>
        <time>2019-02-03T01:39:28.000Z</time>
      </trkpt>
      <trkpt lat="44.76531" lon="1.53114">
        <ele>211</ele>
        <time>2019-02-03T01:40:28.000Z</time>
      </trkpt>
      <trkpt lat="44.76532" lon="1.53094">
        <ele>212</ele>
        <time>2019-02-03T01:41:28.000Z</time>
      </trkpt>
      <trkpt lat="44.76532" lon="1.53053">
        <ele>214</ele>
        <time>2019-02-03T01:42:28.000Z</time>
      </trkpt>
      <trkpt lat="44.7653" lon="1.53026">
        <ele>214</ele>
        <time>2019-02-03T01:43:28.000Z</time>
      </trkpt>
      <trkpt lat="44.76526" lon="1.52997">
        <ele>214</ele>
        <time>2019-02-03T01:44:28.000Z</time>
      </trkpt>
      <trkpt lat="44.76525" lon="1.5297">
        <ele>214</ele>
        <time>2019-02-03T01:45:28.000Z</time>
      </trkpt>
      <trkpt lat="44.76527" lon="1.5294">
        <ele>215</ele>
        <time>2019-02-03T01:46:28.000Z</time>
      </trkpt>
      <trkpt lat="44.76531" lon="1.52909">
        <ele>217</ele>
        <time>2019-02-03T01:47:28.000Z</time>
      </trkpt>
      <trkpt lat="44.76536" lon="1.52881">
        <ele>217</ele>
        <time>2019-02-03T01:48:28.000Z</time>
      </trkpt>
      <trkpt lat="44.76542" lon="1.5286">
        <ele>217</ele>
        <time>2019-02-03T01:49:28.000Z</time>
      </trkpt>
      <trkpt lat="44.76552" lon="1.52837">
        <ele>218</ele>
        <time>2019-02-03T01:50:28.000Z</time>
      </trkpt>
      <trkpt lat="44.76562" lon="1.52814">
        <ele>218</ele>
        <time>2019-02-03T01:51:28.000Z</time>
      </trkpt>
      <trkpt lat="44.76569" lon="1.52792">
        <ele>218</ele>
        <time>2019-02-03T01:52:28.000Z</time>
      </trkpt>
      <trkpt lat="44.76576" lon="1.5277">
        <ele>217</ele>
        <time>2019-02-03T01:53:28.000Z</time>
      </trkpt>
      <trkpt lat="44.76584" lon="1.52743">
        <ele>216</ele>
        <time>2019-02-03T01:54:28.000Z</time>
      </trkpt>
      <trkpt lat="44.76588" lon="1.5272">
        <ele>217</ele>
        <time>2019-02-03T01:55:28.000Z</time>
      </trkpt>
      <trkpt lat="44.76589" lon="1.52693">
        <ele>217</ele>
        <time>2019-02-03T01:56:28.000Z</time>
      </trkpt>
      <trkpt lat="44.76588" lon="1.52671">
        <ele>216</ele>
        <time>2019-02-03T01:57:28.000Z</time>
      </trkpt>
      <trkpt lat="44.76583" lon="1.52645">
        <ele>216</ele>
        <time>2019-02-03T01:58:28.000Z</time>
      </trkpt>
      <trkpt lat="44.76578" lon="1.52617">
        <ele>218</ele>
        <time>2019-02-03T01:59:28.000Z</time>
      </trkpt>
      <trkpt lat="44.7657" lon="1.52591">
        <ele>220</ele>
        <time>2019-02-03T02:00:28.000Z</time>
      </trkpt>
      <trkpt lat="44.76567" lon="1.52577">
        <ele>221</ele>
        <time>2019-02-03T02:01:28.000Z</time>
      </trkpt>
      <trkpt lat="44.76567" lon="1.52545">
        <ele>222</ele>
        <time>2019-02-03T02:02:28.000Z</time>
      </trkpt>
      <trkpt lat="44.76568" lon="1.52528">
        <ele>222</ele>
        <time>2019-02-03T02:03:28.000Z</time>
      </trkpt>
      <trkpt lat="44.7657" lon="1.52515">
        <ele>223</ele>
        <time>2019-02-03T02:04:28.000Z</time>
      </trkpt>
      <trkpt lat="44.76571" lon="1.52499">
        <ele>223</ele>
        <time>2019-02-03T02:05:28.000Z</time>
      </trkpt>
      <trkpt lat="44.76572" lon="1.52486">
        <ele>224</ele>
        <time>2019-02-03T02:06:28.000Z</time>
      </trkpt>
      <trkpt lat="44.76573" lon="1.5247">
        <ele>224</ele>
        <time>2019-02-03T02:07:28.000Z</time>
      </trkpt>
      <trkpt lat="44.76576" lon="1.52455">
        <ele>225</ele>
        <time>2019-02-03T02:08:28.000Z</time>
      </trkpt>
      <trkpt lat="44.76576" lon="1.52441">
        <ele>226</ele>
        <time>2019-02-03T02:09:28.000Z</time>
      </trkpt>
      <trkpt lat="44.76581" lon="1.52413">
        <ele>227</ele>
        <time>2019-02-03T02:10:28.000Z</time>
      </trkpt>
      <trkpt lat="44.76579" lon="1.52399">
        <ele>228</ele>
        <time>2019-02-03T02:11:28.000Z</time>
      </trkpt>
      <trkpt lat="44.76576" lon="1.52386">
        <ele>228</ele>
        <time>2019-02-03T02:12:28.000Z</time>
      </trkpt>
      <trkpt lat="44.76575" lon="1.52373">
        <ele>229</ele>
        <time>2019-02-03T02:13:28.000Z</time>
      </trkpt>
      <trkpt lat="44.76573" lon="1.52357">
        <ele>230</ele>
        <time>2019-02-03T02:14:28.000Z</time>
      </trkpt>
      <trkpt lat="44.76564" lon="1.52329">
        <ele>230</ele>
        <time>2019-02-03T02:15:28.000Z</time>
      </trkpt>
      <trkpt lat="44.7656" lon="1.52316">
        <ele>231</ele>
        <time>2019-02-03T02:16:28.000Z</time>
      </trkpt>
      <trkpt lat="44.76555" lon="1.52304">
        <ele>231</ele>
        <time>2019-02-03T02:17:28.000Z</time>
      </trkpt>
      <trkpt lat="44.7655" lon="1.52292">
        <ele>231</ele>
        <time>2019-02-03T02:18:28.000Z</time>
      </trkpt>
      <trkpt lat="44.76546" lon="1.52279">
        <ele>232</ele>
        <time>2019-02-03T02:19:28.000Z</time>
      </trkpt>
      <trkpt lat="44.7654" lon="1.52266">
        <ele>231</ele>
        <time>2019-02-03T02:20:28.000Z</time>
      </trkpt>
      <trkpt lat="44.76535" lon="1.52254">
        <ele>231</ele>
        <time>2019-02-03T02:21:28.000Z</time>
      </trkpt>
      <trkpt lat="44.7653" lon="1.52241">
        <ele>231</ele>
        <time>2019-02-03T02:22:28.000Z</time>
      </trkpt>
      <trkpt lat="44.76525" lon="1.52228">
        <ele>231</ele>
        <time>2019-02-03T02:23:28.000Z</time>
      </trkpt>
      <trkpt lat="44.76521" lon="1.52215">
        <ele>230</ele>
        <time>2019-02-03T02:24:28.000Z</time>
      </trkpt>
      <trkpt lat="44.76519" lon="1.52202">
        <ele>231</ele>
        <time>2019-02-03T02:25:28.000Z</time>
      </trkpt>
      <trkpt lat="44.76518" lon="1.52188">
        <ele>232</ele>
        <time>2019-02-03T02:26:28.000Z</time>
      </trkpt>
      <trkpt lat="44.76518" lon="1.52174">
        <ele>232</ele>
        <time>2019-02-03T02:27:28.000Z</time>
      </trkpt>
      <trkpt lat="44.76516" lon="1.52146">
        <ele>232</ele>
        <time>2019-02-03T02:28:28.000Z</time>
      </trkpt>
      <trkpt lat="44.76519" lon="1.5213">
        <ele>233</ele>
        <time>2019-02-03T02:29:28.000Z</time>
      </trkpt>
      <trkpt lat="44.76521" lon="1.52118">
        <ele>234</ele>
        <time>2019-02-03T02:30:28.000Z</time>
      </trkpt>
      <trkpt lat="44.76529" lon="1.52092">
        <ele>236</ele>
        <time>2019-02-03T02:31:28.000Z</time>
      </trkpt>
      <trkpt lat="44.76539" lon="1.52068">
        <ele>239</ele>
        <time>2019-02-03T02:32:28.000Z</time>
      </trkpt>
      <trkpt lat="44.76544" lon="1.52058">
        <ele>240</ele>
        <time>2019-02-03T02:33:28.000Z</time>
      </trkpt>
      <trkpt lat="44.76549" lon="1.52047">
        <ele>241</ele>
        <time>2019-02-03T02:34:28.000Z</time>
      </trkpt>
      <trkpt lat="44.76555" lon="1.52036">
        <ele>242</ele>
        <time>2019-02-03T02:35:28.000Z</time>
      </trkpt>
      <trkpt lat="44.76559" lon="1.52024">
        <ele>242</ele>
        <time>2019-02-03T02:36:28.000Z</time>
      </trkpt>
      <trkpt lat="44.76565" lon="1.52014">
        <ele>243</ele>
        <time>2019-02-03T02:37:28.000Z</time>
      </trkpt>
      <trkpt lat="44.76572" lon="1.52004">
        <ele>244</ele>
        <time>2019-02-03T02:38:28.000Z</time>
      </trkpt>
      <trkpt lat="44.76578" lon="1.51993">
        <ele>244</ele>
        <time>2019-02-03T02:39:28.000Z</time>
      </trkpt>
      <trkpt lat="44.76591" lon="1.51972">
        <ele>244</ele>
        <time>2019-02-03T02:40:28.000Z</time>
      </trkpt>
      <trkpt lat="44.76606" lon="1.5195">
        <ele>245</ele>
        <time>2019-02-03T02:41:28.000Z</time>
      </trkpt>
      <trkpt lat="44.7663" lon="1.51916">
        <ele>247</ele>
        <time>2019-02-03T02:42:28.000Z</time>
      </trkpt>
      <trkpt lat="44.76643" lon="1.51894">
        <ele>249</ele>
        <time>2019-02-03T02:43:28.000Z</time>
      </trkpt>
      <trkpt lat="44.76649" lon="1.51882">
        <ele>250</ele>
        <time>2019-02-03T02:44:28.000Z</time>
      </trkpt>
      <trkpt lat="44.76655" lon="1.51871">
        <ele>250</ele>
        <time>2019-02-03T02:45:28.000Z</time>
      </trkpt>
      <trkpt lat="44.76659" lon="1.51858">
        <ele>251</ele>
        <time>2019-02-03T02:46:28.000Z</time>
      </trkpt>
      <trkpt lat="44.76663" lon="1.51846">
        <ele>251</ele>
        <time>2019-02-03T02:47:28.000Z</time>
      </trkpt>
      <trkpt lat="44.7667" lon="1.51821">
        <ele>251</ele>
        <time>2019-02-03T02:48:28.000Z</time>
      </trkpt>
      <trkpt lat="44.76674" lon="1.51808">
        <ele>251</ele>
        <time>2019-02-03T02:49:28.000Z</time>
      </trkpt>
      <trkpt lat="44.76678" lon="1.51796">
        <ele>251</ele>
        <time>2019-02-03T02:50:28.000Z</time>
      </trkpt>
      <trkpt lat="44.76683" lon="1.51784">
        <ele>252</ele>
        <time>2019-02-03T02:51:28.000Z</time>
      </trkpt>
      <trkpt lat="44.7669" lon="1.51773">
        <ele>252</ele>
        <time>2019-02-03T02:52:28.000Z</time>
      </trkpt>
      <trkpt lat="44.76704" lon="1.5175">
        <ele>253</ele>
        <time>2019-02-03T02:53:28.000Z</time>
      </trkpt>
      <trkpt lat="44.76724" lon="1.5172">
        <ele>255</ele>
        <time>2019-02-03T02:54:28.000Z</time>
      </trkpt>
      <trkpt lat="44.76732" lon="1.51707">
        <ele>256</ele>
        <time>2019-02-03T02:55:28.000Z</time>
      </trkpt>
      <trkpt lat="44.7675" lon="1.51679">
        <ele>259</ele>
        <time>2019-02-03T02:56:28.000Z</time>
      </trkpt>
      <trkpt lat="44.76765" lon="1.51652">
        <ele>260</ele>
        <time>2019-02-03T02:57:28.000Z</time>
      </trkpt>
      <trkpt lat="44.76771" lon="1.5164">
        <ele>260</ele>
        <time>2019-02-03T02:58:28.000Z</time>
      </trkpt>
      <trkpt lat="44.76777" lon="1.51628">
        <ele>261</ele>
        <time>2019-02-03T02:59:28.000Z</time>
      </trkpt>
      <trkpt lat="44.76782" lon="1.51615">
        <ele>262</ele>
        <time>2019-02-03T03:00:28.000Z</time>
      </trkpt>
      <trkpt lat="44.76786" lon="1.51603">
        <ele>262</ele>
        <time>2019-02-03T03:01:28.000Z</time>
      </trkpt>
      <trkpt lat="44.76789" lon="1.51591">
        <ele>263</ele>
        <time>2019-02-03T03:02:28.000Z</time>
      </trkpt>
      <trkpt lat="44.76795" lon="1.51579">
        <ele>264</ele>
        <time>2019-02-03T03:03:28.000Z</time>
      </trkpt>
      <trkpt lat="44.768" lon="1.51564">
        <ele>265</ele>
        <time>2019-02-03T03:04:28.000Z</time>
      </trkpt>
      <trkpt lat="44.76806" lon="1.5155">
        <ele>265</ele>
        <time>2019-02-03T03:05:28.000Z</time>
      </trkpt>
      <trkpt lat="44.7681" lon="1.51539">
        <ele>266</ele>
        <time>2019-02-03T03:06:28.000Z</time>
      </trkpt>
      <trkpt lat="44.76815" lon="1.51524">
        <ele>268</ele>
        <time>2019-02-03T03:07:28.000Z</time>
      </trkpt>
      <trkpt lat="44.7682" lon="1.51513">
        <ele>269</ele>
        <time>2019-02-03T03:08:28.000Z</time>
      </trkpt>
      <trkpt lat="44.76825" lon="1.51501">
        <ele>270</ele>
        <time>2019-02-03T03:09:28.000Z</time>
      </trkpt>
      <trkpt lat="44.76837" lon="1.51476">
        <ele>273</ele>
        <time>2019-02-03T03:10:28.000Z</time>
      </trkpt>
      <trkpt lat="44.76844" lon="1.51467">
        <ele>274</ele>
        <time>2019-02-03T03:11:28.000Z</time>
      </trkpt>
      <trkpt lat="44.76854" lon="1.51443">
        <ele>276</ele>
        <time>2019-02-03T03:12:28.000Z</time>
      </trkpt>
      <trkpt lat="44.76859" lon="1.5143">
        <ele>277</ele>
        <time>2019-02-03T03:13:28.000Z</time>
      </trkpt>
      <trkpt lat="44.76867" lon="1.51414">
        <ele>278</ele>
        <time>2019-02-03T03:14:28.000Z</time>
      </trkpt>
      <trkpt lat="44.76873" lon="1.51399">
        <ele>279</ele>
        <time>2019-02-03T03:15:28.000Z</time>
      </trkpt>
      <trkpt lat="44.76876" lon="1.51387">
        <ele>281</ele>
        <time>2019-02-03T03:16:28.000Z</time>
      </trkpt>
      <trkpt lat="44.76886" lon="1.51363">
        <ele>284</ele>
        <time>2019-02-03T03:17:28.000Z</time>
      </trkpt>
      <trkpt lat="44.7689" lon="1.5135">
        <ele>285</ele>
        <time>2019-02-03T03:18:28.000Z</time>
      </trkpt>
      <trkpt lat="44.76895" lon="1.51337">
        <ele>287</ele>
        <time>2019-02-03T03:19:28.000Z</time>
      </trkpt>
      <trkpt lat="44.76899" lon="1.51323">
        <ele>288</ele>
        <time>2019-02-03T03:20:28.000Z</time>
      </trkpt>
      <trkpt lat="44.76904" lon="1.51309">
        <ele>290</ele>
        <time>2019-02-03T03:21:28.000Z</time>
      </trkpt>
      <trkpt lat="44.76907" lon="1.51297">
        <ele>292</ele>
        <time>2019-02-03T03:22:28.000Z</time>
      </trkpt>
      <trkpt lat="44.76917" lon="1.51271">
        <ele>295</ele>
        <time>2019-02-03T03:23:28.000Z</time>
      </trkpt>
      <trkpt lat="44.76922" lon="1.51259">
        <ele>297</ele>
        <time>2019-02-03T03:24:28.000Z</time>
      </trkpt>
      <trkpt lat="44.76934" lon="1.51237">
        <ele>299</ele>
        <time>2019-02-03T03:25:28.000Z</time>
      </trkpt>
      <trkpt lat="44.76943" lon="1.51227">
        <ele>300</ele>
        <time>2019-02-03T03:26:28.000Z</time>
      </trkpt>
      <trkpt lat="44.76952" lon="1.51216">
        <ele>301</ele>
        <time>2019-02-03T03:27:28.000Z</time>
      </trkpt>
      <trkpt lat="44.7697" lon="1.51192">
        <ele>302</ele>
        <time>2019-02-03T03:28:28.000Z</time>
      </trkpt>
      <trkpt lat="44.76979" lon="1.51181">
        <ele>303</ele>
        <time>2019-02-03T03:29:28.000Z</time>
      </trkpt>
      <trkpt lat="44.76987" lon="1.51173">
        <ele>303</ele>
        <time>2019-02-03T03:30:28.000Z</time>
      </trkpt>
      <trkpt lat="44.76996" lon="1.51162">
        <ele>303</ele>
        <time>2019-02-03T03:31:28.000Z</time>
      </trkpt>
      <trkpt lat="44.77004" lon="1.51156">
        <ele>304</ele>
        <time>2019-02-03T03:32:28.000Z</time>
      </trkpt>
      <trkpt lat="44.77013" lon="1.51151">
        <ele>306</ele>
        <time>2019-02-03T03:33:28.000Z</time>
      </trkpt>
      <trkpt lat="44.77023" lon="1.51148">
        <ele>307</ele>
        <time>2019-02-03T03:34:28.000Z</time>
      </trkpt>
      <trkpt lat="44.77033" lon="1.51153">
        <ele>307</ele>
        <time>2019-02-03T03:35:28.000Z</time>
      </trkpt>
      <trkpt lat="44.77041" lon="1.51162">
        <ele>307</ele>
        <time>2019-02-03T03:36:28.000Z</time>
      </trkpt>
      <trkpt lat="44.77045" lon="1.51175">
        <ele>305</ele>
        <time>2019-02-03T03:37:28.000Z</time>
      </trkpt>
      <trkpt lat="44.77047" lon="1.51187">
        <ele>304</ele>
        <time>2019-02-03T03:38:28.000Z</time>
      </trkpt>
      <trkpt lat="44.77048" lon="1.512">
        <ele>303</ele>
        <time>2019-02-03T03:39:28.000Z</time>
      </trkpt>
      <trkpt lat="44.77049" lon="1.51213">
        <ele>302</ele>
        <time>2019-02-03T03:40:28.000Z</time>
      </trkpt>
      <trkpt lat="44.77054" lon="1.51225">
        <ele>302</ele>
        <time>2019-02-03T03:41:28.000Z</time>
      </trkpt>
      <trkpt lat="44.77063" lon="1.51235">
        <ele>302</ele>
        <time>2019-02-03T03:42:28.000Z</time>
      </trkpt>
      <trkpt lat="44.77073" lon="1.51239">
        <ele>303</ele>
        <time>2019-02-03T03:43:28.000Z</time>
      </trkpt>
      <trkpt lat="44.77082" lon="1.51239">
        <ele>305</ele>
        <time>2019-02-03T03:44:28.000Z</time>
      </trkpt>
      <trkpt lat="44.77092" lon="1.51236">
        <ele>307</ele>
        <time>2019-02-03T03:45:28.000Z</time>
      </trkpt>
      <trkpt lat="44.77101" lon="1.51234">
        <ele>309</ele>
        <time>2019-02-03T03:46:28.000Z</time>
      </trkpt>
      <trkpt lat="44.7711" lon="1.51237">
        <ele>310</ele>
        <time>2019-02-03T03:47:28.000Z</time>
      </trkpt>
      <trkpt lat="44.77118" lon="1.51244">
        <ele>311</ele>
        <time>2019-02-03T03:48:28.000Z</time>
      </trkpt>
      <trkpt lat="44.77124" lon="1.51255">
        <ele>312</ele>
        <time>2019-02-03T03:49:28.000Z</time>
      </trkpt>
      <trkpt lat="44.77128" lon="1.51268">
        <ele>312</ele>
        <time>2019-02-03T03:50:28.000Z</time>
      </trkpt>
      <trkpt lat="44.77131" lon="1.51281">
        <ele>312</ele>
        <time>2019-02-03T03:51:28.000Z</time>
      </trkpt>
      <trkpt lat="44.77135" lon="1.51294">
        <ele>312</ele>
        <time>2019-02-03T03:52:28.000Z</time>
      </trkpt>
      <trkpt lat="44.7714" lon="1.51307">
        <ele>312</ele>
        <time>2019-02-03T03:53:28.000Z</time>
      </trkpt>
      <trkpt lat="44.77146" lon="1.51318">
        <ele>313</ele>
        <time>2019-02-03T03:54:28.000Z</time>
      </trkpt>
      <trkpt lat="44.77154" lon="1.51329">
        <ele>314</ele>
        <time>2019-02-03T03:55:28.000Z</time>
      </trkpt>
      <trkpt lat="44.77162" lon="1.51338">
        <ele>315</ele>
        <time>2019-02-03T03:56:28.000Z</time>
      </trkpt>
      <trkpt lat="44.77181" lon="1.5135">
        <ele>316</ele>
        <time>2019-02-03T03:57:28.000Z</time>
      </trkpt>
      <trkpt lat="44.7719" lon="1.51354">
        <ele>316</ele>
        <time>2019-02-03T03:58:28.000Z</time>
      </trkpt>
      <trkpt lat="44.772" lon="1.51356">
        <ele>317</ele>
        <time>2019-02-03T03:59:28.000Z</time>
      </trkpt>
      <trkpt lat="44.7721" lon="1.51356">
        <ele>318</ele>
        <time>2019-02-03T04:00:28.000Z</time>
      </trkpt>
      <trkpt lat="44.77221" lon="1.51353">
        <ele>319</ele>
        <time>2019-02-03T04:01:28.000Z</time>
      </trkpt>
      <trkpt lat="44.77231" lon="1.51348">
        <ele>320</ele>
        <time>2019-02-03T04:02:28.000Z</time>
      </trkpt>
      <trkpt lat="44.77239" lon="1.51338">
        <ele>322</ele>
        <time>2019-02-03T04:03:28.000Z</time>
      </trkpt>
      <trkpt lat="44.77244" lon="1.51326">
        <ele>323</ele>
        <time>2019-02-03T04:04:28.000Z</time>
      </trkpt>
      <trkpt lat="44.77248" lon="1.51312">
        <ele>324</ele>
        <time>2019-02-03T04:05:28.000Z</time>
      </trkpt>
      <trkpt lat="44.77249" lon="1.51298">
        <ele>325</ele>
        <time>2019-02-03T04:06:28.000Z</time>
      </trkpt>
      <trkpt lat="44.7725" lon="1.51285">
        <ele>325</ele>
        <time>2019-02-03T04:07:28.000Z</time>
      </trkpt>
      <trkpt lat="44.7725" lon="1.51271">
        <ele>326</ele>
        <time>2019-02-03T04:08:28.000Z</time>
      </trkpt>
      <trkpt lat="44.77248" lon="1.51245">
        <ele>327</ele>
        <time>2019-02-03T04:09:28.000Z</time>
      </trkpt>
      <trkpt lat="44.77245" lon="1.51232">
        <ele>328</ele>
        <time>2019-02-03T04:10:28.000Z</time>
      </trkpt>
      <trkpt lat="44.77245" lon="1.51216">
        <ele>329</ele>
        <time>2019-02-03T04:11:28.000Z</time>
      </trkpt>
      <trkpt lat="44.77244" lon="1.51184">
        <ele>330</ele>
        <time>2019-02-03T04:12:28.000Z</time>
      </trkpt>
      <trkpt lat="44.77244" lon="1.51166">
        <ele>332</ele>
        <time>2019-02-03T04:13:28.000Z</time>
      </trkpt>
      <trkpt lat="44.77244" lon="1.51148">
        <ele>333</ele>
        <time>2019-02-03T04:14:28.000Z</time>
      </trkpt>
      <trkpt lat="44.77244" lon="1.51131">
        <ele>334</ele>
        <time>2019-02-03T04:15:28.000Z</time>
      </trkpt>
      <trkpt lat="44.77246" lon="1.51118">
        <ele>335</ele>
        <time>2019-02-03T04:16:28.000Z</time>
      </trkpt>
      <trkpt lat="44.77247" lon="1.51103">
        <ele>336</ele>
        <time>2019-02-03T04:17:28.000Z</time>
      </trkpt>
      <trkpt lat="44.77247" lon="1.51089">
        <ele>336</ele>
        <time>2019-02-03T04:18:28.000Z</time>
      </trkpt>
      <trkpt lat="44.77248" lon="1.51076">
        <ele>337</ele>
        <time>2019-02-03T04:19:28.000Z</time>
      </trkpt>
      <trkpt lat="44.77246" lon="1.51063">
        <ele>338</ele>
        <time>2019-02-03T04:20:28.000Z</time>
      </trkpt>
      <trkpt lat="44.77242" lon="1.5105">
        <ele>338</ele>
        <time>2019-02-03T04:21:28.000Z</time>
      </trkpt>
      <trkpt lat="44.77235" lon="1.51024">
        <ele>339</ele>
        <time>2019-02-03T04:22:28.000Z</time>
      </trkpt>
      <trkpt lat="44.7723" lon="1.51013">
        <ele>340</ele>
        <time>2019-02-03T04:23:28.000Z</time>
      </trkpt>
      <trkpt lat="44.77227" lon="1.51">
        <ele>341</ele>
        <time>2019-02-03T04:24:28.000Z</time>
      </trkpt>
      <trkpt lat="44.77224" lon="1.50987">
        <ele>341</ele>
        <time>2019-02-03T04:25:28.000Z</time>
      </trkpt>
      <trkpt lat="44.77219" lon="1.50974">
        <ele>342</ele>
        <time>2019-02-03T04:26:28.000Z</time>
      </trkpt>
      <trkpt lat="44.77214" lon="1.5096">
        <ele>343</ele>
        <time>2019-02-03T04:27:28.000Z</time>
      </trkpt>
      <trkpt lat="44.77207" lon="1.50948">
        <ele>343</ele>
        <time>2019-02-03T04:28:28.000Z</time>
      </trkpt>
      <trkpt lat="44.77203" lon="1.50936">
        <ele>344</ele>
        <time>2019-02-03T04:29:28.000Z</time>
      </trkpt>
      <trkpt lat="44.77197" lon="1.50925">
        <ele>345</ele>
        <time>2019-02-03T04:30:28.000Z</time>
      </trkpt>
      <trkpt lat="44.7719" lon="1.50914">
        <ele>346</ele>
        <time>2019-02-03T04:31:28.000Z</time>
      </trkpt>
      <trkpt lat="44.77184" lon="1.50902">
        <ele>347</ele>
        <time>2019-02-03T04:32:28.000Z</time>
      </trkpt>
      <trkpt lat="44.77176" lon="1.50889">
        <ele>347</ele>
        <time>2019-02-03T04:33:28.000Z</time>
      </trkpt>
      <trkpt lat="44.77169" lon="1.50876">
        <ele>348</ele>
        <time>2019-02-03T04:34:28.000Z</time>
      </trkpt>
      <trkpt lat="44.77163" lon="1.50861">
        <ele>349</ele>
        <time>2019-02-03T04:35:28.000Z</time>
      </trkpt>
      <trkpt lat="44.77159" lon="1.50848">
        <ele>350</ele>
        <time>2019-02-03T04:36:28.000Z</time>
      </trkpt>
      <trkpt lat="44.77152" lon="1.50834">
        <ele>350</ele>
        <time>2019-02-03T04:37:28.000Z</time>
      </trkpt>
      <trkpt lat="44.77145" lon="1.50819">
        <ele>351</ele>
        <time>2019-02-03T04:38:28.000Z</time>
      </trkpt>
      <trkpt lat="44.77141" lon="1.50806">
        <ele>351</ele>
        <time>2019-02-03T04:39:28.000Z</time>
      </trkpt>
      <trkpt lat="44.77134" lon="1.5079">
        <ele>351</ele>
        <time>2019-02-03T04:40:28.000Z</time>
      </trkpt>
      <trkpt lat="44.77128" lon="1.50776">
        <ele>352</ele>
        <time>2019-02-03T04:41:28.000Z</time>
      </trkpt>
      <trkpt lat="44.77121" lon="1.5076">
        <ele>352</ele>
        <time>2019-02-03T04:42:28.000Z</time>
      </trkpt>
      <trkpt lat="44.77113" lon="1.50745">
        <ele>353</ele>
        <time>2019-02-03T04:43:28.000Z</time>
      </trkpt>
      <trkpt lat="44.77107" lon="1.5073">
        <ele>354</ele>
        <time>2019-02-03T04:44:28.000Z</time>
      </trkpt>
      <trkpt lat="44.77091" lon="1.50695">
        <ele>356</ele>
        <time>2019-02-03T04:45:28.000Z</time>
      </trkpt>
      <trkpt lat="44.77074" lon="1.50663">
        <ele>358</ele>
        <time>2019-02-03T04:46:28.000Z</time>
      </trkpt>
      <trkpt lat="44.77069" lon="1.50649">
        <ele>358</ele>
        <time>2019-02-03T04:47:28.000Z</time>
      </trkpt>
      <trkpt lat="44.77066" lon="1.50634">
        <ele>358</ele>
        <time>2019-02-03T04:48:28.000Z</time>
      </trkpt>
      <trkpt lat="44.77061" lon="1.50618">
        <ele>358</ele>
        <time>2019-02-03T04:49:28.000Z</time>
      </trkpt>
      <trkpt lat="44.77056" lon="1.50598">
        <ele>359</ele>
        <time>2019-02-03T04:50:28.000Z</time>
      </trkpt>
      <trkpt lat="44.77046" lon="1.50581">
        <ele>360</ele>
        <time>2019-02-03T04:51:28.000Z</time>
      </trkpt>
      <trkpt lat="44.77039" lon="1.50569">
        <ele>360</ele>
        <time>2019-02-03T04:52:28.000Z</time>
      </trkpt>
      <trkpt lat="44.77032" lon="1.50553">
        <ele>361</ele>
        <time>2019-02-03T04:53:28.000Z</time>
      </trkpt>
      <trkpt lat="44.77025" lon="1.50536">
        <ele>362</ele>
        <time>2019-02-03T04:54:28.000Z</time>
      </trkpt>
      <trkpt lat="44.77019" lon="1.50523">
        <ele>363</ele>
        <time>2019-02-03T04:55:28.000Z</time>
      </trkpt>
      <trkpt lat="44.77009" lon="1.50506">
        <ele>363</ele>
        <time>2019-02-03T04:56:28.000Z</time>
      </trkpt>
      <trkpt lat="44.77002" lon="1.5049">
        <ele>364</ele>
        <time>2019-02-03T04:57:28.000Z</time>
      </trkpt>
      <trkpt lat="44.76998" lon="1.5047">
        <ele>363</ele>
        <time>2019-02-03T04:58:28.000Z</time>
      </trkpt>
      <trkpt lat="44.76993" lon="1.50453">
        <ele>363</ele>
        <time>2019-02-03T04:59:28.000Z</time>
      </trkpt>
      <trkpt lat="44.76992" lon="1.50437">
        <ele>362</ele>
        <time>2019-02-03T05:00:28.000Z</time>
      </trkpt>
      <trkpt lat="44.76992" lon="1.50423">
        <ele>362</ele>
        <time>2019-02-03T05:01:28.000Z</time>
      </trkpt>
      <trkpt lat="44.76996" lon="1.50411">
        <ele>363</ele>
        <time>2019-02-03T05:02:28.000Z</time>
      </trkpt>
      <trkpt lat="44.77002" lon="1.50422">
        <ele>363</ele>
        <time>2019-02-03T05:03:28.000Z</time>
      </trkpt>
      <trkpt lat="44.7701" lon="1.50432">
        <ele>363</ele>
        <time>2019-02-03T05:04:28.000Z</time>
      </trkpt>
      <trkpt lat="44.77021" lon="1.50433">
        <ele>362</ele>
        <time>2019-02-03T05:05:28.000Z</time>
      </trkpt>
      <trkpt lat="44.77026" lon="1.50445">
        <ele>362</ele>
        <time>2019-02-03T05:06:28.000Z</time>
      </trkpt>
      <trkpt lat="44.77035" lon="1.50457">
        <ele>362</ele>
        <time>2019-02-03T05:07:28.000Z</time>
      </trkpt>
      <trkpt lat="44.77041" lon="1.50468">
        <ele>362</ele>
        <time>2019-02-03T05:08:28.000Z</time>
      </trkpt>
      <trkpt lat="44.77041" lon="1.50481">
        <ele>362</ele>
        <time>2019-02-03T05:09:28.000Z</time>
      </trkpt>
      <trkpt lat="44.77033" lon="1.50488">
        <ele>363</ele>
        <time>2019-02-03T05:10:28.000Z</time>
      </trkpt>
      <trkpt lat="44.77028" lon="1.50501">
        <ele>363</ele>
        <time>2019-02-03T05:11:28.000Z</time>
      </trkpt>
      <trkpt lat="44.77018" lon="1.50512">
        <ele>363</ele>
        <time>2019-02-03T05:12:28.000Z</time>
      </trkpt>
      <trkpt lat="44.77009" lon="1.50496">
        <ele>364</ele>
        <time>2019-02-03T05:13:28.000Z</time>
      </trkpt>
      <trkpt lat="44.77004" lon="1.5048">
        <ele>364</ele>
        <time>2019-02-03T05:14:28.000Z</time>
      </trkpt>
      <trkpt lat="44.76999" lon="1.50463">
        <ele>363</ele>
        <time>2019-02-03T05:15:28.000Z</time>
      </trkpt>
      <trkpt lat="44.76991" lon="1.50448">
        <ele>362</ele>
        <time>2019-02-03T05:16:28.000Z</time>
      </trkpt>
      <trkpt lat="44.7699" lon="1.5043">
        <ele>362</ele>
        <time>2019-02-03T05:17:28.000Z</time>
      </trkpt>
      <trkpt lat="44.76996" lon="1.50416">
        <ele>363</ele>
        <time>2019-02-03T05:18:28.000Z</time>
      </trkpt>
      <trkpt lat="44.7701" lon="1.5043">
        <ele>363</ele>
        <time>2019-02-03T05:19:28.000Z</time>
      </trkpt>
      <trkpt lat="44.77028" lon="1.50433">
        <ele>362</ele>
        <time>2019-02-03T05:20:28.000Z</time>
      </trkpt>
      <trkpt lat="44.77044" lon="1.50425">
        <ele>361</ele>
        <time>2019-02-03T05:21:28.000Z</time>
      </trkpt>
      <trkpt lat="44.77054" lon="1.50419">
        <ele>360</ele>
        <time>2019-02-03T05:22:28.000Z</time>
      </trkpt>
      <trkpt lat="44.77045" lon="1.50424">
        <ele>361</ele>
        <time>2019-02-03T05:23:28.000Z</time>
      </trkpt>
      <trkpt lat="44.77032" lon="1.5043">
        <ele>362</ele>
        <time>2019-02-03T05:24:28.000Z</time>
      </trkpt>
      <trkpt lat="44.77017" lon="1.50432">
        <ele>362</ele>
        <time>2019-02-03T05:25:28.000Z</time>
      </trkpt>
      <trkpt lat="44.77006" lon="1.50425">
        <ele>363</ele>
        <time>2019-02-03T05:26:28.000Z</time>
      </trkpt>
      <trkpt lat="44.76997" lon="1.50404">
        <ele>362</ele>
        <time>2019-02-03T05:27:28.000Z</time>
      </trkpt>
      <trkpt lat="44.76979" lon="1.50389">
        <ele>361</ele>
        <time>2019-02-03T05:28:28.000Z</time>
      </trkpt>
      <trkpt lat="44.76946" lon="1.50352">
        <ele>357</ele>
        <time>2019-02-03T05:29:28.000Z</time>
      </trkpt>
      <trkpt lat="44.76925" lon="1.50307">
        <ele>354</ele>
        <time>2019-02-03T05:30:28.000Z</time>
      </trkpt>
      <trkpt lat="44.76903" lon="1.50253">
        <ele>349</ele>
        <time>2019-02-03T05:31:28.000Z</time>
      </trkpt>
      <trkpt lat="44.76866" lon="1.50214">
        <ele>346</ele>
        <time>2019-02-03T05:32:28.000Z</time>
      </trkpt>
      <trkpt lat="44.7681" lon="1.5018">
        <ele>345</ele>
        <time>2019-02-03T05:33:28.000Z</time>
      </trkpt>
      <trkpt lat="44.76771" lon="1.50158">
        <ele>348</ele>
        <time>2019-02-03T05:34:28.000Z</time>
      </trkpt>
      <trkpt lat="44.76733" lon="1.50157">
        <ele>348</ele>
        <time>2019-02-03T05:35:28.000Z</time>
      </trkpt>
      <trkpt lat="44.76708" lon="1.50156">
        <ele>348</ele>
        <time>2019-02-03T05:36:28.000Z</time>
      </trkpt>
      <trkpt lat="44.76691" lon="1.50143">
        <ele>348</ele>
        <time>2019-02-03T05:37:28.000Z</time>
      </trkpt>
      <trkpt lat="44.76679" lon="1.5013">
        <ele>349</ele>
        <time>2019-02-03T05:38:28.000Z</time>
      </trkpt>
      <trkpt lat="44.76662" lon="1.50114">
        <ele>350</ele>
        <time>2019-02-03T05:39:28.000Z</time>
      </trkpt>
      <trkpt lat="44.76647" lon="1.50102">
        <ele>350</ele>
        <time>2019-02-03T05:40:28.000Z</time>
      </trkpt>
      <trkpt lat="44.76627" lon="1.50092">
        <ele>350</ele>
        <time>2019-02-03T05:41:28.000Z</time>
      </trkpt>
      <trkpt lat="44.7661" lon="1.50082">
        <ele>350</ele>
        <time>2019-02-03T05:42:28.000Z</time>
      </trkpt>
      <trkpt lat="44.7659" lon="1.50073">
        <ele>351</ele>
        <time>2019-02-03T05:43:28.000Z</time>
      </trkpt>
      <trkpt lat="44.76574" lon="1.50065">
        <ele>352</ele>
        <time>2019-02-03T05:44:28.000Z</time>
      </trkpt>
      <trkpt lat="44.76556" lon="1.50057">
        <ele>353</ele>
        <time>2019-02-03T05:45:28.000Z</time>
      </trkpt>
      <trkpt lat="44.76538" lon="1.50051">
        <ele>355</ele>
        <time>2019-02-03T05:46:28.000Z</time>
      </trkpt>
      <trkpt lat="44.76525" lon="1.50048">
        <ele>356</ele>
        <time>2019-02-03T05:47:28.000Z</time>
      </trkpt>
      <trkpt lat="44.76509" lon="1.50047">
        <ele>358</ele>
        <time>2019-02-03T05:48:28.000Z</time>
      </trkpt>
      <trkpt lat="44.76495" lon="1.50051">
        <ele>359</ele>
        <time>2019-02-03T05:49:28.000Z</time>
      </trkpt>
      <trkpt lat="44.76478" lon="1.50056">
        <ele>360</ele>
        <time>2019-02-03T05:50:28.000Z</time>
      </trkpt>
      <trkpt lat="44.76461" lon="1.50061">
        <ele>362</ele>
        <time>2019-02-03T05:51:28.000Z</time>
      </trkpt>
      <trkpt lat="44.76443" lon="1.50069">
        <ele>363</ele>
        <time>2019-02-03T05:52:28.000Z</time>
      </trkpt>
      <trkpt lat="44.7643" lon="1.50079">
        <ele>364</ele>
        <time>2019-02-03T05:53:28.000Z</time>
      </trkpt>
      <trkpt lat="44.76418" lon="1.50092">
        <ele>364</ele>
        <time>2019-02-03T05:54:28.000Z</time>
      </trkpt>
      <trkpt lat="44.76405" lon="1.50109">
        <ele>365</ele>
        <time>2019-02-03T05:55:28.000Z</time>
      </trkpt>
      <trkpt lat="44.76394" lon="1.50128">
        <ele>366</ele>
        <time>2019-02-03T05:56:28.000Z</time>
      </trkpt>
      <trkpt lat="44.7637" lon="1.50158">
        <ele>368</ele>
        <time>2019-02-03T05:57:28.000Z</time>
      </trkpt>
      <trkpt lat="44.76346" lon="1.50193">
        <ele>369</ele>
        <time>2019-02-03T05:58:28.000Z</time>
      </trkpt>
      <trkpt lat="44.76334" lon="1.50206">
        <ele>369</ele>
        <time>2019-02-03T05:59:28.000Z</time>
      </trkpt>
      <trkpt lat="44.76309" lon="1.50229">
        <ele>369</ele>
        <time>2019-02-03T06:00:28.000Z</time>
      </trkpt>
      <trkpt lat="44.76293" lon="1.50243">
        <ele>370</ele>
        <time>2019-02-03T06:01:28.000Z</time>
      </trkpt>
      <trkpt lat="44.76278" lon="1.50254">
        <ele>370</ele>
        <time>2019-02-03T06:02:28.000Z</time>
      </trkpt>
      <trkpt lat="44.76259" lon="1.50265">
        <ele>371</ele>
        <time>2019-02-03T06:03:28.000Z</time>
      </trkpt>
      <trkpt lat="44.76242" lon="1.50267">
        <ele>371</ele>
        <time>2019-02-03T06:04:28.000Z</time>
      </trkpt>
      <trkpt lat="44.76222" lon="1.5026">
        <ele>370</ele>
        <time>2019-02-03T06:05:28.000Z</time>
      </trkpt>
      <trkpt lat="44.76206" lon="1.50243">
        <ele>370</ele>
        <time>2019-02-03T06:06:28.000Z</time>
      </trkpt>
      <trkpt lat="44.76194" lon="1.50226">
        <ele>370</ele>
        <time>2019-02-03T06:07:28.000Z</time>
      </trkpt>
      <trkpt lat="44.76181" lon="1.50207">
        <ele>371</ele>
        <time>2019-02-03T06:08:28.000Z</time>
      </trkpt>
      <trkpt lat="44.76165" lon="1.50183">
        <ele>373</ele>
        <time>2019-02-03T06:09:28.000Z</time>
      </trkpt>
      <trkpt lat="44.76151" lon="1.5016">
        <ele>373</ele>
        <time>2019-02-03T06:10:28.000Z</time>
      </trkpt>
      <trkpt lat="44.7613" lon="1.5013">
        <ele>372</ele>
        <time>2019-02-03T06:11:28.000Z</time>
      </trkpt>
      <trkpt lat="44.76113" lon="1.50102">
        <ele>373</ele>
        <time>2019-02-03T06:12:28.000Z</time>
      </trkpt>
      <trkpt lat="44.76098" lon="1.50065">
        <ele>375</ele>
        <time>2019-02-03T06:13:28.000Z</time>
      </trkpt>
      <trkpt lat="44.76084" lon="1.50025">
        <ele>374</ele>
        <time>2019-02-03T06:14:28.000Z</time>
      </trkpt>
      <trkpt lat="44.76065" lon="1.49996">
        <ele>374</ele>
        <time>2019-02-03T06:15:28.000Z</time>
      </trkpt>
      <trkpt lat="44.7604" lon="1.49979">
        <ele>374</ele>
        <time>2019-02-03T06:16:28.000Z</time>
      </trkpt>
      <trkpt lat="44.76014" lon="1.49959">
        <ele>375</ele>
        <time>2019-02-03T06:17:28.000Z</time>
      </trkpt>
      <trkpt lat="44.75993" lon="1.49945">
        <ele>378</ele>
        <time>2019-02-03T06:18:28.000Z</time>
      </trkpt>
      <trkpt lat="44.7597" lon="1.49927">
        <ele>381</ele>
        <time>2019-02-03T06:19:28.000Z</time>
      </trkpt>
      <trkpt lat="44.75954" lon="1.49913">
        <ele>383</ele>
        <time>2019-02-03T06:20:28.000Z</time>
      </trkpt>
      <trkpt lat="44.75939" lon="1.49892">
        <ele>382</ele>
        <time>2019-02-03T06:21:28.000Z</time>
      </trkpt>
      <trkpt lat="44.7592" lon="1.49872">
        <ele>381</ele>
        <time>2019-02-03T06:22:28.000Z</time>
      </trkpt>
      <trkpt lat="44.75894" lon="1.4985">
        <ele>380</ele>
        <time>2019-02-03T06:23:28.000Z</time>
      </trkpt>
      <trkpt lat="44.75854" lon="1.49818">
        <ele>377</ele>
        <time>2019-02-03T06:24:28.000Z</time>
      </trkpt>
      <trkpt lat="44.75828" lon="1.49752">
        <ele>374</ele>
        <time>2019-02-03T06:25:28.000Z</time>
      </trkpt>
      <trkpt lat="44.75829" lon="1.49679">
        <ele>371</ele>
        <time>2019-02-03T06:26:28.000Z</time>
      </trkpt>
      <trkpt lat="44.75833" lon="1.4962">
        <ele>370</ele>
        <time>2019-02-03T06:27:28.000Z</time>
      </trkpt>
      <trkpt lat="44.75831" lon="1.4956">
        <ele>368</ele>
        <time>2019-02-03T06:28:28.000Z</time>
      </trkpt>
      <trkpt lat="44.75825" lon="1.49438">
        <ele>368</ele>
        <time>2019-02-03T06:29:28.000Z</time>
      </trkpt>
      <trkpt lat="44.75837" lon="1.49382">
        <ele>368</ele>
        <time>2019-02-03T06:30:28.000Z</time>
      </trkpt>
      <trkpt lat="44.75845" lon="1.4934">
        <ele>368</ele>
        <time>2019-02-03T06:31:28.000Z</time>
      </trkpt>
      <trkpt lat="44.75857" lon="1.493">
        <ele>366</ele>
        <time>2019-02-03T06:32:28.000Z</time>
      </trkpt>
      <trkpt lat="44.75863" lon="1.49264">
        <ele>365</ele>
        <time>2019-02-03T06:33:28.000Z</time>
      </trkpt>
      <trkpt lat="44.75878" lon="1.49224">
        <ele>364</ele>
        <time>2019-02-03T06:34:28.000Z</time>
      </trkpt>
      <trkpt lat="44.75897" lon="1.492">
        <ele>364</ele>
        <time>2019-02-03T06:35:28.000Z</time>
      </trkpt>
      <trkpt lat="44.75921" lon="1.49174">
        <ele>364</ele>
        <time>2019-02-03T06:36:28.000Z</time>
      </trkpt>
      <trkpt lat="44.75923" lon="1.49148">
        <ele>364</ele>
        <time>2019-02-03T06:37:28.000Z</time>
      </trkpt>
      <trkpt lat="44.75915" lon="1.49128">
        <ele>363</ele>
        <time>2019-02-03T06:38:28.000Z</time>
      </trkpt>
      <trkpt lat="44.7589" lon="1.49121">
        <ele>362</ele>
        <time>2019-02-03T06:39:28.000Z</time>
      </trkpt>
      <trkpt lat="44.75877" lon="1.49149">
        <ele>363</ele>
        <time>2019-02-03T06:40:28.000Z</time>
      </trkpt>
      <trkpt lat="44.75855" lon="1.4917">
        <ele>363</ele>
        <time>2019-02-03T06:41:28.000Z</time>
      </trkpt>
      <trkpt lat="44.75829" lon="1.4919">
        <ele>363</ele>
        <time>2019-02-03T06:42:28.000Z</time>
      </trkpt>
      <trkpt lat="44.75794" lon="1.49201">
        <ele>362</ele>
        <time>2019-02-03T06:43:28.000Z</time>
      </trkpt>
      <trkpt lat="44.75753" lon="1.49213">
        <ele>361</ele>
        <time>2019-02-03T06:44:28.000Z</time>
      </trkpt>
      <trkpt lat="44.75722" lon="1.49225">
        <ele>360</ele>
        <time>2019-02-03T06:45:28.000Z</time>
      </trkpt>
      <trkpt lat="44.75719" lon="1.49213">
        <ele>359</ele>
        <time>2019-02-03T06:46:28.000Z</time>
      </trkpt>
      <trkpt lat="44.75738" lon="1.49187">
        <ele>357</ele>
        <time>2019-02-03T06:47:28.000Z</time>
      </trkpt>
      <trkpt lat="44.75765" lon="1.49134">
        <ele>355</ele>
        <time>2019-02-03T06:48:28.000Z</time>
      </trkpt>
      <trkpt lat="44.75771" lon="1.49081">
        <ele>351</ele>
        <time>2019-02-03T06:49:28.000Z</time>
      </trkpt>
      <trkpt lat="44.758" lon="1.49017">
        <ele>349</ele>
        <time>2019-02-03T06:50:28.000Z</time>
      </trkpt>
      <trkpt lat="44.75822" lon="1.48949">
        <ele>345</ele>
        <time>2019-02-03T06:51:28.000Z</time>
      </trkpt>
      <trkpt lat="44.75814" lon="1.48875">
        <ele>344</ele>
        <time>2019-02-03T06:52:28.000Z</time>
      </trkpt>
      <trkpt lat="44.75763" lon="1.4885">
        <ele>337</ele>
        <time>2019-02-03T06:53:28.000Z</time>
      </trkpt>
      <trkpt lat="44.75711" lon="1.488">
        <ele>332</ele>
        <time>2019-02-03T06:54:28.000Z</time>
      </trkpt>
      <trkpt lat="44.75677" lon="1.48723">
        <ele>329</ele>
        <time>2019-02-03T06:55:28.000Z</time>
      </trkpt>
      <trkpt lat="44.75641" lon="1.48666">
        <ele>328</ele>
        <time>2019-02-03T06:56:28.000Z</time>
      </trkpt>
      <trkpt lat="44.75609" lon="1.4861">
        <ele>326</ele>
        <time>2019-02-03T06:57:28.000Z</time>
      </trkpt>
      <trkpt lat="44.75601" lon="1.48559">
        <ele>328</ele>
        <time>2019-02-03T06:58:28.000Z</time>
      </trkpt>
      <trkpt lat="44.75596" lon="1.48536">
        <ele>330</ele>
        <time>2019-02-03T06:59:28.000Z</time>
      </trkpt>
      <trkpt lat="44.75592" lon="1.48512">
        <ele>331</ele>
        <time>2019-02-03T07:00:28.000Z</time>
      </trkpt>
      <trkpt lat="44.75577" lon="1.48498">
        <ele>332</ele>
        <time>2019-02-03T07:01:28.000Z</time>
      </trkpt>
      <trkpt lat="44.7556" lon="1.48494">
        <ele>332</ele>
        <time>2019-02-03T07:02:28.000Z</time>
      </trkpt>
      <trkpt lat="44.75538" lon="1.4849">
        <ele>331</ele>
        <time>2019-02-03T07:03:28.000Z</time>
      </trkpt>
      <trkpt lat="44.75521" lon="1.48476">
        <ele>332</ele>
        <time>2019-02-03T07:04:28.000Z</time>
      </trkpt>
      <trkpt lat="44.75511" lon="1.48465">
        <ele>332</ele>
        <time>2019-02-03T07:05:28.000Z</time>
      </trkpt>
      <trkpt lat="44.755" lon="1.48455">
        <ele>332</ele>
        <time>2019-02-03T07:06:28.000Z</time>
      </trkpt>
      <trkpt lat="44.75489" lon="1.48447">
        <ele>333</ele>
        <time>2019-02-03T07:07:28.000Z</time>
      </trkpt>
      <trkpt lat="44.75473" lon="1.4844">
        <ele>335</ele>
        <time>2019-02-03T07:08:28.000Z</time>
      </trkpt>
      <trkpt lat="44.75457" lon="1.48439">
        <ele>336</ele>
        <time>2019-02-03T07:09:28.000Z</time>
      </trkpt>
      <trkpt lat="44.75447" lon="1.48441">
        <ele>337</ele>
        <time>2019-02-03T07:10:28.000Z</time>
      </trkpt>
      <trkpt lat="44.75437" lon="1.48441">
        <ele>338</ele>
        <time>2019-02-03T07:11:28.000Z</time>
      </trkpt>
      <trkpt lat="44.75426" lon="1.48436">
        <ele>339</ele>
        <time>2019-02-03T07:12:28.000Z</time>
      </trkpt>
      <trkpt lat="44.75416" lon="1.48429">
        <ele>341</ele>
        <time>2019-02-03T07:13:28.000Z</time>
      </trkpt>
      <trkpt lat="44.75406" lon="1.48424">
        <ele>341</ele>
        <time>2019-02-03T07:14:28.000Z</time>
      </trkpt>
      <trkpt lat="44.75397" lon="1.4842">
        <ele>341</ele>
        <time>2019-02-03T07:15:28.000Z</time>
      </trkpt>
      <trkpt lat="44.75388" lon="1.48415">
        <ele>341</ele>
        <time>2019-02-03T07:16:28.000Z</time>
      </trkpt>
      <trkpt lat="44.75377" lon="1.48414">
        <ele>341</ele>
        <time>2019-02-03T07:17:28.000Z</time>
      </trkpt>
      <trkpt lat="44.75369" lon="1.48408">
        <ele>342</ele>
        <time>2019-02-03T07:18:28.000Z</time>
      </trkpt>
      <trkpt lat="44.75362" lon="1.48398">
        <ele>343</ele>
        <time>2019-02-03T07:19:28.000Z</time>
      </trkpt>
      <trkpt lat="44.75345" lon="1.48379">
        <ele>344</ele>
        <time>2019-02-03T07:20:28.000Z</time>
      </trkpt>
      <trkpt lat="44.75339" lon="1.48367">
        <ele>345</ele>
        <time>2019-02-03T07:21:28.000Z</time>
      </trkpt>
      <trkpt lat="44.75334" lon="1.48355">
        <ele>347</ele>
        <time>2019-02-03T07:22:28.000Z</time>
      </trkpt>
      <trkpt lat="44.75335" lon="1.48341">
        <ele>348</ele>
        <time>2019-02-03T07:23:28.000Z</time>
      </trkpt>
      <trkpt lat="44.75339" lon="1.48328">
        <ele>349</ele>
        <time>2019-02-03T07:24:28.000Z</time>
      </trkpt>
      <trkpt lat="44.75339" lon="1.48315">
        <ele>350</ele>
        <time>2019-02-03T07:25:28.000Z</time>
      </trkpt>
      <trkpt lat="44.75336" lon="1.48299">
        <ele>350</ele>
        <time>2019-02-03T07:26:28.000Z</time>
      </trkpt>
      <trkpt lat="44.7533" lon="1.48281">
        <ele>351</ele>
        <time>2019-02-03T07:27:28.000Z</time>
      </trkpt>
      <trkpt lat="44.75323" lon="1.48262">
        <ele>351</ele>
        <time>2019-02-03T07:28:28.000Z</time>
      </trkpt>
      <trkpt lat="44.75316" lon="1.48241">
        <ele>350</ele>
        <time>2019-02-03T07:29:28.000Z</time>
      </trkpt>
      <trkpt lat="44.75311" lon="1.48218">
        <ele>350</ele>
        <time>2019-02-03T07:30:28.000Z</time>
      </trkpt>
      <trkpt lat="44.75302" lon="1.48179">
        <ele>349</ele>
        <time>2019-02-03T07:31:28.000Z</time>
      </trkpt>
      <trkpt lat="44.75291" lon="1.48141">
        <ele>349</ele>
        <time>2019-02-03T07:32:28.000Z</time>
      </trkpt>
      <trkpt lat="44.75281" lon="1.481">
        <ele>348</ele>
        <time>2019-02-03T07:33:28.000Z</time>
      </trkpt>
      <trkpt lat="44.75272" lon="1.4805">
        <ele>346</ele>
        <time>2019-02-03T07:34:28.000Z</time>
      </trkpt>
      <trkpt lat="44.75265" lon="1.47998">
        <ele>342</ele>
        <time>2019-02-03T07:35:28.000Z</time>
      </trkpt>
      <trkpt lat="44.75254" lon="1.47923">
        <ele>336</ele>
        <time>2019-02-03T07:36:28.000Z</time>
      </trkpt>
      <trkpt lat="44.75244" lon="1.47858">
        <ele>331</ele>
        <time>2019-02-03T07:37:28.000Z</time>
      </trkpt>
      <trkpt lat="44.7522" lon="1.47782">
        <ele>326</ele>
        <time>2019-02-03T07:38:28.000Z</time>
      </trkpt>
      <trkpt lat="44.75195" lon="1.47698">
        <ele>326</ele>
        <time>2019-02-03T07:39:28.000Z</time>
      </trkpt>
      <trkpt lat="44.75178" lon="1.47632">
        <ele>329</ele>
        <time>2019-02-03T07:40:28.000Z</time>
      </trkpt>
      <trkpt lat="44.75159" lon="1.47601">
        <ele>329</ele>
        <time>2019-02-03T07:41:28.000Z</time>
      </trkpt>
      <trkpt lat="44.75137" lon="1.47575">
        <ele>326</ele>
        <time>2019-02-03T07:42:28.000Z</time>
      </trkpt>
      <trkpt lat="44.7513" lon="1.47532">
        <ele>322</ele>
        <time>2019-02-03T07:43:28.000Z</time>
      </trkpt>
      <trkpt lat="44.75141" lon="1.47484">
        <ele>320</ele>
        <time>2019-02-03T07:44:28.000Z</time>
      </trkpt>
      <trkpt lat="44.75143" lon="1.47425">
        <ele>318</ele>
        <time>2019-02-03T07:45:28.000Z</time>
      </trkpt>
      <trkpt lat="44.75138" lon="1.47377">
        <ele>317</ele>
        <time>2019-02-03T07:46:28.000Z</time>
      </trkpt>
      <trkpt lat="44.75142" lon="1.47326">
        <ele>317</ele>
        <time>2019-02-03T07:47:28.000Z</time>
      </trkpt>
      <trkpt lat="44.75146" lon="1.47285">
        <ele>317</ele>
        <time>2019-02-03T07:48:28.000Z</time>
      </trkpt>
      <trkpt lat="44.75137" lon="1.47243">
        <ele>318</ele>
        <time>2019-02-03T07:49:28.000Z</time>
      </trkpt>
      <trkpt lat="44.7512" lon="1.47205">
        <ele>318</ele>
        <time>2019-02-03T07:50:28.000Z</time>
      </trkpt>
      <trkpt lat="44.75107" lon="1.47179">
        <ele>318</ele>
        <time>2019-02-03T07:51:28.000Z</time>
      </trkpt>
      <trkpt lat="44.75093" lon="1.47151">
        <ele>319</ele>
        <time>2019-02-03T07:52:28.000Z</time>
      </trkpt>
      <trkpt lat="44.75044" lon="1.4713">
        <ele>316</ele>
        <time>2019-02-03T07:53:28.000Z</time>
      </trkpt>
      <trkpt lat="44.74991" lon="1.47101">
        <ele>310</ele>
        <time>2019-02-03T07:54:28.000Z</time>
      </trkpt>
      <trkpt lat="44.74933" lon="1.4706">
        <ele>306</ele>
        <time>2019-02-03T07:55:28.000Z</time>
      </trkpt>
      <trkpt lat="44.7489" lon="1.47017">
        <ele>305</ele>
        <time>2019-02-03T07:56:28.000Z</time>
      </trkpt>
      <trkpt lat="44.74868" lon="1.46983">
        <ele>304</ele>
        <time>2019-02-03T07:57:28.000Z</time>
      </trkpt>
      <trkpt lat="44.74851" lon="1.46949">
        <ele>304</ele>
        <time>2019-02-03T07:58:28.000Z</time>
      </trkpt>
      <trkpt lat="44.74836" lon="1.46915">
        <ele>305</ele>
        <time>2019-02-03T07:59:28.000Z</time>
      </trkpt>
      <trkpt lat="44.74827" lon="1.46892">
        <ele>304</ele>
        <time>2019-02-03T08:00:28.000Z</time>
      </trkpt>
      <trkpt lat="44.74822" lon="1.46869">
        <ele>303</ele>
        <time>2019-02-03T08:01:28.000Z</time>
      </trkpt>
      <trkpt lat="44.74805" lon="1.46836">
        <ele>302</ele>
        <time>2019-02-03T08:02:28.000Z</time>
      </trkpt>
      <trkpt lat="44.74772" lon="1.46794">
        <ele>298</ele>
        <time>2019-02-03T08:03:28.000Z</time>
      </trkpt>
      <trkpt lat="44.74744" lon="1.46745">
        <ele>295</ele>
        <time>2019-02-03T08:04:28.000Z</time>
      </trkpt>
      <trkpt lat="44.74724" lon="1.46713">
        <ele>291</ele>
        <time>2019-02-03T08:05:28.000Z</time>
      </trkpt>
      <trkpt lat="44.74702" lon="1.46685">
        <ele>288</ele>
        <time>2019-02-03T08:06:28.000Z</time>
      </trkpt>
      <trkpt lat="44.74622" lon="1.46615">
        <ele>279</ele>
        <time>2019-02-03T08:07:28.000Z</time>
      </trkpt>
      <trkpt lat="44.74592" lon="1.46596">
        <ele>276</ele>
        <time>2019-02-03T08:08:28.000Z</time>
      </trkpt>
      <trkpt lat="44.74568" lon="1.46586">
        <ele>274</ele>
        <time>2019-02-03T08:09:28.000Z</time>
      </trkpt>
      <trkpt lat="44.74534" lon="1.46573">
        <ele>269</ele>
        <time>2019-02-03T08:10:28.000Z</time>
      </trkpt>
      <trkpt lat="44.74501" lon="1.46562">
        <ele>265</ele>
        <time>2019-02-03T08:11:28.000Z</time>
      </trkpt>
      <trkpt lat="44.74462" lon="1.4654">
        <ele>261</ele>
        <time>2019-02-03T08:12:28.000Z</time>
      </trkpt>
      <trkpt lat="44.74429" lon="1.46502">
        <ele>258</ele>
        <time>2019-02-03T08:13:28.000Z</time>
      </trkpt>
      <trkpt lat="44.74383" lon="1.46497">
        <ele>254</ele>
        <time>2019-02-03T08:14:28.000Z</time>
      </trkpt>
      <trkpt lat="44.74353" lon="1.46514">
        <ele>254</ele>
        <time>2019-02-03T08:15:28.000Z</time>
      </trkpt>
      <trkpt lat="44.74342" lon="1.46498">
        <ele>253</ele>
        <time>2019-02-03T08:16:28.000Z</time>
      </trkpt>
      <trkpt lat="44.74334" lon="1.46467">
        <ele>252</ele>
        <time>2019-02-03T08:17:28.000Z</time>
      </trkpt>
      <trkpt lat="44.74327" lon="1.46432">
        <ele>251</ele>
        <time>2019-02-03T08:18:28.000Z</time>
      </trkpt>
      <trkpt lat="44.74316" lon="1.46383">
        <ele>251</ele>
        <time>2019-02-03T08:19:28.000Z</time>
      </trkpt>
      <trkpt lat="44.74311" lon="1.46338">
        <ele>251</ele>
        <time>2019-02-03T08:20:28.000Z</time>
      </trkpt>
      <trkpt lat="44.74313" lon="1.46282">
        <ele>251</ele>
        <time>2019-02-03T08:21:28.000Z</time>
      </trkpt>
      <trkpt lat="44.74317" lon="1.46235">
        <ele>250</ele>
        <time>2019-02-03T08:22:28.000Z</time>
      </trkpt>
      <trkpt lat="44.74322" lon="1.46188">
        <ele>249</ele>
        <time>2019-02-03T08:23:28.000Z</time>
      </trkpt>
      <trkpt lat="44.7433" lon="1.4613">
        <ele>247</ele>
        <time>2019-02-03T08:24:28.000Z</time>
      </trkpt>
      <trkpt lat="44.74334" lon="1.46084">
        <ele>245</ele>
        <time>2019-02-03T08:25:28.000Z</time>
      </trkpt>
      <trkpt lat="44.74342" lon="1.46034">
        <ele>244</ele>
        <time>2019-02-03T08:26:28.000Z</time>
      </trkpt>
      <trkpt lat="44.74345" lon="1.45972">
        <ele>243</ele>
        <time>2019-02-03T08:27:28.000Z</time>
      </trkpt>
      <trkpt lat="44.74348" lon="1.45851">
        <ele>244</ele>
        <time>2019-02-03T08:28:28.000Z</time>
      </trkpt>
      <trkpt lat="44.74344" lon="1.45784">
        <ele>243</ele>
        <time>2019-02-03T08:29:28.000Z</time>
      </trkpt>
      <trkpt lat="44.74343" lon="1.45725">
        <ele>243</ele>
        <time>2019-02-03T08:30:28.000Z</time>
      </trkpt>
      <trkpt lat="44.74339" lon="1.45655">
        <ele>243</ele>
        <time>2019-02-03T08:31:28.000Z</time>
      </trkpt>
      <trkpt lat="44.74335" lon="1.45606">
        <ele>242</ele>
        <time>2019-02-03T08:32:28.000Z</time>
      </trkpt>
      <trkpt lat="44.74325" lon="1.45547">
        <ele>241</ele>
        <time>2019-02-03T08:33:28.000Z</time>
      </trkpt>
      <trkpt lat="44.74318" lon="1.45494">
        <ele>241</ele>
        <time>2019-02-03T08:34:28.000Z</time>
      </trkpt>
      <trkpt lat="44.74315" lon="1.45435">
        <ele>240</ele>
        <time>2019-02-03T08:35:28.000Z</time>
      </trkpt>
      <trkpt lat="44.74313" lon="1.4538">
        <ele>240</ele>
        <time>2019-02-03T08:36:28.000Z</time>
      </trkpt>
      <trkpt lat="44.74304" lon="1.45324">
        <ele>242</ele>
        <time>2019-02-03T08:37:28.000Z</time>
      </trkpt>
      <trkpt lat="44.7429" lon="1.45269">
        <ele>245</ele>
        <time>2019-02-03T08:38:28.000Z</time>
      </trkpt>
      <trkpt lat="44.74272" lon="1.45213">
        <ele>246</ele>
        <time>2019-02-03T08:39:28.000Z</time>
      </trkpt>
      <trkpt lat="44.7426" lon="1.45165">
        <ele>244</ele>
        <time>2019-02-03T08:40:28.000Z</time>
      </trkpt>
      <trkpt lat="44.74248" lon="1.45114">
        <ele>240</ele>
        <time>2019-02-03T08:41:28.000Z</time>
      </trkpt>
      <trkpt lat="44.74232" lon="1.45052">
        <ele>238</ele>
        <time>2019-02-03T08:42:28.000Z</time>
      </trkpt>
      <trkpt lat="44.74217" lon="1.44991">
        <ele>237</ele>
        <time>2019-02-03T08:43:28.000Z</time>
      </trkpt>
      <trkpt lat="44.742" lon="1.44928">
        <ele>236</ele>
        <time>2019-02-03T08:44:28.000Z</time>
      </trkpt>
      <trkpt lat="44.74191" lon="1.44879">
        <ele>235</ele>
        <time>2019-02-03T08:45:28.000Z</time>
      </trkpt>
      <trkpt lat="44.74175" lon="1.44829">
        <ele>236</ele>
        <time>2019-02-03T08:46:28.000Z</time>
      </trkpt>
      <trkpt lat="44.74154" lon="1.44771">
        <ele>235</ele>
        <time>2019-02-03T08:47:28.000Z</time>
      </trkpt>
      <trkpt lat="44.74137" lon="1.44711">
        <ele>234</ele>
        <time>2019-02-03T08:48:28.000Z</time>
      </trkpt>
      <trkpt lat="44.74126" lon="1.44652">
        <ele>234</ele>
        <time>2019-02-03T08:49:28.000Z</time>
      </trkpt>
      <trkpt lat="44.74116" lon="1.44592">
        <ele>235</ele>
        <time>2019-02-03T08:50:28.000Z</time>
      </trkpt>
      <trkpt lat="44.7411" lon="1.44531">
        <ele>236</ele>
        <time>2019-02-03T08:51:28.000Z</time>
      </trkpt>
      <trkpt lat="44.74109" lon="1.44468">
        <ele>238</ele>
        <time>2019-02-03T08:52:28.000Z</time>
      </trkpt>
      <trkpt lat="44.74119" lon="1.4435">
        <ele>241</ele>
        <time>2019-02-03T08:53:28.000Z</time>
      </trkpt>
      <trkpt lat="44.74129" lon="1.44303">
        <ele>240</ele>
        <time>2019-02-03T08:54:28.000Z</time>
      </trkpt>
      <trkpt lat="44.74138" lon="1.44253">
        <ele>240</ele>
        <time>2019-02-03T08:55:28.000Z</time>
      </trkpt>
      <trkpt lat="44.74147" lon="1.4421">
        <ele>238</ele>
        <time>2019-02-03T08:56:28.000Z</time>
      </trkpt>
      <trkpt lat="44.74143" lon="1.4416">
        <ele>239</ele>
        <time>2019-02-03T08:57:28.000Z</time>
      </trkpt>
      <trkpt lat="44.74148" lon="1.44108">
        <ele>236</ele>
        <time>2019-02-03T08:58:28.000Z</time>
      </trkpt>
      <trkpt lat="44.74148" lon="1.44067">
        <ele>234</ele>
        <time>2019-02-03T08:59:28.000Z</time>
      </trkpt>
      <trkpt lat="44.74146" lon="1.44027">
        <ele>233</ele>
        <time>2019-02-03T09:00:28.000Z</time>
      </trkpt>
      <trkpt lat="44.74133" lon="1.43981">
        <ele>232</ele>
        <time>2019-02-03T09:01:28.000Z</time>
      </trkpt>
      <trkpt lat="44.74135" lon="1.43942">
        <ele>230</ele>
        <time>2019-02-03T09:02:28.000Z</time>
      </trkpt>
      <trkpt lat="44.74142" lon="1.43885">
        <ele>227</ele>
        <time>2019-02-03T09:03:28.000Z</time>
      </trkpt>
      <trkpt lat="44.74139" lon="1.4385">
        <ele>226</ele>
        <time>2019-02-03T09:04:28.000Z</time>
      </trkpt>
      <trkpt lat="44.74119" lon="1.43848">
        <ele>227</ele>
        <time>2019-02-03T09:05:28.000Z</time>
      </trkpt>
      <trkpt lat="44.74102" lon="1.43851">
        <ele>228</ele>
        <time>2019-02-03T09:06:28.000Z</time>
      </trkpt>
      <trkpt lat="44.74088" lon="1.43861">
        <ele>229</ele>
        <time>2019-02-03T09:07:28.000Z</time>
      </trkpt>
      <trkpt lat="44.74074" lon="1.43869">
        <ele>230</ele>
        <time>2019-02-03T09:08:28.000Z</time>
      </trkpt>
      <trkpt lat="44.74064" lon="1.43876">
        <ele>230</ele>
        <time>2019-02-03T09:09:28.000Z</time>
      </trkpt>
      <trkpt lat="44.74052" lon="1.43886">
        <ele>231</ele>
        <time>2019-02-03T09:10:28.000Z</time>
      </trkpt>
      <trkpt lat="44.74034" lon="1.43896">
        <ele>232</ele>
        <time>2019-02-03T09:11:28.000Z</time>
      </trkpt>
      <trkpt lat="44.74006" lon="1.43907">
        <ele>233</ele>
        <time>2019-02-03T09:12:28.000Z</time>
      </trkpt>
      <trkpt lat="44.73979" lon="1.43898">
        <ele>233</ele>
        <time>2019-02-03T09:13:28.000Z</time>
      </trkpt>
      <trkpt lat="44.73955" lon="1.43887">
        <ele>233</ele>
        <time>2019-02-03T09:14:28.000Z</time>
      </trkpt>
      <trkpt lat="44.73915" lon="1.43865">
        <ele>232</ele>
        <time>2019-02-03T09:15:28.000Z</time>
      </trkpt>
      <trkpt lat="44.73892" lon="1.43852">
        <ele>233</ele>
        <time>2019-02-03T09:16:28.000Z</time>
      </trkpt>
      <trkpt lat="44.73868" lon="1.43838">
        <ele>233</ele>
        <time>2019-02-03T09:17:28.000Z</time>
      </trkpt>
      <trkpt lat="44.73849" lon="1.43829">
        <ele>233</ele>
        <time>2019-02-03T09:18:28.000Z</time>
      </trkpt>
      <trkpt lat="44.73829" lon="1.43818">
        <ele>234</ele>
        <time>2019-02-03T09:19:28.000Z</time>
      </trkpt>
      <trkpt lat="44.73793" lon="1.43798">
        <ele>237</ele>
        <time>2019-02-03T09:20:28.000Z</time>
      </trkpt>
      <trkpt lat="44.73777" lon="1.4379">
        <ele>238</ele>
        <time>2019-02-03T09:21:28.000Z</time>
      </trkpt>
      <trkpt lat="44.73766" lon="1.43783">
        <ele>239</ele>
        <time>2019-02-03T09:22:28.000Z</time>
      </trkpt>
      <trkpt lat="44.73752" lon="1.43777">
        <ele>240</ele>
        <time>2019-02-03T09:23:28.000Z</time>
      </trkpt>
      <trkpt lat="44.73738" lon="1.43774">
        <ele>241</ele>
        <time>2019-02-03T09:24:28.000Z</time>
      </trkpt>
      <trkpt lat="44.73728" lon="1.43772">
        <ele>241</ele>
        <time>2019-02-03T09:25:28.000Z</time>
      </trkpt>
      <trkpt lat="44.73715" lon="1.43775">
        <ele>241</ele>
        <time>2019-02-03T09:26:28.000Z</time>
      </trkpt>
      <trkpt lat="44.73702" lon="1.43778">
        <ele>241</ele>
        <time>2019-02-03T09:27:28.000Z</time>
      </trkpt>
      <trkpt lat="44.73687" lon="1.43778">
        <ele>241</ele>
        <time>2019-02-03T09:28:28.000Z</time>
      </trkpt>
      <trkpt lat="44.7366" lon="1.43777">
        <ele>242</ele>
        <time>2019-02-03T09:29:28.000Z</time>
      </trkpt>
      <trkpt lat="44.73645" lon="1.43775">
        <ele>242</ele>
        <time>2019-02-03T09:30:28.000Z</time>
      </trkpt>
      <trkpt lat="44.73641" lon="1.43761">
        <ele>243</ele>
        <time>2019-02-03T09:31:28.000Z</time>
      </trkpt>
      <trkpt lat="44.73639" lon="1.43749">
        <ele>244</ele>
        <time>2019-02-03T09:32:28.000Z</time>
      </trkpt>
      <trkpt lat="44.73638" lon="1.43721">
        <ele>248</ele>
        <time>2019-02-03T09:33:28.000Z</time>
      </trkpt>
      <trkpt lat="44.73639" lon="1.43707">
        <ele>249</ele>
        <time>2019-02-03T09:34:28.000Z</time>
      </trkpt>
      <trkpt lat="44.7364" lon="1.43694">
        <ele>251</ele>
        <time>2019-02-03T09:35:28.000Z</time>
      </trkpt>
      <trkpt lat="44.73649" lon="1.43687">
        <ele>251</ele>
        <time>2019-02-03T09:36:28.000Z</time>
      </trkpt>
      <trkpt lat="44.73658" lon="1.43685">
        <ele>252</ele>
        <time>2019-02-03T09:37:28.000Z</time>
      </trkpt>
      <trkpt lat="44.73667" lon="1.43681">
        <ele>252</ele>
        <time>2019-02-03T09:38:28.000Z</time>
      </trkpt>
      <trkpt lat="44.73676" lon="1.43676">
        <ele>253</ele>
        <time>2019-02-03T09:39:28.000Z</time>
      </trkpt>
      <trkpt lat="44.73679" lon="1.43663">
        <ele>254</ele>
        <time>2019-02-03T09:40:28.000Z</time>
      </trkpt>
      <trkpt lat="44.73673" lon="1.43651">
        <ele>255</ele>
        <time>2019-02-03T09:41:28.000Z</time>
      </trkpt>
      <trkpt lat="44.7367" lon="1.43638">
        <ele>257</ele>
        <time>2019-02-03T09:42:28.000Z</time>
      </trkpt>
      <trkpt lat="44.73661" lon="1.43614">
        <ele>259</ele>
        <time>2019-02-03T09:43:28.000Z</time>
      </trkpt>
      <trkpt lat="44.73655" lon="1.436">
        <ele>260</ele>
        <time>2019-02-03T09:44:28.000Z</time>
      </trkpt>
      <trkpt lat="44.73649" lon="1.4359">
        <ele>261</ele>
        <time>2019-02-03T09:45:28.000Z</time>
      </trkpt>
      <trkpt lat="44.7364" lon="1.43579">
        <ele>262</ele>
        <time>2019-02-03T09:46:28.000Z</time>
      </trkpt>
      <trkpt lat="44.73633" lon="1.4357">
        <ele>264</ele>
        <time>2019-02-03T09:47:28.000Z</time>
      </trkpt>
      <trkpt lat="44.73625" lon="1.43562">
        <ele>265</ele>
        <time>2019-02-03T09:48:28.000Z</time>
      </trkpt>
      <trkpt lat="44.73615" lon="1.43558">
        <ele>265</ele>
        <time>2019-02-03T09:49:28.000Z</time>
      </trkpt>
      <trkpt lat="44.73605" lon="1.43552">
        <ele>266</ele>
        <time>2019-02-03T09:50:28.000Z</time>
      </trkpt>
      <trkpt lat="44.73585" lon="1.43544">
        <ele>267</ele>
        <time>2019-02-03T09:51:28.000Z</time>
      </trkpt>
      <trkpt lat="44.73576" lon="1.43542">
        <ele>267</ele>
        <time>2019-02-03T09:52:28.000Z</time>
      </trkpt>
      <trkpt lat="44.73566" lon="1.4354">
        <ele>268</ele>
        <time>2019-02-03T09:53:28.000Z</time>
      </trkpt>
      <trkpt lat="44.73556" lon="1.43537">
        <ele>269</ele>
        <time>2019-02-03T09:54:28.000Z</time>
      </trkpt>
      <trkpt lat="44.73547" lon="1.43534">
        <ele>270</ele>
        <time>2019-02-03T09:55:28.000Z</time>
      </trkpt>
      <trkpt lat="44.73537" lon="1.43529">
        <ele>271</ele>
        <time>2019-02-03T09:56:28.000Z</time>
      </trkpt>
      <trkpt lat="44.73518" lon="1.43523">
        <ele>272</ele>
        <time>2019-02-03T09:57:28.000Z</time>
      </trkpt>
      <trkpt lat="44.7351" lon="1.43516">
        <ele>273</ele>
        <time>2019-02-03T09:58:28.000Z</time>
      </trkpt>
      <trkpt lat="44.73501" lon="1.43512">
        <ele>274</ele>
        <time>2019-02-03T09:59:28.000Z</time>
      </trkpt>
      <trkpt lat="44.73492" lon="1.43507">
        <ele>274</ele>
        <time>2019-02-03T10:00:28.000Z</time>
      </trkpt>
      <trkpt lat="44.73483" lon="1.43503">
        <ele>275</ele>
        <time>2019-02-03T10:01:28.000Z</time>
      </trkpt>
      <trkpt lat="44.73473" lon="1.43498">
        <ele>275</ele>
        <time>2019-02-03T10:02:28.000Z</time>
      </trkpt>
      <trkpt lat="44.73455" lon="1.43485">
        <ele>276</ele>
        <time>2019-02-03T10:03:28.000Z</time>
      </trkpt>
      <trkpt lat="44.73446" lon="1.43478">
        <ele>276</ele>
        <time>2019-02-03T10:04:28.000Z</time>
      </trkpt>
      <trkpt lat="44.73437" lon="1.43472">
        <ele>275</ele>
        <time>2019-02-03T10:05:28.000Z</time>
      </trkpt>
      <trkpt lat="44.73428" lon="1.43471">
        <ele>275</ele>
        <time>2019-02-03T10:06:28.000Z</time>
      </trkpt>
      <trkpt lat="44.73356" lon="1.4343">
        <ele>269</ele>
        <time>2019-02-03T10:07:28.000Z</time>
      </trkpt>
      <trkpt lat="44.73239" lon="1.4339">
        <ele>256</ele>
        <time>2019-02-03T10:08:28.000Z</time>
      </trkpt>
      <trkpt lat="44.73147" lon="1.43378">
        <ele>250</ele>
        <time>2019-02-03T10:09:28.000Z</time>
      </trkpt>
      <trkpt lat="44.73085" lon="1.43349">
        <ele>250</ele>
        <time>2019-02-03T10:10:28.000Z</time>
      </trkpt>
      <trkpt lat="44.73047" lon="1.43328">
        <ele>253</ele>
        <time>2019-02-03T10:11:28.000Z</time>
      </trkpt>
      <trkpt lat="44.73013" lon="1.43306">
        <ele>257</ele>
        <time>2019-02-03T10:12:28.000Z</time>
      </trkpt>
      <trkpt lat="44.73003" lon="1.43284">
        <ele>259</ele>
        <time>2019-02-03T10:13:28.000Z</time>
      </trkpt>
      <trkpt lat="44.72962" lon="1.4325">
        <ele>266</ele>
        <time>2019-02-03T10:14:28.000Z</time>
      </trkpt>
      <trkpt lat="44.72978" lon="1.43228">
        <ele>265</ele>
        <time>2019-02-03T10:15:28.000Z</time>
      </trkpt>
      <trkpt lat="44.72969" lon="1.43204">
        <ele>267</ele>
        <time>2019-02-03T10:16:28.000Z</time>
      </trkpt>
      <trkpt lat="44.72958" lon="1.43171">
        <ele>270</ele>
        <time>2019-02-03T10:17:28.000Z</time>
      </trkpt>
      <trkpt lat="44.72921" lon="1.43128">
        <ele>278</ele>
        <time>2019-02-03T10:18:28.000Z</time>
      </trkpt>
      <trkpt lat="44.72924" lon="1.43093">
        <ele>278</ele>
        <time>2019-02-03T10:19:28.000Z</time>
      </trkpt>
      <trkpt lat="44.72918" lon="1.43064">
        <ele>280</ele>
        <time>2019-02-03T10:20:28.000Z</time>
      </trkpt>
      <trkpt lat="44.72903" lon="1.43034">
        <ele>281</ele>
        <time>2019-02-03T10:21:28.000Z</time>
      </trkpt>
      <trkpt lat="44.72887" lon="1.42998">
        <ele>282</ele>
        <time>2019-02-03T10:22:28.000Z</time>
      </trkpt>
      <trkpt lat="44.72877" lon="1.42977">
        <ele>283</ele>
        <time>2019-02-03T10:23:28.000Z</time>
      </trkpt>
      <trkpt lat="44.72863" lon="1.42956">
        <ele>285</ele>
        <time>2019-02-03T10:24:28.000Z</time>
      </trkpt>
      <trkpt lat="44.72841" lon="1.42946">
        <ele>287</ele>
        <time>2019-02-03T10:25:28.000Z</time>
      </trkpt>
      <trkpt lat="44.72814" lon="1.42918">
        <ele>289</ele>
        <time>2019-02-03T10:26:28.000Z</time>
      </trkpt>
      <trkpt lat="44.72782" lon="1.42882">
        <ele>290</ele>
        <time>2019-02-03T10:27:28.000Z</time>
      </trkpt>
      <trkpt lat="44.72763" lon="1.42859">
        <ele>291</ele>
        <time>2019-02-03T10:28:28.000Z</time>
      </trkpt>
      <trkpt lat="44.72734" lon="1.4282">
        <ele>291</ele>
        <time>2019-02-03T10:29:28.000Z</time>
      </trkpt>
      <trkpt lat="44.72702" lon="1.42793">
        <ele>292</ele>
        <time>2019-02-03T10:30:28.000Z</time>
      </trkpt>
      <trkpt lat="44.72665" lon="1.42714">
        <ele>293</ele>
        <time>2019-02-03T10:31:28.000Z</time>
      </trkpt>
      <trkpt lat="44.72641" lon="1.42668">
        <ele>293</ele>
        <time>2019-02-03T10:32:28.000Z</time>
      </trkpt>
      <trkpt lat="44.72619" lon="1.42596">
        <ele>291</ele>
        <time>2019-02-03T10:33:28.000Z</time>
      </trkpt>
      <trkpt lat="44.72593" lon="1.42537">
        <ele>294</ele>
        <time>2019-02-03T10:34:28.000Z</time>
      </trkpt>
      <trkpt lat="44.72581" lon="1.42481">
        <ele>297</ele>
        <time>2019-02-03T10:35:28.000Z</time>
      </trkpt>
      <trkpt lat="44.72573" lon="1.42417">
        <ele>302</ele>
        <time>2019-02-03T10:36:28.000Z</time>
      </trkpt>
      <trkpt lat="44.72525" lon="1.42336">
        <ele>298</ele>
        <time>2019-02-03T10:37:28.000Z</time>
      </trkpt>
      <trkpt lat="44.72518" lon="1.42289">
        <ele>298</ele>
        <time>2019-02-03T10:38:28.000Z</time>
      </trkpt>
      <trkpt lat="44.72535" lon="1.42216">
        <ele>301</ele>
        <time>2019-02-03T10:39:28.000Z</time>
      </trkpt>
      <trkpt lat="44.72539" lon="1.42104">
        <ele>300</ele>
        <time>2019-02-03T10:40:28.000Z</time>
      </trkpt>
      <trkpt lat="44.72488" lon="1.41937">
        <ele>288</ele>
        <time>2019-02-03T10:41:28.000Z</time>
      </trkpt>
      <trkpt lat="44.72488" lon="1.41763">
        <ele>284</ele>
        <time>2019-02-03T10:42:28.000Z</time>
      </trkpt>
      <trkpt lat="44.72494" lon="1.41676">
        <ele>286</ele>
        <time>2019-02-03T10:43:28.000Z</time>
      </trkpt>
      <trkpt lat="44.7241" lon="1.41641">
        <ele>281</ele>
        <time>2019-02-03T10:44:28.000Z</time>
      </trkpt>
      <trkpt lat="44.72345" lon="1.41583">
        <ele>284</ele>
        <time>2019-02-03T10:45:28.000Z</time>
      </trkpt>
      <trkpt lat="44.72294" lon="1.4156">
        <ele>286</ele>
        <time>2019-02-03T10:46:28.000Z</time>
      </trkpt>
      <trkpt lat="44.72261" lon="1.4154">
        <ele>287</ele>
        <time>2019-02-03T10:47:28.000Z</time>
      </trkpt>
      <trkpt lat="44.72187" lon="1.41521">
        <ele>284</ele>
        <time>2019-02-03T10:48:28.000Z</time>
      </trkpt>
      <trkpt lat="44.72099" lon="1.41499">
        <ele>279</ele>
        <time>2019-02-03T10:49:28.000Z</time>
      </trkpt>
      <trkpt lat="44.72047" lon="1.41471">
        <ele>275</ele>
        <time>2019-02-03T10:50:28.000Z</time>
      </trkpt>
      <trkpt lat="44.71995" lon="1.41416">
        <ele>270</ele>
        <time>2019-02-03T10:51:28.000Z</time>
      </trkpt>
      <trkpt lat="44.71938" lon="1.41393">
        <ele>265</ele>
        <time>2019-02-03T10:52:28.000Z</time>
      </trkpt>
      <trkpt lat="44.71878" lon="1.41414">
        <ele>256</ele>
        <time>2019-02-03T10:53:28.000Z</time>
      </trkpt>
      <trkpt lat="44.71772" lon="1.41364">
        <ele>241</ele>
        <time>2019-02-03T10:54:28.000Z</time>
      </trkpt>
      <trkpt lat="44.71702" lon="1.41297">
        <ele>233</ele>
        <time>2019-02-03T10:55:28.000Z</time>
      </trkpt>
      <trkpt lat="44.71658" lon="1.41227">
        <ele>230</ele>
        <time>2019-02-03T10:56:28.000Z</time>
      </trkpt>
      <trkpt lat="44.71626" lon="1.41196">
        <ele>233</ele>
        <time>2019-02-03T10:57:28.000Z</time>
      </trkpt>
      <trkpt lat="44.71627" lon="1.41155">
        <ele>233</ele>
        <time>2019-02-03T10:58:28.000Z</time>
      </trkpt>
      <trkpt lat="44.71605" lon="1.41159">
        <ele>236</ele>
        <time>2019-02-03T10:59:28.000Z</time>
      </trkpt>
      <trkpt lat="44.71592" lon="1.41171">
        <ele>238</ele>
        <time>2019-02-03T11:00:28.000Z</time>
      </trkpt>
      <trkpt lat="44.716" lon="1.4116">
        <ele>237</ele>
        <time>2019-02-03T11:01:28.000Z</time>
      </trkpt>
      <trkpt lat="44.71609" lon="1.41155">
        <ele>236</ele>
        <time>2019-02-03T11:02:28.000Z</time>
      </trkpt>
      <trkpt lat="44.71617" lon="1.41167">
        <ele>234</ele>
        <time>2019-02-03T11:03:28.000Z</time>
      </trkpt>
      <trkpt lat="44.71624" lon="1.41182">
        <ele>233</ele>
        <time>2019-02-03T11:04:28.000Z</time>
      </trkpt>
      <trkpt lat="44.71632" lon="1.41175">
        <ele>232</ele>
        <time>2019-02-03T11:05:28.000Z</time>
      </trkpt>
      <trkpt lat="44.71636" lon="1.41143">
        <ele>231</ele>
        <time>2019-02-03T11:06:28.000Z</time>
      </trkpt>
      <trkpt lat="44.71632" lon="1.41082">
        <ele>231</ele>
        <time>2019-02-03T11:07:28.000Z</time>
      </trkpt>
      <trkpt lat="44.71631" lon="1.41029">
        <ele>232</ele>
        <time>2019-02-03T11:08:28.000Z</time>
      </trkpt>
      <trkpt lat="44.71632" lon="1.40993">
        <ele>231</ele>
        <time>2019-02-03T11:09:28.000Z</time>
      </trkpt>
      <trkpt lat="44.71633" lon="1.40955">
        <ele>231</ele>
        <time>2019-02-03T11:10:28.000Z</time>
      </trkpt>
      <trkpt lat="44.7163" lon="1.40939">
        <ele>231</ele>
        <time>2019-02-03T11:11:28.000Z</time>
      </trkpt>
      <trkpt lat="44.7163" lon="1.40924">
        <ele>231</ele>
        <time>2019-02-03T11:12:28.000Z</time>
      </trkpt>
      <trkpt lat="44.71631" lon="1.40906">
        <ele>230</ele>
        <time>2019-02-03T11:13:28.000Z</time>
      </trkpt>
      <trkpt lat="44.71627" lon="1.40878">
        <ele>228</ele>
        <time>2019-02-03T11:14:28.000Z</time>
      </trkpt>
      <trkpt lat="44.71608" lon="1.4085">
        <ele>229</ele>
        <time>2019-02-03T11:15:28.000Z</time>
      </trkpt>
      <trkpt lat="44.71591" lon="1.40811">
        <ele>231</ele>
        <time>2019-02-03T11:16:28.000Z</time>
      </trkpt>
      <trkpt lat="44.716" lon="1.40777">
        <ele>231</ele>
        <time>2019-02-03T11:17:28.000Z</time>
      </trkpt>
      <trkpt lat="44.71607" lon="1.40762">
        <ele>231</ele>
        <time>2019-02-03T11:18:28.000Z</time>
      </trkpt>
      <trkpt lat="44.71616" lon="1.40751">
        <ele>231</ele>
        <time>2019-02-03T11:19:28.000Z</time>
      </trkpt>
      <trkpt lat="44.71625" lon="1.40746">
        <ele>231</ele>
        <time>2019-02-03T11:20:28.000Z</time>
      </trkpt>
      <trkpt lat="44.71634" lon="1.40746">
        <ele>230</ele>
        <time>2019-02-03T11:21:28.000Z</time>
      </trkpt>
      <trkpt lat="44.71644" lon="1.40745">
        <ele>230</ele>
        <time>2019-02-03T11:22:28.000Z</time>
      </trkpt>
      <trkpt lat="44.71653" lon="1.40743">
        <ele>229</ele>
        <time>2019-02-03T11:23:28.000Z</time>
      </trkpt>
      <trkpt lat="44.71661" lon="1.40735">
        <ele>230</ele>
        <time>2019-02-03T11:24:28.000Z</time>
      </trkpt>
      <trkpt lat="44.71664" lon="1.40721">
        <ele>231</ele>
        <time>2019-02-03T11:25:28.000Z</time>
      </trkpt>
      <trkpt lat="44.71657" lon="1.4071">
        <ele>232</ele>
        <time>2019-02-03T11:26:28.000Z</time>
      </trkpt>
      <trkpt lat="44.71654" lon="1.40696">
        <ele>234</ele>
        <time>2019-02-03T11:27:28.000Z</time>
      </trkpt>
      <trkpt lat="44.71651" lon="1.40683">
        <ele>235</ele>
        <time>2019-02-03T11:28:28.000Z</time>
      </trkpt>
      <trkpt lat="44.7165" lon="1.40668">
        <ele>237</ele>
        <time>2019-02-03T11:29:28.000Z</time>
      </trkpt>
      <trkpt lat="44.7165" lon="1.40655">
        <ele>238</ele>
        <time>2019-02-03T11:30:28.000Z</time>
      </trkpt>
      <trkpt lat="44.71654" lon="1.40642">
        <ele>238</ele>
        <time>2019-02-03T11:31:28.000Z</time>
      </trkpt>
      <trkpt lat="44.71662" lon="1.40636">
        <ele>238</ele>
        <time>2019-02-03T11:32:28.000Z</time>
      </trkpt>
      <trkpt lat="44.71671" lon="1.40635">
        <ele>238</ele>
        <time>2019-02-03T11:33:28.000Z</time>
      </trkpt>
      <trkpt lat="44.71682" lon="1.40626">
        <ele>237</ele>
        <time>2019-02-03T11:34:28.000Z</time>
      </trkpt>
      <trkpt lat="44.71696" lon="1.40607">
        <ele>238</ele>
        <time>2019-02-03T11:35:28.000Z</time>
      </trkpt>
      <trkpt lat="44.71705" lon="1.40582">
        <ele>240</ele>
        <time>2019-02-03T11:36:28.000Z</time>
      </trkpt>
      <trkpt lat="44.71715" lon="1.40538">
        <ele>238</ele>
        <time>2019-02-03T11:37:28.000Z</time>
      </trkpt>
      <trkpt lat="44.71727" lon="1.40478">
        <ele>236</ele>
        <time>2019-02-03T11:38:28.000Z</time>
      </trkpt>
      <trkpt lat="44.71736" lon="1.4041">
        <ele>234</ele>
        <time>2019-02-03T11:39:28.000Z</time>
      </trkpt>
      <trkpt lat="44.71773" lon="1.40368">
        <ele>234</ele>
        <time>2019-02-03T11:40:28.000Z</time>
      </trkpt>
      <trkpt lat="44.71797" lon="1.40348">
        <ele>232</ele>
        <time>2019-02-03T11:41:28.000Z</time>
      </trkpt>
      <trkpt lat="44.71821" lon="1.40323">
        <ele>230</ele>
        <time>2019-02-03T11:42:28.000Z</time>
      </trkpt>
      <trkpt lat="44.71845" lon="1.40298">
        <ele>226</ele>
        <time>2019-02-03T11:43:28.000Z</time>
      </trkpt>
      <trkpt lat="44.71864" lon="1.40272">
        <ele>223</ele>
        <time>2019-02-03T11:44:28.000Z</time>
      </trkpt>
      <trkpt lat="44.7188" lon="1.40217">
        <ele>220</ele>
        <time>2019-02-03T11:45:28.000Z</time>
      </trkpt>
      <trkpt lat="44.7189" lon="1.40163">
        <ele>218</ele>
        <time>2019-02-03T11:46:28.000Z</time>
      </trkpt>
      <trkpt lat="44.71918" lon="1.40143">
        <ele>213</ele>
        <time>2019-02-03T11:47:28.000Z</time>
      </trkpt>
      <trkpt lat="44.71954" lon="1.40136">
        <ele>209</ele>
        <time>2019-02-03T11:48:28.000Z</time>
      </trkpt>
      <trkpt lat="44.7196" lon="1.40103">
        <ele>208</ele>
        <time>2019-02-03T11:49:28.000Z</time>
      </trkpt>
      <trkpt lat="44.71955" lon="1.40063">
        <ele>209</ele>
        <time>2019-02-03T11:50:28.000Z</time>
      </trkpt>
      <trkpt lat="44.71949" lon="1.40025">
        <ele>209</ele>
        <time>2019-02-03T11:51:28.000Z</time>
      </trkpt>
      <trkpt lat="44.71947" lon="1.39986">
        <ele>209</ele>
        <time>2019-02-03T11:52:28.000Z</time>
      </trkpt>
      <trkpt lat="44.71951" lon="1.39936">
        <ele>208</ele>
        <time>2019-02-03T11:53:28.000Z</time>
      </trkpt>
      <trkpt lat="44.7195" lon="1.39883">
        <ele>206</ele>
        <time>2019-02-03T11:54:28.000Z</time>
      </trkpt>
      <trkpt lat="44.71971" lon="1.39827">
        <ele>204</ele>
        <time>2019-02-03T11:55:28.000Z</time>
      </trkpt>
      <trkpt lat="44.72006" lon="1.39797">
        <ele>201</ele>
        <time>2019-02-03T11:56:28.000Z</time>
      </trkpt>
      <trkpt lat="44.72052" lon="1.39797">
        <ele>201</ele>
        <time>2019-02-03T11:57:28.000Z</time>
      </trkpt>
      <trkpt lat="44.72077" lon="1.39777">
        <ele>200</ele>
        <time>2019-02-03T11:58:28.000Z</time>
      </trkpt>
      <trkpt lat="44.72103" lon="1.39742">
        <ele>200</ele>
        <time>2019-02-03T11:59:28.000Z</time>
      </trkpt>
      <trkpt lat="44.72123" lon="1.39712">
        <ele>201</ele>
        <time>2019-02-03T12:00:28.000Z</time>
      </trkpt>
      <trkpt lat="44.72142" lon="1.39689">
        <ele>202</ele>
        <time>2019-02-03T12:01:28.000Z</time>
      </trkpt>
      <trkpt lat="44.72161" lon="1.39673">
        <ele>203</ele>
        <time>2019-02-03T12:02:28.000Z</time>
      </trkpt>
      <trkpt lat="44.72175" lon="1.39674">
        <ele>204</ele>
        <time>2019-02-03T12:03:28.000Z</time>
      </trkpt>
      <trkpt lat="44.72189" lon="1.39678">
        <ele>204</ele>
        <time>2019-02-03T12:04:28.000Z</time>
      </trkpt>
      <trkpt lat="44.7221" lon="1.39673">
        <ele>205</ele>
        <time>2019-02-03T12:05:28.000Z</time>
      </trkpt>
      <trkpt lat="44.72228" lon="1.39674">
        <ele>206</ele>
        <time>2019-02-03T12:06:28.000Z</time>
      </trkpt>
      <trkpt lat="44.7225" lon="1.39671">
        <ele>207</ele>
        <time>2019-02-03T12:07:28.000Z</time>
      </trkpt>
      <trkpt lat="44.72299" lon="1.3965">
        <ele>213</ele>
        <time>2019-02-03T12:08:28.000Z</time>
      </trkpt>
      <trkpt lat="44.72315" lon="1.39648">
        <ele>215</ele>
        <time>2019-02-03T12:09:28.000Z</time>
      </trkpt>
      <trkpt lat="44.72328" lon="1.3965">
        <ele>217</ele>
        <time>2019-02-03T12:10:28.000Z</time>
      </trkpt>
      <trkpt lat="44.72341" lon="1.39654">
        <ele>217</ele>
        <time>2019-02-03T12:11:28.000Z</time>
      </trkpt>
      <trkpt lat="44.72351" lon="1.39657">
        <ele>217</ele>
        <time>2019-02-03T12:12:28.000Z</time>
      </trkpt>
      <trkpt lat="44.72361" lon="1.39657">
        <ele>218</ele>
        <time>2019-02-03T12:13:28.000Z</time>
      </trkpt>
      <trkpt lat="44.72379" lon="1.39664">
        <ele>218</ele>
        <time>2019-02-03T12:14:28.000Z</time>
      </trkpt>
      <trkpt lat="44.72389" lon="1.39666">
        <ele>218</ele>
        <time>2019-02-03T12:15:28.000Z</time>
      </trkpt>
      <trkpt lat="44.72408" lon="1.39665">
        <ele>220</ele>
        <time>2019-02-03T12:16:28.000Z</time>
      </trkpt>
      <trkpt lat="44.72417" lon="1.39671">
        <ele>220</ele>
        <time>2019-02-03T12:17:28.000Z</time>
      </trkpt>
      <trkpt lat="44.72426" lon="1.39677">
        <ele>220</ele>
        <time>2019-02-03T12:18:28.000Z</time>
      </trkpt>
      <trkpt lat="44.72454" lon="1.39684">
        <ele>223</ele>
        <time>2019-02-03T12:19:28.000Z</time>
      </trkpt>
      <trkpt lat="44.72464" lon="1.39682">
        <ele>224</ele>
        <time>2019-02-03T12:20:28.000Z</time>
      </trkpt>
      <trkpt lat="44.72473" lon="1.39678">
        <ele>226</ele>
        <time>2019-02-03T12:21:28.000Z</time>
      </trkpt>
      <trkpt lat="44.72481" lon="1.3967">
        <ele>227</ele>
        <time>2019-02-03T12:22:28.000Z</time>
      </trkpt>
      <trkpt lat="44.72483" lon="1.39656">
        <ele>229</ele>
        <time>2019-02-03T12:23:28.000Z</time>
      </trkpt>
      <trkpt lat="44.72483" lon="1.3964">
        <ele>230</ele>
        <time>2019-02-03T12:24:28.000Z</time>
      </trkpt>
      <trkpt lat="44.7248" lon="1.39627">
        <ele>231</ele>
        <time>2019-02-03T12:25:28.000Z</time>
      </trkpt>
      <trkpt lat="44.72474" lon="1.39616">
        <ele>232</ele>
        <time>2019-02-03T12:26:28.000Z</time>
      </trkpt>
      <trkpt lat="44.7246" lon="1.39599">
        <ele>232</ele>
        <time>2019-02-03T12:27:28.000Z</time>
      </trkpt>
      <trkpt lat="44.72451" lon="1.39592">
        <ele>233</ele>
        <time>2019-02-03T12:28:28.000Z</time>
      </trkpt>
      <trkpt lat="44.72444" lon="1.39582">
        <ele>233</ele>
        <time>2019-02-03T12:29:28.000Z</time>
      </trkpt>
      <trkpt lat="44.72437" lon="1.39571">
        <ele>234</ele>
        <time>2019-02-03T12:30:28.000Z</time>
      </trkpt>
      <trkpt lat="44.72432" lon="1.3956">
        <ele>235</ele>
        <time>2019-02-03T12:31:28.000Z</time>
      </trkpt>
      <trkpt lat="44.72429" lon="1.39548">
        <ele>236</ele>
        <time>2019-02-03T12:32:28.000Z</time>
      </trkpt>
      <trkpt lat="44.72428" lon="1.39533">
        <ele>237</ele>
        <time>2019-02-03T12:33:28.000Z</time>
      </trkpt>
      <trkpt lat="44.72426" lon="1.39519">
        <ele>238</ele>
        <time>2019-02-03T12:34:28.000Z</time>
      </trkpt>
      <trkpt lat="44.72422" lon="1.3949">
        <ele>241</ele>
        <time>2019-02-03T12:35:28.000Z</time>
      </trkpt>
      <trkpt lat="44.72419" lon="1.39478">
        <ele>241</ele>
        <time>2019-02-03T12:36:28.000Z</time>
      </trkpt>
      <trkpt lat="44.72416" lon="1.39464">
        <ele>242</ele>
        <time>2019-02-03T12:37:28.000Z</time>
      </trkpt>
      <trkpt lat="44.72413" lon="1.39437">
        <ele>243</ele>
        <time>2019-02-03T12:38:28.000Z</time>
      </trkpt>
      <trkpt lat="44.72414" lon="1.39423">
        <ele>244</ele>
        <time>2019-02-03T12:39:28.000Z</time>
      </trkpt>
      <trkpt lat="44.72416" lon="1.3941">
        <ele>245</ele>
        <time>2019-02-03T12:40:28.000Z</time>
      </trkpt>
      <trkpt lat="44.72421" lon="1.39398">
        <ele>245</ele>
        <time>2019-02-03T12:41:28.000Z</time>
      </trkpt>
      <trkpt lat="44.72427" lon="1.39387">
        <ele>245</ele>
        <time>2019-02-03T12:42:28.000Z</time>
      </trkpt>
      <trkpt lat="44.72432" lon="1.39375">
        <ele>245</ele>
        <time>2019-02-03T12:43:28.000Z</time>
      </trkpt>
      <trkpt lat="44.72438" lon="1.3936">
        <ele>245</ele>
        <time>2019-02-03T12:44:28.000Z</time>
      </trkpt>
      <trkpt lat="44.72443" lon="1.39349">
        <ele>245</ele>
        <time>2019-02-03T12:45:28.000Z</time>
      </trkpt>
      <trkpt lat="44.72448" lon="1.39337">
        <ele>245</ele>
        <time>2019-02-03T12:46:28.000Z</time>
      </trkpt>
      <trkpt lat="44.72454" lon="1.39321">
        <ele>245</ele>
        <time>2019-02-03T12:47:28.000Z</time>
      </trkpt>
      <trkpt lat="44.72462" lon="1.39313">
        <ele>245</ele>
        <time>2019-02-03T12:48:28.000Z</time>
      </trkpt>
      <trkpt lat="44.72476" lon="1.39285">
        <ele>245</ele>
        <time>2019-02-03T12:49:28.000Z</time>
      </trkpt>
      <trkpt lat="44.72493" lon="1.3925">
        <ele>243</ele>
        <time>2019-02-03T12:50:28.000Z</time>
      </trkpt>
      <trkpt lat="44.72515" lon="1.39213">
        <ele>240</ele>
        <time>2019-02-03T12:51:28.000Z</time>
      </trkpt>
      <trkpt lat="44.72529" lon="1.39186">
        <ele>239</ele>
        <time>2019-02-03T12:52:28.000Z</time>
      </trkpt>
      <trkpt lat="44.72542" lon="1.39147">
        <ele>237</ele>
        <time>2019-02-03T12:53:28.000Z</time>
      </trkpt>
      <trkpt lat="44.72555" lon="1.39117">
        <ele>234</ele>
        <time>2019-02-03T12:54:28.000Z</time>
      </trkpt>
      <trkpt lat="44.72573" lon="1.39078">
        <ele>230</ele>
        <time>2019-02-03T12:55:28.000Z</time>
      </trkpt>
      <trkpt lat="44.72579" lon="1.39027">
        <ele>228</ele>
        <time>2019-02-03T12:56:28.000Z</time>
      </trkpt>
      <trkpt lat="44.72585" lon="1.38987">
        <ele>227</ele>
        <time>2019-02-03T12:57:28.000Z</time>
      </trkpt>
      <trkpt lat="44.72596" lon="1.38953">
        <ele>227</ele>
        <time>2019-02-03T12:58:28.000Z</time>
      </trkpt>
      <trkpt lat="44.72609" lon="1.38895">
        <ele>226</ele>
        <time>2019-02-03T12:59:28.000Z</time>
      </trkpt>
      <trkpt lat="44.72621" lon="1.3885">
        <ele>225</ele>
        <time>2019-02-03T13:00:28.000Z</time>
      </trkpt>
      <trkpt lat="44.72628" lon="1.38801">
        <ele>222</ele>
        <time>2019-02-03T13:01:28.000Z</time>
      </trkpt>
      <trkpt lat="44.7266" lon="1.38726">
        <ele>215</ele>
        <time>2019-02-03T13:02:28.000Z</time>
      </trkpt>
      <trkpt lat="44.72692" lon="1.38669">
        <ele>214</ele>
        <time>2019-02-03T13:03:28.000Z</time>
      </trkpt>
      <trkpt lat="44.72723" lon="1.3862">
        <ele>212</ele>
        <time>2019-02-03T13:04:28.000Z</time>
      </trkpt>
      <trkpt lat="44.72759" lon="1.38571">
        <ele>204</ele>
        <time>2019-02-03T13:05:28.000Z</time>
      </trkpt>
      <trkpt lat="44.72771" lon="1.38539">
        <ele>200</ele>
        <time>2019-02-03T13:06:28.000Z</time>
      </trkpt>
      <trkpt lat="44.72764" lon="1.38547">
        <ele>201</ele>
        <time>2019-02-03T13:07:28.000Z</time>
      </trkpt>
      <trkpt lat="44.72761" lon="1.38564">
        <ele>203</ele>
        <time>2019-02-03T13:08:28.000Z</time>
      </trkpt>
      <trkpt lat="44.72767" lon="1.38577">
        <ele>205</ele>
        <time>2019-02-03T13:09:28.000Z</time>
      </trkpt>
      <trkpt lat="44.72781" lon="1.38575">
        <ele>204</ele>
        <time>2019-02-03T13:10:28.000Z</time>
      </trkpt>
      <trkpt lat="44.72793" lon="1.38573">
        <ele>204</ele>
        <time>2019-02-03T13:11:28.000Z</time>
      </trkpt>
      <trkpt lat="44.72811" lon="1.38575">
        <ele>204</ele>
        <time>2019-02-03T13:12:28.000Z</time>
      </trkpt>
      <trkpt lat="44.72837" lon="1.38584">
        <ele>205</ele>
        <time>2019-02-03T13:13:28.000Z</time>
      </trkpt>
      <trkpt lat="44.72861" lon="1.38594">
        <ele>205</ele>
        <time>2019-02-03T13:14:28.000Z</time>
      </trkpt>
      <trkpt lat="44.72887" lon="1.38609">
        <ele>205</ele>
        <time>2019-02-03T13:15:28.000Z</time>
      </trkpt>
      <trkpt lat="44.72909" lon="1.38627">
        <ele>206</ele>
        <time>2019-02-03T13:16:28.000Z</time>
      </trkpt>
      <trkpt lat="44.7293" lon="1.38634">
        <ele>205</ele>
        <time>2019-02-03T13:17:28.000Z</time>
      </trkpt>
      <trkpt lat="44.72958" lon="1.38653">
        <ele>203</ele>
        <time>2019-02-03T13:18:28.000Z</time>
      </trkpt>
      <trkpt lat="44.72993" lon="1.38666">
        <ele>198</ele>
        <time>2019-02-03T13:19:28.000Z</time>
      </trkpt>
      <trkpt lat="44.73035" lon="1.38673">
        <ele>196</ele>
        <time>2019-02-03T13:20:28.000Z</time>
      </trkpt>
      <trkpt lat="44.73072" lon="1.38658">
        <ele>192</ele>
        <time>2019-02-03T13:21:28.000Z</time>
      </trkpt>
      <trkpt lat="44.73102" lon="1.38635">
        <ele>190</ele>
        <time>2019-02-03T13:22:28.000Z</time>
      </trkpt>
      <trkpt lat="44.73127" lon="1.38603">
        <ele>190</ele>
        <time>2019-02-03T13:23:28.000Z</time>
      </trkpt>
      <trkpt lat="44.73175" lon="1.3854">
        <ele>192</ele>
        <time>2019-02-03T13:24:28.000Z</time>
      </trkpt>
      <trkpt lat="44.73194" lon="1.3851">
        <ele>196</ele>
        <time>2019-02-03T13:25:28.000Z</time>
      </trkpt>
      <trkpt lat="44.73198" lon="1.38496">
        <ele>197</ele>
        <time>2019-02-03T13:26:28.000Z</time>
      </trkpt>
      <trkpt lat="44.73195" lon="1.3848">
        <ele>197</ele>
        <time>2019-02-03T13:27:28.000Z</time>
      </trkpt>
      <trkpt lat="44.73188" lon="1.38468">
        <ele>197</ele>
        <time>2019-02-03T13:28:28.000Z</time>
      </trkpt>
      <trkpt lat="44.73182" lon="1.38456">
        <ele>197</ele>
        <time>2019-02-03T13:29:28.000Z</time>
      </trkpt>
      <trkpt lat="44.73176" lon="1.38444">
        <ele>198</ele>
        <time>2019-02-03T13:30:28.000Z</time>
      </trkpt>
      <trkpt lat="44.73173" lon="1.38431">
        <ele>198</ele>
        <time>2019-02-03T13:31:28.000Z</time>
      </trkpt>
      <trkpt lat="44.73173" lon="1.38417">
        <ele>200</ele>
        <time>2019-02-03T13:32:28.000Z</time>
      </trkpt>
      <trkpt lat="44.7318" lon="1.38407">
        <ele>201</ele>
        <time>2019-02-03T13:33:28.000Z</time>
      </trkpt>
      <trkpt lat="44.73189" lon="1.38406">
        <ele>202</ele>
        <time>2019-02-03T13:34:28.000Z</time>
      </trkpt>
      <trkpt lat="44.73198" lon="1.38412">
        <ele>202</ele>
        <time>2019-02-03T13:35:28.000Z</time>
      </trkpt>
      <trkpt lat="44.73206" lon="1.3842">
        <ele>202</ele>
        <time>2019-02-03T13:36:28.000Z</time>
      </trkpt>
      <trkpt lat="44.73215" lon="1.38423">
        <ele>203</ele>
        <time>2019-02-03T13:37:28.000Z</time>
      </trkpt>
      <trkpt lat="44.73225" lon="1.38422">
        <ele>204</ele>
        <time>2019-02-03T13:38:28.000Z</time>
      </trkpt>
      <trkpt lat="44.73234" lon="1.38417">
        <ele>205</ele>
        <time>2019-02-03T13:39:28.000Z</time>
      </trkpt>
      <trkpt lat="44.73241" lon="1.38408">
        <ele>206</ele>
        <time>2019-02-03T13:40:28.000Z</time>
      </trkpt>
      <trkpt lat="44.73256" lon="1.38387">
        <ele>208</ele>
        <time>2019-02-03T13:41:28.000Z</time>
      </trkpt>
      <trkpt lat="44.73262" lon="1.38374">
        <ele>209</ele>
        <time>2019-02-03T13:42:28.000Z</time>
      </trkpt>
      <trkpt lat="44.73266" lon="1.38348">
        <ele>211</ele>
        <time>2019-02-03T13:43:28.000Z</time>
      </trkpt>
      <trkpt lat="44.73274" lon="1.3832">
        <ele>212</ele>
        <time>2019-02-03T13:44:28.000Z</time>
      </trkpt>
      <trkpt lat="44.73277" lon="1.38307">
        <ele>214</ele>
        <time>2019-02-03T13:45:28.000Z</time>
      </trkpt>
      <trkpt lat="44.73281" lon="1.38296">
        <ele>215</ele>
        <time>2019-02-03T13:46:28.000Z</time>
      </trkpt>
      <trkpt lat="44.73288" lon="1.38283">
        <ele>216</ele>
        <time>2019-02-03T13:47:28.000Z</time>
      </trkpt>
      <trkpt lat="44.73307" lon="1.38262">
        <ele>217</ele>
        <time>2019-02-03T13:48:28.000Z</time>
      </trkpt>
      <trkpt lat="44.7331" lon="1.38246">
        <ele>218</ele>
        <time>2019-02-03T13:49:28.000Z</time>
      </trkpt>
      <trkpt lat="44.7331" lon="1.38233">
        <ele>219</ele>
        <time>2019-02-03T13:50:28.000Z</time>
      </trkpt>
      <trkpt lat="44.73312" lon="1.38217">
        <ele>220</ele>
        <time>2019-02-03T13:51:28.000Z</time>
      </trkpt>
      <trkpt lat="44.73312" lon="1.38201">
        <ele>222</ele>
        <time>2019-02-03T13:52:28.000Z</time>
      </trkpt>
      <trkpt lat="44.73314" lon="1.38186">
        <ele>223</ele>
        <time>2019-02-03T13:53:28.000Z</time>
      </trkpt>
      <trkpt lat="44.73316" lon="1.38173">
        <ele>224</ele>
        <time>2019-02-03T13:54:28.000Z</time>
      </trkpt>
      <trkpt lat="44.7332" lon="1.38161">
        <ele>224</ele>
        <time>2019-02-03T13:55:28.000Z</time>
      </trkpt>
      <trkpt lat="44.73328" lon="1.38152">
        <ele>224</ele>
        <time>2019-02-03T13:56:28.000Z</time>
      </trkpt>
      <trkpt lat="44.73335" lon="1.38141">
        <ele>225</ele>
        <time>2019-02-03T13:57:28.000Z</time>
      </trkpt>
      <trkpt lat="44.73339" lon="1.3813">
        <ele>226</ele>
        <time>2019-02-03T13:58:28.000Z</time>
      </trkpt>
      <trkpt lat="44.73343" lon="1.38119">
        <ele>227</ele>
        <time>2019-02-03T13:59:28.000Z</time>
      </trkpt>
      <trkpt lat="44.73351" lon="1.38108">
        <ele>228</ele>
        <time>2019-02-03T14:00:28.000Z</time>
      </trkpt>
      <trkpt lat="44.73357" lon="1.38097">
        <ele>229</ele>
        <time>2019-02-03T14:01:28.000Z</time>
      </trkpt>
      <trkpt lat="44.73361" lon="1.38086">
        <ele>230</ele>
        <time>2019-02-03T14:02:28.000Z</time>
      </trkpt>
      <trkpt lat="44.73366" lon="1.38076">
        <ele>231</ele>
        <time>2019-02-03T14:03:28.000Z</time>
      </trkpt>
      <trkpt lat="44.73372" lon="1.38066">
        <ele>231</ele>
        <time>2019-02-03T14:04:28.000Z</time>
      </trkpt>
      <trkpt lat="44.7339" lon="1.38034">
        <ele>234</ele>
        <time>2019-02-03T14:05:28.000Z</time>
      </trkpt>
      <trkpt lat="44.73397" lon="1.38024">
        <ele>234</ele>
        <time>2019-02-03T14:06:28.000Z</time>
      </trkpt>
      <trkpt lat="44.73406" lon="1.38024">
        <ele>235</ele>
        <time>2019-02-03T14:07:28.000Z</time>
      </trkpt>
      <trkpt lat="44.73417" lon="1.3803">
        <ele>235</ele>
        <time>2019-02-03T14:08:28.000Z</time>
      </trkpt>
      <trkpt lat="44.73425" lon="1.3802">
        <ele>235</ele>
        <time>2019-02-03T14:09:28.000Z</time>
      </trkpt>
      <trkpt lat="44.73433" lon="1.38012">
        <ele>236</ele>
        <time>2019-02-03T14:10:28.000Z</time>
      </trkpt>
      <trkpt lat="44.73449" lon="1.37994">
        <ele>238</ele>
        <time>2019-02-03T14:11:28.000Z</time>
      </trkpt>
      <trkpt lat="44.73458" lon="1.37987">
        <ele>238</ele>
        <time>2019-02-03T14:12:28.000Z</time>
      </trkpt>
      <trkpt lat="44.73467" lon="1.37984">
        <ele>239</ele>
        <time>2019-02-03T14:13:28.000Z</time>
      </trkpt>
      <trkpt lat="44.73476" lon="1.37978">
        <ele>239</ele>
        <time>2019-02-03T14:14:28.000Z</time>
      </trkpt>
      <trkpt lat="44.73485" lon="1.37971">
        <ele>240</ele>
        <time>2019-02-03T14:15:28.000Z</time>
      </trkpt>
      <trkpt lat="44.73495" lon="1.3796">
        <ele>241</ele>
        <time>2019-02-03T14:16:28.000Z</time>
      </trkpt>
      <trkpt lat="44.73514" lon="1.37934">
        <ele>242</ele>
        <time>2019-02-03T14:17:28.000Z</time>
      </trkpt>
      <trkpt lat="44.73519" lon="1.37947">
        <ele>242</ele>
        <time>2019-02-03T14:18:28.000Z</time>
      </trkpt>
      <trkpt lat="44.73524" lon="1.37935">
        <ele>242</ele>
        <time>2019-02-03T14:19:28.000Z</time>
      </trkpt>
      <trkpt lat="44.73564" lon="1.37996">
        <ele>244</ele>
        <time>2019-02-03T14:20:28.000Z</time>
      </trkpt>
      <trkpt lat="44.73561" lon="1.38094">
        <ele>247</ele>
        <time>2019-02-03T14:21:28.000Z</time>
      </trkpt>
      <trkpt lat="44.7356" lon="1.38113">
        <ele>246</ele>
        <time>2019-02-03T14:22:28.000Z</time>
      </trkpt>
      <trkpt lat="44.73572" lon="1.38096">
        <ele>249</ele>
        <time>2019-02-03T14:23:28.000Z</time>
      </trkpt>
      <trkpt lat="44.73565" lon="1.38079">
        <ele>248</ele>
        <time>2019-02-03T14:24:28.000Z</time>
      </trkpt>
      <trkpt lat="44.73558" lon="1.38091">
        <ele>247</ele>
        <time>2019-02-03T14:25:28.000Z</time>
      </trkpt>
      <trkpt lat="44.73567" lon="1.38088">
        <ele>248</ele>
        <time>2019-02-03T14:26:28.000Z</time>
      </trkpt>
      <trkpt lat="44.7358" lon="1.38092">
        <ele>250</ele>
        <time>2019-02-03T14:27:28.000Z</time>
      </trkpt>
      <trkpt lat="44.7359" lon="1.3808">
        <ele>251</ele>
        <time>2019-02-03T14:28:28.000Z</time>
      </trkpt>
      <trkpt lat="44.73582" lon="1.38087">
        <ele>251</ele>
        <time>2019-02-03T14:29:28.000Z</time>
      </trkpt>
      <trkpt lat="44.73574" lon="1.38076">
        <ele>249</ele>
        <time>2019-02-03T14:30:28.000Z</time>
      </trkpt>
      <trkpt lat="44.73595" lon="1.38063">
        <ele>250</ele>
        <time>2019-02-03T14:31:28.000Z</time>
      </trkpt>
      <trkpt lat="44.73647" lon="1.38041">
        <ele>250</ele>
        <time>2019-02-03T14:32:28.000Z</time>
      </trkpt>
      <trkpt lat="44.73691" lon="1.38">
        <ele>245</ele>
        <time>2019-02-03T14:33:28.000Z</time>
      </trkpt>
      <trkpt lat="44.73782" lon="1.3796">
        <ele>237</ele>
        <time>2019-02-03T14:34:28.000Z</time>
      </trkpt>
      <trkpt lat="44.73904" lon="1.37933">
        <ele>228</ele>
        <time>2019-02-03T14:35:28.000Z</time>
      </trkpt>
      <trkpt lat="44.73974" lon="1.37971">
        <ele>223</ele>
        <time>2019-02-03T14:36:28.000Z</time>
      </trkpt>
      <trkpt lat="44.74062" lon="1.38">
        <ele>217</ele>
        <time>2019-02-03T14:37:28.000Z</time>
      </trkpt>
      <trkpt lat="44.74166" lon="1.3796">
        <ele>209</ele>
        <time>2019-02-03T14:38:28.000Z</time>
      </trkpt>
      <trkpt lat="44.74202" lon="1.37957">
        <ele>207</ele>
        <time>2019-02-03T14:39:28.000Z</time>
      </trkpt>
      <trkpt lat="44.74197" lon="1.37944">
        <ele>209</ele>
        <time>2019-02-03T14:40:28.000Z</time>
      </trkpt>
      <trkpt lat="44.74206" lon="1.37933">
        <ele>210</ele>
        <time>2019-02-03T14:41:28.000Z</time>
      </trkpt>
      <trkpt lat="44.74233" lon="1.3792">
        <ele>210</ele>
        <time>2019-02-03T14:42:28.000Z</time>
      </trkpt>
      <trkpt lat="44.74253" lon="1.37908">
        <ele>210</ele>
        <time>2019-02-03T14:43:28.000Z</time>
      </trkpt>
      <trkpt lat="44.74272" lon="1.37897">
        <ele>209</ele>
        <time>2019-02-03T14:44:28.000Z</time>
      </trkpt>
      <trkpt lat="44.74299" lon="1.37888">
        <ele>209</ele>
        <time>2019-02-03T14:45:28.000Z</time>
      </trkpt>
      <trkpt lat="44.74334" lon="1.37889">
        <ele>207</ele>
        <time>2019-02-03T14:46:28.000Z</time>
      </trkpt>
      <trkpt lat="44.74367" lon="1.37881">
        <ele>206</ele>
        <time>2019-02-03T14:47:28.000Z</time>
      </trkpt>
      <trkpt lat="44.74404" lon="1.37853">
        <ele>207</ele>
        <time>2019-02-03T14:48:28.000Z</time>
      </trkpt>
      <trkpt lat="44.74435" lon="1.37816">
        <ele>207</ele>
        <time>2019-02-03T14:49:28.000Z</time>
      </trkpt>
      <trkpt lat="44.74466" lon="1.37791">
        <ele>205</ele>
        <time>2019-02-03T14:50:28.000Z</time>
      </trkpt>
      <trkpt lat="44.74493" lon="1.37767">
        <ele>205</ele>
        <time>2019-02-03T14:51:28.000Z</time>
      </trkpt>
      <trkpt lat="44.74519" lon="1.37755">
        <ele>205</ele>
        <time>2019-02-03T14:52:28.000Z</time>
      </trkpt>
      <trkpt lat="44.74541" lon="1.37743">
        <ele>205</ele>
        <time>2019-02-03T14:53:28.000Z</time>
      </trkpt>
      <trkpt lat="44.74569" lon="1.37727">
        <ele>204</ele>
        <time>2019-02-03T14:54:28.000Z</time>
      </trkpt>
      <trkpt lat="44.74601" lon="1.37709">
        <ele>203</ele>
        <time>2019-02-03T14:55:28.000Z</time>
      </trkpt>
      <trkpt lat="44.74627" lon="1.37695">
        <ele>202</ele>
        <time>2019-02-03T14:56:28.000Z</time>
      </trkpt>
      <trkpt lat="44.74659" lon="1.3768">
        <ele>201</ele>
        <time>2019-02-03T14:57:28.000Z</time>
      </trkpt>
      <trkpt lat="44.74687" lon="1.37663">
        <ele>200</ele>
        <time>2019-02-03T14:58:28.000Z</time>
      </trkpt>
      <trkpt lat="44.74718" lon="1.37646">
        <ele>198</ele>
        <time>2019-02-03T14:59:28.000Z</time>
      </trkpt>
      <trkpt lat="44.74744" lon="1.37629">
        <ele>197</ele>
        <time>2019-02-03T15:00:28.000Z</time>
      </trkpt>
      <trkpt lat="44.74788" lon="1.37621">
        <ele>194</ele>
        <time>2019-02-03T15:01:28.000Z</time>
      </trkpt>
      <trkpt lat="44.74822" lon="1.37612">
        <ele>192</ele>
        <time>2019-02-03T15:02:28.000Z</time>
      </trkpt>
      <trkpt lat="44.74855" lon="1.37589">
        <ele>189</ele>
        <time>2019-02-03T15:03:28.000Z</time>
      </trkpt>
      <trkpt lat="44.74899" lon="1.37557">
        <ele>187</ele>
        <time>2019-02-03T15:04:28.000Z</time>
      </trkpt>
      <trkpt lat="44.74916" lon="1.3754">
        <ele>187</ele>
        <time>2019-02-03T15:05:28.000Z</time>
      </trkpt>
      <trkpt lat="44.74924" lon="1.37538">
        <ele>186</ele>
        <time>2019-02-03T15:06:28.000Z</time>
      </trkpt>
      <trkpt lat="44.74933" lon="1.3753">
        <ele>186</ele>
        <time>2019-02-03T15:07:28.000Z</time>
      </trkpt>
      <trkpt lat="44.74931" lon="1.37535">
        <ele>186</ele>
        <time>2019-02-03T15:08:28.000Z</time>
      </trkpt>
      <trkpt lat="44.74938" lon="1.37533">
        <ele>186</ele>
        <time>2019-02-01T20:33:00.000Z</time>
      </trkpt>
      <trkpt lat="44.74952" lon="1.37501">
        <ele>186</ele>
        <time>2019-02-01T20:34:00.000Z</time>
      </trkpt>
      <trkpt lat="44.74985" lon="1.37433">
        <ele>182</ele>
        <time>2019-02-01T20:35:00.000Z</time>
      </trkpt>
      <trkpt lat="44.75024" lon="1.37424">
        <ele>178</ele>
        <time>2019-02-01T20:36:00.000Z</time>
      </trkpt>
      <trkpt lat="44.75049" lon="1.37398">
        <ele>172</ele>
        <time>2019-02-01T20:37:00.000Z</time>
      </trkpt>
      <trkpt lat="44.75037" lon="1.37417">
        <ele>175</ele>
        <time>2019-02-01T20:38:00.000Z</time>
      </trkpt>
    </trkseg>
  </trk>
  <trk>
    <name><![CDATA[Jour 2]]></name>
    <trkseg>
      <trkpt lat="44.75037" lon="1.37417">
        <ele>175</ele>
        <time>2019-02-01T20:38:00.000Z</time>
      </trkpt>
      <trkpt lat="44.75037" lon="1.37417">
        <ele>175</ele>
        <time>2019-02-01T20:38:00.000Z</time>
      </trkpt>
      <trkpt lat="44.75054" lon="1.37337">
        <ele>168</ele>
        <time>2019-02-01T20:39:00.000Z</time>
      </trkpt>
      <trkpt lat="44.75041" lon="1.3731">
        <ele>167</ele>
        <time>2019-02-01T20:40:00.000Z</time>
      </trkpt>
      <trkpt lat="44.75074" lon="1.37256">
        <ele>161</ele>
        <time>2019-02-01T20:41:00.000Z</time>
      </trkpt>
      <trkpt lat="44.75086" lon="1.37264">
        <ele>161</ele>
        <time>2019-02-01T20:42:00.000Z</time>
      </trkpt>
      <trkpt lat="44.75077" lon="1.37326">
        <ele>166</ele>
        <time>2019-02-01T20:43:00.000Z</time>
      </trkpt>
      <trkpt lat="44.75093" lon="1.37338">
        <ele>166</ele>
        <time>2019-02-01T20:44:00.000Z</time>
      </trkpt>
      <trkpt lat="44.75091" lon="1.37308">
        <ele>164</ele>
        <time>2019-02-01T20:45:00.000Z</time>
      </trkpt>
      <trkpt lat="44.75093" lon="1.3728">
        <ele>162</ele>
        <time>2019-02-01T20:46:00.000Z</time>
      </trkpt>
      <trkpt lat="44.75114" lon="1.37285">
        <ele>162</ele>
        <time>2019-02-01T20:47:00.000Z</time>
      </trkpt>
      <trkpt lat="44.75163" lon="1.37283">
        <ele>160</ele>
        <time>2019-02-01T20:48:00.000Z</time>
      </trkpt>
      <trkpt lat="44.75219" lon="1.37284">
        <ele>166</ele>
        <time>2019-02-01T20:49:00.000Z</time>
      </trkpt>
      <trkpt lat="44.75238" lon="1.37277">
        <ele>167</ele>
        <time>2019-02-01T20:50:00.000Z</time>
      </trkpt>
      <trkpt lat="44.75229" lon="1.37269">
        <ele>165</ele>
        <time>2019-02-01T20:51:00.000Z</time>
      </trkpt>
      <trkpt lat="44.75223" lon="1.37156">
        <ele>161</ele>
        <time>2019-02-01T20:52:00.000Z</time>
      </trkpt>
      <trkpt lat="44.75226" lon="1.37092">
        <ele>158</ele>
        <time>2019-02-01T20:53:00.000Z</time>
      </trkpt>
      <trkpt lat="44.75256" lon="1.37019">
        <ele>157</ele>
        <time>2019-02-01T20:54:00.000Z</time>
      </trkpt>
      <trkpt lat="44.75285" lon="1.36941">
        <ele>156</ele>
        <time>2019-02-01T20:55:00.000Z</time>
      </trkpt>
      <trkpt lat="44.75325" lon="1.36871">
        <ele>153</ele>
        <time>2019-02-01T20:56:00.000Z</time>
      </trkpt>
      <trkpt lat="44.75372" lon="1.36776">
        <ele>154</ele>
        <time>2019-02-01T20:57:00.000Z</time>
      </trkpt>
      <trkpt lat="44.75401" lon="1.36704">
        <ele>153</ele>
        <time>2019-02-01T20:58:00.000Z</time>
      </trkpt>
      <trkpt lat="44.75439" lon="1.36636">
        <ele>154</ele>
        <time>2019-02-01T20:59:00.000Z</time>
      </trkpt>
      <trkpt lat="44.75459" lon="1.36537">
        <ele>154</ele>
        <time>2019-02-01T21:00:00.000Z</time>
      </trkpt>
      <trkpt lat="44.75446" lon="1.36422">
        <ele>149</ele>
        <time>2019-02-01T21:01:00.000Z</time>
      </trkpt>
      <trkpt lat="44.75434" lon="1.36329">
        <ele>147</ele>
        <time>2019-02-01T21:02:00.000Z</time>
      </trkpt>
      <trkpt lat="44.7543" lon="1.36237">
        <ele>145</ele>
        <time>2019-02-01T21:03:00.000Z</time>
      </trkpt>
      <trkpt lat="44.75441" lon="1.36145">
        <ele>145</ele>
        <time>2019-02-01T21:04:00.000Z</time>
      </trkpt>
      <trkpt lat="44.75447" lon="1.36092">
        <ele>144</ele>
        <time>2019-02-01T21:05:00.000Z</time>
      </trkpt>
      <trkpt lat="44.75594" lon="1.3576">
        <ele>136</ele>
        <time>2019-02-01T21:06:00.000Z</time>
      </trkpt>
      <trkpt lat="44.75653" lon="1.35672">
        <ele>134</ele>
        <time>2019-02-01T21:07:00.000Z</time>
      </trkpt>
      <trkpt lat="44.7571" lon="1.35585">
        <ele>133</ele>
        <time>2019-02-01T21:08:00.000Z</time>
      </trkpt>
      <trkpt lat="44.75769" lon="1.35523">
        <ele>132</ele>
        <time>2019-02-01T21:09:00.000Z</time>
      </trkpt>
      <trkpt lat="44.75831" lon="1.35459">
        <ele>130</ele>
        <time>2019-02-01T21:10:00.000Z</time>
      </trkpt>
      <trkpt lat="44.75859" lon="1.35411">
        <ele>128</ele>
        <time>2019-02-01T21:11:00.000Z</time>
      </trkpt>
      <trkpt lat="44.75987" lon="1.3531">
        <ele>129</ele>
        <time>2019-02-01T21:12:00.000Z</time>
      </trkpt>
      <trkpt lat="44.76041" lon="1.35215">
        <ele>129</ele>
        <time>2019-02-01T21:13:00.000Z</time>
      </trkpt>
      <trkpt lat="44.76079" lon="1.35097">
        <ele>124</ele>
        <time>2019-02-01T21:14:00.000Z</time>
      </trkpt>
      <trkpt lat="44.76086" lon="1.35041">
        <ele>122</ele>
        <time>2019-02-01T21:15:00.000Z</time>
      </trkpt>
      <trkpt lat="44.76031" lon="1.34961">
        <ele>119</ele>
        <time>2019-02-01T21:16:00.000Z</time>
      </trkpt>
      <trkpt lat="44.75957" lon="1.34869">
        <ele>121</ele>
        <time>2019-02-01T21:17:00.000Z</time>
      </trkpt>
      <trkpt lat="44.75955" lon="1.3483">
        <ele>122</ele>
        <time>2019-02-01T21:18:00.000Z</time>
      </trkpt>
      <trkpt lat="44.76021" lon="1.3477">
        <ele>121</ele>
        <time>2019-02-01T21:19:00.000Z</time>
      </trkpt>
      <trkpt lat="44.76096" lon="1.34708">
        <ele>124</ele>
        <time>2019-02-01T21:20:00.000Z</time>
      </trkpt>
      <trkpt lat="44.76175" lon="1.34656">
        <ele>124</ele>
        <time>2019-02-01T21:21:00.000Z</time>
      </trkpt>
      <trkpt lat="44.76237" lon="1.34609">
        <ele>123</ele>
        <time>2019-02-01T21:22:00.000Z</time>
      </trkpt>
      <trkpt lat="44.76276" lon="1.34505">
        <ele>125</ele>
        <time>2019-02-01T21:23:00.000Z</time>
      </trkpt>
      <trkpt lat="44.76336" lon="1.34398">
        <ele>123</ele>
        <time>2019-02-01T21:24:00.000Z</time>
      </trkpt>
      <trkpt lat="44.76382" lon="1.34322">
        <ele>122</ele>
        <time>2019-02-01T21:25:00.000Z</time>
      </trkpt>
      <trkpt lat="44.76434" lon="1.34225">
        <ele>123</ele>
        <time>2019-02-01T21:26:00.000Z</time>
      </trkpt>
      <trkpt lat="44.76512" lon="1.34156">
        <ele>121</ele>
        <time>2019-02-01T21:27:00.000Z</time>
      </trkpt>
      <trkpt lat="44.76588" lon="1.34098">
        <ele>113</ele>
        <time>2019-02-01T21:28:00.000Z</time>
      </trkpt>
      <trkpt lat="44.76637" lon="1.33989">
        <ele>112</ele>
        <time>2019-02-01T21:29:00.000Z</time>
      </trkpt>
      <trkpt lat="44.7665" lon="1.33905">
        <ele>115</ele>
        <time>2019-02-01T21:30:00.000Z</time>
      </trkpt>
      <trkpt lat="44.76694" lon="1.33813">
        <ele>114</ele>
        <time>2019-02-01T21:31:00.000Z</time>
      </trkpt>
      <trkpt lat="44.76729" lon="1.33718">
        <ele>114</ele>
        <time>2019-02-01T21:32:00.000Z</time>
      </trkpt>
      <trkpt lat="44.76764" lon="1.33646">
        <ele>114</ele>
        <time>2019-02-01T21:33:00.000Z</time>
      </trkpt>
      <trkpt lat="44.76772" lon="1.33625">
        <ele>114</ele>
        <time>2019-02-01T21:34:00.000Z</time>
      </trkpt>
      <trkpt lat="44.76775" lon="1.33611">
        <ele>114</ele>
        <time>2019-02-01T21:35:00.000Z</time>
      </trkpt>
      <trkpt lat="44.76761" lon="1.33583">
        <ele>117</ele>
        <time>2019-02-01T21:36:00.000Z</time>
      </trkpt>
      <trkpt lat="44.76756" lon="1.33565">
        <ele>117</ele>
        <time>2019-02-01T21:37:00.000Z</time>
      </trkpt>
      <trkpt lat="44.76747" lon="1.33546">
        <ele>118</ele>
        <time>2019-02-01T21:38:00.000Z</time>
      </trkpt>
      <trkpt lat="44.76744" lon="1.33531">
        <ele>118</ele>
        <time>2019-02-01T21:39:00.000Z</time>
      </trkpt>
      <trkpt lat="44.76738" lon="1.335">
        <ele>118</ele>
        <time>2019-02-01T21:40:00.000Z</time>
      </trkpt>
      <trkpt lat="44.76733" lon="1.3344">
        <ele>117</ele>
        <time>2019-02-01T21:41:00.000Z</time>
      </trkpt>
      <trkpt lat="44.76741" lon="1.33392">
        <ele>116</ele>
        <time>2019-02-01T21:42:00.000Z</time>
      </trkpt>
      <trkpt lat="44.76743" lon="1.3336">
        <ele>117</ele>
        <time>2019-02-01T21:43:00.000Z</time>
      </trkpt>
      <trkpt lat="44.76744" lon="1.33331">
        <ele>118</ele>
        <time>2019-02-01T21:44:00.000Z</time>
      </trkpt>
      <trkpt lat="44.76755" lon="1.33303">
        <ele>118</ele>
        <time>2019-02-01T21:45:00.000Z</time>
      </trkpt>
      <trkpt lat="44.76768" lon="1.33263">
        <ele>117</ele>
        <time>2019-02-01T21:46:00.000Z</time>
      </trkpt>
      <trkpt lat="44.76782" lon="1.33217">
        <ele>116</ele>
        <time>2019-02-01T21:47:00.000Z</time>
      </trkpt>
      <trkpt lat="44.76783" lon="1.33186">
        <ele>116</ele>
        <time>2019-02-01T21:48:00.000Z</time>
      </trkpt>
      <trkpt lat="44.76787" lon="1.33154">
        <ele>115</ele>
        <time>2019-02-01T21:49:00.000Z</time>
      </trkpt>
      <trkpt lat="44.76792" lon="1.33126">
        <ele>114</ele>
        <time>2019-02-01T21:50:00.000Z</time>
      </trkpt>
      <trkpt lat="44.768" lon="1.3309">
        <ele>112</ele>
        <time>2019-02-01T21:51:00.000Z</time>
      </trkpt>
      <trkpt lat="44.76814" lon="1.3306">
        <ele>114</ele>
        <time>2019-02-01T21:52:00.000Z</time>
      </trkpt>
      <trkpt lat="44.76833" lon="1.33035">
        <ele>116</ele>
        <time>2019-02-01T21:53:00.000Z</time>
      </trkpt>
      <trkpt lat="44.76861" lon="1.33005">
        <ele>116</ele>
        <time>2019-02-01T21:54:00.000Z</time>
      </trkpt>
      <trkpt lat="44.76883" lon="1.32984">
        <ele>115</ele>
        <time>2019-02-01T21:55:00.000Z</time>
      </trkpt>
      <trkpt lat="44.76897" lon="1.32955">
        <ele>116</ele>
        <time>2019-02-01T21:56:00.000Z</time>
      </trkpt>
      <trkpt lat="44.76915" lon="1.32917">
        <ele>116</ele>
        <time>2019-02-01T21:57:00.000Z</time>
      </trkpt>
      <trkpt lat="44.76939" lon="1.32884">
        <ele>116</ele>
        <time>2019-02-01T21:58:00.000Z</time>
      </trkpt>
      <trkpt lat="44.76961" lon="1.32865">
        <ele>114</ele>
        <time>2019-02-01T21:59:00.000Z</time>
      </trkpt>
      <trkpt lat="44.76986" lon="1.32837">
        <ele>111</ele>
        <time>2019-02-01T22:00:00.000Z</time>
      </trkpt>
      <trkpt lat="44.76993" lon="1.32804">
        <ele>112</ele>
        <time>2019-02-01T22:01:00.000Z</time>
      </trkpt>
      <trkpt lat="44.76987" lon="1.3278">
        <ele>113</ele>
        <time>2019-02-01T22:02:00.000Z</time>
      </trkpt>
      <trkpt lat="44.76982" lon="1.32744">
        <ele>115</ele>
        <time>2019-02-01T22:03:00.000Z</time>
      </trkpt>
      <trkpt lat="44.76983" lon="1.32713">
        <ele>116</ele>
        <time>2019-02-01T22:04:00.000Z</time>
      </trkpt>
      <trkpt lat="44.76983" lon="1.32682">
        <ele>118</ele>
        <time>2019-02-01T22:05:00.000Z</time>
      </trkpt>
      <trkpt lat="44.7698" lon="1.32663">
        <ele>118</ele>
        <time>2019-02-01T22:06:00.000Z</time>
      </trkpt>
      <trkpt lat="44.76974" lon="1.3265">
        <ele>119</ele>
        <time>2019-02-01T22:07:00.000Z</time>
      </trkpt>
      <trkpt lat="44.76969" lon="1.32639">
        <ele>120</ele>
        <time>2019-02-01T22:08:00.000Z</time>
      </trkpt>
      <trkpt lat="44.76965" lon="1.32627">
        <ele>121</ele>
        <time>2019-02-01T22:09:00.000Z</time>
      </trkpt>
      <trkpt lat="44.76966" lon="1.32613">
        <ele>123</ele>
        <time>2019-02-01T22:10:00.000Z</time>
      </trkpt>
      <trkpt lat="44.76973" lon="1.32604">
        <ele>124</ele>
        <time>2019-02-01T22:11:00.000Z</time>
      </trkpt>
      <trkpt lat="44.7698" lon="1.32596">
        <ele>125</ele>
        <time>2019-02-01T22:12:00.000Z</time>
      </trkpt>
      <trkpt lat="44.76987" lon="1.32585">
        <ele>126</ele>
        <time>2019-02-01T22:13:00.000Z</time>
      </trkpt>
      <trkpt lat="44.76995" lon="1.32575">
        <ele>127</ele>
        <time>2019-02-01T22:14:00.000Z</time>
      </trkpt>
      <trkpt lat="44.77002" lon="1.32561">
        <ele>128</ele>
        <time>2019-02-01T22:15:00.000Z</time>
      </trkpt>
      <trkpt lat="44.77009" lon="1.32551">
        <ele>129</ele>
        <time>2019-02-01T22:16:00.000Z</time>
      </trkpt>
      <trkpt lat="44.77015" lon="1.32539">
        <ele>130</ele>
        <time>2019-02-01T22:17:00.000Z</time>
      </trkpt>
      <trkpt lat="44.7703" lon="1.32519">
        <ele>131</ele>
        <time>2019-02-01T22:18:00.000Z</time>
      </trkpt>
      <trkpt lat="44.77039" lon="1.32512">
        <ele>131</ele>
        <time>2019-02-01T22:19:00.000Z</time>
      </trkpt>
      <trkpt lat="44.77046" lon="1.32504">
        <ele>131</ele>
        <time>2019-02-01T22:20:00.000Z</time>
      </trkpt>
      <trkpt lat="44.77064" lon="1.32489">
        <ele>131</ele>
        <time>2019-02-01T22:21:00.000Z</time>
      </trkpt>
      <trkpt lat="44.77078" lon="1.32478">
        <ele>131</ele>
        <time>2019-02-01T22:22:00.000Z</time>
      </trkpt>
      <trkpt lat="44.7709" lon="1.32468">
        <ele>130</ele>
        <time>2019-02-01T22:23:00.000Z</time>
      </trkpt>
      <trkpt lat="44.77102" lon="1.32453">
        <ele>129</ele>
        <time>2019-02-01T22:24:00.000Z</time>
      </trkpt>
      <trkpt lat="44.77119" lon="1.32432">
        <ele>127</ele>
        <time>2019-02-01T22:25:00.000Z</time>
      </trkpt>
      <trkpt lat="44.77142" lon="1.3241">
        <ele>126</ele>
        <time>2019-02-01T22:26:00.000Z</time>
      </trkpt>
      <trkpt lat="44.7718" lon="1.32417">
        <ele>124</ele>
        <time>2019-02-01T22:27:00.000Z</time>
      </trkpt>
      <trkpt lat="44.77214" lon="1.3242">
        <ele>122</ele>
        <time>2019-02-01T22:28:00.000Z</time>
      </trkpt>
      <trkpt lat="44.77236" lon="1.32434">
        <ele>122</ele>
        <time>2019-02-01T22:29:00.000Z</time>
      </trkpt>
      <trkpt lat="44.77257" lon="1.32467">
        <ele>123</ele>
        <time>2019-02-01T22:30:00.000Z</time>
      </trkpt>
      <trkpt lat="44.77278" lon="1.32483">
        <ele>122</ele>
        <time>2019-02-01T22:31:00.000Z</time>
      </trkpt>
      <trkpt lat="44.77298" lon="1.32477">
        <ele>122</ele>
        <time>2019-02-01T22:32:00.000Z</time>
      </trkpt>
      <trkpt lat="44.77324" lon="1.32494">
        <ele>120</ele>
        <time>2019-02-01T22:33:00.000Z</time>
      </trkpt>
      <trkpt lat="44.77358" lon="1.32491">
        <ele>117</ele>
        <time>2019-02-01T22:34:00.000Z</time>
      </trkpt>
      <trkpt lat="44.77397" lon="1.32492">
        <ele>111</ele>
        <time>2019-02-01T22:35:00.000Z</time>
      </trkpt>
      <trkpt lat="44.77427" lon="1.32492">
        <ele>108</ele>
        <time>2019-02-01T22:36:00.000Z</time>
      </trkpt>
      <trkpt lat="44.77453" lon="1.32487">
        <ele>107</ele>
        <time>2019-02-01T22:37:00.000Z</time>
      </trkpt>
      <trkpt lat="44.7747" lon="1.32495">
        <ele>106</ele>
        <time>2019-02-01T22:38:00.000Z</time>
      </trkpt>
      <trkpt lat="44.77477" lon="1.32527">
        <ele>105</ele>
        <time>2019-02-01T22:39:00.000Z</time>
      </trkpt>
      <trkpt lat="44.77491" lon="1.32559">
        <ele>105</ele>
        <time>2019-02-01T22:40:00.000Z</time>
      </trkpt>
      <trkpt lat="44.77498" lon="1.32576">
        <ele>106</ele>
        <time>2019-02-01T22:41:00.000Z</time>
      </trkpt>
      <trkpt lat="44.77512" lon="1.32574">
        <ele>107</ele>
        <time>2019-02-01T22:42:00.000Z</time>
      </trkpt>
      <trkpt lat="44.7752" lon="1.32564">
        <ele>107</ele>
        <time>2019-02-01T22:43:00.000Z</time>
      </trkpt>
      <trkpt lat="44.77538" lon="1.32558">
        <ele>108</ele>
        <time>2019-02-01T22:44:00.000Z</time>
      </trkpt>
      <trkpt lat="44.77553" lon="1.32558">
        <ele>109</ele>
        <time>2019-02-01T22:45:00.000Z</time>
      </trkpt>
      <trkpt lat="44.77572" lon="1.32541">
        <ele>109</ele>
        <time>2019-02-01T22:46:00.000Z</time>
      </trkpt>
      <trkpt lat="44.77645" lon="1.32476">
        <ele>111</ele>
        <time>2019-02-01T22:47:00.000Z</time>
      </trkpt>
      <trkpt lat="44.77664" lon="1.32449">
        <ele>109</ele>
        <time>2019-02-01T22:48:00.000Z</time>
      </trkpt>
      <trkpt lat="44.77681" lon="1.32426">
        <ele>109</ele>
        <time>2019-02-01T22:49:00.000Z</time>
      </trkpt>
      <trkpt lat="44.77709" lon="1.32397">
        <ele>110</ele>
        <time>2019-02-01T22:50:00.000Z</time>
      </trkpt>
      <trkpt lat="44.77725" lon="1.32384">
        <ele>110</ele>
        <time>2019-02-01T22:51:00.000Z</time>
      </trkpt>
      <trkpt lat="44.77749" lon="1.32361">
        <ele>109</ele>
        <time>2019-02-01T22:52:00.000Z</time>
      </trkpt>
      <trkpt lat="44.77775" lon="1.32343">
        <ele>107</ele>
        <time>2019-02-01T22:53:00.000Z</time>
      </trkpt>
      <trkpt lat="44.77805" lon="1.32325">
        <ele>106</ele>
        <time>2019-02-01T22:54:00.000Z</time>
      </trkpt>
      <trkpt lat="44.77832" lon="1.32307">
        <ele>106</ele>
        <time>2019-02-01T22:55:00.000Z</time>
      </trkpt>
      <trkpt lat="44.77862" lon="1.32287">
        <ele>105</ele>
        <time>2019-02-01T22:56:00.000Z</time>
      </trkpt>
      <trkpt lat="44.77894" lon="1.32267">
        <ele>104</ele>
        <time>2019-02-01T22:57:00.000Z</time>
      </trkpt>
      <trkpt lat="44.77923" lon="1.32251">
        <ele>103</ele>
        <time>2019-02-01T22:58:00.000Z</time>
      </trkpt>
      <trkpt lat="44.77946" lon="1.32234">
        <ele>103</ele>
        <time>2019-02-01T22:59:00.000Z</time>
      </trkpt>
      <trkpt lat="44.77972" lon="1.32219">
        <ele>103</ele>
        <time>2019-02-01T23:00:00.000Z</time>
      </trkpt>
      <trkpt lat="44.77996" lon="1.32203">
        <ele>103</ele>
        <time>2019-02-01T23:01:00.000Z</time>
      </trkpt>
      <trkpt lat="44.78005" lon="1.32184">
        <ele>102</ele>
        <time>2019-02-01T23:02:00.000Z</time>
      </trkpt>
      <trkpt lat="44.78" lon="1.32173">
        <ele>101</ele>
        <time>2019-02-01T23:03:00.000Z</time>
      </trkpt>
      <trkpt lat="44.77994" lon="1.3216">
        <ele>100</ele>
        <time>2019-02-01T23:04:00.000Z</time>
      </trkpt>
      <trkpt lat="44.7798" lon="1.32126">
        <ele>99</ele>
        <time>2019-02-01T23:05:00.000Z</time>
      </trkpt>
      <trkpt lat="44.7796" lon="1.32108">
        <ele>99</ele>
        <time>2019-02-01T23:06:00.000Z</time>
      </trkpt>
      <trkpt lat="44.77936" lon="1.32095">
        <ele>99</ele>
        <time>2019-02-01T23:07:00.000Z</time>
      </trkpt>
      <trkpt lat="44.77915" lon="1.32073">
        <ele>101</ele>
        <time>2019-02-01T23:08:00.000Z</time>
      </trkpt>
      <trkpt lat="44.77933" lon="1.32056">
        <ele>102</ele>
        <time>2019-02-01T23:09:00.000Z</time>
      </trkpt>
      <trkpt lat="44.7796" lon="1.32033">
        <ele>103</ele>
        <time>2019-02-01T23:10:00.000Z</time>
      </trkpt>
      <trkpt lat="44.77974" lon="1.3201">
        <ele>103</ele>
        <time>2019-02-01T23:11:00.000Z</time>
      </trkpt>
      <trkpt lat="44.7799" lon="1.3198">
        <ele>103</ele>
        <time>2019-02-01T23:12:00.000Z</time>
      </trkpt>
      <trkpt lat="44.78006" lon="1.31943">
        <ele>104</ele>
        <time>2019-02-01T23:13:00.000Z</time>
      </trkpt>
      <trkpt lat="44.78014" lon="1.31915">
        <ele>104</ele>
        <time>2019-02-01T23:14:00.000Z</time>
      </trkpt>
      <trkpt lat="44.78023" lon="1.31889">
        <ele>105</ele>
        <time>2019-02-01T23:15:00.000Z</time>
      </trkpt>
      <trkpt lat="44.78035" lon="1.31862">
        <ele>105</ele>
        <time>2019-02-01T23:16:00.000Z</time>
      </trkpt>
      <trkpt lat="44.78045" lon="1.31836">
        <ele>105</ele>
        <time>2019-02-01T23:17:00.000Z</time>
      </trkpt>
      <trkpt lat="44.78055" lon="1.31808">
        <ele>104</ele>
        <time>2019-02-01T23:18:00.000Z</time>
      </trkpt>
      <trkpt lat="44.78065" lon="1.31793">
        <ele>103</ele>
        <time>2019-02-01T23:19:00.000Z</time>
      </trkpt>
      <trkpt lat="44.78086" lon="1.3176">
        <ele>102</ele>
        <time>2019-02-01T23:20:00.000Z</time>
      </trkpt>
      <trkpt lat="44.78113" lon="1.31719">
        <ele>100</ele>
        <time>2019-02-01T23:21:00.000Z</time>
      </trkpt>
      <trkpt lat="44.78131" lon="1.31681">
        <ele>100</ele>
        <time>2019-02-01T23:22:00.000Z</time>
      </trkpt>
      <trkpt lat="44.78147" lon="1.31671">
        <ele>99</ele>
        <time>2019-02-01T23:23:00.000Z</time>
      </trkpt>
      <trkpt lat="44.78174" lon="1.31679">
        <ele>99</ele>
        <time>2019-02-01T23:24:00.000Z</time>
      </trkpt>
      <trkpt lat="44.78208" lon="1.31653">
        <ele>99</ele>
        <time>2019-02-01T23:25:00.000Z</time>
      </trkpt>
      <trkpt lat="44.78234" lon="1.31608">
        <ele>101</ele>
        <time>2019-02-01T23:26:00.000Z</time>
      </trkpt>
      <trkpt lat="44.78254" lon="1.31568">
        <ele>104</ele>
        <time>2019-02-01T23:27:00.000Z</time>
      </trkpt>
      <trkpt lat="44.78272" lon="1.31535">
        <ele>106</ele>
        <time>2019-02-01T23:28:00.000Z</time>
      </trkpt>
      <trkpt lat="44.78286" lon="1.31499">
        <ele>106</ele>
        <time>2019-02-01T23:29:00.000Z</time>
      </trkpt>
      <trkpt lat="44.78302" lon="1.31453">
        <ele>103</ele>
        <time>2019-02-01T23:30:00.000Z</time>
      </trkpt>
      <trkpt lat="44.7832" lon="1.31411">
        <ele>101</ele>
        <time>2019-02-01T23:31:00.000Z</time>
      </trkpt>
      <trkpt lat="44.78336" lon="1.3138">
        <ele>103</ele>
        <time>2019-02-01T23:32:00.000Z</time>
      </trkpt>
      <trkpt lat="44.78356" lon="1.31347">
        <ele>105</ele>
        <time>2019-02-01T23:33:00.000Z</time>
      </trkpt>
      <trkpt lat="44.78382" lon="1.31329">
        <ele>106</ele>
        <time>2019-02-01T23:34:00.000Z</time>
      </trkpt>
      <trkpt lat="44.78422" lon="1.31302">
        <ele>109</ele>
        <time>2019-02-01T23:35:00.000Z</time>
      </trkpt>
      <trkpt lat="44.78452" lon="1.31268">
        <ele>110</ele>
        <time>2019-02-01T23:36:00.000Z</time>
      </trkpt>
      <trkpt lat="44.78472" lon="1.31234">
        <ele>111</ele>
        <time>2019-02-01T23:37:00.000Z</time>
      </trkpt>
      <trkpt lat="44.78495" lon="1.31205">
        <ele>112</ele>
        <time>2019-02-01T23:38:00.000Z</time>
      </trkpt>
      <trkpt lat="44.78526" lon="1.31185">
        <ele>112</ele>
        <time>2019-02-01T23:39:00.000Z</time>
      </trkpt>
      <trkpt lat="44.78557" lon="1.31165">
        <ele>111</ele>
        <time>2019-02-01T23:40:00.000Z</time>
      </trkpt>
      <trkpt lat="44.78583" lon="1.31157">
        <ele>110</ele>
        <time>2019-02-01T23:41:00.000Z</time>
      </trkpt>
      <trkpt lat="44.78613" lon="1.31158">
        <ele>108</ele>
        <time>2019-02-01T23:42:00.000Z</time>
      </trkpt>
      <trkpt lat="44.78645" lon="1.31159">
        <ele>107</ele>
        <time>2019-02-01T23:43:00.000Z</time>
      </trkpt>
      <trkpt lat="44.78676" lon="1.31156">
        <ele>106</ele>
        <time>2019-02-01T23:44:00.000Z</time>
      </trkpt>
      <trkpt lat="44.78704" lon="1.31153">
        <ele>105</ele>
        <time>2019-02-01T23:45:00.000Z</time>
      </trkpt>
      <trkpt lat="44.78735" lon="1.31147">
        <ele>104</ele>
        <time>2019-02-01T23:46:00.000Z</time>
      </trkpt>
      <trkpt lat="44.78767" lon="1.3114">
        <ele>103</ele>
        <time>2019-02-01T23:47:00.000Z</time>
      </trkpt>
      <trkpt lat="44.78785" lon="1.31137">
        <ele>101</ele>
        <time>2019-02-01T23:48:00.000Z</time>
      </trkpt>
      <trkpt lat="44.788" lon="1.31127">
        <ele>100</ele>
        <time>2019-02-01T23:49:00.000Z</time>
      </trkpt>
      <trkpt lat="44.78813" lon="1.31109">
        <ele>99</ele>
        <time>2019-02-01T23:50:00.000Z</time>
      </trkpt>
      <trkpt lat="44.78828" lon="1.31091">
        <ele>98</ele>
        <time>2019-02-01T23:51:00.000Z</time>
      </trkpt>
      <trkpt lat="44.78849" lon="1.3107">
        <ele>97</ele>
        <time>2019-02-01T23:52:00.000Z</time>
      </trkpt>
      <trkpt lat="44.78868" lon="1.31043">
        <ele>98</ele>
        <time>2019-02-01T23:53:00.000Z</time>
      </trkpt>
      <trkpt lat="44.78881" lon="1.31013">
        <ele>98</ele>
        <time>2019-02-01T23:54:00.000Z</time>
      </trkpt>
      <trkpt lat="44.78894" lon="1.30985">
        <ele>100</ele>
        <time>2019-02-01T23:55:00.000Z</time>
      </trkpt>
      <trkpt lat="44.78903" lon="1.30966">
        <ele>102</ele>
        <time>2019-02-01T23:56:00.000Z</time>
      </trkpt>
      <trkpt lat="44.78928" lon="1.30905">
        <ele>108</ele>
        <time>2019-02-01T23:57:00.000Z</time>
      </trkpt>
      <trkpt lat="44.78938" lon="1.30881">
        <ele>109</ele>
        <time>2019-02-01T23:58:00.000Z</time>
      </trkpt>
      <trkpt lat="44.7896" lon="1.30826">
        <ele>110</ele>
        <time>2019-02-01T23:59:00.000Z</time>
      </trkpt>
      <trkpt lat="44.78974" lon="1.30791">
        <ele>107</ele>
        <time>2019-02-02T00:00:00.000Z</time>
      </trkpt>
      <trkpt lat="44.78985" lon="1.30758">
        <ele>105</ele>
        <time>2019-02-02T00:01:00.000Z</time>
      </trkpt>
      <trkpt lat="44.78986" lon="1.30702">
        <ele>103</ele>
        <time>2019-02-02T00:02:00.000Z</time>
      </trkpt>
      <trkpt lat="44.78974" lon="1.30645">
        <ele>102</ele>
        <time>2019-02-02T00:03:00.000Z</time>
      </trkpt>
      <trkpt lat="44.78949" lon="1.30591">
        <ele>101</ele>
        <time>2019-02-02T00:04:00.000Z</time>
      </trkpt>
      <trkpt lat="44.78914" lon="1.30555">
        <ele>101</ele>
        <time>2019-02-02T00:05:00.000Z</time>
      </trkpt>
      <trkpt lat="44.7891" lon="1.30489">
        <ele>96</ele>
        <time>2019-02-02T00:06:00.000Z</time>
      </trkpt>
      <trkpt lat="44.78919" lon="1.30425">
        <ele>94</ele>
        <time>2019-02-02T00:07:00.000Z</time>
      </trkpt>
      <trkpt lat="44.78923" lon="1.30382">
        <ele>95</ele>
        <time>2019-02-02T00:08:00.000Z</time>
      </trkpt>
      <trkpt lat="44.78925" lon="1.30344">
        <ele>96</ele>
        <time>2019-02-02T00:09:00.000Z</time>
      </trkpt>
      <trkpt lat="44.78924" lon="1.30308">
        <ele>98</ele>
        <time>2019-02-02T00:10:00.000Z</time>
      </trkpt>
      <trkpt lat="44.78922" lon="1.30283">
        <ele>100</ele>
        <time>2019-02-02T00:11:00.000Z</time>
      </trkpt>
      <trkpt lat="44.78918" lon="1.30252">
        <ele>102</ele>
        <time>2019-02-02T00:12:00.000Z</time>
      </trkpt>
      <trkpt lat="44.78914" lon="1.30229">
        <ele>102</ele>
        <time>2019-02-02T00:13:00.000Z</time>
      </trkpt>
      <trkpt lat="44.7891" lon="1.30205">
        <ele>102</ele>
        <time>2019-02-02T00:14:00.000Z</time>
      </trkpt>
      <trkpt lat="44.78907" lon="1.30177">
        <ele>102</ele>
        <time>2019-02-02T00:15:00.000Z</time>
      </trkpt>
      <trkpt lat="44.78904" lon="1.3015">
        <ele>103</ele>
        <time>2019-02-02T00:16:00.000Z</time>
      </trkpt>
      <trkpt lat="44.78899" lon="1.30104">
        <ele>103</ele>
        <time>2019-02-02T00:17:00.000Z</time>
      </trkpt>
      <trkpt lat="44.78896" lon="1.30085">
        <ele>104</ele>
        <time>2019-02-02T00:18:00.000Z</time>
      </trkpt>
      <trkpt lat="44.78892" lon="1.30066">
        <ele>104</ele>
        <time>2019-02-02T00:19:00.000Z</time>
      </trkpt>
      <trkpt lat="44.7889" lon="1.30042">
        <ele>105</ele>
        <time>2019-02-02T00:20:00.000Z</time>
      </trkpt>
      <trkpt lat="44.7889" lon="1.30021">
        <ele>105</ele>
        <time>2019-02-02T00:21:00.000Z</time>
      </trkpt>
      <trkpt lat="44.78892" lon="1.29994">
        <ele>105</ele>
        <time>2019-02-02T00:22:00.000Z</time>
      </trkpt>
      <trkpt lat="44.78893" lon="1.2994">
        <ele>104</ele>
        <time>2019-02-02T00:23:00.000Z</time>
      </trkpt>
      <trkpt lat="44.78893" lon="1.2991">
        <ele>104</ele>
        <time>2019-02-02T00:24:00.000Z</time>
      </trkpt>
      <trkpt lat="44.78892" lon="1.29878">
        <ele>105</ele>
        <time>2019-02-02T00:25:00.000Z</time>
      </trkpt>
      <trkpt lat="44.78892" lon="1.29845">
        <ele>105</ele>
        <time>2019-02-02T00:26:00.000Z</time>
      </trkpt>
      <trkpt lat="44.78893" lon="1.29812">
        <ele>106</ele>
        <time>2019-02-02T00:27:00.000Z</time>
      </trkpt>
      <trkpt lat="44.78895" lon="1.29784">
        <ele>106</ele>
        <time>2019-02-02T00:28:00.000Z</time>
      </trkpt>
      <trkpt lat="44.78899" lon="1.29752">
        <ele>105</ele>
        <time>2019-02-02T00:29:00.000Z</time>
      </trkpt>
      <trkpt lat="44.78904" lon="1.29725">
        <ele>106</ele>
        <time>2019-02-02T00:30:00.000Z</time>
      </trkpt>
      <trkpt lat="44.78917" lon="1.29661">
        <ele>106</ele>
        <time>2019-02-02T00:31:00.000Z</time>
      </trkpt>
      <trkpt lat="44.78921" lon="1.29636">
        <ele>106</ele>
        <time>2019-02-02T00:32:00.000Z</time>
      </trkpt>
      <trkpt lat="44.78928" lon="1.29607">
        <ele>106</ele>
        <time>2019-02-02T00:33:00.000Z</time>
      </trkpt>
      <trkpt lat="44.78934" lon="1.29582">
        <ele>105</ele>
        <time>2019-02-02T00:34:00.000Z</time>
      </trkpt>
      <trkpt lat="44.78942" lon="1.29547">
        <ele>104</ele>
        <time>2019-02-02T00:35:00.000Z</time>
      </trkpt>
      <trkpt lat="44.78955" lon="1.29506">
        <ele>103</ele>
        <time>2019-02-02T00:36:00.000Z</time>
      </trkpt>
      <trkpt lat="44.78963" lon="1.2947">
        <ele>104</ele>
        <time>2019-02-02T00:37:00.000Z</time>
      </trkpt>
      <trkpt lat="44.78979" lon="1.29389">
        <ele>105</ele>
        <time>2019-02-02T00:38:00.000Z</time>
      </trkpt>
      <trkpt lat="44.78989" lon="1.29354">
        <ele>105</ele>
        <time>2019-02-02T00:39:00.000Z</time>
      </trkpt>
      <trkpt lat="44.79011" lon="1.29343">
        <ele>103</ele>
        <time>2019-02-02T00:40:00.000Z</time>
      </trkpt>
      <trkpt lat="44.7904" lon="1.29343">
        <ele>101</ele>
        <time>2019-02-02T00:41:00.000Z</time>
      </trkpt>
      <trkpt lat="44.79074" lon="1.29354">
        <ele>99</ele>
        <time>2019-02-02T00:42:00.000Z</time>
      </trkpt>
      <trkpt lat="44.79111" lon="1.29368">
        <ele>99</ele>
        <time>2019-02-02T00:43:00.000Z</time>
      </trkpt>
      <trkpt lat="44.79147" lon="1.29384">
        <ele>99</ele>
        <time>2019-02-02T00:44:00.000Z</time>
      </trkpt>
      <trkpt lat="44.79175" lon="1.29394">
        <ele>99</ele>
        <time>2019-02-02T00:45:00.000Z</time>
      </trkpt>
      <trkpt lat="44.792" lon="1.294">
        <ele>101</ele>
        <time>2019-02-02T00:46:00.000Z</time>
      </trkpt>
      <trkpt lat="44.7925" lon="1.29403">
        <ele>103</ele>
        <time>2019-02-02T00:47:00.000Z</time>
      </trkpt>
      <trkpt lat="44.79276" lon="1.29406">
        <ele>104</ele>
        <time>2019-02-02T00:48:00.000Z</time>
      </trkpt>
      <trkpt lat="44.79329" lon="1.29416">
        <ele>107</ele>
        <time>2019-02-02T00:49:00.000Z</time>
      </trkpt>
      <trkpt lat="44.7935" lon="1.29421">
        <ele>107</ele>
        <time>2019-02-02T00:50:00.000Z</time>
      </trkpt>
      <trkpt lat="44.79369" lon="1.29425">
        <ele>108</ele>
        <time>2019-02-02T00:51:00.000Z</time>
      </trkpt>
      <trkpt lat="44.79394" lon="1.29431">
        <ele>109</ele>
        <time>2019-02-02T00:52:00.000Z</time>
      </trkpt>
      <trkpt lat="44.79415" lon="1.29434">
        <ele>109</ele>
        <time>2019-02-02T00:53:00.000Z</time>
      </trkpt>
      <trkpt lat="44.7944" lon="1.29439">
        <ele>107</ele>
        <time>2019-02-02T00:54:00.000Z</time>
      </trkpt>
      <trkpt lat="44.7946" lon="1.29446">
        <ele>106</ele>
        <time>2019-02-02T00:55:00.000Z</time>
      </trkpt>
      <trkpt lat="44.79489" lon="1.29452">
        <ele>104</ele>
        <time>2019-02-02T00:56:00.000Z</time>
      </trkpt>
      <trkpt lat="44.79527" lon="1.29459">
        <ele>102</ele>
        <time>2019-02-02T00:57:00.000Z</time>
      </trkpt>
      <trkpt lat="44.79559" lon="1.29463">
        <ele>101</ele>
        <time>2019-02-02T00:58:00.000Z</time>
      </trkpt>
      <trkpt lat="44.796" lon="1.29469">
        <ele>100</ele>
        <time>2019-02-02T00:59:00.000Z</time>
      </trkpt>
      <trkpt lat="44.7963" lon="1.29472">
        <ele>99</ele>
        <time>2019-02-02T01:00:00.000Z</time>
      </trkpt>
      <trkpt lat="44.79667" lon="1.29472">
        <ele>98</ele>
        <time>2019-02-02T01:01:00.000Z</time>
      </trkpt>
      <trkpt lat="44.79697" lon="1.29464">
        <ele>98</ele>
        <time>2019-02-02T01:02:00.000Z</time>
      </trkpt>
      <trkpt lat="44.7973" lon="1.29439">
        <ele>97</ele>
        <time>2019-02-02T01:03:00.000Z</time>
      </trkpt>
      <trkpt lat="44.79762" lon="1.29413">
        <ele>96</ele>
        <time>2019-02-02T01:04:00.000Z</time>
      </trkpt>
      <trkpt lat="44.79807" lon="1.29388">
        <ele>96</ele>
        <time>2019-02-02T01:05:00.000Z</time>
      </trkpt>
      <trkpt lat="44.79837" lon="1.29363">
        <ele>95</ele>
        <time>2019-02-02T01:06:00.000Z</time>
      </trkpt>
      <trkpt lat="44.79867" lon="1.29355">
        <ele>95</ele>
        <time>2019-02-02T01:07:00.000Z</time>
      </trkpt>
      <trkpt lat="44.79897" lon="1.29361">
        <ele>96</ele>
        <time>2019-02-02T01:08:00.000Z</time>
      </trkpt>
      <trkpt lat="44.79931" lon="1.29368">
        <ele>97</ele>
        <time>2019-02-02T01:09:00.000Z</time>
      </trkpt>
      <trkpt lat="44.7996" lon="1.2938">
        <ele>97</ele>
        <time>2019-02-02T01:10:00.000Z</time>
      </trkpt>
      <trkpt lat="44.79985" lon="1.29387">
        <ele>98</ele>
        <time>2019-02-02T01:11:00.000Z</time>
      </trkpt>
      <trkpt lat="44.80014" lon="1.2939">
        <ele>97</ele>
        <time>2019-02-02T01:12:00.000Z</time>
      </trkpt>
      <trkpt lat="44.80048" lon="1.29397">
        <ele>95</ele>
        <time>2019-02-02T01:13:00.000Z</time>
      </trkpt>
      <trkpt lat="44.80077" lon="1.29402">
        <ele>94</ele>
        <time>2019-02-02T01:14:00.000Z</time>
      </trkpt>
      <trkpt lat="44.80105" lon="1.29409">
        <ele>93</ele>
        <time>2019-02-02T01:15:00.000Z</time>
      </trkpt>
      <trkpt lat="44.80176" lon="1.2942">
        <ele>93</ele>
        <time>2019-02-02T01:16:00.000Z</time>
      </trkpt>
      <trkpt lat="44.80211" lon="1.2942">
        <ele>92</ele>
        <time>2019-02-02T01:17:00.000Z</time>
      </trkpt>
      <trkpt lat="44.80253" lon="1.29414">
        <ele>91</ele>
        <time>2019-02-02T01:18:00.000Z</time>
      </trkpt>
      <trkpt lat="44.80287" lon="1.29397">
        <ele>92</ele>
        <time>2019-02-02T01:19:00.000Z</time>
      </trkpt>
      <trkpt lat="44.80315" lon="1.29389">
        <ele>93</ele>
        <time>2019-02-02T01:20:00.000Z</time>
      </trkpt>
      <trkpt lat="44.80338" lon="1.29393">
        <ele>93</ele>
        <time>2019-02-02T01:21:00.000Z</time>
      </trkpt>
      <trkpt lat="44.80375" lon="1.29404">
        <ele>93</ele>
        <time>2019-02-02T01:22:00.000Z</time>
      </trkpt>
      <trkpt lat="44.804" lon="1.29412">
        <ele>92</ele>
        <time>2019-02-02T01:23:00.000Z</time>
      </trkpt>
      <trkpt lat="44.80425" lon="1.29419">
        <ele>92</ele>
        <time>2019-02-02T01:24:00.000Z</time>
      </trkpt>
      <trkpt lat="44.80483" lon="1.29425">
        <ele>92</ele>
        <time>2019-02-02T01:25:00.000Z</time>
      </trkpt>
      <trkpt lat="44.80514" lon="1.2944">
        <ele>92</ele>
        <time>2019-02-02T01:26:00.000Z</time>
      </trkpt>
      <trkpt lat="44.80538" lon="1.29455">
        <ele>93</ele>
        <time>2019-02-02T01:27:00.000Z</time>
      </trkpt>
      <trkpt lat="44.80567" lon="1.29478">
        <ele>93</ele>
        <time>2019-02-02T01:28:00.000Z</time>
      </trkpt>
      <trkpt lat="44.80588" lon="1.29497">
        <ele>93</ele>
        <time>2019-02-02T01:29:00.000Z</time>
      </trkpt>
      <trkpt lat="44.80601" lon="1.29515">
        <ele>93</ele>
        <time>2019-02-02T01:30:00.000Z</time>
      </trkpt>
      <trkpt lat="44.80611" lon="1.29533">
        <ele>93</ele>
        <time>2019-02-02T01:31:00.000Z</time>
      </trkpt>
      <trkpt lat="44.80627" lon="1.29555">
        <ele>92</ele>
        <time>2019-02-02T01:32:00.000Z</time>
      </trkpt>
      <trkpt lat="44.80661" lon="1.29567">
        <ele>92</ele>
        <time>2019-02-02T01:33:00.000Z</time>
      </trkpt>
      <trkpt lat="44.80688" lon="1.29572">
        <ele>92</ele>
        <time>2019-02-02T01:34:00.000Z</time>
      </trkpt>
      <trkpt lat="44.80704" lon="1.29578">
        <ele>92</ele>
        <time>2019-02-02T01:35:00.000Z</time>
      </trkpt>
      <trkpt lat="44.80706" lon="1.29562">
        <ele>93</ele>
        <time>2019-02-02T01:36:00.000Z</time>
      </trkpt>
      <trkpt lat="44.80706" lon="1.2954">
        <ele>94</ele>
        <time>2019-02-02T01:37:00.000Z</time>
      </trkpt>
      <trkpt lat="44.80711" lon="1.29515">
        <ele>96</ele>
        <time>2019-02-02T01:38:00.000Z</time>
      </trkpt>
      <trkpt lat="44.80724" lon="1.29488">
        <ele>97</ele>
        <time>2019-02-02T01:39:00.000Z</time>
      </trkpt>
      <trkpt lat="44.80732" lon="1.29461">
        <ele>97</ele>
        <time>2019-02-02T01:40:00.000Z</time>
      </trkpt>
      <trkpt lat="44.80735" lon="1.29426">
        <ele>97</ele>
        <time>2019-02-02T01:41:00.000Z</time>
      </trkpt>
      <trkpt lat="44.80737" lon="1.29399">
        <ele>98</ele>
        <time>2019-02-02T01:42:00.000Z</time>
      </trkpt>
      <trkpt lat="44.80739" lon="1.2937">
        <ele>100</ele>
        <time>2019-02-02T01:43:00.000Z</time>
      </trkpt>
      <trkpt lat="44.80739" lon="1.29344">
        <ele>102</ele>
        <time>2019-02-02T01:44:00.000Z</time>
      </trkpt>
      <trkpt lat="44.8073" lon="1.29319">
        <ele>103</ele>
        <time>2019-02-02T01:45:00.000Z</time>
      </trkpt>
      <trkpt lat="44.80715" lon="1.29306">
        <ele>104</ele>
        <time>2019-02-02T01:46:00.000Z</time>
      </trkpt>
      <trkpt lat="44.80695" lon="1.29296">
        <ele>104</ele>
        <time>2019-02-02T01:47:00.000Z</time>
      </trkpt>
      <trkpt lat="44.80676" lon="1.29286">
        <ele>104</ele>
        <time>2019-02-02T01:48:00.000Z</time>
      </trkpt>
      <trkpt lat="44.80659" lon="1.29275">
        <ele>104</ele>
        <time>2019-02-02T01:49:00.000Z</time>
      </trkpt>
      <trkpt lat="44.80646" lon="1.29263">
        <ele>104</ele>
        <time>2019-02-02T01:50:00.000Z</time>
      </trkpt>
      <trkpt lat="44.80617" lon="1.29233">
        <ele>105</ele>
        <time>2019-02-02T01:51:00.000Z</time>
      </trkpt>
      <trkpt lat="44.80602" lon="1.29217">
        <ele>106</ele>
        <time>2019-02-02T01:52:00.000Z</time>
      </trkpt>
      <trkpt lat="44.80589" lon="1.29199">
        <ele>106</ele>
        <time>2019-02-02T01:53:00.000Z</time>
      </trkpt>
      <trkpt lat="44.8058" lon="1.29182">
        <ele>107</ele>
        <time>2019-02-02T01:54:00.000Z</time>
      </trkpt>
      <trkpt lat="44.8057" lon="1.29159">
        <ele>110</ele>
        <time>2019-02-02T01:55:00.000Z</time>
      </trkpt>
      <trkpt lat="44.80559" lon="1.29138">
        <ele>113</ele>
        <time>2019-02-02T01:56:00.000Z</time>
      </trkpt>
      <trkpt lat="44.80551" lon="1.29118">
        <ele>115</ele>
        <time>2019-02-02T01:57:00.000Z</time>
      </trkpt>
      <trkpt lat="44.80547" lon="1.29096">
        <ele>117</ele>
        <time>2019-02-02T01:58:00.000Z</time>
      </trkpt>
      <trkpt lat="44.80549" lon="1.29074">
        <ele>118</ele>
        <time>2019-02-02T01:59:00.000Z</time>
      </trkpt>
      <trkpt lat="44.80557" lon="1.29045">
        <ele>118</ele>
        <time>2019-02-02T02:00:00.000Z</time>
      </trkpt>
      <trkpt lat="44.80563" lon="1.29022">
        <ele>118</ele>
        <time>2019-02-02T02:01:00.000Z</time>
      </trkpt>
      <trkpt lat="44.80572" lon="1.28999">
        <ele>118</ele>
        <time>2019-02-02T02:02:00.000Z</time>
      </trkpt>
      <trkpt lat="44.80579" lon="1.28979">
        <ele>117</ele>
        <time>2019-02-02T02:03:00.000Z</time>
      </trkpt>
      <trkpt lat="44.80584" lon="1.28957">
        <ele>117</ele>
        <time>2019-02-02T02:04:00.000Z</time>
      </trkpt>
      <trkpt lat="44.80585" lon="1.28934">
        <ele>117</ele>
        <time>2019-02-02T02:05:00.000Z</time>
      </trkpt>
      <trkpt lat="44.80583" lon="1.28911">
        <ele>116</ele>
        <time>2019-02-02T02:06:00.000Z</time>
      </trkpt>
      <trkpt lat="44.80585" lon="1.28884">
        <ele>116</ele>
        <time>2019-02-02T02:07:00.000Z</time>
      </trkpt>
      <trkpt lat="44.80588" lon="1.28861">
        <ele>117</ele>
        <time>2019-02-02T02:08:00.000Z</time>
      </trkpt>
      <trkpt lat="44.80596" lon="1.28807">
        <ele>119</ele>
        <time>2019-02-02T02:09:00.000Z</time>
      </trkpt>
      <trkpt lat="44.80604" lon="1.28783">
        <ele>119</ele>
        <time>2019-02-02T02:10:00.000Z</time>
      </trkpt>
      <trkpt lat="44.80608" lon="1.2876">
        <ele>119</ele>
        <time>2019-02-02T02:11:00.000Z</time>
      </trkpt>
      <trkpt lat="44.80606" lon="1.28738">
        <ele>119</ele>
        <time>2019-02-02T02:12:00.000Z</time>
      </trkpt>
      <trkpt lat="44.80599" lon="1.28718">
        <ele>120</ele>
        <time>2019-02-02T02:13:00.000Z</time>
      </trkpt>
      <trkpt lat="44.8059" lon="1.28704">
        <ele>120</ele>
        <time>2019-02-02T02:14:00.000Z</time>
      </trkpt>
      <trkpt lat="44.80578" lon="1.2869">
        <ele>120</ele>
        <time>2019-02-02T02:15:00.000Z</time>
      </trkpt>
      <trkpt lat="44.80566" lon="1.28679">
        <ele>121</ele>
        <time>2019-02-02T02:16:00.000Z</time>
      </trkpt>
      <trkpt lat="44.8055" lon="1.28667">
        <ele>120</ele>
        <time>2019-02-02T02:17:00.000Z</time>
      </trkpt>
      <trkpt lat="44.80536" lon="1.28653">
        <ele>122</ele>
        <time>2019-02-02T02:18:00.000Z</time>
      </trkpt>
      <trkpt lat="44.80523" lon="1.28635">
        <ele>125</ele>
        <time>2019-02-02T02:19:00.000Z</time>
      </trkpt>
      <trkpt lat="44.80509" lon="1.28625">
        <ele>125</ele>
        <time>2019-02-02T02:20:00.000Z</time>
      </trkpt>
      <trkpt lat="44.80492" lon="1.28615">
        <ele>125</ele>
        <time>2019-02-02T02:21:00.000Z</time>
      </trkpt>
      <trkpt lat="44.80479" lon="1.28606">
        <ele>127</ele>
        <time>2019-02-02T02:22:00.000Z</time>
      </trkpt>
      <trkpt lat="44.80469" lon="1.28591">
        <ele>128</ele>
        <time>2019-02-02T02:23:00.000Z</time>
      </trkpt>
      <trkpt lat="44.80459" lon="1.28571">
        <ele>130</ele>
        <time>2019-02-02T02:24:00.000Z</time>
      </trkpt>
      <trkpt lat="44.80455" lon="1.28557">
        <ele>131</ele>
        <time>2019-02-02T02:25:00.000Z</time>
      </trkpt>
      <trkpt lat="44.80453" lon="1.28536">
        <ele>133</ele>
        <time>2019-02-02T02:26:00.000Z</time>
      </trkpt>
      <trkpt lat="44.80457" lon="1.28513">
        <ele>136</ele>
        <time>2019-02-02T02:27:00.000Z</time>
      </trkpt>
      <trkpt lat="44.8046" lon="1.28484">
        <ele>137</ele>
        <time>2019-02-02T02:28:00.000Z</time>
      </trkpt>
      <trkpt lat="44.80461" lon="1.28456">
        <ele>136</ele>
        <time>2019-02-02T02:29:00.000Z</time>
      </trkpt>
      <trkpt lat="44.8047" lon="1.28432">
        <ele>135</ele>
        <time>2019-02-02T02:30:00.000Z</time>
      </trkpt>
      <trkpt lat="44.80479" lon="1.28409">
        <ele>134</ele>
        <time>2019-02-02T02:31:00.000Z</time>
      </trkpt>
      <trkpt lat="44.8049" lon="1.28391">
        <ele>133</ele>
        <time>2019-02-02T02:32:00.000Z</time>
      </trkpt>
      <trkpt lat="44.805" lon="1.28372">
        <ele>132</ele>
        <time>2019-02-02T02:33:00.000Z</time>
      </trkpt>
      <trkpt lat="44.8051" lon="1.28355">
        <ele>133</ele>
        <time>2019-02-02T02:34:00.000Z</time>
      </trkpt>
      <trkpt lat="44.80518" lon="1.2834">
        <ele>134</ele>
        <time>2019-02-02T02:35:00.000Z</time>
      </trkpt>
      <trkpt lat="44.80523" lon="1.28326">
        <ele>134</ele>
        <time>2019-02-02T02:36:00.000Z</time>
      </trkpt>
      <trkpt lat="44.80527" lon="1.28311">
        <ele>134</ele>
        <time>2019-02-02T02:37:00.000Z</time>
      </trkpt>
      <trkpt lat="44.80533" lon="1.2828">
        <ele>135</ele>
        <time>2019-02-02T02:38:00.000Z</time>
      </trkpt>
      <trkpt lat="44.80539" lon="1.28264">
        <ele>135</ele>
        <time>2019-02-02T02:39:00.000Z</time>
      </trkpt>
      <trkpt lat="44.80548" lon="1.28245">
        <ele>136</ele>
        <time>2019-02-02T02:40:00.000Z</time>
      </trkpt>
      <trkpt lat="44.8056" lon="1.28229">
        <ele>138</ele>
        <time>2019-02-02T02:41:00.000Z</time>
      </trkpt>
      <trkpt lat="44.80572" lon="1.28217">
        <ele>139</ele>
        <time>2019-02-02T02:42:00.000Z</time>
      </trkpt>
      <trkpt lat="44.80593" lon="1.28201">
        <ele>141</ele>
        <time>2019-02-02T02:43:00.000Z</time>
      </trkpt>
      <trkpt lat="44.80601" lon="1.28195">
        <ele>141</ele>
        <time>2019-02-02T02:44:00.000Z</time>
      </trkpt>
      <trkpt lat="44.80613" lon="1.28193">
        <ele>142</ele>
        <time>2019-02-02T02:45:00.000Z</time>
      </trkpt>
      <trkpt lat="44.80626" lon="1.28189">
        <ele>142</ele>
        <time>2019-02-02T02:46:00.000Z</time>
      </trkpt>
      <trkpt lat="44.80666" lon="1.28195">
        <ele>145</ele>
        <time>2019-02-02T02:47:00.000Z</time>
      </trkpt>
      <trkpt lat="44.8068" lon="1.28198">
        <ele>146</ele>
        <time>2019-02-02T02:48:00.000Z</time>
      </trkpt>
      <trkpt lat="44.80692" lon="1.28201">
        <ele>146</ele>
        <time>2019-02-02T02:49:00.000Z</time>
      </trkpt>
      <trkpt lat="44.80705" lon="1.28202">
        <ele>146</ele>
        <time>2019-02-02T02:50:00.000Z</time>
      </trkpt>
      <trkpt lat="44.80726" lon="1.28208">
        <ele>147</ele>
        <time>2019-02-02T02:51:00.000Z</time>
      </trkpt>
      <trkpt lat="44.80736" lon="1.28212">
        <ele>147</ele>
        <time>2019-02-02T02:52:00.000Z</time>
      </trkpt>
      <trkpt lat="44.80759" lon="1.28218">
        <ele>148</ele>
        <time>2019-02-02T02:53:00.000Z</time>
      </trkpt>
      <trkpt lat="44.80768" lon="1.28222">
        <ele>149</ele>
        <time>2019-02-02T02:54:00.000Z</time>
      </trkpt>
      <trkpt lat="44.80778" lon="1.28229">
        <ele>151</ele>
        <time>2019-02-02T02:55:00.000Z</time>
      </trkpt>
      <trkpt lat="44.80787" lon="1.28237">
        <ele>152</ele>
        <time>2019-02-02T02:56:00.000Z</time>
      </trkpt>
      <trkpt lat="44.80798" lon="1.2824">
        <ele>152</ele>
        <time>2019-02-02T02:57:00.000Z</time>
      </trkpt>
      <trkpt lat="44.80807" lon="1.28244">
        <ele>153</ele>
        <time>2019-02-02T02:58:00.000Z</time>
      </trkpt>
      <trkpt lat="44.80819" lon="1.28246">
        <ele>153</ele>
        <time>2019-02-02T02:59:00.000Z</time>
      </trkpt>
      <trkpt lat="44.80833" lon="1.28245">
        <ele>154</ele>
        <time>2019-02-02T03:00:00.000Z</time>
      </trkpt>
      <trkpt lat="44.80844" lon="1.28238">
        <ele>156</ele>
        <time>2019-02-02T03:01:00.000Z</time>
      </trkpt>
      <trkpt lat="44.80849" lon="1.28228">
        <ele>156</ele>
        <time>2019-02-02T03:02:00.000Z</time>
      </trkpt>
      <trkpt lat="44.80857" lon="1.28213">
        <ele>157</ele>
        <time>2019-02-02T03:03:00.000Z</time>
      </trkpt>
      <trkpt lat="44.80863" lon="1.28199">
        <ele>157</ele>
        <time>2019-02-02T03:04:00.000Z</time>
      </trkpt>
      <trkpt lat="44.80868" lon="1.28185">
        <ele>157</ele>
        <time>2019-02-02T03:05:00.000Z</time>
      </trkpt>
      <trkpt lat="44.80873" lon="1.28173">
        <ele>158</ele>
        <time>2019-02-02T03:06:00.000Z</time>
      </trkpt>
      <trkpt lat="44.80882" lon="1.28162">
        <ele>159</ele>
        <time>2019-02-02T03:07:00.000Z</time>
      </trkpt>
      <trkpt lat="44.80896" lon="1.28136">
        <ele>163</ele>
        <time>2019-02-02T03:08:00.000Z</time>
      </trkpt>
      <trkpt lat="44.80905" lon="1.2812">
        <ele>165</ele>
        <time>2019-02-02T03:09:00.000Z</time>
      </trkpt>
      <trkpt lat="44.80912" lon="1.28108">
        <ele>166</ele>
        <time>2019-02-02T03:10:00.000Z</time>
      </trkpt>
      <trkpt lat="44.80911" lon="1.28093">
        <ele>166</ele>
        <time>2019-02-02T03:11:00.000Z</time>
      </trkpt>
      <trkpt lat="44.80905" lon="1.28079">
        <ele>165</ele>
        <time>2019-02-02T03:12:00.000Z</time>
      </trkpt>
      <trkpt lat="44.80892" lon="1.28055">
        <ele>165</ele>
        <time>2019-02-02T03:13:00.000Z</time>
      </trkpt>
      <trkpt lat="44.80886" lon="1.28043">
        <ele>165</ele>
        <time>2019-02-02T03:14:00.000Z</time>
      </trkpt>
      <trkpt lat="44.80881" lon="1.28029">
        <ele>165</ele>
        <time>2019-02-02T03:15:00.000Z</time>
      </trkpt>
      <trkpt lat="44.80876" lon="1.2801">
        <ele>166</ele>
        <time>2019-02-02T03:16:00.000Z</time>
      </trkpt>
      <trkpt lat="44.80874" lon="1.27992">
        <ele>167</ele>
        <time>2019-02-02T03:17:00.000Z</time>
      </trkpt>
      <trkpt lat="44.80876" lon="1.27974">
        <ele>169</ele>
        <time>2019-02-02T03:18:00.000Z</time>
      </trkpt>
      <trkpt lat="44.80878" lon="1.27954">
        <ele>171</ele>
        <time>2019-02-02T03:19:00.000Z</time>
      </trkpt>
      <trkpt lat="44.80887" lon="1.27906">
        <ele>178</ele>
        <time>2019-02-02T03:20:00.000Z</time>
      </trkpt>
      <trkpt lat="44.80889" lon="1.27893">
        <ele>181</ele>
        <time>2019-02-02T03:21:00.000Z</time>
      </trkpt>
      <trkpt lat="44.80892" lon="1.2788">
        <ele>183</ele>
        <time>2019-02-02T03:22:00.000Z</time>
      </trkpt>
      <trkpt lat="44.80889" lon="1.27864">
        <ele>185</ele>
        <time>2019-02-02T03:23:00.000Z</time>
      </trkpt>
      <trkpt lat="44.80883" lon="1.27854">
        <ele>185</ele>
        <time>2019-02-02T03:24:00.000Z</time>
      </trkpt>
      <trkpt lat="44.80873" lon="1.27851">
        <ele>185</ele>
        <time>2019-02-02T03:25:00.000Z</time>
      </trkpt>
      <trkpt lat="44.80864" lon="1.27849">
        <ele>184</ele>
        <time>2019-02-02T03:26:00.000Z</time>
      </trkpt>
      <trkpt lat="44.80855" lon="1.27846">
        <ele>184</ele>
        <time>2019-02-02T03:27:00.000Z</time>
      </trkpt>
      <trkpt lat="44.80846" lon="1.27842">
        <ele>184</ele>
        <time>2019-02-02T03:28:00.000Z</time>
      </trkpt>
      <trkpt lat="44.80837" lon="1.27843">
        <ele>183</ele>
        <time>2019-02-02T03:29:00.000Z</time>
      </trkpt>
      <trkpt lat="44.80824" lon="1.27841">
        <ele>182</ele>
        <time>2019-02-02T03:30:00.000Z</time>
      </trkpt>
      <trkpt lat="44.80808" lon="1.2784">
        <ele>181</ele>
        <time>2019-02-02T03:31:00.000Z</time>
      </trkpt>
      <trkpt lat="44.80793" lon="1.27836">
        <ele>181</ele>
        <time>2019-02-02T03:32:00.000Z</time>
      </trkpt>
      <trkpt lat="44.80781" lon="1.27824">
        <ele>182</ele>
        <time>2019-02-02T03:33:00.000Z</time>
      </trkpt>
      <trkpt lat="44.80771" lon="1.27815">
        <ele>183</ele>
        <time>2019-02-02T03:34:00.000Z</time>
      </trkpt>
      <trkpt lat="44.8076" lon="1.27807">
        <ele>183</ele>
        <time>2019-02-02T03:35:00.000Z</time>
      </trkpt>
      <trkpt lat="44.80748" lon="1.27798">
        <ele>184</ele>
        <time>2019-02-02T03:36:00.000Z</time>
      </trkpt>
      <trkpt lat="44.80732" lon="1.27789">
        <ele>183</ele>
        <time>2019-02-02T03:37:00.000Z</time>
      </trkpt>
      <trkpt lat="44.80716" lon="1.2778">
        <ele>182</ele>
        <time>2019-02-02T03:38:00.000Z</time>
      </trkpt>
      <trkpt lat="44.80701" lon="1.27775">
        <ele>181</ele>
        <time>2019-02-02T03:39:00.000Z</time>
      </trkpt>
      <trkpt lat="44.80688" lon="1.27763">
        <ele>180</ele>
        <time>2019-02-02T03:40:00.000Z</time>
      </trkpt>
      <trkpt lat="44.80683" lon="1.27743">
        <ele>181</ele>
        <time>2019-02-02T03:41:00.000Z</time>
      </trkpt>
      <trkpt lat="44.80686" lon="1.27727">
        <ele>181</ele>
        <time>2019-02-02T03:42:00.000Z</time>
      </trkpt>
      <trkpt lat="44.80696" lon="1.27715">
        <ele>182</ele>
        <time>2019-02-02T03:43:00.000Z</time>
      </trkpt>
      <trkpt lat="44.80706" lon="1.27704">
        <ele>184</ele>
        <time>2019-02-02T03:44:00.000Z</time>
      </trkpt>
      <trkpt lat="44.80716" lon="1.27695">
        <ele>185</ele>
        <time>2019-02-02T03:45:00.000Z</time>
      </trkpt>
      <trkpt lat="44.80725" lon="1.27687">
        <ele>187</ele>
        <time>2019-02-02T03:46:00.000Z</time>
      </trkpt>
      <trkpt lat="44.80734" lon="1.2768">
        <ele>188</ele>
        <time>2019-02-02T03:47:00.000Z</time>
      </trkpt>
      <trkpt lat="44.80744" lon="1.27674">
        <ele>189</ele>
        <time>2019-02-02T03:48:00.000Z</time>
      </trkpt>
      <trkpt lat="44.80755" lon="1.27668">
        <ele>191</ele>
        <time>2019-02-02T03:49:00.000Z</time>
      </trkpt>
      <trkpt lat="44.80764" lon="1.27663">
        <ele>191</ele>
        <time>2019-02-02T03:50:00.000Z</time>
      </trkpt>
      <trkpt lat="44.80774" lon="1.27657">
        <ele>192</ele>
        <time>2019-02-02T03:51:00.000Z</time>
      </trkpt>
      <trkpt lat="44.80783" lon="1.27651">
        <ele>193</ele>
        <time>2019-02-02T03:52:00.000Z</time>
      </trkpt>
      <trkpt lat="44.80792" lon="1.27648">
        <ele>193</ele>
        <time>2019-02-02T03:53:00.000Z</time>
      </trkpt>
      <trkpt lat="44.80804" lon="1.27647">
        <ele>194</ele>
        <time>2019-02-02T03:54:00.000Z</time>
      </trkpt>
      <trkpt lat="44.80831" lon="1.27646">
        <ele>197</ele>
        <time>2019-02-02T03:55:00.000Z</time>
      </trkpt>
      <trkpt lat="44.80851" lon="1.27645">
        <ele>199</ele>
        <time>2019-02-02T03:56:00.000Z</time>
      </trkpt>
      <trkpt lat="44.80862" lon="1.2764">
        <ele>200</ele>
        <time>2019-02-02T03:57:00.000Z</time>
      </trkpt>
      <trkpt lat="44.80875" lon="1.27639">
        <ele>201</ele>
        <time>2019-02-02T03:58:00.000Z</time>
      </trkpt>
      <trkpt lat="44.80887" lon="1.27637">
        <ele>202</ele>
        <time>2019-02-02T03:59:00.000Z</time>
      </trkpt>
      <trkpt lat="44.80898" lon="1.27633">
        <ele>203</ele>
        <time>2019-02-02T04:00:00.000Z</time>
      </trkpt>
      <trkpt lat="44.80912" lon="1.27627">
        <ele>204</ele>
        <time>2019-02-02T04:01:00.000Z</time>
      </trkpt>
      <trkpt lat="44.80922" lon="1.27622">
        <ele>204</ele>
        <time>2019-02-02T04:02:00.000Z</time>
      </trkpt>
      <trkpt lat="44.80935" lon="1.27612">
        <ele>205</ele>
        <time>2019-02-02T04:03:00.000Z</time>
      </trkpt>
      <trkpt lat="44.80955" lon="1.27594">
        <ele>207</ele>
        <time>2019-02-02T04:04:00.000Z</time>
      </trkpt>
      <trkpt lat="44.80967" lon="1.27585">
        <ele>209</ele>
        <time>2019-02-02T04:05:00.000Z</time>
      </trkpt>
      <trkpt lat="44.80979" lon="1.27577">
        <ele>210</ele>
        <time>2019-02-02T04:06:00.000Z</time>
      </trkpt>
      <trkpt lat="44.80991" lon="1.27569">
        <ele>213</ele>
        <time>2019-02-02T04:07:00.000Z</time>
      </trkpt>
      <trkpt lat="44.81002" lon="1.27555">
        <ele>215</ele>
        <time>2019-02-02T04:08:00.000Z</time>
      </trkpt>
      <trkpt lat="44.81006" lon="1.27538">
        <ele>216</ele>
        <time>2019-02-02T04:09:00.000Z</time>
      </trkpt>
      <trkpt lat="44.81002" lon="1.27523">
        <ele>215</ele>
        <time>2019-02-02T04:10:00.000Z</time>
      </trkpt>
      <trkpt lat="44.80999" lon="1.27507">
        <ele>214</ele>
        <time>2019-02-02T04:11:00.000Z</time>
      </trkpt>
      <trkpt lat="44.81001" lon="1.2749">
        <ele>214</ele>
        <time>2019-02-02T04:12:00.000Z</time>
      </trkpt>
      <trkpt lat="44.81002" lon="1.27476">
        <ele>215</ele>
        <time>2019-02-02T04:13:00.000Z</time>
      </trkpt>
      <trkpt lat="44.81001" lon="1.27459">
        <ele>215</ele>
        <time>2019-02-02T04:14:00.000Z</time>
      </trkpt>
      <trkpt lat="44.81008" lon="1.27442">
        <ele>217</ele>
        <time>2019-02-02T04:15:00.000Z</time>
      </trkpt>
      <trkpt lat="44.8101" lon="1.27424">
        <ele>218</ele>
        <time>2019-02-02T04:16:00.000Z</time>
      </trkpt>
      <trkpt lat="44.81015" lon="1.27406">
        <ele>220</ele>
        <time>2019-02-02T04:17:00.000Z</time>
      </trkpt>
      <trkpt lat="44.81018" lon="1.27389">
        <ele>222</ele>
        <time>2019-02-02T04:18:00.000Z</time>
      </trkpt>
      <trkpt lat="44.81019" lon="1.27375">
        <ele>222</ele>
        <time>2019-02-02T04:19:00.000Z</time>
      </trkpt>
      <trkpt lat="44.81019" lon="1.27359">
        <ele>223</ele>
        <time>2019-02-02T04:20:00.000Z</time>
      </trkpt>
      <trkpt lat="44.81017" lon="1.27329">
        <ele>224</ele>
        <time>2019-02-02T04:21:00.000Z</time>
      </trkpt>
      <trkpt lat="44.81013" lon="1.27311">
        <ele>225</ele>
        <time>2019-02-02T04:22:00.000Z</time>
      </trkpt>
      <trkpt lat="44.81003" lon="1.27296">
        <ele>225</ele>
        <time>2019-02-02T04:23:00.000Z</time>
      </trkpt>
      <trkpt lat="44.80991" lon="1.27294">
        <ele>224</ele>
        <time>2019-02-02T04:24:00.000Z</time>
      </trkpt>
      <trkpt lat="44.80978" lon="1.273">
        <ele>223</ele>
        <time>2019-02-02T04:25:00.000Z</time>
      </trkpt>
      <trkpt lat="44.80957" lon="1.27312">
        <ele>221</ele>
        <time>2019-02-02T04:26:00.000Z</time>
      </trkpt>
      <trkpt lat="44.80948" lon="1.27317">
        <ele>220</ele>
        <time>2019-02-02T04:27:00.000Z</time>
      </trkpt>
      <trkpt lat="44.80915" lon="1.27327">
        <ele>218</ele>
        <time>2019-02-02T04:28:00.000Z</time>
      </trkpt>
      <trkpt lat="44.80898" lon="1.27326">
        <ele>219</ele>
        <time>2019-02-02T04:29:00.000Z</time>
      </trkpt>
      <trkpt lat="44.80881" lon="1.27318">
        <ele>220</ele>
        <time>2019-02-02T04:30:00.000Z</time>
      </trkpt>
      <trkpt lat="44.80868" lon="1.27306">
        <ele>221</ele>
        <time>2019-02-02T04:31:00.000Z</time>
      </trkpt>
      <trkpt lat="44.8086" lon="1.27288">
        <ele>222</ele>
        <time>2019-02-02T04:32:00.000Z</time>
      </trkpt>
      <trkpt lat="44.80856" lon="1.27271">
        <ele>223</ele>
        <time>2019-02-02T04:33:00.000Z</time>
      </trkpt>
      <trkpt lat="44.80857" lon="1.27249">
        <ele>225</ele>
        <time>2019-02-02T04:34:00.000Z</time>
      </trkpt>
      <trkpt lat="44.80859" lon="1.27231">
        <ele>225</ele>
        <time>2019-02-02T04:35:00.000Z</time>
      </trkpt>
      <trkpt lat="44.8087" lon="1.2717">
        <ele>229</ele>
        <time>2019-02-02T04:36:00.000Z</time>
      </trkpt>
      <trkpt lat="44.80875" lon="1.27149">
        <ele>230</ele>
        <time>2019-02-02T04:37:00.000Z</time>
      </trkpt>
      <trkpt lat="44.80881" lon="1.27108">
        <ele>233</ele>
        <time>2019-02-02T04:38:00.000Z</time>
      </trkpt>
      <trkpt lat="44.80883" lon="1.27093">
        <ele>233</ele>
        <time>2019-02-02T04:39:00.000Z</time>
      </trkpt>
      <trkpt lat="44.80885" lon="1.27077">
        <ele>234</ele>
        <time>2019-02-02T04:40:00.000Z</time>
      </trkpt>
      <trkpt lat="44.80878" lon="1.2705">
        <ele>234</ele>
        <time>2019-02-02T04:41:00.000Z</time>
      </trkpt>
      <trkpt lat="44.80872" lon="1.27029">
        <ele>234</ele>
        <time>2019-02-02T04:42:00.000Z</time>
      </trkpt>
      <trkpt lat="44.80862" lon="1.27012">
        <ele>233</ele>
        <time>2019-02-02T04:43:00.000Z</time>
      </trkpt>
      <trkpt lat="44.8085" lon="1.26985">
        <ele>233</ele>
        <time>2019-02-02T04:44:00.000Z</time>
      </trkpt>
      <trkpt lat="44.8084" lon="1.26959">
        <ele>232</ele>
        <time>2019-02-02T04:45:00.000Z</time>
      </trkpt>
      <trkpt lat="44.80835" lon="1.26933">
        <ele>233</ele>
        <time>2019-02-02T04:46:00.000Z</time>
      </trkpt>
      <trkpt lat="44.80832" lon="1.26906">
        <ele>233</ele>
        <time>2019-02-02T04:47:00.000Z</time>
      </trkpt>
      <trkpt lat="44.80828" lon="1.26878">
        <ele>232</ele>
        <time>2019-02-02T04:48:00.000Z</time>
      </trkpt>
      <trkpt lat="44.80822" lon="1.26854">
        <ele>232</ele>
        <time>2019-02-02T04:49:00.000Z</time>
      </trkpt>
      <trkpt lat="44.80802" lon="1.26798">
        <ele>230</ele>
        <time>2019-02-02T04:50:00.000Z</time>
      </trkpt>
      <trkpt lat="44.8079" lon="1.26768">
        <ele>230</ele>
        <time>2019-02-02T04:51:00.000Z</time>
      </trkpt>
      <trkpt lat="44.8078" lon="1.2674">
        <ele>230</ele>
        <time>2019-02-02T04:52:00.000Z</time>
      </trkpt>
      <trkpt lat="44.80772" lon="1.26717">
        <ele>231</ele>
        <time>2019-02-02T04:53:00.000Z</time>
      </trkpt>
      <trkpt lat="44.80763" lon="1.26694">
        <ele>231</ele>
        <time>2019-02-02T04:54:00.000Z</time>
      </trkpt>
      <trkpt lat="44.80752" lon="1.26653">
        <ele>230</ele>
        <time>2019-02-02T04:55:00.000Z</time>
      </trkpt>
      <trkpt lat="44.80735" lon="1.26593">
        <ele>227</ele>
        <time>2019-02-02T04:56:00.000Z</time>
      </trkpt>
      <trkpt lat="44.8071" lon="1.26526">
        <ele>227</ele>
        <time>2019-02-02T04:57:00.000Z</time>
      </trkpt>
      <trkpt lat="44.80683" lon="1.26495">
        <ele>228</ele>
        <time>2019-02-02T04:58:00.000Z</time>
      </trkpt>
      <trkpt lat="44.80664" lon="1.26485">
        <ele>229</ele>
        <time>2019-02-02T04:59:00.000Z</time>
      </trkpt>
      <trkpt lat="44.80646" lon="1.26475">
        <ele>229</ele>
        <time>2019-02-02T05:00:00.000Z</time>
      </trkpt>
      <trkpt lat="44.8063" lon="1.26463">
        <ele>229</ele>
        <time>2019-02-02T05:01:00.000Z</time>
      </trkpt>
      <trkpt lat="44.80593" lon="1.26437">
        <ele>230</ele>
        <time>2019-02-02T05:02:00.000Z</time>
      </trkpt>
      <trkpt lat="44.80574" lon="1.26424">
        <ele>232</ele>
        <time>2019-02-02T05:03:00.000Z</time>
      </trkpt>
      <trkpt lat="44.80559" lon="1.26412">
        <ele>235</ele>
        <time>2019-02-02T05:04:00.000Z</time>
      </trkpt>
      <trkpt lat="44.80545" lon="1.26401">
        <ele>238</ele>
        <time>2019-02-02T05:05:00.000Z</time>
      </trkpt>
      <trkpt lat="44.80534" lon="1.26391">
        <ele>241</ele>
        <time>2019-02-02T05:06:00.000Z</time>
      </trkpt>
      <trkpt lat="44.80527" lon="1.26377">
        <ele>243</ele>
        <time>2019-02-02T05:07:00.000Z</time>
      </trkpt>
      <trkpt lat="44.80523" lon="1.26354">
        <ele>245</ele>
        <time>2019-02-02T05:08:00.000Z</time>
      </trkpt>
      <trkpt lat="44.80525" lon="1.26328">
        <ele>247</ele>
        <time>2019-02-02T05:09:00.000Z</time>
      </trkpt>
      <trkpt lat="44.80533" lon="1.26311">
        <ele>246</ele>
        <time>2019-02-02T05:10:00.000Z</time>
      </trkpt>
      <trkpt lat="44.8054" lon="1.26295">
        <ele>246</ele>
        <time>2019-02-02T05:11:00.000Z</time>
      </trkpt>
      <trkpt lat="44.80547" lon="1.26276">
        <ele>246</ele>
        <time>2019-02-02T05:12:00.000Z</time>
      </trkpt>
      <trkpt lat="44.80552" lon="1.26256">
        <ele>246</ele>
        <time>2019-02-02T05:13:00.000Z</time>
      </trkpt>
      <trkpt lat="44.80556" lon="1.26234">
        <ele>247</ele>
        <time>2019-02-02T05:14:00.000Z</time>
      </trkpt>
      <trkpt lat="44.80563" lon="1.26212">
        <ele>247</ele>
        <time>2019-02-02T05:15:00.000Z</time>
      </trkpt>
      <trkpt lat="44.80568" lon="1.26188">
        <ele>247</ele>
        <time>2019-02-02T05:16:00.000Z</time>
      </trkpt>
      <trkpt lat="44.80572" lon="1.26162">
        <ele>248</ele>
        <time>2019-02-02T05:17:00.000Z</time>
      </trkpt>
      <trkpt lat="44.80575" lon="1.26139">
        <ele>247</ele>
        <time>2019-02-02T05:18:00.000Z</time>
      </trkpt>
      <trkpt lat="44.80577" lon="1.26116">
        <ele>247</ele>
        <time>2019-02-02T05:19:00.000Z</time>
      </trkpt>
      <trkpt lat="44.80578" lon="1.2609">
        <ele>247</ele>
        <time>2019-02-02T05:20:00.000Z</time>
      </trkpt>
      <trkpt lat="44.80582" lon="1.26071">
        <ele>248</ele>
        <time>2019-02-02T05:21:00.000Z</time>
      </trkpt>
      <trkpt lat="44.80587" lon="1.26053">
        <ele>249</ele>
        <time>2019-02-02T05:22:00.000Z</time>
      </trkpt>
      <trkpt lat="44.80593" lon="1.26036">
        <ele>249</ele>
        <time>2019-02-02T05:23:00.000Z</time>
      </trkpt>
      <trkpt lat="44.80606" lon="1.26011">
        <ele>249</ele>
        <time>2019-02-02T05:24:00.000Z</time>
      </trkpt>
      <trkpt lat="44.80616" lon="1.25984">
        <ele>249</ele>
        <time>2019-02-02T05:25:00.000Z</time>
      </trkpt>
      <trkpt lat="44.8063" lon="1.2596">
        <ele>248</ele>
        <time>2019-02-02T05:26:00.000Z</time>
      </trkpt>
      <trkpt lat="44.80646" lon="1.25941">
        <ele>245</ele>
        <time>2019-02-02T05:27:00.000Z</time>
      </trkpt>
      <trkpt lat="44.80652" lon="1.25911">
        <ele>245</ele>
        <time>2019-02-02T05:28:00.000Z</time>
      </trkpt>
      <trkpt lat="44.80647" lon="1.25871">
        <ele>248</ele>
        <time>2019-02-02T05:29:00.000Z</time>
      </trkpt>
      <trkpt lat="44.8064" lon="1.25837">
        <ele>251</ele>
        <time>2019-02-02T05:30:00.000Z</time>
      </trkpt>
      <trkpt lat="44.80637" lon="1.25797">
        <ele>252</ele>
        <time>2019-02-02T05:31:00.000Z</time>
      </trkpt>
      <trkpt lat="44.80642" lon="1.2576">
        <ele>250</ele>
        <time>2019-02-02T05:32:00.000Z</time>
      </trkpt>
      <trkpt lat="44.80662" lon="1.25735">
        <ele>246</ele>
        <time>2019-02-02T05:33:00.000Z</time>
      </trkpt>
      <trkpt lat="44.80692" lon="1.25709">
        <ele>240</ele>
        <time>2019-02-02T05:34:00.000Z</time>
      </trkpt>
      <trkpt lat="44.80722" lon="1.25667">
        <ele>235</ele>
        <time>2019-02-02T05:35:00.000Z</time>
      </trkpt>
      <trkpt lat="44.8073" lon="1.25614">
        <ele>237</ele>
        <time>2019-02-02T05:36:00.000Z</time>
      </trkpt>
      <trkpt lat="44.8075" lon="1.25552">
        <ele>236</ele>
        <time>2019-02-02T05:37:00.000Z</time>
      </trkpt>
      <trkpt lat="44.80783" lon="1.25515">
        <ele>231</ele>
        <time>2019-02-02T05:38:00.000Z</time>
      </trkpt>
      <trkpt lat="44.80823" lon="1.2547">
        <ele>227</ele>
        <time>2019-02-02T05:39:00.000Z</time>
      </trkpt>
      <trkpt lat="44.80832" lon="1.25397">
        <ele>228</ele>
        <time>2019-02-02T05:40:00.000Z</time>
      </trkpt>
      <trkpt lat="44.80816" lon="1.25329">
        <ele>225</ele>
        <time>2019-02-02T05:41:00.000Z</time>
      </trkpt>
      <trkpt lat="44.80766" lon="1.25295">
        <ele>224</ele>
        <time>2019-02-02T05:42:00.000Z</time>
      </trkpt>
      <trkpt lat="44.80738" lon="1.25258">
        <ele>223</ele>
        <time>2019-02-02T05:43:00.000Z</time>
      </trkpt>
      <trkpt lat="44.80743" lon="1.25188">
        <ele>217</ele>
        <time>2019-02-02T05:44:00.000Z</time>
      </trkpt>
      <trkpt lat="44.80738" lon="1.25119">
        <ele>215</ele>
        <time>2019-02-02T05:45:00.000Z</time>
      </trkpt>
      <trkpt lat="44.80726" lon="1.25051">
        <ele>214</ele>
        <time>2019-02-02T05:46:00.000Z</time>
      </trkpt>
      <trkpt lat="44.80736" lon="1.2497">
        <ele>212</ele>
        <time>2019-02-02T05:47:00.000Z</time>
      </trkpt>
      <trkpt lat="44.80699" lon="1.24903">
        <ele>210</ele>
        <time>2019-02-02T05:48:00.000Z</time>
      </trkpt>
      <trkpt lat="44.80666" lon="1.24827">
        <ele>204</ele>
        <time>2019-02-02T05:49:00.000Z</time>
      </trkpt>
      <trkpt lat="44.80634" lon="1.24758">
        <ele>204</ele>
        <time>2019-02-02T05:50:00.000Z</time>
      </trkpt>
      <trkpt lat="44.806" lon="1.24703">
        <ele>197</ele>
        <time>2019-02-02T05:51:00.000Z</time>
      </trkpt>
      <trkpt lat="44.80597" lon="1.24643">
        <ele>194</ele>
        <time>2019-02-02T05:52:00.000Z</time>
      </trkpt>
      <trkpt lat="44.80616" lon="1.24568">
        <ele>192</ele>
        <time>2019-02-02T05:53:00.000Z</time>
      </trkpt>
      <trkpt lat="44.80643" lon="1.24523">
        <ele>190</ele>
        <time>2019-02-02T05:54:00.000Z</time>
      </trkpt>
      <trkpt lat="44.80665" lon="1.24478">
        <ele>187</ele>
        <time>2019-02-02T05:55:00.000Z</time>
      </trkpt>
      <trkpt lat="44.80686" lon="1.2442">
        <ele>184</ele>
        <time>2019-02-02T05:56:00.000Z</time>
      </trkpt>
      <trkpt lat="44.80709" lon="1.24358">
        <ele>181</ele>
        <time>2019-02-02T05:57:00.000Z</time>
      </trkpt>
      <trkpt lat="44.80705" lon="1.24288">
        <ele>184</ele>
        <time>2019-02-02T05:58:00.000Z</time>
      </trkpt>
      <trkpt lat="44.80668" lon="1.24246">
        <ele>182</ele>
        <time>2019-02-02T05:59:00.000Z</time>
      </trkpt>
      <trkpt lat="44.80667" lon="1.24197">
        <ele>183</ele>
        <time>2019-02-02T06:00:00.000Z</time>
      </trkpt>
      <trkpt lat="44.80674" lon="1.24158">
        <ele>186</ele>
        <time>2019-02-02T06:01:00.000Z</time>
      </trkpt>
      <trkpt lat="44.80675" lon="1.24127">
        <ele>187</ele>
        <time>2019-02-02T06:02:00.000Z</time>
      </trkpt>
      <trkpt lat="44.80672" lon="1.24097">
        <ele>187</ele>
        <time>2019-02-02T06:03:00.000Z</time>
      </trkpt>
      <trkpt lat="44.80668" lon="1.24072">
        <ele>186</ele>
        <time>2019-02-02T06:04:00.000Z</time>
      </trkpt>
      <trkpt lat="44.80661" lon="1.24041">
        <ele>186</ele>
        <time>2019-02-02T06:05:00.000Z</time>
      </trkpt>
      <trkpt lat="44.80653" lon="1.23994">
        <ele>186</ele>
        <time>2019-02-02T06:06:00.000Z</time>
      </trkpt>
      <trkpt lat="44.80642" lon="1.23956">
        <ele>184</ele>
        <time>2019-02-02T06:07:00.000Z</time>
      </trkpt>
      <trkpt lat="44.80633" lon="1.23918">
        <ele>182</ele>
        <time>2019-02-02T06:08:00.000Z</time>
      </trkpt>
      <trkpt lat="44.80619" lon="1.23877">
        <ele>179</ele>
        <time>2019-02-02T06:09:00.000Z</time>
      </trkpt>
      <trkpt lat="44.80608" lon="1.23841">
        <ele>177</ele>
        <time>2019-02-02T06:10:00.000Z</time>
      </trkpt>
      <trkpt lat="44.80609" lon="1.23797">
        <ele>177</ele>
        <time>2019-02-02T06:11:00.000Z</time>
      </trkpt>
      <trkpt lat="44.80634" lon="1.23771">
        <ele>180</ele>
        <time>2019-02-02T06:12:00.000Z</time>
      </trkpt>
      <trkpt lat="44.80616" lon="1.23713">
        <ele>178</ele>
        <time>2019-02-02T06:13:00.000Z</time>
      </trkpt>
      <trkpt lat="44.80588" lon="1.23683">
        <ele>173</ele>
        <time>2019-02-02T06:14:00.000Z</time>
      </trkpt>
      <trkpt lat="44.8057" lon="1.23661">
        <ele>171</ele>
        <time>2019-02-02T06:15:00.000Z</time>
      </trkpt>
      <trkpt lat="44.80565" lon="1.23647">
        <ele>170</ele>
        <time>2019-02-02T06:16:00.000Z</time>
      </trkpt>
      <trkpt lat="44.80585" lon="1.23534">
        <ele>167</ele>
        <time>2019-02-02T06:17:00.000Z</time>
      </trkpt>
      <trkpt lat="44.8066" lon="1.23414">
        <ele>164</ele>
        <time>2019-02-02T06:18:00.000Z</time>
      </trkpt>
      <trkpt lat="44.80675" lon="1.2323">
        <ele>159</ele>
        <time>2019-02-02T06:19:00.000Z</time>
      </trkpt>
      <trkpt lat="44.80643" lon="1.23089">
        <ele>148</ele>
        <time>2019-02-02T06:20:00.000Z</time>
      </trkpt>
      <trkpt lat="44.8057" lon="1.23048">
        <ele>145</ele>
        <time>2019-02-02T06:21:00.000Z</time>
      </trkpt>
      <trkpt lat="44.8053" lon="1.23003">
        <ele>148</ele>
        <time>2019-02-02T06:22:00.000Z</time>
      </trkpt>
      <trkpt lat="44.80492" lon="1.2296">
        <ele>147</ele>
        <time>2019-02-02T06:23:00.000Z</time>
      </trkpt>
      <trkpt lat="44.80445" lon="1.22906">
        <ele>143</ele>
        <time>2019-02-02T06:24:00.000Z</time>
      </trkpt>
      <trkpt lat="44.80397" lon="1.22924">
        <ele>150</ele>
        <time>2019-02-02T06:25:00.000Z</time>
      </trkpt>
      <trkpt lat="44.80353" lon="1.22951">
        <ele>153</ele>
        <time>2019-02-02T06:26:00.000Z</time>
      </trkpt>
      <trkpt lat="44.80336" lon="1.23052">
        <ele>159</ele>
        <time>2019-02-02T06:27:00.000Z</time>
      </trkpt>
      <trkpt lat="44.80272" lon="1.23048">
        <ele>165</ele>
        <time>2019-02-02T06:28:00.000Z</time>
      </trkpt>
      <trkpt lat="44.80255" lon="1.22984">
        <ele>161</ele>
        <time>2019-02-02T06:29:00.000Z</time>
      </trkpt>
      <trkpt lat="44.80239" lon="1.22926">
        <ele>166</ele>
        <time>2019-02-02T06:30:00.000Z</time>
      </trkpt>
      <trkpt lat="44.80249" lon="1.22878">
        <ele>168</ele>
        <time>2019-02-02T06:31:00.000Z</time>
      </trkpt>
      <trkpt lat="44.8029" lon="1.22812">
        <ele>162</ele>
        <time>2019-02-02T06:32:00.000Z</time>
      </trkpt>
      <trkpt lat="44.8027" lon="1.22759">
        <ele>167</ele>
        <time>2019-02-02T06:33:00.000Z</time>
      </trkpt>
      <trkpt lat="44.8026" lon="1.22716">
        <ele>171</ele>
        <time>2019-02-02T06:34:00.000Z</time>
      </trkpt>
      <trkpt lat="44.80301" lon="1.22683">
        <ele>168</ele>
        <time>2019-02-02T06:35:00.000Z</time>
      </trkpt>
      <trkpt lat="44.80323" lon="1.22634">
        <ele>171</ele>
        <time>2019-02-02T06:36:00.000Z</time>
      </trkpt>
      <trkpt lat="44.80352" lon="1.22581">
        <ele>170</ele>
        <time>2019-02-02T06:37:00.000Z</time>
      </trkpt>
      <trkpt lat="44.80342" lon="1.22505">
        <ele>176</ele>
        <time>2019-02-02T06:38:00.000Z</time>
      </trkpt>
      <trkpt lat="44.80348" lon="1.22434">
        <ele>177</ele>
        <time>2019-02-02T06:39:00.000Z</time>
      </trkpt>
      <trkpt lat="44.80339" lon="1.22372">
        <ele>181</ele>
        <time>2019-02-02T06:40:00.000Z</time>
      </trkpt>
      <trkpt lat="44.80348" lon="1.22295">
        <ele>179</ele>
        <time>2019-02-02T06:41:00.000Z</time>
      </trkpt>
      <trkpt lat="44.80311" lon="1.22259">
        <ele>180</ele>
        <time>2019-02-02T06:42:00.000Z</time>
      </trkpt>
      <trkpt lat="44.80258" lon="1.22192">
        <ele>174</ele>
        <time>2019-02-02T06:43:00.000Z</time>
      </trkpt>
      <trkpt lat="44.80211" lon="1.22101">
        <ele>173</ele>
        <time>2019-02-02T06:44:00.000Z</time>
      </trkpt>
      <trkpt lat="44.80192" lon="1.2205">
        <ele>177</ele>
        <time>2019-02-02T06:45:00.000Z</time>
      </trkpt>
      <trkpt lat="44.80167" lon="1.21979">
        <ele>181</ele>
        <time>2019-02-02T06:46:00.000Z</time>
      </trkpt>
      <trkpt lat="44.80148" lon="1.21937">
        <ele>177</ele>
        <time>2019-02-02T06:47:00.000Z</time>
      </trkpt>
      <trkpt lat="44.80165" lon="1.21873">
        <ele>177</ele>
        <time>2019-02-02T06:48:00.000Z</time>
      </trkpt>
      <trkpt lat="44.80187" lon="1.21827">
        <ele>176</ele>
        <time>2019-02-02T06:49:00.000Z</time>
      </trkpt>
      <trkpt lat="44.80211" lon="1.21801">
        <ele>178</ele>
        <time>2019-02-02T06:50:00.000Z</time>
      </trkpt>
      <trkpt lat="44.80237" lon="1.21762">
        <ele>185</ele>
        <time>2019-02-02T06:51:00.000Z</time>
      </trkpt>
      <trkpt lat="44.80237" lon="1.21721">
        <ele>191</ele>
        <time>2019-02-02T06:52:00.000Z</time>
      </trkpt>
      <trkpt lat="44.80225" lon="1.21703">
        <ele>192</ele>
        <time>2019-02-02T06:53:00.000Z</time>
      </trkpt>
      <trkpt lat="44.8021" lon="1.21684">
        <ele>193</ele>
        <time>2019-02-02T06:54:00.000Z</time>
      </trkpt>
      <trkpt lat="44.8019" lon="1.21667">
        <ele>193</ele>
        <time>2019-02-02T06:55:00.000Z</time>
      </trkpt>
      <trkpt lat="44.80189" lon="1.21641">
        <ele>195</ele>
        <time>2019-02-02T06:56:00.000Z</time>
      </trkpt>
      <trkpt lat="44.80191" lon="1.21665">
        <ele>193</ele>
        <time>2019-02-02T06:57:00.000Z</time>
      </trkpt>
      <trkpt lat="44.80174" lon="1.21632">
        <ele>194</ele>
        <time>2019-02-02T06:58:00.000Z</time>
      </trkpt>
      <trkpt lat="44.80177" lon="1.21617">
        <ele>196</ele>
        <time>2019-02-02T06:59:00.000Z</time>
      </trkpt>
      <trkpt lat="44.80195" lon="1.21618">
        <ele>198</ele>
        <time>2019-02-02T07:00:00.000Z</time>
      </trkpt>
      <trkpt lat="44.802" lon="1.21594">
        <ele>202</ele>
        <time>2019-02-02T07:01:00.000Z</time>
      </trkpt>
      <trkpt lat="44.80186" lon="1.21572">
        <ele>201</ele>
        <time>2019-02-02T07:02:00.000Z</time>
      </trkpt>
      <trkpt lat="44.80183" lon="1.21549">
        <ele>202</ele>
        <time>2019-02-02T07:03:00.000Z</time>
      </trkpt>
      <trkpt lat="44.80186" lon="1.21536">
        <ele>203</ele>
        <time>2019-02-02T07:04:00.000Z</time>
      </trkpt>
      <trkpt lat="44.80176" lon="1.2152">
        <ele>202</ele>
        <time>2019-02-02T07:05:00.000Z</time>
      </trkpt>
      <trkpt lat="44.80168" lon="1.21491">
        <ele>202</ele>
        <time>2019-02-02T07:06:00.000Z</time>
      </trkpt>
      <trkpt lat="44.80191" lon="1.2149">
        <ele>205</ele>
        <time>2019-02-02T07:07:00.000Z</time>
      </trkpt>
      <trkpt lat="44.80212" lon="1.21481">
        <ele>207</ele>
        <time>2019-02-02T07:08:00.000Z</time>
      </trkpt>
      <trkpt lat="44.80225" lon="1.21474">
        <ele>208</ele>
        <time>2019-02-02T07:09:00.000Z</time>
      </trkpt>
      <trkpt lat="44.80237" lon="1.2146">
        <ele>209</ele>
        <time>2019-02-02T07:10:00.000Z</time>
      </trkpt>
      <trkpt lat="44.80244" lon="1.21483">
        <ele>210</ele>
        <time>2019-02-02T07:11:00.000Z</time>
      </trkpt>
      <trkpt lat="44.80241" lon="1.21496">
        <ele>210</ele>
        <time>2019-02-02T07:12:00.000Z</time>
      </trkpt>
      <trkpt lat="44.80251" lon="1.21509">
        <ele>211</ele>
        <time>2019-02-02T07:13:00.000Z</time>
      </trkpt>
      <trkpt lat="44.80243" lon="1.21537">
        <ele>210</ele>
        <time>2019-02-02T07:14:00.000Z</time>
      </trkpt>
      <trkpt lat="44.8026" lon="1.21554">
        <ele>211</ele>
        <time>2019-02-02T07:15:00.000Z</time>
      </trkpt>
      <trkpt lat="44.80273" lon="1.21559">
        <ele>212</ele>
        <time>2019-02-02T07:16:00.000Z</time>
      </trkpt>
      <trkpt lat="44.80303" lon="1.21551">
        <ele>214</ele>
        <time>2019-02-02T07:17:00.000Z</time>
      </trkpt>
      <trkpt lat="44.80333" lon="1.21513">
        <ele>217</ele>
        <time>2019-02-02T07:18:00.000Z</time>
      </trkpt>
      <trkpt lat="44.80329" lon="1.21494">
        <ele>216</ele>
        <time>2019-02-02T07:19:00.000Z</time>
      </trkpt>
      <trkpt lat="44.80339" lon="1.21475">
        <ele>214</ele>
        <time>2019-02-02T07:20:00.000Z</time>
      </trkpt>
      <trkpt lat="44.80329" lon="1.2145">
        <ele>214</ele>
        <time>2019-02-02T07:21:00.000Z</time>
      </trkpt>
      <trkpt lat="44.80335" lon="1.21435">
        <ele>213</ele>
        <time>2019-02-02T07:22:00.000Z</time>
      </trkpt>
      <trkpt lat="44.80308" lon="1.21427">
        <ele>212</ele>
        <time>2019-02-02T07:23:00.000Z</time>
      </trkpt>
      <trkpt lat="44.80299" lon="1.21431">
        <ele>212</ele>
        <time>2019-02-02T07:24:00.000Z</time>
      </trkpt>
      <trkpt lat="44.80271" lon="1.21452">
        <ele>212</ele>
        <time>2019-02-02T07:25:00.000Z</time>
      </trkpt>
      <trkpt lat="44.80253" lon="1.21462">
        <ele>211</ele>
        <time>2019-02-02T07:26:00.000Z</time>
      </trkpt>
      <trkpt lat="44.80235" lon="1.21479">
        <ele>209</ele>
        <time>2019-02-02T07:27:00.000Z</time>
      </trkpt>
      <trkpt lat="44.80242" lon="1.21447">
        <ele>209</ele>
        <time>2019-02-02T07:28:00.000Z</time>
      </trkpt>
      <trkpt lat="44.80224" lon="1.21459">
        <ele>208</ele>
        <time>2019-02-02T07:29:00.000Z</time>
      </trkpt>
      <trkpt lat="44.80213" lon="1.21483">
        <ele>207</ele>
        <time>2019-02-02T07:30:00.000Z</time>
      </trkpt>
      <trkpt lat="44.80205" lon="1.2149">
        <ele>206</ele>
        <time>2019-02-02T07:31:00.000Z</time>
      </trkpt>
      <trkpt lat="44.80229" lon="1.21472">
        <ele>208</ele>
        <time>2019-02-02T07:32:00.000Z</time>
      </trkpt>
      <trkpt lat="44.80249" lon="1.21471">
        <ele>211</ele>
        <time>2019-02-02T07:33:00.000Z</time>
      </trkpt>
      <trkpt lat="44.80275" lon="1.21443">
        <ele>212</ele>
        <time>2019-02-02T07:34:00.000Z</time>
      </trkpt>
      <trkpt lat="44.80293" lon="1.21442">
        <ele>212</ele>
        <time>2019-02-02T07:35:00.000Z</time>
      </trkpt>
      <trkpt lat="44.80299" lon="1.21431">
        <ele>212</ele>
        <time>2019-02-02T07:36:00.000Z</time>
      </trkpt>
      <trkpt lat="44.80318" lon="1.21447">
        <ele>214</ele>
        <time>2019-02-02T07:37:00.000Z</time>
      </trkpt>
      <trkpt lat="44.8034" lon="1.21429">
        <ele>210</ele>
        <time>2019-02-02T07:38:00.000Z</time>
      </trkpt>
      <trkpt lat="44.80369" lon="1.21433">
        <ele>197</ele>
        <time>2019-02-02T07:39:00.000Z</time>
      </trkpt>
      <trkpt lat="44.80376" lon="1.2142">
        <ele>192</ele>
        <time>2019-02-02T07:40:00.000Z</time>
      </trkpt>
      <trkpt lat="44.80374" lon="1.21433">
        <ele>195</ele>
        <time>2019-02-02T07:41:00.000Z</time>
      </trkpt>
      <trkpt lat="44.80363" lon="1.21421">
        <ele>199</ele>
        <time>2019-02-02T07:42:00.000Z</time>
      </trkpt>
      <trkpt lat="44.80375" lon="1.21443">
        <ele>196</ele>
        <time>2019-02-02T07:43:00.000Z</time>
      </trkpt>
      <trkpt lat="44.80373" lon="1.21417">
        <ele>194</ele>
        <time>2019-02-02T07:44:00.000Z</time>
      </trkpt>
      <trkpt lat="44.80375" lon="1.21432">
        <ele>194</ele>
        <time>2019-02-02T07:45:00.000Z</time>
      </trkpt>
      <trkpt lat="44.80356" lon="1.21422">
        <ele>202</ele>
        <time>2019-02-02T07:46:00.000Z</time>
      </trkpt>
      <trkpt lat="44.80341" lon="1.21423">
        <ele>210</ele>
        <time>2019-02-02T07:47:00.000Z</time>
      </trkpt>
      <trkpt lat="44.80328" lon="1.21428">
        <ele>213</ele>
        <time>2019-02-02T07:48:00.000Z</time>
      </trkpt>
      <trkpt lat="44.80318" lon="1.21438">
        <ele>213</ele>
        <time>2019-02-02T07:49:00.000Z</time>
      </trkpt>
      <trkpt lat="44.80301" lon="1.21425">
        <ele>212</ele>
        <time>2019-02-02T07:50:00.000Z</time>
      </trkpt>
      <trkpt lat="44.80278" lon="1.21415">
        <ele>211</ele>
        <time>2019-02-02T07:51:00.000Z</time>
      </trkpt>
      <trkpt lat="44.80292" lon="1.21439">
        <ele>212</ele>
        <time>2019-02-02T07:52:00.000Z</time>
      </trkpt>
      <trkpt lat="44.80307" lon="1.21423">
        <ele>212</ele>
        <time>2019-02-02T07:53:00.000Z</time>
      </trkpt>
      <trkpt lat="44.80315" lon="1.21449">
        <ele>214</ele>
        <time>2019-02-02T07:54:00.000Z</time>
      </trkpt>
      <trkpt lat="44.80322" lon="1.21425">
        <ele>213</ele>
        <time>2019-02-02T07:55:00.000Z</time>
      </trkpt>
      <trkpt lat="44.80307" lon="1.21434">
        <ele>213</ele>
        <time>2019-02-02T07:56:00.000Z</time>
      </trkpt>
      <trkpt lat="44.80301" lon="1.21424">
        <ele>212</ele>
        <time>2019-02-02T07:57:00.000Z</time>
      </trkpt>
      <trkpt lat="44.8029" lon="1.21442">
        <ele>212</ele>
        <time>2019-02-02T07:58:00.000Z</time>
      </trkpt>
      <trkpt lat="44.80232" lon="1.2149">
        <ele>209</ele>
        <time>2019-02-02T07:59:00.000Z</time>
      </trkpt>
      <trkpt lat="44.80195" lon="1.215">
        <ele>205</ele>
        <time>2019-02-02T08:00:00.000Z</time>
      </trkpt>
      <trkpt lat="44.80168" lon="1.21495">
        <ele>202</ele>
        <time>2019-02-02T08:01:00.000Z</time>
      </trkpt>
      <trkpt lat="44.80147" lon="1.21462">
        <ele>199</ele>
        <time>2019-02-02T08:02:00.000Z</time>
      </trkpt>
      <trkpt lat="44.80151" lon="1.21417">
        <ele>199</ele>
        <time>2019-02-02T08:03:00.000Z</time>
      </trkpt>
      <trkpt lat="44.8017" lon="1.21398">
        <ele>201</ele>
        <time>2019-02-02T08:04:00.000Z</time>
      </trkpt>
      <trkpt lat="44.80121" lon="1.21372">
        <ele>192</ele>
        <time>2019-02-02T08:05:00.000Z</time>
      </trkpt>
      <trkpt lat="44.80116" lon="1.21341">
        <ele>188</ele>
        <time>2019-02-02T08:06:00.000Z</time>
      </trkpt>
      <trkpt lat="44.80146" lon="1.21213">
        <ele>179</ele>
        <time>2019-02-02T08:07:00.000Z</time>
      </trkpt>
      <trkpt lat="44.8019" lon="1.20879">
        <ele>172</ele>
        <time>2019-02-02T08:08:00.000Z</time>
      </trkpt>
      <trkpt lat="44.80095" lon="1.20713">
        <ele>160</ele>
        <time>2019-02-02T08:09:00.000Z</time>
      </trkpt>
      <trkpt lat="44.80128" lon="1.20568">
        <ele>146</ele>
        <time>2019-02-02T08:10:00.000Z</time>
      </trkpt>
      <trkpt lat="44.80252" lon="1.20688">
        <ele>146</ele>
        <time>2019-02-02T08:11:00.000Z</time>
      </trkpt>
      <trkpt lat="44.80356" lon="1.20893">
        <ele>138</ele>
        <time>2019-02-02T08:12:00.000Z</time>
      </trkpt>
      <trkpt lat="44.80429" lon="1.21092">
        <ele>135</ele>
        <time>2019-02-02T08:13:00.000Z</time>
      </trkpt>
      <trkpt lat="44.80422" lon="1.20935">
        <ele>111</ele>
        <time>2019-02-02T08:14:00.000Z</time>
      </trkpt>
      <trkpt lat="44.80345" lon="1.20686">
        <ele>93</ele>
        <time>2019-02-02T08:15:00.000Z</time>
      </trkpt>
      <trkpt lat="44.80257" lon="1.20474">
        <ele>96</ele>
        <time>2019-02-02T08:16:00.000Z</time>
      </trkpt>
      <trkpt lat="44.80208" lon="1.20339">
        <ele>80</ele>
        <time>2019-02-02T08:17:00.000Z</time>
      </trkpt>
      <trkpt lat="44.80249" lon="1.20321">
        <ele>78</ele>
        <time>2019-02-02T08:18:00.000Z</time>
      </trkpt>
      <trkpt lat="44.80342" lon="1.20382">
        <ele>74</ele>
        <time>2019-02-02T08:19:00.000Z</time>
      </trkpt>
      <trkpt lat="44.80414" lon="1.204">
        <ele>72</ele>
        <time>2019-02-02T08:20:00.000Z</time>
      </trkpt>
      <trkpt lat="44.80482" lon="1.20439">
        <ele>73</ele>
        <time>2019-02-02T08:21:00.000Z</time>
      </trkpt>
      <trkpt lat="44.80547" lon="1.20453">
        <ele>71</ele>
        <time>2019-02-02T08:22:00.000Z</time>
      </trkpt>
      <trkpt lat="44.80601" lon="1.20479">
        <ele>70</ele>
        <time>2019-02-02T08:23:00.000Z</time>
      </trkpt>
      <trkpt lat="44.80676" lon="1.20504">
        <ele>72</ele>
        <time>2019-02-02T08:24:00.000Z</time>
      </trkpt>
      <trkpt lat="44.80759" lon="1.20525">
        <ele>73</ele>
        <time>2019-02-02T08:25:00.000Z</time>
      </trkpt>
      <trkpt lat="44.80846" lon="1.2057">
        <ele>76</ele>
        <time>2019-02-02T08:26:00.000Z</time>
      </trkpt>
      <trkpt lat="44.80933" lon="1.20617">
        <ele>79</ele>
        <time>2019-02-02T08:27:00.000Z</time>
      </trkpt>
      <trkpt lat="44.81054" lon="1.20531">
        <ele>78</ele>
        <time>2019-02-02T08:28:00.000Z</time>
      </trkpt>
      <trkpt lat="44.81104" lon="1.20481">
        <ele>77</ele>
        <time>2019-02-02T08:29:00.000Z</time>
      </trkpt>
      <trkpt lat="44.81135" lon="1.20429">
        <ele>78</ele>
        <time>2019-02-02T08:30:00.000Z</time>
      </trkpt>
      <trkpt lat="44.81186" lon="1.20374">
        <ele>81</ele>
        <time>2019-02-02T08:31:00.000Z</time>
      </trkpt>
      <trkpt lat="44.81228" lon="1.20322">
        <ele>83</ele>
        <time>2019-02-02T08:32:00.000Z</time>
      </trkpt>
      <trkpt lat="44.81275" lon="1.20254">
        <ele>84</ele>
        <time>2019-02-02T08:33:00.000Z</time>
      </trkpt>
      <trkpt lat="44.813" lon="1.2023">
        <ele>85</ele>
        <time>2019-02-02T08:34:00.000Z</time>
      </trkpt>
      <trkpt lat="44.8134" lon="1.20194">
        <ele>89</ele>
        <time>2019-02-02T08:35:00.000Z</time>
      </trkpt>
      <trkpt lat="44.81356" lon="1.20159">
        <ele>91</ele>
        <time>2019-02-02T08:36:00.000Z</time>
      </trkpt>
      <trkpt lat="44.8138" lon="1.20125">
        <ele>94</ele>
        <time>2019-02-02T08:37:00.000Z</time>
      </trkpt>
      <trkpt lat="44.81392" lon="1.2009">
        <ele>95</ele>
        <time>2019-02-02T08:38:00.000Z</time>
      </trkpt>
      <trkpt lat="44.81403" lon="1.20011">
        <ele>95</ele>
        <time>2019-02-02T08:39:00.000Z</time>
      </trkpt>
      <trkpt lat="44.81421" lon="1.19936">
        <ele>97</ele>
        <time>2019-02-02T08:40:00.000Z</time>
      </trkpt>
      <trkpt lat="44.81445" lon="1.19864">
        <ele>98</ele>
        <time>2019-02-02T08:41:00.000Z</time>
      </trkpt>
      <trkpt lat="44.81487" lon="1.19786">
        <ele>103</ele>
        <time>2019-02-02T08:42:00.000Z</time>
      </trkpt>
      <trkpt lat="44.81498" lon="1.19742">
        <ele>105</ele>
        <time>2019-02-02T08:43:00.000Z</time>
      </trkpt>
      <trkpt lat="44.81514" lon="1.19693">
        <ele>106</ele>
        <time>2019-02-02T08:44:00.000Z</time>
      </trkpt>
      <trkpt lat="44.81541" lon="1.19649">
        <ele>107</ele>
        <time>2019-02-02T08:45:00.000Z</time>
      </trkpt>
      <trkpt lat="44.81568" lon="1.19618">
        <ele>108</ele>
        <time>2019-02-02T08:46:00.000Z</time>
      </trkpt>
      <trkpt lat="44.8161" lon="1.19577">
        <ele>109</ele>
        <time>2019-02-02T08:47:00.000Z</time>
      </trkpt>
      <trkpt lat="44.81642" lon="1.1955">
        <ele>109</ele>
        <time>2019-02-02T08:48:00.000Z</time>
      </trkpt>
      <trkpt lat="44.81688" lon="1.19529">
        <ele>111</ele>
        <time>2019-02-02T08:49:00.000Z</time>
      </trkpt>
      <trkpt lat="44.81785" lon="1.19442">
        <ele>100</ele>
        <time>2019-02-02T08:50:00.000Z</time>
      </trkpt>
      <trkpt lat="44.81947" lon="1.19307">
        <ele>93</ele>
        <time>2019-02-02T08:51:00.000Z</time>
      </trkpt>
      <trkpt lat="44.82015" lon="1.19203">
        <ele>85</ele>
        <time>2019-02-02T08:52:00.000Z</time>
      </trkpt>
      <trkpt lat="44.82081" lon="1.19093">
        <ele>81</ele>
        <time>2019-02-02T08:53:00.000Z</time>
      </trkpt>
      <trkpt lat="44.82153" lon="1.19025">
        <ele>79</ele>
        <time>2019-02-02T08:54:00.000Z</time>
      </trkpt>
      <trkpt lat="44.82235" lon="1.18951">
        <ele>78</ele>
        <time>2019-02-02T08:55:00.000Z</time>
      </trkpt>
      <trkpt lat="44.82305" lon="1.18918">
        <ele>80</ele>
        <time>2019-02-02T08:56:00.000Z</time>
      </trkpt>
      <trkpt lat="44.82359" lon="1.18824">
        <ele>76</ele>
        <time>2019-02-02T08:57:00.000Z</time>
      </trkpt>
      <trkpt lat="44.82407" lon="1.18715">
        <ele>74</ele>
        <time>2019-02-02T08:58:00.000Z</time>
      </trkpt>
      <trkpt lat="44.82451" lon="1.18655">
        <ele>80</ele>
        <time>2019-02-02T08:59:00.000Z</time>
      </trkpt>
      <trkpt lat="44.82434" lon="1.18629">
        <ele>75</ele>
        <time>2019-02-02T09:00:00.000Z</time>
      </trkpt>
      <trkpt lat="44.82416" lon="1.18596">
        <ele>69</ele>
        <time>2019-02-02T09:01:00.000Z</time>
      </trkpt>
      <trkpt lat="44.82448" lon="1.18542">
        <ele>75</ele>
        <time>2019-02-02T09:02:00.000Z</time>
      </trkpt>
      <trkpt lat="44.82504" lon="1.18468">
        <ele>80</ele>
        <time>2019-02-02T09:03:00.000Z</time>
      </trkpt>
      <trkpt lat="44.82523" lon="1.184">
        <ele>83</ele>
        <time>2019-02-02T09:04:00.000Z</time>
      </trkpt>
      <trkpt lat="44.82537" lon="1.18324">
        <ele>78</ele>
        <time>2019-02-02T09:05:00.000Z</time>
      </trkpt>
      <trkpt lat="44.82581" lon="1.18253">
        <ele>77</ele>
        <time>2019-02-02T09:06:00.000Z</time>
      </trkpt>
      <trkpt lat="44.82611" lon="1.18239">
        <ele>97</ele>
        <time>2019-02-02T09:07:00.000Z</time>
      </trkpt>
      <trkpt lat="44.82627" lon="1.18149">
        <ele>92</ele>
        <time>2019-02-02T09:08:00.000Z</time>
      </trkpt>
      <trkpt lat="44.82644" lon="1.18085">
        <ele>83</ele>
        <time>2019-02-02T09:09:00.000Z</time>
      </trkpt>
      <trkpt lat="44.82658" lon="1.18018">
        <ele>75</ele>
        <time>2019-02-02T09:10:00.000Z</time>
      </trkpt>
      <trkpt lat="44.82702" lon="1.1796">
        <ele>80</ele>
        <time>2019-02-02T09:11:00.000Z</time>
      </trkpt>
      <trkpt lat="44.82721" lon="1.17895">
        <ele>81</ele>
        <time>2019-02-02T09:12:00.000Z</time>
      </trkpt>
      <trkpt lat="44.82707" lon="1.17856">
        <ele>80</ele>
        <time>2019-02-02T09:13:00.000Z</time>
      </trkpt>
      <trkpt lat="44.82705" lon="1.17795">
        <ele>88</ele>
        <time>2019-02-02T09:14:00.000Z</time>
      </trkpt>
      <trkpt lat="44.82692" lon="1.17693">
        <ele>99</ele>
        <time>2019-02-02T09:15:00.000Z</time>
      </trkpt>
      <trkpt lat="44.82665" lon="1.17618">
        <ele>108</ele>
        <time>2019-02-02T09:16:00.000Z</time>
      </trkpt>
      <trkpt lat="44.82614" lon="1.17561">
        <ele>98</ele>
        <time>2019-02-02T09:17:00.000Z</time>
      </trkpt>
      <trkpt lat="44.82548" lon="1.17492">
        <ele>84</ele>
        <time>2019-02-02T09:18:00.000Z</time>
      </trkpt>
      <trkpt lat="44.82526" lon="1.17395">
        <ele>84</ele>
        <time>2019-02-02T09:19:00.000Z</time>
      </trkpt>
      <trkpt lat="44.82528" lon="1.17311">
        <ele>95</ele>
        <time>2019-02-02T09:20:00.000Z</time>
      </trkpt>
      <trkpt lat="44.8252" lon="1.17226">
        <ele>99</ele>
        <time>2019-02-02T09:21:00.000Z</time>
      </trkpt>
      <trkpt lat="44.82497" lon="1.17117">
        <ele>96</ele>
        <time>2019-02-02T09:22:00.000Z</time>
      </trkpt>
      <trkpt lat="44.82477" lon="1.17027">
        <ele>99</ele>
        <time>2019-02-02T09:23:00.000Z</time>
      </trkpt>
      <trkpt lat="44.82438" lon="1.1692">
        <ele>91</ele>
        <time>2019-02-02T09:24:00.000Z</time>
      </trkpt>
      <trkpt lat="44.8241" lon="1.16829">
        <ele>87</ele>
        <time>2019-02-02T09:25:00.000Z</time>
      </trkpt>
      <trkpt lat="44.8237" lon="1.16704">
        <ele>94</ele>
        <time>2019-02-02T09:26:00.000Z</time>
      </trkpt>
      <trkpt lat="44.82341" lon="1.16618">
        <ele>95</ele>
        <time>2019-02-02T09:27:00.000Z</time>
      </trkpt>
      <trkpt lat="44.82288" lon="1.16522">
        <ele>91</ele>
        <time>2019-02-02T09:28:00.000Z</time>
      </trkpt>
      <trkpt lat="44.82241" lon="1.16418">
        <ele>82</ele>
        <time>2019-02-02T09:29:00.000Z</time>
      </trkpt>
      <trkpt lat="44.82208" lon="1.16296">
        <ele>85</ele>
        <time>2019-02-02T09:30:00.000Z</time>
      </trkpt>
      <trkpt lat="44.82188" lon="1.1618">
        <ele>82</ele>
        <time>2019-02-02T09:31:00.000Z</time>
      </trkpt>
      <trkpt lat="44.82186" lon="1.16078">
        <ele>80</ele>
        <time>2019-02-02T09:32:00.000Z</time>
      </trkpt>
      <trkpt lat="44.82184" lon="1.15994">
        <ele>77</ele>
        <time>2019-02-02T09:33:00.000Z</time>
      </trkpt>
      <trkpt lat="44.82204" lon="1.15908">
        <ele>79</ele>
        <time>2019-02-02T09:34:00.000Z</time>
      </trkpt>
      <trkpt lat="44.82233" lon="1.15841">
        <ele>80</ele>
        <time>2019-02-02T09:35:00.000Z</time>
      </trkpt>
      <trkpt lat="44.82276" lon="1.15793">
        <ele>83</ele>
        <time>2019-02-02T09:36:00.000Z</time>
      </trkpt>
      <trkpt lat="44.82296" lon="1.15749">
        <ele>81</ele>
        <time>2019-02-02T09:37:00.000Z</time>
      </trkpt>
      <trkpt lat="44.82343" lon="1.15716">
        <ele>83</ele>
        <time>2019-02-02T09:38:00.000Z</time>
      </trkpt>
      <trkpt lat="44.82377" lon="1.1567">
        <ele>80</ele>
        <time>2019-02-02T09:39:00.000Z</time>
      </trkpt>
      <trkpt lat="44.82418" lon="1.15597">
        <ele>78</ele>
        <time>2019-02-02T09:40:00.000Z</time>
      </trkpt>
      <trkpt lat="44.8246" lon="1.15543">
        <ele>79</ele>
        <time>2019-02-02T09:41:00.000Z</time>
      </trkpt>
      <trkpt lat="44.82515" lon="1.15492">
        <ele>79</ele>
        <time>2019-02-02T09:42:00.000Z</time>
      </trkpt>
      <trkpt lat="44.82586" lon="1.15457">
        <ele>78</ele>
        <time>2019-02-02T09:43:00.000Z</time>
      </trkpt>
      <trkpt lat="44.8267" lon="1.15405">
        <ele>74</ele>
        <time>2019-02-02T09:44:00.000Z</time>
      </trkpt>
      <trkpt lat="44.8276" lon="1.15372">
        <ele>77</ele>
        <time>2019-02-02T09:45:00.000Z</time>
      </trkpt>
      <trkpt lat="44.82847" lon="1.15347">
        <ele>77</ele>
        <time>2019-02-02T09:46:00.000Z</time>
      </trkpt>
      <trkpt lat="44.82915" lon="1.15296">
        <ele>73</ele>
        <time>2019-02-02T09:47:00.000Z</time>
      </trkpt>
      <trkpt lat="44.83006" lon="1.15281">
        <ele>71</ele>
        <time>2019-02-02T09:48:00.000Z</time>
      </trkpt>
      <trkpt lat="44.8309" lon="1.15278">
        <ele>68</ele>
        <time>2019-02-02T09:49:00.000Z</time>
      </trkpt>
      <trkpt lat="44.83198" lon="1.15268">
        <ele>69</ele>
        <time>2019-02-02T09:50:00.000Z</time>
      </trkpt>
      <trkpt lat="44.83258" lon="1.1533">
        <ele>69</ele>
        <time>2019-02-02T09:51:00.000Z</time>
      </trkpt>
      <trkpt lat="44.83323" lon="1.15401">
        <ele>68</ele>
        <time>2019-02-02T09:52:00.000Z</time>
      </trkpt>
      <trkpt lat="44.83376" lon="1.15369">
        <ele>68</ele>
        <time>2019-02-02T09:53:00.000Z</time>
      </trkpt>
      <trkpt lat="44.83406" lon="1.15256">
        <ele>66</ele>
        <time>2019-02-02T09:54:00.000Z</time>
      </trkpt>
      <trkpt lat="44.83484" lon="1.15206">
        <ele>67</ele>
        <time>2019-02-02T09:55:00.000Z</time>
      </trkpt>
      <trkpt lat="44.83574" lon="1.15173">
        <ele>68</ele>
        <time>2019-02-02T09:56:00.000Z</time>
      </trkpt>
      <trkpt lat="44.8366" lon="1.1515">
        <ele>69</ele>
        <time>2019-02-02T09:57:00.000Z</time>
      </trkpt>
      <trkpt lat="44.83738" lon="1.15075">
        <ele>66</ele>
        <time>2019-02-02T09:58:00.000Z</time>
      </trkpt>
      <trkpt lat="44.83785" lon="1.14991">
        <ele>66</ele>
        <time>2019-02-02T09:59:00.000Z</time>
      </trkpt>
      <trkpt lat="44.83797" lon="1.14927">
        <ele>65</ele>
        <time>2019-02-02T10:00:00.000Z</time>
      </trkpt>
      <trkpt lat="44.83805" lon="1.14919">
        <ele>65</ele>
        <time>2019-02-02T10:01:00.000Z</time>
      </trkpt>
      <trkpt lat="44.83813" lon="1.14894">
        <ele>65</ele>
        <time>2019-02-02T10:02:00.000Z</time>
      </trkpt>
      <trkpt lat="44.83825" lon="1.14863">
        <ele>66</ele>
        <time>2019-02-02T10:03:00.000Z</time>
      </trkpt>
      <trkpt lat="44.83852" lon="1.14808">
        <ele>67</ele>
        <time>2019-02-02T10:04:00.000Z</time>
      </trkpt>
      <trkpt lat="44.83865" lon="1.14784">
        <ele>68</ele>
        <time>2019-02-02T10:05:00.000Z</time>
      </trkpt>
      <trkpt lat="44.83878" lon="1.14759">
        <ele>69</ele>
        <time>2019-02-02T10:06:00.000Z</time>
      </trkpt>
      <trkpt lat="44.83885" lon="1.14746">
        <ele>70</ele>
        <time>2019-02-02T10:07:00.000Z</time>
      </trkpt>
      <trkpt lat="44.8389" lon="1.14732">
        <ele>72</ele>
        <time>2019-02-02T10:08:00.000Z</time>
      </trkpt>
      <trkpt lat="44.83895" lon="1.14721">
        <ele>73</ele>
        <time>2019-02-02T10:09:00.000Z</time>
      </trkpt>
      <trkpt lat="44.83905" lon="1.147">
        <ele>76</ele>
        <time>2019-02-02T10:10:00.000Z</time>
      </trkpt>
      <trkpt lat="44.83915" lon="1.14677">
        <ele>79</ele>
        <time>2019-02-02T10:11:00.000Z</time>
      </trkpt>
      <trkpt lat="44.8392" lon="1.14652">
        <ele>82</ele>
        <time>2019-02-02T10:12:00.000Z</time>
      </trkpt>
      <trkpt lat="44.83922" lon="1.1463">
        <ele>84</ele>
        <time>2019-02-02T10:13:00.000Z</time>
      </trkpt>
      <trkpt lat="44.83926" lon="1.14605">
        <ele>88</ele>
        <time>2019-02-02T10:14:00.000Z</time>
      </trkpt>
      <trkpt lat="44.83931" lon="1.14575">
        <ele>91</ele>
        <time>2019-02-02T10:15:00.000Z</time>
      </trkpt>
      <trkpt lat="44.83934" lon="1.1455">
        <ele>93</ele>
        <time>2019-02-02T10:16:00.000Z</time>
      </trkpt>
      <trkpt lat="44.83935" lon="1.14518">
        <ele>93</ele>
        <time>2019-02-02T10:17:00.000Z</time>
      </trkpt>
      <trkpt lat="44.83936" lon="1.14491">
        <ele>93</ele>
        <time>2019-02-02T10:18:00.000Z</time>
      </trkpt>
      <trkpt lat="44.83936" lon="1.14464">
        <ele>91</ele>
        <time>2019-02-02T10:19:00.000Z</time>
      </trkpt>
      <trkpt lat="44.83936" lon="1.14433">
        <ele>89</ele>
        <time>2019-02-02T10:20:00.000Z</time>
      </trkpt>
      <trkpt lat="44.83938" lon="1.14402">
        <ele>86</ele>
        <time>2019-02-02T10:21:00.000Z</time>
      </trkpt>
      <trkpt lat="44.8394" lon="1.14371">
        <ele>83</ele>
        <time>2019-02-02T10:22:00.000Z</time>
      </trkpt>
      <trkpt lat="44.83944" lon="1.1434">
        <ele>81</ele>
        <time>2019-02-02T10:23:00.000Z</time>
      </trkpt>
      <trkpt lat="44.83953" lon="1.14311">
        <ele>80</ele>
        <time>2019-02-02T10:24:00.000Z</time>
      </trkpt>
      <trkpt lat="44.83962" lon="1.14285">
        <ele>78</ele>
        <time>2019-02-02T10:25:00.000Z</time>
      </trkpt>
      <trkpt lat="44.83969" lon="1.14263">
        <ele>76</ele>
        <time>2019-02-02T10:26:00.000Z</time>
      </trkpt>
      <trkpt lat="44.83977" lon="1.1424">
        <ele>74</ele>
        <time>2019-02-02T10:27:00.000Z</time>
      </trkpt>
      <trkpt lat="44.8398" lon="1.14228">
        <ele>75</ele>
        <time>2019-02-02T10:28:00.000Z</time>
      </trkpt>
      <trkpt lat="44.83986" lon="1.14214">
        <ele>75</ele>
        <time>2019-02-02T10:29:00.000Z</time>
      </trkpt>
      <trkpt lat="44.83993" lon="1.14206">
        <ele>75</ele>
        <time>2019-02-02T10:30:00.000Z</time>
      </trkpt>
      <trkpt lat="44.84002" lon="1.14217">
        <ele>77</ele>
        <time>2019-02-02T10:31:00.000Z</time>
      </trkpt>
      <trkpt lat="44.84014" lon="1.14225">
        <ele>80</ele>
        <time>2019-02-02T10:32:00.000Z</time>
      </trkpt>
      <trkpt lat="44.84037" lon="1.14235">
        <ele>85</ele>
        <time>2019-02-02T10:33:00.000Z</time>
      </trkpt>
      <trkpt lat="44.84059" lon="1.14248">
        <ele>88</ele>
        <time>2019-02-02T10:34:00.000Z</time>
      </trkpt>
      <trkpt lat="44.84071" lon="1.14258">
        <ele>91</ele>
        <time>2019-02-02T10:35:00.000Z</time>
      </trkpt>
      <trkpt lat="44.8408" lon="1.14267">
        <ele>93</ele>
        <time>2019-02-02T10:36:00.000Z</time>
      </trkpt>
      <trkpt lat="44.84085" lon="1.14278">
        <ele>95</ele>
        <time>2019-02-02T10:37:00.000Z</time>
      </trkpt>
      <trkpt lat="44.84092" lon="1.14287">
        <ele>97</ele>
        <time>2019-02-02T10:38:00.000Z</time>
      </trkpt>
      <trkpt lat="44.841" lon="1.14294">
        <ele>99</ele>
        <time>2019-02-02T10:39:00.000Z</time>
      </trkpt>
      <trkpt lat="44.84106" lon="1.14304">
        <ele>100</ele>
        <time>2019-02-02T10:40:00.000Z</time>
      </trkpt>
      <trkpt lat="44.84115" lon="1.14313">
        <ele>101</ele>
        <time>2019-02-02T10:41:00.000Z</time>
      </trkpt>
      <trkpt lat="44.84126" lon="1.14323">
        <ele>102</ele>
        <time>2019-02-02T10:42:00.000Z</time>
      </trkpt>
      <trkpt lat="44.84133" lon="1.14335">
        <ele>101</ele>
        <time>2019-02-02T10:43:00.000Z</time>
      </trkpt>
      <trkpt lat="44.8414" lon="1.14345">
        <ele>102</ele>
        <time>2019-02-02T10:44:00.000Z</time>
      </trkpt>
      <trkpt lat="44.84149" lon="1.14353">
        <ele>103</ele>
        <time>2019-02-02T10:45:00.000Z</time>
      </trkpt>
      <trkpt lat="44.84159" lon="1.14359">
        <ele>103</ele>
        <time>2019-02-02T10:46:00.000Z</time>
      </trkpt>
      <trkpt lat="44.84168" lon="1.14363">
        <ele>103</ele>
        <time>2019-02-02T10:47:00.000Z</time>
      </trkpt>
      <trkpt lat="44.84176" lon="1.14369">
        <ele>105</ele>
        <time>2019-02-02T10:48:00.000Z</time>
      </trkpt>
      <trkpt lat="44.84185" lon="1.14376">
        <ele>106</ele>
        <time>2019-02-02T10:49:00.000Z</time>
      </trkpt>
      <trkpt lat="44.84193" lon="1.14384">
        <ele>107</ele>
        <time>2019-02-02T10:50:00.000Z</time>
      </trkpt>
      <trkpt lat="44.84201" lon="1.14393">
        <ele>107</ele>
        <time>2019-02-02T10:51:00.000Z</time>
      </trkpt>
      <trkpt lat="44.84209" lon="1.144">
        <ele>107</ele>
        <time>2019-02-02T10:52:00.000Z</time>
      </trkpt>
      <trkpt lat="44.84218" lon="1.14407">
        <ele>107</ele>
        <time>2019-02-02T10:53:00.000Z</time>
      </trkpt>
      <trkpt lat="44.84236" lon="1.14418">
        <ele>106</ele>
        <time>2019-02-02T10:54:00.000Z</time>
      </trkpt>
      <trkpt lat="44.84245" lon="1.14423">
        <ele>107</ele>
        <time>2019-02-02T10:55:00.000Z</time>
      </trkpt>
      <trkpt lat="44.84254" lon="1.14425">
        <ele>108</ele>
        <time>2019-02-02T10:56:00.000Z</time>
      </trkpt>
      <trkpt lat="44.84264" lon="1.14428">
        <ele>109</ele>
        <time>2019-02-02T10:57:00.000Z</time>
      </trkpt>
      <trkpt lat="44.84273" lon="1.14432">
        <ele>110</ele>
        <time>2019-02-02T10:58:00.000Z</time>
      </trkpt>
      <trkpt lat="44.84282" lon="1.1443">
        <ele>111</ele>
        <time>2019-02-02T10:59:00.000Z</time>
      </trkpt>
      <trkpt lat="44.84295" lon="1.14431">
        <ele>112</ele>
        <time>2019-02-02T11:00:00.000Z</time>
      </trkpt>
      <trkpt lat="44.84305" lon="1.14434">
        <ele>113</ele>
        <time>2019-02-02T11:01:00.000Z</time>
      </trkpt>
      <trkpt lat="44.84316" lon="1.14433">
        <ele>114</ele>
        <time>2019-02-02T11:02:00.000Z</time>
      </trkpt>
      <trkpt lat="44.84326" lon="1.14434">
        <ele>115</ele>
        <time>2019-02-02T11:03:00.000Z</time>
      </trkpt>
      <trkpt lat="44.84336" lon="1.14438">
        <ele>116</ele>
        <time>2019-02-02T11:04:00.000Z</time>
      </trkpt>
      <trkpt lat="44.84346" lon="1.14441">
        <ele>116</ele>
        <time>2019-02-02T11:05:00.000Z</time>
      </trkpt>
      <trkpt lat="44.84354" lon="1.14447">
        <ele>117</ele>
        <time>2019-02-02T11:06:00.000Z</time>
      </trkpt>
      <trkpt lat="44.84364" lon="1.14452">
        <ele>117</ele>
        <time>2019-02-02T11:07:00.000Z</time>
      </trkpt>
      <trkpt lat="44.84373" lon="1.14459">
        <ele>117</ele>
        <time>2019-02-02T11:08:00.000Z</time>
      </trkpt>
      <trkpt lat="44.84383" lon="1.14465">
        <ele>117</ele>
        <time>2019-02-02T11:09:00.000Z</time>
      </trkpt>
      <trkpt lat="44.84393" lon="1.14472">
        <ele>117</ele>
        <time>2019-02-02T11:10:00.000Z</time>
      </trkpt>
      <trkpt lat="44.84415" lon="1.14484">
        <ele>117</ele>
        <time>2019-02-02T11:11:00.000Z</time>
      </trkpt>
      <trkpt lat="44.84423" lon="1.1449">
        <ele>117</ele>
        <time>2019-02-02T11:12:00.000Z</time>
      </trkpt>
      <trkpt lat="44.84443" lon="1.1451">
        <ele>118</ele>
        <time>2019-02-02T11:13:00.000Z</time>
      </trkpt>
      <trkpt lat="44.84464" lon="1.14523">
        <ele>120</ele>
        <time>2019-02-02T11:14:00.000Z</time>
      </trkpt>
      <trkpt lat="44.84475" lon="1.14526">
        <ele>120</ele>
        <time>2019-02-02T11:15:00.000Z</time>
      </trkpt>
      <trkpt lat="44.84487" lon="1.14532">
        <ele>121</ele>
        <time>2019-02-02T11:16:00.000Z</time>
      </trkpt>
      <trkpt lat="44.84495" lon="1.1454">
        <ele>120</ele>
        <time>2019-02-02T11:17:00.000Z</time>
      </trkpt>
      <trkpt lat="44.84505" lon="1.14552">
        <ele>120</ele>
        <time>2019-02-02T11:18:00.000Z</time>
      </trkpt>
      <trkpt lat="44.84515" lon="1.14564">
        <ele>119</ele>
        <time>2019-02-02T11:19:00.000Z</time>
      </trkpt>
      <trkpt lat="44.84527" lon="1.14577">
        <ele>118</ele>
        <time>2019-02-02T11:20:00.000Z</time>
      </trkpt>
      <trkpt lat="44.84541" lon="1.14586">
        <ele>118</ele>
        <time>2019-02-02T11:21:00.000Z</time>
      </trkpt>
      <trkpt lat="44.84554" lon="1.14592">
        <ele>119</ele>
        <time>2019-02-02T11:22:00.000Z</time>
      </trkpt>
      <trkpt lat="44.84536" lon="1.1463">
        <ele>119</ele>
        <time>2019-02-02T11:23:00.000Z</time>
      </trkpt>
      <trkpt lat="44.84495" lon="1.1464">
        <ele>119</ele>
        <time>2019-02-02T11:24:00.000Z</time>
      </trkpt>
      <trkpt lat="44.84489" lon="1.14629">
        <ele>119</ele>
        <time>2019-02-02T11:25:00.000Z</time>
      </trkpt>
      <trkpt lat="44.84431" lon="1.14633">
        <ele>124</ele>
        <time>2019-02-02T11:26:00.000Z</time>
      </trkpt>
      <trkpt lat="44.84399" lon="1.14627">
        <ele>127</ele>
        <time>2019-02-02T11:27:00.000Z</time>
      </trkpt>
      <trkpt lat="44.84368" lon="1.14673">
        <ele>137</ele>
        <time>2019-02-02T11:28:00.000Z</time>
      </trkpt>
      <trkpt lat="44.84338" lon="1.14707">
        <ele>143</ele>
        <time>2019-02-02T11:29:00.000Z</time>
      </trkpt>
      <trkpt lat="44.84318" lon="1.14701">
        <ele>145</ele>
        <time>2019-02-02T11:30:00.000Z</time>
      </trkpt>
      <trkpt lat="44.843" lon="1.147">
        <ele>147</ele>
        <time>2019-02-02T11:31:00.000Z</time>
      </trkpt>
      <trkpt lat="44.84288" lon="1.14691">
        <ele>148</ele>
        <time>2019-02-02T11:32:00.000Z</time>
      </trkpt>
      <trkpt lat="44.84244" lon="1.14703">
        <ele>153</ele>
        <time>2019-02-02T11:33:00.000Z</time>
      </trkpt>
      <trkpt lat="44.84221" lon="1.14667">
        <ele>152</ele>
        <time>2019-02-02T11:34:00.000Z</time>
      </trkpt>
      <trkpt lat="44.84177" lon="1.14659">
        <ele>152</ele>
        <time>2019-02-02T11:35:00.000Z</time>
      </trkpt>
      <trkpt lat="44.84136" lon="1.14651">
        <ele>152</ele>
        <time>2019-02-02T11:36:00.000Z</time>
      </trkpt>
      <trkpt lat="44.84099" lon="1.14672">
        <ele>155</ele>
        <time>2019-02-02T11:37:00.000Z</time>
      </trkpt>
      <trkpt lat="44.84086" lon="1.14701">
        <ele>159</ele>
        <time>2019-02-02T11:38:00.000Z</time>
      </trkpt>
      <trkpt lat="44.84073" lon="1.14689">
        <ele>153</ele>
        <time>2019-02-02T11:39:00.000Z</time>
      </trkpt>
      <trkpt lat="44.84064" lon="1.14704">
        <ele>150</ele>
        <time>2019-02-02T11:40:00.000Z</time>
      </trkpt>
      <trkpt lat="44.84052" lon="1.14686">
        <ele>144</ele>
        <time>2019-02-02T11:41:00.000Z</time>
      </trkpt>
      <trkpt lat="44.84057" lon="1.14671">
        <ele>145</ele>
        <time>2019-02-02T11:42:00.000Z</time>
      </trkpt>
      <trkpt lat="44.83992" lon="1.14652">
        <ele>119</ele>
        <time>2019-02-02T11:43:00.000Z</time>
      </trkpt>
      <trkpt lat="44.84038" lon="1.1463">
        <ele>137</ele>
        <time>2019-02-02T11:44:00.000Z</time>
      </trkpt>
      <trkpt lat="44.84034" lon="1.14613">
        <ele>136</ele>
        <time>2019-02-02T11:45:00.000Z</time>
      </trkpt>
      <trkpt lat="44.84047" lon="1.14605">
        <ele>140</ele>
        <time>2019-02-02T11:46:00.000Z</time>
      </trkpt>
      <trkpt lat="44.84032" lon="1.14581">
        <ele>135</ele>
        <time>2019-02-02T11:47:00.000Z</time>
      </trkpt>
      <trkpt lat="44.84039" lon="1.14595">
        <ele>137</ele>
        <time>2019-02-02T11:48:00.000Z</time>
      </trkpt>
      <trkpt lat="44.84054" lon="1.14588">
        <ele>142</ele>
        <time>2019-02-02T11:49:00.000Z</time>
      </trkpt>
      <trkpt lat="44.8406" lon="1.14563">
        <ele>142</ele>
        <time>2019-02-02T11:50:00.000Z</time>
      </trkpt>
      <trkpt lat="44.84059" lon="1.14544">
        <ele>141</ele>
        <time>2019-02-02T11:51:00.000Z</time>
      </trkpt>
      <trkpt lat="44.84075" lon="1.14514">
        <ele>144</ele>
        <time>2019-02-02T11:52:00.000Z</time>
      </trkpt>
      <trkpt lat="44.84077" lon="1.14484">
        <ele>140</ele>
        <time>2019-02-02T11:53:00.000Z</time>
      </trkpt>
      <trkpt lat="44.8409" lon="1.14476">
        <ele>137</ele>
        <time>2019-02-02T11:54:00.000Z</time>
      </trkpt>
      <trkpt lat="44.84095" lon="1.14454">
        <ele>130</ele>
        <time>2019-02-02T11:55:00.000Z</time>
      </trkpt>
      <trkpt lat="44.84088" lon="1.14436">
        <ele>126</ele>
        <time>2019-02-02T11:56:00.000Z</time>
      </trkpt>
      <trkpt lat="44.84073" lon="1.14428">
        <ele>123</ele>
        <time>2019-02-02T11:57:00.000Z</time>
      </trkpt>
      <trkpt lat="44.84077" lon="1.14415">
        <ele>121</ele>
        <time>2019-02-02T11:58:00.000Z</time>
      </trkpt>
      <trkpt lat="44.84056" lon="1.14403">
        <ele>115</ele>
        <time>2019-02-02T11:59:00.000Z</time>
      </trkpt>
      <trkpt lat="44.84071" lon="1.14391">
        <ele>113</ele>
        <time>2019-02-02T12:00:00.000Z</time>
      </trkpt>
      <trkpt lat="44.84124" lon="1.14439">
        <ele>118</ele>
        <time>2019-02-02T12:01:00.000Z</time>
      </trkpt>
      <trkpt lat="44.84182" lon="1.14451">
        <ele>110</ele>
        <time>2019-02-02T12:02:00.000Z</time>
      </trkpt>
      <trkpt lat="44.84225" lon="1.14458">
        <ele>110</ele>
        <time>2019-02-02T12:03:00.000Z</time>
      </trkpt>
      <trkpt lat="44.84222" lon="1.14438">
        <ele>108</ele>
        <time>2019-02-02T12:04:00.000Z</time>
      </trkpt>
      <trkpt lat="44.84269" lon="1.14442">
        <ele>110</ele>
        <time>2019-02-02T12:05:00.000Z</time>
      </trkpt>
      <trkpt lat="44.84222" lon="1.14396">
        <ele>109</ele>
        <time>2019-02-02T12:06:00.000Z</time>
      </trkpt>
      <trkpt lat="44.8414" lon="1.14342">
        <ele>102</ele>
        <time>2019-02-02T12:07:00.000Z</time>
      </trkpt>
      <trkpt lat="44.8406" lon="1.14298">
        <ele>94</ele>
        <time>2019-02-02T12:08:00.000Z</time>
      </trkpt>
      <trkpt lat="44.84007" lon="1.1422">
        <ele>78</ele>
        <time>2019-02-02T12:09:00.000Z</time>
      </trkpt>
      <trkpt lat="44.83973" lon="1.14237">
        <ele>74</ele>
        <time>2019-02-02T12:10:00.000Z</time>
      </trkpt>
      <trkpt lat="44.8397" lon="1.14314">
        <ele>85</ele>
        <time>2019-02-02T12:11:00.000Z</time>
      </trkpt>
      <trkpt lat="44.83941" lon="1.14377">
        <ele>84</ele>
        <time>2019-02-02T12:12:00.000Z</time>
      </trkpt>
      <trkpt lat="44.83936" lon="1.14494">
        <ele>93</ele>
        <time>2019-02-02T12:13:00.000Z</time>
      </trkpt>
      <trkpt lat="44.83928" lon="1.14581">
        <ele>90</ele>
        <time>2019-02-02T12:14:00.000Z</time>
      </trkpt>
      <trkpt lat="44.83914" lon="1.14663">
        <ele>80</ele>
        <time>2019-02-02T12:15:00.000Z</time>
      </trkpt>
      <trkpt lat="44.8388" lon="1.14745">
        <ele>70</ele>
        <time>2019-02-02T12:16:00.000Z</time>
      </trkpt>
      <trkpt lat="44.83831" lon="1.14861">
        <ele>66</ele>
        <time>2019-02-02T12:17:00.000Z</time>
      </trkpt>
      <trkpt lat="44.83786" lon="1.14961">
        <ele>66</ele>
        <time>2019-02-02T12:18:00.000Z</time>
      </trkpt>
      <trkpt lat="44.83735" lon="1.1507">
        <ele>66</ele>
        <time>2019-02-02T12:19:00.000Z</time>
      </trkpt>
      <trkpt lat="44.83657" lon="1.15137">
        <ele>68</ele>
        <time>2019-02-02T12:20:00.000Z</time>
      </trkpt>
      <trkpt lat="44.83571" lon="1.15183">
        <ele>67</ele>
        <time>2019-02-02T12:21:00.000Z</time>
      </trkpt>
      <trkpt lat="44.83474" lon="1.15209">
        <ele>67</ele>
        <time>2019-02-02T12:22:00.000Z</time>
      </trkpt>
      <trkpt lat="44.83398" lon="1.15266">
        <ele>67</ele>
        <time>2019-02-02T12:23:00.000Z</time>
      </trkpt>
      <trkpt lat="44.83359" lon="1.15388">
        <ele>68</ele>
        <time>2019-02-02T12:24:00.000Z</time>
      </trkpt>
      <trkpt lat="44.83284" lon="1.15343">
        <ele>69</ele>
        <time>2019-02-02T12:25:00.000Z</time>
      </trkpt>
      <trkpt lat="44.8322" lon="1.15281">
        <ele>69</ele>
        <time>2019-02-02T12:26:00.000Z</time>
      </trkpt>
      <trkpt lat="44.83128" lon="1.15286">
        <ele>68</ele>
        <time>2019-02-02T12:27:00.000Z</time>
      </trkpt>
      <trkpt lat="44.83025" lon="1.15285">
        <ele>70</ele>
        <time>2019-02-02T12:28:00.000Z</time>
      </trkpt>
      <trkpt lat="44.82956" lon="1.15296">
        <ele>72</ele>
        <time>2019-02-02T12:29:00.000Z</time>
      </trkpt>
      <trkpt lat="44.82905" lon="1.15323">
        <ele>74</ele>
        <time>2019-02-02T12:30:00.000Z</time>
      </trkpt>
      <trkpt lat="44.82816" lon="1.15355">
        <ele>77</ele>
        <time>2019-02-02T12:31:00.000Z</time>
      </trkpt>
      <trkpt lat="44.82739" lon="1.15387">
        <ele>76</ele>
        <time>2019-02-02T12:32:00.000Z</time>
      </trkpt>
      <trkpt lat="44.82655" lon="1.15422">
        <ele>74</ele>
        <time>2019-02-02T12:33:00.000Z</time>
      </trkpt>
      <trkpt lat="44.82592" lon="1.15453">
        <ele>77</ele>
        <time>2019-02-02T12:34:00.000Z</time>
      </trkpt>
      <trkpt lat="44.82533" lon="1.15491">
        <ele>79</ele>
        <time>2019-02-02T12:35:00.000Z</time>
      </trkpt>
      <trkpt lat="44.82439" lon="1.15565">
        <ele>78</ele>
        <time>2019-02-02T12:36:00.000Z</time>
      </trkpt>
      <trkpt lat="44.82377" lon="1.15654">
        <ele>79</ele>
        <time>2019-02-02T12:37:00.000Z</time>
      </trkpt>
      <trkpt lat="44.8231" lon="1.15738">
        <ele>82</ele>
        <time>2019-02-02T12:38:00.000Z</time>
      </trkpt>
      <trkpt lat="44.82205" lon="1.15716">
        <ele>73</ele>
        <time>2019-02-02T12:39:00.000Z</time>
      </trkpt>
      <trkpt lat="44.82058" lon="1.15627">
        <ele>69</ele>
        <time>2019-02-02T12:40:00.000Z</time>
      </trkpt>
      <trkpt lat="44.81938" lon="1.15541">
        <ele>71</ele>
        <time>2019-02-02T12:41:00.000Z</time>
      </trkpt>
      <trkpt lat="44.81841" lon="1.15469">
        <ele>68</ele>
        <time>2019-02-02T12:42:00.000Z</time>
      </trkpt>
      <trkpt lat="44.81742" lon="1.154">
        <ele>66</ele>
        <time>2019-02-02T12:43:00.000Z</time>
      </trkpt>
      <trkpt lat="44.81661" lon="1.15336">
        <ele>67</ele>
        <time>2019-02-02T12:44:00.000Z</time>
      </trkpt>
      <trkpt lat="44.81601" lon="1.15295">
        <ele>66</ele>
        <time>2019-02-02T12:45:00.000Z</time>
      </trkpt>
      <trkpt lat="44.81545" lon="1.15255">
        <ele>65</ele>
        <time>2019-02-02T12:46:00.000Z</time>
      </trkpt>
      <trkpt lat="44.81482" lon="1.15207">
        <ele>65</ele>
        <time>2019-02-02T12:47:00.000Z</time>
      </trkpt>
      <trkpt lat="44.81402" lon="1.15159">
        <ele>72</ele>
        <time>2019-02-02T12:48:00.000Z</time>
      </trkpt>
      <trkpt lat="44.81369" lon="1.1513">
        <ele>80</ele>
        <time>2019-02-02T12:49:00.000Z</time>
      </trkpt>
      <trkpt lat="44.8136" lon="1.15134">
        <ele>80</ele>
        <time>2019-02-02T12:50:00.000Z</time>
      </trkpt>
      <trkpt lat="44.81353" lon="1.15145">
        <ele>79</ele>
        <time>2019-02-02T12:51:00.000Z</time>
      </trkpt>
      <trkpt lat="44.81357" lon="1.15132">
        <ele>81</ele>
        <time>2019-02-02T12:52:00.000Z</time>
      </trkpt>
      <trkpt lat="44.81364" lon="1.15121">
        <ele>82</ele>
        <time>2019-02-02T12:53:00.000Z</time>
      </trkpt>
      <trkpt lat="44.81373" lon="1.15097">
        <ele>85</ele>
        <time>2019-02-02T12:54:00.000Z</time>
      </trkpt>
      <trkpt lat="44.81378" lon="1.15085">
        <ele>86</ele>
        <time>2019-02-02T12:55:00.000Z</time>
      </trkpt>
      <trkpt lat="44.81385" lon="1.15076">
        <ele>87</ele>
        <time>2019-02-02T12:56:00.000Z</time>
      </trkpt>
      <trkpt lat="44.8138" lon="1.15086">
        <ele>86</ele>
        <time>2019-02-02T12:57:00.000Z</time>
      </trkpt>
      <trkpt lat="44.8137" lon="1.151">
        <ele>85</ele>
        <time>2019-02-02T12:58:00.000Z</time>
      </trkpt>
      <trkpt lat="44.81361" lon="1.15116">
        <ele>84</ele>
        <time>2019-02-02T12:59:00.000Z</time>
      </trkpt>
      <trkpt lat="44.8135" lon="1.15135">
        <ele>81</ele>
        <time>2019-02-02T13:00:00.000Z</time>
      </trkpt>
      <trkpt lat="44.81339" lon="1.15149">
        <ele>79</ele>
        <time>2019-02-02T13:01:00.000Z</time>
      </trkpt>
      <trkpt lat="44.81309" lon="1.15167">
        <ele>81</ele>
        <time>2019-02-02T13:02:00.000Z</time>
      </trkpt>
      <trkpt lat="44.81292" lon="1.15182">
        <ele>82</ele>
        <time>2019-02-02T13:03:00.000Z</time>
      </trkpt>
      <trkpt lat="44.81279" lon="1.15192">
        <ele>82</ele>
        <time>2019-02-02T13:04:00.000Z</time>
      </trkpt>
      <trkpt lat="44.81267" lon="1.15182">
        <ele>86</ele>
        <time>2019-02-02T13:05:00.000Z</time>
      </trkpt>
      <trkpt lat="44.81278" lon="1.15167">
        <ele>87</ele>
        <time>2019-02-02T13:06:00.000Z</time>
      </trkpt>
      <trkpt lat="44.81287" lon="1.15161">
        <ele>87</ele>
        <time>2019-02-02T13:07:00.000Z</time>
      </trkpt>
      <trkpt lat="44.81294" lon="1.15154">
        <ele>88</ele>
        <time>2019-02-02T13:08:00.000Z</time>
      </trkpt>
      <trkpt lat="44.81304" lon="1.15149">
        <ele>87</ele>
        <time>2019-02-02T13:09:00.000Z</time>
      </trkpt>
      <trkpt lat="44.81313" lon="1.15144">
        <ele>86</ele>
        <time>2019-02-02T13:10:00.000Z</time>
      </trkpt>
      <trkpt lat="44.81321" lon="1.15135">
        <ele>87</ele>
        <time>2019-02-02T13:11:00.000Z</time>
      </trkpt>
      <trkpt lat="44.81328" lon="1.15127">
        <ele>87</ele>
        <time>2019-02-02T13:12:00.000Z</time>
      </trkpt>
      <trkpt lat="44.81335" lon="1.15116">
        <ele>87</ele>
        <time>2019-02-02T13:13:00.000Z</time>
      </trkpt>
      <trkpt lat="44.8134" lon="1.15105">
        <ele>89</ele>
        <time>2019-02-02T13:14:00.000Z</time>
      </trkpt>
      <trkpt lat="44.81343" lon="1.15092">
        <ele>91</ele>
        <time>2019-02-02T13:15:00.000Z</time>
      </trkpt>
      <trkpt lat="44.81344" lon="1.15079">
        <ele>94</ele>
        <time>2019-02-02T13:16:00.000Z</time>
      </trkpt>
      <trkpt lat="44.81345" lon="1.15066">
        <ele>95</ele>
        <time>2019-02-02T13:17:00.000Z</time>
      </trkpt>
      <trkpt lat="44.81346" lon="1.15051">
        <ele>98</ele>
        <time>2019-02-02T13:18:00.000Z</time>
      </trkpt>
      <trkpt lat="44.81344" lon="1.15037">
        <ele>100</ele>
        <time>2019-02-02T13:19:00.000Z</time>
      </trkpt>
      <trkpt lat="44.81343" lon="1.15022">
        <ele>103</ele>
        <time>2019-02-02T13:20:00.000Z</time>
      </trkpt>
      <trkpt lat="44.81342" lon="1.1501">
        <ele>105</ele>
        <time>2019-02-02T13:21:00.000Z</time>
      </trkpt>
      <trkpt lat="44.81341" lon="1.14995">
        <ele>106</ele>
        <time>2019-02-02T13:22:00.000Z</time>
      </trkpt>
      <trkpt lat="44.81342" lon="1.14982">
        <ele>107</ele>
        <time>2019-02-02T13:23:00.000Z</time>
      </trkpt>
      <trkpt lat="44.8134" lon="1.14969">
        <ele>108</ele>
        <time>2019-02-02T13:24:00.000Z</time>
      </trkpt>
      <trkpt lat="44.81337" lon="1.14955">
        <ele>108</ele>
        <time>2019-02-02T13:25:00.000Z</time>
      </trkpt>
      <trkpt lat="44.81336" lon="1.14942">
        <ele>109</ele>
        <time>2019-02-02T13:26:00.000Z</time>
      </trkpt>
      <trkpt lat="44.81334" lon="1.14929">
        <ele>110</ele>
        <time>2019-02-02T13:27:00.000Z</time>
      </trkpt>
      <trkpt lat="44.81335" lon="1.14915">
        <ele>110</ele>
        <time>2019-02-02T13:28:00.000Z</time>
      </trkpt>
      <trkpt lat="44.81334" lon="1.14901">
        <ele>110</ele>
        <time>2019-02-02T13:29:00.000Z</time>
      </trkpt>
      <trkpt lat="44.81332" lon="1.14887">
        <ele>110</ele>
        <time>2019-02-02T13:30:00.000Z</time>
      </trkpt>
      <trkpt lat="44.81328" lon="1.14861">
        <ele>111</ele>
        <time>2019-02-02T13:31:00.000Z</time>
      </trkpt>
      <trkpt lat="44.81323" lon="1.1485">
        <ele>113</ele>
        <time>2019-02-02T13:32:00.000Z</time>
      </trkpt>
      <trkpt lat="44.81319" lon="1.14838">
        <ele>115</ele>
        <time>2019-02-02T13:33:00.000Z</time>
      </trkpt>
      <trkpt lat="44.81316" lon="1.14825">
        <ele>117</ele>
        <time>2019-02-02T13:34:00.000Z</time>
      </trkpt>
      <trkpt lat="44.81311" lon="1.14813">
        <ele>121</ele>
        <time>2019-02-02T13:35:00.000Z</time>
      </trkpt>
      <trkpt lat="44.81307" lon="1.14801">
        <ele>123</ele>
        <time>2019-02-02T13:36:00.000Z</time>
      </trkpt>
      <trkpt lat="44.81303" lon="1.14788">
        <ele>126</ele>
        <time>2019-02-02T13:37:00.000Z</time>
      </trkpt>
      <trkpt lat="44.81301" lon="1.14775">
        <ele>128</ele>
        <time>2019-02-02T13:38:00.000Z</time>
      </trkpt>
      <trkpt lat="44.81302" lon="1.14761">
        <ele>128</ele>
        <time>2019-02-02T13:39:00.000Z</time>
      </trkpt>
      <trkpt lat="44.81304" lon="1.14748">
        <ele>128</ele>
        <time>2019-02-02T13:40:00.000Z</time>
      </trkpt>
      <trkpt lat="44.81305" lon="1.14719">
        <ele>130</ele>
        <time>2019-02-02T13:41:00.000Z</time>
      </trkpt>
      <trkpt lat="44.81305" lon="1.14704">
        <ele>131</ele>
        <time>2019-02-02T13:42:00.000Z</time>
      </trkpt>
      <trkpt lat="44.81306" lon="1.14689">
        <ele>132</ele>
        <time>2019-02-02T13:43:00.000Z</time>
      </trkpt>
      <trkpt lat="44.81307" lon="1.14661">
        <ele>134</ele>
        <time>2019-02-02T13:44:00.000Z</time>
      </trkpt>
      <trkpt lat="44.81305" lon="1.14647">
        <ele>136</ele>
        <time>2019-02-02T13:45:00.000Z</time>
      </trkpt>
      <trkpt lat="44.81304" lon="1.14632">
        <ele>138</ele>
        <time>2019-02-02T13:46:00.000Z</time>
      </trkpt>
      <trkpt lat="44.81304" lon="1.14618">
        <ele>140</ele>
        <time>2019-02-02T13:47:00.000Z</time>
      </trkpt>
      <trkpt lat="44.81305" lon="1.14605">
        <ele>141</ele>
        <time>2019-02-02T13:48:00.000Z</time>
      </trkpt>
      <trkpt lat="44.81308" lon="1.14592">
        <ele>141</ele>
        <time>2019-02-02T13:49:00.000Z</time>
      </trkpt>
      <trkpt lat="44.81311" lon="1.14579">
        <ele>141</ele>
        <time>2019-02-02T13:50:00.000Z</time>
      </trkpt>
      <trkpt lat="44.81316" lon="1.14552">
        <ele>143</ele>
        <time>2019-02-02T13:51:00.000Z</time>
      </trkpt>
      <trkpt lat="44.81319" lon="1.14539">
        <ele>143</ele>
        <time>2019-02-02T13:52:00.000Z</time>
      </trkpt>
      <trkpt lat="44.81323" lon="1.14527">
        <ele>143</ele>
        <time>2019-02-02T13:53:00.000Z</time>
      </trkpt>
      <trkpt lat="44.81326" lon="1.14513">
        <ele>144</ele>
        <time>2019-02-02T13:54:00.000Z</time>
      </trkpt>
      <trkpt lat="44.8133" lon="1.14501">
        <ele>144</ele>
        <time>2019-02-02T13:55:00.000Z</time>
      </trkpt>
      <trkpt lat="44.81337" lon="1.1449">
        <ele>145</ele>
        <time>2019-02-02T13:56:00.000Z</time>
      </trkpt>
      <trkpt lat="44.81346" lon="1.14485">
        <ele>147</ele>
        <time>2019-02-02T13:57:00.000Z</time>
      </trkpt>
      <trkpt lat="44.81356" lon="1.14483">
        <ele>149</ele>
        <time>2019-02-02T13:58:00.000Z</time>
      </trkpt>
      <trkpt lat="44.81366" lon="1.14482">
        <ele>151</ele>
        <time>2019-02-02T13:59:00.000Z</time>
      </trkpt>
      <trkpt lat="44.81375" lon="1.1448">
        <ele>153</ele>
        <time>2019-02-02T14:00:00.000Z</time>
      </trkpt>
      <trkpt lat="44.81381" lon="1.14454">
        <ele>155</ele>
        <time>2019-02-02T14:01:00.000Z</time>
      </trkpt>
      <trkpt lat="44.81381" lon="1.14438">
        <ele>156</ele>
        <time>2019-02-02T14:02:00.000Z</time>
      </trkpt>
      <trkpt lat="44.81381" lon="1.14424">
        <ele>156</ele>
        <time>2019-02-02T14:03:00.000Z</time>
      </trkpt>
      <trkpt lat="44.81382" lon="1.14411">
        <ele>157</ele>
        <time>2019-02-02T14:04:00.000Z</time>
      </trkpt>
      <trkpt lat="44.81383" lon="1.14398">
        <ele>158</ele>
        <time>2019-02-02T14:05:00.000Z</time>
      </trkpt>
      <trkpt lat="44.81382" lon="1.14383">
        <ele>158</ele>
        <time>2019-02-02T14:06:00.000Z</time>
      </trkpt>
      <trkpt lat="44.81384" lon="1.14369">
        <ele>159</ele>
        <time>2019-02-02T14:07:00.000Z</time>
      </trkpt>
      <trkpt lat="44.81383" lon="1.14355">
        <ele>159</ele>
        <time>2019-02-02T14:08:00.000Z</time>
      </trkpt>
      <trkpt lat="44.81382" lon="1.14341">
        <ele>160</ele>
        <time>2019-02-02T14:09:00.000Z</time>
      </trkpt>
      <trkpt lat="44.81384" lon="1.14328">
        <ele>161</ele>
        <time>2019-02-02T14:10:00.000Z</time>
      </trkpt>
      <trkpt lat="44.81382" lon="1.14315">
        <ele>161</ele>
        <time>2019-02-02T14:11:00.000Z</time>
      </trkpt>
      <trkpt lat="44.81381" lon="1.14302">
        <ele>162</ele>
        <time>2019-02-02T14:12:00.000Z</time>
      </trkpt>
      <trkpt lat="44.81379" lon="1.14275">
        <ele>163</ele>
        <time>2019-02-02T14:13:00.000Z</time>
      </trkpt>
      <trkpt lat="44.81379" lon="1.14261">
        <ele>164</ele>
        <time>2019-02-02T14:14:00.000Z</time>
      </trkpt>
      <trkpt lat="44.81377" lon="1.14248">
        <ele>165</ele>
        <time>2019-02-02T14:15:00.000Z</time>
      </trkpt>
      <trkpt lat="44.81375" lon="1.14235">
        <ele>166</ele>
        <time>2019-02-02T14:16:00.000Z</time>
      </trkpt>
      <trkpt lat="44.81371" lon="1.14222">
        <ele>166</ele>
        <time>2019-02-02T14:17:00.000Z</time>
      </trkpt>
      <trkpt lat="44.81368" lon="1.14208">
        <ele>167</ele>
        <time>2019-02-02T14:18:00.000Z</time>
      </trkpt>
      <trkpt lat="44.81365" lon="1.14196">
        <ele>167</ele>
        <time>2019-02-02T14:19:00.000Z</time>
      </trkpt>
      <trkpt lat="44.81361" lon="1.14183">
        <ele>167</ele>
        <time>2019-02-02T14:20:00.000Z</time>
      </trkpt>
      <trkpt lat="44.81358" lon="1.1417">
        <ele>168</ele>
        <time>2019-02-02T14:21:00.000Z</time>
      </trkpt>
      <trkpt lat="44.81353" lon="1.14159">
        <ele>167</ele>
        <time>2019-02-02T14:22:00.000Z</time>
      </trkpt>
      <trkpt lat="44.8135" lon="1.14131">
        <ele>167</ele>
        <time>2019-02-02T14:23:00.000Z</time>
      </trkpt>
      <trkpt lat="44.8135" lon="1.14118">
        <ele>168</ele>
        <time>2019-02-02T14:24:00.000Z</time>
      </trkpt>
      <trkpt lat="44.81351" lon="1.14104">
        <ele>169</ele>
        <time>2019-02-02T14:25:00.000Z</time>
      </trkpt>
      <trkpt lat="44.81354" lon="1.1409">
        <ele>170</ele>
        <time>2019-02-02T14:26:00.000Z</time>
      </trkpt>
      <trkpt lat="44.8136" lon="1.14064">
        <ele>172</ele>
        <time>2019-02-02T14:27:00.000Z</time>
      </trkpt>
      <trkpt lat="44.81361" lon="1.1405">
        <ele>173</ele>
        <time>2019-02-02T14:28:00.000Z</time>
      </trkpt>
      <trkpt lat="44.81361" lon="1.14036">
        <ele>174</ele>
        <time>2019-02-02T14:29:00.000Z</time>
      </trkpt>
      <trkpt lat="44.81358" lon="1.14022">
        <ele>174</ele>
        <time>2019-02-02T14:30:00.000Z</time>
      </trkpt>
      <trkpt lat="44.81354" lon="1.14009">
        <ele>175</ele>
        <time>2019-02-02T14:31:00.000Z</time>
      </trkpt>
      <trkpt lat="44.81343" lon="1.13987">
        <ele>175</ele>
        <time>2019-02-02T14:32:00.000Z</time>
      </trkpt>
      <trkpt lat="44.81338" lon="1.13974">
        <ele>176</ele>
        <time>2019-02-02T14:33:00.000Z</time>
      </trkpt>
      <trkpt lat="44.81332" lon="1.13965">
        <ele>177</ele>
        <time>2019-02-02T14:34:00.000Z</time>
      </trkpt>
      <trkpt lat="44.81325" lon="1.13954">
        <ele>179</ele>
        <time>2019-02-02T14:35:00.000Z</time>
      </trkpt>
      <trkpt lat="44.81317" lon="1.13945">
        <ele>180</ele>
        <time>2019-02-02T14:36:00.000Z</time>
      </trkpt>
      <trkpt lat="44.81311" lon="1.13934">
        <ele>182</ele>
        <time>2019-02-02T14:37:00.000Z</time>
      </trkpt>
      <trkpt lat="44.81303" lon="1.13927">
        <ele>183</ele>
        <time>2019-02-02T14:38:00.000Z</time>
      </trkpt>
      <trkpt lat="44.81295" lon="1.13918">
        <ele>185</ele>
        <time>2019-02-02T14:39:00.000Z</time>
      </trkpt>
      <trkpt lat="44.81287" lon="1.13912">
        <ele>185</ele>
        <time>2019-02-02T14:40:00.000Z</time>
      </trkpt>
      <trkpt lat="44.81278" lon="1.13907">
        <ele>186</ele>
        <time>2019-02-02T14:41:00.000Z</time>
      </trkpt>
      <trkpt lat="44.81268" lon="1.13909">
        <ele>186</ele>
        <time>2019-02-02T14:42:00.000Z</time>
      </trkpt>
      <trkpt lat="44.81258" lon="1.13908">
        <ele>187</ele>
        <time>2019-02-02T14:43:00.000Z</time>
      </trkpt>
      <trkpt lat="44.81248" lon="1.13906">
        <ele>188</ele>
        <time>2019-02-02T14:44:00.000Z</time>
      </trkpt>
      <trkpt lat="44.81239" lon="1.13906">
        <ele>189</ele>
        <time>2019-02-02T14:45:00.000Z</time>
      </trkpt>
      <trkpt lat="44.81229" lon="1.13906">
        <ele>189</ele>
        <time>2019-02-02T14:46:00.000Z</time>
      </trkpt>
      <trkpt lat="44.8121" lon="1.13901">
        <ele>191</ele>
        <time>2019-02-02T14:47:00.000Z</time>
      </trkpt>
      <trkpt lat="44.81202" lon="1.13896">
        <ele>192</ele>
        <time>2019-02-02T14:48:00.000Z</time>
      </trkpt>
      <trkpt lat="44.81193" lon="1.13892">
        <ele>193</ele>
        <time>2019-02-02T14:49:00.000Z</time>
      </trkpt>
      <trkpt lat="44.81183" lon="1.13889">
        <ele>194</ele>
        <time>2019-02-02T14:50:00.000Z</time>
      </trkpt>
      <trkpt lat="44.81172" lon="1.13885">
        <ele>195</ele>
        <time>2019-02-02T14:51:00.000Z</time>
      </trkpt>
      <trkpt lat="44.81163" lon="1.13882">
        <ele>196</ele>
        <time>2019-02-02T14:52:00.000Z</time>
      </trkpt>
      <trkpt lat="44.81154" lon="1.13879">
        <ele>196</ele>
        <time>2019-02-02T14:53:00.000Z</time>
      </trkpt>
      <trkpt lat="44.81144" lon="1.1388">
        <ele>197</ele>
        <time>2019-02-02T14:54:00.000Z</time>
      </trkpt>
      <trkpt lat="44.81134" lon="1.13877">
        <ele>198</ele>
        <time>2019-02-02T14:55:00.000Z</time>
      </trkpt>
      <trkpt lat="44.81125" lon="1.13878">
        <ele>198</ele>
        <time>2019-02-02T14:56:00.000Z</time>
      </trkpt>
      <trkpt lat="44.81105" lon="1.13879">
        <ele>200</ele>
        <time>2019-02-02T14:57:00.000Z</time>
      </trkpt>
      <trkpt lat="44.81095" lon="1.13882">
        <ele>201</ele>
        <time>2019-02-02T14:58:00.000Z</time>
      </trkpt>
      <trkpt lat="44.81085" lon="1.13886">
        <ele>201</ele>
        <time>2019-02-02T14:59:00.000Z</time>
      </trkpt>
      <trkpt lat="44.81075" lon="1.1389">
        <ele>202</ele>
        <time>2019-02-02T15:00:00.000Z</time>
      </trkpt>
      <trkpt lat="44.81065" lon="1.13893">
        <ele>203</ele>
        <time>2019-02-02T15:01:00.000Z</time>
      </trkpt>
      <trkpt lat="44.81056" lon="1.13897">
        <ele>204</ele>
        <time>2019-02-02T15:02:00.000Z</time>
      </trkpt>
      <trkpt lat="44.81046" lon="1.139">
        <ele>205</ele>
        <time>2019-02-02T15:03:00.000Z</time>
      </trkpt>
      <trkpt lat="44.81038" lon="1.13904">
        <ele>205</ele>
        <time>2019-02-02T15:04:00.000Z</time>
      </trkpt>
      <trkpt lat="44.81029" lon="1.13909">
        <ele>206</ele>
        <time>2019-02-02T15:05:00.000Z</time>
      </trkpt>
      <trkpt lat="44.81019" lon="1.13912">
        <ele>207</ele>
        <time>2019-02-02T15:06:00.000Z</time>
      </trkpt>
      <trkpt lat="44.81011" lon="1.13917">
        <ele>208</ele>
        <time>2019-02-02T15:07:00.000Z</time>
      </trkpt>
      <trkpt lat="44.80992" lon="1.13921">
        <ele>210</ele>
        <time>2019-02-02T15:08:00.000Z</time>
      </trkpt>
      <trkpt lat="44.80982" lon="1.13925">
        <ele>211</ele>
        <time>2019-02-02T15:09:00.000Z</time>
      </trkpt>
      <trkpt lat="44.80963" lon="1.13934">
        <ele>213</ele>
        <time>2019-02-02T15:10:00.000Z</time>
      </trkpt>
      <trkpt lat="44.80954" lon="1.13937">
        <ele>214</ele>
        <time>2019-02-02T15:11:00.000Z</time>
      </trkpt>
      <trkpt lat="44.80945" lon="1.13937">
        <ele>215</ele>
        <time>2019-02-02T15:12:00.000Z</time>
      </trkpt>
      <trkpt lat="44.80925" lon="1.13934">
        <ele>217</ele>
        <time>2019-02-02T15:13:00.000Z</time>
      </trkpt>
      <trkpt lat="44.80916" lon="1.13932">
        <ele>218</ele>
        <time>2019-02-02T15:14:00.000Z</time>
      </trkpt>
      <trkpt lat="44.80905" lon="1.13931">
        <ele>219</ele>
        <time>2019-02-02T15:15:00.000Z</time>
      </trkpt>
      <trkpt lat="44.80895" lon="1.13927">
        <ele>220</ele>
        <time>2019-02-02T15:16:00.000Z</time>
      </trkpt>
      <trkpt lat="44.80875" lon="1.13924">
        <ele>221</ele>
        <time>2019-02-02T15:17:00.000Z</time>
      </trkpt>
      <trkpt lat="44.80866" lon="1.13921">
        <ele>222</ele>
        <time>2019-02-02T15:18:00.000Z</time>
      </trkpt>
      <trkpt lat="44.80857" lon="1.13917">
        <ele>222</ele>
        <time>2019-02-02T15:19:00.000Z</time>
      </trkpt>
      <trkpt lat="44.80847" lon="1.13918">
        <ele>223</ele>
        <time>2019-02-02T15:20:00.000Z</time>
      </trkpt>
      <trkpt lat="44.80838" lon="1.13921">
        <ele>224</ele>
        <time>2019-02-02T15:21:00.000Z</time>
      </trkpt>
      <trkpt lat="44.8083" lon="1.13926">
        <ele>224</ele>
        <time>2019-02-02T15:22:00.000Z</time>
      </trkpt>
      <trkpt lat="44.80821" lon="1.13934">
        <ele>223</ele>
        <time>2019-02-02T15:23:00.000Z</time>
      </trkpt>
      <trkpt lat="44.80812" lon="1.13935">
        <ele>222</ele>
        <time>2019-02-02T15:24:00.000Z</time>
      </trkpt>
      <trkpt lat="44.80799" lon="1.13931">
        <ele>222</ele>
        <time>2019-02-02T15:25:00.000Z</time>
      </trkpt>
      <trkpt lat="44.80771" lon="1.13918">
        <ele>220</ele>
        <time>2019-02-02T15:26:00.000Z</time>
      </trkpt>
      <trkpt lat="44.80747" lon="1.13884">
        <ele>219</ele>
        <time>2019-02-02T15:27:00.000Z</time>
      </trkpt>
      <trkpt lat="44.80719" lon="1.13834">
        <ele>219</ele>
        <time>2019-02-02T15:28:00.000Z</time>
      </trkpt>
      <trkpt lat="44.80719" lon="1.13798">
        <ele>220</ele>
        <time>2019-02-02T15:29:00.000Z</time>
      </trkpt>
      <trkpt lat="44.80739" lon="1.13786">
        <ele>219</ele>
        <time>2019-02-02T15:30:00.000Z</time>
      </trkpt>
      <trkpt lat="44.80749" lon="1.13779">
        <ele>219</ele>
        <time>2019-02-02T15:31:00.000Z</time>
      </trkpt>
      <trkpt lat="44.80769" lon="1.13765">
        <ele>219</ele>
        <time>2019-02-02T15:32:00.000Z</time>
      </trkpt>
      <trkpt lat="44.80793" lon="1.13751">
        <ele>218</ele>
        <time>2019-02-02T15:33:00.000Z</time>
      </trkpt>
      <trkpt lat="44.80808" lon="1.13732">
        <ele>216</ele>
        <time>2019-02-02T15:34:00.000Z</time>
      </trkpt>
      <trkpt lat="44.80825" lon="1.13687">
        <ele>214</ele>
        <time>2019-02-02T15:35:00.000Z</time>
      </trkpt>
      <trkpt lat="44.8084" lon="1.13638">
        <ele>213</ele>
        <time>2019-02-02T15:36:00.000Z</time>
      </trkpt>
      <trkpt lat="44.80857" lon="1.13588">
        <ele>214</ele>
        <time>2019-02-02T15:37:00.000Z</time>
      </trkpt>
      <trkpt lat="44.80871" lon="1.13558">
        <ele>217</ele>
        <time>2019-02-02T15:38:00.000Z</time>
      </trkpt>
      <trkpt lat="44.80879" lon="1.13545">
        <ele>218</ele>
        <time>2019-02-02T15:39:00.000Z</time>
      </trkpt>
      <trkpt lat="44.80886" lon="1.13531">
        <ele>219</ele>
        <time>2019-02-02T15:40:00.000Z</time>
      </trkpt>
      <trkpt lat="44.80895" lon="1.13515">
        <ele>220</ele>
        <time>2019-02-02T15:41:00.000Z</time>
      </trkpt>
      <trkpt lat="44.80911" lon="1.13505">
        <ele>219</ele>
        <time>2019-02-02T15:42:00.000Z</time>
      </trkpt>
      <trkpt lat="44.80956" lon="1.13528">
        <ele>212</ele>
        <time>2019-02-02T15:43:00.000Z</time>
      </trkpt>
      <trkpt lat="44.81012" lon="1.13548">
        <ele>207</ele>
        <time>2019-02-02T15:44:00.000Z</time>
      </trkpt>
      <trkpt lat="44.81061" lon="1.13537">
        <ele>206</ele>
        <time>2019-02-02T15:45:00.000Z</time>
      </trkpt>
      <trkpt lat="44.81098" lon="1.13523">
        <ele>207</ele>
        <time>2019-02-02T15:46:00.000Z</time>
      </trkpt>
      <trkpt lat="44.81132" lon="1.135">
        <ele>209</ele>
        <time>2019-02-02T15:47:00.000Z</time>
      </trkpt>
      <trkpt lat="44.81149" lon="1.13491">
        <ele>210</ele>
        <time>2019-02-02T15:48:00.000Z</time>
      </trkpt>
      <trkpt lat="44.81158" lon="1.13473">
        <ele>211</ele>
        <time>2019-02-02T15:49:00.000Z</time>
      </trkpt>
      <trkpt lat="44.8116" lon="1.13454">
        <ele>212</ele>
        <time>2019-02-02T15:50:00.000Z</time>
      </trkpt>
      <trkpt lat="44.81159" lon="1.13439">
        <ele>213</ele>
        <time>2019-02-02T15:51:00.000Z</time>
      </trkpt>
      <trkpt lat="44.81157" lon="1.13393">
        <ele>214</ele>
        <time>2019-02-02T15:52:00.000Z</time>
      </trkpt>
      <trkpt lat="44.81155" lon="1.13367">
        <ele>214</ele>
        <time>2019-02-02T15:53:00.000Z</time>
      </trkpt>
      <trkpt lat="44.81159" lon="1.13354">
        <ele>215</ele>
        <time>2019-02-02T15:54:00.000Z</time>
      </trkpt>
      <trkpt lat="44.81169" lon="1.13339">
        <ele>216</ele>
        <time>2019-02-02T15:55:00.000Z</time>
      </trkpt>
      <trkpt lat="44.8118" lon="1.13325">
        <ele>215</ele>
        <time>2019-02-02T15:56:00.000Z</time>
      </trkpt>
      <trkpt lat="44.81201" lon="1.133">
        <ele>214</ele>
        <time>2019-02-02T15:57:00.000Z</time>
      </trkpt>
      <trkpt lat="44.81235" lon="1.13258">
        <ele>214</ele>
        <time>2019-02-02T15:58:00.000Z</time>
      </trkpt>
      <trkpt lat="44.81269" lon="1.13219">
        <ele>212</ele>
        <time>2019-02-02T15:59:00.000Z</time>
      </trkpt>
      <trkpt lat="44.81301" lon="1.13196">
        <ele>210</ele>
        <time>2019-02-02T16:00:00.000Z</time>
      </trkpt>
      <trkpt lat="44.81334" lon="1.13169">
        <ele>211</ele>
        <time>2019-02-02T16:01:00.000Z</time>
      </trkpt>
      <trkpt lat="44.81356" lon="1.1314">
        <ele>211</ele>
        <time>2019-02-02T16:02:00.000Z</time>
      </trkpt>
      <trkpt lat="44.81373" lon="1.13124">
        <ele>211</ele>
        <time>2019-02-02T16:03:00.000Z</time>
      </trkpt>
      <trkpt lat="44.8139" lon="1.13112">
        <ele>211</ele>
        <time>2019-02-02T16:04:00.000Z</time>
      </trkpt>
      <trkpt lat="44.81409" lon="1.13092">
        <ele>212</ele>
        <time>2019-02-02T16:05:00.000Z</time>
      </trkpt>
      <trkpt lat="44.81439" lon="1.1307">
        <ele>212</ele>
        <time>2019-02-02T16:06:00.000Z</time>
      </trkpt>
      <trkpt lat="44.81469" lon="1.1304">
        <ele>211</ele>
        <time>2019-02-02T16:07:00.000Z</time>
      </trkpt>
      <trkpt lat="44.815" lon="1.13008">
        <ele>211</ele>
        <time>2019-02-02T16:08:00.000Z</time>
      </trkpt>
      <trkpt lat="44.81535" lon="1.12991">
        <ele>209</ele>
        <time>2019-02-02T16:09:00.000Z</time>
      </trkpt>
      <trkpt lat="44.81565" lon="1.12972">
        <ele>207</ele>
        <time>2019-02-02T16:10:00.000Z</time>
      </trkpt>
      <trkpt lat="44.81593" lon="1.12957">
        <ele>205</ele>
        <time>2019-02-02T16:11:00.000Z</time>
      </trkpt>
      <trkpt lat="44.81617" lon="1.12947">
        <ele>204</ele>
        <time>2019-02-02T16:12:00.000Z</time>
      </trkpt>
      <trkpt lat="44.81646" lon="1.12951">
        <ele>204</ele>
        <time>2019-02-02T16:13:00.000Z</time>
      </trkpt>
      <trkpt lat="44.81675" lon="1.12963">
        <ele>204</ele>
        <time>2019-02-02T16:14:00.000Z</time>
      </trkpt>
      <trkpt lat="44.81705" lon="1.12976">
        <ele>204</ele>
        <time>2019-02-02T16:15:00.000Z</time>
      </trkpt>
      <trkpt lat="44.81734" lon="1.12987">
        <ele>205</ele>
        <time>2019-02-02T16:16:00.000Z</time>
      </trkpt>
      <trkpt lat="44.81772" lon="1.12969">
        <ele>203</ele>
        <time>2019-02-02T16:17:00.000Z</time>
      </trkpt>
      <trkpt lat="44.81812" lon="1.12945">
        <ele>202</ele>
        <time>2019-02-02T16:18:00.000Z</time>
      </trkpt>
      <trkpt lat="44.81847" lon="1.12922">
        <ele>203</ele>
        <time>2019-02-02T16:19:00.000Z</time>
      </trkpt>
      <trkpt lat="44.81866" lon="1.129">
        <ele>205</ele>
        <time>2019-02-02T16:20:00.000Z</time>
      </trkpt>
      <trkpt lat="44.81876" lon="1.1286">
        <ele>206</ele>
        <time>2019-02-02T16:21:00.000Z</time>
      </trkpt>
      <trkpt lat="44.81883" lon="1.12827">
        <ele>206</ele>
        <time>2019-02-02T16:22:00.000Z</time>
      </trkpt>
      <trkpt lat="44.81885" lon="1.12799">
        <ele>206</ele>
        <time>2019-02-02T16:23:00.000Z</time>
      </trkpt>
      <trkpt lat="44.81887" lon="1.12769">
        <ele>206</ele>
        <time>2019-02-02T16:24:00.000Z</time>
      </trkpt>
      <trkpt lat="44.81891" lon="1.12743">
        <ele>206</ele>
        <time>2019-02-02T16:25:00.000Z</time>
      </trkpt>
      <trkpt lat="44.81892" lon="1.12717">
        <ele>204</ele>
        <time>2019-02-02T16:26:00.000Z</time>
      </trkpt>
      <trkpt lat="44.8192" lon="1.12661">
        <ele>202</ele>
        <time>2019-02-02T16:27:00.000Z</time>
      </trkpt>
      <trkpt lat="44.81949" lon="1.12618">
        <ele>195</ele>
        <time>2019-02-02T16:28:00.000Z</time>
      </trkpt>
      <trkpt lat="44.8197" lon="1.1258">
        <ele>190</ele>
        <time>2019-02-02T16:29:00.000Z</time>
      </trkpt>
      <trkpt lat="44.81974" lon="1.12525">
        <ele>184</ele>
        <time>2019-02-02T16:30:00.000Z</time>
      </trkpt>
      <trkpt lat="44.81976" lon="1.12481">
        <ele>180</ele>
        <time>2019-02-02T16:31:00.000Z</time>
      </trkpt>
      <trkpt lat="44.8201" lon="1.12449">
        <ele>180</ele>
        <time>2019-02-02T16:32:00.000Z</time>
      </trkpt>
      <trkpt lat="44.82027" lon="1.12385">
        <ele>174</ele>
        <time>2019-02-02T16:33:00.000Z</time>
      </trkpt>
      <trkpt lat="44.8204" lon="1.12334">
        <ele>168</ele>
        <time>2019-02-02T16:34:00.000Z</time>
      </trkpt>
      <trkpt lat="44.82056" lon="1.12287">
        <ele>161</ele>
        <time>2019-02-02T16:35:00.000Z</time>
      </trkpt>
      <trkpt lat="44.82099" lon="1.12248">
        <ele>162</ele>
        <time>2019-02-02T16:36:00.000Z</time>
      </trkpt>
      <trkpt lat="44.82138" lon="1.12217">
        <ele>156</ele>
        <time>2019-02-02T16:37:00.000Z</time>
      </trkpt>
      <trkpt lat="44.82182" lon="1.12188">
        <ele>149</ele>
        <time>2019-02-02T16:38:00.000Z</time>
      </trkpt>
      <trkpt lat="44.82216" lon="1.12173">
        <ele>142</ele>
        <time>2019-02-02T16:39:00.000Z</time>
      </trkpt>
      <trkpt lat="44.82255" lon="1.12166">
        <ele>136</ele>
        <time>2019-02-02T16:40:00.000Z</time>
      </trkpt>
      <trkpt lat="44.8229" lon="1.12186">
        <ele>138</ele>
        <time>2019-02-02T16:41:00.000Z</time>
      </trkpt>
      <trkpt lat="44.82325" lon="1.12184">
        <ele>132</ele>
        <time>2019-02-02T16:42:00.000Z</time>
      </trkpt>
      <trkpt lat="44.82361" lon="1.12162">
        <ele>123</ele>
        <time>2019-02-02T16:43:00.000Z</time>
      </trkpt>
      <trkpt lat="44.82409" lon="1.12155">
        <ele>121</ele>
        <time>2019-02-02T16:44:00.000Z</time>
      </trkpt>
      <trkpt lat="44.82448" lon="1.12151">
        <ele>123</ele>
        <time>2019-02-02T16:45:00.000Z</time>
      </trkpt>
      <trkpt lat="44.82472" lon="1.1212">
        <ele>119</ele>
        <time>2019-02-02T16:46:00.000Z</time>
      </trkpt>
      <trkpt lat="44.82485" lon="1.12078">
        <ele>111</ele>
        <time>2019-02-02T16:47:00.000Z</time>
      </trkpt>
      <trkpt lat="44.825" lon="1.12035">
        <ele>105</ele>
        <time>2019-02-02T16:48:00.000Z</time>
      </trkpt>
      <trkpt lat="44.82532" lon="1.11979">
        <ele>101</ele>
        <time>2019-02-02T16:49:00.000Z</time>
      </trkpt>
      <trkpt lat="44.8256" lon="1.11932">
        <ele>95</ele>
        <time>2019-02-02T16:50:00.000Z</time>
      </trkpt>
      <trkpt lat="44.82579" lon="1.1187">
        <ele>86</ele>
        <time>2019-02-02T16:51:00.000Z</time>
      </trkpt>
      <trkpt lat="44.82589" lon="1.1182">
        <ele>80</ele>
        <time>2019-02-02T16:52:00.000Z</time>
      </trkpt>
      <trkpt lat="44.82618" lon="1.1178">
        <ele>77</ele>
        <time>2019-02-02T16:53:00.000Z</time>
      </trkpt>
      <trkpt lat="44.82638" lon="1.11755">
        <ele>73</ele>
        <time>2019-02-02T16:54:00.000Z</time>
      </trkpt>
      <trkpt lat="44.82666" lon="1.1175">
        <ele>71</ele>
        <time>2019-02-02T16:55:00.000Z</time>
      </trkpt>
      <trkpt lat="44.82663" lon="1.11733">
        <ele>70</ele>
        <time>2019-02-02T16:56:00.000Z</time>
      </trkpt>
      <trkpt lat="44.82648" lon="1.11713">
        <ele>70</ele>
        <time>2019-02-02T16:57:00.000Z</time>
      </trkpt>
      <trkpt lat="44.82636" lon="1.11693">
        <ele>69</ele>
        <time>2019-02-02T16:58:00.000Z</time>
      </trkpt>
      <trkpt lat="44.82615" lon="1.11666">
        <ele>68</ele>
        <time>2019-02-02T16:59:00.000Z</time>
      </trkpt>
      <trkpt lat="44.82595" lon="1.1164">
        <ele>69</ele>
        <time>2019-02-02T17:00:00.000Z</time>
      </trkpt>
      <trkpt lat="44.8258" lon="1.11619">
        <ele>69</ele>
        <time>2019-02-02T17:01:00.000Z</time>
      </trkpt>
      <trkpt lat="44.82563" lon="1.11595">
        <ele>71</ele>
        <time>2019-02-02T17:02:00.000Z</time>
      </trkpt>
      <trkpt lat="44.82548" lon="1.11578">
        <ele>73</ele>
        <time>2019-02-02T17:03:00.000Z</time>
      </trkpt>
      <trkpt lat="44.82538" lon="1.11578">
        <ele>75</ele>
        <time>2019-02-02T17:04:00.000Z</time>
      </trkpt>
      <trkpt lat="44.82543" lon="1.11566">
        <ele>74</ele>
        <time>2019-02-02T17:05:00.000Z</time>
      </trkpt>
      <trkpt lat="44.82539" lon="1.11538">
        <ele>75</ele>
        <time>2019-02-02T17:06:00.000Z</time>
      </trkpt>
      <trkpt lat="44.82532" lon="1.11508">
        <ele>77</ele>
        <time>2019-02-02T17:07:00.000Z</time>
      </trkpt>
      <trkpt lat="44.82521" lon="1.11479">
        <ele>77</ele>
        <time>2019-02-02T17:08:00.000Z</time>
      </trkpt>
      <trkpt lat="44.82512" lon="1.11461">
        <ele>77</ele>
        <time>2019-02-02T17:09:00.000Z</time>
      </trkpt>
      <trkpt lat="44.82504" lon="1.1144">
        <ele>76</ele>
        <time>2019-02-02T17:10:00.000Z</time>
      </trkpt>
      <trkpt lat="44.82479" lon="1.11389">
        <ele>80</ele>
        <time>2019-02-02T17:11:00.000Z</time>
      </trkpt>
      <trkpt lat="44.8247" lon="1.11367">
        <ele>81</ele>
        <time>2019-02-02T17:12:00.000Z</time>
      </trkpt>
      <trkpt lat="44.82464" lon="1.11345">
        <ele>81</ele>
        <time>2019-02-02T17:13:00.000Z</time>
      </trkpt>
      <trkpt lat="44.82449" lon="1.11299">
        <ele>80</ele>
        <time>2019-02-02T17:14:00.000Z</time>
      </trkpt>
      <trkpt lat="44.8244" lon="1.11272">
        <ele>79</ele>
        <time>2019-02-02T17:15:00.000Z</time>
      </trkpt>
      <trkpt lat="44.82428" lon="1.11237">
        <ele>76</ele>
        <time>2019-02-02T17:16:00.000Z</time>
      </trkpt>
      <trkpt lat="44.82429" lon="1.11203">
        <ele>73</ele>
        <time>2019-02-02T17:17:00.000Z</time>
      </trkpt>
      <trkpt lat="44.82422" lon="1.1117">
        <ele>71</ele>
        <time>2019-02-02T17:18:00.000Z</time>
      </trkpt>
      <trkpt lat="44.82404" lon="1.11144">
        <ele>74</ele>
        <time>2019-02-02T17:19:00.000Z</time>
      </trkpt>
      <trkpt lat="44.82392" lon="1.11123">
        <ele>76</ele>
        <time>2019-02-02T17:20:00.000Z</time>
      </trkpt>
      <trkpt lat="44.82373" lon="1.11093">
        <ele>79</ele>
        <time>2019-02-02T17:21:00.000Z</time>
      </trkpt>
      <trkpt lat="44.82355" lon="1.11068">
        <ele>81</ele>
        <time>2019-02-02T17:22:00.000Z</time>
      </trkpt>
      <trkpt lat="44.82344" lon="1.11049">
        <ele>82</ele>
        <time>2019-02-02T17:23:00.000Z</time>
      </trkpt>
      <trkpt lat="44.82331" lon="1.11017">
        <ele>81</ele>
        <time>2019-02-02T17:24:00.000Z</time>
      </trkpt>
      <trkpt lat="44.82321" lon="1.10978">
        <ele>80</ele>
        <time>2019-02-02T17:25:00.000Z</time>
      </trkpt>
      <trkpt lat="44.82318" lon="1.10952">
        <ele>77</ele>
        <time>2019-02-02T17:26:00.000Z</time>
      </trkpt>
      <trkpt lat="44.82311" lon="1.10928">
        <ele>76</ele>
        <time>2019-02-02T17:27:00.000Z</time>
      </trkpt>
      <trkpt lat="44.82306" lon="1.10904">
        <ele>75</ele>
        <time>2019-02-02T17:28:00.000Z</time>
      </trkpt>
      <trkpt lat="44.82288" lon="1.10886">
        <ele>79</ele>
        <time>2019-02-02T17:29:00.000Z</time>
      </trkpt>
      <trkpt lat="44.82271" lon="1.10883">
        <ele>83</ele>
        <time>2019-02-02T17:30:00.000Z</time>
      </trkpt>
      <trkpt lat="44.8226" lon="1.10886">
        <ele>86</ele>
        <time>2019-02-02T17:31:00.000Z</time>
      </trkpt>
      <trkpt lat="44.82248" lon="1.10892">
        <ele>89</ele>
        <time>2019-02-02T17:32:00.000Z</time>
      </trkpt>
      <trkpt lat="44.82234" lon="1.10897">
        <ele>90</ele>
        <time>2019-02-02T17:33:00.000Z</time>
      </trkpt>
      <trkpt lat="44.8222" lon="1.109">
        <ele>91</ele>
        <time>2019-02-02T17:34:00.000Z</time>
      </trkpt>
      <trkpt lat="44.82208" lon="1.10901">
        <ele>91</ele>
        <time>2019-02-02T17:35:00.000Z</time>
      </trkpt>
      <trkpt lat="44.82197" lon="1.10902">
        <ele>92</ele>
        <time>2019-02-02T17:36:00.000Z</time>
      </trkpt>
      <trkpt lat="44.82184" lon="1.10903">
        <ele>92</ele>
        <time>2019-02-02T17:37:00.000Z</time>
      </trkpt>
      <trkpt lat="44.82174" lon="1.10903">
        <ele>93</ele>
        <time>2019-02-02T17:38:00.000Z</time>
      </trkpt>
      <trkpt lat="44.82164" lon="1.10906">
        <ele>93</ele>
        <time>2019-02-02T17:39:00.000Z</time>
      </trkpt>
      <trkpt lat="44.82153" lon="1.10908">
        <ele>93</ele>
        <time>2019-02-02T17:40:00.000Z</time>
      </trkpt>
      <trkpt lat="44.82143" lon="1.10911">
        <ele>93</ele>
        <time>2019-02-02T17:41:00.000Z</time>
      </trkpt>
      <trkpt lat="44.82133" lon="1.10914">
        <ele>92</ele>
        <time>2019-02-02T17:42:00.000Z</time>
      </trkpt>
      <trkpt lat="44.82101" lon="1.10923">
        <ele>92</ele>
        <time>2019-02-02T17:43:00.000Z</time>
      </trkpt>
      <trkpt lat="44.82091" lon="1.10924">
        <ele>92</ele>
        <time>2019-02-02T17:44:00.000Z</time>
      </trkpt>
      <trkpt lat="44.8208" lon="1.10926">
        <ele>93</ele>
        <time>2019-02-02T17:45:00.000Z</time>
      </trkpt>
      <trkpt lat="44.8207" lon="1.10927">
        <ele>93</ele>
        <time>2019-02-02T17:46:00.000Z</time>
      </trkpt>
      <trkpt lat="44.82059" lon="1.10931">
        <ele>94</ele>
        <time>2019-02-02T17:47:00.000Z</time>
      </trkpt>
      <trkpt lat="44.82049" lon="1.10928">
        <ele>94</ele>
        <time>2019-02-02T17:48:00.000Z</time>
      </trkpt>
      <trkpt lat="44.82042" lon="1.10915">
        <ele>94</ele>
        <time>2019-02-02T17:49:00.000Z</time>
      </trkpt>
      <trkpt lat="44.82041" lon="1.10899">
        <ele>95</ele>
        <time>2019-02-02T17:50:00.000Z</time>
      </trkpt>
      <trkpt lat="44.82043" lon="1.10886">
        <ele>95</ele>
        <time>2019-02-02T17:51:00.000Z</time>
      </trkpt>
      <trkpt lat="44.82052" lon="1.1088">
        <ele>95</ele>
        <time>2019-02-02T17:52:00.000Z</time>
      </trkpt>
      <trkpt lat="44.82061" lon="1.10875">
        <ele>95</ele>
        <time>2019-02-02T17:53:00.000Z</time>
      </trkpt>
      <trkpt lat="44.82069" lon="1.10868">
        <ele>96</ele>
        <time>2019-02-02T17:54:00.000Z</time>
      </trkpt>
      <trkpt lat="44.82077" lon="1.10861">
        <ele>96</ele>
        <time>2019-02-02T17:55:00.000Z</time>
      </trkpt>
      <trkpt lat="44.82084" lon="1.10852">
        <ele>96</ele>
        <time>2019-02-02T17:56:00.000Z</time>
      </trkpt>
      <trkpt lat="44.8209" lon="1.10841">
        <ele>97</ele>
        <time>2019-02-02T17:57:00.000Z</time>
      </trkpt>
      <trkpt lat="44.82095" lon="1.10829">
        <ele>98</ele>
        <time>2019-02-02T17:58:00.000Z</time>
      </trkpt>
      <trkpt lat="44.82099" lon="1.10815">
        <ele>99</ele>
        <time>2019-02-02T17:59:00.000Z</time>
      </trkpt>
      <trkpt lat="44.82104" lon="1.10802">
        <ele>99</ele>
        <time>2019-02-02T18:00:00.000Z</time>
      </trkpt>
      <trkpt lat="44.82108" lon="1.10789">
        <ele>100</ele>
        <time>2019-02-02T18:01:00.000Z</time>
      </trkpt>
      <trkpt lat="44.82121" lon="1.10748">
        <ele>102</ele>
        <time>2019-02-02T18:02:00.000Z</time>
      </trkpt>
      <trkpt lat="44.82124" lon="1.10735">
        <ele>101</ele>
        <time>2019-02-02T18:03:00.000Z</time>
      </trkpt>
      <trkpt lat="44.82126" lon="1.10716">
        <ele>101</ele>
        <time>2019-02-02T18:04:00.000Z</time>
      </trkpt>
      <trkpt lat="44.82127" lon="1.10694">
        <ele>100</ele>
        <time>2019-02-02T18:05:00.000Z</time>
      </trkpt>
      <trkpt lat="44.82131" lon="1.1059">
        <ele>98</ele>
        <time>2019-02-02T18:06:00.000Z</time>
      </trkpt>
      <trkpt lat="44.82125" lon="1.10547">
        <ele>99</ele>
        <time>2019-02-02T18:07:00.000Z</time>
      </trkpt>
      <trkpt lat="44.82105" lon="1.10489">
        <ele>101</ele>
        <time>2019-02-02T18:08:00.000Z</time>
      </trkpt>
      <trkpt lat="44.82098" lon="1.10468">
        <ele>102</ele>
        <time>2019-02-02T18:09:00.000Z</time>
      </trkpt>
      <trkpt lat="44.82094" lon="1.10449">
        <ele>103</ele>
        <time>2019-02-02T18:10:00.000Z</time>
      </trkpt>
      <trkpt lat="44.82091" lon="1.10434">
        <ele>103</ele>
        <time>2019-02-02T18:11:00.000Z</time>
      </trkpt>
      <trkpt lat="44.8209" lon="1.10416">
        <ele>104</ele>
        <time>2019-02-02T18:12:00.000Z</time>
      </trkpt>
      <trkpt lat="44.82088" lon="1.10399">
        <ele>104</ele>
        <time>2019-02-02T18:13:00.000Z</time>
      </trkpt>
      <trkpt lat="44.82082" lon="1.10388">
        <ele>104</ele>
        <time>2019-02-02T18:14:00.000Z</time>
      </trkpt>
      <trkpt lat="44.82074" lon="1.10378">
        <ele>104</ele>
        <time>2019-02-02T18:15:00.000Z</time>
      </trkpt>
      <trkpt lat="44.82064" lon="1.10369">
        <ele>105</ele>
        <time>2019-02-02T18:16:00.000Z</time>
      </trkpt>
      <trkpt lat="44.82053" lon="1.1036">
        <ele>105</ele>
        <time>2019-02-02T18:17:00.000Z</time>
      </trkpt>
      <trkpt lat="44.82044" lon="1.10353">
        <ele>106</ele>
        <time>2019-02-02T18:18:00.000Z</time>
      </trkpt>
      <trkpt lat="44.82025" lon="1.10338">
        <ele>107</ele>
        <time>2019-02-02T18:19:00.000Z</time>
      </trkpt>
      <trkpt lat="44.82016" lon="1.10328">
        <ele>107</ele>
        <time>2019-02-02T18:20:00.000Z</time>
      </trkpt>
      <trkpt lat="44.82007" lon="1.10315">
        <ele>108</ele>
        <time>2019-02-02T18:21:00.000Z</time>
      </trkpt>
      <trkpt lat="44.82" lon="1.10303">
        <ele>108</ele>
        <time>2019-02-02T18:22:00.000Z</time>
      </trkpt>
      <trkpt lat="44.81993" lon="1.10286">
        <ele>108</ele>
        <time>2019-02-02T18:23:00.000Z</time>
      </trkpt>
      <trkpt lat="44.81991" lon="1.10258">
        <ele>109</ele>
        <time>2019-02-02T18:24:00.000Z</time>
      </trkpt>
      <trkpt lat="44.81996" lon="1.10223">
        <ele>108</ele>
        <time>2019-02-02T18:25:00.000Z</time>
      </trkpt>
      <trkpt lat="44.82001" lon="1.10179">
        <ele>106</ele>
        <time>2019-02-02T18:26:00.000Z</time>
      </trkpt>
      <trkpt lat="44.81998" lon="1.10124">
        <ele>106</ele>
        <time>2019-02-02T18:27:00.000Z</time>
      </trkpt>
      <trkpt lat="44.8198" lon="1.10058">
        <ele>104</ele>
        <time>2019-02-02T18:28:00.000Z</time>
      </trkpt>
      <trkpt lat="44.81944" lon="1.10027">
        <ele>100</ele>
        <time>2019-02-02T18:29:00.000Z</time>
      </trkpt>
      <trkpt lat="44.81929" lon="1.09953">
        <ele>96</ele>
        <time>2019-02-02T18:30:00.000Z</time>
      </trkpt>
      <trkpt lat="44.81933" lon="1.09893">
        <ele>95</ele>
        <time>2019-02-02T18:31:00.000Z</time>
      </trkpt>
      <trkpt lat="44.81936" lon="1.09824">
        <ele>94</ele>
        <time>2019-02-02T18:32:00.000Z</time>
      </trkpt>
      <trkpt lat="44.81932" lon="1.0977">
        <ele>91</ele>
        <time>2019-02-02T18:33:00.000Z</time>
      </trkpt>
      <trkpt lat="44.81928" lon="1.09697">
        <ele>87</ele>
        <time>2019-02-02T18:34:00.000Z</time>
      </trkpt>
      <trkpt lat="44.81897" lon="1.09626">
        <ele>86</ele>
        <time>2019-02-02T18:35:00.000Z</time>
      </trkpt>
      <trkpt lat="44.81899" lon="1.09558">
        <ele>90</ele>
        <time>2019-02-02T18:36:00.000Z</time>
      </trkpt>
      <trkpt lat="44.81884" lon="1.09524">
        <ele>97</ele>
        <time>2019-02-02T18:37:00.000Z</time>
      </trkpt>
      <trkpt lat="44.81867" lon="1.09521">
        <ele>97</ele>
        <time>2019-02-02T18:38:00.000Z</time>
      </trkpt>
      <trkpt lat="44.8184" lon="1.09522">
        <ele>97</ele>
        <time>2019-02-02T18:39:00.000Z</time>
      </trkpt>
      <trkpt lat="44.81818" lon="1.09521">
        <ele>97</ele>
        <time>2019-02-02T18:40:00.000Z</time>
      </trkpt>
      <trkpt lat="44.81797" lon="1.09517">
        <ele>96</ele>
        <time>2019-02-02T18:41:00.000Z</time>
      </trkpt>
      <trkpt lat="44.81777" lon="1.0951">
        <ele>96</ele>
        <time>2019-02-02T18:42:00.000Z</time>
      </trkpt>
      <trkpt lat="44.81754" lon="1.09503">
        <ele>96</ele>
        <time>2019-02-02T18:43:00.000Z</time>
      </trkpt>
      <trkpt lat="44.81735" lon="1.095">
        <ele>96</ele>
        <time>2019-02-02T18:44:00.000Z</time>
      </trkpt>
      <trkpt lat="44.81718" lon="1.09498">
        <ele>97</ele>
        <time>2019-02-02T18:45:00.000Z</time>
      </trkpt>
      <trkpt lat="44.81698" lon="1.09496">
        <ele>97</ele>
        <time>2019-02-02T18:46:00.000Z</time>
      </trkpt>
      <trkpt lat="44.8168" lon="1.09492">
        <ele>99</ele>
        <time>2019-02-02T18:47:00.000Z</time>
      </trkpt>
      <trkpt lat="44.81665" lon="1.0949">
        <ele>99</ele>
        <time>2019-02-02T18:48:00.000Z</time>
      </trkpt>
      <trkpt lat="44.81646" lon="1.09489">
        <ele>99</ele>
        <time>2019-02-02T18:49:00.000Z</time>
      </trkpt>
      <trkpt lat="44.81627" lon="1.09488">
        <ele>99</ele>
        <time>2019-02-02T18:50:00.000Z</time>
      </trkpt>
      <trkpt lat="44.81608" lon="1.09483">
        <ele>99</ele>
        <time>2019-02-02T18:51:00.000Z</time>
      </trkpt>
      <trkpt lat="44.81591" lon="1.09474">
        <ele>100</ele>
        <time>2019-02-02T18:52:00.000Z</time>
      </trkpt>
      <trkpt lat="44.81573" lon="1.09457">
        <ele>102</ele>
        <time>2019-02-02T18:53:00.000Z</time>
      </trkpt>
      <trkpt lat="44.81558" lon="1.09433">
        <ele>104</ele>
        <time>2019-02-02T18:54:00.000Z</time>
      </trkpt>
      <trkpt lat="44.81548" lon="1.09407">
        <ele>106</ele>
        <time>2019-02-02T18:55:00.000Z</time>
      </trkpt>
      <trkpt lat="44.8154" lon="1.09387">
        <ele>108</ele>
        <time>2019-02-02T18:56:00.000Z</time>
      </trkpt>
      <trkpt lat="44.81531" lon="1.0937">
        <ele>109</ele>
        <time>2019-02-02T18:57:00.000Z</time>
      </trkpt>
      <trkpt lat="44.81519" lon="1.09358">
        <ele>108</ele>
        <time>2019-02-02T18:58:00.000Z</time>
      </trkpt>
      <trkpt lat="44.81501" lon="1.09354">
        <ele>105</ele>
        <time>2019-02-02T18:59:00.000Z</time>
      </trkpt>
      <trkpt lat="44.81481" lon="1.09356">
        <ele>108</ele>
        <time>2019-02-02T19:00:00.000Z</time>
      </trkpt>
      <trkpt lat="44.81464" lon="1.09364">
        <ele>109</ele>
        <time>2019-02-02T19:01:00.000Z</time>
      </trkpt>
      <trkpt lat="44.81449" lon="1.0937">
        <ele>110</ele>
        <time>2019-02-02T19:02:00.000Z</time>
      </trkpt>
      <trkpt lat="44.81437" lon="1.09372">
        <ele>110</ele>
        <time>2019-02-02T19:03:00.000Z</time>
      </trkpt>
      <trkpt lat="44.81426" lon="1.09376">
        <ele>111</ele>
        <time>2019-02-02T19:04:00.000Z</time>
      </trkpt>
      <trkpt lat="44.81414" lon="1.09378">
        <ele>111</ele>
        <time>2019-02-02T19:05:00.000Z</time>
      </trkpt>
      <trkpt lat="44.81388" lon="1.0938">
        <ele>112</ele>
        <time>2019-02-02T19:06:00.000Z</time>
      </trkpt>
      <trkpt lat="44.81374" lon="1.09382">
        <ele>113</ele>
        <time>2019-02-02T19:07:00.000Z</time>
      </trkpt>
      <trkpt lat="44.81349" lon="1.09383">
        <ele>114</ele>
        <time>2019-02-02T19:08:00.000Z</time>
      </trkpt>
      <trkpt lat="44.81333" lon="1.09385">
        <ele>114</ele>
        <time>2019-02-02T19:09:00.000Z</time>
      </trkpt>
      <trkpt lat="44.81316" lon="1.09389">
        <ele>113</ele>
        <time>2019-02-02T19:10:00.000Z</time>
      </trkpt>
      <trkpt lat="44.81298" lon="1.09389">
        <ele>113</ele>
        <time>2019-02-02T19:11:00.000Z</time>
      </trkpt>
      <trkpt lat="44.81279" lon="1.09387">
        <ele>113</ele>
        <time>2019-02-02T19:12:00.000Z</time>
      </trkpt>
      <trkpt lat="44.81254" lon="1.09387">
        <ele>113</ele>
        <time>2019-02-02T19:13:00.000Z</time>
      </trkpt>
      <trkpt lat="44.8123" lon="1.09385">
        <ele>114</ele>
        <time>2019-02-02T19:14:00.000Z</time>
      </trkpt>
      <trkpt lat="44.81207" lon="1.09376">
        <ele>115</ele>
        <time>2019-02-02T19:15:00.000Z</time>
      </trkpt>
      <trkpt lat="44.81199" lon="1.0937">
        <ele>115</ele>
        <time>2019-02-02T19:16:00.000Z</time>
      </trkpt>
      <trkpt lat="44.81212" lon="1.0939">
        <ele>114</ele>
        <time>2019-02-02T19:17:00.000Z</time>
      </trkpt>
      <trkpt lat="44.81262" lon="1.09383">
        <ele>113</ele>
        <time>2019-02-02T19:18:00.000Z</time>
      </trkpt>
      <trkpt lat="44.81196" lon="1.09373">
        <ele>115</ele>
        <time>2019-02-02T19:19:00.000Z</time>
      </trkpt>
      <trkpt lat="44.81153" lon="1.09325">
        <ele>115</ele>
        <time>2019-02-02T19:20:00.000Z</time>
      </trkpt>
      <trkpt lat="44.81092" lon="1.09304">
        <ele>120</ele>
        <time>2019-02-02T19:21:00.000Z</time>
      </trkpt>
      <trkpt lat="44.81046" lon="1.09284">
        <ele>122</ele>
        <time>2019-02-02T19:22:00.000Z</time>
      </trkpt>
      <trkpt lat="44.8099" lon="1.09279">
        <ele>122</ele>
        <time>2019-02-02T19:23:00.000Z</time>
      </trkpt>
      <trkpt lat="44.80961" lon="1.09232">
        <ele>126</ele>
        <time>2019-02-02T19:24:00.000Z</time>
      </trkpt>
      <trkpt lat="44.80934" lon="1.09209">
        <ele>127</ele>
        <time>2019-02-02T19:25:00.000Z</time>
      </trkpt>
      <trkpt lat="44.80927" lon="1.0919">
        <ele>128</ele>
        <time>2019-02-02T19:26:00.000Z</time>
      </trkpt>
      <trkpt lat="44.80888" lon="1.09189">
        <ele>130</ele>
        <time>2019-02-02T19:27:00.000Z</time>
      </trkpt>
      <trkpt lat="44.80855" lon="1.09178">
        <ele>133</ele>
        <time>2019-02-02T19:28:00.000Z</time>
      </trkpt>
      <trkpt lat="44.80828" lon="1.09187">
        <ele>136</ele>
        <time>2019-02-02T19:29:00.000Z</time>
      </trkpt>
      <trkpt lat="44.80805" lon="1.09187">
        <ele>137</ele>
        <time>2019-02-02T19:30:00.000Z</time>
      </trkpt>
      <trkpt lat="44.80781" lon="1.09191">
        <ele>139</ele>
        <time>2019-02-02T19:31:00.000Z</time>
      </trkpt>
      <trkpt lat="44.80757" lon="1.09197">
        <ele>140</ele>
        <time>2019-02-02T19:32:00.000Z</time>
      </trkpt>
      <trkpt lat="44.80712" lon="1.09214">
        <ele>142</ele>
        <time>2019-02-02T19:33:00.000Z</time>
      </trkpt>
      <trkpt lat="44.80685" lon="1.09228">
        <ele>143</ele>
        <time>2019-02-02T19:34:00.000Z</time>
      </trkpt>
      <trkpt lat="44.80677" lon="1.09257">
        <ele>144</ele>
        <time>2019-02-02T19:35:00.000Z</time>
      </trkpt>
      <trkpt lat="44.8065" lon="1.09273">
        <ele>147</ele>
        <time>2019-02-02T19:36:00.000Z</time>
      </trkpt>
      <trkpt lat="44.80637" lon="1.09256">
        <ele>146</ele>
        <time>2019-02-02T19:37:00.000Z</time>
      </trkpt>
      <trkpt lat="44.80667" lon="1.0922">
        <ele>143</ele>
        <time>2019-02-02T19:38:00.000Z</time>
      </trkpt>
      <trkpt lat="44.80653" lon="1.09186">
        <ele>145</ele>
        <time>2019-02-02T19:39:00.000Z</time>
      </trkpt>
      <trkpt lat="44.80627" lon="1.09174">
        <ele>147</ele>
        <time>2019-02-02T19:40:00.000Z</time>
      </trkpt>
      <trkpt lat="44.80603" lon="1.09157">
        <ele>149</ele>
        <time>2019-02-02T19:41:00.000Z</time>
      </trkpt>
      <trkpt lat="44.80593" lon="1.0913">
        <ele>151</ele>
        <time>2019-02-02T19:42:00.000Z</time>
      </trkpt>
      <trkpt lat="44.8057" lon="1.09109">
        <ele>154</ele>
        <time>2019-02-02T19:43:00.000Z</time>
      </trkpt>
      <trkpt lat="44.80563" lon="1.09073">
        <ele>156</ele>
        <time>2019-02-02T19:44:00.000Z</time>
      </trkpt>
      <trkpt lat="44.80551" lon="1.09042">
        <ele>159</ele>
        <time>2019-02-02T19:45:00.000Z</time>
      </trkpt>
      <trkpt lat="44.80544" lon="1.09002">
        <ele>161</ele>
        <time>2019-02-02T19:46:00.000Z</time>
      </trkpt>
      <trkpt lat="44.80524" lon="1.0898">
        <ele>162</ele>
        <time>2019-02-02T19:47:00.000Z</time>
      </trkpt>
      <trkpt lat="44.80511" lon="1.08956">
        <ele>163</ele>
        <time>2019-02-02T19:48:00.000Z</time>
      </trkpt>
      <trkpt lat="44.80494" lon="1.08938">
        <ele>163</ele>
        <time>2019-02-02T19:49:00.000Z</time>
      </trkpt>
      <trkpt lat="44.80472" lon="1.08914">
        <ele>164</ele>
        <time>2019-02-02T19:50:00.000Z</time>
      </trkpt>
      <trkpt lat="44.80466" lon="1.08881">
        <ele>165</ele>
        <time>2019-02-02T19:51:00.000Z</time>
      </trkpt>
      <trkpt lat="44.80452" lon="1.08847">
        <ele>167</ele>
        <time>2019-02-02T19:52:00.000Z</time>
      </trkpt>
      <trkpt lat="44.80432" lon="1.08803">
        <ele>171</ele>
        <time>2019-02-02T19:53:00.000Z</time>
      </trkpt>
      <trkpt lat="44.80434" lon="1.0879">
        <ele>172</ele>
        <time>2019-02-02T19:54:00.000Z</time>
      </trkpt>
      <trkpt lat="44.80462" lon="1.08732">
        <ele>175</ele>
        <time>2019-02-02T19:55:00.000Z</time>
      </trkpt>
      <trkpt lat="44.80486" lon="1.08675">
        <ele>177</ele>
        <time>2019-02-02T19:56:00.000Z</time>
      </trkpt>
      <trkpt lat="44.80487" lon="1.08661">
        <ele>178</ele>
        <time>2019-02-02T19:57:00.000Z</time>
      </trkpt>
      <trkpt lat="44.80537" lon="1.08675">
        <ele>180</ele>
        <time>2019-02-02T19:58:00.000Z</time>
      </trkpt>
      <trkpt lat="44.80564" lon="1.08668">
        <ele>184</ele>
        <time>2019-02-02T19:59:00.000Z</time>
      </trkpt>
      <trkpt lat="44.80611" lon="1.08667">
        <ele>188</ele>
        <time>2019-02-02T20:00:00.000Z</time>
      </trkpt>
      <trkpt lat="44.80666" lon="1.08673">
        <ele>191</ele>
        <time>2019-02-02T20:01:00.000Z</time>
      </trkpt>
      <trkpt lat="44.80687" lon="1.08683">
        <ele>189</ele>
        <time>2019-02-02T20:02:00.000Z</time>
      </trkpt>
      <trkpt lat="44.80721" lon="1.08654">
        <ele>190</ele>
        <time>2019-02-02T20:03:00.000Z</time>
      </trkpt>
      <trkpt lat="44.80756" lon="1.08621">
        <ele>193</ele>
        <time>2019-02-02T20:04:00.000Z</time>
      </trkpt>
      <trkpt lat="44.80802" lon="1.08564">
        <ele>198</ele>
        <time>2019-02-02T20:05:00.000Z</time>
      </trkpt>
      <trkpt lat="44.80832" lon="1.0854">
        <ele>199</ele>
        <time>2019-02-02T20:06:00.000Z</time>
      </trkpt>
      <trkpt lat="44.80853" lon="1.08476">
        <ele>202</ele>
        <time>2019-02-02T20:07:00.000Z</time>
      </trkpt>
      <trkpt lat="44.80865" lon="1.08406">
        <ele>207</ele>
        <time>2019-02-02T20:08:00.000Z</time>
      </trkpt>
      <trkpt lat="44.80889" lon="1.08378">
        <ele>209</ele>
        <time>2019-02-02T20:09:00.000Z</time>
      </trkpt>
      <trkpt lat="44.80942" lon="1.0837">
        <ele>207</ele>
        <time>2019-02-02T20:10:00.000Z</time>
      </trkpt>
      <trkpt lat="44.80966" lon="1.08297">
        <ele>213</ele>
        <time>2019-02-02T20:11:00.000Z</time>
      </trkpt>
      <trkpt lat="44.81021" lon="1.0825">
        <ele>216</ele>
        <time>2019-02-02T20:12:00.000Z</time>
      </trkpt>
      <trkpt lat="44.81064" lon="1.08191">
        <ele>218</ele>
        <time>2019-02-02T20:13:00.000Z</time>
      </trkpt>
      <trkpt lat="44.81103" lon="1.08196">
        <ele>218</ele>
        <time>2019-02-02T20:14:00.000Z</time>
      </trkpt>
      <trkpt lat="44.81115" lon="1.08285">
        <ele>212</ele>
        <time>2019-02-02T20:15:00.000Z</time>
      </trkpt>
      <trkpt lat="44.81152" lon="1.08348">
        <ele>212</ele>
        <time>2019-02-02T20:16:00.000Z</time>
      </trkpt>
      <trkpt lat="44.81215" lon="1.08388">
        <ele>213</ele>
        <time>2019-02-02T20:17:00.000Z</time>
      </trkpt>
      <trkpt lat="44.81266" lon="1.08374">
        <ele>219</ele>
        <time>2019-02-02T20:18:00.000Z</time>
      </trkpt>
      <trkpt lat="44.81361" lon="1.08317">
        <ele>219</ele>
        <time>2019-02-02T20:19:00.000Z</time>
      </trkpt>
      <trkpt lat="44.81393" lon="1.08274">
        <ele>219</ele>
        <time>2019-02-02T20:20:00.000Z</time>
      </trkpt>
      <trkpt lat="44.81435" lon="1.08207">
        <ele>220</ele>
        <time>2019-02-02T20:21:00.000Z</time>
      </trkpt>
      <trkpt lat="44.81465" lon="1.08224">
        <ele>219</ele>
        <time>2019-02-02T20:22:00.000Z</time>
      </trkpt>
      <trkpt lat="44.81515" lon="1.08215">
        <ele>219</ele>
        <time>2019-02-02T20:23:00.000Z</time>
      </trkpt>
      <trkpt lat="44.81476" lon="1.08174">
        <ele>223</ele>
        <time>2019-02-02T20:24:00.000Z</time>
      </trkpt>
      <trkpt lat="44.8146" lon="1.08136">
        <ele>226</ele>
        <time>2019-02-02T20:25:00.000Z</time>
      </trkpt>
      <trkpt lat="44.81436" lon="1.08108">
        <ele>227</ele>
        <time>2019-02-02T20:26:00.000Z</time>
      </trkpt>
      <trkpt lat="44.81411" lon="1.08093">
        <ele>228</ele>
        <time>2019-02-02T20:27:00.000Z</time>
      </trkpt>
      <trkpt lat="44.81392" lon="1.0806">
        <ele>230</ele>
        <time>2019-02-02T20:28:00.000Z</time>
      </trkpt>
      <trkpt lat="44.81407" lon="1.08066">
        <ele>229</ele>
        <time>2019-02-02T20:29:00.000Z</time>
      </trkpt>
      <trkpt lat="44.8142" lon="1.08014">
        <ele>227</ele>
        <time>2019-02-02T20:30:00.000Z</time>
      </trkpt>
      <trkpt lat="44.81423" lon="1.07874">
        <ele>223</ele>
        <time>2019-02-02T20:31:00.000Z</time>
      </trkpt>
      <trkpt lat="44.81405" lon="1.07758">
        <ele>220</ele>
        <time>2019-02-02T20:32:00.000Z</time>
      </trkpt>
      <trkpt lat="44.81444" lon="1.07687">
        <ele>217</ele>
        <time>2019-02-02T20:33:00.000Z</time>
      </trkpt>
      <trkpt lat="44.81475" lon="1.07607">
        <ele>215</ele>
        <time>2019-02-02T20:34:00.000Z</time>
      </trkpt>
      <trkpt lat="44.81497" lon="1.07559">
        <ele>214</ele>
        <time>2019-02-02T20:35:00.000Z</time>
      </trkpt>
      <trkpt lat="44.81511" lon="1.07497">
        <ele>214</ele>
        <time>2019-02-02T20:36:00.000Z</time>
      </trkpt>
      <trkpt lat="44.81528" lon="1.07411">
        <ele>224</ele>
        <time>2019-02-02T20:37:00.000Z</time>
      </trkpt>
      <trkpt lat="44.81513" lon="1.07379">
        <ele>226</ele>
        <time>2019-02-02T20:38:00.000Z</time>
      </trkpt>
      <trkpt lat="44.81505" lon="1.07352">
        <ele>228</ele>
        <time>2019-02-02T20:39:00.000Z</time>
      </trkpt>
      <trkpt lat="44.8152" lon="1.07328">
        <ele>233</ele>
        <time>2019-02-02T20:40:00.000Z</time>
      </trkpt>
      <trkpt lat="44.81502" lon="1.07309">
        <ele>233</ele>
        <time>2019-02-02T20:41:00.000Z</time>
      </trkpt>
      <trkpt lat="44.815" lon="1.07284">
        <ele>235</ele>
        <time>2019-02-02T20:42:00.000Z</time>
      </trkpt>
      <trkpt lat="44.81507" lon="1.07259">
        <ele>238</ele>
        <time>2019-02-02T20:43:00.000Z</time>
      </trkpt>
      <trkpt lat="44.81517" lon="1.07243">
        <ele>241</ele>
        <time>2019-02-02T20:44:00.000Z</time>
      </trkpt>
      <trkpt lat="44.81528" lon="1.07232">
        <ele>242</ele>
        <time>2019-02-02T20:45:00.000Z</time>
      </trkpt>
      <trkpt lat="44.81535" lon="1.07242">
        <ele>242</ele>
        <time>2019-02-02T20:46:00.000Z</time>
      </trkpt>
      <trkpt lat="44.81547" lon="1.07225">
        <ele>244</ele>
        <time>2019-02-02T20:47:00.000Z</time>
      </trkpt>
      <trkpt lat="44.81553" lon="1.0721">
        <ele>245</ele>
        <time>2019-02-02T20:48:00.000Z</time>
      </trkpt>
      <trkpt lat="44.81538" lon="1.07194">
        <ele>245</ele>
        <time>2019-02-02T20:49:00.000Z</time>
      </trkpt>
      <trkpt lat="44.81517" lon="1.07167">
        <ele>248</ele>
        <time>2019-02-02T20:50:00.000Z</time>
      </trkpt>
      <trkpt lat="44.81494" lon="1.07155">
        <ele>248</ele>
        <time>2019-02-02T20:51:00.000Z</time>
      </trkpt>
      <trkpt lat="44.81475" lon="1.07161">
        <ele>247</ele>
        <time>2019-02-02T20:52:00.000Z</time>
      </trkpt>
      <trkpt lat="44.81484" lon="1.0713">
        <ele>248</ele>
        <time>2019-02-02T20:53:00.000Z</time>
      </trkpt>
      <trkpt lat="44.81497" lon="1.07124">
        <ele>249</ele>
        <time>2019-02-02T20:54:00.000Z</time>
      </trkpt>
      <trkpt lat="44.81468" lon="1.07119">
        <ele>248</ele>
        <time>2019-02-02T20:55:00.000Z</time>
      </trkpt>
      <trkpt lat="44.81446" lon="1.07136">
        <ele>247</ele>
        <time>2019-02-02T20:56:00.000Z</time>
      </trkpt>
      <trkpt lat="44.81409" lon="1.07119">
        <ele>248</ele>
        <time>2019-02-02T20:57:00.000Z</time>
      </trkpt>
      <trkpt lat="44.81368" lon="1.07112">
        <ele>250</ele>
        <time>2019-02-02T20:58:00.000Z</time>
      </trkpt>
      <trkpt lat="44.81342" lon="1.071">
        <ele>252</ele>
        <time>2019-02-02T20:59:00.000Z</time>
      </trkpt>
      <trkpt lat="44.81308" lon="1.07093">
        <ele>255</ele>
        <time>2019-02-02T21:00:00.000Z</time>
      </trkpt>
      <trkpt lat="44.81253" lon="1.07089">
        <ele>259</ele>
        <time>2019-02-02T21:01:00.000Z</time>
      </trkpt>
      <trkpt lat="44.81253" lon="1.07021">
        <ele>260</ele>
        <time>2019-02-02T21:02:00.000Z</time>
      </trkpt>
      <trkpt lat="44.81247" lon="1.06888">
        <ele>253</ele>
        <time>2019-02-02T21:03:00.000Z</time>
      </trkpt>
      <trkpt lat="44.81305" lon="1.06763">
        <ele>249</ele>
        <time>2019-02-02T21:04:00.000Z</time>
      </trkpt>
      <trkpt lat="44.81349" lon="1.0662">
        <ele>250</ele>
        <time>2019-02-02T21:05:00.000Z</time>
      </trkpt>
      <trkpt lat="44.81371" lon="1.06511">
        <ele>249</ele>
        <time>2019-02-02T21:06:00.000Z</time>
      </trkpt>
      <trkpt lat="44.81386" lon="1.06428">
        <ele>248</ele>
        <time>2019-02-02T21:07:00.000Z</time>
      </trkpt>
      <trkpt lat="44.81414" lon="1.06344">
        <ele>251</ele>
        <time>2019-02-02T21:08:00.000Z</time>
      </trkpt>
      <trkpt lat="44.81474" lon="1.0629">
        <ele>248</ele>
        <time>2019-02-02T21:09:00.000Z</time>
      </trkpt>
      <trkpt lat="44.81508" lon="1.06238">
        <ele>246</ele>
        <time>2019-02-02T21:10:00.000Z</time>
      </trkpt>
      <trkpt lat="44.81537" lon="1.06159">
        <ele>243</ele>
        <time>2019-02-02T21:11:00.000Z</time>
      </trkpt>
      <trkpt lat="44.815" lon="1.06103">
        <ele>245</ele>
        <time>2019-02-02T21:12:00.000Z</time>
      </trkpt>
      <trkpt lat="44.81446" lon="1.05988">
        <ele>242</ele>
        <time>2019-02-02T21:13:00.000Z</time>
      </trkpt>
      <trkpt lat="44.81349" lon="1.05821">
        <ele>234</ele>
        <time>2019-02-02T21:14:00.000Z</time>
      </trkpt>
      <trkpt lat="44.81265" lon="1.05742">
        <ele>238</ele>
        <time>2019-02-02T21:15:00.000Z</time>
      </trkpt>
      <trkpt lat="44.81252" lon="1.05697">
        <ele>243</ele>
        <time>2019-02-02T21:16:00.000Z</time>
      </trkpt>
      <trkpt lat="44.81226" lon="1.05634">
        <ele>244</ele>
        <time>2019-02-02T21:17:00.000Z</time>
      </trkpt>
      <trkpt lat="44.81198" lon="1.05553">
        <ele>242</ele>
        <time>2019-02-02T21:18:00.000Z</time>
      </trkpt>
      <trkpt lat="44.81156" lon="1.05391">
        <ele>239</ele>
        <time>2019-02-02T21:19:00.000Z</time>
      </trkpt>
      <trkpt lat="44.81075" lon="1.05311">
        <ele>235</ele>
        <time>2019-02-02T21:20:00.000Z</time>
      </trkpt>
      <trkpt lat="44.80993" lon="1.05219">
        <ele>226</ele>
        <time>2019-02-02T21:21:00.000Z</time>
      </trkpt>
      <trkpt lat="44.80998" lon="1.05141">
        <ele>229</ele>
        <time>2019-02-02T21:22:00.000Z</time>
      </trkpt>
      <trkpt lat="44.80999" lon="1.05069">
        <ele>231</ele>
        <time>2019-02-02T21:23:00.000Z</time>
      </trkpt>
      <trkpt lat="44.81013" lon="1.04984">
        <ele>233</ele>
        <time>2019-02-02T21:24:00.000Z</time>
      </trkpt>
      <trkpt lat="44.81009" lon="1.04896">
        <ele>231</ele>
        <time>2019-02-02T21:25:00.000Z</time>
      </trkpt>
      <trkpt lat="44.81015" lon="1.04765">
        <ele>227</ele>
        <time>2019-02-02T21:26:00.000Z</time>
      </trkpt>
      <trkpt lat="44.81069" lon="1.04679">
        <ele>227</ele>
        <time>2019-02-02T21:27:00.000Z</time>
      </trkpt>
      <trkpt lat="44.8113" lon="1.04568">
        <ele>224</ele>
        <time>2019-02-02T21:28:00.000Z</time>
      </trkpt>
      <trkpt lat="44.81184" lon="1.04545">
        <ele>230</ele>
        <time>2019-02-02T21:29:00.000Z</time>
      </trkpt>
      <trkpt lat="44.81238" lon="1.0452">
        <ele>234</ele>
        <time>2019-02-02T21:30:00.000Z</time>
      </trkpt>
      <trkpt lat="44.81284" lon="1.04532">
        <ele>234</ele>
        <time>2019-02-02T21:31:00.000Z</time>
      </trkpt>
      <trkpt lat="44.81328" lon="1.04552">
        <ele>234</ele>
        <time>2019-02-02T21:32:00.000Z</time>
      </trkpt>
      <trkpt lat="44.81395" lon="1.04649">
        <ele>238</ele>
        <time>2019-02-02T21:33:00.000Z</time>
      </trkpt>
      <trkpt lat="44.81393" lon="1.04676">
        <ele>242</ele>
        <time>2019-02-02T21:34:00.000Z</time>
      </trkpt>
      <trkpt lat="44.81406" lon="1.0474">
        <ele>246</ele>
        <time>2019-02-02T21:35:00.000Z</time>
      </trkpt>
      <trkpt lat="44.81446" lon="1.04745">
        <ele>248</ele>
        <time>2019-02-02T21:36:00.000Z</time>
      </trkpt>
      <trkpt lat="44.81475" lon="1.04716">
        <ele>248</ele>
        <time>2019-02-02T21:37:00.000Z</time>
      </trkpt>
      <trkpt lat="44.81506" lon="1.04701">
        <ele>248</ele>
        <time>2019-02-02T21:38:00.000Z</time>
      </trkpt>
      <trkpt lat="44.81556" lon="1.04677">
        <ele>248</ele>
        <time>2019-02-02T21:39:00.000Z</time>
      </trkpt>
      <trkpt lat="44.81621" lon="1.04486">
        <ele>232</ele>
        <time>2019-02-02T21:40:00.000Z</time>
      </trkpt>
      <trkpt lat="44.81617" lon="1.04257">
        <ele>226</ele>
        <time>2019-02-02T21:41:00.000Z</time>
      </trkpt>
      <trkpt lat="44.81611" lon="1.04018">
        <ele>214</ele>
        <time>2019-02-02T21:42:00.000Z</time>
      </trkpt>
      <trkpt lat="44.81611" lon="1.03891">
        <ele>217</ele>
        <time>2019-02-02T21:43:00.000Z</time>
      </trkpt>
      <trkpt lat="44.81603" lon="1.03806">
        <ele>218</ele>
        <time>2019-02-02T21:44:00.000Z</time>
      </trkpt>
      <trkpt lat="44.81597" lon="1.03711">
        <ele>221</ele>
        <time>2019-02-02T21:45:00.000Z</time>
      </trkpt>
      <trkpt lat="44.81623" lon="1.03614">
        <ele>215</ele>
        <time>2019-02-02T21:46:00.000Z</time>
      </trkpt>
      <trkpt lat="44.81712" lon="1.03422">
        <ele>210</ele>
        <time>2019-02-02T21:47:00.000Z</time>
      </trkpt>
      <trkpt lat="44.81767" lon="1.03338">
        <ele>214</ele>
        <time>2019-02-02T21:48:00.000Z</time>
      </trkpt>
      <trkpt lat="44.81791" lon="1.03272">
        <ele>211</ele>
        <time>2019-02-02T21:49:00.000Z</time>
      </trkpt>
      <trkpt lat="44.81817" lon="1.03205">
        <ele>209</ele>
        <time>2019-02-02T21:50:00.000Z</time>
      </trkpt>
      <trkpt lat="44.8186" lon="1.03059">
        <ele>207</ele>
        <time>2019-02-02T21:51:00.000Z</time>
      </trkpt>
      <trkpt lat="44.81852" lon="1.02954">
        <ele>215</ele>
        <time>2019-02-02T21:52:00.000Z</time>
      </trkpt>
      <trkpt lat="44.81864" lon="1.02884">
        <ele>217</ele>
        <time>2019-02-02T21:53:00.000Z</time>
      </trkpt>
      <trkpt lat="44.8189" lon="1.02821">
        <ele>215</ele>
        <time>2019-02-02T21:54:00.000Z</time>
      </trkpt>
      <trkpt lat="44.81884" lon="1.02764">
        <ele>219</ele>
        <time>2019-02-02T21:55:00.000Z</time>
      </trkpt>
      <trkpt lat="44.81883" lon="1.02714">
        <ele>221</ele>
        <time>2019-02-02T21:56:00.000Z</time>
      </trkpt>
      <trkpt lat="44.81867" lon="1.02657">
        <ele>223</ele>
        <time>2019-02-02T21:57:00.000Z</time>
      </trkpt>
      <trkpt lat="44.81832" lon="1.02601">
        <ele>226</ele>
        <time>2019-02-02T21:58:00.000Z</time>
      </trkpt>
      <trkpt lat="44.81805" lon="1.02509">
        <ele>221</ele>
        <time>2019-02-02T21:59:00.000Z</time>
      </trkpt>
      <trkpt lat="44.8182" lon="1.02146">
        <ele>215</ele>
        <time>2019-02-02T22:00:00.000Z</time>
      </trkpt>
      <trkpt lat="44.81768" lon="1.01996">
        <ele>204</ele>
        <time>2019-02-02T22:01:00.000Z</time>
      </trkpt>
      <trkpt lat="44.81735" lon="1.01849">
        <ele>194</ele>
        <time>2019-02-02T22:02:00.000Z</time>
      </trkpt>
      <trkpt lat="44.81711" lon="1.0161">
        <ele>173</ele>
        <time>2019-02-02T22:03:00.000Z</time>
      </trkpt>
      <trkpt lat="44.81703" lon="1.01404">
        <ele>162</ele>
        <time>2019-02-02T22:04:00.000Z</time>
      </trkpt>
      <trkpt lat="44.8176" lon="1.01255">
        <ele>149</ele>
        <time>2019-02-02T22:05:00.000Z</time>
      </trkpt>
      <trkpt lat="44.81754" lon="1.01108">
        <ele>153</ele>
        <time>2019-02-02T22:06:00.000Z</time>
      </trkpt>
      <trkpt lat="44.81726" lon="1.00973">
        <ele>145</ele>
        <time>2019-02-02T22:07:00.000Z</time>
      </trkpt>
      <trkpt lat="44.81733" lon="1.00814">
        <ele>134</ele>
        <time>2019-02-02T22:08:00.000Z</time>
      </trkpt>
      <trkpt lat="44.81806" lon="1.00817">
        <ele>127</ele>
        <time>2019-02-02T22:09:00.000Z</time>
      </trkpt>
      <trkpt lat="44.81957" lon="1.00757">
        <ele>110</ele>
        <time>2019-02-02T22:10:00.000Z</time>
      </trkpt>
      <trkpt lat="44.8208" lon="1.00669">
        <ele>98</ele>
        <time>2019-02-02T22:11:00.000Z</time>
      </trkpt>
      <trkpt lat="44.82154" lon="1.00534">
        <ele>92</ele>
        <time>2019-02-02T22:12:00.000Z</time>
      </trkpt>
      <trkpt lat="44.82217" lon="1.00378">
        <ele>88</ele>
        <time>2019-02-02T22:13:00.000Z</time>
      </trkpt>
      <trkpt lat="44.82215" lon="1.00342">
        <ele>88</ele>
        <time>2019-02-02T22:14:00.000Z</time>
      </trkpt>
      <trkpt lat="44.82187" lon="1.00247">
        <ele>86</ele>
        <time>2019-02-02T22:15:00.000Z</time>
      </trkpt>
      <trkpt lat="44.82173" lon="1.00019">
        <ele>81</ele>
        <time>2019-02-02T22:16:00.000Z</time>
      </trkpt>
      <trkpt lat="44.82193" lon="0.99769">
        <ele>65</ele>
        <time>2019-02-02T22:17:00.000Z</time>
      </trkpt>
      <trkpt lat="44.82154" lon="0.99503">
        <ele>60</ele>
        <time>2019-02-02T22:18:00.000Z</time>
      </trkpt>
      <trkpt lat="44.82194" lon="0.99315">
        <ele>61</ele>
        <time>2019-02-02T22:19:00.000Z</time>
      </trkpt>
      <trkpt lat="44.82269" lon="0.99204">
        <ele>61</ele>
        <time>2019-02-02T22:20:00.000Z</time>
      </trkpt>
      <trkpt lat="44.82307" lon="0.99082">
        <ele>61</ele>
        <time>2019-02-02T22:21:00.000Z</time>
      </trkpt>
      <trkpt lat="44.82292" lon="0.98981">
        <ele>61</ele>
        <time>2019-02-02T22:22:00.000Z</time>
      </trkpt>
      <trkpt lat="44.82264" lon="0.98951">
        <ele>62</ele>
        <time>2019-02-02T22:23:00.000Z</time>
      </trkpt>
      <trkpt lat="44.82234" lon="0.98981">
        <ele>63</ele>
        <time>2019-02-02T22:24:00.000Z</time>
      </trkpt>
      <trkpt lat="44.82281" lon="0.98951">
        <ele>62</ele>
        <time>2019-02-02T22:25:00.000Z</time>
      </trkpt>
      <trkpt lat="44.8226" lon="0.98896">
        <ele>62</ele>
        <time>2019-02-02T22:26:00.000Z</time>
      </trkpt>
      <trkpt lat="44.82221" lon="0.98808">
        <ele>64</ele>
        <time>2019-02-02T22:27:00.000Z</time>
      </trkpt>
      <trkpt lat="44.82272" lon="0.98769">
        <ele>60</ele>
        <time>2019-02-02T22:28:00.000Z</time>
      </trkpt>
      <trkpt lat="44.8234" lon="0.98752">
        <ele>59</ele>
        <time>2019-02-02T22:29:00.000Z</time>
      </trkpt>
      <trkpt lat="44.82387" lon="0.98753">
        <ele>57</ele>
        <time>2019-02-02T22:30:00.000Z</time>
      </trkpt>
      <trkpt lat="44.82452" lon="0.9874">
        <ele>56</ele>
        <time>2019-02-02T22:31:00.000Z</time>
      </trkpt>
      <trkpt lat="44.82546" lon="0.98757">
        <ele>56</ele>
        <time>2019-02-02T22:32:00.000Z</time>
      </trkpt>
      <trkpt lat="44.82546" lon="0.98757">
        <ele>56</ele>
        <time>2019-02-02T22:32:00.000Z</time>
      </trkpt>
      <trkpt lat="44.82546" lon="0.98757">
        <ele>56</ele>
        <time>2019-02-02T22:32:00.000Z</time>
      </trkpt>
      <trkpt lat="44.8234" lon="0.98751">
        <ele>59</ele>
        <time>2019-02-02T22:33:00.000Z</time>
      </trkpt>
      <trkpt lat="44.82199" lon="0.98788">
        <ele>67</ele>
        <time>2019-02-02T22:34:00.000Z</time>
      </trkpt>
      <trkpt lat="44.82268" lon="0.98935">
        <ele>62</ele>
        <time>2019-02-02T22:35:00.000Z</time>
      </trkpt>
      <trkpt lat="44.8294" lon="0.99133">
        <ele>56</ele>
        <time>2019-02-02T22:36:00.000Z</time>
      </trkpt>
      <trkpt lat="44.82978" lon="0.99121">
        <ele>57</ele>
        <time>2019-02-02T22:37:00.000Z</time>
      </trkpt>
      <trkpt lat="44.83012" lon="0.99102">
        <ele>58</ele>
        <time>2019-02-02T22:38:00.000Z</time>
      </trkpt>
      <trkpt lat="44.83041" lon="0.99078">
        <ele>59</ele>
        <time>2019-02-02T22:39:00.000Z</time>
      </trkpt>
      <trkpt lat="44.83051" lon="0.99067">
        <ele>59</ele>
        <time>2019-02-02T22:40:00.000Z</time>
      </trkpt>
      <trkpt lat="44.83061" lon="0.99057">
        <ele>60</ele>
        <time>2019-02-02T22:41:00.000Z</time>
      </trkpt>
      <trkpt lat="44.83102" lon="0.98994">
        <ele>61</ele>
        <time>2019-02-02T22:42:00.000Z</time>
      </trkpt>
      <trkpt lat="44.83122" lon="0.98945">
        <ele>63</ele>
        <time>2019-02-02T22:43:00.000Z</time>
      </trkpt>
      <trkpt lat="44.83132" lon="0.98902">
        <ele>63</ele>
        <time>2019-02-02T22:44:00.000Z</time>
      </trkpt>
      <trkpt lat="44.83135" lon="0.9887">
        <ele>63</ele>
        <time>2019-02-02T22:45:00.000Z</time>
      </trkpt>
      <trkpt lat="44.83157" lon="0.9817">
        <ele>69</ele>
        <time>2019-02-02T22:46:00.000Z</time>
      </trkpt>
      <trkpt lat="44.8316" lon="0.98054">
        <ele>64</ele>
        <time>2019-02-02T22:47:00.000Z</time>
      </trkpt>
      <trkpt lat="44.83162" lon="0.98004">
        <ele>61</ele>
        <time>2019-02-02T22:48:00.000Z</time>
      </trkpt>
      <trkpt lat="44.83166" lon="0.97926">
        <ele>60</ele>
        <time>2019-02-02T22:49:00.000Z</time>
      </trkpt>
      <trkpt lat="44.83189" lon="0.97439">
        <ele>70</ele>
        <time>2019-02-02T22:50:00.000Z</time>
      </trkpt>
      <trkpt lat="44.83198" lon="0.97354">
        <ele>70</ele>
        <time>2019-02-02T22:51:00.000Z</time>
      </trkpt>
      <trkpt lat="44.83205" lon="0.97333">
        <ele>70</ele>
        <time>2019-02-02T22:52:00.000Z</time>
      </trkpt>
      <trkpt lat="44.83205" lon="0.97258">
        <ele>70</ele>
        <time>2019-02-02T22:53:00.000Z</time>
      </trkpt>
      <trkpt lat="44.8323" lon="0.97186">
        <ele>75</ele>
        <time>2019-02-02T22:54:00.000Z</time>
      </trkpt>
      <trkpt lat="44.8324" lon="0.97128">
        <ele>79</ele>
        <time>2019-02-02T22:55:00.000Z</time>
      </trkpt>
      <trkpt lat="44.83374" lon="0.96929">
        <ele>84</ele>
        <time>2019-02-02T22:56:00.000Z</time>
      </trkpt>
      <trkpt lat="44.83454" lon="0.96827">
        <ele>83</ele>
        <time>2019-02-02T22:57:00.000Z</time>
      </trkpt>
      <trkpt lat="44.83468" lon="0.96788">
        <ele>83</ele>
        <time>2019-02-02T22:58:00.000Z</time>
      </trkpt>
      <trkpt lat="44.83492" lon="0.96725">
        <ele>81</ele>
        <time>2019-02-02T22:59:00.000Z</time>
      </trkpt>
      <trkpt lat="44.83547" lon="0.965">
        <ele>79</ele>
        <time>2019-02-02T23:00:00.000Z</time>
      </trkpt>
      <trkpt lat="44.83636" lon="0.96139">
        <ele>79</ele>
        <time>2019-02-02T23:01:00.000Z</time>
      </trkpt>
      <trkpt lat="44.83652" lon="0.96094">
        <ele>78</ele>
        <time>2019-02-02T23:02:00.000Z</time>
      </trkpt>
      <trkpt lat="44.83675" lon="0.96028">
        <ele>75</ele>
        <time>2019-02-02T23:03:00.000Z</time>
      </trkpt>
      <trkpt lat="44.83773" lon="0.9578">
        <ele>65</ele>
        <time>2019-02-02T23:04:00.000Z</time>
      </trkpt>
      <trkpt lat="44.83783" lon="0.95754">
        <ele>64</ele>
        <time>2019-02-02T23:05:00.000Z</time>
      </trkpt>
      <trkpt lat="44.83809" lon="0.95671">
        <ele>64</ele>
        <time>2019-02-02T23:06:00.000Z</time>
      </trkpt>
      <trkpt lat="44.8396" lon="0.9544">
        <ele>64</ele>
        <time>2019-02-02T23:07:00.000Z</time>
      </trkpt>
      <trkpt lat="44.84009" lon="0.95353">
        <ele>62</ele>
        <time>2019-02-02T23:08:00.000Z</time>
      </trkpt>
      <trkpt lat="44.8405" lon="0.953">
        <ele>61</ele>
        <time>2019-02-02T23:09:00.000Z</time>
      </trkpt>
      <trkpt lat="44.8429" lon="0.95068">
        <ele>60</ele>
        <time>2019-02-02T23:10:00.000Z</time>
      </trkpt>
      <trkpt lat="44.84308" lon="0.95036">
        <ele>60</ele>
        <time>2019-02-02T23:11:00.000Z</time>
      </trkpt>
      <trkpt lat="44.84357" lon="0.94923">
        <ele>68</ele>
        <time>2019-02-02T23:12:00.000Z</time>
      </trkpt>
      <trkpt lat="44.84401" lon="0.94842">
        <ele>70</ele>
        <time>2019-02-02T23:13:00.000Z</time>
      </trkpt>
      <trkpt lat="44.84452" lon="0.94753">
        <ele>71</ele>
        <time>2019-02-02T23:14:00.000Z</time>
      </trkpt>
      <trkpt lat="44.84534" lon="0.94639">
        <ele>72</ele>
        <time>2019-02-02T23:15:00.000Z</time>
      </trkpt>
      <trkpt lat="44.84651" lon="0.94504">
        <ele>68</ele>
        <time>2019-02-02T23:16:00.000Z</time>
      </trkpt>
      <trkpt lat="44.84762" lon="0.94359">
        <ele>69</ele>
        <time>2019-02-02T23:17:00.000Z</time>
      </trkpt>
      <trkpt lat="44.84897" lon="0.94148">
        <ele>67</ele>
        <time>2019-02-02T23:18:00.000Z</time>
      </trkpt>
      <trkpt lat="44.84969" lon="0.94032">
        <ele>71</ele>
        <time>2019-02-02T23:19:00.000Z</time>
      </trkpt>
      <trkpt lat="44.85005" lon="0.9397">
        <ele>70</ele>
        <time>2019-02-02T23:20:00.000Z</time>
      </trkpt>
      <trkpt lat="44.85082" lon="0.93795">
        <ele>71</ele>
        <time>2019-02-02T23:21:00.000Z</time>
      </trkpt>
      <trkpt lat="44.85134" lon="0.93645">
        <ele>75</ele>
        <time>2019-02-02T23:22:00.000Z</time>
      </trkpt>
      <trkpt lat="44.85257" lon="0.93245">
        <ele>70</ele>
        <time>2019-02-02T23:23:00.000Z</time>
      </trkpt>
      <trkpt lat="44.85306" lon="0.93092">
        <ele>75</ele>
        <time>2019-02-02T23:24:00.000Z</time>
      </trkpt>
      <trkpt lat="44.85326" lon="0.93064">
        <ele>76</ele>
        <time>2019-02-02T23:25:00.000Z</time>
      </trkpt>
      <trkpt lat="44.85353" lon="0.93006">
        <ele>77</ele>
        <time>2019-02-02T23:26:00.000Z</time>
      </trkpt>
      <trkpt lat="44.85476" lon="0.92634">
        <ele>74</ele>
        <time>2019-02-02T23:27:00.000Z</time>
      </trkpt>
      <trkpt lat="44.8551" lon="0.92529">
        <ele>76</ele>
        <time>2019-02-02T23:28:00.000Z</time>
      </trkpt>
      <trkpt lat="44.85528" lon="0.92453">
        <ele>76</ele>
        <time>2019-02-02T23:29:00.000Z</time>
      </trkpt>
      <trkpt lat="44.85545" lon="0.92369">
        <ele>72</ele>
        <time>2019-02-02T23:30:00.000Z</time>
      </trkpt>
      <trkpt lat="44.8555" lon="0.92322">
        <ele>70</ele>
        <time>2019-02-02T23:31:00.000Z</time>
      </trkpt>
      <trkpt lat="44.85554" lon="0.92261">
        <ele>66</ele>
        <time>2019-02-02T23:32:00.000Z</time>
      </trkpt>
      <trkpt lat="44.85568" lon="0.92188">
        <ele>65</ele>
        <time>2019-02-02T23:33:00.000Z</time>
      </trkpt>
      <trkpt lat="44.85579" lon="0.92116">
        <ele>64</ele>
        <time>2019-02-02T23:34:00.000Z</time>
      </trkpt>
      <trkpt lat="44.85586" lon="0.92045">
        <ele>62</ele>
        <time>2019-02-02T23:35:00.000Z</time>
      </trkpt>
      <trkpt lat="44.85594" lon="0.92001">
        <ele>60</ele>
        <time>2019-02-02T23:36:00.000Z</time>
      </trkpt>
      <trkpt lat="44.85605" lon="0.91972">
        <ele>60</ele>
        <time>2019-02-02T23:37:00.000Z</time>
      </trkpt>
      <trkpt lat="44.85624" lon="0.91952">
        <ele>60</ele>
        <time>2019-02-02T23:38:00.000Z</time>
      </trkpt>
      <trkpt lat="44.85652" lon="0.91926">
        <ele>58</ele>
        <time>2019-02-02T23:39:00.000Z</time>
      </trkpt>
      <trkpt lat="44.85682" lon="0.91888">
        <ele>57</ele>
        <time>2019-02-02T23:40:00.000Z</time>
      </trkpt>
      <trkpt lat="44.85692" lon="0.91866">
        <ele>58</ele>
        <time>2019-02-02T23:41:00.000Z</time>
      </trkpt>
      <trkpt lat="44.857" lon="0.91845">
        <ele>59</ele>
        <time>2019-02-02T23:42:00.000Z</time>
      </trkpt>
      <trkpt lat="44.85704" lon="0.91819">
        <ele>61</ele>
        <time>2019-02-02T23:43:00.000Z</time>
      </trkpt>
      <trkpt lat="44.85704" lon="0.91778">
        <ele>63</ele>
        <time>2019-02-02T23:44:00.000Z</time>
      </trkpt>
      <trkpt lat="44.85699" lon="0.91733">
        <ele>65</ele>
        <time>2019-02-02T23:45:00.000Z</time>
      </trkpt>
      <trkpt lat="44.85678" lon="0.91567">
        <ele>71</ele>
        <time>2019-02-02T23:46:00.000Z</time>
      </trkpt>
      <trkpt lat="44.85651" lon="0.91334">
        <ele>75</ele>
        <time>2019-02-02T23:47:00.000Z</time>
      </trkpt>
      <trkpt lat="44.85637" lon="0.91166">
        <ele>81</ele>
        <time>2019-02-02T23:48:00.000Z</time>
      </trkpt>
      <trkpt lat="44.85631" lon="0.91056">
        <ele>78</ele>
        <time>2019-02-02T23:49:00.000Z</time>
      </trkpt>
      <trkpt lat="44.8564" lon="0.90898">
        <ele>73</ele>
        <time>2019-02-02T23:50:00.000Z</time>
      </trkpt>
      <trkpt lat="44.8564" lon="0.90881">
        <ele>73</ele>
        <time>2019-02-02T23:51:00.000Z</time>
      </trkpt>
      <trkpt lat="44.85633" lon="0.90842">
        <ele>71</ele>
        <time>2019-02-02T23:52:00.000Z</time>
      </trkpt>
      <trkpt lat="44.85632" lon="0.90785">
        <ele>68</ele>
        <time>2019-02-02T23:53:00.000Z</time>
      </trkpt>
      <trkpt lat="44.85632" lon="0.90719">
        <ele>64</ele>
        <time>2019-02-02T23:54:00.000Z</time>
      </trkpt>
      <trkpt lat="44.85631" lon="0.90658">
        <ele>59</ele>
        <time>2019-02-02T23:55:00.000Z</time>
      </trkpt>
      <trkpt lat="44.85637" lon="0.90613">
        <ele>58</ele>
        <time>2019-02-02T23:56:00.000Z</time>
      </trkpt>
      <trkpt lat="44.8565" lon="0.90585">
        <ele>58</ele>
        <time>2019-02-02T23:57:00.000Z</time>
      </trkpt>
      <trkpt lat="44.85663" lon="0.90565">
        <ele>58</ele>
        <time>2019-02-02T23:58:00.000Z</time>
      </trkpt>
      <trkpt lat="44.85728" lon="0.90498">
        <ele>60</ele>
        <time>2019-02-02T23:59:00.000Z</time>
      </trkpt>
      <trkpt lat="44.85747" lon="0.90469">
        <ele>60</ele>
        <time>2019-02-03T00:00:00.000Z</time>
      </trkpt>
      <trkpt lat="44.85762" lon="0.9044">
        <ele>61</ele>
        <time>2019-02-03T00:01:00.000Z</time>
      </trkpt>
      <trkpt lat="44.85779" lon="0.90406">
        <ele>61</ele>
        <time>2019-02-03T00:02:00.000Z</time>
      </trkpt>
      <trkpt lat="44.85797" lon="0.90383">
        <ele>62</ele>
        <time>2019-02-03T00:03:00.000Z</time>
      </trkpt>
      <trkpt lat="44.85843" lon="0.90314">
        <ele>62</ele>
        <time>2019-02-03T00:04:00.000Z</time>
      </trkpt>
      <trkpt lat="44.8586" lon="0.90292">
        <ele>62</ele>
        <time>2019-02-03T00:05:00.000Z</time>
      </trkpt>
      <trkpt lat="44.85896" lon="0.90254">
        <ele>63</ele>
        <time>2019-02-03T00:06:00.000Z</time>
      </trkpt>
      <trkpt lat="44.85917" lon="0.90235">
        <ele>64</ele>
        <time>2019-02-03T00:07:00.000Z</time>
      </trkpt>
      <trkpt lat="44.85935" lon="0.90223">
        <ele>64</ele>
        <time>2019-02-03T00:08:00.000Z</time>
      </trkpt>
      <trkpt lat="44.8596" lon="0.9021">
        <ele>64</ele>
        <time>2019-02-03T00:09:00.000Z</time>
      </trkpt>
      <trkpt lat="44.85979" lon="0.90198">
        <ele>64</ele>
        <time>2019-02-03T00:10:00.000Z</time>
      </trkpt>
      <trkpt lat="44.86003" lon="0.90188">
        <ele>64</ele>
        <time>2019-02-03T00:11:00.000Z</time>
      </trkpt>
      <trkpt lat="44.86023" lon="0.90178">
        <ele>64</ele>
        <time>2019-02-03T00:12:00.000Z</time>
      </trkpt>
      <trkpt lat="44.86043" lon="0.90168">
        <ele>64</ele>
        <time>2019-02-03T00:13:00.000Z</time>
      </trkpt>
      <trkpt lat="44.86043" lon="0.90137">
        <ele>62</ele>
        <time>2019-02-03T00:14:00.000Z</time>
      </trkpt>
      <trkpt lat="44.86025" lon="0.90089">
        <ele>60</ele>
        <time>2019-02-03T00:15:00.000Z</time>
      </trkpt>
      <trkpt lat="44.86007" lon="0.90037">
        <ele>59</ele>
        <time>2019-02-03T00:16:00.000Z</time>
      </trkpt>
      <trkpt lat="44.85995" lon="0.89993">
        <ele>58</ele>
        <time>2019-02-03T00:17:00.000Z</time>
      </trkpt>
      <trkpt lat="44.85978" lon="0.89944">
        <ele>58</ele>
        <time>2019-02-03T00:18:00.000Z</time>
      </trkpt>
      <trkpt lat="44.85944" lon="0.89935">
        <ele>58</ele>
        <time>2019-02-03T00:19:00.000Z</time>
      </trkpt>
      <trkpt lat="44.85913" lon="0.89932">
        <ele>57</ele>
        <time>2019-02-03T00:20:00.000Z</time>
      </trkpt>
      <trkpt lat="44.85919" lon="0.89899">
        <ele>56</ele>
        <time>2019-02-03T00:21:00.000Z</time>
      </trkpt>
      <trkpt lat="44.85944" lon="0.89894">
        <ele>57</ele>
        <time>2019-02-03T00:22:00.000Z</time>
      </trkpt>
      <trkpt lat="44.85962" lon="0.89872">
        <ele>56</ele>
        <time>2019-02-03T00:23:00.000Z</time>
      </trkpt>
      <trkpt lat="44.85987" lon="0.89841">
        <ele>56</ele>
        <time>2019-02-03T00:24:00.000Z</time>
      </trkpt>
      <trkpt lat="44.86019" lon="0.89799">
        <ele>55</ele>
        <time>2019-02-03T00:25:00.000Z</time>
      </trkpt>
      <trkpt lat="44.8604" lon="0.8977">
        <ele>53</ele>
        <time>2019-02-03T00:26:00.000Z</time>
      </trkpt>
      <trkpt lat="44.8606" lon="0.89737">
        <ele>52</ele>
        <time>2019-02-03T00:27:00.000Z</time>
      </trkpt>
      <trkpt lat="44.86087" lon="0.89703">
        <ele>53</ele>
        <time>2019-02-03T00:28:00.000Z</time>
      </trkpt>
      <trkpt lat="44.86112" lon="0.89669">
        <ele>54</ele>
        <time>2019-02-03T00:29:00.000Z</time>
      </trkpt>
      <trkpt lat="44.86137" lon="0.89634">
        <ele>55</ele>
        <time>2019-02-03T00:30:00.000Z</time>
      </trkpt>
      <trkpt lat="44.86161" lon="0.89605">
        <ele>55</ele>
        <time>2019-02-03T00:31:00.000Z</time>
      </trkpt>
      <trkpt lat="44.8618" lon="0.89578">
        <ele>55</ele>
        <time>2019-02-03T00:32:00.000Z</time>
      </trkpt>
      <trkpt lat="44.86196" lon="0.89558">
        <ele>55</ele>
        <time>2019-02-03T00:33:00.000Z</time>
      </trkpt>
      <trkpt lat="44.86215" lon="0.89532">
        <ele>54</ele>
        <time>2019-02-03T00:34:00.000Z</time>
      </trkpt>
      <trkpt lat="44.86234" lon="0.89508">
        <ele>54</ele>
        <time>2019-02-03T00:35:00.000Z</time>
      </trkpt>
      <trkpt lat="44.86257" lon="0.89482">
        <ele>54</ele>
        <time>2019-02-03T00:36:00.000Z</time>
      </trkpt>
      <trkpt lat="44.86279" lon="0.89453">
        <ele>55</ele>
        <time>2019-02-03T00:37:00.000Z</time>
      </trkpt>
      <trkpt lat="44.86321" lon="0.89402">
        <ele>55</ele>
        <time>2019-02-03T00:38:00.000Z</time>
      </trkpt>
      <trkpt lat="44.86345" lon="0.89372">
        <ele>55</ele>
        <time>2019-02-03T00:39:00.000Z</time>
      </trkpt>
      <trkpt lat="44.86369" lon="0.8934">
        <ele>55</ele>
        <time>2019-02-03T00:40:00.000Z</time>
      </trkpt>
      <trkpt lat="44.8639" lon="0.89314">
        <ele>54</ele>
        <time>2019-02-03T00:41:00.000Z</time>
      </trkpt>
      <trkpt lat="44.86414" lon="0.8928">
        <ele>53</ele>
        <time>2019-02-03T00:42:00.000Z</time>
      </trkpt>
      <trkpt lat="44.86437" lon="0.89251">
        <ele>53</ele>
        <time>2019-02-03T00:43:00.000Z</time>
      </trkpt>
      <trkpt lat="44.86468" lon="0.89232">
        <ele>55</ele>
        <time>2019-02-03T00:44:00.000Z</time>
      </trkpt>
      <trkpt lat="44.865" lon="0.89208">
        <ele>56</ele>
        <time>2019-02-03T00:45:00.000Z</time>
      </trkpt>
      <trkpt lat="44.86529" lon="0.8922">
        <ele>56</ele>
        <time>2019-02-03T00:46:00.000Z</time>
      </trkpt>
      <trkpt lat="44.86559" lon="0.89209">
        <ele>56</ele>
        <time>2019-02-03T00:47:00.000Z</time>
      </trkpt>
      <trkpt lat="44.86581" lon="0.89202">
        <ele>56</ele>
        <time>2019-02-03T00:48:00.000Z</time>
      </trkpt>
      <trkpt lat="44.86605" lon="0.8919">
        <ele>56</ele>
        <time>2019-02-03T00:49:00.000Z</time>
      </trkpt>
      <trkpt lat="44.86625" lon="0.89183">
        <ele>56</ele>
        <time>2019-02-03T00:50:00.000Z</time>
      </trkpt>
      <trkpt lat="44.86645" lon="0.89174">
        <ele>57</ele>
        <time>2019-02-03T00:51:00.000Z</time>
      </trkpt>
      <trkpt lat="44.86674" lon="0.89163">
        <ele>57</ele>
        <time>2019-02-03T00:52:00.000Z</time>
      </trkpt>
      <trkpt lat="44.86703" lon="0.89157">
        <ele>56</ele>
        <time>2019-02-03T00:53:00.000Z</time>
      </trkpt>
      <trkpt lat="44.86734" lon="0.89149">
        <ele>56</ele>
        <time>2019-02-03T00:54:00.000Z</time>
      </trkpt>
      <trkpt lat="44.86758" lon="0.89141">
        <ele>56</ele>
        <time>2019-02-03T00:55:00.000Z</time>
      </trkpt>
      <trkpt lat="44.86806" lon="0.89128">
        <ele>55</ele>
        <time>2019-02-03T00:56:00.000Z</time>
      </trkpt>
      <trkpt lat="44.8683" lon="0.89123">
        <ele>56</ele>
        <time>2019-02-03T00:57:00.000Z</time>
      </trkpt>
      <trkpt lat="44.86855" lon="0.89113">
        <ele>55</ele>
        <time>2019-02-03T00:58:00.000Z</time>
      </trkpt>
      <trkpt lat="44.86881" lon="0.8911">
        <ele>54</ele>
        <time>2019-02-03T00:59:00.000Z</time>
      </trkpt>
      <trkpt lat="44.8691" lon="0.89117">
        <ele>53</ele>
        <time>2019-02-03T01:00:00.000Z</time>
      </trkpt>
      <trkpt lat="44.8693" lon="0.89124">
        <ele>53</ele>
        <time>2019-02-03T01:01:00.000Z</time>
      </trkpt>
      <trkpt lat="44.86953" lon="0.8913">
        <ele>53</ele>
        <time>2019-02-03T01:02:00.000Z</time>
      </trkpt>
      <trkpt lat="44.86982" lon="0.89131">
        <ele>52</ele>
        <time>2019-02-03T01:03:00.000Z</time>
      </trkpt>
      <trkpt lat="44.87016" lon="0.89144">
        <ele>52</ele>
        <time>2019-02-03T01:04:00.000Z</time>
      </trkpt>
      <trkpt lat="44.87054" lon="0.89149">
        <ele>52</ele>
        <time>2019-02-03T01:05:00.000Z</time>
      </trkpt>
      <trkpt lat="44.87086" lon="0.89153">
        <ele>52</ele>
        <time>2019-02-03T01:06:00.000Z</time>
      </trkpt>
      <trkpt lat="44.87123" lon="0.89161">
        <ele>52</ele>
        <time>2019-02-03T01:07:00.000Z</time>
      </trkpt>
      <trkpt lat="44.87164" lon="0.89166">
        <ele>51</ele>
        <time>2019-02-03T01:08:00.000Z</time>
      </trkpt>
      <trkpt lat="44.87193" lon="0.89164">
        <ele>51</ele>
        <time>2019-02-03T01:09:00.000Z</time>
      </trkpt>
      <trkpt lat="44.87224" lon="0.89162">
        <ele>51</ele>
        <time>2019-02-03T01:10:00.000Z</time>
      </trkpt>
      <trkpt lat="44.87262" lon="0.89164">
        <ele>51</ele>
        <time>2019-02-03T01:11:00.000Z</time>
      </trkpt>
      <trkpt lat="44.87297" lon="0.89171">
        <ele>51</ele>
        <time>2019-02-03T01:12:00.000Z</time>
      </trkpt>
      <trkpt lat="44.87331" lon="0.89175">
        <ele>51</ele>
        <time>2019-02-03T01:13:00.000Z</time>
      </trkpt>
      <trkpt lat="44.87363" lon="0.89187">
        <ele>52</ele>
        <time>2019-02-03T01:14:00.000Z</time>
      </trkpt>
      <trkpt lat="44.87395" lon="0.89194">
        <ele>53</ele>
        <time>2019-02-03T01:15:00.000Z</time>
      </trkpt>
      <trkpt lat="44.87427" lon="0.892">
        <ele>53</ele>
        <time>2019-02-03T01:16:00.000Z</time>
      </trkpt>
      <trkpt lat="44.87489" lon="0.89201">
        <ele>52</ele>
        <time>2019-02-03T01:17:00.000Z</time>
      </trkpt>
      <trkpt lat="44.87522" lon="0.89204">
        <ele>52</ele>
        <time>2019-02-03T01:18:00.000Z</time>
      </trkpt>
      <trkpt lat="44.87554" lon="0.89209">
        <ele>52</ele>
        <time>2019-02-03T01:19:00.000Z</time>
      </trkpt>
      <trkpt lat="44.87607" lon="0.89211">
        <ele>51</ele>
        <time>2019-02-03T01:20:00.000Z</time>
      </trkpt>
      <trkpt lat="44.87641" lon="0.89212">
        <ele>51</ele>
        <time>2019-02-03T01:21:00.000Z</time>
      </trkpt>
      <trkpt lat="44.8767" lon="0.89211">
        <ele>51</ele>
        <time>2019-02-03T01:22:00.000Z</time>
      </trkpt>
      <trkpt lat="44.87704" lon="0.89206">
        <ele>51</ele>
        <time>2019-02-03T01:23:00.000Z</time>
      </trkpt>
      <trkpt lat="44.87735" lon="0.89204">
        <ele>51</ele>
        <time>2019-02-03T01:24:00.000Z</time>
      </trkpt>
      <trkpt lat="44.87758" lon="0.892">
        <ele>51</ele>
        <time>2019-02-03T01:25:00.000Z</time>
      </trkpt>
      <trkpt lat="44.87779" lon="0.89199">
        <ele>51</ele>
        <time>2019-02-03T01:26:00.000Z</time>
      </trkpt>
      <trkpt lat="44.87803" lon="0.89198">
        <ele>51</ele>
        <time>2019-02-03T01:27:00.000Z</time>
      </trkpt>
      <trkpt lat="44.87827" lon="0.89193">
        <ele>50</ele>
        <time>2019-02-03T01:28:00.000Z</time>
      </trkpt>
      <trkpt lat="44.87857" lon="0.89187">
        <ele>50</ele>
        <time>2019-02-03T01:29:00.000Z</time>
      </trkpt>
      <trkpt lat="44.87883" lon="0.8918">
        <ele>50</ele>
        <time>2019-02-03T01:30:00.000Z</time>
      </trkpt>
      <trkpt lat="44.87911" lon="0.89168">
        <ele>50</ele>
        <time>2019-02-03T01:31:00.000Z</time>
      </trkpt>
      <trkpt lat="44.87946" lon="0.8916">
        <ele>51</ele>
        <time>2019-02-03T01:32:00.000Z</time>
      </trkpt>
      <trkpt lat="44.8798" lon="0.89149">
        <ele>52</ele>
        <time>2019-02-03T01:33:00.000Z</time>
      </trkpt>
      <trkpt lat="44.88068" lon="0.89108">
        <ele>55</ele>
        <time>2019-02-03T01:34:00.000Z</time>
      </trkpt>
      <trkpt lat="44.88084" lon="0.89101">
        <ele>55</ele>
        <time>2019-02-03T01:35:00.000Z</time>
      </trkpt>
      <trkpt lat="44.88101" lon="0.89093">
        <ele>55</ele>
        <time>2019-02-03T01:36:00.000Z</time>
      </trkpt>
      <trkpt lat="44.88113" lon="0.89086">
        <ele>54</ele>
        <time>2019-02-03T01:37:00.000Z</time>
      </trkpt>
      <trkpt lat="44.88125" lon="0.8908">
        <ele>54</ele>
        <time>2019-02-03T01:38:00.000Z</time>
      </trkpt>
      <trkpt lat="44.88136" lon="0.89073">
        <ele>53</ele>
        <time>2019-02-03T01:39:00.000Z</time>
      </trkpt>
      <trkpt lat="44.8813" lon="0.89052">
        <ele>52</ele>
        <time>2019-02-03T01:40:00.000Z</time>
      </trkpt>
      <trkpt lat="44.88125" lon="0.8903">
        <ele>51</ele>
        <time>2019-02-03T01:41:00.000Z</time>
      </trkpt>
      <trkpt lat="44.88119" lon="0.89007">
        <ele>50</ele>
        <time>2019-02-03T01:42:00.000Z</time>
      </trkpt>
      <trkpt lat="44.88112" lon="0.88987">
        <ele>50</ele>
        <time>2019-02-03T01:43:00.000Z</time>
      </trkpt>
      <trkpt lat="44.88105" lon="0.88958">
        <ele>50</ele>
        <time>2019-02-03T01:44:00.000Z</time>
      </trkpt>
      <trkpt lat="44.88095" lon="0.88927">
        <ele>51</ele>
        <time>2019-02-03T01:45:00.000Z</time>
      </trkpt>
      <trkpt lat="44.88086" lon="0.88902">
        <ele>51</ele>
        <time>2019-02-03T01:46:00.000Z</time>
      </trkpt>
      <trkpt lat="44.8806" lon="0.88818">
        <ele>52</ele>
        <time>2019-02-03T01:47:00.000Z</time>
      </trkpt>
      <trkpt lat="44.8805" lon="0.88787">
        <ele>52</ele>
        <time>2019-02-03T01:48:00.000Z</time>
      </trkpt>
      <trkpt lat="44.88033" lon="0.88742">
        <ele>52</ele>
        <time>2019-02-03T01:49:00.000Z</time>
      </trkpt>
      <trkpt lat="44.88019" lon="0.8871">
        <ele>52</ele>
        <time>2019-02-03T01:50:00.000Z</time>
      </trkpt>
      <trkpt lat="44.87982" lon="0.88646">
        <ele>52</ele>
        <time>2019-02-03T01:51:00.000Z</time>
      </trkpt>
      <trkpt lat="44.87972" lon="0.88624">
        <ele>51</ele>
        <time>2019-02-03T01:52:00.000Z</time>
      </trkpt>
      <trkpt lat="44.87974" lon="0.88604">
        <ele>51</ele>
        <time>2019-02-03T01:53:00.000Z</time>
      </trkpt>
      <trkpt lat="44.8798" lon="0.88591">
        <ele>51</ele>
        <time>2019-02-03T01:54:00.000Z</time>
      </trkpt>
      <trkpt lat="44.8799" lon="0.88585">
        <ele>51</ele>
        <time>2019-02-03T01:55:00.000Z</time>
      </trkpt>
      <trkpt lat="44.88" lon="0.88578">
        <ele>51</ele>
        <time>2019-02-03T01:56:00.000Z</time>
      </trkpt>
      <trkpt lat="44.88011" lon="0.88573">
        <ele>51</ele>
        <time>2019-02-03T01:57:00.000Z</time>
      </trkpt>
      <trkpt lat="44.8802" lon="0.88576">
        <ele>52</ele>
        <time>2019-02-03T01:58:00.000Z</time>
      </trkpt>
      <trkpt lat="44.88028" lon="0.8859">
        <ele>52</ele>
        <time>2019-02-03T01:59:00.000Z</time>
      </trkpt>
      <trkpt lat="44.8804" lon="0.88598">
        <ele>52</ele>
        <time>2019-02-03T02:00:00.000Z</time>
      </trkpt>
      <trkpt lat="44.88051" lon="0.88606">
        <ele>53</ele>
        <time>2019-02-03T02:01:00.000Z</time>
      </trkpt>
      <trkpt lat="44.88062" lon="0.88604">
        <ele>53</ele>
        <time>2019-02-03T02:02:00.000Z</time>
      </trkpt>
      <trkpt lat="44.88066" lon="0.88588">
        <ele>53</ele>
        <time>2019-02-03T02:03:00.000Z</time>
      </trkpt>
      <trkpt lat="44.88071" lon="0.88572">
        <ele>53</ele>
        <time>2019-02-03T02:04:00.000Z</time>
      </trkpt>
      <trkpt lat="44.88079" lon="0.88554">
        <ele>53</ele>
        <time>2019-02-03T02:05:00.000Z</time>
      </trkpt>
      <trkpt lat="44.88081" lon="0.88538">
        <ele>53</ele>
        <time>2019-02-03T02:06:00.000Z</time>
      </trkpt>
      <trkpt lat="44.88087" lon="0.88529">
        <ele>53</ele>
        <time>2019-02-03T02:07:00.000Z</time>
      </trkpt>
      <trkpt lat="44.88103" lon="0.88534">
        <ele>53</ele>
        <time>2019-02-03T02:08:00.000Z</time>
      </trkpt>
      <trkpt lat="44.88115" lon="0.88541">
        <ele>53</ele>
        <time>2019-02-03T02:09:00.000Z</time>
      </trkpt>
      <trkpt lat="44.88107" lon="0.88533">
        <ele>53</ele>
        <time>2019-02-03T02:10:00.000Z</time>
      </trkpt>
      <trkpt lat="44.88096" lon="0.88528">
        <ele>53</ele>
        <time>2019-02-03T02:11:00.000Z</time>
      </trkpt>
      <trkpt lat="44.88085" lon="0.88528">
        <ele>53</ele>
        <time>2019-02-03T02:12:00.000Z</time>
      </trkpt>
      <trkpt lat="44.88068" lon="0.88523">
        <ele>53</ele>
        <time>2019-02-03T02:13:00.000Z</time>
      </trkpt>
      <trkpt lat="44.88052" lon="0.88524">
        <ele>52</ele>
        <time>2019-02-03T02:14:00.000Z</time>
      </trkpt>
      <trkpt lat="44.88042" lon="0.88538">
        <ele>52</ele>
        <time>2019-02-03T02:15:00.000Z</time>
      </trkpt>
      <trkpt lat="44.88026" lon="0.88556">
        <ele>51</ele>
        <time>2019-02-03T02:16:00.000Z</time>
      </trkpt>
      <trkpt lat="44.88016" lon="0.8857">
        <ele>51</ele>
        <time>2019-02-03T02:17:00.000Z</time>
      </trkpt>
      <trkpt lat="44.88003" lon="0.88576">
        <ele>51</ele>
        <time>2019-02-03T02:18:00.000Z</time>
      </trkpt>
      <trkpt lat="44.87986" lon="0.88585">
        <ele>51</ele>
        <time>2019-02-03T02:19:00.000Z</time>
      </trkpt>
      <trkpt lat="44.87975" lon="0.88603">
        <ele>51</ele>
        <time>2019-02-03T02:20:00.000Z</time>
      </trkpt>
      <trkpt lat="44.8797" lon="0.88626">
        <ele>51</ele>
        <time>2019-02-03T02:21:00.000Z</time>
      </trkpt>
      <trkpt lat="44.87982" lon="0.8865">
        <ele>52</ele>
        <time>2019-02-03T02:22:00.000Z</time>
      </trkpt>
      <trkpt lat="44.87996" lon="0.88676">
        <ele>53</ele>
        <time>2019-02-03T02:23:00.000Z</time>
      </trkpt>
      <trkpt lat="44.88019" lon="0.88718">
        <ele>52</ele>
        <time>2019-02-03T02:24:00.000Z</time>
      </trkpt>
      <trkpt lat="44.88027" lon="0.88736">
        <ele>52</ele>
        <time>2019-02-03T02:25:00.000Z</time>
      </trkpt>
      <trkpt lat="44.88035" lon="0.88755">
        <ele>52</ele>
        <time>2019-02-03T02:26:00.000Z</time>
      </trkpt>
      <trkpt lat="44.88043" lon="0.88775">
        <ele>52</ele>
        <time>2019-02-03T02:27:00.000Z</time>
      </trkpt>
      <trkpt lat="44.88049" lon="0.88792">
        <ele>52</ele>
        <time>2019-02-03T02:28:00.000Z</time>
      </trkpt>
      <trkpt lat="44.88061" lon="0.88832">
        <ele>52</ele>
        <time>2019-02-03T02:29:00.000Z</time>
      </trkpt>
      <trkpt lat="44.88067" lon="0.88854">
        <ele>52</ele>
        <time>2019-02-03T02:30:00.000Z</time>
      </trkpt>
      <trkpt lat="44.88076" lon="0.88883">
        <ele>52</ele>
        <time>2019-02-03T02:31:00.000Z</time>
      </trkpt>
      <trkpt lat="44.88086" lon="0.88914">
        <ele>51</ele>
        <time>2019-02-03T02:32:00.000Z</time>
      </trkpt>
      <trkpt lat="44.88096" lon="0.88946">
        <ele>50</ele>
        <time>2019-02-03T02:33:00.000Z</time>
      </trkpt>
      <trkpt lat="44.88106" lon="0.88976">
        <ele>50</ele>
        <time>2019-02-03T02:34:00.000Z</time>
      </trkpt>
      <trkpt lat="44.88117" lon="0.89014">
        <ele>50</ele>
        <time>2019-02-03T02:35:00.000Z</time>
      </trkpt>
      <trkpt lat="44.88127" lon="0.89049">
        <ele>52</ele>
        <time>2019-02-03T02:36:00.000Z</time>
      </trkpt>
      <trkpt lat="44.88137" lon="0.89068">
        <ele>53</ele>
        <time>2019-02-03T02:37:00.000Z</time>
      </trkpt>
      <trkpt lat="44.88144" lon="0.89077">
        <ele>53</ele>
        <time>2019-02-03T02:38:00.000Z</time>
      </trkpt>
      <trkpt lat="44.88164" lon="0.89074">
        <ele>52</ele>
        <time>2019-02-03T02:39:00.000Z</time>
      </trkpt>
      <trkpt lat="44.8819" lon="0.89069">
        <ele>52</ele>
        <time>2019-02-03T02:40:00.000Z</time>
      </trkpt>
      <trkpt lat="44.88215" lon="0.89065">
        <ele>51</ele>
        <time>2019-02-03T02:41:00.000Z</time>
      </trkpt>
      <trkpt lat="44.88235" lon="0.89062">
        <ele>51</ele>
        <time>2019-02-03T02:42:00.000Z</time>
      </trkpt>
      <trkpt lat="44.88288" lon="0.89057">
        <ele>53</ele>
        <time>2019-02-03T02:43:00.000Z</time>
      </trkpt>
      <trkpt lat="44.88323" lon="0.89052">
        <ele>55</ele>
        <time>2019-02-03T02:44:00.000Z</time>
      </trkpt>
      <trkpt lat="44.88348" lon="0.89051">
        <ele>59</ele>
        <time>2019-02-03T02:45:00.000Z</time>
      </trkpt>
      <trkpt lat="44.8836" lon="0.89042">
        <ele>62</ele>
        <time>2019-02-03T02:46:00.000Z</time>
      </trkpt>
      <trkpt lat="44.88355" lon="0.89031">
        <ele>62</ele>
        <time>2019-02-03T02:47:00.000Z</time>
      </trkpt>
      <trkpt lat="44.88345" lon="0.89013">
        <ele>62</ele>
        <time>2019-02-03T02:48:00.000Z</time>
      </trkpt>
      <trkpt lat="44.88332" lon="0.88993">
        <ele>60</ele>
        <time>2019-02-03T02:49:00.000Z</time>
      </trkpt>
      <trkpt lat="44.88312" lon="0.88967">
        <ele>61</ele>
        <time>2019-02-03T02:50:00.000Z</time>
      </trkpt>
      <trkpt lat="44.88302" lon="0.88944">
        <ele>62</ele>
        <time>2019-02-03T02:51:00.000Z</time>
      </trkpt>
      <trkpt lat="44.8829" lon="0.88916">
        <ele>62</ele>
        <time>2019-02-03T02:52:00.000Z</time>
      </trkpt>
      <trkpt lat="44.88281" lon="0.88894">
        <ele>60</ele>
        <time>2019-02-03T02:53:00.000Z</time>
      </trkpt>
      <trkpt lat="44.88286" lon="0.88883">
        <ele>60</ele>
        <time>2019-02-03T02:54:00.000Z</time>
      </trkpt>
      <trkpt lat="44.8828" lon="0.88894">
        <ele>59</ele>
        <time>2019-02-03T02:55:00.000Z</time>
      </trkpt>
      <trkpt lat="44.88281" lon="0.88907">
        <ele>60</ele>
        <time>2019-02-03T02:56:00.000Z</time>
      </trkpt>
      <trkpt lat="44.88297" lon="0.88946">
        <ele>61</ele>
        <time>2019-02-03T02:57:00.000Z</time>
      </trkpt>
      <trkpt lat="44.88304" lon="0.88967">
        <ele>60</ele>
        <time>2019-02-03T02:58:00.000Z</time>
      </trkpt>
      <trkpt lat="44.88345" lon="0.89027">
        <ele>60</ele>
        <time>2019-02-03T02:59:00.000Z</time>
      </trkpt>
      <trkpt lat="44.88428" lon="0.89073">
        <ele>65</ele>
        <time>2019-02-03T03:00:00.000Z</time>
      </trkpt>
      <trkpt lat="44.88507" lon="0.89099">
        <ele>68</ele>
        <time>2019-02-03T03:01:00.000Z</time>
      </trkpt>
      <trkpt lat="44.88569" lon="0.89148">
        <ele>65</ele>
        <time>2019-02-03T03:02:00.000Z</time>
      </trkpt>
      <trkpt lat="44.88643" lon="0.89211">
        <ele>65</ele>
        <time>2019-02-03T03:03:00.000Z</time>
      </trkpt>
      <trkpt lat="44.88709" lon="0.89272">
        <ele>66</ele>
        <time>2019-02-03T03:04:00.000Z</time>
      </trkpt>
      <trkpt lat="44.88768" lon="0.89346">
        <ele>61</ele>
        <time>2019-02-03T03:05:00.000Z</time>
      </trkpt>
      <trkpt lat="44.88825" lon="0.89414">
        <ele>58</ele>
        <time>2019-02-03T03:06:00.000Z</time>
      </trkpt>
      <trkpt lat="44.88872" lon="0.89472">
        <ele>59</ele>
        <time>2019-02-03T03:07:00.000Z</time>
      </trkpt>
      <trkpt lat="44.88914" lon="0.89527">
        <ele>58</ele>
        <time>2019-02-03T03:08:00.000Z</time>
      </trkpt>
      <trkpt lat="44.8896" lon="0.89586">
        <ele>59</ele>
        <time>2019-02-03T03:09:00.000Z</time>
      </trkpt>
      <trkpt lat="44.88997" lon="0.89634">
        <ele>61</ele>
        <time>2019-02-03T03:10:00.000Z</time>
      </trkpt>
      <trkpt lat="44.89032" lon="0.89677">
        <ele>62</ele>
        <time>2019-02-03T03:11:00.000Z</time>
      </trkpt>
      <trkpt lat="44.89066" lon="0.89738">
        <ele>63</ele>
        <time>2019-02-03T03:12:00.000Z</time>
      </trkpt>
      <trkpt lat="44.89111" lon="0.89782">
        <ele>64</ele>
        <time>2019-02-03T03:13:00.000Z</time>
      </trkpt>
      <trkpt lat="44.89156" lon="0.89857">
        <ele>61</ele>
        <time>2019-02-03T03:14:00.000Z</time>
      </trkpt>
      <trkpt lat="44.89189" lon="0.89968">
        <ele>60</ele>
        <time>2019-02-03T03:15:00.000Z</time>
      </trkpt>
      <trkpt lat="44.89246" lon="0.90063">
        <ele>60</ele>
        <time>2019-02-03T03:16:00.000Z</time>
      </trkpt>
      <trkpt lat="44.89284" lon="0.90138">
        <ele>60</ele>
        <time>2019-02-03T03:17:00.000Z</time>
      </trkpt>
      <trkpt lat="44.89364" lon="0.90266">
        <ele>61</ele>
        <time>2019-02-03T03:18:00.000Z</time>
      </trkpt>
      <trkpt lat="44.89425" lon="0.90328">
        <ele>60</ele>
        <time>2019-02-03T03:19:00.000Z</time>
      </trkpt>
      <trkpt lat="44.89503" lon="0.90361">
        <ele>64</ele>
        <time>2019-02-03T03:20:00.000Z</time>
      </trkpt>
      <trkpt lat="44.89548" lon="0.90433">
        <ele>64</ele>
        <time>2019-02-03T03:21:00.000Z</time>
      </trkpt>
      <trkpt lat="44.89599" lon="0.90482">
        <ele>65</ele>
        <time>2019-02-03T03:22:00.000Z</time>
      </trkpt>
      <trkpt lat="44.89668" lon="0.90536">
        <ele>66</ele>
        <time>2019-02-03T03:23:00.000Z</time>
      </trkpt>
      <trkpt lat="44.89729" lon="0.90594">
        <ele>67</ele>
        <time>2019-02-03T03:24:00.000Z</time>
      </trkpt>
      <trkpt lat="44.89798" lon="0.90666">
        <ele>68</ele>
        <time>2019-02-03T03:25:00.000Z</time>
      </trkpt>
      <trkpt lat="44.89861" lon="0.90735">
        <ele>68</ele>
        <time>2019-02-03T03:26:00.000Z</time>
      </trkpt>
      <trkpt lat="44.89928" lon="0.90787">
        <ele>68</ele>
        <time>2019-02-03T03:27:00.000Z</time>
      </trkpt>
      <trkpt lat="44.90003" lon="0.90831">
        <ele>71</ele>
        <time>2019-02-03T03:28:00.000Z</time>
      </trkpt>
      <trkpt lat="44.9007" lon="0.90875">
        <ele>72</ele>
        <time>2019-02-03T03:29:00.000Z</time>
      </trkpt>
      <trkpt lat="44.90145" lon="0.90906">
        <ele>74</ele>
        <time>2019-02-03T03:30:00.000Z</time>
      </trkpt>
      <trkpt lat="44.9021" lon="0.90897">
        <ele>75</ele>
        <time>2019-02-03T03:31:00.000Z</time>
      </trkpt>
      <trkpt lat="44.90265" lon="0.90884">
        <ele>76</ele>
        <time>2019-02-03T03:32:00.000Z</time>
      </trkpt>
      <trkpt lat="44.90334" lon="0.90882">
        <ele>75</ele>
        <time>2019-02-03T03:33:00.000Z</time>
      </trkpt>
      <trkpt lat="44.90397" lon="0.90883">
        <ele>80</ele>
        <time>2019-02-03T03:34:00.000Z</time>
      </trkpt>
      <trkpt lat="44.90483" lon="0.90918">
        <ele>86</ele>
        <time>2019-02-03T03:35:00.000Z</time>
      </trkpt>
      <trkpt lat="44.90544" lon="0.9094">
        <ele>85</ele>
        <time>2019-02-03T03:36:00.000Z</time>
      </trkpt>
      <trkpt lat="44.9062" lon="0.90969">
        <ele>86</ele>
        <time>2019-02-03T03:37:00.000Z</time>
      </trkpt>
      <trkpt lat="44.90689" lon="0.90991">
        <ele>89</ele>
        <time>2019-02-03T03:38:00.000Z</time>
      </trkpt>
      <trkpt lat="44.90747" lon="0.91006">
        <ele>92</ele>
        <time>2019-02-03T03:39:00.000Z</time>
      </trkpt>
      <trkpt lat="44.90816" lon="0.91025">
        <ele>98</ele>
        <time>2019-02-03T03:40:00.000Z</time>
      </trkpt>
      <trkpt lat="44.9085" lon="0.91061">
        <ele>97</ele>
        <time>2019-02-03T03:41:00.000Z</time>
      </trkpt>
      <trkpt lat="44.90903" lon="0.91057">
        <ele>101</ele>
        <time>2019-02-03T03:42:00.000Z</time>
      </trkpt>
      <trkpt lat="44.90958" lon="0.91088">
        <ele>99</ele>
        <time>2019-02-03T03:43:00.000Z</time>
      </trkpt>
      <trkpt lat="44.91064" lon="0.91106">
        <ele>92</ele>
        <time>2019-02-03T03:44:00.000Z</time>
      </trkpt>
      <trkpt lat="44.9124" lon="0.90967">
        <ele>72</ele>
        <time>2019-02-03T03:45:00.000Z</time>
      </trkpt>
      <trkpt lat="44.91324" lon="0.90894">
        <ele>71</ele>
        <time>2019-02-03T03:46:00.000Z</time>
      </trkpt>
      <trkpt lat="44.91313" lon="0.90995">
        <ele>66</ele>
        <time>2019-02-03T03:47:00.000Z</time>
      </trkpt>
      <trkpt lat="44.91352" lon="0.91064">
        <ele>71</ele>
        <time>2019-02-03T03:48:00.000Z</time>
      </trkpt>
      <trkpt lat="44.91295" lon="0.91114">
        <ele>69</ele>
        <time>2019-02-03T03:49:00.000Z</time>
      </trkpt>
      <trkpt lat="44.91247" lon="0.91146">
        <ele>67</ele>
        <time>2019-02-03T03:50:00.000Z</time>
      </trkpt>
      <trkpt lat="44.91241" lon="0.91203">
        <ele>70</ele>
        <time>2019-02-03T03:51:00.000Z</time>
      </trkpt>
      <trkpt lat="44.9124" lon="0.91264">
        <ele>73</ele>
        <time>2019-02-03T03:52:00.000Z</time>
      </trkpt>
      <trkpt lat="44.91264" lon="0.91301">
        <ele>72</ele>
        <time>2019-02-03T03:53:00.000Z</time>
      </trkpt>
      <trkpt lat="44.91304" lon="0.91319">
        <ele>76</ele>
        <time>2019-02-03T03:54:00.000Z</time>
      </trkpt>
      <trkpt lat="44.91351" lon="0.91337">
        <ele>82</ele>
        <time>2019-02-03T03:55:00.000Z</time>
      </trkpt>
      <trkpt lat="44.91419" lon="0.91356">
        <ele>93</ele>
        <time>2019-02-03T03:56:00.000Z</time>
      </trkpt>
      <trkpt lat="44.91529" lon="0.91468">
        <ele>90</ele>
        <time>2019-02-03T03:57:00.000Z</time>
      </trkpt>
      <trkpt lat="44.91601" lon="0.91565">
        <ele>84</ele>
        <time>2019-02-03T03:58:00.000Z</time>
      </trkpt>
      <trkpt lat="44.91679" lon="0.9167">
        <ele>89</ele>
        <time>2019-02-03T03:59:00.000Z</time>
      </trkpt>
      <trkpt lat="44.91731" lon="0.91809">
        <ele>78</ele>
        <time>2019-02-03T04:00:00.000Z</time>
      </trkpt>
      <trkpt lat="44.91775" lon="0.91923">
        <ele>78</ele>
        <time>2019-02-03T04:01:00.000Z</time>
      </trkpt>
      <trkpt lat="44.91826" lon="0.92095">
        <ele>75</ele>
        <time>2019-02-03T04:02:00.000Z</time>
      </trkpt>
      <trkpt lat="44.91835" lon="0.92265">
        <ele>72</ele>
        <time>2019-02-03T04:03:00.000Z</time>
      </trkpt>
      <trkpt lat="44.91883" lon="0.92408">
        <ele>65</ele>
        <time>2019-02-03T04:04:00.000Z</time>
      </trkpt>
      <trkpt lat="44.9187" lon="0.92536">
        <ele>57</ele>
        <time>2019-02-03T04:05:00.000Z</time>
      </trkpt>
      <trkpt lat="44.91852" lon="0.92635">
        <ele>59</ele>
        <time>2019-02-03T04:06:00.000Z</time>
      </trkpt>
      <trkpt lat="44.91832" lon="0.92701">
        <ele>62</ele>
        <time>2019-02-03T04:07:00.000Z</time>
      </trkpt>
      <trkpt lat="44.91773" lon="0.92694">
        <ele>60</ele>
        <time>2019-02-03T04:08:00.000Z</time>
      </trkpt>
      <trkpt lat="44.91713" lon="0.92659">
        <ele>60</ele>
        <time>2019-02-03T04:09:00.000Z</time>
      </trkpt>
      <trkpt lat="44.91647" lon="0.92619">
        <ele>59</ele>
        <time>2019-02-03T04:10:00.000Z</time>
      </trkpt>
      <trkpt lat="44.91668" lon="0.92491">
        <ele>57</ele>
        <time>2019-02-03T04:11:00.000Z</time>
      </trkpt>
      <trkpt lat="44.91643" lon="0.92374">
        <ele>55</ele>
        <time>2019-02-03T04:12:00.000Z</time>
      </trkpt>
      <trkpt lat="44.91588" lon="0.9231">
        <ele>55</ele>
        <time>2019-02-03T04:13:00.000Z</time>
      </trkpt>
      <trkpt lat="44.91567" lon="0.92231">
        <ele>53</ele>
        <time>2019-02-03T04:14:00.000Z</time>
      </trkpt>
      <trkpt lat="44.91566" lon="0.92125">
        <ele>54</ele>
        <time>2019-02-03T04:15:00.000Z</time>
      </trkpt>
      <trkpt lat="44.91524" lon="0.92035">
        <ele>55</ele>
        <time>2019-02-03T04:16:00.000Z</time>
      </trkpt>
      <trkpt lat="44.91485" lon="0.91961">
        <ele>56</ele>
        <time>2019-02-03T04:17:00.000Z</time>
      </trkpt>
      <trkpt lat="44.91432" lon="0.91917">
        <ele>56</ele>
        <time>2019-02-03T04:18:00.000Z</time>
      </trkpt>
      <trkpt lat="44.91364" lon="0.91872">
        <ele>55</ele>
        <time>2019-02-03T04:19:00.000Z</time>
      </trkpt>
      <trkpt lat="44.91304" lon="0.91803">
        <ele>55</ele>
        <time>2019-02-03T04:20:00.000Z</time>
      </trkpt>
      <trkpt lat="44.91233" lon="0.91732">
        <ele>57</ele>
        <time>2019-02-03T04:21:00.000Z</time>
      </trkpt>
      <trkpt lat="44.91192" lon="0.91754">
        <ele>57</ele>
        <time>2019-02-03T04:22:00.000Z</time>
      </trkpt>
      <trkpt lat="44.91143" lon="0.91799">
        <ele>56</ele>
        <time>2019-02-03T04:23:00.000Z</time>
      </trkpt>
      <trkpt lat="44.91136" lon="0.91738">
        <ele>56</ele>
        <time>2019-02-03T04:24:00.000Z</time>
      </trkpt>
      <trkpt lat="44.91179" lon="0.91669">
        <ele>57</ele>
        <time>2019-02-03T04:25:00.000Z</time>
      </trkpt>
      <trkpt lat="44.91181" lon="0.91648">
        <ele>57</ele>
        <time>2019-02-03T04:26:00.000Z</time>
      </trkpt>
      <trkpt lat="44.91212" lon="0.91613">
        <ele>57</ele>
        <time>2019-02-03T04:27:00.000Z</time>
      </trkpt>
      <trkpt lat="44.91206" lon="0.91627">
        <ele>57</ele>
        <time>2019-02-03T04:28:00.000Z</time>
      </trkpt>
      <trkpt lat="44.91198" lon="0.91634">
        <ele>57</ele>
        <time>2019-02-03T04:29:00.000Z</time>
      </trkpt>
      <trkpt lat="44.91184" lon="0.91635">
        <ele>57</ele>
        <time>2019-02-03T04:30:00.000Z</time>
      </trkpt>
      <trkpt lat="44.91223" lon="0.91505">
        <ele>56</ele>
        <time>2019-02-03T04:31:00.000Z</time>
      </trkpt>
      <trkpt lat="44.91218" lon="0.9145">
        <ele>57</ele>
        <time>2019-02-03T04:32:00.000Z</time>
      </trkpt>
      <trkpt lat="44.91186" lon="0.91428">
        <ele>59</ele>
        <time>2019-02-03T04:33:00.000Z</time>
      </trkpt>
    </trkseg>
  </trk>
  <trk>
    <name><![CDATA[Jour 3]]></name>
    <trkseg>
      <trkpt lat="44.91186" lon="0.91428">
        <ele>59</ele>
        <time>2019-02-03T04:33:00.000Z</time>
      </trkpt>
      <trkpt lat="44.91186" lon="0.91428">
        <ele>59</ele>
        <time>2019-02-03T04:33:00.000Z</time>
      </trkpt>
      <trkpt lat="44.91138" lon="0.91427">
        <ele>60</ele>
        <time>2019-02-03T04:34:00.000Z</time>
      </trkpt>
      <trkpt lat="44.91119" lon="0.9143">
        <ele>59</ele>
        <time>2019-02-03T04:35:00.000Z</time>
      </trkpt>
      <trkpt lat="44.91182" lon="0.91665">
        <ele>57</ele>
        <time>2019-02-01T20:33:28.000Z</time>
      </trkpt>
      <trkpt lat="44.91178" lon="0.91681">
        <ele>57</ele>
        <time>2019-02-01T20:34:28.000Z</time>
      </trkpt>
      <trkpt lat="44.91146" lon="0.91758">
        <ele>56</ele>
        <time>2019-02-01T20:35:28.000Z</time>
      </trkpt>
      <trkpt lat="44.91153" lon="0.91791">
        <ele>56</ele>
        <time>2019-02-01T20:36:28.000Z</time>
      </trkpt>
      <trkpt lat="44.91203" lon="0.91747">
        <ele>57</ele>
        <time>2019-02-01T20:37:28.000Z</time>
      </trkpt>
      <trkpt lat="44.91245" lon="0.91754">
        <ele>57</ele>
        <time>2019-02-01T20:38:28.000Z</time>
      </trkpt>
      <trkpt lat="44.91311" lon="0.91822">
        <ele>55</ele>
        <time>2019-02-01T20:39:28.000Z</time>
      </trkpt>
      <trkpt lat="44.91373" lon="0.9189">
        <ele>56</ele>
        <time>2019-02-01T20:40:28.000Z</time>
      </trkpt>
      <trkpt lat="44.91444" lon="0.91936">
        <ele>56</ele>
        <time>2019-02-01T20:41:28.000Z</time>
      </trkpt>
      <trkpt lat="44.91503" lon="0.92022">
        <ele>56</ele>
        <time>2019-02-01T20:42:28.000Z</time>
      </trkpt>
      <trkpt lat="44.91561" lon="0.92115">
        <ele>54</ele>
        <time>2019-02-01T20:43:28.000Z</time>
      </trkpt>
      <trkpt lat="44.91561" lon="0.9224">
        <ele>53</ele>
        <time>2019-02-01T20:44:28.000Z</time>
      </trkpt>
      <trkpt lat="44.91601" lon="0.92341">
        <ele>56</ele>
        <time>2019-02-01T20:45:28.000Z</time>
      </trkpt>
      <trkpt lat="44.91647" lon="0.92434">
        <ele>56</ele>
        <time>2019-02-01T20:46:28.000Z</time>
      </trkpt>
      <trkpt lat="44.91671" lon="0.92539">
        <ele>58</ele>
        <time>2019-02-01T20:47:28.000Z</time>
      </trkpt>
      <trkpt lat="44.91654" lon="0.92617">
        <ele>59</ele>
        <time>2019-02-01T20:48:28.000Z</time>
      </trkpt>
      <trkpt lat="44.91678" lon="0.92647">
        <ele>60</ele>
        <time>2019-02-01T20:49:28.000Z</time>
      </trkpt>
      <trkpt lat="44.91813" lon="0.92714">
        <ele>62</ele>
        <time>2019-02-01T20:50:28.000Z</time>
      </trkpt>
      <trkpt lat="44.91857" lon="0.92702">
        <ele>62</ele>
        <time>2019-02-01T20:51:28.000Z</time>
      </trkpt>
      <trkpt lat="44.91916" lon="0.92696">
        <ele>62</ele>
        <time>2019-02-01T20:52:28.000Z</time>
      </trkpt>
      <trkpt lat="44.91991" lon="0.92688">
        <ele>62</ele>
        <time>2019-02-01T20:53:28.000Z</time>
      </trkpt>
      <trkpt lat="44.92032" lon="0.92741">
        <ele>66</ele>
        <time>2019-02-01T20:54:28.000Z</time>
      </trkpt>
      <trkpt lat="44.92046" lon="0.92772">
        <ele>68</ele>
        <time>2019-02-01T20:55:28.000Z</time>
      </trkpt>
      <trkpt lat="44.92079" lon="0.92795">
        <ele>72</ele>
        <time>2019-02-01T20:56:28.000Z</time>
      </trkpt>
      <trkpt lat="44.92057" lon="0.92796">
        <ele>71</ele>
        <time>2019-02-01T20:57:28.000Z</time>
      </trkpt>
      <trkpt lat="44.92056" lon="0.92813">
        <ele>73</ele>
        <time>2019-02-01T20:58:28.000Z</time>
      </trkpt>
      <trkpt lat="44.92045" lon="0.92856">
        <ele>77</ele>
        <time>2019-02-01T20:59:28.000Z</time>
      </trkpt>
      <trkpt lat="44.92042" lon="0.92887">
        <ele>81</ele>
        <time>2019-02-01T21:00:28.000Z</time>
      </trkpt>
      <trkpt lat="44.92032" lon="0.9292">
        <ele>84</ele>
        <time>2019-02-01T21:01:28.000Z</time>
      </trkpt>
      <trkpt lat="44.92021" lon="0.92955">
        <ele>85</ele>
        <time>2019-02-01T21:02:28.000Z</time>
      </trkpt>
      <trkpt lat="44.9202" lon="0.92996">
        <ele>88</ele>
        <time>2019-02-01T21:03:28.000Z</time>
      </trkpt>
      <trkpt lat="44.92017" lon="0.93026">
        <ele>88</ele>
        <time>2019-02-01T21:04:28.000Z</time>
      </trkpt>
      <trkpt lat="44.92025" lon="0.93085">
        <ele>91</ele>
        <time>2019-02-01T21:05:28.000Z</time>
      </trkpt>
      <trkpt lat="44.92035" lon="0.93109">
        <ele>94</ele>
        <time>2019-02-01T21:06:28.000Z</time>
      </trkpt>
      <trkpt lat="44.92047" lon="0.93127">
        <ele>97</ele>
        <time>2019-02-01T21:07:28.000Z</time>
      </trkpt>
      <trkpt lat="44.92068" lon="0.93169">
        <ele>101</ele>
        <time>2019-02-01T21:08:28.000Z</time>
      </trkpt>
      <trkpt lat="44.92084" lon="0.93172">
        <ele>104</ele>
        <time>2019-02-01T21:09:28.000Z</time>
      </trkpt>
      <trkpt lat="44.92107" lon="0.93219">
        <ele>112</ele>
        <time>2019-02-01T21:10:28.000Z</time>
      </trkpt>
      <trkpt lat="44.92118" lon="0.9322">
        <ele>114</ele>
        <time>2019-02-01T21:11:28.000Z</time>
      </trkpt>
      <trkpt lat="44.92128" lon="0.93257">
        <ele>118</ele>
        <time>2019-02-01T21:12:28.000Z</time>
      </trkpt>
      <trkpt lat="44.92137" lon="0.93303">
        <ele>123</ele>
        <time>2019-02-01T21:13:28.000Z</time>
      </trkpt>
      <trkpt lat="44.92112" lon="0.93317">
        <ele>121</ele>
        <time>2019-02-01T21:14:28.000Z</time>
      </trkpt>
      <trkpt lat="44.92099" lon="0.9333">
        <ele>121</ele>
        <time>2019-02-01T21:15:28.000Z</time>
      </trkpt>
      <trkpt lat="44.92088" lon="0.93363">
        <ele>124</ele>
        <time>2019-02-01T21:16:28.000Z</time>
      </trkpt>
      <trkpt lat="44.92088" lon="0.93391">
        <ele>127</ele>
        <time>2019-02-01T21:17:28.000Z</time>
      </trkpt>
      <trkpt lat="44.92102" lon="0.93405">
        <ele>129</ele>
        <time>2019-02-01T21:18:28.000Z</time>
      </trkpt>
      <trkpt lat="44.92101" lon="0.93435">
        <ele>132</ele>
        <time>2019-02-01T21:19:28.000Z</time>
      </trkpt>
      <trkpt lat="44.92112" lon="0.93456">
        <ele>135</ele>
        <time>2019-02-01T21:20:28.000Z</time>
      </trkpt>
      <trkpt lat="44.92109" lon="0.93478">
        <ele>136</ele>
        <time>2019-02-01T21:21:28.000Z</time>
      </trkpt>
      <trkpt lat="44.92119" lon="0.93513">
        <ele>140</ele>
        <time>2019-02-01T21:22:28.000Z</time>
      </trkpt>
      <trkpt lat="44.92113" lon="0.93525">
        <ele>139</ele>
        <time>2019-02-01T21:23:28.000Z</time>
      </trkpt>
      <trkpt lat="44.92126" lon="0.93548">
        <ele>143</ele>
        <time>2019-02-01T21:24:28.000Z</time>
      </trkpt>
      <trkpt lat="44.92135" lon="0.93583">
        <ele>147</ele>
        <time>2019-02-01T21:25:28.000Z</time>
      </trkpt>
      <trkpt lat="44.92137" lon="0.93618">
        <ele>147</ele>
        <time>2019-02-01T21:26:28.000Z</time>
      </trkpt>
      <trkpt lat="44.92142" lon="0.93649">
        <ele>148</ele>
        <time>2019-02-01T21:27:28.000Z</time>
      </trkpt>
      <trkpt lat="44.92163" lon="0.93724">
        <ele>154</ele>
        <time>2019-02-01T21:28:28.000Z</time>
      </trkpt>
      <trkpt lat="44.92171" lon="0.93768">
        <ele>157</ele>
        <time>2019-02-01T21:29:28.000Z</time>
      </trkpt>
      <trkpt lat="44.92168" lon="0.93801">
        <ele>158</ele>
        <time>2019-02-01T21:30:28.000Z</time>
      </trkpt>
      <trkpt lat="44.92168" lon="0.93819">
        <ele>159</ele>
        <time>2019-02-01T21:31:28.000Z</time>
      </trkpt>
      <trkpt lat="44.92169" lon="0.93852">
        <ele>162</ele>
        <time>2019-02-01T21:32:28.000Z</time>
      </trkpt>
      <trkpt lat="44.9218" lon="0.93885">
        <ele>167</ele>
        <time>2019-02-01T21:33:28.000Z</time>
      </trkpt>
      <trkpt lat="44.92175" lon="0.93912">
        <ele>169</ele>
        <time>2019-02-01T21:34:28.000Z</time>
      </trkpt>
      <trkpt lat="44.92188" lon="0.93962">
        <ele>174</ele>
        <time>2019-02-01T21:35:28.000Z</time>
      </trkpt>
      <trkpt lat="44.92215" lon="0.93996">
        <ele>177</ele>
        <time>2019-02-01T21:36:28.000Z</time>
      </trkpt>
      <trkpt lat="44.92219" lon="0.94023">
        <ele>179</ele>
        <time>2019-02-01T21:37:28.000Z</time>
      </trkpt>
      <trkpt lat="44.92224" lon="0.94079">
        <ele>183</ele>
        <time>2019-02-01T21:38:28.000Z</time>
      </trkpt>
      <trkpt lat="44.92238" lon="0.94136">
        <ele>184</ele>
        <time>2019-02-01T21:39:28.000Z</time>
      </trkpt>
      <trkpt lat="44.92246" lon="0.94176">
        <ele>183</ele>
        <time>2019-02-01T21:40:28.000Z</time>
      </trkpt>
      <trkpt lat="44.92254" lon="0.94196">
        <ele>183</ele>
        <time>2019-02-01T21:41:28.000Z</time>
      </trkpt>
      <trkpt lat="44.92266" lon="0.94196">
        <ele>184</ele>
        <time>2019-02-01T21:42:28.000Z</time>
      </trkpt>
      <trkpt lat="44.92255" lon="0.94194">
        <ele>183</ele>
        <time>2019-02-01T21:43:28.000Z</time>
      </trkpt>
      <trkpt lat="44.92264" lon="0.94204">
        <ele>183</ele>
        <time>2019-02-01T21:44:28.000Z</time>
      </trkpt>
      <trkpt lat="44.92291" lon="0.94262">
        <ele>183</ele>
        <time>2019-02-01T21:45:28.000Z</time>
      </trkpt>
      <trkpt lat="44.92344" lon="0.94292">
        <ele>186</ele>
        <time>2019-02-01T21:46:28.000Z</time>
      </trkpt>
      <trkpt lat="44.92385" lon="0.94327">
        <ele>186</ele>
        <time>2019-02-01T21:47:28.000Z</time>
      </trkpt>
      <trkpt lat="44.92421" lon="0.94374">
        <ele>187</ele>
        <time>2019-02-01T21:48:28.000Z</time>
      </trkpt>
      <trkpt lat="44.92436" lon="0.94388">
        <ele>187</ele>
        <time>2019-02-01T21:49:28.000Z</time>
      </trkpt>
      <trkpt lat="44.92419" lon="0.94368">
        <ele>187</ele>
        <time>2019-02-01T21:50:28.000Z</time>
      </trkpt>
      <trkpt lat="44.92371" lon="0.9431">
        <ele>186</ele>
        <time>2019-02-01T21:51:28.000Z</time>
      </trkpt>
      <trkpt lat="44.92315" lon="0.94247">
        <ele>186</ele>
        <time>2019-02-01T21:52:28.000Z</time>
      </trkpt>
      <trkpt lat="44.92228" lon="0.94184">
        <ele>182</ele>
        <time>2019-02-01T21:53:28.000Z</time>
      </trkpt>
      <trkpt lat="44.92223" lon="0.94121">
        <ele>183</ele>
        <time>2019-02-01T21:54:28.000Z</time>
      </trkpt>
      <trkpt lat="44.92213" lon="0.94039">
        <ele>180</ele>
        <time>2019-02-01T21:55:28.000Z</time>
      </trkpt>
      <trkpt lat="44.92236" lon="0.94076">
        <ele>183</ele>
        <time>2019-02-01T21:56:28.000Z</time>
      </trkpt>
      <trkpt lat="44.92236" lon="0.9416">
        <ele>184</ele>
        <time>2019-02-01T21:57:28.000Z</time>
      </trkpt>
      <trkpt lat="44.92289" lon="0.94233">
        <ele>184</ele>
        <time>2019-02-01T21:58:28.000Z</time>
      </trkpt>
      <trkpt lat="44.92344" lon="0.94288">
        <ele>186</ele>
        <time>2019-02-01T21:59:28.000Z</time>
      </trkpt>
      <trkpt lat="44.92388" lon="0.94337">
        <ele>186</ele>
        <time>2019-02-01T22:00:28.000Z</time>
      </trkpt>
      <trkpt lat="44.92431" lon="0.944">
        <ele>187</ele>
        <time>2019-02-01T22:01:28.000Z</time>
      </trkpt>
      <trkpt lat="44.92531" lon="0.94611">
        <ele>187</ele>
        <time>2019-02-01T22:02:28.000Z</time>
      </trkpt>
      <trkpt lat="44.92538" lon="0.94619">
        <ele>187</ele>
        <time>2019-02-01T22:03:28.000Z</time>
      </trkpt>
      <trkpt lat="44.92543" lon="0.94607">
        <ele>187</ele>
        <time>2019-02-01T22:04:28.000Z</time>
      </trkpt>
      <trkpt lat="44.92544" lon="0.94643">
        <ele>187</ele>
        <time>2019-02-01T22:05:28.000Z</time>
      </trkpt>
      <trkpt lat="44.92563" lon="0.94817">
        <ele>181</ele>
        <time>2019-02-01T22:06:28.000Z</time>
      </trkpt>
      <trkpt lat="44.92579" lon="0.94998">
        <ele>181</ele>
        <time>2019-02-01T22:07:28.000Z</time>
      </trkpt>
      <trkpt lat="44.92526" lon="0.95164">
        <ele>171</ele>
        <time>2019-02-01T22:08:28.000Z</time>
      </trkpt>
      <trkpt lat="44.92498" lon="0.95325">
        <ele>173</ele>
        <time>2019-02-01T22:09:28.000Z</time>
      </trkpt>
      <trkpt lat="44.92539" lon="0.95388">
        <ele>173</ele>
        <time>2019-02-01T22:10:28.000Z</time>
      </trkpt>
      <trkpt lat="44.92552" lon="0.95512">
        <ele>170</ele>
        <time>2019-02-01T22:11:28.000Z</time>
      </trkpt>
      <trkpt lat="44.92635" lon="0.95684">
        <ele>158</ele>
        <time>2019-02-01T22:12:28.000Z</time>
      </trkpt>
      <trkpt lat="44.92697" lon="0.95837">
        <ele>150</ele>
        <time>2019-02-01T22:13:28.000Z</time>
      </trkpt>
      <trkpt lat="44.92705" lon="0.95877">
        <ele>147</ele>
        <time>2019-02-01T22:14:28.000Z</time>
      </trkpt>
      <trkpt lat="44.92729" lon="0.95875">
        <ele>146</ele>
        <time>2019-02-01T22:15:28.000Z</time>
      </trkpt>
      <trkpt lat="44.92819" lon="0.95946">
        <ele>138</ele>
        <time>2019-02-01T22:16:28.000Z</time>
      </trkpt>
      <trkpt lat="44.9286" lon="0.96071">
        <ele>133</ele>
        <time>2019-02-01T22:17:28.000Z</time>
      </trkpt>
      <trkpt lat="44.92803" lon="0.96079">
        <ele>131</ele>
        <time>2019-02-01T22:18:28.000Z</time>
      </trkpt>
      <trkpt lat="44.9279" lon="0.96106">
        <ele>134</ele>
        <time>2019-02-01T22:19:28.000Z</time>
      </trkpt>
      <trkpt lat="44.92787" lon="0.96087">
        <ele>131</ele>
        <time>2019-02-01T22:20:28.000Z</time>
      </trkpt>
      <trkpt lat="44.92752" lon="0.96068">
        <ele>131</ele>
        <time>2019-02-01T22:21:28.000Z</time>
      </trkpt>
      <trkpt lat="44.92674" lon="0.96066">
        <ele>126</ele>
        <time>2019-02-01T22:22:28.000Z</time>
      </trkpt>
      <trkpt lat="44.92585" lon="0.96072">
        <ele>117</ele>
        <time>2019-02-01T22:23:28.000Z</time>
      </trkpt>
      <trkpt lat="44.92479" lon="0.96029">
        <ele>104</ele>
        <time>2019-02-01T22:24:28.000Z</time>
      </trkpt>
      <trkpt lat="44.92381" lon="0.96003">
        <ele>88</ele>
        <time>2019-02-01T22:25:28.000Z</time>
      </trkpt>
      <trkpt lat="44.92292" lon="0.96074">
        <ele>86</ele>
        <time>2019-02-01T22:26:28.000Z</time>
      </trkpt>
      <trkpt lat="44.92181" lon="0.96019">
        <ele>77</ele>
        <time>2019-02-01T22:27:28.000Z</time>
      </trkpt>
      <trkpt lat="44.92087" lon="0.96099">
        <ele>75</ele>
        <time>2019-02-01T22:28:28.000Z</time>
      </trkpt>
      <trkpt lat="44.92043" lon="0.96216">
        <ele>71</ele>
        <time>2019-02-01T22:29:28.000Z</time>
      </trkpt>
      <trkpt lat="44.91985" lon="0.96143">
        <ele>64</ele>
        <time>2019-02-01T22:30:28.000Z</time>
      </trkpt>
      <trkpt lat="44.91955" lon="0.96103">
        <ele>64</ele>
        <time>2019-02-01T22:31:28.000Z</time>
      </trkpt>
      <trkpt lat="44.9187" lon="0.96177">
        <ele>61</ele>
        <time>2019-02-01T22:32:28.000Z</time>
      </trkpt>
      <trkpt lat="44.91836" lon="0.96228">
        <ele>62</ele>
        <time>2019-02-01T22:33:28.000Z</time>
      </trkpt>
      <trkpt lat="44.91766" lon="0.96301">
        <ele>60</ele>
        <time>2019-02-01T22:34:28.000Z</time>
      </trkpt>
      <trkpt lat="44.91718" lon="0.9635">
        <ele>59</ele>
        <time>2019-02-01T22:35:28.000Z</time>
      </trkpt>
      <trkpt lat="44.91708" lon="0.96438">
        <ele>58</ele>
        <time>2019-02-01T22:36:28.000Z</time>
      </trkpt>
      <trkpt lat="44.91756" lon="0.96518">
        <ele>58</ele>
        <time>2019-02-01T22:37:28.000Z</time>
      </trkpt>
      <trkpt lat="44.91801" lon="0.96594">
        <ele>59</ele>
        <time>2019-02-01T22:38:28.000Z</time>
      </trkpt>
      <trkpt lat="44.91848" lon="0.96673">
        <ele>59</ele>
        <time>2019-02-01T22:39:28.000Z</time>
      </trkpt>
      <trkpt lat="44.91894" lon="0.96748">
        <ele>59</ele>
        <time>2019-02-01T22:40:28.000Z</time>
      </trkpt>
      <trkpt lat="44.91945" lon="0.96834">
        <ele>58</ele>
        <time>2019-02-01T22:41:28.000Z</time>
      </trkpt>
      <trkpt lat="44.91993" lon="0.96912">
        <ele>58</ele>
        <time>2019-02-01T22:42:28.000Z</time>
      </trkpt>
      <trkpt lat="44.92039" lon="0.96991">
        <ele>57</ele>
        <time>2019-02-01T22:43:28.000Z</time>
      </trkpt>
      <trkpt lat="44.92089" lon="0.97072">
        <ele>58</ele>
        <time>2019-02-01T22:44:28.000Z</time>
      </trkpt>
      <trkpt lat="44.92137" lon="0.97154">
        <ele>59</ele>
        <time>2019-02-01T22:45:28.000Z</time>
      </trkpt>
      <trkpt lat="44.9217" lon="0.97208">
        <ele>59</ele>
        <time>2019-02-01T22:46:28.000Z</time>
      </trkpt>
      <trkpt lat="44.92197" lon="0.97263">
        <ele>59</ele>
        <time>2019-02-01T22:47:28.000Z</time>
      </trkpt>
      <trkpt lat="44.92301" lon="0.97422">
        <ele>60</ele>
        <time>2019-02-01T22:48:28.000Z</time>
      </trkpt>
      <trkpt lat="44.92358" lon="0.97528">
        <ele>64</ele>
        <time>2019-02-01T22:49:28.000Z</time>
      </trkpt>
      <trkpt lat="44.92415" lon="0.97624">
        <ele>67</ele>
        <time>2019-02-01T22:50:28.000Z</time>
      </trkpt>
      <trkpt lat="44.92438" lon="0.97688">
        <ele>65</ele>
        <time>2019-02-01T22:51:28.000Z</time>
      </trkpt>
      <trkpt lat="44.92486" lon="0.97786">
        <ele>65</ele>
        <time>2019-02-01T22:52:28.000Z</time>
      </trkpt>
      <trkpt lat="44.92539" lon="0.97885">
        <ele>72</ele>
        <time>2019-02-01T22:53:28.000Z</time>
      </trkpt>
      <trkpt lat="44.92587" lon="0.97985">
        <ele>72</ele>
        <time>2019-02-01T22:54:28.000Z</time>
      </trkpt>
      <trkpt lat="44.92628" lon="0.98079">
        <ele>73</ele>
        <time>2019-02-01T22:55:28.000Z</time>
      </trkpt>
      <trkpt lat="44.92683" lon="0.98178">
        <ele>75</ele>
        <time>2019-02-01T22:56:28.000Z</time>
      </trkpt>
      <trkpt lat="44.92711" lon="0.98288">
        <ele>68</ele>
        <time>2019-02-01T22:57:28.000Z</time>
      </trkpt>
      <trkpt lat="44.92729" lon="0.98411">
        <ele>62</ele>
        <time>2019-02-01T22:58:28.000Z</time>
      </trkpt>
      <trkpt lat="44.92736" lon="0.98536">
        <ele>60</ele>
        <time>2019-02-01T22:59:28.000Z</time>
      </trkpt>
      <trkpt lat="44.92751" lon="0.98666">
        <ele>58</ele>
        <time>2019-02-01T23:00:28.000Z</time>
      </trkpt>
      <trkpt lat="44.92756" lon="0.98791">
        <ele>60</ele>
        <time>2019-02-01T23:01:28.000Z</time>
      </trkpt>
      <trkpt lat="44.92772" lon="0.98918">
        <ele>60</ele>
        <time>2019-02-01T23:02:28.000Z</time>
      </trkpt>
      <trkpt lat="44.92786" lon="0.99042">
        <ele>59</ele>
        <time>2019-02-01T23:03:28.000Z</time>
      </trkpt>
      <trkpt lat="44.92797" lon="0.99162">
        <ele>59</ele>
        <time>2019-02-01T23:04:28.000Z</time>
      </trkpt>
      <trkpt lat="44.92802" lon="0.99285">
        <ele>58</ele>
        <time>2019-02-01T23:05:28.000Z</time>
      </trkpt>
      <trkpt lat="44.92818" lon="0.99408">
        <ele>59</ele>
        <time>2019-02-01T23:06:28.000Z</time>
      </trkpt>
      <trkpt lat="44.92835" lon="0.99531">
        <ele>59</ele>
        <time>2019-02-01T23:07:28.000Z</time>
      </trkpt>
      <trkpt lat="44.92854" lon="0.99623">
        <ele>59</ele>
        <time>2019-02-01T23:08:28.000Z</time>
      </trkpt>
      <trkpt lat="44.92892" lon="0.99836">
        <ele>59</ele>
        <time>2019-02-01T23:09:28.000Z</time>
      </trkpt>
      <trkpt lat="44.92894" lon="0.99966">
        <ele>60</ele>
        <time>2019-02-01T23:10:28.000Z</time>
      </trkpt>
      <trkpt lat="44.92902" lon="1.0008">
        <ele>61</ele>
        <time>2019-02-01T23:11:28.000Z</time>
      </trkpt>
      <trkpt lat="44.92914" lon="1.00197">
        <ele>60</ele>
        <time>2019-02-01T23:12:28.000Z</time>
      </trkpt>
      <trkpt lat="44.92941" lon="1.00249">
        <ele>63</ele>
        <time>2019-02-01T23:13:28.000Z</time>
      </trkpt>
      <trkpt lat="44.9298" lon="1.00266">
        <ele>67</ele>
        <time>2019-02-01T23:14:28.000Z</time>
      </trkpt>
      <trkpt lat="44.92976" lon="1.00338">
        <ele>68</ele>
        <time>2019-02-01T23:15:28.000Z</time>
      </trkpt>
      <trkpt lat="44.92978" lon="1.00419">
        <ele>68</ele>
        <time>2019-02-01T23:16:28.000Z</time>
      </trkpt>
      <trkpt lat="44.93006" lon="1.00493">
        <ele>71</ele>
        <time>2019-02-01T23:17:28.000Z</time>
      </trkpt>
      <trkpt lat="44.93029" lon="1.00551">
        <ele>73</ele>
        <time>2019-02-01T23:18:28.000Z</time>
      </trkpt>
      <trkpt lat="44.93043" lon="1.00588">
        <ele>75</ele>
        <time>2019-02-01T23:19:28.000Z</time>
      </trkpt>
      <trkpt lat="44.93067" lon="1.00625">
        <ele>77</ele>
        <time>2019-02-01T23:20:28.000Z</time>
      </trkpt>
      <trkpt lat="44.93112" lon="1.00691">
        <ele>79</ele>
        <time>2019-02-01T23:21:28.000Z</time>
      </trkpt>
      <trkpt lat="44.93149" lon="1.00691">
        <ele>84</ele>
        <time>2019-02-01T23:22:28.000Z</time>
      </trkpt>
      <trkpt lat="44.93179" lon="1.0075">
        <ele>81</ele>
        <time>2019-02-01T23:23:28.000Z</time>
      </trkpt>
      <trkpt lat="44.93225" lon="1.00784">
        <ele>82</ele>
        <time>2019-02-01T23:24:28.000Z</time>
      </trkpt>
      <trkpt lat="44.93291" lon="1.00804">
        <ele>78</ele>
        <time>2019-02-01T23:25:28.000Z</time>
      </trkpt>
      <trkpt lat="44.93372" lon="1.00784">
        <ele>80</ele>
        <time>2019-02-01T23:26:28.000Z</time>
      </trkpt>
      <trkpt lat="44.93494" lon="1.00752">
        <ele>80</ele>
        <time>2019-02-01T23:27:28.000Z</time>
      </trkpt>
      <trkpt lat="44.93601" lon="1.0067">
        <ele>82</ele>
        <time>2019-02-01T23:28:28.000Z</time>
      </trkpt>
      <trkpt lat="44.93681" lon="1.00589">
        <ele>88</ele>
        <time>2019-02-01T23:29:28.000Z</time>
      </trkpt>
      <trkpt lat="44.93779" lon="1.00506">
        <ele>76</ele>
        <time>2019-02-01T23:30:28.000Z</time>
      </trkpt>
      <trkpt lat="44.93843" lon="1.0046">
        <ele>70</ele>
        <time>2019-02-01T23:31:28.000Z</time>
      </trkpt>
      <trkpt lat="44.93886" lon="1.00495">
        <ele>62</ele>
        <time>2019-02-01T23:32:28.000Z</time>
      </trkpt>
      <trkpt lat="44.93915" lon="1.00571">
        <ele>61</ele>
        <time>2019-02-01T23:33:28.000Z</time>
      </trkpt>
      <trkpt lat="44.93946" lon="1.00618">
        <ele>61</ele>
        <time>2019-02-01T23:34:28.000Z</time>
      </trkpt>
      <trkpt lat="44.93981" lon="1.00653">
        <ele>61</ele>
        <time>2019-02-01T23:35:28.000Z</time>
      </trkpt>
      <trkpt lat="44.9403" lon="1.00694">
        <ele>62</ele>
        <time>2019-02-01T23:36:28.000Z</time>
      </trkpt>
      <trkpt lat="44.94077" lon="1.00776">
        <ele>67</ele>
        <time>2019-02-01T23:37:28.000Z</time>
      </trkpt>
      <trkpt lat="44.94055" lon="1.00842">
        <ele>68</ele>
        <time>2019-02-01T23:38:28.000Z</time>
      </trkpt>
      <trkpt lat="44.94003" lon="1.00913">
        <ele>67</ele>
        <time>2019-02-01T23:39:28.000Z</time>
      </trkpt>
      <trkpt lat="44.93984" lon="1.00972">
        <ele>70</ele>
        <time>2019-02-01T23:40:28.000Z</time>
      </trkpt>
      <trkpt lat="44.93997" lon="1.00987">
        <ele>72</ele>
        <time>2019-02-01T23:41:28.000Z</time>
      </trkpt>
      <trkpt lat="44.94008" lon="1.00969">
        <ele>73</ele>
        <time>2019-02-01T23:42:28.000Z</time>
      </trkpt>
      <trkpt lat="44.94022" lon="1.00977">
        <ele>77</ele>
        <time>2019-02-01T23:43:28.000Z</time>
      </trkpt>
      <trkpt lat="44.94033" lon="1.00965">
        <ele>79</ele>
        <time>2019-02-01T23:44:28.000Z</time>
      </trkpt>
      <trkpt lat="44.94041" lon="1.00973">
        <ele>82</ele>
        <time>2019-02-01T23:45:28.000Z</time>
      </trkpt>
      <trkpt lat="44.9402" lon="1.00975">
        <ele>76</ele>
        <time>2019-02-01T23:46:28.000Z</time>
      </trkpt>
      <trkpt lat="44.94007" lon="1.00989">
        <ele>74</ele>
        <time>2019-02-01T23:47:28.000Z</time>
      </trkpt>
      <trkpt lat="44.93998" lon="1.00982">
        <ele>72</ele>
        <time>2019-02-01T23:48:28.000Z</time>
      </trkpt>
      <trkpt lat="44.93985" lon="1.00991">
        <ele>71</ele>
        <time>2019-02-01T23:49:28.000Z</time>
      </trkpt>
      <trkpt lat="44.93996" lon="1.0099">
        <ele>72</ele>
        <time>2019-02-01T23:50:28.000Z</time>
      </trkpt>
      <trkpt lat="44.93987" lon="1.00998">
        <ele>71</ele>
        <time>2019-02-01T23:51:28.000Z</time>
      </trkpt>
      <trkpt lat="44.9393" lon="1.01047">
        <ele>72</ele>
        <time>2019-02-01T23:52:28.000Z</time>
      </trkpt>
      <trkpt lat="44.93881" lon="1.01095">
        <ele>75</ele>
        <time>2019-02-01T23:53:28.000Z</time>
      </trkpt>
      <trkpt lat="44.93828" lon="1.01144">
        <ele>80</ele>
        <time>2019-02-01T23:54:28.000Z</time>
      </trkpt>
      <trkpt lat="44.93779" lon="1.01184">
        <ele>81</ele>
        <time>2019-02-01T23:55:28.000Z</time>
      </trkpt>
      <trkpt lat="44.93723" lon="1.01211">
        <ele>79</ele>
        <time>2019-02-01T23:56:28.000Z</time>
      </trkpt>
      <trkpt lat="44.93677" lon="1.01257">
        <ele>78</ele>
        <time>2019-02-01T23:57:28.000Z</time>
      </trkpt>
      <trkpt lat="44.93623" lon="1.01295">
        <ele>75</ele>
        <time>2019-02-01T23:58:28.000Z</time>
      </trkpt>
      <trkpt lat="44.93616" lon="1.01304">
        <ele>75</ele>
        <time>2019-02-01T23:59:28.000Z</time>
      </trkpt>
      <trkpt lat="44.93606" lon="1.01318">
        <ele>74</ele>
        <time>2019-02-02T00:00:28.000Z</time>
      </trkpt>
      <trkpt lat="44.93589" lon="1.01333">
        <ele>72</ele>
        <time>2019-02-02T00:01:28.000Z</time>
      </trkpt>
      <trkpt lat="44.93566" lon="1.01348">
        <ele>69</ele>
        <time>2019-02-02T00:02:28.000Z</time>
      </trkpt>
      <trkpt lat="44.93538" lon="1.0137">
        <ele>68</ele>
        <time>2019-02-02T00:03:28.000Z</time>
      </trkpt>
      <trkpt lat="44.93516" lon="1.01391">
        <ele>67</ele>
        <time>2019-02-02T00:04:28.000Z</time>
      </trkpt>
      <trkpt lat="44.93485" lon="1.01463">
        <ele>67</ele>
        <time>2019-02-02T00:05:28.000Z</time>
      </trkpt>
      <trkpt lat="44.93473" lon="1.015">
        <ele>68</ele>
        <time>2019-02-02T00:06:28.000Z</time>
      </trkpt>
      <trkpt lat="44.93465" lon="1.01532">
        <ele>69</ele>
        <time>2019-02-02T00:07:28.000Z</time>
      </trkpt>
      <trkpt lat="44.93459" lon="1.01561">
        <ele>71</ele>
        <time>2019-02-02T00:08:28.000Z</time>
      </trkpt>
      <trkpt lat="44.93448" lon="1.01589">
        <ele>73</ele>
        <time>2019-02-02T00:09:28.000Z</time>
      </trkpt>
      <trkpt lat="44.93454" lon="1.0162">
        <ele>74</ele>
        <time>2019-02-02T00:10:28.000Z</time>
      </trkpt>
      <trkpt lat="44.93459" lon="1.01651">
        <ele>74</ele>
        <time>2019-02-02T00:11:28.000Z</time>
      </trkpt>
      <trkpt lat="44.93466" lon="1.0169">
        <ele>75</ele>
        <time>2019-02-02T00:12:28.000Z</time>
      </trkpt>
      <trkpt lat="44.93476" lon="1.01728">
        <ele>74</ele>
        <time>2019-02-02T00:13:28.000Z</time>
      </trkpt>
      <trkpt lat="44.93492" lon="1.01763">
        <ele>72</ele>
        <time>2019-02-02T00:14:28.000Z</time>
      </trkpt>
      <trkpt lat="44.93502" lon="1.01795">
        <ele>71</ele>
        <time>2019-02-02T00:15:28.000Z</time>
      </trkpt>
      <trkpt lat="44.93516" lon="1.01833">
        <ele>71</ele>
        <time>2019-02-02T00:16:28.000Z</time>
      </trkpt>
      <trkpt lat="44.93525" lon="1.01868">
        <ele>72</ele>
        <time>2019-02-02T00:17:28.000Z</time>
      </trkpt>
      <trkpt lat="44.93541" lon="1.01905">
        <ele>71</ele>
        <time>2019-02-02T00:18:28.000Z</time>
      </trkpt>
      <trkpt lat="44.93556" lon="1.01938">
        <ele>72</ele>
        <time>2019-02-02T00:19:28.000Z</time>
      </trkpt>
      <trkpt lat="44.93566" lon="1.01971">
        <ele>72</ele>
        <time>2019-02-02T00:20:28.000Z</time>
      </trkpt>
      <trkpt lat="44.9358" lon="1.02008">
        <ele>72</ele>
        <time>2019-02-02T00:21:28.000Z</time>
      </trkpt>
      <trkpt lat="44.93591" lon="1.02037">
        <ele>72</ele>
        <time>2019-02-02T00:22:28.000Z</time>
      </trkpt>
      <trkpt lat="44.93599" lon="1.02068">
        <ele>72</ele>
        <time>2019-02-02T00:23:28.000Z</time>
      </trkpt>
      <trkpt lat="44.93606" lon="1.02108">
        <ele>73</ele>
        <time>2019-02-02T00:24:28.000Z</time>
      </trkpt>
      <trkpt lat="44.93607" lon="1.02138">
        <ele>73</ele>
        <time>2019-02-02T00:25:28.000Z</time>
      </trkpt>
      <trkpt lat="44.93612" lon="1.02169">
        <ele>73</ele>
        <time>2019-02-02T00:26:28.000Z</time>
      </trkpt>
      <trkpt lat="44.93617" lon="1.02201">
        <ele>73</ele>
        <time>2019-02-02T00:27:28.000Z</time>
      </trkpt>
      <trkpt lat="44.93624" lon="1.02237">
        <ele>74</ele>
        <time>2019-02-02T00:28:28.000Z</time>
      </trkpt>
      <trkpt lat="44.93628" lon="1.02267">
        <ele>75</ele>
        <time>2019-02-02T00:29:28.000Z</time>
      </trkpt>
      <trkpt lat="44.93635" lon="1.02295">
        <ele>76</ele>
        <time>2019-02-02T00:30:28.000Z</time>
      </trkpt>
      <trkpt lat="44.93641" lon="1.0233">
        <ele>78</ele>
        <time>2019-02-02T00:31:28.000Z</time>
      </trkpt>
      <trkpt lat="44.93659" lon="1.02423">
        <ele>82</ele>
        <time>2019-02-02T00:32:28.000Z</time>
      </trkpt>
      <trkpt lat="44.93664" lon="1.02456">
        <ele>82</ele>
        <time>2019-02-02T00:33:28.000Z</time>
      </trkpt>
      <trkpt lat="44.93681" lon="1.02537">
        <ele>81</ele>
        <time>2019-02-02T00:34:28.000Z</time>
      </trkpt>
      <trkpt lat="44.93686" lon="1.02567">
        <ele>79</ele>
        <time>2019-02-02T00:35:28.000Z</time>
      </trkpt>
      <trkpt lat="44.93693" lon="1.02607">
        <ele>81</ele>
        <time>2019-02-02T00:36:28.000Z</time>
      </trkpt>
      <trkpt lat="44.93702" lon="1.02641">
        <ele>84</ele>
        <time>2019-02-02T00:37:28.000Z</time>
      </trkpt>
      <trkpt lat="44.93708" lon="1.02663">
        <ele>85</ele>
        <time>2019-02-02T00:38:28.000Z</time>
      </trkpt>
      <trkpt lat="44.93714" lon="1.02682">
        <ele>87</ele>
        <time>2019-02-02T00:39:28.000Z</time>
      </trkpt>
      <trkpt lat="44.93718" lon="1.02695">
        <ele>88</ele>
        <time>2019-02-02T00:40:28.000Z</time>
      </trkpt>
      <trkpt lat="44.93715" lon="1.02659">
        <ele>83</ele>
        <time>2019-02-02T00:41:28.000Z</time>
      </trkpt>
      <trkpt lat="44.9369" lon="1.02643">
        <ele>85</ele>
        <time>2019-02-02T00:42:28.000Z</time>
      </trkpt>
      <trkpt lat="44.9371" lon="1.02677">
        <ele>87</ele>
        <time>2019-02-02T00:43:28.000Z</time>
      </trkpt>
      <trkpt lat="44.93705" lon="1.02666">
        <ele>86</ele>
        <time>2019-02-02T00:44:28.000Z</time>
      </trkpt>
      <trkpt lat="44.93713" lon="1.02688">
        <ele>88</ele>
        <time>2019-02-02T00:45:28.000Z</time>
      </trkpt>
      <trkpt lat="44.93762" lon="1.02789">
        <ele>92</ele>
        <time>2019-02-02T00:46:28.000Z</time>
      </trkpt>
      <trkpt lat="44.93824" lon="1.02872">
        <ele>92</ele>
        <time>2019-02-02T00:47:28.000Z</time>
      </trkpt>
      <trkpt lat="44.9389" lon="1.02922">
        <ele>93</ele>
        <time>2019-02-02T00:48:28.000Z</time>
      </trkpt>
      <trkpt lat="44.93964" lon="1.02972">
        <ele>98</ele>
        <time>2019-02-02T00:49:28.000Z</time>
      </trkpt>
      <trkpt lat="44.94061" lon="1.03027">
        <ele>90</ele>
        <time>2019-02-02T00:50:28.000Z</time>
      </trkpt>
      <trkpt lat="44.94125" lon="1.03109">
        <ele>89</ele>
        <time>2019-02-02T00:51:28.000Z</time>
      </trkpt>
      <trkpt lat="44.94195" lon="1.0318">
        <ele>89</ele>
        <time>2019-02-02T00:52:28.000Z</time>
      </trkpt>
      <trkpt lat="44.94257" lon="1.0333">
        <ele>98</ele>
        <time>2019-02-02T00:53:28.000Z</time>
      </trkpt>
      <trkpt lat="44.94296" lon="1.0352">
        <ele>102</ele>
        <time>2019-02-02T00:54:28.000Z</time>
      </trkpt>
      <trkpt lat="44.94325" lon="1.03693">
        <ele>93</ele>
        <time>2019-02-02T00:55:28.000Z</time>
      </trkpt>
      <trkpt lat="44.94352" lon="1.03847">
        <ele>96</ele>
        <time>2019-02-02T00:56:28.000Z</time>
      </trkpt>
      <trkpt lat="44.94398" lon="1.03986">
        <ele>95</ele>
        <time>2019-02-02T00:57:28.000Z</time>
      </trkpt>
      <trkpt lat="44.94428" lon="1.04158">
        <ele>95</ele>
        <time>2019-02-02T00:58:28.000Z</time>
      </trkpt>
      <trkpt lat="44.94417" lon="1.04213">
        <ele>94</ele>
        <time>2019-02-02T00:59:28.000Z</time>
      </trkpt>
      <trkpt lat="44.94374" lon="1.04196">
        <ele>107</ele>
        <time>2019-02-02T01:00:28.000Z</time>
      </trkpt>
      <trkpt lat="44.94356" lon="1.04203">
        <ele>111</ele>
        <time>2019-02-02T01:01:28.000Z</time>
      </trkpt>
      <trkpt lat="44.94361" lon="1.04187">
        <ele>112</ele>
        <time>2019-02-02T01:02:28.000Z</time>
      </trkpt>
      <trkpt lat="44.94357" lon="1.042">
        <ele>111</ele>
        <time>2019-02-02T01:03:28.000Z</time>
      </trkpt>
      <trkpt lat="44.94358" lon="1.04213">
        <ele>109</ele>
        <time>2019-02-02T01:04:28.000Z</time>
      </trkpt>
      <trkpt lat="44.94357" lon="1.04196">
        <ele>112</ele>
        <time>2019-02-02T01:05:28.000Z</time>
      </trkpt>
      <trkpt lat="44.94357" lon="1.04226">
        <ele>107</ele>
        <time>2019-02-02T01:06:28.000Z</time>
      </trkpt>
      <trkpt lat="44.94362" lon="1.04239">
        <ele>104</ele>
        <time>2019-02-02T01:07:28.000Z</time>
      </trkpt>
      <trkpt lat="44.94368" lon="1.04264">
        <ele>103</ele>
        <time>2019-02-02T01:08:28.000Z</time>
      </trkpt>
      <trkpt lat="44.94357" lon="1.04229">
        <ele>107</ele>
        <time>2019-02-02T01:09:28.000Z</time>
      </trkpt>
      <trkpt lat="44.94354" lon="1.04213">
        <ele>110</ele>
        <time>2019-02-02T01:10:28.000Z</time>
      </trkpt>
      <trkpt lat="44.94359" lon="1.04179">
        <ele>114</ele>
        <time>2019-02-02T01:11:28.000Z</time>
      </trkpt>
      <trkpt lat="44.94373" lon="1.04239">
        <ele>102</ele>
        <time>2019-02-02T01:12:28.000Z</time>
      </trkpt>
      <trkpt lat="44.94322" lon="1.0408">
        <ele>132</ele>
        <time>2019-02-02T01:13:28.000Z</time>
      </trkpt>
      <trkpt lat="44.9433" lon="1.04121">
        <ele>128</ele>
        <time>2019-02-02T01:14:28.000Z</time>
      </trkpt>
      <trkpt lat="44.94338" lon="1.04149">
        <ele>124</ele>
        <time>2019-02-02T01:15:28.000Z</time>
      </trkpt>
      <trkpt lat="44.94342" lon="1.04163">
        <ele>121</ele>
        <time>2019-02-02T01:16:28.000Z</time>
      </trkpt>
      <trkpt lat="44.94343" lon="1.04176">
        <ele>119</ele>
        <time>2019-02-02T01:17:28.000Z</time>
      </trkpt>
      <trkpt lat="44.94358" lon="1.04233">
        <ele>106</ele>
        <time>2019-02-02T01:18:28.000Z</time>
      </trkpt>
      <trkpt lat="44.94363" lon="1.04255">
        <ele>103</ele>
        <time>2019-02-02T01:19:28.000Z</time>
      </trkpt>
      <trkpt lat="44.94368" lon="1.04243">
        <ele>102</ele>
        <time>2019-02-02T01:20:28.000Z</time>
      </trkpt>
      <trkpt lat="44.94359" lon="1.04221">
        <ele>107</ele>
        <time>2019-02-02T01:21:28.000Z</time>
      </trkpt>
      <trkpt lat="44.94366" lon="1.0424">
        <ele>103</ele>
        <time>2019-02-02T01:22:28.000Z</time>
      </trkpt>
      <trkpt lat="44.94361" lon="1.04219">
        <ele>107</ele>
        <time>2019-02-02T01:23:28.000Z</time>
      </trkpt>
      <trkpt lat="44.94373" lon="1.04195">
        <ele>107</ele>
        <time>2019-02-02T01:24:28.000Z</time>
      </trkpt>
      <trkpt lat="44.94374" lon="1.04214">
        <ele>105</ele>
        <time>2019-02-02T01:25:28.000Z</time>
      </trkpt>
      <trkpt lat="44.94401" lon="1.04249">
        <ele>95</ele>
        <time>2019-02-02T01:26:28.000Z</time>
      </trkpt>
      <trkpt lat="44.94443" lon="1.04203">
        <ele>91</ele>
        <time>2019-02-02T01:27:28.000Z</time>
      </trkpt>
      <trkpt lat="44.94435" lon="1.04121">
        <ele>93</ele>
        <time>2019-02-02T01:28:28.000Z</time>
      </trkpt>
      <trkpt lat="44.94408" lon="1.04018">
        <ele>93</ele>
        <time>2019-02-02T01:29:28.000Z</time>
      </trkpt>
      <trkpt lat="44.94354" lon="1.03774">
        <ele>90</ele>
        <time>2019-02-02T01:30:28.000Z</time>
      </trkpt>
      <trkpt lat="44.94325" lon="1.03635">
        <ele>91</ele>
        <time>2019-02-02T01:31:28.000Z</time>
      </trkpt>
      <trkpt lat="44.94301" lon="1.03505">
        <ele>99</ele>
        <time>2019-02-02T01:32:28.000Z</time>
      </trkpt>
      <trkpt lat="44.94276" lon="1.03382">
        <ele>99</ele>
        <time>2019-02-02T01:33:28.000Z</time>
      </trkpt>
      <trkpt lat="44.94247" lon="1.03269">
        <ele>89</ele>
        <time>2019-02-02T01:34:28.000Z</time>
      </trkpt>
      <trkpt lat="44.94186" lon="1.03167">
        <ele>88</ele>
        <time>2019-02-02T01:35:28.000Z</time>
      </trkpt>
      <trkpt lat="44.94112" lon="1.03075">
        <ele>87</ele>
        <time>2019-02-02T01:36:28.000Z</time>
      </trkpt>
      <trkpt lat="44.94045" lon="1.02995">
        <ele>88</ele>
        <time>2019-02-02T01:37:28.000Z</time>
      </trkpt>
      <trkpt lat="44.93938" lon="1.02937">
        <ele>92</ele>
        <time>2019-02-02T01:38:28.000Z</time>
      </trkpt>
      <trkpt lat="44.9383" lon="1.02866">
        <ele>89</ele>
        <time>2019-02-02T01:39:28.000Z</time>
      </trkpt>
      <trkpt lat="44.93746" lon="1.02745">
        <ele>86</ele>
        <time>2019-02-02T01:40:28.000Z</time>
      </trkpt>
      <trkpt lat="44.93721" lon="1.02634">
        <ele>81</ele>
        <time>2019-02-02T01:41:28.000Z</time>
      </trkpt>
      <trkpt lat="44.93708" lon="1.02653">
        <ele>84</ele>
        <time>2019-02-02T01:42:28.000Z</time>
      </trkpt>
      <trkpt lat="44.93724" lon="1.02654">
        <ele>82</ele>
        <time>2019-02-02T01:43:28.000Z</time>
      </trkpt>
      <trkpt lat="44.93703" lon="1.02675">
        <ele>88</ele>
        <time>2019-02-02T01:44:28.000Z</time>
      </trkpt>
      <trkpt lat="44.93687" lon="1.02686">
        <ele>93</ele>
        <time>2019-02-02T01:45:28.000Z</time>
      </trkpt>
      <trkpt lat="44.93693" lon="1.02671">
        <ele>89</ele>
        <time>2019-02-02T01:46:28.000Z</time>
      </trkpt>
      <trkpt lat="44.93708" lon="1.02664">
        <ele>85</ele>
        <time>2019-02-02T01:47:28.000Z</time>
      </trkpt>
      <trkpt lat="44.93679" lon="1.02684">
        <ele>94</ele>
        <time>2019-02-02T01:48:28.000Z</time>
      </trkpt>
      <trkpt lat="44.93665" lon="1.02666">
        <ele>92</ele>
        <time>2019-02-02T01:49:28.000Z</time>
      </trkpt>
      <trkpt lat="44.93653" lon="1.02672">
        <ele>93</ele>
        <time>2019-02-02T01:50:28.000Z</time>
      </trkpt>
      <trkpt lat="44.9364" lon="1.02695">
        <ele>98</ele>
        <time>2019-02-02T01:51:28.000Z</time>
      </trkpt>
      <trkpt lat="44.93621" lon="1.02712">
        <ele>101</ele>
        <time>2019-02-02T01:52:28.000Z</time>
      </trkpt>
      <trkpt lat="44.93611" lon="1.02712">
        <ele>100</ele>
        <time>2019-02-02T01:53:28.000Z</time>
      </trkpt>
      <trkpt lat="44.93604" lon="1.02749">
        <ele>110</ele>
        <time>2019-02-02T01:54:28.000Z</time>
      </trkpt>
      <trkpt lat="44.93592" lon="1.02754">
        <ele>110</ele>
        <time>2019-02-02T01:55:28.000Z</time>
      </trkpt>
      <trkpt lat="44.93575" lon="1.0278">
        <ele>114</ele>
        <time>2019-02-02T01:56:28.000Z</time>
      </trkpt>
      <trkpt lat="44.93571" lon="1.02799">
        <ele>117</ele>
        <time>2019-02-02T01:57:28.000Z</time>
      </trkpt>
      <trkpt lat="44.93554" lon="1.02817">
        <ele>115</ele>
        <time>2019-02-02T01:58:28.000Z</time>
      </trkpt>
      <trkpt lat="44.93532" lon="1.02823">
        <ele>108</ele>
        <time>2019-02-02T01:59:28.000Z</time>
      </trkpt>
      <trkpt lat="44.9354" lon="1.02861">
        <ele>119</ele>
        <time>2019-02-02T02:00:28.000Z</time>
      </trkpt>
      <trkpt lat="44.93519" lon="1.02867">
        <ele>113</ele>
        <time>2019-02-02T02:01:28.000Z</time>
      </trkpt>
      <trkpt lat="44.9353" lon="1.0287">
        <ele>118</ele>
        <time>2019-02-02T02:02:28.000Z</time>
      </trkpt>
      <trkpt lat="44.93514" lon="1.02872">
        <ele>113</ele>
        <time>2019-02-02T02:03:28.000Z</time>
      </trkpt>
      <trkpt lat="44.93512" lon="1.02856">
        <ele>108</ele>
        <time>2019-02-02T02:04:28.000Z</time>
      </trkpt>
      <trkpt lat="44.93521" lon="1.02892">
        <ele>121</ele>
        <time>2019-02-02T02:05:28.000Z</time>
      </trkpt>
      <trkpt lat="44.93516" lon="1.02864">
        <ele>112</ele>
        <time>2019-02-02T02:06:28.000Z</time>
      </trkpt>
      <trkpt lat="44.93546" lon="1.02848">
        <ele>119</ele>
        <time>2019-02-02T02:07:28.000Z</time>
      </trkpt>
      <trkpt lat="44.93557" lon="1.02843">
        <ele>122</ele>
        <time>2019-02-02T02:08:28.000Z</time>
      </trkpt>
      <trkpt lat="44.93558" lon="1.02823">
        <ele>118</ele>
        <time>2019-02-02T02:09:28.000Z</time>
      </trkpt>
      <trkpt lat="44.93572" lon="1.02805">
        <ele>119</ele>
        <time>2019-02-02T02:10:28.000Z</time>
      </trkpt>
      <trkpt lat="44.93584" lon="1.0278">
        <ele>116</ele>
        <time>2019-02-02T02:11:28.000Z</time>
      </trkpt>
      <trkpt lat="44.93605" lon="1.02746">
        <ele>109</ele>
        <time>2019-02-02T02:12:28.000Z</time>
      </trkpt>
      <trkpt lat="44.93622" lon="1.0274">
        <ele>109</ele>
        <time>2019-02-02T02:13:28.000Z</time>
      </trkpt>
      <trkpt lat="44.93634" lon="1.0271">
        <ele>102</ele>
        <time>2019-02-02T02:14:28.000Z</time>
      </trkpt>
      <trkpt lat="44.93665" lon="1.02688">
        <ele>98</ele>
        <time>2019-02-02T02:15:28.000Z</time>
      </trkpt>
      <trkpt lat="44.9369" lon="1.02677">
        <ele>90</ele>
        <time>2019-02-02T02:16:28.000Z</time>
      </trkpt>
      <trkpt lat="44.93699" lon="1.02673">
        <ele>88</ele>
        <time>2019-02-02T02:17:28.000Z</time>
      </trkpt>
      <trkpt lat="44.93705" lon="1.02656">
        <ele>85</ele>
        <time>2019-02-02T02:18:28.000Z</time>
      </trkpt>
      <trkpt lat="44.93705" lon="1.02642">
        <ele>83</ele>
        <time>2019-02-02T02:19:28.000Z</time>
      </trkpt>
      <trkpt lat="44.93707" lon="1.02629">
        <ele>82</ele>
        <time>2019-02-02T02:20:28.000Z</time>
      </trkpt>
      <trkpt lat="44.93703" lon="1.02609">
        <ele>81</ele>
        <time>2019-02-02T02:21:28.000Z</time>
      </trkpt>
      <trkpt lat="44.93698" lon="1.02586">
        <ele>79</ele>
        <time>2019-02-02T02:22:28.000Z</time>
      </trkpt>
      <trkpt lat="44.93692" lon="1.02563">
        <ele>80</ele>
        <time>2019-02-02T02:23:28.000Z</time>
      </trkpt>
      <trkpt lat="44.9368" lon="1.02511">
        <ele>82</ele>
        <time>2019-02-02T02:24:28.000Z</time>
      </trkpt>
      <trkpt lat="44.93675" lon="1.02483">
        <ele>82</ele>
        <time>2019-02-02T02:25:28.000Z</time>
      </trkpt>
      <trkpt lat="44.93671" lon="1.0246">
        <ele>82</ele>
        <time>2019-02-02T02:26:28.000Z</time>
      </trkpt>
      <trkpt lat="44.93657" lon="1.02376">
        <ele>79</ele>
        <time>2019-02-02T02:27:28.000Z</time>
      </trkpt>
      <trkpt lat="44.93654" lon="1.02353">
        <ele>78</ele>
        <time>2019-02-02T02:28:28.000Z</time>
      </trkpt>
      <trkpt lat="44.93648" lon="1.02326">
        <ele>77</ele>
        <time>2019-02-02T02:29:28.000Z</time>
      </trkpt>
      <trkpt lat="44.93644" lon="1.02304">
        <ele>76</ele>
        <time>2019-02-02T02:30:28.000Z</time>
      </trkpt>
      <trkpt lat="44.9364" lon="1.02288">
        <ele>76</ele>
        <time>2019-02-02T02:31:28.000Z</time>
      </trkpt>
      <trkpt lat="44.93636" lon="1.02264">
        <ele>74</ele>
        <time>2019-02-02T02:32:28.000Z</time>
      </trkpt>
      <trkpt lat="44.93631" lon="1.02245">
        <ele>74</ele>
        <time>2019-02-02T02:33:28.000Z</time>
      </trkpt>
      <trkpt lat="44.93628" lon="1.02224">
        <ele>74</ele>
        <time>2019-02-02T02:34:28.000Z</time>
      </trkpt>
      <trkpt lat="44.93624" lon="1.02204">
        <ele>73</ele>
        <time>2019-02-02T02:35:28.000Z</time>
      </trkpt>
      <trkpt lat="44.93617" lon="1.02177">
        <ele>73</ele>
        <time>2019-02-02T02:36:28.000Z</time>
      </trkpt>
      <trkpt lat="44.93614" lon="1.02154">
        <ele>73</ele>
        <time>2019-02-02T02:37:28.000Z</time>
      </trkpt>
      <trkpt lat="44.93612" lon="1.02124">
        <ele>73</ele>
        <time>2019-02-02T02:38:28.000Z</time>
      </trkpt>
      <trkpt lat="44.93626" lon="1.02107">
        <ele>73</ele>
        <time>2019-02-02T02:39:28.000Z</time>
      </trkpt>
      <trkpt lat="44.9364" lon="1.02109">
        <ele>73</ele>
        <time>2019-02-02T02:40:28.000Z</time>
      </trkpt>
      <trkpt lat="44.93652" lon="1.02102">
        <ele>74</ele>
        <time>2019-02-02T02:41:28.000Z</time>
      </trkpt>
      <trkpt lat="44.93663" lon="1.02098">
        <ele>74</ele>
        <time>2019-02-02T02:42:28.000Z</time>
      </trkpt>
      <trkpt lat="44.93675" lon="1.02094">
        <ele>76</ele>
        <time>2019-02-02T02:43:28.000Z</time>
      </trkpt>
      <trkpt lat="44.93666" lon="1.02089">
        <ele>74</ele>
        <time>2019-02-02T02:44:28.000Z</time>
      </trkpt>
      <trkpt lat="44.93657" lon="1.02094">
        <ele>74</ele>
        <time>2019-02-02T02:45:28.000Z</time>
      </trkpt>
      <trkpt lat="44.93647" lon="1.02096">
        <ele>73</ele>
        <time>2019-02-02T02:46:28.000Z</time>
      </trkpt>
      <trkpt lat="44.93637" lon="1.02095">
        <ele>73</ele>
        <time>2019-02-02T02:47:28.000Z</time>
      </trkpt>
      <trkpt lat="44.93629" lon="1.02087">
        <ele>73</ele>
        <time>2019-02-02T02:48:28.000Z</time>
      </trkpt>
      <trkpt lat="44.93614" lon="1.0207">
        <ele>73</ele>
        <time>2019-02-02T02:49:28.000Z</time>
      </trkpt>
      <trkpt lat="44.93602" lon="1.02046">
        <ele>73</ele>
        <time>2019-02-02T02:50:28.000Z</time>
      </trkpt>
      <trkpt lat="44.9359" lon="1.02013">
        <ele>72</ele>
        <time>2019-02-02T02:51:28.000Z</time>
      </trkpt>
      <trkpt lat="44.93579" lon="1.01984">
        <ele>71</ele>
        <time>2019-02-02T02:52:28.000Z</time>
      </trkpt>
      <trkpt lat="44.93569" lon="1.01956">
        <ele>71</ele>
        <time>2019-02-02T02:53:28.000Z</time>
      </trkpt>
      <trkpt lat="44.93557" lon="1.01926">
        <ele>71</ele>
        <time>2019-02-02T02:54:28.000Z</time>
      </trkpt>
      <trkpt lat="44.93534" lon="1.0186">
        <ele>71</ele>
        <time>2019-02-02T02:55:28.000Z</time>
      </trkpt>
      <trkpt lat="44.93521" lon="1.0183">
        <ele>71</ele>
        <time>2019-02-02T02:56:28.000Z</time>
      </trkpt>
      <trkpt lat="44.93509" lon="1.01799">
        <ele>71</ele>
        <time>2019-02-02T02:57:28.000Z</time>
      </trkpt>
      <trkpt lat="44.9348" lon="1.0172">
        <ele>73</ele>
        <time>2019-02-02T02:58:28.000Z</time>
      </trkpt>
      <trkpt lat="44.93474" lon="1.01686">
        <ele>73</ele>
        <time>2019-02-02T02:59:28.000Z</time>
      </trkpt>
      <trkpt lat="44.93466" lon="1.01652">
        <ele>73</ele>
        <time>2019-02-02T03:00:28.000Z</time>
      </trkpt>
      <trkpt lat="44.93461" lon="1.01604">
        <ele>72</ele>
        <time>2019-02-02T03:01:28.000Z</time>
      </trkpt>
      <trkpt lat="44.93465" lon="1.0156">
        <ele>70</ele>
        <time>2019-02-02T03:02:28.000Z</time>
      </trkpt>
      <trkpt lat="44.93472" lon="1.01524">
        <ele>69</ele>
        <time>2019-02-02T03:03:28.000Z</time>
      </trkpt>
      <trkpt lat="44.93478" lon="1.0149">
        <ele>67</ele>
        <time>2019-02-02T03:04:28.000Z</time>
      </trkpt>
      <trkpt lat="44.9349" lon="1.01448">
        <ele>67</ele>
        <time>2019-02-02T03:05:28.000Z</time>
      </trkpt>
      <trkpt lat="44.93507" lon="1.01416">
        <ele>67</ele>
        <time>2019-02-02T03:06:28.000Z</time>
      </trkpt>
      <trkpt lat="44.93529" lon="1.01391">
        <ele>68</ele>
        <time>2019-02-02T03:07:28.000Z</time>
      </trkpt>
      <trkpt lat="44.93551" lon="1.01368">
        <ele>69</ele>
        <time>2019-02-02T03:08:28.000Z</time>
      </trkpt>
      <trkpt lat="44.93573" lon="1.01348">
        <ele>70</ele>
        <time>2019-02-02T03:09:28.000Z</time>
      </trkpt>
      <trkpt lat="44.93595" lon="1.01333">
        <ele>73</ele>
        <time>2019-02-02T03:10:28.000Z</time>
      </trkpt>
      <trkpt lat="44.93621" lon="1.013">
        <ele>75</ele>
        <time>2019-02-02T03:11:28.000Z</time>
      </trkpt>
      <trkpt lat="44.93612" lon="1.01284">
        <ele>71</ele>
        <time>2019-02-02T03:12:28.000Z</time>
      </trkpt>
      <trkpt lat="44.93612" lon="1.01271">
        <ele>69</ele>
        <time>2019-02-02T03:13:28.000Z</time>
      </trkpt>
      <trkpt lat="44.93609" lon="1.01251">
        <ele>66</ele>
        <time>2019-02-02T03:14:28.000Z</time>
      </trkpt>
      <trkpt lat="44.936" lon="1.01236">
        <ele>64</ele>
        <time>2019-02-02T03:15:28.000Z</time>
      </trkpt>
      <trkpt lat="44.93593" lon="1.01226">
        <ele>63</ele>
        <time>2019-02-02T03:16:28.000Z</time>
      </trkpt>
      <trkpt lat="44.93584" lon="1.0122">
        <ele>62</ele>
        <time>2019-02-02T03:17:28.000Z</time>
      </trkpt>
      <trkpt lat="44.93575" lon="1.01225">
        <ele>62</ele>
        <time>2019-02-02T03:18:28.000Z</time>
      </trkpt>
      <trkpt lat="44.93566" lon="1.01225">
        <ele>62</ele>
        <time>2019-02-02T03:19:28.000Z</time>
      </trkpt>
      <trkpt lat="44.93575" lon="1.01222">
        <ele>62</ele>
        <time>2019-02-02T03:20:28.000Z</time>
      </trkpt>
      <trkpt lat="44.93581" lon="1.01233">
        <ele>62</ele>
        <time>2019-02-02T03:21:28.000Z</time>
      </trkpt>
      <trkpt lat="44.93595" lon="1.01232">
        <ele>63</ele>
        <time>2019-02-02T03:22:28.000Z</time>
      </trkpt>
      <trkpt lat="44.93573" lon="1.01261">
        <ele>63</ele>
        <time>2019-02-02T03:23:28.000Z</time>
      </trkpt>
      <trkpt lat="44.9356" lon="1.01301">
        <ele>66</ele>
        <time>2019-02-02T03:24:28.000Z</time>
      </trkpt>
      <trkpt lat="44.93582" lon="1.01302">
        <ele>67</ele>
        <time>2019-02-02T03:25:28.000Z</time>
      </trkpt>
      <trkpt lat="44.93574" lon="1.01348">
        <ele>70</ele>
        <time>2019-02-02T03:26:28.000Z</time>
      </trkpt>
      <trkpt lat="44.93545" lon="1.01366">
        <ele>69</ele>
        <time>2019-02-02T03:27:28.000Z</time>
      </trkpt>
      <trkpt lat="44.93526" lon="1.01417">
        <ele>69</ele>
        <time>2019-02-02T03:28:28.000Z</time>
      </trkpt>
      <trkpt lat="44.93506" lon="1.01455">
        <ele>67</ele>
        <time>2019-02-02T03:29:28.000Z</time>
      </trkpt>
      <trkpt lat="44.93483" lon="1.01508">
        <ele>68</ele>
        <time>2019-02-02T03:30:28.000Z</time>
      </trkpt>
      <trkpt lat="44.93464" lon="1.01568">
        <ele>71</ele>
        <time>2019-02-02T03:31:28.000Z</time>
      </trkpt>
      <trkpt lat="44.93432" lon="1.01559">
        <ele>73</ele>
        <time>2019-02-02T03:32:28.000Z</time>
      </trkpt>
      <trkpt lat="44.93396" lon="1.01522">
        <ele>71</ele>
        <time>2019-02-02T03:33:28.000Z</time>
      </trkpt>
      <trkpt lat="44.93359" lon="1.0152">
        <ele>71</ele>
        <time>2019-02-02T03:34:28.000Z</time>
      </trkpt>
      <trkpt lat="44.93356" lon="1.01508">
        <ele>70</ele>
        <time>2019-02-02T03:35:28.000Z</time>
      </trkpt>
      <trkpt lat="44.93346" lon="1.015">
        <ele>69</ele>
        <time>2019-02-02T03:36:28.000Z</time>
      </trkpt>
      <trkpt lat="44.9332" lon="1.01487">
        <ele>70</ele>
        <time>2019-02-02T03:37:28.000Z</time>
      </trkpt>
      <trkpt lat="44.93329" lon="1.0149">
        <ele>69</ele>
        <time>2019-02-02T03:38:28.000Z</time>
      </trkpt>
      <trkpt lat="44.93342" lon="1.01501">
        <ele>69</ele>
        <time>2019-02-02T03:39:28.000Z</time>
      </trkpt>
      <trkpt lat="44.93332" lon="1.01509">
        <ele>70</ele>
        <time>2019-02-02T03:40:28.000Z</time>
      </trkpt>
      <trkpt lat="44.93352" lon="1.01509">
        <ele>70</ele>
        <time>2019-02-02T03:41:28.000Z</time>
      </trkpt>
      <trkpt lat="44.93397" lon="1.01533">
        <ele>72</ele>
        <time>2019-02-02T03:42:28.000Z</time>
      </trkpt>
      <trkpt lat="44.93428" lon="1.01576">
        <ele>74</ele>
        <time>2019-02-02T03:43:28.000Z</time>
      </trkpt>
      <trkpt lat="44.93462" lon="1.01664">
        <ele>74</ele>
        <time>2019-02-02T03:44:28.000Z</time>
      </trkpt>
      <trkpt lat="44.93477" lon="1.01726">
        <ele>74</ele>
        <time>2019-02-02T03:45:28.000Z</time>
      </trkpt>
      <trkpt lat="44.93504" lon="1.01809">
        <ele>71</ele>
        <time>2019-02-02T03:46:28.000Z</time>
      </trkpt>
      <trkpt lat="44.93525" lon="1.01824">
        <ele>71</ele>
        <time>2019-02-02T03:47:28.000Z</time>
      </trkpt>
      <trkpt lat="44.93564" lon="1.01816">
        <ele>71</ele>
        <time>2019-02-02T03:48:28.000Z</time>
      </trkpt>
      <trkpt lat="44.93602" lon="1.01817">
        <ele>77</ele>
        <time>2019-02-02T03:49:28.000Z</time>
      </trkpt>
      <trkpt lat="44.93595" lon="1.01803">
        <ele>75</ele>
        <time>2019-02-02T03:50:28.000Z</time>
      </trkpt>
      <trkpt lat="44.93593" lon="1.01832">
        <ele>74</ele>
        <time>2019-02-02T03:51:28.000Z</time>
      </trkpt>
      <trkpt lat="44.93588" lon="1.01815">
        <ele>73</ele>
        <time>2019-02-02T03:52:28.000Z</time>
      </trkpt>
      <trkpt lat="44.93542" lon="1.01819">
        <ele>71</ele>
        <time>2019-02-02T03:53:28.000Z</time>
      </trkpt>
      <trkpt lat="44.9352" lon="1.01842">
        <ele>71</ele>
        <time>2019-02-02T03:54:28.000Z</time>
      </trkpt>
      <trkpt lat="44.93599" lon="1.02058">
        <ele>72</ele>
        <time>2019-02-02T03:55:28.000Z</time>
      </trkpt>
      <trkpt lat="44.93619" lon="1.02153">
        <ele>73</ele>
        <time>2019-02-02T03:56:28.000Z</time>
      </trkpt>
      <trkpt lat="44.93628" lon="1.0222">
        <ele>74</ele>
        <time>2019-02-02T03:57:28.000Z</time>
      </trkpt>
      <trkpt lat="44.9364" lon="1.0231">
        <ele>77</ele>
        <time>2019-02-02T03:58:28.000Z</time>
      </trkpt>
      <trkpt lat="44.93662" lon="1.024">
        <ele>80</ele>
        <time>2019-02-02T03:59:28.000Z</time>
      </trkpt>
      <trkpt lat="44.93673" lon="1.02487">
        <ele>82</ele>
        <time>2019-02-02T04:00:28.000Z</time>
      </trkpt>
      <trkpt lat="44.93699" lon="1.02576">
        <ele>79</ele>
        <time>2019-02-02T04:01:28.000Z</time>
      </trkpt>
      <trkpt lat="44.93719" lon="1.02686">
        <ele>86</ele>
        <time>2019-02-02T04:02:28.000Z</time>
      </trkpt>
      <trkpt lat="44.93749" lon="1.02747">
        <ele>85</ele>
        <time>2019-02-02T04:03:28.000Z</time>
      </trkpt>
      <trkpt lat="44.9379" lon="1.02817">
        <ele>91</ele>
        <time>2019-02-02T04:04:28.000Z</time>
      </trkpt>
      <trkpt lat="44.93823" lon="1.02876">
        <ele>94</ele>
        <time>2019-02-02T04:05:28.000Z</time>
      </trkpt>
      <trkpt lat="44.93866" lon="1.0291">
        <ele>94</ele>
        <time>2019-02-02T04:06:28.000Z</time>
      </trkpt>
      <trkpt lat="44.9392" lon="1.02943">
        <ele>95</ele>
        <time>2019-02-02T04:07:28.000Z</time>
      </trkpt>
      <trkpt lat="44.9397" lon="1.02968">
        <ele>96</ele>
        <time>2019-02-02T04:08:28.000Z</time>
      </trkpt>
      <trkpt lat="44.9403" lon="1.02995">
        <ele>91</ele>
        <time>2019-02-02T04:09:28.000Z</time>
      </trkpt>
      <trkpt lat="44.94079" lon="1.03047">
        <ele>88</ele>
        <time>2019-02-02T04:10:28.000Z</time>
      </trkpt>
      <trkpt lat="44.9414" lon="1.03111">
        <ele>87</ele>
        <time>2019-02-02T04:11:28.000Z</time>
      </trkpt>
      <trkpt lat="44.94205" lon="1.03206">
        <ele>91</ele>
        <time>2019-02-02T04:12:28.000Z</time>
      </trkpt>
      <trkpt lat="44.94244" lon="1.03301">
        <ele>96</ele>
        <time>2019-02-02T04:13:28.000Z</time>
      </trkpt>
      <trkpt lat="44.94274" lon="1.03422">
        <ele>104</ele>
        <time>2019-02-02T04:14:28.000Z</time>
      </trkpt>
      <trkpt lat="44.94305" lon="1.03558">
        <ele>100</ele>
        <time>2019-02-02T04:15:28.000Z</time>
      </trkpt>
      <trkpt lat="44.94329" lon="1.03702">
        <ele>91</ele>
        <time>2019-02-02T04:16:28.000Z</time>
      </trkpt>
      <trkpt lat="44.94355" lon="1.03837">
        <ele>94</ele>
        <time>2019-02-02T04:17:28.000Z</time>
      </trkpt>
      <trkpt lat="44.94396" lon="1.03971">
        <ele>95</ele>
        <time>2019-02-02T04:18:28.000Z</time>
      </trkpt>
      <trkpt lat="44.94482" lon="1.04295">
        <ele>90</ele>
        <time>2019-02-02T04:19:28.000Z</time>
      </trkpt>
      <trkpt lat="44.94539" lon="1.04398">
        <ele>92</ele>
        <time>2019-02-02T04:20:28.000Z</time>
      </trkpt>
      <trkpt lat="44.94595" lon="1.04482">
        <ele>89</ele>
        <time>2019-02-02T04:21:28.000Z</time>
      </trkpt>
      <trkpt lat="44.94596" lon="1.04607">
        <ele>98</ele>
        <time>2019-02-02T04:22:28.000Z</time>
      </trkpt>
      <trkpt lat="44.94572" lon="1.04719">
        <ele>101</ele>
        <time>2019-02-02T04:23:28.000Z</time>
      </trkpt>
      <trkpt lat="44.94511" lon="1.04829">
        <ele>115</ele>
        <time>2019-02-02T04:24:28.000Z</time>
      </trkpt>
      <trkpt lat="44.94513" lon="1.04934">
        <ele>103</ele>
        <time>2019-02-02T04:25:28.000Z</time>
      </trkpt>
      <trkpt lat="44.94472" lon="1.05044">
        <ele>110</ele>
        <time>2019-02-02T04:26:28.000Z</time>
      </trkpt>
      <trkpt lat="44.94481" lon="1.05157">
        <ele>100</ele>
        <time>2019-02-02T04:27:28.000Z</time>
      </trkpt>
      <trkpt lat="44.94495" lon="1.05315">
        <ele>92</ele>
        <time>2019-02-02T04:28:28.000Z</time>
      </trkpt>
      <trkpt lat="44.94506" lon="1.05392">
        <ele>92</ele>
        <time>2019-02-02T04:29:28.000Z</time>
      </trkpt>
      <trkpt lat="44.94503" lon="1.05479">
        <ele>94</ele>
        <time>2019-02-02T04:30:28.000Z</time>
      </trkpt>
      <trkpt lat="44.9447" lon="1.05588">
        <ele>105</ele>
        <time>2019-02-02T04:31:28.000Z</time>
      </trkpt>
      <trkpt lat="44.94455" lon="1.05646">
        <ele>103</ele>
        <time>2019-02-02T04:32:28.000Z</time>
      </trkpt>
      <trkpt lat="44.945" lon="1.0575">
        <ele>88</ele>
        <time>2019-02-02T04:33:28.000Z</time>
      </trkpt>
      <trkpt lat="44.94538" lon="1.05841">
        <ele>94</ele>
        <time>2019-02-02T04:34:28.000Z</time>
      </trkpt>
      <trkpt lat="44.94584" lon="1.05939">
        <ele>103</ele>
        <time>2019-02-02T04:35:28.000Z</time>
      </trkpt>
      <trkpt lat="44.94549" lon="1.06066">
        <ele>120</ele>
        <time>2019-02-02T04:36:28.000Z</time>
      </trkpt>
      <trkpt lat="44.94554" lon="1.06204">
        <ele>107</ele>
        <time>2019-02-02T04:37:28.000Z</time>
      </trkpt>
      <trkpt lat="44.94549" lon="1.06324">
        <ele>105</ele>
        <time>2019-02-02T04:38:28.000Z</time>
      </trkpt>
      <trkpt lat="44.94552" lon="1.06468">
        <ele>105</ele>
        <time>2019-02-02T04:39:28.000Z</time>
      </trkpt>
      <trkpt lat="44.94549" lon="1.06588">
        <ele>107</ele>
        <time>2019-02-02T04:40:28.000Z</time>
      </trkpt>
      <trkpt lat="44.94544" lon="1.06703">
        <ele>108</ele>
        <time>2019-02-02T04:41:28.000Z</time>
      </trkpt>
      <trkpt lat="44.94552" lon="1.06798">
        <ele>105</ele>
        <time>2019-02-02T04:42:28.000Z</time>
      </trkpt>
      <trkpt lat="44.94567" lon="1.06885">
        <ele>103</ele>
        <time>2019-02-02T04:43:28.000Z</time>
      </trkpt>
      <trkpt lat="44.94578" lon="1.06961">
        <ele>101</ele>
        <time>2019-02-02T04:44:28.000Z</time>
      </trkpt>
      <trkpt lat="44.94526" lon="1.07054">
        <ele>120</ele>
        <time>2019-02-02T04:45:28.000Z</time>
      </trkpt>
      <trkpt lat="44.94523" lon="1.07181">
        <ele>116</ele>
        <time>2019-02-02T04:46:28.000Z</time>
      </trkpt>
      <trkpt lat="44.94522" lon="1.07292">
        <ele>108</ele>
        <time>2019-02-02T04:47:28.000Z</time>
      </trkpt>
      <trkpt lat="44.94516" lon="1.07386">
        <ele>105</ele>
        <time>2019-02-02T04:48:28.000Z</time>
      </trkpt>
      <trkpt lat="44.9452" lon="1.07483">
        <ele>101</ele>
        <time>2019-02-02T04:49:28.000Z</time>
      </trkpt>
      <trkpt lat="44.94503" lon="1.07557">
        <ele>102</ele>
        <time>2019-02-02T04:50:28.000Z</time>
      </trkpt>
      <trkpt lat="44.94464" lon="1.07622">
        <ele>107</ele>
        <time>2019-02-02T04:51:28.000Z</time>
      </trkpt>
      <trkpt lat="44.94461" lon="1.07754">
        <ele>104</ele>
        <time>2019-02-02T04:52:28.000Z</time>
      </trkpt>
      <trkpt lat="44.94465" lon="1.07873">
        <ele>107</ele>
        <time>2019-02-02T04:53:28.000Z</time>
      </trkpt>
      <trkpt lat="44.945" lon="1.07962">
        <ele>102</ele>
        <time>2019-02-02T04:54:28.000Z</time>
      </trkpt>
      <trkpt lat="44.94546" lon="1.08109">
        <ele>99</ele>
        <time>2019-02-02T04:55:28.000Z</time>
      </trkpt>
      <trkpt lat="44.94539" lon="1.08271">
        <ele>102</ele>
        <time>2019-02-02T04:56:28.000Z</time>
      </trkpt>
      <trkpt lat="44.94526" lon="1.08426">
        <ele>98</ele>
        <time>2019-02-02T04:57:28.000Z</time>
      </trkpt>
      <trkpt lat="44.94502" lon="1.08554">
        <ele>102</ele>
        <time>2019-02-02T04:58:28.000Z</time>
      </trkpt>
      <trkpt lat="44.94587" lon="1.08631">
        <ele>94</ele>
        <time>2019-02-02T04:59:28.000Z</time>
      </trkpt>
      <trkpt lat="44.94614" lon="1.08769">
        <ele>107</ele>
        <time>2019-02-02T05:00:28.000Z</time>
      </trkpt>
      <trkpt lat="44.94587" lon="1.08841">
        <ele>106</ele>
        <time>2019-02-02T05:01:28.000Z</time>
      </trkpt>
      <trkpt lat="44.94545" lon="1.08966">
        <ele>112</ele>
        <time>2019-02-02T05:02:28.000Z</time>
      </trkpt>
      <trkpt lat="44.94535" lon="1.09001">
        <ele>113</ele>
        <time>2019-02-02T05:03:28.000Z</time>
      </trkpt>
      <trkpt lat="44.94529" lon="1.09052">
        <ele>112</ele>
        <time>2019-02-02T05:04:28.000Z</time>
      </trkpt>
      <trkpt lat="44.94522" lon="1.09107">
        <ele>110</ele>
        <time>2019-02-02T05:05:28.000Z</time>
      </trkpt>
      <trkpt lat="44.94536" lon="1.09142">
        <ele>112</ele>
        <time>2019-02-02T05:06:28.000Z</time>
      </trkpt>
      <trkpt lat="44.94556" lon="1.09163">
        <ele>115</ele>
        <time>2019-02-02T05:07:28.000Z</time>
      </trkpt>
      <trkpt lat="44.94594" lon="1.09159">
        <ele>121</ele>
        <time>2019-02-02T05:08:28.000Z</time>
      </trkpt>
      <trkpt lat="44.94625" lon="1.09166">
        <ele>125</ele>
        <time>2019-02-02T05:09:28.000Z</time>
      </trkpt>
      <trkpt lat="44.94627" lon="1.0919">
        <ele>127</ele>
        <time>2019-02-02T05:10:28.000Z</time>
      </trkpt>
      <trkpt lat="44.94595" lon="1.09228">
        <ele>126</ele>
        <time>2019-02-02T05:11:28.000Z</time>
      </trkpt>
      <trkpt lat="44.94584" lon="1.09262">
        <ele>128</ele>
        <time>2019-02-02T05:12:28.000Z</time>
      </trkpt>
      <trkpt lat="44.94569" lon="1.093">
        <ele>128</ele>
        <time>2019-02-02T05:13:28.000Z</time>
      </trkpt>
      <trkpt lat="44.94554" lon="1.09323">
        <ele>126</ele>
        <time>2019-02-02T05:14:28.000Z</time>
      </trkpt>
      <trkpt lat="44.94558" lon="1.0937">
        <ele>127</ele>
        <time>2019-02-02T05:15:28.000Z</time>
      </trkpt>
      <trkpt lat="44.94568" lon="1.0942">
        <ele>130</ele>
        <time>2019-02-02T05:16:28.000Z</time>
      </trkpt>
      <trkpt lat="44.94563" lon="1.09462">
        <ele>125</ele>
        <time>2019-02-02T05:17:28.000Z</time>
      </trkpt>
      <trkpt lat="44.94581" lon="1.09512">
        <ele>128</ele>
        <time>2019-02-02T05:18:28.000Z</time>
      </trkpt>
      <trkpt lat="44.94634" lon="1.09595">
        <ele>132</ele>
        <time>2019-02-02T05:19:28.000Z</time>
      </trkpt>
      <trkpt lat="44.94614" lon="1.09733">
        <ele>135</ele>
        <time>2019-02-02T05:20:28.000Z</time>
      </trkpt>
      <trkpt lat="44.94603" lon="1.09733">
        <ele>132</ele>
        <time>2019-02-02T05:21:28.000Z</time>
      </trkpt>
      <trkpt lat="44.94595" lon="1.0968">
        <ele>127</ele>
        <time>2019-02-02T05:22:28.000Z</time>
      </trkpt>
      <trkpt lat="44.94601" lon="1.09649">
        <ele>128</ele>
        <time>2019-02-02T05:23:28.000Z</time>
      </trkpt>
      <trkpt lat="44.946" lon="1.09665">
        <ele>128</ele>
        <time>2019-02-02T05:24:28.000Z</time>
      </trkpt>
      <trkpt lat="44.94606" lon="1.09654">
        <ele>129</ele>
        <time>2019-02-02T05:25:28.000Z</time>
      </trkpt>
      <trkpt lat="44.94596" lon="1.09671">
        <ele>127</ele>
        <time>2019-02-02T05:26:28.000Z</time>
      </trkpt>
      <trkpt lat="44.94603" lon="1.09701">
        <ele>131</ele>
        <time>2019-02-02T05:27:28.000Z</time>
      </trkpt>
      <trkpt lat="44.94606" lon="1.09724">
        <ele>133</ele>
        <time>2019-02-02T05:28:28.000Z</time>
      </trkpt>
      <trkpt lat="44.9462" lon="1.09738">
        <ele>137</ele>
        <time>2019-02-02T05:29:28.000Z</time>
      </trkpt>
      <trkpt lat="44.94607" lon="1.09749">
        <ele>134</ele>
        <time>2019-02-02T05:30:28.000Z</time>
      </trkpt>
      <trkpt lat="44.94627" lon="1.09771">
        <ele>139</ele>
        <time>2019-02-02T05:31:28.000Z</time>
      </trkpt>
      <trkpt lat="44.94633" lon="1.09828">
        <ele>140</ele>
        <time>2019-02-02T05:32:28.000Z</time>
      </trkpt>
      <trkpt lat="44.94647" lon="1.09996">
        <ele>140</ele>
        <time>2019-02-02T05:33:28.000Z</time>
      </trkpt>
      <trkpt lat="44.94672" lon="1.10097">
        <ele>139</ele>
        <time>2019-02-02T05:34:28.000Z</time>
      </trkpt>
      <trkpt lat="44.9459" lon="1.10183">
        <ele>142</ele>
        <time>2019-02-02T05:35:28.000Z</time>
      </trkpt>
      <trkpt lat="44.94556" lon="1.10262">
        <ele>136</ele>
        <time>2019-02-02T05:36:28.000Z</time>
      </trkpt>
      <trkpt lat="44.94603" lon="1.10384">
        <ele>134</ele>
        <time>2019-02-02T05:37:28.000Z</time>
      </trkpt>
      <trkpt lat="44.94675" lon="1.1048">
        <ele>130</ele>
        <time>2019-02-02T05:38:28.000Z</time>
      </trkpt>
      <trkpt lat="44.94796" lon="1.10509">
        <ele>137</ele>
        <time>2019-02-02T05:39:28.000Z</time>
      </trkpt>
      <trkpt lat="44.94789" lon="1.10609">
        <ele>128</ele>
        <time>2019-02-02T05:40:28.000Z</time>
      </trkpt>
      <trkpt lat="44.948" lon="1.10727">
        <ele>125</ele>
        <time>2019-02-02T05:41:28.000Z</time>
      </trkpt>
      <trkpt lat="44.94842" lon="1.10825">
        <ele>128</ele>
        <time>2019-02-02T05:42:28.000Z</time>
      </trkpt>
      <trkpt lat="44.94868" lon="1.10934">
        <ele>126</ele>
        <time>2019-02-02T05:43:28.000Z</time>
      </trkpt>
      <trkpt lat="44.94916" lon="1.11017">
        <ele>125</ele>
        <time>2019-02-02T05:44:28.000Z</time>
      </trkpt>
      <trkpt lat="44.94983" lon="1.10997">
        <ele>128</ele>
        <time>2019-02-02T05:45:28.000Z</time>
      </trkpt>
      <trkpt lat="44.95072" lon="1.11062">
        <ele>120</ele>
        <time>2019-02-02T05:46:28.000Z</time>
      </trkpt>
      <trkpt lat="44.95154" lon="1.11124">
        <ele>127</ele>
        <time>2019-02-02T05:47:28.000Z</time>
      </trkpt>
      <trkpt lat="44.95217" lon="1.11196">
        <ele>130</ele>
        <time>2019-02-02T05:48:28.000Z</time>
      </trkpt>
      <trkpt lat="44.95234" lon="1.11392">
        <ele>118</ele>
        <time>2019-02-02T05:49:28.000Z</time>
      </trkpt>
      <trkpt lat="44.95236" lon="1.11526">
        <ele>109</ele>
        <time>2019-02-02T05:50:28.000Z</time>
      </trkpt>
      <trkpt lat="44.95208" lon="1.11535">
        <ele>106</ele>
        <time>2019-02-02T05:51:28.000Z</time>
      </trkpt>
      <trkpt lat="44.95194" lon="1.1154">
        <ele>105</ele>
        <time>2019-02-02T05:52:28.000Z</time>
      </trkpt>
      <trkpt lat="44.9519" lon="1.11562">
        <ele>104</ele>
        <time>2019-02-02T05:53:28.000Z</time>
      </trkpt>
      <trkpt lat="44.95195" lon="1.11588">
        <ele>104</ele>
        <time>2019-02-02T05:54:28.000Z</time>
      </trkpt>
      <trkpt lat="44.95198" lon="1.11613">
        <ele>106</ele>
        <time>2019-02-02T05:55:28.000Z</time>
      </trkpt>
      <trkpt lat="44.95195" lon="1.11631">
        <ele>107</ele>
        <time>2019-02-02T05:56:28.000Z</time>
      </trkpt>
      <trkpt lat="44.9519" lon="1.11647">
        <ele>107</ele>
        <time>2019-02-02T05:57:28.000Z</time>
      </trkpt>
      <trkpt lat="44.95184" lon="1.11665">
        <ele>108</ele>
        <time>2019-02-02T05:58:28.000Z</time>
      </trkpt>
      <trkpt lat="44.95181" lon="1.11682">
        <ele>109</ele>
        <time>2019-02-02T05:59:28.000Z</time>
      </trkpt>
      <trkpt lat="44.95179" lon="1.11696">
        <ele>109</ele>
        <time>2019-02-02T06:00:28.000Z</time>
      </trkpt>
      <trkpt lat="44.95178" lon="1.11714">
        <ele>110</ele>
        <time>2019-02-02T06:01:28.000Z</time>
      </trkpt>
      <trkpt lat="44.95178" lon="1.11732">
        <ele>111</ele>
        <time>2019-02-02T06:02:28.000Z</time>
      </trkpt>
      <trkpt lat="44.95178" lon="1.11745">
        <ele>112</ele>
        <time>2019-02-02T06:03:28.000Z</time>
      </trkpt>
      <trkpt lat="44.95182" lon="1.11777">
        <ele>114</ele>
        <time>2019-02-02T06:04:28.000Z</time>
      </trkpt>
      <trkpt lat="44.95184" lon="1.11795">
        <ele>114</ele>
        <time>2019-02-02T06:05:28.000Z</time>
      </trkpt>
      <trkpt lat="44.95187" lon="1.11809">
        <ele>115</ele>
        <time>2019-02-02T06:06:28.000Z</time>
      </trkpt>
      <trkpt lat="44.95192" lon="1.11827">
        <ele>116</ele>
        <time>2019-02-02T06:07:28.000Z</time>
      </trkpt>
      <trkpt lat="44.95198" lon="1.11842">
        <ele>117</ele>
        <time>2019-02-02T06:08:28.000Z</time>
      </trkpt>
      <trkpt lat="44.95208" lon="1.11859">
        <ele>118</ele>
        <time>2019-02-02T06:09:28.000Z</time>
      </trkpt>
      <trkpt lat="44.9522" lon="1.11879">
        <ele>118</ele>
        <time>2019-02-02T06:10:28.000Z</time>
      </trkpt>
      <trkpt lat="44.95236" lon="1.11896">
        <ele>119</ele>
        <time>2019-02-02T06:11:28.000Z</time>
      </trkpt>
      <trkpt lat="44.95259" lon="1.11915">
        <ele>121</ele>
        <time>2019-02-02T06:12:28.000Z</time>
      </trkpt>
      <trkpt lat="44.95311" lon="1.11973">
        <ele>121</ele>
        <time>2019-02-02T06:13:28.000Z</time>
      </trkpt>
      <trkpt lat="44.95335" lon="1.12004">
        <ele>120</ele>
        <time>2019-02-02T06:14:28.000Z</time>
      </trkpt>
      <trkpt lat="44.95359" lon="1.12028">
        <ele>122</ele>
        <time>2019-02-02T06:15:28.000Z</time>
      </trkpt>
      <trkpt lat="44.95389" lon="1.12049">
        <ele>123</ele>
        <time>2019-02-02T06:16:28.000Z</time>
      </trkpt>
      <trkpt lat="44.95418" lon="1.12068">
        <ele>124</ele>
        <time>2019-02-02T06:17:28.000Z</time>
      </trkpt>
      <trkpt lat="44.95443" lon="1.12082">
        <ele>125</ele>
        <time>2019-02-02T06:18:28.000Z</time>
      </trkpt>
      <trkpt lat="44.9547" lon="1.12096">
        <ele>128</ele>
        <time>2019-02-02T06:19:28.000Z</time>
      </trkpt>
      <trkpt lat="44.95501" lon="1.12116">
        <ele>128</ele>
        <time>2019-02-02T06:20:28.000Z</time>
      </trkpt>
      <trkpt lat="44.95538" lon="1.12138">
        <ele>130</ele>
        <time>2019-02-02T06:21:28.000Z</time>
      </trkpt>
      <trkpt lat="44.95569" lon="1.12162">
        <ele>130</ele>
        <time>2019-02-02T06:22:28.000Z</time>
      </trkpt>
      <trkpt lat="44.95591" lon="1.12181">
        <ele>130</ele>
        <time>2019-02-02T06:23:28.000Z</time>
      </trkpt>
      <trkpt lat="44.95608" lon="1.12211">
        <ele>128</ele>
        <time>2019-02-02T06:24:28.000Z</time>
      </trkpt>
      <trkpt lat="44.95633" lon="1.12247">
        <ele>125</ele>
        <time>2019-02-02T06:25:28.000Z</time>
      </trkpt>
      <trkpt lat="44.95652" lon="1.12277">
        <ele>125</ele>
        <time>2019-02-02T06:26:28.000Z</time>
      </trkpt>
      <trkpt lat="44.9567" lon="1.12312">
        <ele>122</ele>
        <time>2019-02-02T06:27:28.000Z</time>
      </trkpt>
      <trkpt lat="44.95707" lon="1.12393">
        <ele>122</ele>
        <time>2019-02-02T06:28:28.000Z</time>
      </trkpt>
      <trkpt lat="44.95725" lon="1.12436">
        <ele>122</ele>
        <time>2019-02-02T06:29:28.000Z</time>
      </trkpt>
      <trkpt lat="44.9574" lon="1.1247">
        <ele>120</ele>
        <time>2019-02-02T06:30:28.000Z</time>
      </trkpt>
      <trkpt lat="44.95751" lon="1.12505">
        <ele>117</ele>
        <time>2019-02-02T06:31:28.000Z</time>
      </trkpt>
      <trkpt lat="44.95764" lon="1.12535">
        <ele>119</ele>
        <time>2019-02-02T06:32:28.000Z</time>
      </trkpt>
      <trkpt lat="44.95782" lon="1.12568">
        <ele>120</ele>
        <time>2019-02-02T06:33:28.000Z</time>
      </trkpt>
      <trkpt lat="44.95798" lon="1.12601">
        <ele>121</ele>
        <time>2019-02-02T06:34:28.000Z</time>
      </trkpt>
      <trkpt lat="44.95819" lon="1.12662">
        <ele>121</ele>
        <time>2019-02-02T06:35:28.000Z</time>
      </trkpt>
      <trkpt lat="44.95826" lon="1.12691">
        <ele>121</ele>
        <time>2019-02-02T06:36:28.000Z</time>
      </trkpt>
      <trkpt lat="44.95833" lon="1.12719">
        <ele>121</ele>
        <time>2019-02-02T06:37:28.000Z</time>
      </trkpt>
      <trkpt lat="44.9584" lon="1.12754">
        <ele>121</ele>
        <time>2019-02-02T06:38:28.000Z</time>
      </trkpt>
      <trkpt lat="44.95853" lon="1.12784">
        <ele>122</ele>
        <time>2019-02-02T06:39:28.000Z</time>
      </trkpt>
      <trkpt lat="44.95862" lon="1.12819">
        <ele>122</ele>
        <time>2019-02-02T06:40:28.000Z</time>
      </trkpt>
      <trkpt lat="44.95874" lon="1.12844">
        <ele>124</ele>
        <time>2019-02-02T06:41:28.000Z</time>
      </trkpt>
      <trkpt lat="44.95885" lon="1.12877">
        <ele>125</ele>
        <time>2019-02-02T06:42:28.000Z</time>
      </trkpt>
      <trkpt lat="44.95897" lon="1.1291">
        <ele>126</ele>
        <time>2019-02-02T06:43:28.000Z</time>
      </trkpt>
      <trkpt lat="44.95906" lon="1.12939">
        <ele>126</ele>
        <time>2019-02-02T06:44:28.000Z</time>
      </trkpt>
      <trkpt lat="44.95915" lon="1.12967">
        <ele>125</ele>
        <time>2019-02-02T06:45:28.000Z</time>
      </trkpt>
      <trkpt lat="44.95925" lon="1.12992">
        <ele>127</ele>
        <time>2019-02-02T06:46:28.000Z</time>
      </trkpt>
      <trkpt lat="44.95933" lon="1.13023">
        <ele>129</ele>
        <time>2019-02-02T06:47:28.000Z</time>
      </trkpt>
      <trkpt lat="44.95941" lon="1.13055">
        <ele>130</ele>
        <time>2019-02-02T06:48:28.000Z</time>
      </trkpt>
      <trkpt lat="44.95961" lon="1.13114">
        <ele>132</ele>
        <time>2019-02-02T06:49:28.000Z</time>
      </trkpt>
      <trkpt lat="44.95973" lon="1.13145">
        <ele>133</ele>
        <time>2019-02-02T06:50:28.000Z</time>
      </trkpt>
      <trkpt lat="44.95981" lon="1.13169">
        <ele>132</ele>
        <time>2019-02-02T06:51:28.000Z</time>
      </trkpt>
      <trkpt lat="44.95991" lon="1.13201">
        <ele>132</ele>
        <time>2019-02-02T06:52:28.000Z</time>
      </trkpt>
      <trkpt lat="44.95995" lon="1.13228">
        <ele>130</ele>
        <time>2019-02-02T06:53:28.000Z</time>
      </trkpt>
      <trkpt lat="44.95999" lon="1.13256">
        <ele>129</ele>
        <time>2019-02-02T06:54:28.000Z</time>
      </trkpt>
      <trkpt lat="44.96" lon="1.13287">
        <ele>129</ele>
        <time>2019-02-02T06:55:28.000Z</time>
      </trkpt>
      <trkpt lat="44.95999" lon="1.13329">
        <ele>128</ele>
        <time>2019-02-02T06:56:28.000Z</time>
      </trkpt>
      <trkpt lat="44.95992" lon="1.13391">
        <ele>127</ele>
        <time>2019-02-02T06:57:28.000Z</time>
      </trkpt>
      <trkpt lat="44.95986" lon="1.13416">
        <ele>126</ele>
        <time>2019-02-02T06:58:28.000Z</time>
      </trkpt>
      <trkpt lat="44.95982" lon="1.1344">
        <ele>126</ele>
        <time>2019-02-02T06:59:28.000Z</time>
      </trkpt>
      <trkpt lat="44.95975" lon="1.1352">
        <ele>129</ele>
        <time>2019-02-02T07:00:28.000Z</time>
      </trkpt>
      <trkpt lat="44.95966" lon="1.13608">
        <ele>130</ele>
        <time>2019-02-02T07:01:28.000Z</time>
      </trkpt>
      <trkpt lat="44.95961" lon="1.1371">
        <ele>131</ele>
        <time>2019-02-02T07:02:28.000Z</time>
      </trkpt>
      <trkpt lat="44.95979" lon="1.13795">
        <ele>135</ele>
        <time>2019-02-02T07:03:28.000Z</time>
      </trkpt>
      <trkpt lat="44.95991" lon="1.13884">
        <ele>133</ele>
        <time>2019-02-02T07:04:28.000Z</time>
      </trkpt>
      <trkpt lat="44.96013" lon="1.13966">
        <ele>133</ele>
        <time>2019-02-02T07:05:28.000Z</time>
      </trkpt>
      <trkpt lat="44.96036" lon="1.14049">
        <ele>132</ele>
        <time>2019-02-02T07:06:28.000Z</time>
      </trkpt>
      <trkpt lat="44.96056" lon="1.14154">
        <ele>133</ele>
        <time>2019-02-02T07:07:28.000Z</time>
      </trkpt>
      <trkpt lat="44.96072" lon="1.14262">
        <ele>132</ele>
        <time>2019-02-02T07:08:28.000Z</time>
      </trkpt>
      <trkpt lat="44.96141" lon="1.14338">
        <ele>139</ele>
        <time>2019-02-02T07:09:28.000Z</time>
      </trkpt>
      <trkpt lat="44.9619" lon="1.14408">
        <ele>135</ele>
        <time>2019-02-02T07:10:28.000Z</time>
      </trkpt>
      <trkpt lat="44.96241" lon="1.14478">
        <ele>132</ele>
        <time>2019-02-02T07:11:28.000Z</time>
      </trkpt>
      <trkpt lat="44.96286" lon="1.14556">
        <ele>128</ele>
        <time>2019-02-02T07:12:28.000Z</time>
      </trkpt>
      <trkpt lat="44.96313" lon="1.14649">
        <ele>134</ele>
        <time>2019-02-02T07:13:28.000Z</time>
      </trkpt>
      <trkpt lat="44.96347" lon="1.14724">
        <ele>138</ele>
        <time>2019-02-02T07:14:28.000Z</time>
      </trkpt>
      <trkpt lat="44.96397" lon="1.14846">
        <ele>145</ele>
        <time>2019-02-02T07:15:28.000Z</time>
      </trkpt>
      <trkpt lat="44.96436" lon="1.14916">
        <ele>147</ele>
        <time>2019-02-02T07:16:28.000Z</time>
      </trkpt>
      <trkpt lat="44.96454" lon="1.14991">
        <ele>149</ele>
        <time>2019-02-02T07:17:28.000Z</time>
      </trkpt>
      <trkpt lat="44.96471" lon="1.15063">
        <ele>148</ele>
        <time>2019-02-02T07:18:28.000Z</time>
      </trkpt>
      <trkpt lat="44.96482" lon="1.15141">
        <ele>146</ele>
        <time>2019-02-02T07:19:28.000Z</time>
      </trkpt>
      <trkpt lat="44.9648" lon="1.15242">
        <ele>143</ele>
        <time>2019-02-02T07:20:28.000Z</time>
      </trkpt>
      <trkpt lat="44.96481" lon="1.15362">
        <ele>141</ele>
        <time>2019-02-02T07:21:28.000Z</time>
      </trkpt>
      <trkpt lat="44.96492" lon="1.15462">
        <ele>139</ele>
        <time>2019-02-02T07:22:28.000Z</time>
      </trkpt>
      <trkpt lat="44.96489" lon="1.15524">
        <ele>134</ele>
        <time>2019-02-02T07:23:28.000Z</time>
      </trkpt>
      <trkpt lat="44.96496" lon="1.15516">
        <ele>136</ele>
        <time>2019-02-02T07:24:28.000Z</time>
      </trkpt>
      <trkpt lat="44.96507" lon="1.15531">
        <ele>136</ele>
        <time>2019-02-02T07:25:28.000Z</time>
      </trkpt>
      <trkpt lat="44.96501" lon="1.15648">
        <ele>138</ele>
        <time>2019-02-02T07:26:28.000Z</time>
      </trkpt>
      <trkpt lat="44.96492" lon="1.15745">
        <ele>141</ele>
        <time>2019-02-02T07:27:28.000Z</time>
      </trkpt>
      <trkpt lat="44.96505" lon="1.15864">
        <ele>139</ele>
        <time>2019-02-02T07:28:28.000Z</time>
      </trkpt>
      <trkpt lat="44.96615" lon="1.16113">
        <ele>143</ele>
        <time>2019-02-02T07:29:28.000Z</time>
      </trkpt>
      <trkpt lat="44.96654" lon="1.16177">
        <ele>142</ele>
        <time>2019-02-02T07:30:28.000Z</time>
      </trkpt>
      <trkpt lat="44.96663" lon="1.16236">
        <ele>136</ele>
        <time>2019-02-02T07:31:28.000Z</time>
      </trkpt>
      <trkpt lat="44.96683" lon="1.16322">
        <ele>134</ele>
        <time>2019-02-02T07:32:28.000Z</time>
      </trkpt>
      <trkpt lat="44.9668" lon="1.16408">
        <ele>136</ele>
        <time>2019-02-02T07:33:28.000Z</time>
      </trkpt>
      <trkpt lat="44.96649" lon="1.16503">
        <ele>141</ele>
        <time>2019-02-02T07:34:28.000Z</time>
      </trkpt>
      <trkpt lat="44.96632" lon="1.16533">
        <ele>141</ele>
        <time>2019-02-02T07:35:28.000Z</time>
      </trkpt>
      <trkpt lat="44.96632" lon="1.16565">
        <ele>144</ele>
        <time>2019-02-02T07:36:28.000Z</time>
      </trkpt>
      <trkpt lat="44.96621" lon="1.16767">
        <ele>146</ele>
        <time>2019-02-02T07:37:28.000Z</time>
      </trkpt>
      <trkpt lat="44.96663" lon="1.16864">
        <ele>149</ele>
        <time>2019-02-02T07:38:28.000Z</time>
      </trkpt>
      <trkpt lat="44.96696" lon="1.16969">
        <ele>145</ele>
        <time>2019-02-02T07:39:28.000Z</time>
      </trkpt>
      <trkpt lat="44.96711" lon="1.1706">
        <ele>139</ele>
        <time>2019-02-02T07:40:28.000Z</time>
      </trkpt>
      <trkpt lat="44.96726" lon="1.17173">
        <ele>138</ele>
        <time>2019-02-02T07:41:28.000Z</time>
      </trkpt>
      <trkpt lat="44.96744" lon="1.1727">
        <ele>140</ele>
        <time>2019-02-02T07:42:28.000Z</time>
      </trkpt>
      <trkpt lat="44.96758" lon="1.17346">
        <ele>143</ele>
        <time>2019-02-02T07:43:28.000Z</time>
      </trkpt>
      <trkpt lat="44.96771" lon="1.17414">
        <ele>144</ele>
        <time>2019-02-02T07:44:28.000Z</time>
      </trkpt>
      <trkpt lat="44.96787" lon="1.1748">
        <ele>146</ele>
        <time>2019-02-02T07:45:28.000Z</time>
      </trkpt>
      <trkpt lat="44.96856" lon="1.17628">
        <ele>147</ele>
        <time>2019-02-02T07:46:28.000Z</time>
      </trkpt>
      <trkpt lat="44.96915" lon="1.17677">
        <ele>150</ele>
        <time>2019-02-02T07:47:28.000Z</time>
      </trkpt>
      <trkpt lat="44.96994" lon="1.1774">
        <ele>152</ele>
        <time>2019-02-02T07:48:28.000Z</time>
      </trkpt>
      <trkpt lat="44.9706" lon="1.17804">
        <ele>151</ele>
        <time>2019-02-02T07:49:28.000Z</time>
      </trkpt>
      <trkpt lat="44.97131" lon="1.17851">
        <ele>154</ele>
        <time>2019-02-02T07:50:28.000Z</time>
      </trkpt>
      <trkpt lat="44.97185" lon="1.17914">
        <ele>152</ele>
        <time>2019-02-02T07:51:28.000Z</time>
      </trkpt>
      <trkpt lat="44.97228" lon="1.17984">
        <ele>155</ele>
        <time>2019-02-02T07:52:28.000Z</time>
      </trkpt>
      <trkpt lat="44.97248" lon="1.18058">
        <ele>152</ele>
        <time>2019-02-02T07:53:28.000Z</time>
      </trkpt>
      <trkpt lat="44.9727" lon="1.1815">
        <ele>151</ele>
        <time>2019-02-02T07:54:28.000Z</time>
      </trkpt>
      <trkpt lat="44.97289" lon="1.1824">
        <ele>148</ele>
        <time>2019-02-02T07:55:28.000Z</time>
      </trkpt>
      <trkpt lat="44.97316" lon="1.18303">
        <ele>148</ele>
        <time>2019-02-02T07:56:28.000Z</time>
      </trkpt>
      <trkpt lat="44.97352" lon="1.18365">
        <ele>151</ele>
        <time>2019-02-02T07:57:28.000Z</time>
      </trkpt>
      <trkpt lat="44.97396" lon="1.1844">
        <ele>152</ele>
        <time>2019-02-02T07:58:28.000Z</time>
      </trkpt>
      <trkpt lat="44.97456" lon="1.18496">
        <ele>154</ele>
        <time>2019-02-02T07:59:28.000Z</time>
      </trkpt>
      <trkpt lat="44.97526" lon="1.18533">
        <ele>161</ele>
        <time>2019-02-02T08:00:28.000Z</time>
      </trkpt>
      <trkpt lat="44.97587" lon="1.18586">
        <ele>159</ele>
        <time>2019-02-02T08:01:28.000Z</time>
      </trkpt>
      <trkpt lat="44.97643" lon="1.18644">
        <ele>164</ele>
        <time>2019-02-02T08:02:28.000Z</time>
      </trkpt>
      <trkpt lat="44.97685" lon="1.18721">
        <ele>158</ele>
        <time>2019-02-02T08:03:28.000Z</time>
      </trkpt>
      <trkpt lat="44.97738" lon="1.188">
        <ele>159</ele>
        <time>2019-02-02T08:04:28.000Z</time>
      </trkpt>
      <trkpt lat="44.97755" lon="1.18905">
        <ele>155</ele>
        <time>2019-02-02T08:05:28.000Z</time>
      </trkpt>
      <trkpt lat="44.97789" lon="1.19029">
        <ele>154</ele>
        <time>2019-02-02T08:06:28.000Z</time>
      </trkpt>
      <trkpt lat="44.97789" lon="1.19081">
        <ele>156</ele>
        <time>2019-02-02T08:07:28.000Z</time>
      </trkpt>
      <trkpt lat="44.97803" lon="1.19082">
        <ele>158</ele>
        <time>2019-02-02T08:08:28.000Z</time>
      </trkpt>
      <trkpt lat="44.9778" lon="1.19079">
        <ele>155</ele>
        <time>2019-02-02T08:09:28.000Z</time>
      </trkpt>
      <trkpt lat="44.97776" lon="1.19092">
        <ele>155</ele>
        <time>2019-02-02T08:10:28.000Z</time>
      </trkpt>
      <trkpt lat="44.97754" lon="1.19105">
        <ele>152</ele>
        <time>2019-02-02T08:11:28.000Z</time>
      </trkpt>
      <trkpt lat="44.9773" lon="1.19111">
        <ele>151</ele>
        <time>2019-02-02T08:12:28.000Z</time>
      </trkpt>
      <trkpt lat="44.97706" lon="1.19119">
        <ele>151</ele>
        <time>2019-02-02T08:13:28.000Z</time>
      </trkpt>
      <trkpt lat="44.97685" lon="1.19125">
        <ele>151</ele>
        <time>2019-02-02T08:14:28.000Z</time>
      </trkpt>
      <trkpt lat="44.97651" lon="1.19133">
        <ele>151</ele>
        <time>2019-02-02T08:15:28.000Z</time>
      </trkpt>
      <trkpt lat="44.97641" lon="1.1914">
        <ele>151</ele>
        <time>2019-02-02T08:16:28.000Z</time>
      </trkpt>
      <trkpt lat="44.97628" lon="1.19154">
        <ele>151</ele>
        <time>2019-02-02T08:17:28.000Z</time>
      </trkpt>
      <trkpt lat="44.97621" lon="1.19175">
        <ele>152</ele>
        <time>2019-02-02T08:18:28.000Z</time>
      </trkpt>
      <trkpt lat="44.97614" lon="1.19205">
        <ele>154</ele>
        <time>2019-02-02T08:19:28.000Z</time>
      </trkpt>
      <trkpt lat="44.97606" lon="1.1923">
        <ele>156</ele>
        <time>2019-02-02T08:20:28.000Z</time>
      </trkpt>
      <trkpt lat="44.97576" lon="1.19232">
        <ele>156</ele>
        <time>2019-02-02T08:21:28.000Z</time>
      </trkpt>
      <trkpt lat="44.97551" lon="1.19227">
        <ele>155</ele>
        <time>2019-02-02T08:22:28.000Z</time>
      </trkpt>
      <trkpt lat="44.97525" lon="1.19233">
        <ele>156</ele>
        <time>2019-02-02T08:23:28.000Z</time>
      </trkpt>
      <trkpt lat="44.97509" lon="1.19242">
        <ele>156</ele>
        <time>2019-02-02T08:24:28.000Z</time>
      </trkpt>
      <trkpt lat="44.97496" lon="1.19247">
        <ele>156</ele>
        <time>2019-02-02T08:25:28.000Z</time>
      </trkpt>
      <trkpt lat="44.97483" lon="1.19251">
        <ele>158</ele>
        <time>2019-02-02T08:26:28.000Z</time>
      </trkpt>
      <trkpt lat="44.97469" lon="1.19251">
        <ele>159</ele>
        <time>2019-02-02T08:27:28.000Z</time>
      </trkpt>
      <trkpt lat="44.97449" lon="1.19249">
        <ele>161</ele>
        <time>2019-02-02T08:28:28.000Z</time>
      </trkpt>
      <trkpt lat="44.97438" lon="1.19248">
        <ele>162</ele>
        <time>2019-02-02T08:29:28.000Z</time>
      </trkpt>
      <trkpt lat="44.97414" lon="1.19243">
        <ele>165</ele>
        <time>2019-02-02T08:30:28.000Z</time>
      </trkpt>
      <trkpt lat="44.97402" lon="1.19243">
        <ele>166</ele>
        <time>2019-02-02T08:31:28.000Z</time>
      </trkpt>
      <trkpt lat="44.9739" lon="1.19244">
        <ele>167</ele>
        <time>2019-02-02T08:32:28.000Z</time>
      </trkpt>
      <trkpt lat="44.97378" lon="1.19246">
        <ele>167</ele>
        <time>2019-02-02T08:33:28.000Z</time>
      </trkpt>
      <trkpt lat="44.9735" lon="1.1925">
        <ele>169</ele>
        <time>2019-02-02T08:34:28.000Z</time>
      </trkpt>
      <trkpt lat="44.97334" lon="1.19255">
        <ele>170</ele>
        <time>2019-02-02T08:35:28.000Z</time>
      </trkpt>
      <trkpt lat="44.97295" lon="1.1926">
        <ele>169</ele>
        <time>2019-02-02T08:36:28.000Z</time>
      </trkpt>
      <trkpt lat="44.97277" lon="1.19257">
        <ele>169</ele>
        <time>2019-02-02T08:37:28.000Z</time>
      </trkpt>
      <trkpt lat="44.97256" lon="1.19251">
        <ele>169</ele>
        <time>2019-02-02T08:38:28.000Z</time>
      </trkpt>
      <trkpt lat="44.97237" lon="1.19247">
        <ele>170</ele>
        <time>2019-02-02T08:39:28.000Z</time>
      </trkpt>
      <trkpt lat="44.97195" lon="1.19245">
        <ele>172</ele>
        <time>2019-02-02T08:40:28.000Z</time>
      </trkpt>
      <trkpt lat="44.97177" lon="1.19246">
        <ele>172</ele>
        <time>2019-02-02T08:41:28.000Z</time>
      </trkpt>
      <trkpt lat="44.97161" lon="1.19247">
        <ele>173</ele>
        <time>2019-02-02T08:42:28.000Z</time>
      </trkpt>
      <trkpt lat="44.97147" lon="1.19252">
        <ele>174</ele>
        <time>2019-02-02T08:43:28.000Z</time>
      </trkpt>
      <trkpt lat="44.97086" lon="1.19267">
        <ele>179</ele>
        <time>2019-02-02T08:44:28.000Z</time>
      </trkpt>
      <trkpt lat="44.97065" lon="1.19275">
        <ele>181</ele>
        <time>2019-02-02T08:45:28.000Z</time>
      </trkpt>
      <trkpt lat="44.97054" lon="1.1928">
        <ele>182</ele>
        <time>2019-02-02T08:46:28.000Z</time>
      </trkpt>
      <trkpt lat="44.97045" lon="1.19281">
        <ele>183</ele>
        <time>2019-02-02T08:47:28.000Z</time>
      </trkpt>
      <trkpt lat="44.97034" lon="1.1928">
        <ele>183</ele>
        <time>2019-02-02T08:48:28.000Z</time>
      </trkpt>
      <trkpt lat="44.97025" lon="1.19279">
        <ele>184</ele>
        <time>2019-02-02T08:49:28.000Z</time>
      </trkpt>
      <trkpt lat="44.97005" lon="1.19275">
        <ele>184</ele>
        <time>2019-02-02T08:50:28.000Z</time>
      </trkpt>
      <trkpt lat="44.96987" lon="1.19283">
        <ele>186</ele>
        <time>2019-02-02T08:51:28.000Z</time>
      </trkpt>
      <trkpt lat="44.96978" lon="1.1929">
        <ele>188</ele>
        <time>2019-02-02T08:52:28.000Z</time>
      </trkpt>
      <trkpt lat="44.9697" lon="1.19298">
        <ele>189</ele>
        <time>2019-02-02T08:53:28.000Z</time>
      </trkpt>
      <trkpt lat="44.96959" lon="1.193">
        <ele>190</ele>
        <time>2019-02-02T08:54:28.000Z</time>
      </trkpt>
      <trkpt lat="44.96945" lon="1.19304">
        <ele>191</ele>
        <time>2019-02-02T08:55:28.000Z</time>
      </trkpt>
      <trkpt lat="44.96934" lon="1.19309">
        <ele>192</ele>
        <time>2019-02-02T08:56:28.000Z</time>
      </trkpt>
      <trkpt lat="44.96918" lon="1.19328">
        <ele>193</ele>
        <time>2019-02-02T08:57:28.000Z</time>
      </trkpt>
      <trkpt lat="44.96909" lon="1.19333">
        <ele>194</ele>
        <time>2019-02-02T08:58:28.000Z</time>
      </trkpt>
      <trkpt lat="44.96901" lon="1.19341">
        <ele>195</ele>
        <time>2019-02-02T08:59:28.000Z</time>
      </trkpt>
      <trkpt lat="44.96893" lon="1.1935">
        <ele>196</ele>
        <time>2019-02-02T09:00:28.000Z</time>
      </trkpt>
      <trkpt lat="44.96884" lon="1.19359">
        <ele>197</ele>
        <time>2019-02-02T09:01:28.000Z</time>
      </trkpt>
      <trkpt lat="44.96878" lon="1.19371">
        <ele>197</ele>
        <time>2019-02-02T09:02:28.000Z</time>
      </trkpt>
      <trkpt lat="44.96872" lon="1.19381">
        <ele>198</ele>
        <time>2019-02-02T09:03:28.000Z</time>
      </trkpt>
      <trkpt lat="44.96863" lon="1.19387">
        <ele>199</ele>
        <time>2019-02-02T09:04:28.000Z</time>
      </trkpt>
      <trkpt lat="44.96855" lon="1.19394">
        <ele>199</ele>
        <time>2019-02-02T09:05:28.000Z</time>
      </trkpt>
      <trkpt lat="44.96845" lon="1.19405">
        <ele>200</ele>
        <time>2019-02-02T09:06:28.000Z</time>
      </trkpt>
      <trkpt lat="44.96837" lon="1.19418">
        <ele>201</ele>
        <time>2019-02-02T09:07:28.000Z</time>
      </trkpt>
      <trkpt lat="44.9683" lon="1.19431">
        <ele>202</ele>
        <time>2019-02-02T09:08:28.000Z</time>
      </trkpt>
      <trkpt lat="44.96823" lon="1.19442">
        <ele>202</ele>
        <time>2019-02-02T09:09:28.000Z</time>
      </trkpt>
      <trkpt lat="44.9681" lon="1.19452">
        <ele>202</ele>
        <time>2019-02-02T09:10:28.000Z</time>
      </trkpt>
      <trkpt lat="44.96795" lon="1.1946">
        <ele>202</ele>
        <time>2019-02-02T09:11:28.000Z</time>
      </trkpt>
      <trkpt lat="44.96784" lon="1.1947">
        <ele>202</ele>
        <time>2019-02-02T09:12:28.000Z</time>
      </trkpt>
      <trkpt lat="44.96772" lon="1.19478">
        <ele>202</ele>
        <time>2019-02-02T09:13:28.000Z</time>
      </trkpt>
      <trkpt lat="44.96758" lon="1.19483">
        <ele>202</ele>
        <time>2019-02-02T09:14:28.000Z</time>
      </trkpt>
      <trkpt lat="44.96747" lon="1.19484">
        <ele>202</ele>
        <time>2019-02-02T09:15:28.000Z</time>
      </trkpt>
      <trkpt lat="44.96735" lon="1.19484">
        <ele>202</ele>
        <time>2019-02-02T09:16:28.000Z</time>
      </trkpt>
      <trkpt lat="44.96712" lon="1.19484">
        <ele>202</ele>
        <time>2019-02-02T09:17:28.000Z</time>
      </trkpt>
      <trkpt lat="44.96702" lon="1.19486">
        <ele>202</ele>
        <time>2019-02-02T09:18:28.000Z</time>
      </trkpt>
      <trkpt lat="44.96692" lon="1.1949">
        <ele>203</ele>
        <time>2019-02-02T09:19:28.000Z</time>
      </trkpt>
      <trkpt lat="44.96682" lon="1.19495">
        <ele>203</ele>
        <time>2019-02-02T09:20:28.000Z</time>
      </trkpt>
      <trkpt lat="44.96671" lon="1.19502">
        <ele>203</ele>
        <time>2019-02-02T09:21:28.000Z</time>
      </trkpt>
      <trkpt lat="44.9666" lon="1.19511">
        <ele>204</ele>
        <time>2019-02-02T09:22:28.000Z</time>
      </trkpt>
      <trkpt lat="44.96649" lon="1.19521">
        <ele>206</ele>
        <time>2019-02-02T09:23:28.000Z</time>
      </trkpt>
      <trkpt lat="44.96613" lon="1.19548">
        <ele>209</ele>
        <time>2019-02-02T09:24:28.000Z</time>
      </trkpt>
      <trkpt lat="44.96585" lon="1.19567">
        <ele>212</ele>
        <time>2019-02-02T09:25:28.000Z</time>
      </trkpt>
      <trkpt lat="44.96574" lon="1.19572">
        <ele>213</ele>
        <time>2019-02-02T09:26:28.000Z</time>
      </trkpt>
      <trkpt lat="44.96563" lon="1.19573">
        <ele>213</ele>
        <time>2019-02-02T09:27:28.000Z</time>
      </trkpt>
      <trkpt lat="44.96553" lon="1.19575">
        <ele>213</ele>
        <time>2019-02-02T09:28:28.000Z</time>
      </trkpt>
      <trkpt lat="44.96523" lon="1.19586">
        <ele>215</ele>
        <time>2019-02-02T09:29:28.000Z</time>
      </trkpt>
      <trkpt lat="44.96513" lon="1.19594">
        <ele>215</ele>
        <time>2019-02-02T09:30:28.000Z</time>
      </trkpt>
      <trkpt lat="44.96497" lon="1.1961">
        <ele>216</ele>
        <time>2019-02-02T09:31:28.000Z</time>
      </trkpt>
      <trkpt lat="44.96489" lon="1.19618">
        <ele>217</ele>
        <time>2019-02-02T09:32:28.000Z</time>
      </trkpt>
      <trkpt lat="44.96482" lon="1.19625">
        <ele>218</ele>
        <time>2019-02-02T09:33:28.000Z</time>
      </trkpt>
      <trkpt lat="44.96474" lon="1.19633">
        <ele>219</ele>
        <time>2019-02-02T09:34:28.000Z</time>
      </trkpt>
      <trkpt lat="44.96463" lon="1.19643">
        <ele>219</ele>
        <time>2019-02-02T09:35:28.000Z</time>
      </trkpt>
      <trkpt lat="44.96454" lon="1.19653">
        <ele>220</ele>
        <time>2019-02-02T09:36:28.000Z</time>
      </trkpt>
      <trkpt lat="44.96447" lon="1.19661">
        <ele>221</ele>
        <time>2019-02-02T09:37:28.000Z</time>
      </trkpt>
      <trkpt lat="44.96439" lon="1.19673">
        <ele>221</ele>
        <time>2019-02-02T09:38:28.000Z</time>
      </trkpt>
      <trkpt lat="44.96431" lon="1.19682">
        <ele>222</ele>
        <time>2019-02-02T09:39:28.000Z</time>
      </trkpt>
      <trkpt lat="44.96414" lon="1.19703">
        <ele>223</ele>
        <time>2019-02-02T09:40:28.000Z</time>
      </trkpt>
      <trkpt lat="44.96405" lon="1.19714">
        <ele>223</ele>
        <time>2019-02-02T09:41:28.000Z</time>
      </trkpt>
      <trkpt lat="44.96394" lon="1.19721">
        <ele>224</ele>
        <time>2019-02-02T09:42:28.000Z</time>
      </trkpt>
      <trkpt lat="44.96375" lon="1.19725">
        <ele>224</ele>
        <time>2019-02-02T09:43:28.000Z</time>
      </trkpt>
      <trkpt lat="44.96332" lon="1.19749">
        <ele>225</ele>
        <time>2019-02-02T09:44:28.000Z</time>
      </trkpt>
      <trkpt lat="44.96297" lon="1.19729">
        <ele>226</ele>
        <time>2019-02-02T09:45:28.000Z</time>
      </trkpt>
      <trkpt lat="44.96255" lon="1.19712">
        <ele>228</ele>
        <time>2019-02-02T09:46:28.000Z</time>
      </trkpt>
      <trkpt lat="44.96208" lon="1.1972">
        <ele>229</ele>
        <time>2019-02-02T09:47:28.000Z</time>
      </trkpt>
      <trkpt lat="44.96186" lon="1.19695">
        <ele>230</ele>
        <time>2019-02-02T09:48:28.000Z</time>
      </trkpt>
      <trkpt lat="44.9618" lon="1.19639">
        <ele>231</ele>
        <time>2019-02-02T09:49:28.000Z</time>
      </trkpt>
      <trkpt lat="44.96173" lon="1.19594">
        <ele>230</ele>
        <time>2019-02-02T09:50:28.000Z</time>
      </trkpt>
      <trkpt lat="44.96154" lon="1.19543">
        <ele>230</ele>
        <time>2019-02-02T09:51:28.000Z</time>
      </trkpt>
      <trkpt lat="44.9611" lon="1.19563">
        <ele>231</ele>
        <time>2019-02-02T09:52:28.000Z</time>
      </trkpt>
      <trkpt lat="44.96043" lon="1.19587">
        <ele>233</ele>
        <time>2019-02-02T09:53:28.000Z</time>
      </trkpt>
      <trkpt lat="44.95976" lon="1.19583">
        <ele>234</ele>
        <time>2019-02-02T09:54:28.000Z</time>
      </trkpt>
      <trkpt lat="44.95922" lon="1.19546">
        <ele>234</ele>
        <time>2019-02-02T09:55:28.000Z</time>
      </trkpt>
      <trkpt lat="44.9588" lon="1.19483">
        <ele>237</ele>
        <time>2019-02-02T09:56:28.000Z</time>
      </trkpt>
      <trkpt lat="44.95843" lon="1.19394">
        <ele>238</ele>
        <time>2019-02-02T09:57:28.000Z</time>
      </trkpt>
      <trkpt lat="44.95849" lon="1.19306">
        <ele>236</ele>
        <time>2019-02-02T09:58:28.000Z</time>
      </trkpt>
      <trkpt lat="44.95841" lon="1.19237">
        <ele>237</ele>
        <time>2019-02-02T09:59:28.000Z</time>
      </trkpt>
      <trkpt lat="44.95805" lon="1.19186">
        <ele>238</ele>
        <time>2019-02-02T10:00:28.000Z</time>
      </trkpt>
      <trkpt lat="44.95753" lon="1.19152">
        <ele>239</ele>
        <time>2019-02-02T10:01:28.000Z</time>
      </trkpt>
      <trkpt lat="44.95691" lon="1.19124">
        <ele>238</ele>
        <time>2019-02-02T10:02:28.000Z</time>
      </trkpt>
      <trkpt lat="44.95584" lon="1.19058">
        <ele>233</ele>
        <time>2019-02-02T10:03:28.000Z</time>
      </trkpt>
      <trkpt lat="44.95477" lon="1.19106">
        <ele>234</ele>
        <time>2019-02-02T10:04:28.000Z</time>
      </trkpt>
      <trkpt lat="44.95391" lon="1.19085">
        <ele>242</ele>
        <time>2019-02-02T10:05:28.000Z</time>
      </trkpt>
      <trkpt lat="44.95393" lon="1.19065">
        <ele>242</ele>
        <time>2019-02-02T10:06:28.000Z</time>
      </trkpt>
      <trkpt lat="44.95385" lon="1.19014">
        <ele>242</ele>
        <time>2019-02-02T10:07:28.000Z</time>
      </trkpt>
      <trkpt lat="44.95461" lon="1.18815">
        <ele>234</ele>
        <time>2019-02-02T10:08:28.000Z</time>
      </trkpt>
      <trkpt lat="44.95379" lon="1.18791">
        <ele>234</ele>
        <time>2019-02-02T10:09:28.000Z</time>
      </trkpt>
      <trkpt lat="44.95288" lon="1.18717">
        <ele>234</ele>
        <time>2019-02-02T10:10:28.000Z</time>
      </trkpt>
      <trkpt lat="44.95279" lon="1.18623">
        <ele>231</ele>
        <time>2019-02-02T10:11:28.000Z</time>
      </trkpt>
      <trkpt lat="44.95221" lon="1.18539">
        <ele>228</ele>
        <time>2019-02-02T10:12:28.000Z</time>
      </trkpt>
      <trkpt lat="44.95158" lon="1.18458">
        <ele>230</ele>
        <time>2019-02-02T10:13:28.000Z</time>
      </trkpt>
      <trkpt lat="44.95126" lon="1.18435">
        <ele>233</ele>
        <time>2019-02-02T10:14:28.000Z</time>
      </trkpt>
      <trkpt lat="44.95099" lon="1.18425">
        <ele>235</ele>
        <time>2019-02-02T10:15:28.000Z</time>
      </trkpt>
      <trkpt lat="44.95067" lon="1.18429">
        <ele>236</ele>
        <time>2019-02-02T10:16:28.000Z</time>
      </trkpt>
      <trkpt lat="44.95042" lon="1.18468">
        <ele>236</ele>
        <time>2019-02-02T10:17:28.000Z</time>
      </trkpt>
      <trkpt lat="44.94986" lon="1.18515">
        <ele>232</ele>
        <time>2019-02-02T10:18:28.000Z</time>
      </trkpt>
      <trkpt lat="44.94913" lon="1.18692">
        <ele>233</ele>
        <time>2019-02-02T10:19:28.000Z</time>
      </trkpt>
      <trkpt lat="44.94912" lon="1.18957">
        <ele>228</ele>
        <time>2019-02-02T10:20:28.000Z</time>
      </trkpt>
      <trkpt lat="44.9488" lon="1.19104">
        <ele>232</ele>
        <time>2019-02-02T10:21:28.000Z</time>
      </trkpt>
      <trkpt lat="44.94856" lon="1.1921">
        <ele>231</ele>
        <time>2019-02-02T10:22:28.000Z</time>
      </trkpt>
      <trkpt lat="44.948" lon="1.19191">
        <ele>229</ele>
        <time>2019-02-02T10:23:28.000Z</time>
      </trkpt>
      <trkpt lat="44.94774" lon="1.19161">
        <ele>232</ele>
        <time>2019-02-02T10:24:28.000Z</time>
      </trkpt>
      <trkpt lat="44.94766" lon="1.19122">
        <ele>235</ele>
        <time>2019-02-02T10:25:28.000Z</time>
      </trkpt>
      <trkpt lat="44.94749" lon="1.19091">
        <ele>239</ele>
        <time>2019-02-02T10:26:28.000Z</time>
      </trkpt>
      <trkpt lat="44.94733" lon="1.1908">
        <ele>241</ele>
        <time>2019-02-02T10:27:28.000Z</time>
      </trkpt>
      <trkpt lat="44.94716" lon="1.19053">
        <ele>243</ele>
        <time>2019-02-02T10:28:28.000Z</time>
      </trkpt>
      <trkpt lat="44.94693" lon="1.19032">
        <ele>246</ele>
        <time>2019-02-02T10:29:28.000Z</time>
      </trkpt>
      <trkpt lat="44.9467" lon="1.19026">
        <ele>249</ele>
        <time>2019-02-02T10:30:28.000Z</time>
      </trkpt>
      <trkpt lat="44.94613" lon="1.18981">
        <ele>244</ele>
        <time>2019-02-02T10:31:28.000Z</time>
      </trkpt>
      <trkpt lat="44.94555" lon="1.18949">
        <ele>242</ele>
        <time>2019-02-02T10:32:28.000Z</time>
      </trkpt>
      <trkpt lat="44.94497" lon="1.18907">
        <ele>242</ele>
        <time>2019-02-02T10:33:28.000Z</time>
      </trkpt>
      <trkpt lat="44.94448" lon="1.18857">
        <ele>241</ele>
        <time>2019-02-02T10:34:28.000Z</time>
      </trkpt>
      <trkpt lat="44.944" lon="1.18848">
        <ele>244</ele>
        <time>2019-02-02T10:35:28.000Z</time>
      </trkpt>
      <trkpt lat="44.94369" lon="1.18844">
        <ele>247</ele>
        <time>2019-02-02T10:36:28.000Z</time>
      </trkpt>
      <trkpt lat="44.94342" lon="1.18863">
        <ele>251</ele>
        <time>2019-02-02T10:37:28.000Z</time>
      </trkpt>
      <trkpt lat="44.94323" lon="1.18854">
        <ele>253</ele>
        <time>2019-02-02T10:38:28.000Z</time>
      </trkpt>
      <trkpt lat="44.94306" lon="1.18841">
        <ele>255</ele>
        <time>2019-02-02T10:39:28.000Z</time>
      </trkpt>
      <trkpt lat="44.94301" lon="1.18817">
        <ele>255</ele>
        <time>2019-02-02T10:40:28.000Z</time>
      </trkpt>
      <trkpt lat="44.94275" lon="1.18776">
        <ele>258</ele>
        <time>2019-02-02T10:41:28.000Z</time>
      </trkpt>
      <trkpt lat="44.94226" lon="1.1871">
        <ele>263</ele>
        <time>2019-02-02T10:42:28.000Z</time>
      </trkpt>
      <trkpt lat="44.94197" lon="1.18741">
        <ele>267</ele>
        <time>2019-02-02T10:43:28.000Z</time>
      </trkpt>
      <trkpt lat="44.94219" lon="1.1876">
        <ele>265</ele>
        <time>2019-02-02T10:44:28.000Z</time>
      </trkpt>
      <trkpt lat="44.94212" lon="1.1881">
        <ele>266</ele>
        <time>2019-02-02T10:45:28.000Z</time>
      </trkpt>
      <trkpt lat="44.94208" lon="1.18834">
        <ele>266</ele>
        <time>2019-02-02T10:46:28.000Z</time>
      </trkpt>
      <trkpt lat="44.94211" lon="1.18847">
        <ele>266</ele>
        <time>2019-02-02T10:47:28.000Z</time>
      </trkpt>
      <trkpt lat="44.94237" lon="1.18906">
        <ele>266</ele>
        <time>2019-02-02T10:48:28.000Z</time>
      </trkpt>
      <trkpt lat="44.94251" lon="1.18976">
        <ele>268</ele>
        <time>2019-02-02T10:49:28.000Z</time>
      </trkpt>
      <trkpt lat="44.94249" lon="1.1906">
        <ele>270</ele>
        <time>2019-02-02T10:50:28.000Z</time>
      </trkpt>
      <trkpt lat="44.94249" lon="1.19115">
        <ele>272</ele>
        <time>2019-02-02T10:51:28.000Z</time>
      </trkpt>
      <trkpt lat="44.94243" lon="1.19195">
        <ele>274</ele>
        <time>2019-02-02T10:52:28.000Z</time>
      </trkpt>
      <trkpt lat="44.94216" lon="1.1924">
        <ele>273</ele>
        <time>2019-02-02T10:53:28.000Z</time>
      </trkpt>
      <trkpt lat="44.94187" lon="1.19307">
        <ele>274</ele>
        <time>2019-02-02T10:54:28.000Z</time>
      </trkpt>
      <trkpt lat="44.94147" lon="1.19377">
        <ele>276</ele>
        <time>2019-02-02T10:55:28.000Z</time>
      </trkpt>
      <trkpt lat="44.94093" lon="1.19464">
        <ele>277</ele>
        <time>2019-02-02T10:56:28.000Z</time>
      </trkpt>
      <trkpt lat="44.94017" lon="1.19633">
        <ele>281</ele>
        <time>2019-02-02T10:57:28.000Z</time>
      </trkpt>
      <trkpt lat="44.93998" lon="1.19691">
        <ele>281</ele>
        <time>2019-02-02T10:58:28.000Z</time>
      </trkpt>
      <trkpt lat="44.9394" lon="1.19719">
        <ele>283</ele>
        <time>2019-02-02T10:59:28.000Z</time>
      </trkpt>
      <trkpt lat="44.93899" lon="1.19721">
        <ele>284</ele>
        <time>2019-02-02T11:00:28.000Z</time>
      </trkpt>
      <trkpt lat="44.93838" lon="1.19708">
        <ele>286</ele>
        <time>2019-02-02T11:01:28.000Z</time>
      </trkpt>
      <trkpt lat="44.93778" lon="1.19705">
        <ele>288</ele>
        <time>2019-02-02T11:02:28.000Z</time>
      </trkpt>
      <trkpt lat="44.93746" lon="1.19709">
        <ele>289</ele>
        <time>2019-02-02T11:03:28.000Z</time>
      </trkpt>
      <trkpt lat="44.93703" lon="1.19742">
        <ele>288</ele>
        <time>2019-02-02T11:04:28.000Z</time>
      </trkpt>
      <trkpt lat="44.93653" lon="1.19787">
        <ele>292</ele>
        <time>2019-02-02T11:05:28.000Z</time>
      </trkpt>
      <trkpt lat="44.93547" lon="1.19845">
        <ele>293</ele>
        <time>2019-02-02T11:06:28.000Z</time>
      </trkpt>
      <trkpt lat="44.93499" lon="1.19717">
        <ele>287</ele>
        <time>2019-02-02T11:07:28.000Z</time>
      </trkpt>
      <trkpt lat="44.93414" lon="1.19613">
        <ele>279</ele>
        <time>2019-02-02T11:08:28.000Z</time>
      </trkpt>
      <trkpt lat="44.93279" lon="1.1958">
        <ele>273</ele>
        <time>2019-02-02T11:09:28.000Z</time>
      </trkpt>
      <trkpt lat="44.93124" lon="1.19678">
        <ele>264</ele>
        <time>2019-02-02T11:10:28.000Z</time>
      </trkpt>
      <trkpt lat="44.93088" lon="1.19819">
        <ele>263</ele>
        <time>2019-02-02T11:11:28.000Z</time>
      </trkpt>
      <trkpt lat="44.93128" lon="1.1998">
        <ele>265</ele>
        <time>2019-02-02T11:12:28.000Z</time>
      </trkpt>
      <trkpt lat="44.93089" lon="1.20163">
        <ele>259</ele>
        <time>2019-02-02T11:13:28.000Z</time>
      </trkpt>
      <trkpt lat="44.93081" lon="1.20239">
        <ele>262</ele>
        <time>2019-02-02T11:14:28.000Z</time>
      </trkpt>
      <trkpt lat="44.93086" lon="1.2029">
        <ele>263</ele>
        <time>2019-02-02T11:15:28.000Z</time>
      </trkpt>
      <trkpt lat="44.93112" lon="1.20363">
        <ele>265</ele>
        <time>2019-02-02T11:16:28.000Z</time>
      </trkpt>
      <trkpt lat="44.931" lon="1.20407">
        <ele>269</ele>
        <time>2019-02-02T11:17:28.000Z</time>
      </trkpt>
      <trkpt lat="44.93077" lon="1.20447">
        <ele>272</ele>
        <time>2019-02-02T11:18:28.000Z</time>
      </trkpt>
      <trkpt lat="44.93032" lon="1.20485">
        <ele>273</ele>
        <time>2019-02-02T11:19:28.000Z</time>
      </trkpt>
      <trkpt lat="44.93008" lon="1.20495">
        <ele>274</ele>
        <time>2019-02-02T11:20:28.000Z</time>
      </trkpt>
      <trkpt lat="44.92973" lon="1.20507">
        <ele>274</ele>
        <time>2019-02-02T11:21:28.000Z</time>
      </trkpt>
      <trkpt lat="44.92933" lon="1.20529">
        <ele>274</ele>
        <time>2019-02-02T11:22:28.000Z</time>
      </trkpt>
      <trkpt lat="44.92917" lon="1.20535">
        <ele>274</ele>
        <time>2019-02-02T11:23:28.000Z</time>
      </trkpt>
      <trkpt lat="44.92881" lon="1.20469">
        <ele>274</ele>
        <time>2019-02-02T11:24:28.000Z</time>
      </trkpt>
      <trkpt lat="44.92836" lon="1.20453">
        <ele>276</ele>
        <time>2019-02-02T11:25:28.000Z</time>
      </trkpt>
      <trkpt lat="44.92802" lon="1.20441">
        <ele>279</ele>
        <time>2019-02-02T11:26:28.000Z</time>
      </trkpt>
      <trkpt lat="44.92787" lon="1.20403">
        <ele>281</ele>
        <time>2019-02-02T11:27:28.000Z</time>
      </trkpt>
      <trkpt lat="44.9277" lon="1.20376">
        <ele>283</ele>
        <time>2019-02-02T11:28:28.000Z</time>
      </trkpt>
      <trkpt lat="44.92747" lon="1.20341">
        <ele>285</ele>
        <time>2019-02-02T11:29:28.000Z</time>
      </trkpt>
      <trkpt lat="44.9273" lon="1.2028">
        <ele>289</ele>
        <time>2019-02-02T11:30:28.000Z</time>
      </trkpt>
      <trkpt lat="44.92709" lon="1.20256">
        <ele>293</ele>
        <time>2019-02-02T11:31:28.000Z</time>
      </trkpt>
      <trkpt lat="44.92699" lon="1.20245">
        <ele>295</ele>
        <time>2019-02-02T11:32:28.000Z</time>
      </trkpt>
      <trkpt lat="44.92652" lon="1.20216">
        <ele>302</ele>
        <time>2019-02-02T11:33:28.000Z</time>
      </trkpt>
      <trkpt lat="44.92624" lon="1.2022">
        <ele>304</ele>
        <time>2019-02-02T11:34:28.000Z</time>
      </trkpt>
      <trkpt lat="44.92605" lon="1.20231">
        <ele>306</ele>
        <time>2019-02-02T11:35:28.000Z</time>
      </trkpt>
      <trkpt lat="44.92593" lon="1.20225">
        <ele>307</ele>
        <time>2019-02-02T11:36:28.000Z</time>
      </trkpt>
      <trkpt lat="44.92547" lon="1.20206">
        <ele>306</ele>
        <time>2019-02-02T11:37:28.000Z</time>
      </trkpt>
      <trkpt lat="44.92526" lon="1.20174">
        <ele>306</ele>
        <time>2019-02-02T11:38:28.000Z</time>
      </trkpt>
      <trkpt lat="44.92506" lon="1.20171">
        <ele>306</ele>
        <time>2019-02-02T11:39:28.000Z</time>
      </trkpt>
      <trkpt lat="44.925" lon="1.20189">
        <ele>305</ele>
        <time>2019-02-02T11:40:28.000Z</time>
      </trkpt>
      <trkpt lat="44.92447" lon="1.20241">
        <ele>294</ele>
        <time>2019-02-02T11:41:28.000Z</time>
      </trkpt>
      <trkpt lat="44.92446" lon="1.20351">
        <ele>292</ele>
        <time>2019-02-02T11:42:28.000Z</time>
      </trkpt>
      <trkpt lat="44.92401" lon="1.2043">
        <ele>279</ele>
        <time>2019-02-02T11:43:28.000Z</time>
      </trkpt>
      <trkpt lat="44.92357" lon="1.20449">
        <ele>268</ele>
        <time>2019-02-02T11:44:28.000Z</time>
      </trkpt>
      <trkpt lat="44.92336" lon="1.20499">
        <ele>262</ele>
        <time>2019-02-02T11:45:28.000Z</time>
      </trkpt>
      <trkpt lat="44.92307" lon="1.20582">
        <ele>253</ele>
        <time>2019-02-02T11:46:28.000Z</time>
      </trkpt>
      <trkpt lat="44.92278" lon="1.20638">
        <ele>248</ele>
        <time>2019-02-02T11:47:28.000Z</time>
      </trkpt>
      <trkpt lat="44.92189" lon="1.2067">
        <ele>245</ele>
        <time>2019-02-02T11:48:28.000Z</time>
      </trkpt>
      <trkpt lat="44.92024" lon="1.20597">
        <ele>239</ele>
        <time>2019-02-02T11:49:28.000Z</time>
      </trkpt>
      <trkpt lat="44.9191" lon="1.20526">
        <ele>229</ele>
        <time>2019-02-02T11:50:28.000Z</time>
      </trkpt>
      <trkpt lat="44.91759" lon="1.20546">
        <ele>220</ele>
        <time>2019-02-02T11:51:28.000Z</time>
      </trkpt>
      <trkpt lat="44.91631" lon="1.20614">
        <ele>215</ele>
        <time>2019-02-02T11:52:28.000Z</time>
      </trkpt>
      <trkpt lat="44.91444" lon="1.20609">
        <ele>202</ele>
        <time>2019-02-02T11:53:28.000Z</time>
      </trkpt>
      <trkpt lat="44.91296" lon="1.207">
        <ele>199</ele>
        <time>2019-02-02T11:54:28.000Z</time>
      </trkpt>
      <trkpt lat="44.91142" lon="1.20678">
        <ele>188</ele>
        <time>2019-02-02T11:55:28.000Z</time>
      </trkpt>
      <trkpt lat="44.90992" lon="1.20617">
        <ele>182</ele>
        <time>2019-02-02T11:56:28.000Z</time>
      </trkpt>
      <trkpt lat="44.90851" lon="1.20597">
        <ele>177</ele>
        <time>2019-02-02T11:57:28.000Z</time>
      </trkpt>
      <trkpt lat="44.90718" lon="1.20652">
        <ele>175</ele>
        <time>2019-02-02T11:58:28.000Z</time>
      </trkpt>
      <trkpt lat="44.90621" lon="1.20705">
        <ele>172</ele>
        <time>2019-02-02T11:59:28.000Z</time>
      </trkpt>
      <trkpt lat="44.90531" lon="1.2078">
        <ele>173</ele>
        <time>2019-02-02T12:00:28.000Z</time>
      </trkpt>
      <trkpt lat="44.90457" lon="1.20852">
        <ele>171</ele>
        <time>2019-02-02T12:01:28.000Z</time>
      </trkpt>
      <trkpt lat="44.90372" lon="1.20971">
        <ele>172</ele>
        <time>2019-02-02T12:02:28.000Z</time>
      </trkpt>
      <trkpt lat="44.90303" lon="1.2103">
        <ele>172</ele>
        <time>2019-02-02T12:03:28.000Z</time>
      </trkpt>
      <trkpt lat="44.90224" lon="1.21052">
        <ele>173</ele>
        <time>2019-02-02T12:04:28.000Z</time>
      </trkpt>
      <trkpt lat="44.90138" lon="1.21088">
        <ele>172</ele>
        <time>2019-02-02T12:05:28.000Z</time>
      </trkpt>
      <trkpt lat="44.90056" lon="1.21149">
        <ele>169</ele>
        <time>2019-02-02T12:06:28.000Z</time>
      </trkpt>
      <trkpt lat="44.90004" lon="1.21101">
        <ele>174</ele>
        <time>2019-02-02T12:07:28.000Z</time>
      </trkpt>
      <trkpt lat="44.89827" lon="1.21271">
        <ele>160</ele>
        <time>2019-02-02T12:08:28.000Z</time>
      </trkpt>
      <trkpt lat="44.89723" lon="1.21321">
        <ele>159</ele>
        <time>2019-02-02T12:09:28.000Z</time>
      </trkpt>
      <trkpt lat="44.89559" lon="1.21426">
        <ele>155</ele>
        <time>2019-02-02T12:10:28.000Z</time>
      </trkpt>
      <trkpt lat="44.89473" lon="1.21474">
        <ele>154</ele>
        <time>2019-02-02T12:11:28.000Z</time>
      </trkpt>
      <trkpt lat="44.89389" lon="1.21526">
        <ele>152</ele>
        <time>2019-02-02T12:12:28.000Z</time>
      </trkpt>
      <trkpt lat="44.89345" lon="1.21543">
        <ele>150</ele>
        <time>2019-02-02T12:13:28.000Z</time>
      </trkpt>
      <trkpt lat="44.89305" lon="1.2153">
        <ele>150</ele>
        <time>2019-02-02T12:14:28.000Z</time>
      </trkpt>
      <trkpt lat="44.89202" lon="1.21522">
        <ele>151</ele>
        <time>2019-02-02T12:15:28.000Z</time>
      </trkpt>
      <trkpt lat="44.89135" lon="1.21529">
        <ele>151</ele>
        <time>2019-02-02T12:16:28.000Z</time>
      </trkpt>
      <trkpt lat="44.89102" lon="1.21546">
        <ele>152</ele>
        <time>2019-02-02T12:17:28.000Z</time>
      </trkpt>
      <trkpt lat="44.89075" lon="1.21556">
        <ele>152</ele>
        <time>2019-02-02T12:18:28.000Z</time>
      </trkpt>
      <trkpt lat="44.89015" lon="1.21568">
        <ele>151</ele>
        <time>2019-02-02T12:19:28.000Z</time>
      </trkpt>
      <trkpt lat="44.89005" lon="1.21578">
        <ele>150</ele>
        <time>2019-02-02T12:20:28.000Z</time>
      </trkpt>
      <trkpt lat="44.89011" lon="1.21549">
        <ele>152</ele>
        <time>2019-02-02T12:21:28.000Z</time>
      </trkpt>
      <trkpt lat="44.89009" lon="1.21565">
        <ele>151</ele>
        <time>2019-02-02T12:22:28.000Z</time>
      </trkpt>
      <trkpt lat="44.88922" lon="1.21609">
        <ele>148</ele>
        <time>2019-02-02T12:23:28.000Z</time>
      </trkpt>
      <trkpt lat="44.88875" lon="1.21617">
        <ele>147</ele>
        <time>2019-02-02T12:24:28.000Z</time>
      </trkpt>
      <trkpt lat="44.88831" lon="1.21626">
        <ele>146</ele>
        <time>2019-02-02T12:25:28.000Z</time>
      </trkpt>
      <trkpt lat="44.88779" lon="1.21655">
        <ele>143</ele>
        <time>2019-02-02T12:26:28.000Z</time>
      </trkpt>
      <trkpt lat="44.88754" lon="1.21637">
        <ele>143</ele>
        <time>2019-02-02T12:27:28.000Z</time>
      </trkpt>
      <trkpt lat="44.88741" lon="1.21604">
        <ele>143</ele>
        <time>2019-02-02T12:28:28.000Z</time>
      </trkpt>
      <trkpt lat="44.88731" lon="1.21667">
        <ele>142</ele>
        <time>2019-02-02T12:29:28.000Z</time>
      </trkpt>
      <trkpt lat="44.88718" lon="1.21642">
        <ele>142</ele>
        <time>2019-02-02T12:30:28.000Z</time>
      </trkpt>
      <trkpt lat="44.887" lon="1.21627">
        <ele>142</ele>
        <time>2019-02-02T12:31:28.000Z</time>
      </trkpt>
      <trkpt lat="44.88645" lon="1.21637">
        <ele>141</ele>
        <time>2019-02-02T12:32:28.000Z</time>
      </trkpt>
      <trkpt lat="44.88585" lon="1.21659">
        <ele>138</ele>
        <time>2019-02-02T12:33:28.000Z</time>
      </trkpt>
      <trkpt lat="44.88534" lon="1.21641">
        <ele>141</ele>
        <time>2019-02-02T12:34:28.000Z</time>
      </trkpt>
      <trkpt lat="44.88445" lon="1.21629">
        <ele>142</ele>
        <time>2019-02-02T12:35:28.000Z</time>
      </trkpt>
      <trkpt lat="44.88405" lon="1.21625">
        <ele>141</ele>
        <time>2019-02-02T12:36:28.000Z</time>
      </trkpt>
      <trkpt lat="44.88357" lon="1.21615">
        <ele>140</ele>
        <time>2019-02-02T12:37:28.000Z</time>
      </trkpt>
      <trkpt lat="44.88356" lon="1.216">
        <ele>141</ele>
        <time>2019-02-02T12:38:28.000Z</time>
      </trkpt>
      <trkpt lat="44.88339" lon="1.216">
        <ele>140</ele>
        <time>2019-02-02T12:39:28.000Z</time>
      </trkpt>
      <trkpt lat="44.8829" lon="1.21591">
        <ele>138</ele>
        <time>2019-02-02T12:40:28.000Z</time>
      </trkpt>
      <trkpt lat="44.8823" lon="1.21578">
        <ele>136</ele>
        <time>2019-02-02T12:41:28.000Z</time>
      </trkpt>
      <trkpt lat="44.88159" lon="1.21563">
        <ele>134</ele>
        <time>2019-02-02T12:42:28.000Z</time>
      </trkpt>
      <trkpt lat="44.88093" lon="1.21551">
        <ele>133</ele>
        <time>2019-02-02T12:43:28.000Z</time>
      </trkpt>
      <trkpt lat="44.88044" lon="1.21557">
        <ele>133</ele>
        <time>2019-02-02T12:44:28.000Z</time>
      </trkpt>
      <trkpt lat="44.87941" lon="1.21605">
        <ele>131</ele>
        <time>2019-02-02T12:45:28.000Z</time>
      </trkpt>
      <trkpt lat="44.87901" lon="1.21613">
        <ele>130</ele>
        <time>2019-02-02T12:46:28.000Z</time>
      </trkpt>
      <trkpt lat="44.87869" lon="1.21624">
        <ele>130</ele>
        <time>2019-02-02T12:47:28.000Z</time>
      </trkpt>
      <trkpt lat="44.8784" lon="1.21716">
        <ele>129</ele>
        <time>2019-02-02T12:48:28.000Z</time>
      </trkpt>
      <trkpt lat="44.87822" lon="1.21762">
        <ele>131</ele>
        <time>2019-02-02T12:49:28.000Z</time>
      </trkpt>
      <trkpt lat="44.8781" lon="1.21805">
        <ele>137</ele>
        <time>2019-02-02T12:50:28.000Z</time>
      </trkpt>
      <trkpt lat="44.878" lon="1.21841">
        <ele>141</ele>
        <time>2019-02-02T12:51:28.000Z</time>
      </trkpt>
      <trkpt lat="44.87774" lon="1.219">
        <ele>144</ele>
        <time>2019-02-02T12:52:28.000Z</time>
      </trkpt>
      <trkpt lat="44.87766" lon="1.21926">
        <ele>145</ele>
        <time>2019-02-02T12:53:28.000Z</time>
      </trkpt>
      <trkpt lat="44.87754" lon="1.21953">
        <ele>147</ele>
        <time>2019-02-02T12:54:28.000Z</time>
      </trkpt>
      <trkpt lat="44.87746" lon="1.21984">
        <ele>148</ele>
        <time>2019-02-02T12:55:28.000Z</time>
      </trkpt>
      <trkpt lat="44.87748" lon="1.22017">
        <ele>151</ele>
        <time>2019-02-02T12:56:28.000Z</time>
      </trkpt>
      <trkpt lat="44.87753" lon="1.22054">
        <ele>155</ele>
        <time>2019-02-02T12:57:28.000Z</time>
      </trkpt>
      <trkpt lat="44.87745" lon="1.22084">
        <ele>155</ele>
        <time>2019-02-02T12:58:28.000Z</time>
      </trkpt>
      <trkpt lat="44.8774" lon="1.2212">
        <ele>158</ele>
        <time>2019-02-02T12:59:28.000Z</time>
      </trkpt>
      <trkpt lat="44.87728" lon="1.2216">
        <ele>159</ele>
        <time>2019-02-02T13:00:28.000Z</time>
      </trkpt>
      <trkpt lat="44.87721" lon="1.22207">
        <ele>163</ele>
        <time>2019-02-02T13:01:28.000Z</time>
      </trkpt>
      <trkpt lat="44.87697" lon="1.22254">
        <ele>162</ele>
        <time>2019-02-02T13:02:28.000Z</time>
      </trkpt>
      <trkpt lat="44.87686" lon="1.22299">
        <ele>166</ele>
        <time>2019-02-02T13:03:28.000Z</time>
      </trkpt>
      <trkpt lat="44.87665" lon="1.2233">
        <ele>163</ele>
        <time>2019-02-02T13:04:28.000Z</time>
      </trkpt>
      <trkpt lat="44.87649" lon="1.22389">
        <ele>165</ele>
        <time>2019-02-02T13:05:28.000Z</time>
      </trkpt>
      <trkpt lat="44.87634" lon="1.22462">
        <ele>163</ele>
        <time>2019-02-02T13:06:28.000Z</time>
      </trkpt>
      <trkpt lat="44.87601" lon="1.22597">
        <ele>157</ele>
        <time>2019-02-02T13:07:28.000Z</time>
      </trkpt>
      <trkpt lat="44.87528" lon="1.22752">
        <ele>154</ele>
        <time>2019-02-02T13:08:28.000Z</time>
      </trkpt>
      <trkpt lat="44.87532" lon="1.22848">
        <ele>154</ele>
        <time>2019-02-02T13:09:28.000Z</time>
      </trkpt>
      <trkpt lat="44.87523" lon="1.22958">
        <ele>156</ele>
        <time>2019-02-02T13:10:28.000Z</time>
      </trkpt>
      <trkpt lat="44.8751" lon="1.23013">
        <ele>157</ele>
        <time>2019-02-02T13:11:28.000Z</time>
      </trkpt>
      <trkpt lat="44.87479" lon="1.23064">
        <ele>157</ele>
        <time>2019-02-02T13:12:28.000Z</time>
      </trkpt>
      <trkpt lat="44.87488" lon="1.23148">
        <ele>157</ele>
        <time>2019-02-02T13:13:28.000Z</time>
      </trkpt>
      <trkpt lat="44.87469" lon="1.23164">
        <ele>157</ele>
        <time>2019-02-02T13:14:28.000Z</time>
      </trkpt>
      <trkpt lat="44.87436" lon="1.23253">
        <ele>156</ele>
        <time>2019-02-02T13:15:28.000Z</time>
      </trkpt>
      <trkpt lat="44.87391" lon="1.23362">
        <ele>156</ele>
        <time>2019-02-02T13:16:28.000Z</time>
      </trkpt>
      <trkpt lat="44.87349" lon="1.23463">
        <ele>158</ele>
        <time>2019-02-02T13:17:28.000Z</time>
      </trkpt>
      <trkpt lat="44.873" lon="1.23575">
        <ele>157</ele>
        <time>2019-02-02T13:18:28.000Z</time>
      </trkpt>
      <trkpt lat="44.87255" lon="1.23673">
        <ele>154</ele>
        <time>2019-02-02T13:19:28.000Z</time>
      </trkpt>
      <trkpt lat="44.8722" lon="1.23775">
        <ele>146</ele>
        <time>2019-02-02T13:20:28.000Z</time>
      </trkpt>
      <trkpt lat="44.87179" lon="1.23887">
        <ele>143</ele>
        <time>2019-02-02T13:21:28.000Z</time>
      </trkpt>
      <trkpt lat="44.87144" lon="1.23985">
        <ele>143</ele>
        <time>2019-02-02T13:22:28.000Z</time>
      </trkpt>
      <trkpt lat="44.87089" lon="1.24079">
        <ele>145</ele>
        <time>2019-02-02T13:23:28.000Z</time>
      </trkpt>
      <trkpt lat="44.87038" lon="1.24167">
        <ele>143</ele>
        <time>2019-02-02T13:24:28.000Z</time>
      </trkpt>
      <trkpt lat="44.8698" lon="1.24256">
        <ele>146</ele>
        <time>2019-02-02T13:25:28.000Z</time>
      </trkpt>
      <trkpt lat="44.8692" lon="1.24343">
        <ele>140</ele>
        <time>2019-02-02T13:26:28.000Z</time>
      </trkpt>
      <trkpt lat="44.86862" lon="1.24435">
        <ele>136</ele>
        <time>2019-02-02T13:27:28.000Z</time>
      </trkpt>
      <trkpt lat="44.86791" lon="1.24527">
        <ele>138</ele>
        <time>2019-02-02T13:28:28.000Z</time>
      </trkpt>
      <trkpt lat="44.8672" lon="1.24614">
        <ele>142</ele>
        <time>2019-02-02T13:29:28.000Z</time>
      </trkpt>
      <trkpt lat="44.86658" lon="1.24714">
        <ele>136</ele>
        <time>2019-02-02T13:30:28.000Z</time>
      </trkpt>
      <trkpt lat="44.86596" lon="1.24811">
        <ele>133</ele>
        <time>2019-02-02T13:31:28.000Z</time>
      </trkpt>
      <trkpt lat="44.8651" lon="1.24875">
        <ele>131</ele>
        <time>2019-02-02T13:32:28.000Z</time>
      </trkpt>
      <trkpt lat="44.86453" lon="1.24937">
        <ele>129</ele>
        <time>2019-02-02T13:33:28.000Z</time>
      </trkpt>
      <trkpt lat="44.86466" lon="1.249">
        <ele>131</ele>
        <time>2019-02-02T13:34:28.000Z</time>
      </trkpt>
      <trkpt lat="44.86485" lon="1.24866">
        <ele>133</ele>
        <time>2019-02-02T13:35:28.000Z</time>
      </trkpt>
      <trkpt lat="44.86478" lon="1.2481">
        <ele>135</ele>
        <time>2019-02-02T13:36:28.000Z</time>
      </trkpt>
      <trkpt lat="44.86471" lon="1.24759">
        <ele>137</ele>
        <time>2019-02-02T13:37:28.000Z</time>
      </trkpt>
      <trkpt lat="44.86464" lon="1.24705">
        <ele>139</ele>
        <time>2019-02-02T13:38:28.000Z</time>
      </trkpt>
      <trkpt lat="44.86456" lon="1.2466">
        <ele>142</ele>
        <time>2019-02-02T13:39:28.000Z</time>
      </trkpt>
      <trkpt lat="44.86446" lon="1.24606">
        <ele>144</ele>
        <time>2019-02-02T13:40:28.000Z</time>
      </trkpt>
      <trkpt lat="44.86437" lon="1.24553">
        <ele>146</ele>
        <time>2019-02-02T13:41:28.000Z</time>
      </trkpt>
      <trkpt lat="44.86428" lon="1.24497">
        <ele>148</ele>
        <time>2019-02-02T13:42:28.000Z</time>
      </trkpt>
      <trkpt lat="44.86407" lon="1.24456">
        <ele>149</ele>
        <time>2019-02-02T13:43:28.000Z</time>
      </trkpt>
      <trkpt lat="44.86391" lon="1.24402">
        <ele>148</ele>
        <time>2019-02-02T13:44:28.000Z</time>
      </trkpt>
      <trkpt lat="44.86324" lon="1.24255">
        <ele>136</ele>
        <time>2019-02-02T13:45:28.000Z</time>
      </trkpt>
      <trkpt lat="44.86259" lon="1.24111">
        <ele>130</ele>
        <time>2019-02-02T13:46:28.000Z</time>
      </trkpt>
      <trkpt lat="44.86208" lon="1.23995">
        <ele>129</ele>
        <time>2019-02-02T13:47:28.000Z</time>
      </trkpt>
      <trkpt lat="44.86186" lon="1.23995">
        <ele>129</ele>
        <time>2019-02-02T13:48:28.000Z</time>
      </trkpt>
      <trkpt lat="44.8615" lon="1.24056">
        <ele>128</ele>
        <time>2019-02-02T13:49:28.000Z</time>
      </trkpt>
      <trkpt lat="44.86098" lon="1.24115">
        <ele>128</ele>
        <time>2019-02-02T13:50:28.000Z</time>
      </trkpt>
      <trkpt lat="44.8603" lon="1.24157">
        <ele>127</ele>
        <time>2019-02-02T13:51:28.000Z</time>
      </trkpt>
      <trkpt lat="44.85969" lon="1.24196">
        <ele>126</ele>
        <time>2019-02-02T13:52:28.000Z</time>
      </trkpt>
      <trkpt lat="44.85913" lon="1.24227">
        <ele>126</ele>
        <time>2019-02-02T13:53:28.000Z</time>
      </trkpt>
      <trkpt lat="44.85862" lon="1.24248">
        <ele>127</ele>
        <time>2019-02-02T13:54:28.000Z</time>
      </trkpt>
      <trkpt lat="44.85801" lon="1.24266">
        <ele>129</ele>
        <time>2019-02-02T13:55:28.000Z</time>
      </trkpt>
      <trkpt lat="44.85756" lon="1.24278">
        <ele>132</ele>
        <time>2019-02-02T13:56:28.000Z</time>
      </trkpt>
      <trkpt lat="44.85735" lon="1.24278">
        <ele>135</ele>
        <time>2019-02-02T13:57:28.000Z</time>
      </trkpt>
      <trkpt lat="44.85716" lon="1.24253">
        <ele>136</ele>
        <time>2019-02-02T13:58:28.000Z</time>
      </trkpt>
      <trkpt lat="44.85731" lon="1.24187">
        <ele>132</ele>
        <time>2019-02-02T13:59:28.000Z</time>
      </trkpt>
      <trkpt lat="44.8577" lon="1.24145">
        <ele>129</ele>
        <time>2019-02-02T14:00:28.000Z</time>
      </trkpt>
      <trkpt lat="44.85798" lon="1.24072">
        <ele>129</ele>
        <time>2019-02-02T14:01:28.000Z</time>
      </trkpt>
      <trkpt lat="44.85808" lon="1.23999">
        <ele>131</ele>
        <time>2019-02-02T14:02:28.000Z</time>
      </trkpt>
      <trkpt lat="44.85812" lon="1.23933">
        <ele>133</ele>
        <time>2019-02-02T14:03:28.000Z</time>
      </trkpt>
      <trkpt lat="44.85809" lon="1.23867">
        <ele>135</ele>
        <time>2019-02-02T14:04:28.000Z</time>
      </trkpt>
      <trkpt lat="44.8581" lon="1.23797">
        <ele>138</ele>
        <time>2019-02-02T14:05:28.000Z</time>
      </trkpt>
      <trkpt lat="44.85776" lon="1.23735">
        <ele>142</ele>
        <time>2019-02-02T14:06:28.000Z</time>
      </trkpt>
      <trkpt lat="44.85731" lon="1.23725">
        <ele>143</ele>
        <time>2019-02-02T14:07:28.000Z</time>
      </trkpt>
      <trkpt lat="44.85728" lon="1.2374">
        <ele>142</ele>
        <time>2019-02-02T14:08:28.000Z</time>
      </trkpt>
      <trkpt lat="44.85735" lon="1.23731">
        <ele>143</ele>
        <time>2019-02-02T14:09:28.000Z</time>
      </trkpt>
    </trkseg>
  </trk>
</gpx>